<?xml version="1.0" encoding="UTF-8" standalone="no" ?>
<gpx xmlns="http://www.topografix.com/GPX/1/1" xmlns:xsi="http://www.w3.org/2001/XMLSchema-instance" xsi:schemaLocation="http://www.topografix.com/GPX/1/1 http://www.topografix.com/GPX/1/1/gpx.xsd" version="1.1" creator="VisuGPX - https://www.visugpx.com">
  <metadata>
    <name>Histoire d'o</name>
    <desc><![CDATA[[b]d'o[/b]]]></desc>
  </metadata>
  <wpt lat="47.50293" lon="6.76739">
    <ele>399</ele>
    <name><![CDATA[Point de cheminement 1]]></name>
    <desc><![CDATA[]]></desc>
  </wpt>
  <wpt lat="47.49228" lon="6.75594">
    <ele>338</ele>
    <name><![CDATA[Point de cheminement 2]]></name>
    <desc><![CDATA[]]></desc>
  </wpt>
  <wpt lat="47.49146" lon="6.73405">
    <ele>386</ele>
    <name><![CDATA[Point de cheminement 3]]></name>
    <desc><![CDATA[]]></desc>
  </wpt>
  <wpt lat="47.49259" lon="6.714">
    <ele>436</ele>
    <name><![CDATA[Point de cheminement 4]]></name>
    <desc><![CDATA[]]></desc>
  </wpt>
  <wpt lat="47.48258" lon="6.69213">
    <ele>359</ele>
    <name><![CDATA[Point de cheminement 5]]></name>
    <desc><![CDATA[]]></desc>
  </wpt>
  <wpt lat="47.49034" lon="6.66874">
    <ele>381</ele>
    <name><![CDATA[Point de cheminement 6]]></name>
    <desc><![CDATA[]]></desc>
  </wpt>
  <wpt lat="47.50817" lon="6.65191">
    <ele>367</ele>
    <name><![CDATA[Point de cheminement 7]]></name>
    <desc><![CDATA[]]></desc>
  </wpt>
  <wpt lat="47.5132" lon="6.68196">
    <ele>371</ele>
    <name><![CDATA[Point de cheminement 8]]></name>
    <desc><![CDATA[]]></desc>
  </wpt>
  <wpt lat="47.50925" lon="6.70816">
    <ele>383</ele>
    <name><![CDATA[Point de cheminement 9]]></name>
    <desc><![CDATA[]]></desc>
  </wpt>
  <wpt lat="47.50122" lon="6.74071">
    <ele>368</ele>
    <name><![CDATA[Point de cheminement 10]]></name>
    <desc><![CDATA[]]></desc>
  </wpt>
  <wpt lat="47.50573" lon="6.76644">
    <ele>399</ele>
    <name><![CDATA[Point de cheminement 11]]></name>
    <desc><![CDATA[]]></desc>
  </wpt>
  <wpt lat="47.51803" lon="6.77476">
    <ele>388</ele>
    <name><![CDATA[Point de cheminement 12]]></name>
    <desc><![CDATA[]]></desc>
  </wpt>
  <trk>
    <name><![CDATA[Rue Antoine Coysevox]]></name>
    <desc><![CDATA[]]></desc>
    <trkseg>
      <trkpt lat="47.51807" lon="6.77477">
        <ele>388</ele>
        <time>2016-06-12T06:42:56.851Z</time>
      </trkpt>
      <trkpt lat="47.51815" lon="6.77476">
        <ele>388</ele>
        <time>2016-06-12T06:42:57.000Z</time>
      </trkpt>
      <trkpt lat="47.51811" lon="6.77478">
        <ele>388</ele>
        <time>2016-06-12T06:43:03.000Z</time>
      </trkpt>
      <trkpt lat="47.5181" lon="6.77478">
        <ele>388</ele>
        <time>2016-06-12T06:43:04.000Z</time>
      </trkpt>
      <trkpt lat="47.51809" lon="6.77479">
        <ele>388</ele>
        <time>2016-06-12T06:49:30.000Z</time>
      </trkpt>
      <trkpt lat="47.51802" lon="6.77484">
        <ele>388</ele>
        <time>2016-06-12T06:49:31.000Z</time>
      </trkpt>
      <trkpt lat="47.51806" lon="6.77486">
        <ele>388</ele>
        <time>2016-06-12T06:49:38.000Z</time>
      </trkpt>
      <trkpt lat="47.51807" lon="6.77488">
        <ele>388</ele>
        <time>2016-06-12T06:49:39.000Z</time>
      </trkpt>
      <trkpt lat="47.51805" lon="6.77493">
        <ele>388</ele>
        <time>2016-06-12T06:49:41.000Z</time>
      </trkpt>
      <trkpt lat="47.51803" lon="6.77493">
        <ele>388</ele>
        <time>2016-06-12T06:49:42.000Z</time>
      </trkpt>
      <trkpt lat="47.518" lon="6.77493">
        <ele>388</ele>
        <time>2016-06-12T06:49:43.000Z</time>
      </trkpt>
      <trkpt lat="47.51797" lon="6.77493">
        <ele>388</ele>
        <time>2016-06-12T06:49:44.000Z</time>
      </trkpt>
      <trkpt lat="47.51794" lon="6.77492">
        <ele>388</ele>
        <time>2016-06-12T06:49:45.000Z</time>
      </trkpt>
      <trkpt lat="47.51791" lon="6.77491">
        <ele>388</ele>
        <time>2016-06-12T06:49:46.000Z</time>
      </trkpt>
      <trkpt lat="47.51788" lon="6.7749">
        <ele>388</ele>
        <time>2016-06-12T06:49:47.000Z</time>
      </trkpt>
      <trkpt lat="47.51786" lon="6.77489">
        <ele>388</ele>
        <time>2016-06-12T06:49:48.000Z</time>
      </trkpt>
      <trkpt lat="47.51783" lon="6.77487">
        <ele>388</ele>
        <time>2016-06-12T06:49:49.000Z</time>
      </trkpt>
      <trkpt lat="47.5178" lon="6.77486">
        <ele>388</ele>
        <time>2016-06-12T06:49:50.000Z</time>
      </trkpt>
      <trkpt lat="47.51777" lon="6.77485">
        <ele>388</ele>
        <time>2016-06-12T06:49:51.000Z</time>
      </trkpt>
      <trkpt lat="47.51775" lon="6.77484">
        <ele>388</ele>
        <time>2016-06-12T06:49:52.000Z</time>
      </trkpt>
      <trkpt lat="47.51772" lon="6.77483">
        <ele>388</ele>
        <time>2016-06-12T06:49:53.000Z</time>
      </trkpt>
      <trkpt lat="47.51769" lon="6.77483">
        <ele>389</ele>
        <time>2016-06-12T06:49:54.000Z</time>
      </trkpt>
      <trkpt lat="47.51766" lon="6.77483">
        <ele>389</ele>
        <time>2016-06-12T06:49:55.000Z</time>
      </trkpt>
      <trkpt lat="47.51763" lon="6.77483">
        <ele>389</ele>
        <time>2016-06-12T06:49:56.000Z</time>
      </trkpt>
      <trkpt lat="47.5176" lon="6.77482">
        <ele>389</ele>
        <time>2016-06-12T06:49:57.000Z</time>
      </trkpt>
      <trkpt lat="47.51757" lon="6.77482">
        <ele>389</ele>
        <time>2016-06-12T06:49:58.000Z</time>
      </trkpt>
      <trkpt lat="47.51754" lon="6.77481">
        <ele>389</ele>
        <time>2016-06-12T06:49:59.000Z</time>
      </trkpt>
      <trkpt lat="47.5175" lon="6.7748">
        <ele>389</ele>
        <time>2016-06-12T06:50:00.000Z</time>
      </trkpt>
      <trkpt lat="47.51747" lon="6.7748">
        <ele>389</ele>
        <time>2016-06-12T06:50:01.000Z</time>
      </trkpt>
      <trkpt lat="47.51743" lon="6.77479">
        <ele>389</ele>
        <time>2016-06-12T06:50:02.000Z</time>
      </trkpt>
      <trkpt lat="47.5174" lon="6.77478">
        <ele>389</ele>
        <time>2016-06-12T06:50:03.000Z</time>
      </trkpt>
      <trkpt lat="47.51736" lon="6.77478">
        <ele>389</ele>
        <time>2016-06-12T06:50:04.000Z</time>
      </trkpt>
      <trkpt lat="47.51732" lon="6.77479">
        <ele>389</ele>
        <time>2016-06-12T06:50:05.000Z</time>
      </trkpt>
      <trkpt lat="47.51729" lon="6.77481">
        <ele>389</ele>
        <time>2016-06-12T06:50:06.000Z</time>
      </trkpt>
      <trkpt lat="47.51726" lon="6.77484">
        <ele>389</ele>
        <time>2016-06-12T06:50:07.000Z</time>
      </trkpt>
      <trkpt lat="47.51723" lon="6.77488">
        <ele>389</ele>
        <time>2016-06-12T06:50:08.000Z</time>
      </trkpt>
      <trkpt lat="47.51721" lon="6.77493">
        <ele>389</ele>
        <time>2016-06-12T06:50:09.000Z</time>
      </trkpt>
      <trkpt lat="47.51719" lon="6.77499">
        <ele>389</ele>
        <time>2016-06-12T06:50:10.000Z</time>
      </trkpt>
      <trkpt lat="47.51718" lon="6.77504">
        <ele>390</ele>
        <time>2016-06-12T06:50:11.000Z</time>
      </trkpt>
      <trkpt lat="47.51718" lon="6.7751">
        <ele>390</ele>
        <time>2016-06-12T06:50:12.000Z</time>
      </trkpt>
      <trkpt lat="47.51717" lon="6.77516">
        <ele>390</ele>
        <time>2016-06-12T06:50:13.000Z</time>
      </trkpt>
      <trkpt lat="47.51716" lon="6.77522">
        <ele>390</ele>
        <time>2016-06-12T06:50:14.000Z</time>
      </trkpt>
      <trkpt lat="47.51715" lon="6.77527">
        <ele>390</ele>
        <time>2016-06-12T06:50:15.000Z</time>
      </trkpt>
      <trkpt lat="47.51715" lon="6.77533">
        <ele>390</ele>
        <time>2016-06-12T06:50:16.000Z</time>
      </trkpt>
      <trkpt lat="47.51714" lon="6.77539">
        <ele>390</ele>
        <time>2016-06-12T06:50:17.000Z</time>
      </trkpt>
      <trkpt lat="47.51713" lon="6.77544">
        <ele>390</ele>
        <time>2016-06-12T06:50:18.000Z</time>
      </trkpt>
      <trkpt lat="47.51711" lon="6.7755">
        <ele>390</ele>
        <time>2016-06-12T06:50:19.000Z</time>
      </trkpt>
      <trkpt lat="47.51709" lon="6.77554">
        <ele>390</ele>
        <time>2016-06-12T06:50:20.000Z</time>
      </trkpt>
      <trkpt lat="47.51705" lon="6.77555">
        <ele>390</ele>
        <time>2016-06-12T06:50:21.000Z</time>
      </trkpt>
      <trkpt lat="47.51701" lon="6.77554">
        <ele>390</ele>
        <time>2016-06-12T06:50:22.000Z</time>
      </trkpt>
      <trkpt lat="47.51697" lon="6.77551">
        <ele>390</ele>
        <time>2016-06-12T06:50:23.000Z</time>
      </trkpt>
      <trkpt lat="47.51693" lon="6.77546">
        <ele>390</ele>
        <time>2016-06-12T06:50:24.000Z</time>
      </trkpt>
      <trkpt lat="47.51689" lon="6.77542">
        <ele>390</ele>
        <time>2016-06-12T06:50:25.000Z</time>
      </trkpt>
      <trkpt lat="47.51685" lon="6.77537">
        <ele>390</ele>
        <time>2016-06-12T06:50:26.000Z</time>
      </trkpt>
      <trkpt lat="47.51681" lon="6.77527">
        <ele>390</ele>
        <time>2016-06-12T06:50:27.000Z</time>
      </trkpt>
      <trkpt lat="47.51677" lon="6.77522">
        <ele>390</ele>
        <time>2016-06-12T06:50:28.000Z</time>
      </trkpt>
      <trkpt lat="47.51673" lon="6.77518">
        <ele>389</ele>
        <time>2016-06-12T06:50:29.000Z</time>
      </trkpt>
      <trkpt lat="47.51669" lon="6.77513">
        <ele>389</ele>
        <time>2016-06-12T06:50:30.000Z</time>
      </trkpt>
      <trkpt lat="47.51665" lon="6.77509">
        <ele>388</ele>
        <time>2016-06-12T06:50:31.000Z</time>
      </trkpt>
      <trkpt lat="47.51661" lon="6.77504">
        <ele>389</ele>
        <time>2016-06-12T06:50:32.000Z</time>
      </trkpt>
      <trkpt lat="47.51657" lon="6.77499">
        <ele>388</ele>
        <time>2016-06-12T06:50:33.000Z</time>
      </trkpt>
      <trkpt lat="47.51653" lon="6.77494">
        <ele>388</ele>
        <time>2016-06-12T06:50:34.000Z</time>
      </trkpt>
      <trkpt lat="47.51649" lon="6.77489">
        <ele>387</ele>
        <time>2016-06-12T06:50:35.000Z</time>
      </trkpt>
      <trkpt lat="47.51644" lon="6.77484">
        <ele>387</ele>
        <time>2016-06-12T06:50:36.000Z</time>
      </trkpt>
      <trkpt lat="47.5164" lon="6.77478">
        <ele>386</ele>
        <time>2016-06-12T06:50:37.000Z</time>
      </trkpt>
      <trkpt lat="47.51636" lon="6.77472">
        <ele>386</ele>
        <time>2016-06-12T06:50:38.001Z</time>
      </trkpt>
      <trkpt lat="47.5163" lon="6.77467">
        <ele>386</ele>
        <time>2016-06-12T06:50:39.000Z</time>
      </trkpt>
      <trkpt lat="47.51626" lon="6.77461">
        <ele>386</ele>
        <time>2016-06-12T06:50:40.000Z</time>
      </trkpt>
      <trkpt lat="47.51622" lon="6.77454">
        <ele>386</ele>
        <time>2016-06-12T06:50:41.000Z</time>
      </trkpt>
      <trkpt lat="47.51617" lon="6.77448">
        <ele>385</ele>
        <time>2016-06-12T06:50:42.001Z</time>
      </trkpt>
      <trkpt lat="47.51612" lon="6.77443">
        <ele>385</ele>
        <time>2016-06-12T06:50:43.000Z</time>
      </trkpt>
      <trkpt lat="47.51608" lon="6.77437">
        <ele>385</ele>
        <time>2016-06-12T06:50:44.000Z</time>
      </trkpt>
      <trkpt lat="47.51602" lon="6.77431">
        <ele>385</ele>
        <time>2016-06-12T06:50:45.000Z</time>
      </trkpt>
      <trkpt lat="47.51597" lon="6.77425">
        <ele>384</ele>
        <time>2016-06-12T06:50:45.998Z</time>
      </trkpt>
      <trkpt lat="47.51591" lon="6.77419">
        <ele>384</ele>
        <time>2016-06-12T06:50:47.000Z</time>
      </trkpt>
      <trkpt lat="47.51587" lon="6.77412">
        <ele>383</ele>
        <time>2016-06-12T06:50:48.000Z</time>
      </trkpt>
      <trkpt lat="47.51583" lon="6.77406">
        <ele>382</ele>
        <time>2016-06-12T06:50:49.000Z</time>
      </trkpt>
      <trkpt lat="47.51578" lon="6.774">
        <ele>382</ele>
        <time>2016-06-12T06:50:50.000Z</time>
      </trkpt>
      <trkpt lat="47.51573" lon="6.77394">
        <ele>381</ele>
        <time>2016-06-12T06:50:51.001Z</time>
      </trkpt>
      <trkpt lat="47.51568" lon="6.77387">
        <ele>381</ele>
        <time>2016-06-12T06:50:52.000Z</time>
      </trkpt>
      <trkpt lat="47.51563" lon="6.77381">
        <ele>381</ele>
        <time>2016-06-12T06:50:53.000Z</time>
      </trkpt>
      <trkpt lat="47.51558" lon="6.77374">
        <ele>381</ele>
        <time>2016-06-12T06:50:54.000Z</time>
      </trkpt>
      <trkpt lat="47.51552" lon="6.77368">
        <ele>381</ele>
        <time>2016-06-12T06:50:55.000Z</time>
      </trkpt>
      <trkpt lat="47.51547" lon="6.77362">
        <ele>380</ele>
        <time>2016-06-12T06:50:56.000Z</time>
      </trkpt>
      <trkpt lat="47.51542" lon="6.77356">
        <ele>380</ele>
        <time>2016-06-12T06:50:57.000Z</time>
      </trkpt>
      <trkpt lat="47.51536" lon="6.77349">
        <ele>380</ele>
        <time>2016-06-12T06:50:58.000Z</time>
      </trkpt>
      <trkpt lat="47.51531" lon="6.77343">
        <ele>380</ele>
        <time>2016-06-12T06:50:59.000Z</time>
      </trkpt>
      <trkpt lat="47.51526" lon="6.77337">
        <ele>380</ele>
        <time>2016-06-12T06:51:00.001Z</time>
      </trkpt>
      <trkpt lat="47.5152" lon="6.77332">
        <ele>378</ele>
        <time>2016-06-12T06:51:01.000Z</time>
      </trkpt>
      <trkpt lat="47.51514" lon="6.77327">
        <ele>378</ele>
        <time>2016-06-12T06:51:02.000Z</time>
      </trkpt>
      <trkpt lat="47.51509" lon="6.77321">
        <ele>378</ele>
        <time>2016-06-12T06:51:03.000Z</time>
      </trkpt>
      <trkpt lat="47.51503" lon="6.77313">
        <ele>378</ele>
        <time>2016-06-12T06:51:04.000Z</time>
      </trkpt>
      <trkpt lat="47.51498" lon="6.77306">
        <ele>377</ele>
        <time>2016-06-12T06:51:05.000Z</time>
      </trkpt>
      <trkpt lat="47.51493" lon="6.77297">
        <ele>377</ele>
        <time>2016-06-12T06:51:06.000Z</time>
      </trkpt>
      <trkpt lat="47.5149" lon="6.77288">
        <ele>377</ele>
        <time>2016-06-12T06:51:07.000Z</time>
      </trkpt>
      <trkpt lat="47.51488" lon="6.7728">
        <ele>377</ele>
        <time>2016-06-12T06:51:08.000Z</time>
      </trkpt>
      <trkpt lat="47.51486" lon="6.77271">
        <ele>377</ele>
        <time>2016-06-12T06:51:09.000Z</time>
      </trkpt>
      <trkpt lat="47.51486" lon="6.77262">
        <ele>376</ele>
        <time>2016-06-12T06:51:10.000Z</time>
      </trkpt>
      <trkpt lat="47.51485" lon="6.77254">
        <ele>376</ele>
        <time>2016-06-12T06:51:11.000Z</time>
      </trkpt>
      <trkpt lat="47.51484" lon="6.77245">
        <ele>376</ele>
        <time>2016-06-12T06:51:12.000Z</time>
      </trkpt>
      <trkpt lat="47.51483" lon="6.77236">
        <ele>375</ele>
        <time>2016-06-12T06:51:13.000Z</time>
      </trkpt>
      <trkpt lat="47.51483" lon="6.77227">
        <ele>375</ele>
        <time>2016-06-12T06:51:14.000Z</time>
      </trkpt>
      <trkpt lat="47.51483" lon="6.77218">
        <ele>375</ele>
        <time>2016-06-12T06:51:14.999Z</time>
      </trkpt>
      <trkpt lat="47.5148" lon="6.77211">
        <ele>375</ele>
        <time>2016-06-12T06:51:16.000Z</time>
      </trkpt>
      <trkpt lat="47.51477" lon="6.77205">
        <ele>375</ele>
        <time>2016-06-12T06:51:17.000Z</time>
      </trkpt>
      <trkpt lat="47.51473" lon="6.772">
        <ele>375</ele>
        <time>2016-06-12T06:51:18.000Z</time>
      </trkpt>
      <trkpt lat="47.51468" lon="6.77195">
        <ele>375</ele>
        <time>2016-06-12T06:51:19.000Z</time>
      </trkpt>
      <trkpt lat="47.51462" lon="6.77193">
        <ele>375</ele>
        <time>2016-06-12T06:51:20.000Z</time>
      </trkpt>
      <trkpt lat="47.51454" lon="6.77204">
        <ele>375</ele>
        <time>2016-06-12T06:51:21.000Z</time>
      </trkpt>
      <trkpt lat="47.51447" lon="6.77207">
        <ele>375</ele>
        <time>2016-06-12T06:51:22.000Z</time>
      </trkpt>
      <trkpt lat="47.51441" lon="6.77211">
        <ele>375</ele>
        <time>2016-06-12T06:51:23.000Z</time>
      </trkpt>
      <trkpt lat="47.51435" lon="6.77215">
        <ele>375</ele>
        <time>2016-06-12T06:51:24.000Z</time>
      </trkpt>
      <trkpt lat="47.51428" lon="6.77218">
        <ele>375</ele>
        <time>2016-06-12T06:51:25.000Z</time>
      </trkpt>
      <trkpt lat="47.51422" lon="6.7722">
        <ele>375</ele>
        <time>2016-06-12T06:51:26.000Z</time>
      </trkpt>
      <trkpt lat="47.51417" lon="6.77222">
        <ele>375</ele>
        <time>2016-06-12T06:51:27.000Z</time>
      </trkpt>
      <trkpt lat="47.51411" lon="6.77224">
        <ele>376</ele>
        <time>2016-06-12T06:51:28.000Z</time>
      </trkpt>
      <trkpt lat="47.51407" lon="6.77227">
        <ele>376</ele>
        <time>2016-06-12T06:51:29.000Z</time>
      </trkpt>
      <trkpt lat="47.51402" lon="6.7723">
        <ele>376</ele>
        <time>2016-06-12T06:51:30.000Z</time>
      </trkpt>
      <trkpt lat="47.51397" lon="6.77233">
        <ele>376</ele>
        <time>2016-06-12T06:51:31.000Z</time>
      </trkpt>
      <trkpt lat="47.51393" lon="6.77235">
        <ele>376</ele>
        <time>2016-06-12T06:51:32.000Z</time>
      </trkpt>
      <trkpt lat="47.51388" lon="6.77238">
        <ele>376</ele>
        <time>2016-06-12T06:51:33.000Z</time>
      </trkpt>
      <trkpt lat="47.51384" lon="6.7724">
        <ele>376</ele>
        <time>2016-06-12T06:51:33.999Z</time>
      </trkpt>
      <trkpt lat="47.5138" lon="6.77242">
        <ele>376</ele>
        <time>2016-06-12T06:51:34.999Z</time>
      </trkpt>
      <trkpt lat="47.51377" lon="6.77247">
        <ele>376</ele>
        <time>2016-06-12T06:51:36.000Z</time>
      </trkpt>
      <trkpt lat="47.51373" lon="6.77248">
        <ele>376</ele>
        <time>2016-06-12T06:51:37.000Z</time>
      </trkpt>
      <trkpt lat="47.5137" lon="6.77251">
        <ele>377</ele>
        <time>2016-06-12T06:51:38.000Z</time>
      </trkpt>
      <trkpt lat="47.51367" lon="6.77253">
        <ele>378</ele>
        <time>2016-06-12T06:51:39.000Z</time>
      </trkpt>
      <trkpt lat="47.51363" lon="6.77255">
        <ele>378</ele>
        <time>2016-06-12T06:51:40.000Z</time>
      </trkpt>
      <trkpt lat="47.5136" lon="6.77257">
        <ele>378</ele>
        <time>2016-06-12T06:51:40.999Z</time>
      </trkpt>
      <trkpt lat="47.51358" lon="6.77259">
        <ele>378</ele>
        <time>2016-06-12T06:51:42.000Z</time>
      </trkpt>
      <trkpt lat="47.51355" lon="6.77262">
        <ele>378</ele>
        <time>2016-06-12T06:51:43.000Z</time>
      </trkpt>
      <trkpt lat="47.51352" lon="6.77265">
        <ele>378</ele>
        <time>2016-06-12T06:51:44.000Z</time>
      </trkpt>
      <trkpt lat="47.51349" lon="6.77267">
        <ele>378</ele>
        <time>2016-06-12T06:51:45.000Z</time>
      </trkpt>
      <trkpt lat="47.51347" lon="6.77269">
        <ele>378</ele>
        <time>2016-06-12T06:51:45.999Z</time>
      </trkpt>
      <trkpt lat="47.51344" lon="6.77271">
        <ele>378</ele>
        <time>2016-06-12T06:51:47.000Z</time>
      </trkpt>
      <trkpt lat="47.51342" lon="6.77273">
        <ele>378</ele>
        <time>2016-06-12T06:51:48.000Z</time>
      </trkpt>
      <trkpt lat="47.51339" lon="6.77276">
        <ele>378</ele>
        <time>2016-06-12T06:51:49.000Z</time>
      </trkpt>
      <trkpt lat="47.51337" lon="6.77278">
        <ele>378</ele>
        <time>2016-06-12T06:51:50.000Z</time>
      </trkpt>
      <trkpt lat="47.51334" lon="6.7728">
        <ele>378</ele>
        <time>2016-06-12T06:51:51.000Z</time>
      </trkpt>
      <trkpt lat="47.51331" lon="6.7728">
        <ele>377</ele>
        <time>2016-06-12T06:51:52.000Z</time>
      </trkpt>
      <trkpt lat="47.51328" lon="6.77281">
        <ele>377</ele>
        <time>2016-06-12T06:51:53.000Z</time>
      </trkpt>
      <trkpt lat="47.51325" lon="6.77281">
        <ele>377</ele>
        <time>2016-06-12T06:51:54.000Z</time>
      </trkpt>
      <trkpt lat="47.51321" lon="6.77281">
        <ele>377</ele>
        <time>2016-06-12T06:51:55.000Z</time>
      </trkpt>
      <trkpt lat="47.51318" lon="6.77281">
        <ele>377</ele>
        <time>2016-06-12T06:51:56.000Z</time>
      </trkpt>
      <trkpt lat="47.51316" lon="6.77279">
        <ele>377</ele>
        <time>2016-06-12T06:51:57.000Z</time>
      </trkpt>
      <trkpt lat="47.51314" lon="6.77277">
        <ele>377</ele>
        <time>2016-06-12T06:51:58.000Z</time>
      </trkpt>
      <trkpt lat="47.51311" lon="6.77276">
        <ele>377</ele>
        <time>2016-06-12T06:51:58.998Z</time>
      </trkpt>
      <trkpt lat="47.51309" lon="6.77273">
        <ele>377</ele>
        <time>2016-06-12T06:52:00.002Z</time>
      </trkpt>
      <trkpt lat="47.51306" lon="6.77271">
        <ele>377</ele>
        <time>2016-06-12T06:52:01.000Z</time>
      </trkpt>
      <trkpt lat="47.51303" lon="6.77269">
        <ele>377</ele>
        <time>2016-06-12T06:52:02.000Z</time>
      </trkpt>
      <trkpt lat="47.513" lon="6.77267">
        <ele>377</ele>
        <time>2016-06-12T06:52:03.000Z</time>
      </trkpt>
      <trkpt lat="47.51297" lon="6.77265">
        <ele>377</ele>
        <time>2016-06-12T06:52:04.000Z</time>
      </trkpt>
      <trkpt lat="47.51294" lon="6.77264">
        <ele>377</ele>
        <time>2016-06-12T06:52:05.000Z</time>
      </trkpt>
      <trkpt lat="47.5129" lon="6.77263">
        <ele>377</ele>
        <time>2016-06-12T06:52:06.000Z</time>
      </trkpt>
      <trkpt lat="47.51287" lon="6.77261">
        <ele>377</ele>
        <time>2016-06-12T06:52:07.000Z</time>
      </trkpt>
      <trkpt lat="47.51283" lon="6.77259">
        <ele>377</ele>
        <time>2016-06-12T06:52:08.000Z</time>
      </trkpt>
      <trkpt lat="47.5128" lon="6.77258">
        <ele>377</ele>
        <time>2016-06-12T06:52:09.000Z</time>
      </trkpt>
      <trkpt lat="47.51277" lon="6.77256">
        <ele>377</ele>
        <time>2016-06-12T06:52:10.000Z</time>
      </trkpt>
      <trkpt lat="47.51273" lon="6.77254">
        <ele>377</ele>
        <time>2016-06-12T06:52:11.000Z</time>
      </trkpt>
      <trkpt lat="47.5127" lon="6.77251">
        <ele>378</ele>
        <time>2016-06-12T06:52:12.000Z</time>
      </trkpt>
      <trkpt lat="47.51266" lon="6.77249">
        <ele>378</ele>
        <time>2016-06-12T06:52:13.000Z</time>
      </trkpt>
      <trkpt lat="47.51263" lon="6.77245">
        <ele>378</ele>
        <time>2016-06-12T06:52:14.000Z</time>
      </trkpt>
      <trkpt lat="47.51259" lon="6.77242">
        <ele>378</ele>
        <time>2016-06-12T06:52:15.000Z</time>
      </trkpt>
      <trkpt lat="47.51256" lon="6.77238">
        <ele>378</ele>
        <time>2016-06-12T06:52:16.000Z</time>
      </trkpt>
      <trkpt lat="47.51253" lon="6.77233">
        <ele>378</ele>
        <time>2016-06-12T06:52:17.000Z</time>
      </trkpt>
      <trkpt lat="47.5125" lon="6.77229">
        <ele>377</ele>
        <time>2016-06-12T06:52:18.000Z</time>
      </trkpt>
      <trkpt lat="47.51246" lon="6.77222">
        <ele>376</ele>
        <time>2016-06-12T06:52:19.000Z</time>
      </trkpt>
      <trkpt lat="47.51243" lon="6.77216">
        <ele>376</ele>
        <time>2016-06-12T06:52:20.000Z</time>
      </trkpt>
      <trkpt lat="47.5124" lon="6.77211">
        <ele>376</ele>
        <time>2016-06-12T06:52:21.000Z</time>
      </trkpt>
      <trkpt lat="47.51237" lon="6.77206">
        <ele>376</ele>
        <time>2016-06-12T06:52:22.000Z</time>
      </trkpt>
      <trkpt lat="47.51234" lon="6.772">
        <ele>376</ele>
        <time>2016-06-12T06:52:23.000Z</time>
      </trkpt>
      <trkpt lat="47.51231" lon="6.77194">
        <ele>376</ele>
        <time>2016-06-12T06:52:24.000Z</time>
      </trkpt>
      <trkpt lat="47.51228" lon="6.77188">
        <ele>376</ele>
        <time>2016-06-12T06:52:25.000Z</time>
      </trkpt>
      <trkpt lat="47.51226" lon="6.77182">
        <ele>376</ele>
        <time>2016-06-12T06:52:26.000Z</time>
      </trkpt>
      <trkpt lat="47.51223" lon="6.77176">
        <ele>376</ele>
        <time>2016-06-12T06:52:27.000Z</time>
      </trkpt>
      <trkpt lat="47.5122" lon="6.77171">
        <ele>376</ele>
        <time>2016-06-12T06:52:28.000Z</time>
      </trkpt>
      <trkpt lat="47.51217" lon="6.77165">
        <ele>378</ele>
        <time>2016-06-12T06:52:29.000Z</time>
      </trkpt>
      <trkpt lat="47.51213" lon="6.77159">
        <ele>378</ele>
        <time>2016-06-12T06:52:30.000Z</time>
      </trkpt>
      <trkpt lat="47.51209" lon="6.77153">
        <ele>378</ele>
        <time>2016-06-12T06:52:31.000Z</time>
      </trkpt>
      <trkpt lat="47.51206" lon="6.77147">
        <ele>378</ele>
        <time>2016-06-12T06:52:32.000Z</time>
      </trkpt>
      <trkpt lat="47.51202" lon="6.7714">
        <ele>378</ele>
        <time>2016-06-12T06:52:33.000Z</time>
      </trkpt>
      <trkpt lat="47.51199" lon="6.77133">
        <ele>378</ele>
        <time>2016-06-12T06:52:34.000Z</time>
      </trkpt>
      <trkpt lat="47.51195" lon="6.77126">
        <ele>378</ele>
        <time>2016-06-12T06:52:35.000Z</time>
      </trkpt>
      <trkpt lat="47.51191" lon="6.77119">
        <ele>378</ele>
        <time>2016-06-12T06:52:36.000Z</time>
      </trkpt>
      <trkpt lat="47.51188" lon="6.77112">
        <ele>378</ele>
        <time>2016-06-12T06:52:37.000Z</time>
      </trkpt>
      <trkpt lat="47.51184" lon="6.77105">
        <ele>378</ele>
        <time>2016-06-12T06:52:38.000Z</time>
      </trkpt>
      <trkpt lat="47.5118" lon="6.77098">
        <ele>378</ele>
        <time>2016-06-12T06:52:39.000Z</time>
      </trkpt>
      <trkpt lat="47.51177" lon="6.77091">
        <ele>378</ele>
        <time>2016-06-12T06:52:40.000Z</time>
      </trkpt>
      <trkpt lat="47.51173" lon="6.77084">
        <ele>378</ele>
        <time>2016-06-12T06:52:41.000Z</time>
      </trkpt>
      <trkpt lat="47.51169" lon="6.77077">
        <ele>377</ele>
        <time>2016-06-12T06:52:42.000Z</time>
      </trkpt>
      <trkpt lat="47.51165" lon="6.77071">
        <ele>377</ele>
        <time>2016-06-12T06:52:43.000Z</time>
      </trkpt>
      <trkpt lat="47.51161" lon="6.77065">
        <ele>376</ele>
        <time>2016-06-12T06:52:44.000Z</time>
      </trkpt>
      <trkpt lat="47.51157" lon="6.77059">
        <ele>376</ele>
        <time>2016-06-12T06:52:45.000Z</time>
      </trkpt>
      <trkpt lat="47.51152" lon="6.77055">
        <ele>376</ele>
        <time>2016-06-12T06:52:46.000Z</time>
      </trkpt>
      <trkpt lat="47.51147" lon="6.7705">
        <ele>376</ele>
        <time>2016-06-12T06:52:47.000Z</time>
      </trkpt>
      <trkpt lat="47.51142" lon="6.77046">
        <ele>376</ele>
        <time>2016-06-12T06:52:48.000Z</time>
      </trkpt>
      <trkpt lat="47.51137" lon="6.77041">
        <ele>375</ele>
        <time>2016-06-12T06:52:49.000Z</time>
      </trkpt>
      <trkpt lat="47.51132" lon="6.77037">
        <ele>375</ele>
        <time>2016-06-12T06:52:50.000Z</time>
      </trkpt>
      <trkpt lat="47.51127" lon="6.77032">
        <ele>375</ele>
        <time>2016-06-12T06:52:51.000Z</time>
      </trkpt>
      <trkpt lat="47.51122" lon="6.77028">
        <ele>375</ele>
        <time>2016-06-12T06:52:52.000Z</time>
      </trkpt>
      <trkpt lat="47.51117" lon="6.77024">
        <ele>375</ele>
        <time>2016-06-12T06:52:53.000Z</time>
      </trkpt>
      <trkpt lat="47.51112" lon="6.77019">
        <ele>375</ele>
        <time>2016-06-12T06:52:54.000Z</time>
      </trkpt>
      <trkpt lat="47.51107" lon="6.77015">
        <ele>375</ele>
        <time>2016-06-12T06:52:55.000Z</time>
      </trkpt>
      <trkpt lat="47.51103" lon="6.77011">
        <ele>375</ele>
        <time>2016-06-12T06:52:56.000Z</time>
      </trkpt>
      <trkpt lat="47.51098" lon="6.77007">
        <ele>375</ele>
        <time>2016-06-12T06:52:57.000Z</time>
      </trkpt>
      <trkpt lat="47.51093" lon="6.77003">
        <ele>375</ele>
        <time>2016-06-12T06:52:58.000Z</time>
      </trkpt>
      <trkpt lat="47.51088" lon="6.76999">
        <ele>375</ele>
        <time>2016-06-12T06:52:59.000Z</time>
      </trkpt>
      <trkpt lat="47.51083" lon="6.76996">
        <ele>375</ele>
        <time>2016-06-12T06:53:00.000Z</time>
      </trkpt>
      <trkpt lat="47.51079" lon="6.76992">
        <ele>375</ele>
        <time>2016-06-12T06:53:01.000Z</time>
      </trkpt>
      <trkpt lat="47.51074" lon="6.76989">
        <ele>375</ele>
        <time>2016-06-12T06:53:02.002Z</time>
      </trkpt>
      <trkpt lat="47.51069" lon="6.76986">
        <ele>375</ele>
        <time>2016-06-12T06:53:03.000Z</time>
      </trkpt>
      <trkpt lat="47.51065" lon="6.76982">
        <ele>375</ele>
        <time>2016-06-12T06:53:04.000Z</time>
      </trkpt>
      <trkpt lat="47.5106" lon="6.76978">
        <ele>375</ele>
        <time>2016-06-12T06:53:05.002Z</time>
      </trkpt>
      <trkpt lat="47.51055" lon="6.76976">
        <ele>375</ele>
        <time>2016-06-12T06:53:06.000Z</time>
      </trkpt>
      <trkpt lat="47.5105" lon="6.76972">
        <ele>375</ele>
        <time>2016-06-12T06:53:07.000Z</time>
      </trkpt>
      <trkpt lat="47.51046" lon="6.76968">
        <ele>375</ele>
        <time>2016-06-12T06:53:08.000Z</time>
      </trkpt>
      <trkpt lat="47.51042" lon="6.76964">
        <ele>375</ele>
        <time>2016-06-12T06:53:09.000Z</time>
      </trkpt>
      <trkpt lat="47.51037" lon="6.7696">
        <ele>375</ele>
        <time>2016-06-12T06:53:10.000Z</time>
      </trkpt>
      <trkpt lat="47.51033" lon="6.76957">
        <ele>375</ele>
        <time>2016-06-12T06:53:11.000Z</time>
      </trkpt>
      <trkpt lat="47.51028" lon="6.76955">
        <ele>375</ele>
        <time>2016-06-12T06:53:12.000Z</time>
      </trkpt>
      <trkpt lat="47.51024" lon="6.76952">
        <ele>375</ele>
        <time>2016-06-12T06:53:13.000Z</time>
      </trkpt>
      <trkpt lat="47.51021" lon="6.76947">
        <ele>375</ele>
        <time>2016-06-12T06:53:14.000Z</time>
      </trkpt>
      <trkpt lat="47.51017" lon="6.76943">
        <ele>375</ele>
        <time>2016-06-12T06:53:15.000Z</time>
      </trkpt>
      <trkpt lat="47.51015" lon="6.76937">
        <ele>375</ele>
        <time>2016-06-12T06:53:16.000Z</time>
      </trkpt>
      <trkpt lat="47.51011" lon="6.76932">
        <ele>375</ele>
        <time>2016-06-12T06:53:17.000Z</time>
      </trkpt>
      <trkpt lat="47.51008" lon="6.76929">
        <ele>375</ele>
        <time>2016-06-12T06:53:18.000Z</time>
      </trkpt>
      <trkpt lat="47.51004" lon="6.76927">
        <ele>376</ele>
        <time>2016-06-12T06:53:19.000Z</time>
      </trkpt>
      <trkpt lat="47.51" lon="6.76924">
        <ele>375</ele>
        <time>2016-06-12T06:53:20.000Z</time>
      </trkpt>
      <trkpt lat="47.50997" lon="6.76918">
        <ele>376</ele>
        <time>2016-06-12T06:53:21.000Z</time>
      </trkpt>
      <trkpt lat="47.50996" lon="6.76911">
        <ele>376</ele>
        <time>2016-06-12T06:53:22.000Z</time>
      </trkpt>
      <trkpt lat="47.50993" lon="6.76905">
        <ele>377</ele>
        <time>2016-06-12T06:53:23.000Z</time>
      </trkpt>
      <trkpt lat="47.50989" lon="6.76901">
        <ele>377</ele>
        <time>2016-06-12T06:53:24.000Z</time>
      </trkpt>
      <trkpt lat="47.50985" lon="6.76899">
        <ele>377</ele>
        <time>2016-06-12T06:53:25.000Z</time>
      </trkpt>
      <trkpt lat="47.5098" lon="6.76897">
        <ele>377</ele>
        <time>2016-06-12T06:53:26.000Z</time>
      </trkpt>
      <trkpt lat="47.50976" lon="6.76898">
        <ele>377</ele>
        <time>2016-06-12T06:53:27.000Z</time>
      </trkpt>
      <trkpt lat="47.50972" lon="6.76897">
        <ele>377</ele>
        <time>2016-06-12T06:53:28.000Z</time>
      </trkpt>
      <trkpt lat="47.50968" lon="6.76896">
        <ele>377</ele>
        <time>2016-06-12T06:53:29.000Z</time>
      </trkpt>
      <trkpt lat="47.50964" lon="6.76895">
        <ele>377</ele>
        <time>2016-06-12T06:53:30.000Z</time>
      </trkpt>
      <trkpt lat="47.5096" lon="6.76892">
        <ele>377</ele>
        <time>2016-06-12T06:53:31.000Z</time>
      </trkpt>
      <trkpt lat="47.50957" lon="6.76889">
        <ele>377</ele>
        <time>2016-06-12T06:53:32.000Z</time>
      </trkpt>
      <trkpt lat="47.50953" lon="6.76886">
        <ele>378</ele>
        <time>2016-06-12T06:53:33.000Z</time>
      </trkpt>
      <trkpt lat="47.50949" lon="6.76882">
        <ele>378</ele>
        <time>2016-06-12T06:53:34.000Z</time>
      </trkpt>
      <trkpt lat="47.50946" lon="6.76879">
        <ele>378</ele>
        <time>2016-06-12T06:53:35.000Z</time>
      </trkpt>
      <trkpt lat="47.50942" lon="6.76875">
        <ele>378</ele>
        <time>2016-06-12T06:53:36.000Z</time>
      </trkpt>
      <trkpt lat="47.50939" lon="6.76871">
        <ele>378</ele>
        <time>2016-06-12T06:53:37.000Z</time>
      </trkpt>
      <trkpt lat="47.50935" lon="6.76867">
        <ele>378</ele>
        <time>2016-06-12T06:53:38.000Z</time>
      </trkpt>
      <trkpt lat="47.50932" lon="6.76863">
        <ele>378</ele>
        <time>2016-06-12T06:53:39.000Z</time>
      </trkpt>
      <trkpt lat="47.50929" lon="6.76858">
        <ele>378</ele>
        <time>2016-06-12T06:53:40.000Z</time>
      </trkpt>
      <trkpt lat="47.50926" lon="6.76854">
        <ele>378</ele>
        <time>2016-06-12T06:53:41.000Z</time>
      </trkpt>
      <trkpt lat="47.50924" lon="6.7685">
        <ele>379</ele>
        <time>2016-06-12T06:53:42.000Z</time>
      </trkpt>
      <trkpt lat="47.50921" lon="6.76845">
        <ele>379</ele>
        <time>2016-06-12T06:53:43.000Z</time>
      </trkpt>
      <trkpt lat="47.50919" lon="6.7684">
        <ele>379</ele>
        <time>2016-06-12T06:53:44.000Z</time>
      </trkpt>
      <trkpt lat="47.50916" lon="6.76835">
        <ele>380</ele>
        <time>2016-06-12T06:53:45.000Z</time>
      </trkpt>
      <trkpt lat="47.50914" lon="6.7683">
        <ele>380</ele>
        <time>2016-06-12T06:53:46.000Z</time>
      </trkpt>
      <trkpt lat="47.50912" lon="6.76825">
        <ele>380</ele>
        <time>2016-06-12T06:53:47.000Z</time>
      </trkpt>
      <trkpt lat="47.50909" lon="6.7682">
        <ele>381</ele>
        <time>2016-06-12T06:53:48.000Z</time>
      </trkpt>
      <trkpt lat="47.50907" lon="6.76814">
        <ele>381</ele>
        <time>2016-06-12T06:53:49.000Z</time>
      </trkpt>
      <trkpt lat="47.50905" lon="6.76809">
        <ele>381</ele>
        <time>2016-06-12T06:53:50.001Z</time>
      </trkpt>
      <trkpt lat="47.50903" lon="6.76804">
        <ele>381</ele>
        <time>2016-06-12T06:53:51.000Z</time>
      </trkpt>
      <trkpt lat="47.509" lon="6.76798">
        <ele>381</ele>
        <time>2016-06-12T06:53:52.000Z</time>
      </trkpt>
      <trkpt lat="47.50898" lon="6.76793">
        <ele>381</ele>
        <time>2016-06-12T06:53:53.000Z</time>
      </trkpt>
      <trkpt lat="47.50896" lon="6.76788">
        <ele>381</ele>
        <time>2016-06-12T06:53:54.000Z</time>
      </trkpt>
      <trkpt lat="47.50894" lon="6.76783">
        <ele>381</ele>
        <time>2016-06-12T06:53:54.999Z</time>
      </trkpt>
      <trkpt lat="47.50892" lon="6.76778">
        <ele>381</ele>
        <time>2016-06-12T06:53:56.000Z</time>
      </trkpt>
      <trkpt lat="47.5089" lon="6.76773">
        <ele>381</ele>
        <time>2016-06-12T06:53:57.000Z</time>
      </trkpt>
      <trkpt lat="47.50888" lon="6.76768">
        <ele>381</ele>
        <time>2016-06-12T06:53:57.998Z</time>
      </trkpt>
      <trkpt lat="47.50887" lon="6.76763">
        <ele>381</ele>
        <time>2016-06-12T06:53:59.000Z</time>
      </trkpt>
      <trkpt lat="47.50885" lon="6.76758">
        <ele>381</ele>
        <time>2016-06-12T06:54:00.000Z</time>
      </trkpt>
      <trkpt lat="47.50883" lon="6.76753">
        <ele>381</ele>
        <time>2016-06-12T06:54:01.000Z</time>
      </trkpt>
      <trkpt lat="47.50881" lon="6.76748">
        <ele>382</ele>
        <time>2016-06-12T06:54:02.000Z</time>
      </trkpt>
      <trkpt lat="47.5088" lon="6.76743">
        <ele>382</ele>
        <time>2016-06-12T06:54:03.000Z</time>
      </trkpt>
      <trkpt lat="47.50879" lon="6.76738">
        <ele>383</ele>
        <time>2016-06-12T06:54:04.000Z</time>
      </trkpt>
      <trkpt lat="47.50878" lon="6.76734">
        <ele>383</ele>
        <time>2016-06-12T06:54:05.000Z</time>
      </trkpt>
      <trkpt lat="47.50876" lon="6.76729">
        <ele>383</ele>
        <time>2016-06-12T06:54:06.000Z</time>
      </trkpt>
      <trkpt lat="47.50875" lon="6.76725">
        <ele>383</ele>
        <time>2016-06-12T06:54:07.000Z</time>
      </trkpt>
      <trkpt lat="47.50873" lon="6.76721">
        <ele>383</ele>
        <time>2016-06-12T06:54:07.999Z</time>
      </trkpt>
      <trkpt lat="47.50872" lon="6.76716">
        <ele>383</ele>
        <time>2016-06-12T06:54:09.000Z</time>
      </trkpt>
      <trkpt lat="47.5087" lon="6.76712">
        <ele>383</ele>
        <time>2016-06-12T06:54:10.000Z</time>
      </trkpt>
      <trkpt lat="47.50869" lon="6.76707">
        <ele>384</ele>
        <time>2016-06-12T06:54:11.000Z</time>
      </trkpt>
      <trkpt lat="47.50867" lon="6.76703">
        <ele>384</ele>
        <time>2016-06-12T06:54:12.000Z</time>
      </trkpt>
      <trkpt lat="47.50865" lon="6.76699">
        <ele>384</ele>
        <time>2016-06-12T06:54:13.000Z</time>
      </trkpt>
      <trkpt lat="47.50864" lon="6.76695">
        <ele>384</ele>
        <time>2016-06-12T06:54:14.000Z</time>
      </trkpt>
      <trkpt lat="47.50862" lon="6.76691">
        <ele>384</ele>
        <time>2016-06-12T06:54:15.000Z</time>
      </trkpt>
      <trkpt lat="47.50861" lon="6.76686">
        <ele>385</ele>
        <time>2016-06-12T06:54:16.000Z</time>
      </trkpt>
      <trkpt lat="47.50859" lon="6.76682">
        <ele>385</ele>
        <time>2016-06-12T06:54:17.000Z</time>
      </trkpt>
      <trkpt lat="47.50858" lon="6.76677">
        <ele>385</ele>
        <time>2016-06-12T06:54:18.000Z</time>
      </trkpt>
      <trkpt lat="47.50856" lon="6.76673">
        <ele>385</ele>
        <time>2016-06-12T06:54:19.002Z</time>
      </trkpt>
      <trkpt lat="47.50855" lon="6.76669">
        <ele>386</ele>
        <time>2016-06-12T06:54:20.000Z</time>
      </trkpt>
      <trkpt lat="47.50853" lon="6.76665">
        <ele>387</ele>
        <time>2016-06-12T06:54:21.000Z</time>
      </trkpt>
      <trkpt lat="47.50851" lon="6.76662">
        <ele>387</ele>
        <time>2016-06-12T06:54:22.000Z</time>
      </trkpt>
      <trkpt lat="47.50849" lon="6.76658">
        <ele>387</ele>
        <time>2016-06-12T06:54:23.000Z</time>
      </trkpt>
      <trkpt lat="47.50847" lon="6.76655">
        <ele>387</ele>
        <time>2016-06-12T06:54:24.000Z</time>
      </trkpt>
      <trkpt lat="47.50846" lon="6.76651">
        <ele>387</ele>
        <time>2016-06-12T06:54:25.000Z</time>
      </trkpt>
      <trkpt lat="47.50844" lon="6.76647">
        <ele>387</ele>
        <time>2016-06-12T06:54:26.000Z</time>
      </trkpt>
      <trkpt lat="47.50843" lon="6.76644">
        <ele>387</ele>
        <time>2016-06-12T06:54:27.000Z</time>
      </trkpt>
      <trkpt lat="47.50841" lon="6.7664">
        <ele>387</ele>
        <time>2016-06-12T06:54:28.000Z</time>
      </trkpt>
      <trkpt lat="47.50839" lon="6.76636">
        <ele>387</ele>
        <time>2016-06-12T06:54:29.000Z</time>
      </trkpt>
      <trkpt lat="47.50838" lon="6.76632">
        <ele>387</ele>
        <time>2016-06-12T06:54:30.000Z</time>
      </trkpt>
      <trkpt lat="47.50836" lon="6.76629">
        <ele>387</ele>
        <time>2016-06-12T06:54:31.000Z</time>
      </trkpt>
      <trkpt lat="47.50835" lon="6.76625">
        <ele>387</ele>
        <time>2016-06-12T06:54:32.000Z</time>
      </trkpt>
      <trkpt lat="47.50833" lon="6.76621">
        <ele>390</ele>
        <time>2016-06-12T06:54:33.000Z</time>
      </trkpt>
      <trkpt lat="47.50831" lon="6.76617">
        <ele>390</ele>
        <time>2016-06-12T06:54:34.000Z</time>
      </trkpt>
      <trkpt lat="47.5083" lon="6.76613">
        <ele>390</ele>
        <time>2016-06-12T06:54:35.000Z</time>
      </trkpt>
      <trkpt lat="47.50828" lon="6.7661">
        <ele>390</ele>
        <time>2016-06-12T06:54:36.000Z</time>
      </trkpt>
      <trkpt lat="47.50827" lon="6.76606">
        <ele>390</ele>
        <time>2016-06-12T06:54:37.000Z</time>
      </trkpt>
      <trkpt lat="47.50825" lon="6.76602">
        <ele>390</ele>
        <time>2016-06-12T06:54:38.000Z</time>
      </trkpt>
      <trkpt lat="47.50824" lon="6.76598">
        <ele>390</ele>
        <time>2016-06-12T06:54:39.000Z</time>
      </trkpt>
      <trkpt lat="47.50822" lon="6.76595">
        <ele>390</ele>
        <time>2016-06-12T06:54:40.000Z</time>
      </trkpt>
      <trkpt lat="47.50821" lon="6.76592">
        <ele>390</ele>
        <time>2016-06-12T06:54:40.999Z</time>
      </trkpt>
      <trkpt lat="47.50817" lon="6.76593">
        <ele>390</ele>
        <time>2016-06-12T06:54:43.000Z</time>
      </trkpt>
      <trkpt lat="47.50814" lon="6.76594">
        <ele>390</ele>
        <time>2016-06-12T06:54:44.000Z</time>
      </trkpt>
      <trkpt lat="47.50812" lon="6.76595">
        <ele>390</ele>
        <time>2016-06-12T06:54:45.000Z</time>
      </trkpt>
      <trkpt lat="47.50809" lon="6.76595">
        <ele>390</ele>
        <time>2016-06-12T06:54:46.002Z</time>
      </trkpt>
      <trkpt lat="47.50807" lon="6.76594">
        <ele>390</ele>
        <time>2016-06-12T06:54:47.000Z</time>
      </trkpt>
      <trkpt lat="47.50805" lon="6.76592">
        <ele>390</ele>
        <time>2016-06-12T06:54:48.000Z</time>
      </trkpt>
      <trkpt lat="47.50801" lon="6.76589">
        <ele>391</ele>
        <time>2016-06-12T06:54:50.000Z</time>
      </trkpt>
      <trkpt lat="47.50798" lon="6.76589">
        <ele>391</ele>
        <time>2016-06-12T06:54:51.000Z</time>
      </trkpt>
      <trkpt lat="47.50796" lon="6.7659">
        <ele>391</ele>
        <time>2016-06-12T06:54:52.000Z</time>
      </trkpt>
      <trkpt lat="47.50794" lon="6.7659">
        <ele>391</ele>
        <time>2016-06-12T06:54:53.000Z</time>
      </trkpt>
      <trkpt lat="47.5079" lon="6.76592">
        <ele>391</ele>
        <time>2016-06-12T06:54:55.000Z</time>
      </trkpt>
      <trkpt lat="47.50789" lon="6.76593">
        <ele>391</ele>
        <time>2016-06-12T06:54:56.000Z</time>
      </trkpt>
      <trkpt lat="47.50785" lon="6.76593">
        <ele>391</ele>
        <time>2016-06-12T06:55:12.000Z</time>
      </trkpt>
      <trkpt lat="47.50784" lon="6.76593">
        <ele>391</ele>
        <time>2016-06-12T06:55:13.000Z</time>
      </trkpt>
      <trkpt lat="47.5078" lon="6.76593">
        <ele>391</ele>
        <time>2016-06-12T06:55:15.000Z</time>
      </trkpt>
      <trkpt lat="47.50777" lon="6.76594">
        <ele>392</ele>
        <time>2016-06-12T06:55:16.000Z</time>
      </trkpt>
      <trkpt lat="47.50775" lon="6.76594">
        <ele>392</ele>
        <time>2016-06-12T06:55:17.000Z</time>
      </trkpt>
      <trkpt lat="47.50772" lon="6.76594">
        <ele>392</ele>
        <time>2016-06-12T06:55:18.000Z</time>
      </trkpt>
      <trkpt lat="47.50769" lon="6.76595">
        <ele>392</ele>
        <time>2016-06-12T06:55:19.000Z</time>
      </trkpt>
      <trkpt lat="47.50766" lon="6.76596">
        <ele>392</ele>
        <time>2016-06-12T06:55:20.000Z</time>
      </trkpt>
      <trkpt lat="47.50763" lon="6.76597">
        <ele>392</ele>
        <time>2016-06-12T06:55:21.000Z</time>
      </trkpt>
      <trkpt lat="47.5076" lon="6.76597">
        <ele>392</ele>
        <time>2016-06-12T06:55:22.000Z</time>
      </trkpt>
      <trkpt lat="47.50756" lon="6.76598">
        <ele>392</ele>
        <time>2016-06-12T06:55:23.000Z</time>
      </trkpt>
      <trkpt lat="47.50754" lon="6.76598">
        <ele>393</ele>
        <time>2016-06-12T06:55:24.000Z</time>
      </trkpt>
      <trkpt lat="47.50751" lon="6.76597">
        <ele>393</ele>
        <time>2016-06-12T06:55:25.000Z</time>
      </trkpt>
      <trkpt lat="47.50748" lon="6.76597">
        <ele>394</ele>
        <time>2016-06-12T06:55:26.000Z</time>
      </trkpt>
      <trkpt lat="47.50744" lon="6.76596">
        <ele>394</ele>
        <time>2016-06-12T06:55:27.000Z</time>
      </trkpt>
      <trkpt lat="47.50741" lon="6.76596">
        <ele>394</ele>
        <time>2016-06-12T06:55:28.000Z</time>
      </trkpt>
      <trkpt lat="47.50737" lon="6.76596">
        <ele>394</ele>
        <time>2016-06-12T06:55:29.000Z</time>
      </trkpt>
      <trkpt lat="47.50734" lon="6.76595">
        <ele>394</ele>
        <time>2016-06-12T06:55:30.000Z</time>
      </trkpt>
      <trkpt lat="47.50731" lon="6.76594">
        <ele>394</ele>
        <time>2016-06-12T06:55:31.000Z</time>
      </trkpt>
      <trkpt lat="47.50728" lon="6.76594">
        <ele>394</ele>
        <time>2016-06-12T06:55:32.000Z</time>
      </trkpt>
      <trkpt lat="47.50725" lon="6.76593">
        <ele>394</ele>
        <time>2016-06-12T06:55:33.000Z</time>
      </trkpt>
      <trkpt lat="47.50722" lon="6.76592">
        <ele>394</ele>
        <time>2016-06-12T06:55:34.000Z</time>
      </trkpt>
      <trkpt lat="47.50719" lon="6.76591">
        <ele>394</ele>
        <time>2016-06-12T06:55:35.000Z</time>
      </trkpt>
      <trkpt lat="47.50715" lon="6.76591">
        <ele>395</ele>
        <time>2016-06-12T06:55:36.000Z</time>
      </trkpt>
      <trkpt lat="47.50712" lon="6.7659">
        <ele>395</ele>
        <time>2016-06-12T06:55:37.000Z</time>
      </trkpt>
      <trkpt lat="47.50709" lon="6.7659">
        <ele>395</ele>
        <time>2016-06-12T06:55:38.000Z</time>
      </trkpt>
      <trkpt lat="47.50706" lon="6.76589">
        <ele>395</ele>
        <time>2016-06-12T06:55:39.000Z</time>
      </trkpt>
      <trkpt lat="47.50704" lon="6.76589">
        <ele>395</ele>
        <time>2016-06-12T06:55:40.000Z</time>
      </trkpt>
      <trkpt lat="47.50701" lon="6.76588">
        <ele>395</ele>
        <time>2016-06-12T06:55:41.000Z</time>
      </trkpt>
      <trkpt lat="47.50698" lon="6.76588">
        <ele>395</ele>
        <time>2016-06-12T06:55:42.000Z</time>
      </trkpt>
      <trkpt lat="47.50695" lon="6.76588">
        <ele>395</ele>
        <time>2016-06-12T06:55:43.000Z</time>
      </trkpt>
      <trkpt lat="47.50692" lon="6.76588">
        <ele>395</ele>
        <time>2016-06-12T06:55:44.000Z</time>
      </trkpt>
      <trkpt lat="47.50689" lon="6.76588">
        <ele>395</ele>
        <time>2016-06-12T06:55:45.000Z</time>
      </trkpt>
      <trkpt lat="47.50687" lon="6.76588">
        <ele>395</ele>
        <time>2016-06-12T06:55:46.000Z</time>
      </trkpt>
      <trkpt lat="47.50684" lon="6.76589">
        <ele>396</ele>
        <time>2016-06-12T06:55:47.000Z</time>
      </trkpt>
      <trkpt lat="47.50681" lon="6.76589">
        <ele>396</ele>
        <time>2016-06-12T06:55:48.000Z</time>
      </trkpt>
      <trkpt lat="47.50678" lon="6.7659">
        <ele>396</ele>
        <time>2016-06-12T06:55:49.000Z</time>
      </trkpt>
      <trkpt lat="47.50675" lon="6.7659">
        <ele>396</ele>
        <time>2016-06-12T06:55:50.000Z</time>
      </trkpt>
      <trkpt lat="47.50672" lon="6.76591">
        <ele>396</ele>
        <time>2016-06-12T06:55:51.000Z</time>
      </trkpt>
      <trkpt lat="47.50669" lon="6.76592">
        <ele>396</ele>
        <time>2016-06-12T06:55:52.000Z</time>
      </trkpt>
      <trkpt lat="47.50666" lon="6.76592">
        <ele>397</ele>
        <time>2016-06-12T06:55:53.000Z</time>
      </trkpt>
      <trkpt lat="47.50663" lon="6.76593">
        <ele>397</ele>
        <time>2016-06-12T06:55:54.000Z</time>
      </trkpt>
      <trkpt lat="47.5066" lon="6.76594">
        <ele>397</ele>
        <time>2016-06-12T06:55:55.000Z</time>
      </trkpt>
      <trkpt lat="47.50657" lon="6.76595">
        <ele>397</ele>
        <time>2016-06-12T06:55:56.000Z</time>
      </trkpt>
      <trkpt lat="47.50654" lon="6.76596">
        <ele>397</ele>
        <time>2016-06-12T06:55:57.000Z</time>
      </trkpt>
      <trkpt lat="47.50651" lon="6.76597">
        <ele>397</ele>
        <time>2016-06-12T06:55:58.001Z</time>
      </trkpt>
      <trkpt lat="47.50648" lon="6.76598">
        <ele>397</ele>
        <time>2016-06-12T06:55:59.000Z</time>
      </trkpt>
      <trkpt lat="47.50645" lon="6.76599">
        <ele>397</ele>
        <time>2016-06-12T06:56:00.000Z</time>
      </trkpt>
      <trkpt lat="47.50642" lon="6.766">
        <ele>397</ele>
        <time>2016-06-12T06:56:01.000Z</time>
      </trkpt>
      <trkpt lat="47.50639" lon="6.76602">
        <ele>397</ele>
        <time>2016-06-12T06:56:02.000Z</time>
      </trkpt>
      <trkpt lat="47.50636" lon="6.76603">
        <ele>397</ele>
        <time>2016-06-12T06:56:03.000Z</time>
      </trkpt>
      <trkpt lat="47.50634" lon="6.76606">
        <ele>397</ele>
        <time>2016-06-12T06:56:04.000Z</time>
      </trkpt>
      <trkpt lat="47.50631" lon="6.76608">
        <ele>397</ele>
        <time>2016-06-12T06:56:05.000Z</time>
      </trkpt>
      <trkpt lat="47.50628" lon="6.7661">
        <ele>397</ele>
        <time>2016-06-12T06:56:06.000Z</time>
      </trkpt>
      <trkpt lat="47.50626" lon="6.76612">
        <ele>397</ele>
        <time>2016-06-12T06:56:07.000Z</time>
      </trkpt>
      <trkpt lat="47.50624" lon="6.76614">
        <ele>397</ele>
        <time>2016-06-12T06:56:08.000Z</time>
      </trkpt>
      <trkpt lat="47.50621" lon="6.76615">
        <ele>397</ele>
        <time>2016-06-12T06:56:09.000Z</time>
      </trkpt>
      <trkpt lat="47.50619" lon="6.76616">
        <ele>397</ele>
        <time>2016-06-12T06:56:10.000Z</time>
      </trkpt>
      <trkpt lat="47.50616" lon="6.76617">
        <ele>397</ele>
        <time>2016-06-12T06:56:11.000Z</time>
      </trkpt>
      <trkpt lat="47.50614" lon="6.76618">
        <ele>397</ele>
        <time>2016-06-12T06:56:12.000Z</time>
      </trkpt>
      <trkpt lat="47.50611" lon="6.76619">
        <ele>398</ele>
        <time>2016-06-12T06:56:13.000Z</time>
      </trkpt>
      <trkpt lat="47.50608" lon="6.7662">
        <ele>398</ele>
        <time>2016-06-12T06:56:14.000Z</time>
      </trkpt>
      <trkpt lat="47.50605" lon="6.76621">
        <ele>398</ele>
        <time>2016-06-12T06:56:15.000Z</time>
      </trkpt>
      <trkpt lat="47.50601" lon="6.76622">
        <ele>398</ele>
        <time>2016-06-12T06:56:16.000Z</time>
      </trkpt>
      <trkpt lat="47.50598" lon="6.76623">
        <ele>398</ele>
        <time>2016-06-12T06:56:17.000Z</time>
      </trkpt>
      <trkpt lat="47.50595" lon="6.76625">
        <ele>398</ele>
        <time>2016-06-12T06:56:18.000Z</time>
      </trkpt>
      <trkpt lat="47.50592" lon="6.76626">
        <ele>398</ele>
        <time>2016-06-12T06:56:19.000Z</time>
      </trkpt>
      <trkpt lat="47.50589" lon="6.76628">
        <ele>398</ele>
        <time>2016-06-12T06:56:20.000Z</time>
      </trkpt>
      <trkpt lat="47.50587" lon="6.76629">
        <ele>398</ele>
        <time>2016-06-12T06:56:21.000Z</time>
      </trkpt>
      <trkpt lat="47.50584" lon="6.76629">
        <ele>398</ele>
        <time>2016-06-12T06:56:22.000Z</time>
      </trkpt>
      <trkpt lat="47.50582" lon="6.7663">
        <ele>399</ele>
        <time>2016-06-12T06:56:23.000Z</time>
      </trkpt>
      <trkpt lat="47.50579" lon="6.7663">
        <ele>399</ele>
        <time>2016-06-12T06:56:24.000Z</time>
      </trkpt>
      <trkpt lat="47.50576" lon="6.76631">
        <ele>399</ele>
        <time>2016-06-12T06:56:25.000Z</time>
      </trkpt>
      <trkpt lat="47.50573" lon="6.76632">
        <ele>399</ele>
        <time>2016-06-12T06:56:26.000Z</time>
      </trkpt>
      <trkpt lat="47.5057" lon="6.76632">
        <ele>399</ele>
        <time>2016-06-12T06:56:27.000Z</time>
      </trkpt>
      <trkpt lat="47.50568" lon="6.76633">
        <ele>399</ele>
        <time>2016-06-12T06:56:28.000Z</time>
      </trkpt>
      <trkpt lat="47.50565" lon="6.76634">
        <ele>399</ele>
        <time>2016-06-12T06:56:29.000Z</time>
      </trkpt>
      <trkpt lat="47.50562" lon="6.76636">
        <ele>399</ele>
        <time>2016-06-12T06:56:30.000Z</time>
      </trkpt>
      <trkpt lat="47.50559" lon="6.76636">
        <ele>399</ele>
        <time>2016-06-12T06:56:31.000Z</time>
      </trkpt>
      <trkpt lat="47.50557" lon="6.76637">
        <ele>399</ele>
        <time>2016-06-12T06:56:32.000Z</time>
      </trkpt>
      <trkpt lat="47.50554" lon="6.76638">
        <ele>399</ele>
        <time>2016-06-12T06:56:33.000Z</time>
      </trkpt>
      <trkpt lat="47.50551" lon="6.76638">
        <ele>399</ele>
        <time>2016-06-12T06:56:34.000Z</time>
      </trkpt>
      <trkpt lat="47.50549" lon="6.76639">
        <ele>399</ele>
        <time>2016-06-12T06:56:35.000Z</time>
      </trkpt>
      <trkpt lat="47.50546" lon="6.76639">
        <ele>399</ele>
        <time>2016-06-12T06:56:36.000Z</time>
      </trkpt>
      <trkpt lat="47.50543" lon="6.7664">
        <ele>399</ele>
        <time>2016-06-12T06:56:37.000Z</time>
      </trkpt>
      <trkpt lat="47.50539" lon="6.76641">
        <ele>399</ele>
        <time>2016-06-12T06:56:38.000Z</time>
      </trkpt>
      <trkpt lat="47.50536" lon="6.76642">
        <ele>399</ele>
        <time>2016-06-12T06:56:39.000Z</time>
      </trkpt>
      <trkpt lat="47.50532" lon="6.76643">
        <ele>399</ele>
        <time>2016-06-12T06:56:40.000Z</time>
      </trkpt>
      <trkpt lat="47.50529" lon="6.76644">
        <ele>399</ele>
        <time>2016-06-12T06:56:41.000Z</time>
      </trkpt>
      <trkpt lat="47.50525" lon="6.76645">
        <ele>399</ele>
        <time>2016-06-12T06:56:42.000Z</time>
      </trkpt>
      <trkpt lat="47.50521" lon="6.76645">
        <ele>399</ele>
        <time>2016-06-12T06:56:43.000Z</time>
      </trkpt>
      <trkpt lat="47.50515" lon="6.76648">
        <ele>399</ele>
        <time>2016-06-12T06:56:44.000Z</time>
      </trkpt>
      <trkpt lat="47.5051" lon="6.76649">
        <ele>399</ele>
        <time>2016-06-12T06:56:45.000Z</time>
      </trkpt>
      <trkpt lat="47.50506" lon="6.7665">
        <ele>399</ele>
        <time>2016-06-12T06:56:46.000Z</time>
      </trkpt>
      <trkpt lat="47.50502" lon="6.7665">
        <ele>399</ele>
        <time>2016-06-12T06:56:47.000Z</time>
      </trkpt>
      <trkpt lat="47.50498" lon="6.76652">
        <ele>399</ele>
        <time>2016-06-12T06:56:48.000Z</time>
      </trkpt>
      <trkpt lat="47.50494" lon="6.76654">
        <ele>399</ele>
        <time>2016-06-12T06:56:49.000Z</time>
      </trkpt>
      <trkpt lat="47.5049" lon="6.76655">
        <ele>399</ele>
        <time>2016-06-12T06:56:49.998Z</time>
      </trkpt>
      <trkpt lat="47.50485" lon="6.76658">
        <ele>399</ele>
        <time>2016-06-12T06:56:51.000Z</time>
      </trkpt>
      <trkpt lat="47.50481" lon="6.7666">
        <ele>399</ele>
        <time>2016-06-12T06:56:52.000Z</time>
      </trkpt>
      <trkpt lat="47.50476" lon="6.76662">
        <ele>398</ele>
        <time>2016-06-12T06:56:53.000Z</time>
      </trkpt>
      <trkpt lat="47.50472" lon="6.76665">
        <ele>398</ele>
        <time>2016-06-12T06:56:54.000Z</time>
      </trkpt>
      <trkpt lat="47.50468" lon="6.76667">
        <ele>398</ele>
        <time>2016-06-12T06:56:55.000Z</time>
      </trkpt>
      <trkpt lat="47.50464" lon="6.76669">
        <ele>397</ele>
        <time>2016-06-12T06:56:56.000Z</time>
      </trkpt>
      <trkpt lat="47.5046" lon="6.76671">
        <ele>397</ele>
        <time>2016-06-12T06:56:57.000Z</time>
      </trkpt>
      <trkpt lat="47.50455" lon="6.76673">
        <ele>397</ele>
        <time>2016-06-12T06:56:58.000Z</time>
      </trkpt>
      <trkpt lat="47.50452" lon="6.76674">
        <ele>397</ele>
        <time>2016-06-12T06:56:59.000Z</time>
      </trkpt>
      <trkpt lat="47.50448" lon="6.76675">
        <ele>397</ele>
        <time>2016-06-12T06:57:00.000Z</time>
      </trkpt>
      <trkpt lat="47.50445" lon="6.76676">
        <ele>397</ele>
        <time>2016-06-12T06:57:01.000Z</time>
      </trkpt>
      <trkpt lat="47.50441" lon="6.76678">
        <ele>397</ele>
        <time>2016-06-12T06:57:02.000Z</time>
      </trkpt>
      <trkpt lat="47.50437" lon="6.7668">
        <ele>397</ele>
        <time>2016-06-12T06:57:03.000Z</time>
      </trkpt>
      <trkpt lat="47.50433" lon="6.76681">
        <ele>397</ele>
        <time>2016-06-12T06:57:04.000Z</time>
      </trkpt>
      <trkpt lat="47.50429" lon="6.76682">
        <ele>397</ele>
        <time>2016-06-12T06:57:05.000Z</time>
      </trkpt>
      <trkpt lat="47.50425" lon="6.76684">
        <ele>397</ele>
        <time>2016-06-12T06:57:06.000Z</time>
      </trkpt>
      <trkpt lat="47.50421" lon="6.76685">
        <ele>397</ele>
        <time>2016-06-12T06:57:07.000Z</time>
      </trkpt>
      <trkpt lat="47.50417" lon="6.76687">
        <ele>397</ele>
        <time>2016-06-12T06:57:08.000Z</time>
      </trkpt>
      <trkpt lat="47.50413" lon="6.76688">
        <ele>397</ele>
        <time>2016-06-12T06:57:09.000Z</time>
      </trkpt>
      <trkpt lat="47.50409" lon="6.7669">
        <ele>397</ele>
        <time>2016-06-12T06:57:09.999Z</time>
      </trkpt>
      <trkpt lat="47.50405" lon="6.7669">
        <ele>397</ele>
        <time>2016-06-12T06:57:11.000Z</time>
      </trkpt>
      <trkpt lat="47.50402" lon="6.76691">
        <ele>397</ele>
        <time>2016-06-12T06:57:12.000Z</time>
      </trkpt>
      <trkpt lat="47.50398" lon="6.76693">
        <ele>397</ele>
        <time>2016-06-12T06:57:13.000Z</time>
      </trkpt>
      <trkpt lat="47.50395" lon="6.76695">
        <ele>397</ele>
        <time>2016-06-12T06:57:14.000Z</time>
      </trkpt>
      <trkpt lat="47.50391" lon="6.76697">
        <ele>397</ele>
        <time>2016-06-12T06:57:15.000Z</time>
      </trkpt>
      <trkpt lat="47.50387" lon="6.76699">
        <ele>397</ele>
        <time>2016-06-12T06:57:16.000Z</time>
      </trkpt>
      <trkpt lat="47.50384" lon="6.767">
        <ele>397</ele>
        <time>2016-06-12T06:57:17.000Z</time>
      </trkpt>
      <trkpt lat="47.5038" lon="6.76702">
        <ele>397</ele>
        <time>2016-06-12T06:57:18.000Z</time>
      </trkpt>
      <trkpt lat="47.50376" lon="6.76703">
        <ele>397</ele>
        <time>2016-06-12T06:57:19.000Z</time>
      </trkpt>
      <trkpt lat="47.50372" lon="6.76705">
        <ele>397</ele>
        <time>2016-06-12T06:57:20.000Z</time>
      </trkpt>
      <trkpt lat="47.50368" lon="6.76708">
        <ele>397</ele>
        <time>2016-06-12T06:57:21.000Z</time>
      </trkpt>
      <trkpt lat="47.50364" lon="6.76709">
        <ele>398</ele>
        <time>2016-06-12T06:57:22.000Z</time>
      </trkpt>
      <trkpt lat="47.50361" lon="6.76712">
        <ele>398</ele>
        <time>2016-06-12T06:57:23.000Z</time>
      </trkpt>
      <trkpt lat="47.50357" lon="6.76714">
        <ele>398</ele>
        <time>2016-06-12T06:57:24.000Z</time>
      </trkpt>
      <trkpt lat="47.50353" lon="6.76715">
        <ele>398</ele>
        <time>2016-06-12T06:57:25.000Z</time>
      </trkpt>
      <trkpt lat="47.5035" lon="6.76717">
        <ele>398</ele>
        <time>2016-06-12T06:57:26.000Z</time>
      </trkpt>
      <trkpt lat="47.50346" lon="6.76718">
        <ele>398</ele>
        <time>2016-06-12T06:57:27.000Z</time>
      </trkpt>
      <trkpt lat="47.50343" lon="6.7672">
        <ele>398</ele>
        <time>2016-06-12T06:57:28.000Z</time>
      </trkpt>
      <trkpt lat="47.50339" lon="6.76721">
        <ele>398</ele>
        <time>2016-06-12T06:57:29.000Z</time>
      </trkpt>
      <trkpt lat="47.50336" lon="6.76722">
        <ele>398</ele>
        <time>2016-06-12T06:57:30.000Z</time>
      </trkpt>
      <trkpt lat="47.50332" lon="6.76724">
        <ele>398</ele>
        <time>2016-06-12T06:57:31.000Z</time>
      </trkpt>
      <trkpt lat="47.50329" lon="6.76726">
        <ele>398</ele>
        <time>2016-06-12T06:57:32.000Z</time>
      </trkpt>
      <trkpt lat="47.50326" lon="6.76728">
        <ele>398</ele>
        <time>2016-06-12T06:57:33.000Z</time>
      </trkpt>
      <trkpt lat="47.50322" lon="6.76729">
        <ele>398</ele>
        <time>2016-06-12T06:57:33.999Z</time>
      </trkpt>
      <trkpt lat="47.50319" lon="6.7673">
        <ele>398</ele>
        <time>2016-06-12T06:57:35.000Z</time>
      </trkpt>
      <trkpt lat="47.50316" lon="6.76732">
        <ele>398</ele>
        <time>2016-06-12T06:57:36.000Z</time>
      </trkpt>
      <trkpt lat="47.50312" lon="6.76733">
        <ele>398</ele>
        <time>2016-06-12T06:57:36.999Z</time>
      </trkpt>
      <trkpt lat="47.50308" lon="6.76735">
        <ele>398</ele>
        <time>2016-06-12T06:57:38.002Z</time>
      </trkpt>
      <trkpt lat="47.50305" lon="6.76736">
        <ele>398</ele>
        <time>2016-06-12T06:57:39.000Z</time>
      </trkpt>
      <trkpt lat="47.50301" lon="6.76737">
        <ele>399</ele>
        <time>2016-06-12T06:57:40.000Z</time>
      </trkpt>
      <trkpt lat="47.50297" lon="6.76738">
        <ele>399</ele>
        <time>2016-06-12T06:57:41.000Z</time>
      </trkpt>
      <trkpt lat="47.50293" lon="6.76739">
        <ele>399</ele>
        <time>2016-06-12T06:57:42.000Z</time>
      </trkpt>
      <trkpt lat="47.5029" lon="6.7674">
        <ele>399</ele>
        <time>2016-06-12T06:57:43.000Z</time>
      </trkpt>
      <trkpt lat="47.50286" lon="6.76741">
        <ele>399</ele>
        <time>2016-06-12T06:57:44.000Z</time>
      </trkpt>
      <trkpt lat="47.50283" lon="6.76742">
        <ele>399</ele>
        <time>2016-06-12T06:57:45.000Z</time>
      </trkpt>
      <trkpt lat="47.50279" lon="6.76742">
        <ele>399</ele>
        <time>2016-06-12T06:57:46.000Z</time>
      </trkpt>
      <trkpt lat="47.50276" lon="6.76743">
        <ele>399</ele>
        <time>2016-06-12T06:57:47.000Z</time>
      </trkpt>
      <trkpt lat="47.50273" lon="6.76744">
        <ele>399</ele>
        <time>2016-06-12T06:57:48.000Z</time>
      </trkpt>
      <trkpt lat="47.50271" lon="6.76745">
        <ele>399</ele>
        <time>2016-06-12T06:57:49.000Z</time>
      </trkpt>
      <trkpt lat="47.50268" lon="6.76746">
        <ele>399</ele>
        <time>2016-06-12T06:57:50.000Z</time>
      </trkpt>
      <trkpt lat="47.50266" lon="6.76746">
        <ele>399</ele>
        <time>2016-06-12T06:57:51.000Z</time>
      </trkpt>
      <trkpt lat="47.50263" lon="6.76747">
        <ele>399</ele>
        <time>2016-06-12T06:57:52.000Z</time>
      </trkpt>
      <trkpt lat="47.50261" lon="6.76749">
        <ele>399</ele>
        <time>2016-06-12T06:57:53.000Z</time>
      </trkpt>
      <trkpt lat="47.50258" lon="6.76749">
        <ele>400</ele>
        <time>2016-06-12T06:57:54.000Z</time>
      </trkpt>
      <trkpt lat="47.50256" lon="6.7675">
        <ele>399</ele>
        <time>2016-06-12T06:57:55.000Z</time>
      </trkpt>
      <trkpt lat="47.50253" lon="6.76751">
        <ele>400</ele>
        <time>2016-06-12T06:57:56.000Z</time>
      </trkpt>
      <trkpt lat="47.5025" lon="6.76751">
        <ele>400</ele>
        <time>2016-06-12T06:57:57.000Z</time>
      </trkpt>
      <trkpt lat="47.50248" lon="6.7675">
        <ele>400</ele>
        <time>2016-06-12T06:57:58.000Z</time>
      </trkpt>
      <trkpt lat="47.50246" lon="6.76749">
        <ele>400</ele>
        <time>2016-06-12T06:57:59.000Z</time>
      </trkpt>
      <trkpt lat="47.50244" lon="6.76746">
        <ele>401</ele>
        <time>2016-06-12T06:58:00.000Z</time>
      </trkpt>
      <trkpt lat="47.50242" lon="6.76743">
        <ele>401</ele>
        <time>2016-06-12T06:58:01.000Z</time>
      </trkpt>
      <trkpt lat="47.50241" lon="6.7674">
        <ele>401</ele>
        <time>2016-06-12T06:58:02.000Z</time>
      </trkpt>
      <trkpt lat="47.50239" lon="6.76736">
        <ele>401</ele>
        <time>2016-06-12T06:58:03.000Z</time>
      </trkpt>
      <trkpt lat="47.50237" lon="6.76732">
        <ele>401</ele>
        <time>2016-06-12T06:58:04.000Z</time>
      </trkpt>
      <trkpt lat="47.50236" lon="6.76727">
        <ele>401</ele>
        <time>2016-06-12T06:58:05.000Z</time>
      </trkpt>
      <trkpt lat="47.50234" lon="6.76723">
        <ele>402</ele>
        <time>2016-06-12T06:58:06.000Z</time>
      </trkpt>
      <trkpt lat="47.50232" lon="6.76719">
        <ele>402</ele>
        <time>2016-06-12T06:58:07.000Z</time>
      </trkpt>
      <trkpt lat="47.5023" lon="6.76715">
        <ele>402</ele>
        <time>2016-06-12T06:58:08.000Z</time>
      </trkpt>
      <trkpt lat="47.50229" lon="6.7671">
        <ele>402</ele>
        <time>2016-06-12T06:58:09.000Z</time>
      </trkpt>
      <trkpt lat="47.50227" lon="6.76706">
        <ele>402</ele>
        <time>2016-06-12T06:58:10.000Z</time>
      </trkpt>
      <trkpt lat="47.50226" lon="6.76702">
        <ele>402</ele>
        <time>2016-06-12T06:58:11.000Z</time>
      </trkpt>
      <trkpt lat="47.50224" lon="6.76697">
        <ele>402</ele>
        <time>2016-06-12T06:58:12.000Z</time>
      </trkpt>
      <trkpt lat="47.50223" lon="6.76693">
        <ele>402</ele>
        <time>2016-06-12T06:58:13.000Z</time>
      </trkpt>
      <trkpt lat="47.50221" lon="6.76688">
        <ele>402</ele>
        <time>2016-06-12T06:58:14.000Z</time>
      </trkpt>
      <trkpt lat="47.5022" lon="6.76684">
        <ele>402</ele>
        <time>2016-06-12T06:58:15.000Z</time>
      </trkpt>
      <trkpt lat="47.50218" lon="6.7668">
        <ele>402</ele>
        <time>2016-06-12T06:58:16.000Z</time>
      </trkpt>
      <trkpt lat="47.50217" lon="6.76675">
        <ele>402</ele>
        <time>2016-06-12T06:58:17.000Z</time>
      </trkpt>
      <trkpt lat="47.50216" lon="6.7667">
        <ele>402</ele>
        <time>2016-06-12T06:58:18.000Z</time>
      </trkpt>
      <trkpt lat="47.50215" lon="6.76665">
        <ele>402</ele>
        <time>2016-06-12T06:58:19.000Z</time>
      </trkpt>
      <trkpt lat="47.50213" lon="6.76661">
        <ele>402</ele>
        <time>2016-06-12T06:58:20.000Z</time>
      </trkpt>
      <trkpt lat="47.50212" lon="6.76656">
        <ele>402</ele>
        <time>2016-06-12T06:58:21.000Z</time>
      </trkpt>
      <trkpt lat="47.50211" lon="6.76651">
        <ele>402</ele>
        <time>2016-06-12T06:58:22.000Z</time>
      </trkpt>
      <trkpt lat="47.5021" lon="6.76647">
        <ele>402</ele>
        <time>2016-06-12T06:58:23.000Z</time>
      </trkpt>
      <trkpt lat="47.50208" lon="6.76642">
        <ele>402</ele>
        <time>2016-06-12T06:58:24.000Z</time>
      </trkpt>
      <trkpt lat="47.50207" lon="6.76637">
        <ele>402</ele>
        <time>2016-06-12T06:58:25.000Z</time>
      </trkpt>
      <trkpt lat="47.50205" lon="6.76633">
        <ele>402</ele>
        <time>2016-06-12T06:58:26.000Z</time>
      </trkpt>
      <trkpt lat="47.50204" lon="6.76628">
        <ele>402</ele>
        <time>2016-06-12T06:58:27.000Z</time>
      </trkpt>
      <trkpt lat="47.50202" lon="6.76624">
        <ele>402</ele>
        <time>2016-06-12T06:58:28.000Z</time>
      </trkpt>
      <trkpt lat="47.50201" lon="6.76619">
        <ele>402</ele>
        <time>2016-06-12T06:58:29.000Z</time>
      </trkpt>
      <trkpt lat="47.50199" lon="6.76615">
        <ele>403</ele>
        <time>2016-06-12T06:58:30.000Z</time>
      </trkpt>
      <trkpt lat="47.50197" lon="6.76611">
        <ele>403</ele>
        <time>2016-06-12T06:58:31.000Z</time>
      </trkpt>
      <trkpt lat="47.50196" lon="6.76607">
        <ele>403</ele>
        <time>2016-06-12T06:58:32.000Z</time>
      </trkpt>
      <trkpt lat="47.50195" lon="6.76603">
        <ele>403</ele>
        <time>2016-06-12T06:58:33.000Z</time>
      </trkpt>
      <trkpt lat="47.50194" lon="6.766">
        <ele>403</ele>
        <time>2016-06-12T06:58:34.000Z</time>
      </trkpt>
      <trkpt lat="47.50195" lon="6.76597">
        <ele>403</ele>
        <time>2016-06-12T06:58:35.000Z</time>
      </trkpt>
      <trkpt lat="47.50195" lon="6.76593">
        <ele>403</ele>
        <time>2016-06-12T06:58:36.000Z</time>
      </trkpt>
      <trkpt lat="47.50196" lon="6.7659">
        <ele>403</ele>
        <time>2016-06-12T06:58:37.000Z</time>
      </trkpt>
      <trkpt lat="47.50197" lon="6.76586">
        <ele>403</ele>
        <time>2016-06-12T06:58:38.000Z</time>
      </trkpt>
      <trkpt lat="47.50197" lon="6.76582">
        <ele>402</ele>
        <time>2016-06-12T06:58:39.000Z</time>
      </trkpt>
      <trkpt lat="47.50197" lon="6.76579">
        <ele>402</ele>
        <time>2016-06-12T06:58:40.000Z</time>
      </trkpt>
      <trkpt lat="47.50197" lon="6.76574">
        <ele>402</ele>
        <time>2016-06-12T06:58:42.000Z</time>
      </trkpt>
      <trkpt lat="47.50197" lon="6.76571">
        <ele>402</ele>
        <time>2016-06-12T06:58:43.000Z</time>
      </trkpt>
      <trkpt lat="47.50197" lon="6.76569">
        <ele>402</ele>
        <time>2016-06-12T06:58:44.000Z</time>
      </trkpt>
      <trkpt lat="47.50207" lon="6.76562">
        <ele>401</ele>
        <time>2016-06-12T06:58:45.000Z</time>
      </trkpt>
      <trkpt lat="47.50209" lon="6.76559">
        <ele>401</ele>
        <time>2016-06-12T06:58:46.000Z</time>
      </trkpt>
      <trkpt lat="47.5021" lon="6.76556">
        <ele>401</ele>
        <time>2016-06-12T06:58:47.000Z</time>
      </trkpt>
      <trkpt lat="47.5021" lon="6.76552">
        <ele>401</ele>
        <time>2016-06-12T06:58:49.000Z</time>
      </trkpt>
      <trkpt lat="47.5021" lon="6.76548">
        <ele>401</ele>
        <time>2016-06-12T06:58:50.000Z</time>
      </trkpt>
      <trkpt lat="47.5021" lon="6.76544">
        <ele>401</ele>
        <time>2016-06-12T06:58:51.000Z</time>
      </trkpt>
      <trkpt lat="47.50212" lon="6.76541">
        <ele>400</ele>
        <time>2016-06-12T06:58:52.000Z</time>
      </trkpt>
      <trkpt lat="47.50215" lon="6.76536">
        <ele>400</ele>
        <time>2016-06-12T06:58:54.000Z</time>
      </trkpt>
      <trkpt lat="47.50216" lon="6.76534">
        <ele>400</ele>
        <time>2016-06-12T06:58:55.000Z</time>
      </trkpt>
      <trkpt lat="47.50216" lon="6.76527">
        <ele>400</ele>
        <time>2016-06-12T06:58:57.000Z</time>
      </trkpt>
      <trkpt lat="47.50215" lon="6.76523">
        <ele>400</ele>
        <time>2016-06-12T06:58:58.000Z</time>
      </trkpt>
      <trkpt lat="47.50213" lon="6.76519">
        <ele>400</ele>
        <time>2016-06-12T06:58:59.000Z</time>
      </trkpt>
      <trkpt lat="47.50211" lon="6.76514">
        <ele>400</ele>
        <time>2016-06-12T06:59:00.000Z</time>
      </trkpt>
      <trkpt lat="47.50209" lon="6.76509">
        <ele>400</ele>
        <time>2016-06-12T06:59:01.000Z</time>
      </trkpt>
      <trkpt lat="47.50206" lon="6.76504">
        <ele>400</ele>
        <time>2016-06-12T06:59:02.000Z</time>
      </trkpt>
      <trkpt lat="47.50203" lon="6.76499">
        <ele>397</ele>
        <time>2016-06-12T06:59:03.000Z</time>
      </trkpt>
      <trkpt lat="47.502" lon="6.76493">
        <ele>398</ele>
        <time>2016-06-12T06:59:04.000Z</time>
      </trkpt>
      <trkpt lat="47.50198" lon="6.76487">
        <ele>398</ele>
        <time>2016-06-12T06:59:05.000Z</time>
      </trkpt>
      <trkpt lat="47.50191" lon="6.76475">
        <ele>398</ele>
        <time>2016-06-12T06:59:06.000Z</time>
      </trkpt>
      <trkpt lat="47.50189" lon="6.76469">
        <ele>397</ele>
        <time>2016-06-12T06:59:07.000Z</time>
      </trkpt>
      <trkpt lat="47.50186" lon="6.7646">
        <ele>397</ele>
        <time>2016-06-12T06:59:08.000Z</time>
      </trkpt>
      <trkpt lat="47.50184" lon="6.76451">
        <ele>397</ele>
        <time>2016-06-12T06:59:09.000Z</time>
      </trkpt>
      <trkpt lat="47.5018" lon="6.76441">
        <ele>397</ele>
        <time>2016-06-12T06:59:10.000Z</time>
      </trkpt>
      <trkpt lat="47.50178" lon="6.76433">
        <ele>397</ele>
        <time>2016-06-12T06:59:11.000Z</time>
      </trkpt>
      <trkpt lat="47.50174" lon="6.76428">
        <ele>397</ele>
        <time>2016-06-12T06:59:12.000Z</time>
      </trkpt>
      <trkpt lat="47.50169" lon="6.76421">
        <ele>398</ele>
        <time>2016-06-12T06:59:13.000Z</time>
      </trkpt>
      <trkpt lat="47.50166" lon="6.76415">
        <ele>399</ele>
        <time>2016-06-12T06:59:14.000Z</time>
      </trkpt>
      <trkpt lat="47.50162" lon="6.76406">
        <ele>400</ele>
        <time>2016-06-12T06:59:15.000Z</time>
      </trkpt>
      <trkpt lat="47.5016" lon="6.76399">
        <ele>401</ele>
        <time>2016-06-12T06:59:16.000Z</time>
      </trkpt>
      <trkpt lat="47.50159" lon="6.76392">
        <ele>401</ele>
        <time>2016-06-12T06:59:17.000Z</time>
      </trkpt>
      <trkpt lat="47.50157" lon="6.76385">
        <ele>401</ele>
        <time>2016-06-12T06:59:18.000Z</time>
      </trkpt>
      <trkpt lat="47.50155" lon="6.76374">
        <ele>400</ele>
        <time>2016-06-12T06:59:19.000Z</time>
      </trkpt>
      <trkpt lat="47.50156" lon="6.76363">
        <ele>399</ele>
        <time>2016-06-12T06:59:20.000Z</time>
      </trkpt>
      <trkpt lat="47.50153" lon="6.76355">
        <ele>399</ele>
        <time>2016-06-12T06:59:21.000Z</time>
      </trkpt>
      <trkpt lat="47.5015" lon="6.76348">
        <ele>398</ele>
        <time>2016-06-12T06:59:22.000Z</time>
      </trkpt>
      <trkpt lat="47.50149" lon="6.76337">
        <ele>397</ele>
        <time>2016-06-12T06:59:23.000Z</time>
      </trkpt>
      <trkpt lat="47.50148" lon="6.76331">
        <ele>395</ele>
        <time>2016-06-12T06:59:24.000Z</time>
      </trkpt>
      <trkpt lat="47.50144" lon="6.76322">
        <ele>395</ele>
        <time>2016-06-12T06:59:25.000Z</time>
      </trkpt>
      <trkpt lat="47.50143" lon="6.76315">
        <ele>396</ele>
        <time>2016-06-12T06:59:26.000Z</time>
      </trkpt>
      <trkpt lat="47.50138" lon="6.76306">
        <ele>396</ele>
        <time>2016-06-12T06:59:27.000Z</time>
      </trkpt>
      <trkpt lat="47.50137" lon="6.76294">
        <ele>396</ele>
        <time>2016-06-12T06:59:28.000Z</time>
      </trkpt>
      <trkpt lat="47.50133" lon="6.76284">
        <ele>396</ele>
        <time>2016-06-12T06:59:29.000Z</time>
      </trkpt>
      <trkpt lat="47.50131" lon="6.76275">
        <ele>396</ele>
        <time>2016-06-12T06:59:30.000Z</time>
      </trkpt>
      <trkpt lat="47.50129" lon="6.76262">
        <ele>396</ele>
        <time>2016-06-12T06:59:31.000Z</time>
      </trkpt>
      <trkpt lat="47.50127" lon="6.76248">
        <ele>392</ele>
        <time>2016-06-12T06:59:32.000Z</time>
      </trkpt>
      <trkpt lat="47.50123" lon="6.7624">
        <ele>392</ele>
        <time>2016-06-12T06:59:33.000Z</time>
      </trkpt>
      <trkpt lat="47.50119" lon="6.7623">
        <ele>392</ele>
        <time>2016-06-12T06:59:34.000Z</time>
      </trkpt>
      <trkpt lat="47.50114" lon="6.76221">
        <ele>392</ele>
        <time>2016-06-12T06:59:35.000Z</time>
      </trkpt>
      <trkpt lat="47.50113" lon="6.76214">
        <ele>392</ele>
        <time>2016-06-12T06:59:36.000Z</time>
      </trkpt>
      <trkpt lat="47.50113" lon="6.76203">
        <ele>392</ele>
        <time>2016-06-12T06:59:37.000Z</time>
      </trkpt>
      <trkpt lat="47.5011" lon="6.76192">
        <ele>392</ele>
        <time>2016-06-12T06:59:38.000Z</time>
      </trkpt>
      <trkpt lat="47.50107" lon="6.76182">
        <ele>392</ele>
        <time>2016-06-12T06:59:39.000Z</time>
      </trkpt>
      <trkpt lat="47.50107" lon="6.7617">
        <ele>392</ele>
        <time>2016-06-12T06:59:40.000Z</time>
      </trkpt>
      <trkpt lat="47.50104" lon="6.76162">
        <ele>389</ele>
        <time>2016-06-12T06:59:41.000Z</time>
      </trkpt>
      <trkpt lat="47.50103" lon="6.7615">
        <ele>388</ele>
        <time>2016-06-12T06:59:42.000Z</time>
      </trkpt>
      <trkpt lat="47.50102" lon="6.7614">
        <ele>387</ele>
        <time>2016-06-12T06:59:43.000Z</time>
      </trkpt>
      <trkpt lat="47.50099" lon="6.76129">
        <ele>387</ele>
        <time>2016-06-12T06:59:44.000Z</time>
      </trkpt>
      <trkpt lat="47.50096" lon="6.76118">
        <ele>386</ele>
        <time>2016-06-12T06:59:45.000Z</time>
      </trkpt>
      <trkpt lat="47.50095" lon="6.76107">
        <ele>386</ele>
        <time>2016-06-12T06:59:46.000Z</time>
      </trkpt>
      <trkpt lat="47.50095" lon="6.76094">
        <ele>387</ele>
        <time>2016-06-12T06:59:47.000Z</time>
      </trkpt>
      <trkpt lat="47.50092" lon="6.76075">
        <ele>385</ele>
        <time>2016-06-12T06:59:48.000Z</time>
      </trkpt>
      <trkpt lat="47.5009" lon="6.7606">
        <ele>383</ele>
        <time>2016-06-12T06:59:49.000Z</time>
      </trkpt>
      <trkpt lat="47.50087" lon="6.76045">
        <ele>381</ele>
        <time>2016-06-12T06:59:50.000Z</time>
      </trkpt>
      <trkpt lat="47.50085" lon="6.7603">
        <ele>380</ele>
        <time>2016-06-12T06:59:51.000Z</time>
      </trkpt>
      <trkpt lat="47.50084" lon="6.76022">
        <ele>380</ele>
        <time>2016-06-12T06:59:52.000Z</time>
      </trkpt>
      <trkpt lat="47.5008" lon="6.76016">
        <ele>383</ele>
        <time>2016-06-12T06:59:53.000Z</time>
      </trkpt>
      <trkpt lat="47.50078" lon="6.76011">
        <ele>383</ele>
        <time>2016-06-12T06:59:54.000Z</time>
      </trkpt>
      <trkpt lat="47.50076" lon="6.76006">
        <ele>382</ele>
        <time>2016-06-12T06:59:55.000Z</time>
      </trkpt>
      <trkpt lat="47.50074" lon="6.76001">
        <ele>382</ele>
        <time>2016-06-12T06:59:56.000Z</time>
      </trkpt>
      <trkpt lat="47.50072" lon="6.75995">
        <ele>380</ele>
        <time>2016-06-12T06:59:57.000Z</time>
      </trkpt>
      <trkpt lat="47.5007" lon="6.75986">
        <ele>379</ele>
        <time>2016-06-12T06:59:58.000Z</time>
      </trkpt>
      <trkpt lat="47.50069" lon="6.75977">
        <ele>379</ele>
        <time>2016-06-12T06:59:59.000Z</time>
      </trkpt>
      <trkpt lat="47.50067" lon="6.7597">
        <ele>379</ele>
        <time>2016-06-12T07:00:00.000Z</time>
      </trkpt>
      <trkpt lat="47.50064" lon="6.75963">
        <ele>379</ele>
        <time>2016-06-12T07:00:01.000Z</time>
      </trkpt>
      <trkpt lat="47.50061" lon="6.75956">
        <ele>378</ele>
        <time>2016-06-12T07:00:02.000Z</time>
      </trkpt>
      <trkpt lat="47.50058" lon="6.75948">
        <ele>378</ele>
        <time>2016-06-12T07:00:03.000Z</time>
      </trkpt>
      <trkpt lat="47.50055" lon="6.75942">
        <ele>378</ele>
        <time>2016-06-12T07:00:04.000Z</time>
      </trkpt>
      <trkpt lat="47.50052" lon="6.75937">
        <ele>378</ele>
        <time>2016-06-12T07:00:05.000Z</time>
      </trkpt>
      <trkpt lat="47.50048" lon="6.75932">
        <ele>378</ele>
        <time>2016-06-12T07:00:06.000Z</time>
      </trkpt>
      <trkpt lat="47.50042" lon="6.75924">
        <ele>378</ele>
        <time>2016-06-12T07:00:07.000Z</time>
      </trkpt>
      <trkpt lat="47.50037" lon="6.75918">
        <ele>378</ele>
        <time>2016-06-12T07:00:08.000Z</time>
      </trkpt>
      <trkpt lat="47.50033" lon="6.75912">
        <ele>376</ele>
        <time>2016-06-12T07:00:09.000Z</time>
      </trkpt>
      <trkpt lat="47.50029" lon="6.75905">
        <ele>376</ele>
        <time>2016-06-12T07:00:10.000Z</time>
      </trkpt>
      <trkpt lat="47.50025" lon="6.75897">
        <ele>377</ele>
        <time>2016-06-12T07:00:11.000Z</time>
      </trkpt>
      <trkpt lat="47.50023" lon="6.7589">
        <ele>377</ele>
        <time>2016-06-12T07:00:12.000Z</time>
      </trkpt>
      <trkpt lat="47.50017" lon="6.75883">
        <ele>377</ele>
        <time>2016-06-12T07:00:13.000Z</time>
      </trkpt>
      <trkpt lat="47.50013" lon="6.75875">
        <ele>377</ele>
        <time>2016-06-12T07:00:14.000Z</time>
      </trkpt>
      <trkpt lat="47.50008" lon="6.75868">
        <ele>377</ele>
        <time>2016-06-12T07:00:15.000Z</time>
      </trkpt>
      <trkpt lat="47.50004" lon="6.75862">
        <ele>377</ele>
        <time>2016-06-12T07:00:16.000Z</time>
      </trkpt>
      <trkpt lat="47.49998" lon="6.75857">
        <ele>377</ele>
        <time>2016-06-12T07:00:17.000Z</time>
      </trkpt>
      <trkpt lat="47.49993" lon="6.75852">
        <ele>377</ele>
        <time>2016-06-12T07:00:18.000Z</time>
      </trkpt>
      <trkpt lat="47.49988" lon="6.75845">
        <ele>377</ele>
        <time>2016-06-12T07:00:19.000Z</time>
      </trkpt>
      <trkpt lat="47.49983" lon="6.75839">
        <ele>377</ele>
        <time>2016-06-12T07:00:20.000Z</time>
      </trkpt>
      <trkpt lat="47.49977" lon="6.75831">
        <ele>376</ele>
        <time>2016-06-12T07:00:21.000Z</time>
      </trkpt>
      <trkpt lat="47.49975" lon="6.75822">
        <ele>375</ele>
        <time>2016-06-12T07:00:22.000Z</time>
      </trkpt>
      <trkpt lat="47.49973" lon="6.75809">
        <ele>375</ele>
        <time>2016-06-12T07:00:23.000Z</time>
      </trkpt>
      <trkpt lat="47.49967" lon="6.75803">
        <ele>374</ele>
        <time>2016-06-12T07:00:24.000Z</time>
      </trkpt>
      <trkpt lat="47.49962" lon="6.75797">
        <ele>374</ele>
        <time>2016-06-12T07:00:25.000Z</time>
      </trkpt>
      <trkpt lat="47.49959" lon="6.75792">
        <ele>374</ele>
        <time>2016-06-12T07:00:26.000Z</time>
      </trkpt>
      <trkpt lat="47.49953" lon="6.75786">
        <ele>373</ele>
        <time>2016-06-12T07:00:27.000Z</time>
      </trkpt>
      <trkpt lat="47.49946" lon="6.75778">
        <ele>373</ele>
        <time>2016-06-12T07:00:28.000Z</time>
      </trkpt>
      <trkpt lat="47.49942" lon="6.75766">
        <ele>372</ele>
        <time>2016-06-12T07:00:29.000Z</time>
      </trkpt>
      <trkpt lat="47.49936" lon="6.75762">
        <ele>372</ele>
        <time>2016-06-12T07:00:30.000Z</time>
      </trkpt>
      <trkpt lat="47.49929" lon="6.75754">
        <ele>371</ele>
        <time>2016-06-12T07:00:31.000Z</time>
      </trkpt>
      <trkpt lat="47.49922" lon="6.75748">
        <ele>369</ele>
        <time>2016-06-12T07:00:32.000Z</time>
      </trkpt>
      <trkpt lat="47.49918" lon="6.75743">
        <ele>369</ele>
        <time>2016-06-12T07:00:33.000Z</time>
      </trkpt>
      <trkpt lat="47.49913" lon="6.7574">
        <ele>367</ele>
        <time>2016-06-12T07:00:34.000Z</time>
      </trkpt>
      <trkpt lat="47.49909" lon="6.75741">
        <ele>367</ele>
        <time>2016-06-12T07:00:35.000Z</time>
      </trkpt>
      <trkpt lat="47.49903" lon="6.75742">
        <ele>366</ele>
        <time>2016-06-12T07:00:36.000Z</time>
      </trkpt>
      <trkpt lat="47.49895" lon="6.75743">
        <ele>365</ele>
        <time>2016-06-12T07:00:37.000Z</time>
      </trkpt>
      <trkpt lat="47.49886" lon="6.75744">
        <ele>364</ele>
        <time>2016-06-12T07:00:38.000Z</time>
      </trkpt>
      <trkpt lat="47.49879" lon="6.75744">
        <ele>363</ele>
        <time>2016-06-12T07:00:39.000Z</time>
      </trkpt>
      <trkpt lat="47.49874" lon="6.75745">
        <ele>363</ele>
        <time>2016-06-12T07:00:40.000Z</time>
      </trkpt>
      <trkpt lat="47.49867" lon="6.75743">
        <ele>362</ele>
        <time>2016-06-12T07:00:41.000Z</time>
      </trkpt>
      <trkpt lat="47.49861" lon="6.75742">
        <ele>362</ele>
        <time>2016-06-12T07:00:42.000Z</time>
      </trkpt>
      <trkpt lat="47.49855" lon="6.75742">
        <ele>361</ele>
        <time>2016-06-12T07:00:43.000Z</time>
      </trkpt>
      <trkpt lat="47.49845" lon="6.75742">
        <ele>360</ele>
        <time>2016-06-12T07:00:44.000Z</time>
      </trkpt>
      <trkpt lat="47.49836" lon="6.75744">
        <ele>360</ele>
        <time>2016-06-12T07:00:45.000Z</time>
      </trkpt>
      <trkpt lat="47.49827" lon="6.75743">
        <ele>356</ele>
        <time>2016-06-12T07:00:46.000Z</time>
      </trkpt>
      <trkpt lat="47.49815" lon="6.75742">
        <ele>354</ele>
        <time>2016-06-12T07:00:47.000Z</time>
      </trkpt>
      <trkpt lat="47.49804" lon="6.75744">
        <ele>353</ele>
        <time>2016-06-12T07:00:48.000Z</time>
      </trkpt>
      <trkpt lat="47.49794" lon="6.75746">
        <ele>352</ele>
        <time>2016-06-12T07:00:49.000Z</time>
      </trkpt>
      <trkpt lat="47.49782" lon="6.75749">
        <ele>352</ele>
        <time>2016-06-12T07:00:50.000Z</time>
      </trkpt>
      <trkpt lat="47.49773" lon="6.75754">
        <ele>357</ele>
        <time>2016-06-12T07:00:51.000Z</time>
      </trkpt>
      <trkpt lat="47.49763" lon="6.75758">
        <ele>356</ele>
        <time>2016-06-12T07:00:52.000Z</time>
      </trkpt>
      <trkpt lat="47.49754" lon="6.7576">
        <ele>355</ele>
        <time>2016-06-12T07:00:53.000Z</time>
      </trkpt>
      <trkpt lat="47.49742" lon="6.75768">
        <ele>353</ele>
        <time>2016-06-12T07:00:54.000Z</time>
      </trkpt>
      <trkpt lat="47.49736" lon="6.7577">
        <ele>354</ele>
        <time>2016-06-12T07:00:55.000Z</time>
      </trkpt>
      <trkpt lat="47.49729" lon="6.75773">
        <ele>354</ele>
        <time>2016-06-12T07:00:56.000Z</time>
      </trkpt>
      <trkpt lat="47.49723" lon="6.75774">
        <ele>354</ele>
        <time>2016-06-12T07:00:57.000Z</time>
      </trkpt>
      <trkpt lat="47.49717" lon="6.75777">
        <ele>354</ele>
        <time>2016-06-12T07:00:58.000Z</time>
      </trkpt>
      <trkpt lat="47.49711" lon="6.75778">
        <ele>354</ele>
        <time>2016-06-12T07:00:59.000Z</time>
      </trkpt>
      <trkpt lat="47.49707" lon="6.75782">
        <ele>354</ele>
        <time>2016-06-12T07:01:00.000Z</time>
      </trkpt>
      <trkpt lat="47.49702" lon="6.75782">
        <ele>354</ele>
        <time>2016-06-12T07:01:01.000Z</time>
      </trkpt>
      <trkpt lat="47.49696" lon="6.75782">
        <ele>353</ele>
        <time>2016-06-12T07:01:02.000Z</time>
      </trkpt>
      <trkpt lat="47.49691" lon="6.75784">
        <ele>353</ele>
        <time>2016-06-12T07:01:03.000Z</time>
      </trkpt>
      <trkpt lat="47.49685" lon="6.75783">
        <ele>353</ele>
        <time>2016-06-12T07:01:04.000Z</time>
      </trkpt>
      <trkpt lat="47.49682" lon="6.75784">
        <ele>353</ele>
        <time>2016-06-12T07:01:05.000Z</time>
      </trkpt>
      <trkpt lat="47.49676" lon="6.75785">
        <ele>353</ele>
        <time>2016-06-12T07:01:06.000Z</time>
      </trkpt>
      <trkpt lat="47.4967" lon="6.75786">
        <ele>353</ele>
        <time>2016-06-12T07:01:07.000Z</time>
      </trkpt>
      <trkpt lat="47.49664" lon="6.75785">
        <ele>347</ele>
        <time>2016-06-12T07:01:08.000Z</time>
      </trkpt>
      <trkpt lat="47.49658" lon="6.75785">
        <ele>347</ele>
        <time>2016-06-12T07:01:09.000Z</time>
      </trkpt>
      <trkpt lat="47.4965" lon="6.75785">
        <ele>347</ele>
        <time>2016-06-12T07:01:10.000Z</time>
      </trkpt>
      <trkpt lat="47.49642" lon="6.75784">
        <ele>346</ele>
        <time>2016-06-12T07:01:11.000Z</time>
      </trkpt>
      <trkpt lat="47.49635" lon="6.75784">
        <ele>346</ele>
        <time>2016-06-12T07:01:12.000Z</time>
      </trkpt>
      <trkpt lat="47.49628" lon="6.75782">
        <ele>346</ele>
        <time>2016-06-12T07:01:13.000Z</time>
      </trkpt>
      <trkpt lat="47.49619" lon="6.7578">
        <ele>345</ele>
        <time>2016-06-12T07:01:14.000Z</time>
      </trkpt>
      <trkpt lat="47.4961" lon="6.75779">
        <ele>344</ele>
        <time>2016-06-12T07:01:15.000Z</time>
      </trkpt>
      <trkpt lat="47.49602" lon="6.75777">
        <ele>343</ele>
        <time>2016-06-12T07:01:16.000Z</time>
      </trkpt>
      <trkpt lat="47.49593" lon="6.75777">
        <ele>343</ele>
        <time>2016-06-12T07:01:17.000Z</time>
      </trkpt>
      <trkpt lat="47.49586" lon="6.75773">
        <ele>342</ele>
        <time>2016-06-12T07:01:18.000Z</time>
      </trkpt>
      <trkpt lat="47.49574" lon="6.7577">
        <ele>336</ele>
        <time>2016-06-12T07:01:19.000Z</time>
      </trkpt>
      <trkpt lat="47.49561" lon="6.75767">
        <ele>335</ele>
        <time>2016-06-12T07:01:20.000Z</time>
      </trkpt>
      <trkpt lat="47.49558" lon="6.75762">
        <ele>335</ele>
        <time>2016-06-12T07:01:21.000Z</time>
      </trkpt>
      <trkpt lat="47.49558" lon="6.75756">
        <ele>335</ele>
        <time>2016-06-12T07:01:22.000Z</time>
      </trkpt>
      <trkpt lat="47.49557" lon="6.75753">
        <ele>335</ele>
        <time>2016-06-12T07:01:23.000Z</time>
      </trkpt>
      <trkpt lat="47.4956" lon="6.7575">
        <ele>328</ele>
        <time>2016-06-12T07:01:24.000Z</time>
      </trkpt>
      <trkpt lat="47.49562" lon="6.75749">
        <ele>329</ele>
        <time>2016-06-12T07:01:25.000Z</time>
      </trkpt>
      <trkpt lat="47.49565" lon="6.75747">
        <ele>329</ele>
        <time>2016-06-12T07:01:26.000Z</time>
      </trkpt>
      <trkpt lat="47.49568" lon="6.75743">
        <ele>329</ele>
        <time>2016-06-12T07:01:27.000Z</time>
      </trkpt>
      <trkpt lat="47.49571" lon="6.75739">
        <ele>329</ele>
        <time>2016-06-12T07:01:28.000Z</time>
      </trkpt>
      <trkpt lat="47.49575" lon="6.75735">
        <ele>329</ele>
        <time>2016-06-12T07:01:29.000Z</time>
      </trkpt>
      <trkpt lat="47.49579" lon="6.75731">
        <ele>329</ele>
        <time>2016-06-12T07:01:30.000Z</time>
      </trkpt>
      <trkpt lat="47.49582" lon="6.75726">
        <ele>328</ele>
        <time>2016-06-12T07:01:31.000Z</time>
      </trkpt>
      <trkpt lat="47.49587" lon="6.75719">
        <ele>331</ele>
        <time>2016-06-12T07:01:32.000Z</time>
      </trkpt>
      <trkpt lat="47.4959" lon="6.75712">
        <ele>331</ele>
        <time>2016-06-12T07:01:33.000Z</time>
      </trkpt>
      <trkpt lat="47.49592" lon="6.75704">
        <ele>330</ele>
        <time>2016-06-12T07:01:34.000Z</time>
      </trkpt>
      <trkpt lat="47.49593" lon="6.75695">
        <ele>329</ele>
        <time>2016-06-12T07:01:35.000Z</time>
      </trkpt>
      <trkpt lat="47.49595" lon="6.75687">
        <ele>327</ele>
        <time>2016-06-12T07:01:36.000Z</time>
      </trkpt>
      <trkpt lat="47.49593" lon="6.75681">
        <ele>326</ele>
        <time>2016-06-12T07:01:37.000Z</time>
      </trkpt>
      <trkpt lat="47.49589" lon="6.75678">
        <ele>325</ele>
        <time>2016-06-12T07:01:38.000Z</time>
      </trkpt>
      <trkpt lat="47.49583" lon="6.75673">
        <ele>322</ele>
        <time>2016-06-12T07:01:39.000Z</time>
      </trkpt>
      <trkpt lat="47.49578" lon="6.75668">
        <ele>322</ele>
        <time>2016-06-12T07:01:40.000Z</time>
      </trkpt>
      <trkpt lat="47.49573" lon="6.75667">
        <ele>322</ele>
        <time>2016-06-12T07:01:41.000Z</time>
      </trkpt>
      <trkpt lat="47.49568" lon="6.75671">
        <ele>323</ele>
        <time>2016-06-12T07:01:42.000Z</time>
      </trkpt>
      <trkpt lat="47.49563" lon="6.75676">
        <ele>323</ele>
        <time>2016-06-12T07:01:43.000Z</time>
      </trkpt>
      <trkpt lat="47.49561" lon="6.75683">
        <ele>324</ele>
        <time>2016-06-12T07:01:44.000Z</time>
      </trkpt>
      <trkpt lat="47.49557" lon="6.75689">
        <ele>324</ele>
        <time>2016-06-12T07:01:45.000Z</time>
      </trkpt>
      <trkpt lat="47.49553" lon="6.75695">
        <ele>325</ele>
        <time>2016-06-12T07:01:46.000Z</time>
      </trkpt>
      <trkpt lat="47.4955" lon="6.757">
        <ele>325</ele>
        <time>2016-06-12T07:01:47.000Z</time>
      </trkpt>
      <trkpt lat="47.49546" lon="6.75707">
        <ele>325</ele>
        <time>2016-06-12T07:01:48.000Z</time>
      </trkpt>
      <trkpt lat="47.49541" lon="6.75712">
        <ele>325</ele>
        <time>2016-06-12T07:01:49.000Z</time>
      </trkpt>
      <trkpt lat="47.49537" lon="6.75716">
        <ele>325</ele>
        <time>2016-06-12T07:01:50.000Z</time>
      </trkpt>
      <trkpt lat="47.49532" lon="6.75718">
        <ele>325</ele>
        <time>2016-06-12T07:01:51.000Z</time>
      </trkpt>
      <trkpt lat="47.49527" lon="6.75722">
        <ele>325</ele>
        <time>2016-06-12T07:01:52.000Z</time>
      </trkpt>
      <trkpt lat="47.49522" lon="6.75726">
        <ele>325</ele>
        <time>2016-06-12T07:01:53.000Z</time>
      </trkpt>
      <trkpt lat="47.49517" lon="6.75729">
        <ele>325</ele>
        <time>2016-06-12T07:01:54.000Z</time>
      </trkpt>
      <trkpt lat="47.49512" lon="6.75732">
        <ele>325</ele>
        <time>2016-06-12T07:01:55.000Z</time>
      </trkpt>
      <trkpt lat="47.49507" lon="6.75736">
        <ele>325</ele>
        <time>2016-06-12T07:01:56.000Z</time>
      </trkpt>
      <trkpt lat="47.49501" lon="6.75739">
        <ele>324</ele>
        <time>2016-06-12T07:01:57.000Z</time>
      </trkpt>
      <trkpt lat="47.49496" lon="6.75741">
        <ele>323</ele>
        <time>2016-06-12T07:01:58.000Z</time>
      </trkpt>
      <trkpt lat="47.4949" lon="6.75741">
        <ele>323</ele>
        <time>2016-06-12T07:01:59.000Z</time>
      </trkpt>
      <trkpt lat="47.49484" lon="6.75737">
        <ele>322</ele>
        <time>2016-06-12T07:02:00.000Z</time>
      </trkpt>
      <trkpt lat="47.49477" lon="6.75733">
        <ele>322</ele>
        <time>2016-06-12T07:02:01.000Z</time>
      </trkpt>
      <trkpt lat="47.49477" lon="6.75722">
        <ele>322</ele>
        <time>2016-06-12T07:02:02.000Z</time>
      </trkpt>
      <trkpt lat="47.49474" lon="6.75715">
        <ele>321</ele>
        <time>2016-06-12T07:02:03.000Z</time>
      </trkpt>
      <trkpt lat="47.49472" lon="6.75707">
        <ele>321</ele>
        <time>2016-06-12T07:02:04.000Z</time>
      </trkpt>
      <trkpt lat="47.49469" lon="6.757">
        <ele>321</ele>
        <time>2016-06-12T07:02:05.000Z</time>
      </trkpt>
      <trkpt lat="47.49466" lon="6.75695">
        <ele>321</ele>
        <time>2016-06-12T07:02:06.000Z</time>
      </trkpt>
      <trkpt lat="47.49459" lon="6.75696">
        <ele>321</ele>
        <time>2016-06-12T07:02:07.000Z</time>
      </trkpt>
      <trkpt lat="47.49455" lon="6.75697">
        <ele>321</ele>
        <time>2016-06-12T07:02:08.000Z</time>
      </trkpt>
      <trkpt lat="47.49451" lon="6.75699">
        <ele>321</ele>
        <time>2016-06-12T07:02:09.000Z</time>
      </trkpt>
      <trkpt lat="47.49448" lon="6.75701">
        <ele>321</ele>
        <time>2016-06-12T07:02:10.000Z</time>
      </trkpt>
      <trkpt lat="47.49444" lon="6.757">
        <ele>321</ele>
        <time>2016-06-12T07:02:11.000Z</time>
      </trkpt>
      <trkpt lat="47.49439" lon="6.75697">
        <ele>321</ele>
        <time>2016-06-12T07:02:12.000Z</time>
      </trkpt>
      <trkpt lat="47.49439" lon="6.75689">
        <ele>320</ele>
        <time>2016-06-12T07:02:13.000Z</time>
      </trkpt>
      <trkpt lat="47.49437" lon="6.75682">
        <ele>320</ele>
        <time>2016-06-12T07:02:14.000Z</time>
      </trkpt>
      <trkpt lat="47.49435" lon="6.75676">
        <ele>320</ele>
        <time>2016-06-12T07:02:15.000Z</time>
      </trkpt>
      <trkpt lat="47.49433" lon="6.75671">
        <ele>320</ele>
        <time>2016-06-12T07:02:16.000Z</time>
      </trkpt>
      <trkpt lat="47.49431" lon="6.75667">
        <ele>320</ele>
        <time>2016-06-12T07:02:17.000Z</time>
      </trkpt>
      <trkpt lat="47.49429" lon="6.75664">
        <ele>320</ele>
        <time>2016-06-12T07:02:18.000Z</time>
      </trkpt>
      <trkpt lat="47.49422" lon="6.75674">
        <ele>320</ele>
        <time>2016-06-12T07:02:19.000Z</time>
      </trkpt>
      <trkpt lat="47.49419" lon="6.75677">
        <ele>320</ele>
        <time>2016-06-12T07:02:20.000Z</time>
      </trkpt>
      <trkpt lat="47.49416" lon="6.75678">
        <ele>319</ele>
        <time>2016-06-12T07:02:21.000Z</time>
      </trkpt>
      <trkpt lat="47.49412" lon="6.75682">
        <ele>319</ele>
        <time>2016-06-12T07:02:22.000Z</time>
      </trkpt>
      <trkpt lat="47.49407" lon="6.75685">
        <ele>319</ele>
        <time>2016-06-12T07:02:23.000Z</time>
      </trkpt>
      <trkpt lat="47.49403" lon="6.75688">
        <ele>319</ele>
        <time>2016-06-12T07:02:24.000Z</time>
      </trkpt>
      <trkpt lat="47.49398" lon="6.75691">
        <ele>319</ele>
        <time>2016-06-12T07:02:25.000Z</time>
      </trkpt>
      <trkpt lat="47.49394" lon="6.75694">
        <ele>319</ele>
        <time>2016-06-12T07:02:26.000Z</time>
      </trkpt>
      <trkpt lat="47.49389" lon="6.75698">
        <ele>319</ele>
        <time>2016-06-12T07:02:27.000Z</time>
      </trkpt>
      <trkpt lat="47.49384" lon="6.75702">
        <ele>319</ele>
        <time>2016-06-12T07:02:28.000Z</time>
      </trkpt>
      <trkpt lat="47.4938" lon="6.75706">
        <ele>319</ele>
        <time>2016-06-12T07:02:29.000Z</time>
      </trkpt>
      <trkpt lat="47.49377" lon="6.75709">
        <ele>319</ele>
        <time>2016-06-12T07:02:30.000Z</time>
      </trkpt>
      <trkpt lat="47.49374" lon="6.75713">
        <ele>319</ele>
        <time>2016-06-12T07:02:31.000Z</time>
      </trkpt>
      <trkpt lat="47.49371" lon="6.75716">
        <ele>319</ele>
        <time>2016-06-12T07:02:32.000Z</time>
      </trkpt>
      <trkpt lat="47.49367" lon="6.75719">
        <ele>319</ele>
        <time>2016-06-12T07:02:33.000Z</time>
      </trkpt>
      <trkpt lat="47.49363" lon="6.7572">
        <ele>319</ele>
        <time>2016-06-12T07:02:36.000Z</time>
      </trkpt>
      <trkpt lat="47.49361" lon="6.75721">
        <ele>319</ele>
        <time>2016-06-12T07:02:37.000Z</time>
      </trkpt>
      <trkpt lat="47.49359" lon="6.75718">
        <ele>319</ele>
        <time>2016-06-12T07:02:38.000Z</time>
      </trkpt>
      <trkpt lat="47.49355" lon="6.75719">
        <ele>319</ele>
        <time>2016-06-12T07:02:39.000Z</time>
      </trkpt>
      <trkpt lat="47.4935" lon="6.75723">
        <ele>319</ele>
        <time>2016-06-12T07:02:40.000Z</time>
      </trkpt>
      <trkpt lat="47.49347" lon="6.75726">
        <ele>318</ele>
        <time>2016-06-12T07:02:41.000Z</time>
      </trkpt>
      <trkpt lat="47.49341" lon="6.75735">
        <ele>318</ele>
        <time>2016-06-12T07:02:42.000Z</time>
      </trkpt>
      <trkpt lat="47.49336" lon="6.75739">
        <ele>318</ele>
        <time>2016-06-12T07:02:43.000Z</time>
      </trkpt>
      <trkpt lat="47.4933" lon="6.75745">
        <ele>318</ele>
        <time>2016-06-12T07:02:44.000Z</time>
      </trkpt>
      <trkpt lat="47.49326" lon="6.75749">
        <ele>318</ele>
        <time>2016-06-12T07:02:45.000Z</time>
      </trkpt>
      <trkpt lat="47.49322" lon="6.75753">
        <ele>318</ele>
        <time>2016-06-12T07:02:46.000Z</time>
      </trkpt>
      <trkpt lat="47.49316" lon="6.7576">
        <ele>318</ele>
        <time>2016-06-12T07:02:47.000Z</time>
      </trkpt>
      <trkpt lat="47.4931" lon="6.75766">
        <ele>318</ele>
        <time>2016-06-12T07:02:48.000Z</time>
      </trkpt>
      <trkpt lat="47.49305" lon="6.75773">
        <ele>318</ele>
        <time>2016-06-12T07:02:49.000Z</time>
      </trkpt>
      <trkpt lat="47.49301" lon="6.75779">
        <ele>318</ele>
        <time>2016-06-12T07:02:50.000Z</time>
      </trkpt>
      <trkpt lat="47.49296" lon="6.75785">
        <ele>318</ele>
        <time>2016-06-12T07:02:51.000Z</time>
      </trkpt>
      <trkpt lat="47.49291" lon="6.75791">
        <ele>318</ele>
        <time>2016-06-12T07:02:52.000Z</time>
      </trkpt>
      <trkpt lat="47.49287" lon="6.75797">
        <ele>318</ele>
        <time>2016-06-12T07:02:53.000Z</time>
      </trkpt>
      <trkpt lat="47.49283" lon="6.75802">
        <ele>318</ele>
        <time>2016-06-12T07:02:54.000Z</time>
      </trkpt>
      <trkpt lat="47.49279" lon="6.75808">
        <ele>317</ele>
        <time>2016-06-12T07:02:55.000Z</time>
      </trkpt>
      <trkpt lat="47.49274" lon="6.75815">
        <ele>317</ele>
        <time>2016-06-12T07:02:56.000Z</time>
      </trkpt>
      <trkpt lat="47.4927" lon="6.75821">
        <ele>316</ele>
        <time>2016-06-12T07:02:57.000Z</time>
      </trkpt>
      <trkpt lat="47.49266" lon="6.75829">
        <ele>316</ele>
        <time>2016-06-12T07:02:58.000Z</time>
      </trkpt>
      <trkpt lat="47.49262" lon="6.75835">
        <ele>316</ele>
        <time>2016-06-12T07:02:59.000Z</time>
      </trkpt>
      <trkpt lat="47.49258" lon="6.75842">
        <ele>316</ele>
        <time>2016-06-12T07:03:00.000Z</time>
      </trkpt>
      <trkpt lat="47.49254" lon="6.75849">
        <ele>316</ele>
        <time>2016-06-12T07:03:01.000Z</time>
      </trkpt>
      <trkpt lat="47.4925" lon="6.75856">
        <ele>317</ele>
        <time>2016-06-12T07:03:02.000Z</time>
      </trkpt>
      <trkpt lat="47.49247" lon="6.75863">
        <ele>317</ele>
        <time>2016-06-12T07:03:03.000Z</time>
      </trkpt>
      <trkpt lat="47.49243" lon="6.7587">
        <ele>318</ele>
        <time>2016-06-12T07:03:04.000Z</time>
      </trkpt>
      <trkpt lat="47.4924" lon="6.75878">
        <ele>318</ele>
        <time>2016-06-12T07:03:05.000Z</time>
      </trkpt>
      <trkpt lat="47.49237" lon="6.75885">
        <ele>318</ele>
        <time>2016-06-12T07:03:06.000Z</time>
      </trkpt>
      <trkpt lat="47.49232" lon="6.75892">
        <ele>318</ele>
        <time>2016-06-12T07:03:07.000Z</time>
      </trkpt>
      <trkpt lat="47.49227" lon="6.75898">
        <ele>318</ele>
        <time>2016-06-12T07:03:08.000Z</time>
      </trkpt>
      <trkpt lat="47.49224" lon="6.75903">
        <ele>319</ele>
        <time>2016-06-12T07:03:09.000Z</time>
      </trkpt>
      <trkpt lat="47.4922" lon="6.7591">
        <ele>319</ele>
        <time>2016-06-12T07:03:10.000Z</time>
      </trkpt>
      <trkpt lat="47.49217" lon="6.75917">
        <ele>319</ele>
        <time>2016-06-12T07:03:11.000Z</time>
      </trkpt>
      <trkpt lat="47.49213" lon="6.75923">
        <ele>320</ele>
        <time>2016-06-12T07:03:12.000Z</time>
      </trkpt>
      <trkpt lat="47.49209" lon="6.7593">
        <ele>320</ele>
        <time>2016-06-12T07:03:13.000Z</time>
      </trkpt>
      <trkpt lat="47.49213" lon="6.75938">
        <ele>320</ele>
        <time>2016-06-12T07:03:14.000Z</time>
      </trkpt>
      <trkpt lat="47.49212" lon="6.75945">
        <ele>320</ele>
        <time>2016-06-12T07:03:15.000Z</time>
      </trkpt>
      <trkpt lat="47.49206" lon="6.75952">
        <ele>320</ele>
        <time>2016-06-12T07:03:16.000Z</time>
      </trkpt>
      <trkpt lat="47.49203" lon="6.75958">
        <ele>320</ele>
        <time>2016-06-12T07:03:17.000Z</time>
      </trkpt>
      <trkpt lat="47.49201" lon="6.75962">
        <ele>320</ele>
        <time>2016-06-12T07:03:18.000Z</time>
      </trkpt>
      <trkpt lat="47.49201" lon="6.75965">
        <ele>320</ele>
        <time>2016-06-12T07:03:19.000Z</time>
      </trkpt>
      <trkpt lat="47.49201" lon="6.75969">
        <ele>320</ele>
        <time>2016-06-12T07:03:20.000Z</time>
      </trkpt>
      <trkpt lat="47.492" lon="6.75972">
        <ele>320</ele>
        <time>2016-06-12T07:03:21.000Z</time>
      </trkpt>
      <trkpt lat="47.49198" lon="6.75975">
        <ele>320</ele>
        <time>2016-06-12T07:03:22.000Z</time>
      </trkpt>
      <trkpt lat="47.49196" lon="6.75979">
        <ele>320</ele>
        <time>2016-06-12T07:03:23.000Z</time>
      </trkpt>
      <trkpt lat="47.49194" lon="6.75984">
        <ele>320</ele>
        <time>2016-06-12T07:03:24.000Z</time>
      </trkpt>
      <trkpt lat="47.49193" lon="6.75989">
        <ele>320</ele>
        <time>2016-06-12T07:03:25.000Z</time>
      </trkpt>
      <trkpt lat="47.49191" lon="6.75996">
        <ele>320</ele>
        <time>2016-06-12T07:03:26.000Z</time>
      </trkpt>
      <trkpt lat="47.49189" lon="6.76001">
        <ele>320</ele>
        <time>2016-06-12T07:03:27.000Z</time>
      </trkpt>
      <trkpt lat="47.49187" lon="6.76005">
        <ele>320</ele>
        <time>2016-06-12T07:03:28.000Z</time>
      </trkpt>
      <trkpt lat="47.49184" lon="6.76011">
        <ele>320</ele>
        <time>2016-06-12T07:03:29.000Z</time>
      </trkpt>
      <trkpt lat="47.49183" lon="6.76016">
        <ele>320</ele>
        <time>2016-06-12T07:03:30.000Z</time>
      </trkpt>
      <trkpt lat="47.49179" lon="6.7602">
        <ele>320</ele>
        <time>2016-06-12T07:03:31.000Z</time>
      </trkpt>
      <trkpt lat="47.49177" lon="6.76026">
        <ele>320</ele>
        <time>2016-06-12T07:03:32.000Z</time>
      </trkpt>
      <trkpt lat="47.49175" lon="6.76033">
        <ele>320</ele>
        <time>2016-06-12T07:03:33.000Z</time>
      </trkpt>
      <trkpt lat="47.49172" lon="6.7604">
        <ele>320</ele>
        <time>2016-06-12T07:03:34.000Z</time>
      </trkpt>
      <trkpt lat="47.49169" lon="6.76046">
        <ele>320</ele>
        <time>2016-06-12T07:03:35.000Z</time>
      </trkpt>
      <trkpt lat="47.49166" lon="6.76053">
        <ele>322</ele>
        <time>2016-06-12T07:03:36.000Z</time>
      </trkpt>
      <trkpt lat="47.49164" lon="6.7606">
        <ele>322</ele>
        <time>2016-06-12T07:03:37.000Z</time>
      </trkpt>
      <trkpt lat="47.49162" lon="6.76066">
        <ele>321</ele>
        <time>2016-06-12T07:03:38.000Z</time>
      </trkpt>
      <trkpt lat="47.4916" lon="6.76073">
        <ele>320</ele>
        <time>2016-06-12T07:03:39.000Z</time>
      </trkpt>
      <trkpt lat="47.49158" lon="6.76081">
        <ele>320</ele>
        <time>2016-06-12T07:03:40.000Z</time>
      </trkpt>
      <trkpt lat="47.49156" lon="6.76087">
        <ele>320</ele>
        <time>2016-06-12T07:03:41.000Z</time>
      </trkpt>
      <trkpt lat="47.49154" lon="6.76095">
        <ele>320</ele>
        <time>2016-06-12T07:03:42.000Z</time>
      </trkpt>
      <trkpt lat="47.49152" lon="6.76103">
        <ele>321</ele>
        <time>2016-06-12T07:03:43.000Z</time>
      </trkpt>
      <trkpt lat="47.4915" lon="6.76111">
        <ele>321</ele>
        <time>2016-06-12T07:03:44.000Z</time>
      </trkpt>
      <trkpt lat="47.49147" lon="6.76118">
        <ele>321</ele>
        <time>2016-06-12T07:03:45.000Z</time>
      </trkpt>
      <trkpt lat="47.49146" lon="6.76126">
        <ele>321</ele>
        <time>2016-06-12T07:03:46.000Z</time>
      </trkpt>
      <trkpt lat="47.49144" lon="6.76134">
        <ele>321</ele>
        <time>2016-06-12T07:03:47.000Z</time>
      </trkpt>
      <trkpt lat="47.49143" lon="6.76142">
        <ele>321</ele>
        <time>2016-06-12T07:03:48.000Z</time>
      </trkpt>
      <trkpt lat="47.49141" lon="6.76151">
        <ele>321</ele>
        <time>2016-06-12T07:03:49.000Z</time>
      </trkpt>
      <trkpt lat="47.4914" lon="6.7616">
        <ele>321</ele>
        <time>2016-06-12T07:03:50.000Z</time>
      </trkpt>
      <trkpt lat="47.49138" lon="6.76169">
        <ele>321</ele>
        <time>2016-06-12T07:03:51.000Z</time>
      </trkpt>
      <trkpt lat="47.49136" lon="6.76178">
        <ele>321</ele>
        <time>2016-06-12T07:03:52.000Z</time>
      </trkpt>
      <trkpt lat="47.49134" lon="6.76186">
        <ele>321</ele>
        <time>2016-06-12T07:03:53.000Z</time>
      </trkpt>
      <trkpt lat="47.49132" lon="6.76194">
        <ele>321</ele>
        <time>2016-06-12T07:03:54.000Z</time>
      </trkpt>
      <trkpt lat="47.49132" lon="6.76203">
        <ele>321</ele>
        <time>2016-06-12T07:03:55.000Z</time>
      </trkpt>
      <trkpt lat="47.49132" lon="6.76211">
        <ele>321</ele>
        <time>2016-06-12T07:03:56.000Z</time>
      </trkpt>
      <trkpt lat="47.49132" lon="6.7622">
        <ele>321</ele>
        <time>2016-06-12T07:03:57.000Z</time>
      </trkpt>
      <trkpt lat="47.49133" lon="6.76227">
        <ele>320</ele>
        <time>2016-06-12T07:03:58.000Z</time>
      </trkpt>
      <trkpt lat="47.49133" lon="6.76235">
        <ele>320</ele>
        <time>2016-06-12T07:03:59.000Z</time>
      </trkpt>
      <trkpt lat="47.49132" lon="6.76243">
        <ele>320</ele>
        <time>2016-06-12T07:04:00.000Z</time>
      </trkpt>
      <trkpt lat="47.49131" lon="6.76252">
        <ele>319</ele>
        <time>2016-06-12T07:04:01.000Z</time>
      </trkpt>
      <trkpt lat="47.4913" lon="6.76259">
        <ele>319</ele>
        <time>2016-06-12T07:04:02.000Z</time>
      </trkpt>
      <trkpt lat="47.49129" lon="6.76266">
        <ele>320</ele>
        <time>2016-06-12T07:04:03.000Z</time>
      </trkpt>
      <trkpt lat="47.49129" lon="6.76273">
        <ele>319</ele>
        <time>2016-06-12T07:04:04.000Z</time>
      </trkpt>
      <trkpt lat="47.49129" lon="6.76281">
        <ele>319</ele>
        <time>2016-06-12T07:04:05.000Z</time>
      </trkpt>
      <trkpt lat="47.4913" lon="6.76288">
        <ele>319</ele>
        <time>2016-06-12T07:04:06.000Z</time>
      </trkpt>
      <trkpt lat="47.49129" lon="6.76297">
        <ele>319</ele>
        <time>2016-06-12T07:04:07.000Z</time>
      </trkpt>
      <trkpt lat="47.49131" lon="6.76305">
        <ele>319</ele>
        <time>2016-06-12T07:04:08.000Z</time>
      </trkpt>
      <trkpt lat="47.49131" lon="6.76313">
        <ele>319</ele>
        <time>2016-06-12T07:04:09.000Z</time>
      </trkpt>
      <trkpt lat="47.49131" lon="6.76324">
        <ele>319</ele>
        <time>2016-06-12T07:04:10.000Z</time>
      </trkpt>
      <trkpt lat="47.49132" lon="6.76333">
        <ele>319</ele>
        <time>2016-06-12T07:04:11.000Z</time>
      </trkpt>
      <trkpt lat="47.49132" lon="6.76341">
        <ele>317</ele>
        <time>2016-06-12T07:04:12.000Z</time>
      </trkpt>
      <trkpt lat="47.49133" lon="6.76351">
        <ele>317</ele>
        <time>2016-06-12T07:04:13.000Z</time>
      </trkpt>
      <trkpt lat="47.49132" lon="6.76359">
        <ele>317</ele>
        <time>2016-06-12T07:04:14.000Z</time>
      </trkpt>
      <trkpt lat="47.49132" lon="6.76366">
        <ele>317</ele>
        <time>2016-06-12T07:04:15.000Z</time>
      </trkpt>
      <trkpt lat="47.49133" lon="6.76374">
        <ele>317</ele>
        <time>2016-06-12T07:04:16.000Z</time>
      </trkpt>
      <trkpt lat="47.49132" lon="6.76385">
        <ele>317</ele>
        <time>2016-06-12T07:04:17.000Z</time>
      </trkpt>
      <trkpt lat="47.49132" lon="6.76395">
        <ele>317</ele>
        <time>2016-06-12T07:04:18.000Z</time>
      </trkpt>
      <trkpt lat="47.49131" lon="6.76405">
        <ele>317</ele>
        <time>2016-06-12T07:04:19.000Z</time>
      </trkpt>
      <trkpt lat="47.4913" lon="6.76415">
        <ele>317</ele>
        <time>2016-06-12T07:04:20.000Z</time>
      </trkpt>
      <trkpt lat="47.49129" lon="6.76424">
        <ele>317</ele>
        <time>2016-06-12T07:04:21.000Z</time>
      </trkpt>
      <trkpt lat="47.49129" lon="6.76434">
        <ele>317</ele>
        <time>2016-06-12T07:04:22.000Z</time>
      </trkpt>
      <trkpt lat="47.49129" lon="6.76443">
        <ele>317</ele>
        <time>2016-06-12T07:04:23.000Z</time>
      </trkpt>
      <trkpt lat="47.49129" lon="6.76453">
        <ele>317</ele>
        <time>2016-06-12T07:04:24.000Z</time>
      </trkpt>
      <trkpt lat="47.49129" lon="6.76462">
        <ele>317</ele>
        <time>2016-06-12T07:04:25.000Z</time>
      </trkpt>
      <trkpt lat="47.49129" lon="6.76472">
        <ele>317</ele>
        <time>2016-06-12T07:04:26.000Z</time>
      </trkpt>
      <trkpt lat="47.49128" lon="6.76481">
        <ele>317</ele>
        <time>2016-06-12T07:04:27.000Z</time>
      </trkpt>
      <trkpt lat="47.49127" lon="6.76491">
        <ele>317</ele>
        <time>2016-06-12T07:04:28.000Z</time>
      </trkpt>
      <trkpt lat="47.49126" lon="6.765">
        <ele>317</ele>
        <time>2016-06-12T07:04:29.000Z</time>
      </trkpt>
      <trkpt lat="47.49126" lon="6.76509">
        <ele>316</ele>
        <time>2016-06-12T07:04:30.000Z</time>
      </trkpt>
      <trkpt lat="47.49128" lon="6.76518">
        <ele>316</ele>
        <time>2016-06-12T07:04:31.000Z</time>
      </trkpt>
      <trkpt lat="47.49128" lon="6.76524">
        <ele>316</ele>
        <time>2016-06-12T07:04:32.000Z</time>
      </trkpt>
      <trkpt lat="47.49135" lon="6.76522">
        <ele>316</ele>
        <time>2016-06-12T07:04:33.000Z</time>
      </trkpt>
      <trkpt lat="47.4914" lon="6.76522">
        <ele>315</ele>
        <time>2016-06-12T07:04:34.000Z</time>
      </trkpt>
      <trkpt lat="47.49146" lon="6.76521">
        <ele>315</ele>
        <time>2016-06-12T07:04:35.000Z</time>
      </trkpt>
      <trkpt lat="47.49151" lon="6.76519">
        <ele>315</ele>
        <time>2016-06-12T07:04:36.000Z</time>
      </trkpt>
      <trkpt lat="47.49155" lon="6.76518">
        <ele>315</ele>
        <time>2016-06-12T07:04:37.000Z</time>
      </trkpt>
      <trkpt lat="47.49158" lon="6.76513">
        <ele>314</ele>
        <time>2016-06-12T07:04:38.000Z</time>
      </trkpt>
      <trkpt lat="47.49162" lon="6.7651">
        <ele>314</ele>
        <time>2016-06-12T07:04:39.000Z</time>
      </trkpt>
      <trkpt lat="47.49165" lon="6.76508">
        <ele>314</ele>
        <time>2016-06-12T07:04:40.000Z</time>
      </trkpt>
      <trkpt lat="47.49167" lon="6.76506">
        <ele>314</ele>
        <time>2016-06-12T07:04:41.000Z</time>
      </trkpt>
      <trkpt lat="47.49169" lon="6.76504">
        <ele>314</ele>
        <time>2016-06-12T07:04:42.000Z</time>
      </trkpt>
      <trkpt lat="47.49171" lon="6.76502">
        <ele>314</ele>
        <time>2016-06-12T07:04:43.000Z</time>
      </trkpt>
      <trkpt lat="47.49174" lon="6.76499">
        <ele>314</ele>
        <time>2016-06-12T07:04:45.000Z</time>
      </trkpt>
      <trkpt lat="47.49175" lon="6.76498">
        <ele>314</ele>
        <time>2016-06-12T07:04:46.000Z</time>
      </trkpt>
      <trkpt lat="47.49176" lon="6.76492">
        <ele>315</ele>
        <time>2016-06-12T07:05:02.000Z</time>
      </trkpt>
      <trkpt lat="47.49176" lon="6.76491">
        <ele>315</ele>
        <time>2016-06-12T07:05:03.000Z</time>
      </trkpt>
      <trkpt lat="47.49179" lon="6.76495">
        <ele>315</ele>
        <time>2016-06-12T07:06:20.000Z</time>
      </trkpt>
      <trkpt lat="47.4918" lon="6.76494">
        <ele>315</ele>
        <time>2016-06-12T07:06:21.000Z</time>
      </trkpt>
      <trkpt lat="47.49185" lon="6.76493">
        <ele>316</ele>
        <time>2016-06-12T07:06:24.000Z</time>
      </trkpt>
      <trkpt lat="47.49185" lon="6.76492">
        <ele>316</ele>
        <time>2016-06-12T07:06:25.000Z</time>
      </trkpt>
      <trkpt lat="47.49187" lon="6.76489">
        <ele>316</ele>
        <time>2016-06-12T07:08:11.000Z</time>
      </trkpt>
      <trkpt lat="47.4919" lon="6.7649">
        <ele>316</ele>
        <time>2016-06-12T07:08:12.000Z</time>
      </trkpt>
      <trkpt lat="47.49193" lon="6.76492">
        <ele>317</ele>
        <time>2016-06-12T07:08:15.000Z</time>
      </trkpt>
      <trkpt lat="47.49194" lon="6.76493">
        <ele>317</ele>
        <time>2016-06-12T07:08:16.000Z</time>
      </trkpt>
      <trkpt lat="47.49198" lon="6.76494">
        <ele>317</ele>
        <time>2016-06-12T07:08:21.000Z</time>
      </trkpt>
      <trkpt lat="47.49199" lon="6.76493">
        <ele>317</ele>
        <time>2016-06-12T07:08:22.000Z</time>
      </trkpt>
      <trkpt lat="47.49195" lon="6.76495">
        <ele>317</ele>
        <time>2016-06-12T07:08:46.000Z</time>
      </trkpt>
      <trkpt lat="47.49193" lon="6.76496">
        <ele>317</ele>
        <time>2016-06-12T07:08:47.000Z</time>
      </trkpt>
      <trkpt lat="47.49192" lon="6.76497">
        <ele>316</ele>
        <time>2016-06-12T07:08:48.000Z</time>
      </trkpt>
      <trkpt lat="47.49188" lon="6.76497">
        <ele>316</ele>
        <time>2016-06-12T07:08:49.000Z</time>
      </trkpt>
      <trkpt lat="47.49183" lon="6.765">
        <ele>315</ele>
        <time>2016-06-12T07:08:52.000Z</time>
      </trkpt>
      <trkpt lat="47.49183" lon="6.765">
        <ele>315</ele>
        <time>2016-06-12T07:08:53.000Z</time>
      </trkpt>
      <trkpt lat="47.4918" lon="6.76503">
        <ele>315</ele>
        <time>2016-06-12T07:08:55.000Z</time>
      </trkpt>
      <trkpt lat="47.49179" lon="6.76505">
        <ele>315</ele>
        <time>2016-06-12T07:08:56.000Z</time>
      </trkpt>
      <trkpt lat="47.49175" lon="6.76508">
        <ele>314</ele>
        <time>2016-06-12T07:08:58.000Z</time>
      </trkpt>
      <trkpt lat="47.49173" lon="6.76509">
        <ele>314</ele>
        <time>2016-06-12T07:08:59.000Z</time>
      </trkpt>
      <trkpt lat="47.4917" lon="6.76511">
        <ele>314</ele>
        <time>2016-06-12T07:09:00.000Z</time>
      </trkpt>
      <trkpt lat="47.49166" lon="6.76513">
        <ele>314</ele>
        <time>2016-06-12T07:09:01.000Z</time>
      </trkpt>
      <trkpt lat="47.49157" lon="6.76519">
        <ele>315</ele>
        <time>2016-06-12T07:09:02.000Z</time>
      </trkpt>
      <trkpt lat="47.49151" lon="6.76523">
        <ele>315</ele>
        <time>2016-06-12T07:09:03.000Z</time>
      </trkpt>
      <trkpt lat="47.49145" lon="6.76525">
        <ele>315</ele>
        <time>2016-06-12T07:09:04.000Z</time>
      </trkpt>
      <trkpt lat="47.49139" lon="6.76526">
        <ele>315</ele>
        <time>2016-06-12T07:09:05.000Z</time>
      </trkpt>
      <trkpt lat="47.49133" lon="6.76526">
        <ele>316</ele>
        <time>2016-06-12T07:09:06.000Z</time>
      </trkpt>
      <trkpt lat="47.49127" lon="6.76525">
        <ele>316</ele>
        <time>2016-06-12T07:09:07.000Z</time>
      </trkpt>
      <trkpt lat="47.49123" lon="6.7652">
        <ele>316</ele>
        <time>2016-06-12T07:09:08.000Z</time>
      </trkpt>
      <trkpt lat="47.49121" lon="6.76514">
        <ele>316</ele>
        <time>2016-06-12T07:09:09.000Z</time>
      </trkpt>
      <trkpt lat="47.4912" lon="6.7651">
        <ele>316</ele>
        <time>2016-06-12T07:09:10.000Z</time>
      </trkpt>
      <trkpt lat="47.4912" lon="6.76504">
        <ele>317</ele>
        <time>2016-06-12T07:09:11.000Z</time>
      </trkpt>
      <trkpt lat="47.4912" lon="6.76499">
        <ele>317</ele>
        <time>2016-06-12T07:09:12.000Z</time>
      </trkpt>
      <trkpt lat="47.4912" lon="6.76494">
        <ele>317</ele>
        <time>2016-06-12T07:09:13.000Z</time>
      </trkpt>
      <trkpt lat="47.49121" lon="6.7649">
        <ele>317</ele>
        <time>2016-06-12T07:09:14.000Z</time>
      </trkpt>
      <trkpt lat="47.4912" lon="6.76485">
        <ele>317</ele>
        <time>2016-06-12T07:09:15.000Z</time>
      </trkpt>
      <trkpt lat="47.49121" lon="6.7648">
        <ele>317</ele>
        <time>2016-06-12T07:09:16.000Z</time>
      </trkpt>
      <trkpt lat="47.49122" lon="6.76476">
        <ele>317</ele>
        <time>2016-06-12T07:09:17.000Z</time>
      </trkpt>
      <trkpt lat="47.49122" lon="6.76471">
        <ele>317</ele>
        <time>2016-06-12T07:09:18.000Z</time>
      </trkpt>
      <trkpt lat="47.49122" lon="6.76467">
        <ele>317</ele>
        <time>2016-06-12T07:09:19.000Z</time>
      </trkpt>
      <trkpt lat="47.49122" lon="6.76462">
        <ele>317</ele>
        <time>2016-06-12T07:09:20.000Z</time>
      </trkpt>
      <trkpt lat="47.49122" lon="6.76458">
        <ele>317</ele>
        <time>2016-06-12T07:09:21.000Z</time>
      </trkpt>
      <trkpt lat="47.49121" lon="6.76453">
        <ele>317</ele>
        <time>2016-06-12T07:09:22.000Z</time>
      </trkpt>
      <trkpt lat="47.49121" lon="6.76449">
        <ele>317</ele>
        <time>2016-06-12T07:09:23.000Z</time>
      </trkpt>
      <trkpt lat="47.49121" lon="6.76445">
        <ele>317</ele>
        <time>2016-06-12T07:09:24.000Z</time>
      </trkpt>
      <trkpt lat="47.49121" lon="6.76441">
        <ele>317</ele>
        <time>2016-06-12T07:09:25.000Z</time>
      </trkpt>
      <trkpt lat="47.4912" lon="6.76437">
        <ele>317</ele>
        <time>2016-06-12T07:09:26.000Z</time>
      </trkpt>
      <trkpt lat="47.49118" lon="6.76431">
        <ele>317</ele>
        <time>2016-06-12T07:09:28.000Z</time>
      </trkpt>
      <trkpt lat="47.49117" lon="6.76431">
        <ele>318</ele>
        <time>2016-06-12T07:09:29.000Z</time>
      </trkpt>
      <trkpt lat="47.49114" lon="6.76431">
        <ele>318</ele>
        <time>2016-06-12T07:09:30.000Z</time>
      </trkpt>
      <trkpt lat="47.49112" lon="6.76431">
        <ele>318</ele>
        <time>2016-06-12T07:09:31.000Z</time>
      </trkpt>
      <trkpt lat="47.49108" lon="6.76433">
        <ele>318</ele>
        <time>2016-06-12T07:09:33.000Z</time>
      </trkpt>
      <trkpt lat="47.49107" lon="6.76434">
        <ele>318</ele>
        <time>2016-06-12T07:09:34.000Z</time>
      </trkpt>
      <trkpt lat="47.49104" lon="6.76432">
        <ele>318</ele>
        <time>2016-06-12T07:09:36.000Z</time>
      </trkpt>
      <trkpt lat="47.49104" lon="6.76429">
        <ele>318</ele>
        <time>2016-06-12T07:09:37.000Z</time>
      </trkpt>
      <trkpt lat="47.49104" lon="6.76424">
        <ele>319</ele>
        <time>2016-06-12T07:09:38.000Z</time>
      </trkpt>
      <trkpt lat="47.49104" lon="6.76419">
        <ele>319</ele>
        <time>2016-06-12T07:09:39.000Z</time>
      </trkpt>
      <trkpt lat="47.49104" lon="6.76415">
        <ele>319</ele>
        <time>2016-06-12T07:09:40.000Z</time>
      </trkpt>
      <trkpt lat="47.49105" lon="6.76411">
        <ele>319</ele>
        <time>2016-06-12T07:09:41.000Z</time>
      </trkpt>
      <trkpt lat="47.49105" lon="6.76405">
        <ele>319</ele>
        <time>2016-06-12T07:09:43.000Z</time>
      </trkpt>
      <trkpt lat="47.49106" lon="6.76402">
        <ele>319</ele>
        <time>2016-06-12T07:09:44.000Z</time>
      </trkpt>
      <trkpt lat="47.49106" lon="6.76398">
        <ele>319</ele>
        <time>2016-06-12T07:09:45.000Z</time>
      </trkpt>
      <trkpt lat="47.49106" lon="6.76394">
        <ele>319</ele>
        <time>2016-06-12T07:09:46.000Z</time>
      </trkpt>
      <trkpt lat="47.49106" lon="6.7639">
        <ele>319</ele>
        <time>2016-06-12T07:09:47.000Z</time>
      </trkpt>
      <trkpt lat="47.49106" lon="6.76386">
        <ele>319</ele>
        <time>2016-06-12T07:09:48.000Z</time>
      </trkpt>
      <trkpt lat="47.49106" lon="6.76382">
        <ele>319</ele>
        <time>2016-06-12T07:09:49.000Z</time>
      </trkpt>
      <trkpt lat="47.49105" lon="6.76378">
        <ele>319</ele>
        <time>2016-06-12T07:09:50.000Z</time>
      </trkpt>
      <trkpt lat="47.49104" lon="6.76375">
        <ele>319</ele>
        <time>2016-06-12T07:09:51.000Z</time>
      </trkpt>
      <trkpt lat="47.49103" lon="6.76371">
        <ele>319</ele>
        <time>2016-06-12T07:09:52.000Z</time>
      </trkpt>
      <trkpt lat="47.49102" lon="6.76368">
        <ele>319</ele>
        <time>2016-06-12T07:09:53.000Z</time>
      </trkpt>
      <trkpt lat="47.49101" lon="6.76365">
        <ele>319</ele>
        <time>2016-06-12T07:09:54.000Z</time>
      </trkpt>
      <trkpt lat="47.49099" lon="6.76361">
        <ele>319</ele>
        <time>2016-06-12T07:09:55.000Z</time>
      </trkpt>
      <trkpt lat="47.49098" lon="6.76358">
        <ele>319</ele>
        <time>2016-06-12T07:09:56.000Z</time>
      </trkpt>
      <trkpt lat="47.49097" lon="6.76354">
        <ele>320</ele>
        <time>2016-06-12T07:09:57.000Z</time>
      </trkpt>
      <trkpt lat="47.49096" lon="6.7635">
        <ele>320</ele>
        <time>2016-06-12T07:09:58.000Z</time>
      </trkpt>
      <trkpt lat="47.49096" lon="6.76345">
        <ele>320</ele>
        <time>2016-06-12T07:09:59.000Z</time>
      </trkpt>
      <trkpt lat="47.49096" lon="6.7634">
        <ele>321</ele>
        <time>2016-06-12T07:10:00.000Z</time>
      </trkpt>
      <trkpt lat="47.49096" lon="6.76335">
        <ele>321</ele>
        <time>2016-06-12T07:10:01.000Z</time>
      </trkpt>
      <trkpt lat="47.49096" lon="6.76331">
        <ele>322</ele>
        <time>2016-06-12T07:10:02.000Z</time>
      </trkpt>
      <trkpt lat="47.49095" lon="6.76325">
        <ele>321</ele>
        <time>2016-06-12T07:10:03.000Z</time>
      </trkpt>
      <trkpt lat="47.49095" lon="6.7632">
        <ele>321</ele>
        <time>2016-06-12T07:10:04.000Z</time>
      </trkpt>
      <trkpt lat="47.49094" lon="6.76315">
        <ele>321</ele>
        <time>2016-06-12T07:10:05.000Z</time>
      </trkpt>
      <trkpt lat="47.49094" lon="6.7631">
        <ele>321</ele>
        <time>2016-06-12T07:10:06.000Z</time>
      </trkpt>
      <trkpt lat="47.49093" lon="6.76306">
        <ele>321</ele>
        <time>2016-06-12T07:10:07.000Z</time>
      </trkpt>
      <trkpt lat="47.49093" lon="6.76302">
        <ele>321</ele>
        <time>2016-06-12T07:10:08.000Z</time>
      </trkpt>
      <trkpt lat="47.49092" lon="6.76298">
        <ele>321</ele>
        <time>2016-06-12T07:10:09.000Z</time>
      </trkpt>
      <trkpt lat="47.49091" lon="6.76294">
        <ele>321</ele>
        <time>2016-06-12T07:10:10.000Z</time>
      </trkpt>
      <trkpt lat="47.4909" lon="6.76291">
        <ele>321</ele>
        <time>2016-06-12T07:10:11.000Z</time>
      </trkpt>
      <trkpt lat="47.49089" lon="6.76287">
        <ele>321</ele>
        <time>2016-06-12T07:10:12.000Z</time>
      </trkpt>
      <trkpt lat="47.49088" lon="6.76282">
        <ele>321</ele>
        <time>2016-06-12T07:10:13.000Z</time>
      </trkpt>
      <trkpt lat="47.49087" lon="6.76277">
        <ele>322</ele>
        <time>2016-06-12T07:10:14.000Z</time>
      </trkpt>
      <trkpt lat="47.49088" lon="6.76273">
        <ele>322</ele>
        <time>2016-06-12T07:10:15.000Z</time>
      </trkpt>
      <trkpt lat="47.49088" lon="6.76268">
        <ele>322</ele>
        <time>2016-06-12T07:10:16.000Z</time>
      </trkpt>
      <trkpt lat="47.49088" lon="6.76264">
        <ele>323</ele>
        <time>2016-06-12T07:10:17.000Z</time>
      </trkpt>
      <trkpt lat="47.49089" lon="6.76259">
        <ele>323</ele>
        <time>2016-06-12T07:10:18.000Z</time>
      </trkpt>
      <trkpt lat="47.4909" lon="6.76254">
        <ele>324</ele>
        <time>2016-06-12T07:10:19.000Z</time>
      </trkpt>
      <trkpt lat="47.4909" lon="6.76249">
        <ele>324</ele>
        <time>2016-06-12T07:10:20.000Z</time>
      </trkpt>
      <trkpt lat="47.49091" lon="6.76243">
        <ele>324</ele>
        <time>2016-06-12T07:10:21.000Z</time>
      </trkpt>
      <trkpt lat="47.49091" lon="6.76238">
        <ele>323</ele>
        <time>2016-06-12T07:10:22.000Z</time>
      </trkpt>
      <trkpt lat="47.49092" lon="6.76233">
        <ele>323</ele>
        <time>2016-06-12T07:10:23.000Z</time>
      </trkpt>
      <trkpt lat="47.49092" lon="6.76228">
        <ele>323</ele>
        <time>2016-06-12T07:10:24.000Z</time>
      </trkpt>
      <trkpt lat="47.49092" lon="6.76223">
        <ele>322</ele>
        <time>2016-06-12T07:10:25.000Z</time>
      </trkpt>
      <trkpt lat="47.49092" lon="6.76218">
        <ele>322</ele>
        <time>2016-06-12T07:10:26.000Z</time>
      </trkpt>
      <trkpt lat="47.49091" lon="6.76214">
        <ele>322</ele>
        <time>2016-06-12T07:10:27.000Z</time>
      </trkpt>
      <trkpt lat="47.4909" lon="6.7621">
        <ele>322</ele>
        <time>2016-06-12T07:10:28.000Z</time>
      </trkpt>
      <trkpt lat="47.49089" lon="6.76206">
        <ele>322</ele>
        <time>2016-06-12T07:10:29.000Z</time>
      </trkpt>
      <trkpt lat="47.49089" lon="6.76203">
        <ele>322</ele>
        <time>2016-06-12T07:10:30.000Z</time>
      </trkpt>
      <trkpt lat="47.49088" lon="6.76199">
        <ele>322</ele>
        <time>2016-06-12T07:10:31.000Z</time>
      </trkpt>
      <trkpt lat="47.49088" lon="6.76196">
        <ele>322</ele>
        <time>2016-06-12T07:10:32.000Z</time>
      </trkpt>
      <trkpt lat="47.49088" lon="6.76192">
        <ele>322</ele>
        <time>2016-06-12T07:10:33.000Z</time>
      </trkpt>
      <trkpt lat="47.49088" lon="6.76188">
        <ele>323</ele>
        <time>2016-06-12T07:10:34.000Z</time>
      </trkpt>
      <trkpt lat="47.49088" lon="6.76184">
        <ele>323</ele>
        <time>2016-06-12T07:10:35.000Z</time>
      </trkpt>
      <trkpt lat="47.49089" lon="6.76179">
        <ele>323</ele>
        <time>2016-06-12T07:10:36.000Z</time>
      </trkpt>
      <trkpt lat="47.49089" lon="6.76175">
        <ele>323</ele>
        <time>2016-06-12T07:10:37.000Z</time>
      </trkpt>
      <trkpt lat="47.49089" lon="6.7617">
        <ele>323</ele>
        <time>2016-06-12T07:10:38.000Z</time>
      </trkpt>
      <trkpt lat="47.49089" lon="6.76165">
        <ele>324</ele>
        <time>2016-06-12T07:10:39.000Z</time>
      </trkpt>
      <trkpt lat="47.49089" lon="6.76161">
        <ele>324</ele>
        <time>2016-06-12T07:10:40.000Z</time>
      </trkpt>
      <trkpt lat="47.4909" lon="6.76156">
        <ele>323</ele>
        <time>2016-06-12T07:10:41.000Z</time>
      </trkpt>
      <trkpt lat="47.4909" lon="6.76151">
        <ele>323</ele>
        <time>2016-06-12T07:10:42.000Z</time>
      </trkpt>
      <trkpt lat="47.4909" lon="6.76146">
        <ele>323</ele>
        <time>2016-06-12T07:10:43.000Z</time>
      </trkpt>
      <trkpt lat="47.4909" lon="6.76142">
        <ele>323</ele>
        <time>2016-06-12T07:10:44.000Z</time>
      </trkpt>
      <trkpt lat="47.4909" lon="6.76138">
        <ele>323</ele>
        <time>2016-06-12T07:10:45.000Z</time>
      </trkpt>
      <trkpt lat="47.4909" lon="6.76134">
        <ele>323</ele>
        <time>2016-06-12T07:10:46.000Z</time>
      </trkpt>
      <trkpt lat="47.49091" lon="6.7613">
        <ele>323</ele>
        <time>2016-06-12T07:10:47.000Z</time>
      </trkpt>
      <trkpt lat="47.49091" lon="6.76126">
        <ele>324</ele>
        <time>2016-06-12T07:10:48.000Z</time>
      </trkpt>
      <trkpt lat="47.49091" lon="6.76122">
        <ele>324</ele>
        <time>2016-06-12T07:10:49.000Z</time>
      </trkpt>
      <trkpt lat="47.4909" lon="6.76118">
        <ele>324</ele>
        <time>2016-06-12T07:10:50.000Z</time>
      </trkpt>
      <trkpt lat="47.4909" lon="6.76114">
        <ele>324</ele>
        <time>2016-06-12T07:10:51.000Z</time>
      </trkpt>
      <trkpt lat="47.49091" lon="6.7611">
        <ele>324</ele>
        <time>2016-06-12T07:10:52.000Z</time>
      </trkpt>
      <trkpt lat="47.49091" lon="6.76106">
        <ele>324</ele>
        <time>2016-06-12T07:10:53.000Z</time>
      </trkpt>
      <trkpt lat="47.49092" lon="6.76102">
        <ele>325</ele>
        <time>2016-06-12T07:10:54.000Z</time>
      </trkpt>
      <trkpt lat="47.49093" lon="6.76098">
        <ele>325</ele>
        <time>2016-06-12T07:10:55.000Z</time>
      </trkpt>
      <trkpt lat="47.49094" lon="6.76094">
        <ele>325</ele>
        <time>2016-06-12T07:10:56.000Z</time>
      </trkpt>
      <trkpt lat="47.49094" lon="6.7609">
        <ele>326</ele>
        <time>2016-06-12T07:10:57.000Z</time>
      </trkpt>
      <trkpt lat="47.49095" lon="6.76086">
        <ele>326</ele>
        <time>2016-06-12T07:10:58.000Z</time>
      </trkpt>
      <trkpt lat="47.49096" lon="6.76081">
        <ele>327</ele>
        <time>2016-06-12T07:10:59.000Z</time>
      </trkpt>
      <trkpt lat="47.49097" lon="6.76077">
        <ele>326</ele>
        <time>2016-06-12T07:11:00.000Z</time>
      </trkpt>
      <trkpt lat="47.49097" lon="6.76073">
        <ele>326</ele>
        <time>2016-06-12T07:11:01.000Z</time>
      </trkpt>
      <trkpt lat="47.49098" lon="6.76068">
        <ele>326</ele>
        <time>2016-06-12T07:11:02.000Z</time>
      </trkpt>
      <trkpt lat="47.49099" lon="6.76064">
        <ele>326</ele>
        <time>2016-06-12T07:11:03.000Z</time>
      </trkpt>
      <trkpt lat="47.491" lon="6.76059">
        <ele>326</ele>
        <time>2016-06-12T07:11:04.000Z</time>
      </trkpt>
      <trkpt lat="47.49101" lon="6.76055">
        <ele>326</ele>
        <time>2016-06-12T07:11:05.000Z</time>
      </trkpt>
      <trkpt lat="47.49102" lon="6.76051">
        <ele>326</ele>
        <time>2016-06-12T07:11:06.000Z</time>
      </trkpt>
      <trkpt lat="47.49102" lon="6.76047">
        <ele>326</ele>
        <time>2016-06-12T07:11:07.000Z</time>
      </trkpt>
      <trkpt lat="47.49103" lon="6.76043">
        <ele>326</ele>
        <time>2016-06-12T07:11:08.000Z</time>
      </trkpt>
      <trkpt lat="47.49103" lon="6.7604">
        <ele>326</ele>
        <time>2016-06-12T07:11:09.000Z</time>
      </trkpt>
      <trkpt lat="47.49104" lon="6.76036">
        <ele>326</ele>
        <time>2016-06-12T07:11:10.000Z</time>
      </trkpt>
      <trkpt lat="47.49104" lon="6.76033">
        <ele>326</ele>
        <time>2016-06-12T07:11:11.000Z</time>
      </trkpt>
      <trkpt lat="47.49104" lon="6.76028">
        <ele>327</ele>
        <time>2016-06-12T07:11:12.000Z</time>
      </trkpt>
      <trkpt lat="47.49104" lon="6.76023">
        <ele>327</ele>
        <time>2016-06-12T07:11:13.000Z</time>
      </trkpt>
      <trkpt lat="47.49105" lon="6.76018">
        <ele>327</ele>
        <time>2016-06-12T07:11:14.000Z</time>
      </trkpt>
      <trkpt lat="47.49105" lon="6.76013">
        <ele>327</ele>
        <time>2016-06-12T07:11:15.000Z</time>
      </trkpt>
      <trkpt lat="47.49105" lon="6.76008">
        <ele>328</ele>
        <time>2016-06-12T07:11:16.000Z</time>
      </trkpt>
      <trkpt lat="47.49106" lon="6.76003">
        <ele>328</ele>
        <time>2016-06-12T07:11:17.000Z</time>
      </trkpt>
      <trkpt lat="47.49106" lon="6.75999">
        <ele>330</ele>
        <time>2016-06-12T07:11:18.000Z</time>
      </trkpt>
      <trkpt lat="47.49107" lon="6.75994">
        <ele>330</ele>
        <time>2016-06-12T07:11:19.000Z</time>
      </trkpt>
      <trkpt lat="47.49108" lon="6.75989">
        <ele>329</ele>
        <time>2016-06-12T07:11:20.000Z</time>
      </trkpt>
      <trkpt lat="47.4911" lon="6.75984">
        <ele>329</ele>
        <time>2016-06-12T07:11:21.000Z</time>
      </trkpt>
      <trkpt lat="47.49112" lon="6.75979">
        <ele>329</ele>
        <time>2016-06-12T07:11:22.000Z</time>
      </trkpt>
      <trkpt lat="47.49114" lon="6.75973">
        <ele>329</ele>
        <time>2016-06-12T07:11:23.000Z</time>
      </trkpt>
      <trkpt lat="47.49116" lon="6.75968">
        <ele>329</ele>
        <time>2016-06-12T07:11:24.000Z</time>
      </trkpt>
      <trkpt lat="47.49117" lon="6.75963">
        <ele>329</ele>
        <time>2016-06-12T07:11:25.000Z</time>
      </trkpt>
      <trkpt lat="47.49119" lon="6.75958">
        <ele>329</ele>
        <time>2016-06-12T07:11:26.000Z</time>
      </trkpt>
      <trkpt lat="47.4912" lon="6.75954">
        <ele>329</ele>
        <time>2016-06-12T07:11:27.000Z</time>
      </trkpt>
      <trkpt lat="47.49121" lon="6.7595">
        <ele>329</ele>
        <time>2016-06-12T07:11:28.000Z</time>
      </trkpt>
      <trkpt lat="47.49122" lon="6.75947">
        <ele>329</ele>
        <time>2016-06-12T07:11:29.000Z</time>
      </trkpt>
      <trkpt lat="47.49124" lon="6.75943">
        <ele>329</ele>
        <time>2016-06-12T07:11:30.000Z</time>
      </trkpt>
      <trkpt lat="47.49125" lon="6.7594">
        <ele>329</ele>
        <time>2016-06-12T07:11:31.000Z</time>
      </trkpt>
      <trkpt lat="47.49126" lon="6.75936">
        <ele>329</ele>
        <time>2016-06-12T07:11:32.000Z</time>
      </trkpt>
      <trkpt lat="47.49127" lon="6.75932">
        <ele>329</ele>
        <time>2016-06-12T07:11:33.000Z</time>
      </trkpt>
      <trkpt lat="47.49128" lon="6.75929">
        <ele>329</ele>
        <time>2016-06-12T07:11:34.000Z</time>
      </trkpt>
      <trkpt lat="47.49129" lon="6.75925">
        <ele>328</ele>
        <time>2016-06-12T07:11:35.000Z</time>
      </trkpt>
      <trkpt lat="47.49131" lon="6.75921">
        <ele>328</ele>
        <time>2016-06-12T07:11:36.000Z</time>
      </trkpt>
      <trkpt lat="47.49132" lon="6.75917">
        <ele>328</ele>
        <time>2016-06-12T07:11:37.000Z</time>
      </trkpt>
      <trkpt lat="47.49133" lon="6.75913">
        <ele>331</ele>
        <time>2016-06-12T07:11:38.000Z</time>
      </trkpt>
      <trkpt lat="47.49134" lon="6.75908">
        <ele>331</ele>
        <time>2016-06-12T07:11:39.000Z</time>
      </trkpt>
      <trkpt lat="47.49135" lon="6.75904">
        <ele>331</ele>
        <time>2016-06-12T07:11:40.000Z</time>
      </trkpt>
      <trkpt lat="47.49136" lon="6.759">
        <ele>331</ele>
        <time>2016-06-12T07:11:41.000Z</time>
      </trkpt>
      <trkpt lat="47.49137" lon="6.75896">
        <ele>331</ele>
        <time>2016-06-12T07:11:42.000Z</time>
      </trkpt>
      <trkpt lat="47.49138" lon="6.75892">
        <ele>331</ele>
        <time>2016-06-12T07:11:43.000Z</time>
      </trkpt>
      <trkpt lat="47.4914" lon="6.75887">
        <ele>331</ele>
        <time>2016-06-12T07:11:44.000Z</time>
      </trkpt>
      <trkpt lat="47.49141" lon="6.75882">
        <ele>331</ele>
        <time>2016-06-12T07:11:45.000Z</time>
      </trkpt>
      <trkpt lat="47.49142" lon="6.75878">
        <ele>331</ele>
        <time>2016-06-12T07:11:46.000Z</time>
      </trkpt>
      <trkpt lat="47.49144" lon="6.75874">
        <ele>331</ele>
        <time>2016-06-12T07:11:47.000Z</time>
      </trkpt>
      <trkpt lat="47.49145" lon="6.75869">
        <ele>331</ele>
        <time>2016-06-12T07:11:48.000Z</time>
      </trkpt>
      <trkpt lat="47.49147" lon="6.75864">
        <ele>331</ele>
        <time>2016-06-12T07:11:49.000Z</time>
      </trkpt>
      <trkpt lat="47.49149" lon="6.75859">
        <ele>331</ele>
        <time>2016-06-12T07:11:50.000Z</time>
      </trkpt>
      <trkpt lat="47.4915" lon="6.75854">
        <ele>331</ele>
        <time>2016-06-12T07:11:51.000Z</time>
      </trkpt>
      <trkpt lat="47.49152" lon="6.75849">
        <ele>330</ele>
        <time>2016-06-12T07:11:52.000Z</time>
      </trkpt>
      <trkpt lat="47.49154" lon="6.75843">
        <ele>329</ele>
        <time>2016-06-12T07:11:53.000Z</time>
      </trkpt>
      <trkpt lat="47.49156" lon="6.75837">
        <ele>329</ele>
        <time>2016-06-12T07:11:54.000Z</time>
      </trkpt>
      <trkpt lat="47.49158" lon="6.75831">
        <ele>330</ele>
        <time>2016-06-12T07:11:55.000Z</time>
      </trkpt>
      <trkpt lat="47.49159" lon="6.75826">
        <ele>330</ele>
        <time>2016-06-12T07:11:56.000Z</time>
      </trkpt>
      <trkpt lat="47.49162" lon="6.75821">
        <ele>331</ele>
        <time>2016-06-12T07:11:57.000Z</time>
      </trkpt>
      <trkpt lat="47.49164" lon="6.75817">
        <ele>332</ele>
        <time>2016-06-12T07:11:58.000Z</time>
      </trkpt>
      <trkpt lat="47.49166" lon="6.75813">
        <ele>333</ele>
        <time>2016-06-12T07:11:59.000Z</time>
      </trkpt>
      <trkpt lat="47.49167" lon="6.75808">
        <ele>325</ele>
        <time>2016-06-12T07:12:00.000Z</time>
      </trkpt>
      <trkpt lat="47.49169" lon="6.75803">
        <ele>325</ele>
        <time>2016-06-12T07:12:01.000Z</time>
      </trkpt>
      <trkpt lat="47.49171" lon="6.75798">
        <ele>325</ele>
        <time>2016-06-12T07:12:02.000Z</time>
      </trkpt>
      <trkpt lat="47.49173" lon="6.75792">
        <ele>326</ele>
        <time>2016-06-12T07:12:03.000Z</time>
      </trkpt>
      <trkpt lat="47.49174" lon="6.75786">
        <ele>326</ele>
        <time>2016-06-12T07:12:04.000Z</time>
      </trkpt>
      <trkpt lat="47.49175" lon="6.7578">
        <ele>327</ele>
        <time>2016-06-12T07:12:05.000Z</time>
      </trkpt>
      <trkpt lat="47.49176" lon="6.75772">
        <ele>328</ele>
        <time>2016-06-12T07:12:06.000Z</time>
      </trkpt>
      <trkpt lat="47.49177" lon="6.75765">
        <ele>329</ele>
        <time>2016-06-12T07:12:07.000Z</time>
      </trkpt>
      <trkpt lat="47.49178" lon="6.75758">
        <ele>330</ele>
        <time>2016-06-12T07:12:08.000Z</time>
      </trkpt>
      <trkpt lat="47.4918" lon="6.75752">
        <ele>330</ele>
        <time>2016-06-12T07:12:09.000Z</time>
      </trkpt>
      <trkpt lat="47.49181" lon="6.75746">
        <ele>333</ele>
        <time>2016-06-12T07:12:10.000Z</time>
      </trkpt>
      <trkpt lat="47.49183" lon="6.75741">
        <ele>333</ele>
        <time>2016-06-12T07:12:11.000Z</time>
      </trkpt>
      <trkpt lat="47.49185" lon="6.75737">
        <ele>333</ele>
        <time>2016-06-12T07:12:12.000Z</time>
      </trkpt>
      <trkpt lat="47.49187" lon="6.75732">
        <ele>333</ele>
        <time>2016-06-12T07:12:13.000Z</time>
      </trkpt>
      <trkpt lat="47.49189" lon="6.75728">
        <ele>332</ele>
        <time>2016-06-12T07:12:14.000Z</time>
      </trkpt>
      <trkpt lat="47.49191" lon="6.75724">
        <ele>332</ele>
        <time>2016-06-12T07:12:15.000Z</time>
      </trkpt>
      <trkpt lat="47.49193" lon="6.7572">
        <ele>332</ele>
        <time>2016-06-12T07:12:16.000Z</time>
      </trkpt>
      <trkpt lat="47.49194" lon="6.75716">
        <ele>332</ele>
        <time>2016-06-12T07:12:17.000Z</time>
      </trkpt>
      <trkpt lat="47.49196" lon="6.75712">
        <ele>332</ele>
        <time>2016-06-12T07:12:18.000Z</time>
      </trkpt>
      <trkpt lat="47.49198" lon="6.75709">
        <ele>333</ele>
        <time>2016-06-12T07:12:19.000Z</time>
      </trkpt>
      <trkpt lat="47.49199" lon="6.75705">
        <ele>333</ele>
        <time>2016-06-12T07:12:20.000Z</time>
      </trkpt>
      <trkpt lat="47.492" lon="6.757">
        <ele>333</ele>
        <time>2016-06-12T07:12:21.000Z</time>
      </trkpt>
      <trkpt lat="47.49201" lon="6.75695">
        <ele>333</ele>
        <time>2016-06-12T07:12:22.000Z</time>
      </trkpt>
      <trkpt lat="47.49203" lon="6.75691">
        <ele>333</ele>
        <time>2016-06-12T07:12:23.000Z</time>
      </trkpt>
      <trkpt lat="47.49204" lon="6.75686">
        <ele>333</ele>
        <time>2016-06-12T07:12:24.000Z</time>
      </trkpt>
      <trkpt lat="47.49205" lon="6.75682">
        <ele>333</ele>
        <time>2016-06-12T07:12:25.000Z</time>
      </trkpt>
      <trkpt lat="47.49206" lon="6.75678">
        <ele>333</ele>
        <time>2016-06-12T07:12:26.000Z</time>
      </trkpt>
      <trkpt lat="47.49207" lon="6.75674">
        <ele>333</ele>
        <time>2016-06-12T07:12:27.000Z</time>
      </trkpt>
      <trkpt lat="47.49207" lon="6.7567">
        <ele>333</ele>
        <time>2016-06-12T07:12:28.000Z</time>
      </trkpt>
      <trkpt lat="47.49208" lon="6.75666">
        <ele>338</ele>
        <time>2016-06-12T07:12:29.000Z</time>
      </trkpt>
      <trkpt lat="47.49209" lon="6.75661">
        <ele>338</ele>
        <time>2016-06-12T07:12:30.000Z</time>
      </trkpt>
      <trkpt lat="47.49211" lon="6.75657">
        <ele>338</ele>
        <time>2016-06-12T07:12:31.000Z</time>
      </trkpt>
      <trkpt lat="47.49212" lon="6.75651">
        <ele>338</ele>
        <time>2016-06-12T07:12:32.000Z</time>
      </trkpt>
      <trkpt lat="47.49212" lon="6.75646">
        <ele>338</ele>
        <time>2016-06-12T07:12:33.000Z</time>
      </trkpt>
      <trkpt lat="47.49213" lon="6.7564">
        <ele>338</ele>
        <time>2016-06-12T07:12:34.000Z</time>
      </trkpt>
      <trkpt lat="47.49215" lon="6.75635">
        <ele>338</ele>
        <time>2016-06-12T07:12:35.000Z</time>
      </trkpt>
      <trkpt lat="47.49216" lon="6.75629">
        <ele>338</ele>
        <time>2016-06-12T07:12:36.000Z</time>
      </trkpt>
      <trkpt lat="47.49218" lon="6.75623">
        <ele>338</ele>
        <time>2016-06-12T07:12:37.000Z</time>
      </trkpt>
      <trkpt lat="47.4922" lon="6.75617">
        <ele>338</ele>
        <time>2016-06-12T07:12:38.000Z</time>
      </trkpt>
      <trkpt lat="47.49222" lon="6.75611">
        <ele>338</ele>
        <time>2016-06-12T07:12:39.000Z</time>
      </trkpt>
      <trkpt lat="47.49224" lon="6.75606">
        <ele>338</ele>
        <time>2016-06-12T07:12:40.000Z</time>
      </trkpt>
      <trkpt lat="47.49226" lon="6.756">
        <ele>338</ele>
        <time>2016-06-12T07:12:41.000Z</time>
      </trkpt>
      <trkpt lat="47.49228" lon="6.75594">
        <ele>338</ele>
        <time>2016-06-12T07:12:42.000Z</time>
      </trkpt>
      <trkpt lat="47.4923" lon="6.75588">
        <ele>337</ele>
        <time>2016-06-12T07:12:43.000Z</time>
      </trkpt>
      <trkpt lat="47.49232" lon="6.75583">
        <ele>341</ele>
        <time>2016-06-12T07:12:44.000Z</time>
      </trkpt>
      <trkpt lat="47.49233" lon="6.75577">
        <ele>340</ele>
        <time>2016-06-12T07:12:45.000Z</time>
      </trkpt>
      <trkpt lat="47.49234" lon="6.75572">
        <ele>341</ele>
        <time>2016-06-12T07:12:46.000Z</time>
      </trkpt>
      <trkpt lat="47.49235" lon="6.75567">
        <ele>341</ele>
        <time>2016-06-12T07:12:47.000Z</time>
      </trkpt>
      <trkpt lat="47.49236" lon="6.75562">
        <ele>342</ele>
        <time>2016-06-12T07:12:48.000Z</time>
      </trkpt>
      <trkpt lat="47.49238" lon="6.75557">
        <ele>342</ele>
        <time>2016-06-12T07:12:49.000Z</time>
      </trkpt>
      <trkpt lat="47.49239" lon="6.75552">
        <ele>343</ele>
        <time>2016-06-12T07:12:50.000Z</time>
      </trkpt>
      <trkpt lat="47.49241" lon="6.75548">
        <ele>343</ele>
        <time>2016-06-12T07:12:51.000Z</time>
      </trkpt>
      <trkpt lat="47.49242" lon="6.75543">
        <ele>343</ele>
        <time>2016-06-12T07:12:52.000Z</time>
      </trkpt>
      <trkpt lat="47.49244" lon="6.75539">
        <ele>343</ele>
        <time>2016-06-12T07:12:53.000Z</time>
      </trkpt>
      <trkpt lat="47.49245" lon="6.75534">
        <ele>343</ele>
        <time>2016-06-12T07:12:54.000Z</time>
      </trkpt>
      <trkpt lat="47.49246" lon="6.75529">
        <ele>343</ele>
        <time>2016-06-12T07:12:55.000Z</time>
      </trkpt>
      <trkpt lat="47.49247" lon="6.75525">
        <ele>343</ele>
        <time>2016-06-12T07:12:56.000Z</time>
      </trkpt>
      <trkpt lat="47.49248" lon="6.7552">
        <ele>343</ele>
        <time>2016-06-12T07:12:57.000Z</time>
      </trkpt>
      <trkpt lat="47.49249" lon="6.75515">
        <ele>342</ele>
        <time>2016-06-12T07:12:58.000Z</time>
      </trkpt>
      <trkpt lat="47.49249" lon="6.75511">
        <ele>342</ele>
        <time>2016-06-12T07:12:59.000Z</time>
      </trkpt>
      <trkpt lat="47.49249" lon="6.75508">
        <ele>341</ele>
        <time>2016-06-12T07:13:00.000Z</time>
      </trkpt>
      <trkpt lat="47.49249" lon="6.75503">
        <ele>340</ele>
        <time>2016-06-12T07:13:01.000Z</time>
      </trkpt>
      <trkpt lat="47.4925" lon="6.75499">
        <ele>340</ele>
        <time>2016-06-12T07:13:02.000Z</time>
      </trkpt>
      <trkpt lat="47.4925" lon="6.75495">
        <ele>338</ele>
        <time>2016-06-12T07:13:03.000Z</time>
      </trkpt>
      <trkpt lat="47.49251" lon="6.7549">
        <ele>338</ele>
        <time>2016-06-12T07:13:04.000Z</time>
      </trkpt>
      <trkpt lat="47.49252" lon="6.75486">
        <ele>337</ele>
        <time>2016-06-12T07:13:05.000Z</time>
      </trkpt>
      <trkpt lat="47.49252" lon="6.75481">
        <ele>337</ele>
        <time>2016-06-12T07:13:06.000Z</time>
      </trkpt>
      <trkpt lat="47.49253" lon="6.75476">
        <ele>337</ele>
        <time>2016-06-12T07:13:07.000Z</time>
      </trkpt>
      <trkpt lat="47.49253" lon="6.75471">
        <ele>337</ele>
        <time>2016-06-12T07:13:08.000Z</time>
      </trkpt>
      <trkpt lat="47.49253" lon="6.75465">
        <ele>337</ele>
        <time>2016-06-12T07:13:09.000Z</time>
      </trkpt>
      <trkpt lat="47.49253" lon="6.75459">
        <ele>337</ele>
        <time>2016-06-12T07:13:10.000Z</time>
      </trkpt>
      <trkpt lat="47.49254" lon="6.75452">
        <ele>338</ele>
        <time>2016-06-12T07:13:11.000Z</time>
      </trkpt>
      <trkpt lat="47.49255" lon="6.75445">
        <ele>338</ele>
        <time>2016-06-12T07:13:12.000Z</time>
      </trkpt>
      <trkpt lat="47.49256" lon="6.75439">
        <ele>339</ele>
        <time>2016-06-12T07:13:13.000Z</time>
      </trkpt>
      <trkpt lat="47.49257" lon="6.75433">
        <ele>339</ele>
        <time>2016-06-12T07:13:14.000Z</time>
      </trkpt>
      <trkpt lat="47.49258" lon="6.75428">
        <ele>340</ele>
        <time>2016-06-12T07:13:15.000Z</time>
      </trkpt>
      <trkpt lat="47.49259" lon="6.75424">
        <ele>341</ele>
        <time>2016-06-12T07:13:16.000Z</time>
      </trkpt>
      <trkpt lat="47.4926" lon="6.7542">
        <ele>341</ele>
        <time>2016-06-12T07:13:17.000Z</time>
      </trkpt>
      <trkpt lat="47.49261" lon="6.75417">
        <ele>342</ele>
        <time>2016-06-12T07:13:18.000Z</time>
      </trkpt>
      <trkpt lat="47.49262" lon="6.75414">
        <ele>342</ele>
        <time>2016-06-12T07:13:19.000Z</time>
      </trkpt>
      <trkpt lat="47.49265" lon="6.75408">
        <ele>341</ele>
        <time>2016-06-12T07:13:21.000Z</time>
      </trkpt>
      <trkpt lat="47.49266" lon="6.75405">
        <ele>341</ele>
        <time>2016-06-12T07:13:22.000Z</time>
      </trkpt>
      <trkpt lat="47.49268" lon="6.75399">
        <ele>340</ele>
        <time>2016-06-12T07:13:24.000Z</time>
      </trkpt>
      <trkpt lat="47.49269" lon="6.75396">
        <ele>340</ele>
        <time>2016-06-12T07:13:25.000Z</time>
      </trkpt>
      <trkpt lat="47.4927" lon="6.75393">
        <ele>340</ele>
        <time>2016-06-12T07:13:26.000Z</time>
      </trkpt>
      <trkpt lat="47.49271" lon="6.75389">
        <ele>340</ele>
        <time>2016-06-12T07:13:27.000Z</time>
      </trkpt>
      <trkpt lat="47.49271" lon="6.75384">
        <ele>340</ele>
        <time>2016-06-12T07:13:28.000Z</time>
      </trkpt>
      <trkpt lat="47.49271" lon="6.7538">
        <ele>340</ele>
        <time>2016-06-12T07:13:29.000Z</time>
      </trkpt>
      <trkpt lat="47.49272" lon="6.75376">
        <ele>340</ele>
        <time>2016-06-12T07:13:30.000Z</time>
      </trkpt>
      <trkpt lat="47.49272" lon="6.75371">
        <ele>340</ele>
        <time>2016-06-12T07:13:31.000Z</time>
      </trkpt>
      <trkpt lat="47.49271" lon="6.75367">
        <ele>340</ele>
        <time>2016-06-12T07:13:32.000Z</time>
      </trkpt>
      <trkpt lat="47.49271" lon="6.75363">
        <ele>341</ele>
        <time>2016-06-12T07:13:33.000Z</time>
      </trkpt>
      <trkpt lat="47.4927" lon="6.75359">
        <ele>341</ele>
        <time>2016-06-12T07:13:34.000Z</time>
      </trkpt>
      <trkpt lat="47.4927" lon="6.75355">
        <ele>341</ele>
        <time>2016-06-12T07:13:35.000Z</time>
      </trkpt>
      <trkpt lat="47.4927" lon="6.75351">
        <ele>341</ele>
        <time>2016-06-12T07:13:36.000Z</time>
      </trkpt>
      <trkpt lat="47.4927" lon="6.75346">
        <ele>342</ele>
        <time>2016-06-12T07:13:37.000Z</time>
      </trkpt>
      <trkpt lat="47.4927" lon="6.75342">
        <ele>342</ele>
        <time>2016-06-12T07:13:38.000Z</time>
      </trkpt>
      <trkpt lat="47.49271" lon="6.75338">
        <ele>342</ele>
        <time>2016-06-12T07:13:39.000Z</time>
      </trkpt>
      <trkpt lat="47.49272" lon="6.75334">
        <ele>342</ele>
        <time>2016-06-12T07:13:40.000Z</time>
      </trkpt>
      <trkpt lat="47.49272" lon="6.75329">
        <ele>343</ele>
        <time>2016-06-12T07:13:41.000Z</time>
      </trkpt>
      <trkpt lat="47.49273" lon="6.75325">
        <ele>342</ele>
        <time>2016-06-12T07:13:42.000Z</time>
      </trkpt>
      <trkpt lat="47.49273" lon="6.7532">
        <ele>342</ele>
        <time>2016-06-12T07:13:43.000Z</time>
      </trkpt>
      <trkpt lat="47.49274" lon="6.75316">
        <ele>342</ele>
        <time>2016-06-12T07:13:44.000Z</time>
      </trkpt>
      <trkpt lat="47.49273" lon="6.75312">
        <ele>342</ele>
        <time>2016-06-12T07:13:45.000Z</time>
      </trkpt>
      <trkpt lat="47.49274" lon="6.75309">
        <ele>342</ele>
        <time>2016-06-12T07:13:46.000Z</time>
      </trkpt>
      <trkpt lat="47.49274" lon="6.75305">
        <ele>342</ele>
        <time>2016-06-12T07:13:47.000Z</time>
      </trkpt>
      <trkpt lat="47.49274" lon="6.75299">
        <ele>342</ele>
        <time>2016-06-12T07:13:49.000Z</time>
      </trkpt>
      <trkpt lat="47.49275" lon="6.75296">
        <ele>341</ele>
        <time>2016-06-12T07:13:50.000Z</time>
      </trkpt>
      <trkpt lat="47.49275" lon="6.7529">
        <ele>341</ele>
        <time>2016-06-12T07:13:52.000Z</time>
      </trkpt>
      <trkpt lat="47.49276" lon="6.75286">
        <ele>341</ele>
        <time>2016-06-12T07:13:53.000Z</time>
      </trkpt>
      <trkpt lat="47.49276" lon="6.7528">
        <ele>342</ele>
        <time>2016-06-12T07:13:55.000Z</time>
      </trkpt>
      <trkpt lat="47.49276" lon="6.75277">
        <ele>342</ele>
        <time>2016-06-12T07:13:56.000Z</time>
      </trkpt>
      <trkpt lat="47.49276" lon="6.75272">
        <ele>342</ele>
        <time>2016-06-12T07:13:58.000Z</time>
      </trkpt>
      <trkpt lat="47.49276" lon="6.75268">
        <ele>342</ele>
        <time>2016-06-12T07:13:59.000Z</time>
      </trkpt>
      <trkpt lat="47.49275" lon="6.75265">
        <ele>342</ele>
        <time>2016-06-12T07:14:00.000Z</time>
      </trkpt>
      <trkpt lat="47.49275" lon="6.75262">
        <ele>343</ele>
        <time>2016-06-12T07:14:01.000Z</time>
      </trkpt>
      <trkpt lat="47.49274" lon="6.75258">
        <ele>343</ele>
        <time>2016-06-12T07:14:02.000Z</time>
      </trkpt>
      <trkpt lat="47.49274" lon="6.75255">
        <ele>343</ele>
        <time>2016-06-12T07:14:03.000Z</time>
      </trkpt>
      <trkpt lat="47.49274" lon="6.75251">
        <ele>343</ele>
        <time>2016-06-12T07:14:04.000Z</time>
      </trkpt>
      <trkpt lat="47.49273" lon="6.75246">
        <ele>345</ele>
        <time>2016-06-12T07:14:05.000Z</time>
      </trkpt>
      <trkpt lat="47.49273" lon="6.75242">
        <ele>345</ele>
        <time>2016-06-12T07:14:06.000Z</time>
      </trkpt>
      <trkpt lat="47.49273" lon="6.75238">
        <ele>345</ele>
        <time>2016-06-12T07:14:07.000Z</time>
      </trkpt>
      <trkpt lat="47.49273" lon="6.75234">
        <ele>345</ele>
        <time>2016-06-12T07:14:08.000Z</time>
      </trkpt>
      <trkpt lat="47.49274" lon="6.75229">
        <ele>345</ele>
        <time>2016-06-12T07:14:09.000Z</time>
      </trkpt>
      <trkpt lat="47.49274" lon="6.75225">
        <ele>344</ele>
        <time>2016-06-12T07:14:10.000Z</time>
      </trkpt>
      <trkpt lat="47.49274" lon="6.75221">
        <ele>344</ele>
        <time>2016-06-12T07:14:11.000Z</time>
      </trkpt>
      <trkpt lat="47.49274" lon="6.75215">
        <ele>345</ele>
        <time>2016-06-12T07:14:12.000Z</time>
      </trkpt>
      <trkpt lat="47.49274" lon="6.7521">
        <ele>345</ele>
        <time>2016-06-12T07:14:13.000Z</time>
      </trkpt>
      <trkpt lat="47.49274" lon="6.75205">
        <ele>345</ele>
        <time>2016-06-12T07:14:14.000Z</time>
      </trkpt>
      <trkpt lat="47.49274" lon="6.752">
        <ele>345</ele>
        <time>2016-06-12T07:14:15.000Z</time>
      </trkpt>
      <trkpt lat="47.49274" lon="6.75195">
        <ele>345</ele>
        <time>2016-06-12T07:14:16.000Z</time>
      </trkpt>
      <trkpt lat="47.49274" lon="6.7519">
        <ele>346</ele>
        <time>2016-06-12T07:14:17.000Z</time>
      </trkpt>
      <trkpt lat="47.49275" lon="6.75186">
        <ele>346</ele>
        <time>2016-06-12T07:14:18.000Z</time>
      </trkpt>
      <trkpt lat="47.49275" lon="6.75182">
        <ele>346</ele>
        <time>2016-06-12T07:14:19.000Z</time>
      </trkpt>
      <trkpt lat="47.49276" lon="6.75178">
        <ele>346</ele>
        <time>2016-06-12T07:14:20.000Z</time>
      </trkpt>
      <trkpt lat="47.49276" lon="6.75174">
        <ele>346</ele>
        <time>2016-06-12T07:14:21.000Z</time>
      </trkpt>
      <trkpt lat="47.49276" lon="6.7517">
        <ele>347</ele>
        <time>2016-06-12T07:14:22.000Z</time>
      </trkpt>
      <trkpt lat="47.49276" lon="6.75166">
        <ele>349</ele>
        <time>2016-06-12T07:14:23.000Z</time>
      </trkpt>
      <trkpt lat="47.49275" lon="6.75162">
        <ele>349</ele>
        <time>2016-06-12T07:14:24.000Z</time>
      </trkpt>
      <trkpt lat="47.49275" lon="6.75158">
        <ele>349</ele>
        <time>2016-06-12T07:14:25.000Z</time>
      </trkpt>
      <trkpt lat="47.49275" lon="6.75153">
        <ele>349</ele>
        <time>2016-06-12T07:14:26.000Z</time>
      </trkpt>
      <trkpt lat="47.49275" lon="6.75149">
        <ele>349</ele>
        <time>2016-06-12T07:14:27.000Z</time>
      </trkpt>
      <trkpt lat="47.49274" lon="6.75144">
        <ele>349</ele>
        <time>2016-06-12T07:14:28.000Z</time>
      </trkpt>
      <trkpt lat="47.49274" lon="6.75139">
        <ele>349</ele>
        <time>2016-06-12T07:14:29.000Z</time>
      </trkpt>
      <trkpt lat="47.49275" lon="6.75134">
        <ele>349</ele>
        <time>2016-06-12T07:14:30.000Z</time>
      </trkpt>
      <trkpt lat="47.49275" lon="6.75129">
        <ele>349</ele>
        <time>2016-06-12T07:14:31.000Z</time>
      </trkpt>
      <trkpt lat="47.49276" lon="6.75125">
        <ele>349</ele>
        <time>2016-06-12T07:14:32.000Z</time>
      </trkpt>
      <trkpt lat="47.49277" lon="6.75121">
        <ele>349</ele>
        <time>2016-06-12T07:14:33.000Z</time>
      </trkpt>
      <trkpt lat="47.49279" lon="6.75117">
        <ele>349</ele>
        <time>2016-06-12T07:14:34.000Z</time>
      </trkpt>
      <trkpt lat="47.4928" lon="6.75113">
        <ele>349</ele>
        <time>2016-06-12T07:14:35.000Z</time>
      </trkpt>
      <trkpt lat="47.49282" lon="6.75108">
        <ele>349</ele>
        <time>2016-06-12T07:14:36.000Z</time>
      </trkpt>
      <trkpt lat="47.49284" lon="6.75103">
        <ele>349</ele>
        <time>2016-06-12T07:14:37.000Z</time>
      </trkpt>
      <trkpt lat="47.49286" lon="6.75098">
        <ele>348</ele>
        <time>2016-06-12T07:14:38.000Z</time>
      </trkpt>
      <trkpt lat="47.49289" lon="6.75093">
        <ele>348</ele>
        <time>2016-06-12T07:14:39.000Z</time>
      </trkpt>
      <trkpt lat="47.49291" lon="6.75088">
        <ele>348</ele>
        <time>2016-06-12T07:14:40.000Z</time>
      </trkpt>
      <trkpt lat="47.49294" lon="6.75083">
        <ele>349</ele>
        <time>2016-06-12T07:14:41.000Z</time>
      </trkpt>
      <trkpt lat="47.49298" lon="6.75077">
        <ele>349</ele>
        <time>2016-06-12T07:14:42.000Z</time>
      </trkpt>
      <trkpt lat="47.49301" lon="6.75072">
        <ele>348</ele>
        <time>2016-06-12T07:14:43.000Z</time>
      </trkpt>
      <trkpt lat="47.49305" lon="6.75068">
        <ele>348</ele>
        <time>2016-06-12T07:14:44.000Z</time>
      </trkpt>
      <trkpt lat="47.49309" lon="6.75063">
        <ele>348</ele>
        <time>2016-06-12T07:14:45.000Z</time>
      </trkpt>
      <trkpt lat="47.49312" lon="6.75059">
        <ele>347</ele>
        <time>2016-06-12T07:14:46.000Z</time>
      </trkpt>
      <trkpt lat="47.49315" lon="6.75055">
        <ele>347</ele>
        <time>2016-06-12T07:14:47.000Z</time>
      </trkpt>
      <trkpt lat="47.49318" lon="6.75051">
        <ele>347</ele>
        <time>2016-06-12T07:14:48.000Z</time>
      </trkpt>
      <trkpt lat="47.4932" lon="6.75046">
        <ele>347</ele>
        <time>2016-06-12T07:14:49.000Z</time>
      </trkpt>
      <trkpt lat="47.49322" lon="6.75042">
        <ele>347</ele>
        <time>2016-06-12T07:14:50.000Z</time>
      </trkpt>
      <trkpt lat="47.49324" lon="6.75037">
        <ele>348</ele>
        <time>2016-06-12T07:14:51.000Z</time>
      </trkpt>
      <trkpt lat="47.49325" lon="6.75033">
        <ele>347</ele>
        <time>2016-06-12T07:14:52.000Z</time>
      </trkpt>
      <trkpt lat="47.49326" lon="6.75029">
        <ele>347</ele>
        <time>2016-06-12T07:14:53.000Z</time>
      </trkpt>
      <trkpt lat="47.49327" lon="6.75025">
        <ele>347</ele>
        <time>2016-06-12T07:14:54.000Z</time>
      </trkpt>
      <trkpt lat="47.49327" lon="6.75021">
        <ele>347</ele>
        <time>2016-06-12T07:14:55.000Z</time>
      </trkpt>
      <trkpt lat="47.49328" lon="6.75015">
        <ele>346</ele>
        <time>2016-06-12T07:14:57.000Z</time>
      </trkpt>
      <trkpt lat="47.49329" lon="6.75012">
        <ele>346</ele>
        <time>2016-06-12T07:14:58.000Z</time>
      </trkpt>
      <trkpt lat="47.49328" lon="6.75006">
        <ele>345</ele>
        <time>2016-06-12T07:15:00.000Z</time>
      </trkpt>
      <trkpt lat="47.49327" lon="6.75003">
        <ele>345</ele>
        <time>2016-06-12T07:15:01.000Z</time>
      </trkpt>
      <trkpt lat="47.49326" lon="6.74998">
        <ele>346</ele>
        <time>2016-06-12T07:15:03.000Z</time>
      </trkpt>
      <trkpt lat="47.49326" lon="6.74996">
        <ele>347</ele>
        <time>2016-06-12T07:15:04.000Z</time>
      </trkpt>
      <trkpt lat="47.49325" lon="6.7499">
        <ele>348</ele>
        <time>2016-06-12T07:15:07.000Z</time>
      </trkpt>
      <trkpt lat="47.49325" lon="6.74988">
        <ele>349</ele>
        <time>2016-06-12T07:15:08.000Z</time>
      </trkpt>
      <trkpt lat="47.49323" lon="6.74983">
        <ele>350</ele>
        <time>2016-06-12T07:15:10.000Z</time>
      </trkpt>
      <trkpt lat="47.49323" lon="6.7498">
        <ele>350</ele>
        <time>2016-06-12T07:15:11.000Z</time>
      </trkpt>
      <trkpt lat="47.49323" lon="6.74974">
        <ele>351</ele>
        <time>2016-06-12T07:15:13.000Z</time>
      </trkpt>
      <trkpt lat="47.49323" lon="6.74971">
        <ele>352</ele>
        <time>2016-06-12T07:15:14.000Z</time>
      </trkpt>
      <trkpt lat="47.49324" lon="6.74964">
        <ele>352</ele>
        <time>2016-06-12T07:15:16.000Z</time>
      </trkpt>
      <trkpt lat="47.49324" lon="6.74961">
        <ele>352</ele>
        <time>2016-06-12T07:15:17.000Z</time>
      </trkpt>
      <trkpt lat="47.49324" lon="6.74956">
        <ele>352</ele>
        <time>2016-06-12T07:15:19.000Z</time>
      </trkpt>
      <trkpt lat="47.49323" lon="6.74953">
        <ele>353</ele>
        <time>2016-06-12T07:15:20.000Z</time>
      </trkpt>
      <trkpt lat="47.49322" lon="6.74947">
        <ele>353</ele>
        <time>2016-06-12T07:15:22.000Z</time>
      </trkpt>
      <trkpt lat="47.49322" lon="6.74944">
        <ele>353</ele>
        <time>2016-06-12T07:15:23.000Z</time>
      </trkpt>
      <trkpt lat="47.49322" lon="6.74938">
        <ele>352</ele>
        <time>2016-06-12T07:15:25.000Z</time>
      </trkpt>
      <trkpt lat="47.49321" lon="6.74935">
        <ele>352</ele>
        <time>2016-06-12T07:15:26.000Z</time>
      </trkpt>
      <trkpt lat="47.49322" lon="6.7493">
        <ele>352</ele>
        <time>2016-06-12T07:15:28.000Z</time>
      </trkpt>
      <trkpt lat="47.49322" lon="6.74927">
        <ele>352</ele>
        <time>2016-06-12T07:15:29.000Z</time>
      </trkpt>
      <trkpt lat="47.49324" lon="6.74925">
        <ele>351</ele>
        <time>2016-06-12T07:15:30.000Z</time>
      </trkpt>
      <trkpt lat="47.49326" lon="6.74922">
        <ele>350</ele>
        <time>2016-06-12T07:15:31.000Z</time>
      </trkpt>
      <trkpt lat="47.49328" lon="6.74919">
        <ele>350</ele>
        <time>2016-06-12T07:15:32.000Z</time>
      </trkpt>
      <trkpt lat="47.4933" lon="6.74915">
        <ele>350</ele>
        <time>2016-06-12T07:15:33.000Z</time>
      </trkpt>
      <trkpt lat="47.49332" lon="6.74911">
        <ele>350</ele>
        <time>2016-06-12T07:15:34.000Z</time>
      </trkpt>
      <trkpt lat="47.49334" lon="6.74906">
        <ele>346</ele>
        <time>2016-06-12T07:15:35.000Z</time>
      </trkpt>
      <trkpt lat="47.49336" lon="6.74901">
        <ele>345</ele>
        <time>2016-06-12T07:15:36.000Z</time>
      </trkpt>
      <trkpt lat="47.49338" lon="6.74895">
        <ele>344</ele>
        <time>2016-06-12T07:15:37.000Z</time>
      </trkpt>
      <trkpt lat="47.49341" lon="6.7489">
        <ele>344</ele>
        <time>2016-06-12T07:15:38.000Z</time>
      </trkpt>
      <trkpt lat="47.49344" lon="6.74885">
        <ele>344</ele>
        <time>2016-06-12T07:15:39.000Z</time>
      </trkpt>
      <trkpt lat="47.49346" lon="6.74881">
        <ele>343</ele>
        <time>2016-06-12T07:15:40.000Z</time>
      </trkpt>
      <trkpt lat="47.49349" lon="6.74878">
        <ele>343</ele>
        <time>2016-06-12T07:15:41.000Z</time>
      </trkpt>
      <trkpt lat="47.49351" lon="6.74875">
        <ele>343</ele>
        <time>2016-06-12T07:15:42.000Z</time>
      </trkpt>
      <trkpt lat="47.49353" lon="6.7487">
        <ele>343</ele>
        <time>2016-06-12T07:15:44.000Z</time>
      </trkpt>
      <trkpt lat="47.49354" lon="6.74868">
        <ele>343</ele>
        <time>2016-06-12T07:15:45.000Z</time>
      </trkpt>
      <trkpt lat="47.49356" lon="6.74865">
        <ele>343</ele>
        <time>2016-06-12T07:15:46.000Z</time>
      </trkpt>
      <trkpt lat="47.49357" lon="6.74862">
        <ele>343</ele>
        <time>2016-06-12T07:15:47.000Z</time>
      </trkpt>
      <trkpt lat="47.49358" lon="6.74859">
        <ele>343</ele>
        <time>2016-06-12T07:15:48.000Z</time>
      </trkpt>
      <trkpt lat="47.4936" lon="6.74856">
        <ele>343</ele>
        <time>2016-06-12T07:15:49.000Z</time>
      </trkpt>
      <trkpt lat="47.49361" lon="6.74853">
        <ele>343</ele>
        <time>2016-06-12T07:15:50.000Z</time>
      </trkpt>
      <trkpt lat="47.49361" lon="6.7485">
        <ele>343</ele>
        <time>2016-06-12T07:15:51.000Z</time>
      </trkpt>
      <trkpt lat="47.49362" lon="6.74846">
        <ele>343</ele>
        <time>2016-06-12T07:15:52.000Z</time>
      </trkpt>
      <trkpt lat="47.49363" lon="6.74841">
        <ele>343</ele>
        <time>2016-06-12T07:15:53.000Z</time>
      </trkpt>
      <trkpt lat="47.49364" lon="6.74836">
        <ele>343</ele>
        <time>2016-06-12T07:15:54.000Z</time>
      </trkpt>
      <trkpt lat="47.49366" lon="6.74831">
        <ele>344</ele>
        <time>2016-06-12T07:15:55.000Z</time>
      </trkpt>
      <trkpt lat="47.49367" lon="6.74826">
        <ele>344</ele>
        <time>2016-06-12T07:15:56.000Z</time>
      </trkpt>
      <trkpt lat="47.49368" lon="6.74822">
        <ele>344</ele>
        <time>2016-06-12T07:15:57.000Z</time>
      </trkpt>
      <trkpt lat="47.49369" lon="6.74817">
        <ele>344</ele>
        <time>2016-06-12T07:15:58.000Z</time>
      </trkpt>
      <trkpt lat="47.4937" lon="6.74812">
        <ele>344</ele>
        <time>2016-06-12T07:15:59.000Z</time>
      </trkpt>
      <trkpt lat="47.49371" lon="6.74807">
        <ele>344</ele>
        <time>2016-06-12T07:16:00.000Z</time>
      </trkpt>
      <trkpt lat="47.49371" lon="6.74801">
        <ele>344</ele>
        <time>2016-06-12T07:16:01.000Z</time>
      </trkpt>
      <trkpt lat="47.49372" lon="6.74796">
        <ele>344</ele>
        <time>2016-06-12T07:16:02.000Z</time>
      </trkpt>
      <trkpt lat="47.49372" lon="6.74791">
        <ele>345</ele>
        <time>2016-06-12T07:16:03.000Z</time>
      </trkpt>
      <trkpt lat="47.49372" lon="6.74786">
        <ele>345</ele>
        <time>2016-06-12T07:16:04.000Z</time>
      </trkpt>
      <trkpt lat="47.49373" lon="6.74781">
        <ele>345</ele>
        <time>2016-06-12T07:16:05.000Z</time>
      </trkpt>
      <trkpt lat="47.49373" lon="6.74776">
        <ele>345</ele>
        <time>2016-06-12T07:16:06.000Z</time>
      </trkpt>
      <trkpt lat="47.49374" lon="6.74771">
        <ele>345</ele>
        <time>2016-06-12T07:16:07.000Z</time>
      </trkpt>
      <trkpt lat="47.49375" lon="6.74767">
        <ele>345</ele>
        <time>2016-06-12T07:16:08.000Z</time>
      </trkpt>
      <trkpt lat="47.49376" lon="6.74762">
        <ele>345</ele>
        <time>2016-06-12T07:16:09.000Z</time>
      </trkpt>
      <trkpt lat="47.49378" lon="6.74758">
        <ele>345</ele>
        <time>2016-06-12T07:16:10.000Z</time>
      </trkpt>
      <trkpt lat="47.49378" lon="6.74753">
        <ele>345</ele>
        <time>2016-06-12T07:16:11.000Z</time>
      </trkpt>
      <trkpt lat="47.49379" lon="6.74749">
        <ele>347</ele>
        <time>2016-06-12T07:16:12.000Z</time>
      </trkpt>
      <trkpt lat="47.49379" lon="6.74745">
        <ele>347</ele>
        <time>2016-06-12T07:16:13.000Z</time>
      </trkpt>
      <trkpt lat="47.49379" lon="6.74741">
        <ele>347</ele>
        <time>2016-06-12T07:16:14.000Z</time>
      </trkpt>
      <trkpt lat="47.49379" lon="6.74736">
        <ele>348</ele>
        <time>2016-06-12T07:16:15.000Z</time>
      </trkpt>
      <trkpt lat="47.49379" lon="6.74731">
        <ele>348</ele>
        <time>2016-06-12T07:16:16.000Z</time>
      </trkpt>
      <trkpt lat="47.49379" lon="6.74726">
        <ele>348</ele>
        <time>2016-06-12T07:16:17.000Z</time>
      </trkpt>
      <trkpt lat="47.49379" lon="6.74721">
        <ele>348</ele>
        <time>2016-06-12T07:16:18.000Z</time>
      </trkpt>
      <trkpt lat="47.49379" lon="6.74716">
        <ele>348</ele>
        <time>2016-06-12T07:16:19.000Z</time>
      </trkpt>
      <trkpt lat="47.49379" lon="6.74712">
        <ele>348</ele>
        <time>2016-06-12T07:16:20.000Z</time>
      </trkpt>
      <trkpt lat="47.49379" lon="6.74708">
        <ele>348</ele>
        <time>2016-06-12T07:16:21.000Z</time>
      </trkpt>
      <trkpt lat="47.49379" lon="6.74703">
        <ele>348</ele>
        <time>2016-06-12T07:16:22.000Z</time>
      </trkpt>
      <trkpt lat="47.49379" lon="6.747">
        <ele>348</ele>
        <time>2016-06-12T07:16:23.000Z</time>
      </trkpt>
      <trkpt lat="47.4938" lon="6.74696">
        <ele>348</ele>
        <time>2016-06-12T07:16:24.000Z</time>
      </trkpt>
      <trkpt lat="47.4938" lon="6.74692">
        <ele>348</ele>
        <time>2016-06-12T07:16:25.000Z</time>
      </trkpt>
      <trkpt lat="47.4938" lon="6.74688">
        <ele>348</ele>
        <time>2016-06-12T07:16:26.000Z</time>
      </trkpt>
      <trkpt lat="47.4938" lon="6.74683">
        <ele>348</ele>
        <time>2016-06-12T07:16:27.000Z</time>
      </trkpt>
      <trkpt lat="47.4938" lon="6.74679">
        <ele>348</ele>
        <time>2016-06-12T07:16:28.000Z</time>
      </trkpt>
      <trkpt lat="47.4938" lon="6.74674">
        <ele>348</ele>
        <time>2016-06-12T07:16:29.000Z</time>
      </trkpt>
      <trkpt lat="47.4938" lon="6.74669">
        <ele>348</ele>
        <time>2016-06-12T07:16:30.000Z</time>
      </trkpt>
      <trkpt lat="47.4938" lon="6.74664">
        <ele>349</ele>
        <time>2016-06-12T07:16:31.000Z</time>
      </trkpt>
      <trkpt lat="47.4938" lon="6.7466">
        <ele>350</ele>
        <time>2016-06-12T07:16:32.000Z</time>
      </trkpt>
      <trkpt lat="47.4938" lon="6.74655">
        <ele>350</ele>
        <time>2016-06-12T07:16:33.000Z</time>
      </trkpt>
      <trkpt lat="47.4938" lon="6.74651">
        <ele>350</ele>
        <time>2016-06-12T07:16:34.000Z</time>
      </trkpt>
      <trkpt lat="47.49381" lon="6.74647">
        <ele>350</ele>
        <time>2016-06-12T07:16:35.000Z</time>
      </trkpt>
      <trkpt lat="47.49381" lon="6.74642">
        <ele>350</ele>
        <time>2016-06-12T07:16:36.000Z</time>
      </trkpt>
      <trkpt lat="47.49382" lon="6.74638">
        <ele>350</ele>
        <time>2016-06-12T07:16:37.000Z</time>
      </trkpt>
      <trkpt lat="47.49383" lon="6.74633">
        <ele>350</ele>
        <time>2016-06-12T07:16:38.000Z</time>
      </trkpt>
      <trkpt lat="47.49383" lon="6.74628">
        <ele>350</ele>
        <time>2016-06-12T07:16:39.000Z</time>
      </trkpt>
      <trkpt lat="47.49384" lon="6.74622">
        <ele>350</ele>
        <time>2016-06-12T07:16:40.000Z</time>
      </trkpt>
      <trkpt lat="47.49385" lon="6.74617">
        <ele>349</ele>
        <time>2016-06-12T07:16:41.000Z</time>
      </trkpt>
      <trkpt lat="47.49385" lon="6.74612">
        <ele>349</ele>
        <time>2016-06-12T07:16:42.000Z</time>
      </trkpt>
      <trkpt lat="47.49385" lon="6.74607">
        <ele>349</ele>
        <time>2016-06-12T07:16:43.000Z</time>
      </trkpt>
      <trkpt lat="47.49385" lon="6.74602">
        <ele>349</ele>
        <time>2016-06-12T07:16:44.000Z</time>
      </trkpt>
      <trkpt lat="47.49386" lon="6.74596">
        <ele>349</ele>
        <time>2016-06-12T07:16:45.000Z</time>
      </trkpt>
      <trkpt lat="47.49386" lon="6.74591">
        <ele>349</ele>
        <time>2016-06-12T07:16:46.000Z</time>
      </trkpt>
      <trkpt lat="47.49385" lon="6.74586">
        <ele>349</ele>
        <time>2016-06-12T07:16:47.000Z</time>
      </trkpt>
      <trkpt lat="47.49385" lon="6.74581">
        <ele>350</ele>
        <time>2016-06-12T07:16:48.000Z</time>
      </trkpt>
      <trkpt lat="47.49384" lon="6.74577">
        <ele>351</ele>
        <time>2016-06-12T07:16:49.000Z</time>
      </trkpt>
      <trkpt lat="47.49384" lon="6.74573">
        <ele>351</ele>
        <time>2016-06-12T07:16:50.000Z</time>
      </trkpt>
      <trkpt lat="47.49384" lon="6.74569">
        <ele>351</ele>
        <time>2016-06-12T07:16:51.000Z</time>
      </trkpt>
      <trkpt lat="47.49383" lon="6.74565">
        <ele>351</ele>
        <time>2016-06-12T07:16:52.000Z</time>
      </trkpt>
      <trkpt lat="47.49384" lon="6.7456">
        <ele>351</ele>
        <time>2016-06-12T07:16:53.000Z</time>
      </trkpt>
      <trkpt lat="47.49384" lon="6.74555">
        <ele>351</ele>
        <time>2016-06-12T07:16:54.000Z</time>
      </trkpt>
      <trkpt lat="47.49384" lon="6.7455">
        <ele>352</ele>
        <time>2016-06-12T07:16:55.000Z</time>
      </trkpt>
      <trkpt lat="47.49385" lon="6.74544">
        <ele>352</ele>
        <time>2016-06-12T07:16:56.000Z</time>
      </trkpt>
      <trkpt lat="47.49386" lon="6.74539">
        <ele>352</ele>
        <time>2016-06-12T07:16:57.000Z</time>
      </trkpt>
      <trkpt lat="47.49386" lon="6.74533">
        <ele>352</ele>
        <time>2016-06-12T07:16:58.000Z</time>
      </trkpt>
      <trkpt lat="47.49387" lon="6.74528">
        <ele>352</ele>
        <time>2016-06-12T07:16:59.000Z</time>
      </trkpt>
      <trkpt lat="47.49388" lon="6.74523">
        <ele>352</ele>
        <time>2016-06-12T07:17:00.000Z</time>
      </trkpt>
      <trkpt lat="47.49388" lon="6.74518">
        <ele>352</ele>
        <time>2016-06-12T07:17:01.000Z</time>
      </trkpt>
      <trkpt lat="47.49389" lon="6.74514">
        <ele>352</ele>
        <time>2016-06-12T07:17:02.000Z</time>
      </trkpt>
      <trkpt lat="47.49389" lon="6.74509">
        <ele>352</ele>
        <time>2016-06-12T07:17:03.000Z</time>
      </trkpt>
      <trkpt lat="47.49389" lon="6.74504">
        <ele>352</ele>
        <time>2016-06-12T07:17:04.000Z</time>
      </trkpt>
      <trkpt lat="47.49389" lon="6.74499">
        <ele>353</ele>
        <time>2016-06-12T07:17:05.000Z</time>
      </trkpt>
      <trkpt lat="47.49389" lon="6.74494">
        <ele>353</ele>
        <time>2016-06-12T07:17:06.000Z</time>
      </trkpt>
      <trkpt lat="47.49389" lon="6.7449">
        <ele>353</ele>
        <time>2016-06-12T07:17:07.000Z</time>
      </trkpt>
      <trkpt lat="47.49389" lon="6.74486">
        <ele>353</ele>
        <time>2016-06-12T07:17:08.000Z</time>
      </trkpt>
      <trkpt lat="47.49388" lon="6.74483">
        <ele>353</ele>
        <time>2016-06-12T07:17:09.000Z</time>
      </trkpt>
      <trkpt lat="47.49388" lon="6.74479">
        <ele>353</ele>
        <time>2016-06-12T07:17:10.000Z</time>
      </trkpt>
      <trkpt lat="47.49387" lon="6.74476">
        <ele>353</ele>
        <time>2016-06-12T07:17:11.000Z</time>
      </trkpt>
      <trkpt lat="47.49386" lon="6.74472">
        <ele>354</ele>
        <time>2016-06-12T07:17:12.000Z</time>
      </trkpt>
      <trkpt lat="47.49385" lon="6.74469">
        <ele>354</ele>
        <time>2016-06-12T07:17:13.000Z</time>
      </trkpt>
      <trkpt lat="47.49384" lon="6.74465">
        <ele>354</ele>
        <time>2016-06-12T07:17:14.000Z</time>
      </trkpt>
      <trkpt lat="47.49383" lon="6.74462">
        <ele>354</ele>
        <time>2016-06-12T07:17:15.000Z</time>
      </trkpt>
      <trkpt lat="47.49382" lon="6.74458">
        <ele>354</ele>
        <time>2016-06-12T07:17:16.000Z</time>
      </trkpt>
      <trkpt lat="47.49382" lon="6.74454">
        <ele>354</ele>
        <time>2016-06-12T07:17:17.000Z</time>
      </trkpt>
      <trkpt lat="47.49382" lon="6.74451">
        <ele>354</ele>
        <time>2016-06-12T07:17:18.000Z</time>
      </trkpt>
      <trkpt lat="47.49382" lon="6.74447">
        <ele>354</ele>
        <time>2016-06-12T07:17:19.000Z</time>
      </trkpt>
      <trkpt lat="47.49382" lon="6.74443">
        <ele>354</ele>
        <time>2016-06-12T07:17:20.000Z</time>
      </trkpt>
      <trkpt lat="47.49382" lon="6.74439">
        <ele>354</ele>
        <time>2016-06-12T07:17:21.000Z</time>
      </trkpt>
      <trkpt lat="47.49382" lon="6.74436">
        <ele>354</ele>
        <time>2016-06-12T07:17:22.000Z</time>
      </trkpt>
      <trkpt lat="47.49382" lon="6.74432">
        <ele>354</ele>
        <time>2016-06-12T07:17:23.000Z</time>
      </trkpt>
      <trkpt lat="47.49383" lon="6.74428">
        <ele>354</ele>
        <time>2016-06-12T07:17:24.000Z</time>
      </trkpt>
      <trkpt lat="47.49384" lon="6.74423">
        <ele>353</ele>
        <time>2016-06-12T07:17:25.000Z</time>
      </trkpt>
      <trkpt lat="47.49384" lon="6.7442">
        <ele>353</ele>
        <time>2016-06-12T07:17:26.000Z</time>
      </trkpt>
      <trkpt lat="47.49385" lon="6.74416">
        <ele>354</ele>
        <time>2016-06-12T07:17:27.000Z</time>
      </trkpt>
      <trkpt lat="47.49386" lon="6.74413">
        <ele>354</ele>
        <time>2016-06-12T07:17:28.000Z</time>
      </trkpt>
      <trkpt lat="47.49386" lon="6.74409">
        <ele>354</ele>
        <time>2016-06-12T07:17:29.000Z</time>
      </trkpt>
      <trkpt lat="47.49387" lon="6.74405">
        <ele>354</ele>
        <time>2016-06-12T07:17:30.000Z</time>
      </trkpt>
      <trkpt lat="47.49387" lon="6.744">
        <ele>354</ele>
        <time>2016-06-12T07:17:31.000Z</time>
      </trkpt>
      <trkpt lat="47.49388" lon="6.74396">
        <ele>354</ele>
        <time>2016-06-12T07:17:32.000Z</time>
      </trkpt>
      <trkpt lat="47.49388" lon="6.74393">
        <ele>354</ele>
        <time>2016-06-12T07:17:33.000Z</time>
      </trkpt>
      <trkpt lat="47.49389" lon="6.74389">
        <ele>354</ele>
        <time>2016-06-12T07:17:34.000Z</time>
      </trkpt>
      <trkpt lat="47.4939" lon="6.74386">
        <ele>354</ele>
        <time>2016-06-12T07:17:35.000Z</time>
      </trkpt>
      <trkpt lat="47.49391" lon="6.7438">
        <ele>354</ele>
        <time>2016-06-12T07:17:37.000Z</time>
      </trkpt>
      <trkpt lat="47.49391" lon="6.74377">
        <ele>354</ele>
        <time>2016-06-12T07:17:38.000Z</time>
      </trkpt>
      <trkpt lat="47.49391" lon="6.74373">
        <ele>354</ele>
        <time>2016-06-12T07:17:40.000Z</time>
      </trkpt>
      <trkpt lat="47.49391" lon="6.7437">
        <ele>354</ele>
        <time>2016-06-12T07:17:41.000Z</time>
      </trkpt>
      <trkpt lat="47.49391" lon="6.74364">
        <ele>354</ele>
        <time>2016-06-12T07:17:43.000Z</time>
      </trkpt>
      <trkpt lat="47.49391" lon="6.7436">
        <ele>353</ele>
        <time>2016-06-12T07:17:44.000Z</time>
      </trkpt>
      <trkpt lat="47.49391" lon="6.74355">
        <ele>353</ele>
        <time>2016-06-12T07:17:45.000Z</time>
      </trkpt>
      <trkpt lat="47.49391" lon="6.74351">
        <ele>353</ele>
        <time>2016-06-12T07:17:46.000Z</time>
      </trkpt>
      <trkpt lat="47.49391" lon="6.74346">
        <ele>353</ele>
        <time>2016-06-12T07:17:47.000Z</time>
      </trkpt>
      <trkpt lat="47.49391" lon="6.74342">
        <ele>353</ele>
        <time>2016-06-12T07:17:48.000Z</time>
      </trkpt>
      <trkpt lat="47.49391" lon="6.74338">
        <ele>353</ele>
        <time>2016-06-12T07:17:49.000Z</time>
      </trkpt>
      <trkpt lat="47.49391" lon="6.74335">
        <ele>353</ele>
        <time>2016-06-12T07:17:50.000Z</time>
      </trkpt>
      <trkpt lat="47.4939" lon="6.74332">
        <ele>353</ele>
        <time>2016-06-12T07:17:51.000Z</time>
      </trkpt>
      <trkpt lat="47.49389" lon="6.74328">
        <ele>353</ele>
        <time>2016-06-12T07:17:52.000Z</time>
      </trkpt>
      <trkpt lat="47.49389" lon="6.74324">
        <ele>354</ele>
        <time>2016-06-12T07:17:53.000Z</time>
      </trkpt>
      <trkpt lat="47.49389" lon="6.7432">
        <ele>354</ele>
        <time>2016-06-12T07:17:54.000Z</time>
      </trkpt>
      <trkpt lat="47.49389" lon="6.74316">
        <ele>354</ele>
        <time>2016-06-12T07:17:55.000Z</time>
      </trkpt>
      <trkpt lat="47.49389" lon="6.74312">
        <ele>354</ele>
        <time>2016-06-12T07:17:56.000Z</time>
      </trkpt>
      <trkpt lat="47.4939" lon="6.74308">
        <ele>354</ele>
        <time>2016-06-12T07:17:57.000Z</time>
      </trkpt>
      <trkpt lat="47.4939" lon="6.74304">
        <ele>354</ele>
        <time>2016-06-12T07:17:58.000Z</time>
      </trkpt>
      <trkpt lat="47.4939" lon="6.743">
        <ele>354</ele>
        <time>2016-06-12T07:17:59.000Z</time>
      </trkpt>
      <trkpt lat="47.49391" lon="6.74297">
        <ele>354</ele>
        <time>2016-06-12T07:18:00.000Z</time>
      </trkpt>
      <trkpt lat="47.49391" lon="6.74293">
        <ele>354</ele>
        <time>2016-06-12T07:18:01.000Z</time>
      </trkpt>
      <trkpt lat="47.49392" lon="6.74289">
        <ele>354</ele>
        <time>2016-06-12T07:18:02.000Z</time>
      </trkpt>
      <trkpt lat="47.49392" lon="6.74284">
        <ele>354</ele>
        <time>2016-06-12T07:18:03.000Z</time>
      </trkpt>
      <trkpt lat="47.49393" lon="6.7428">
        <ele>354</ele>
        <time>2016-06-12T07:18:04.000Z</time>
      </trkpt>
      <trkpt lat="47.49394" lon="6.74275">
        <ele>353</ele>
        <time>2016-06-12T07:18:05.000Z</time>
      </trkpt>
      <trkpt lat="47.49395" lon="6.74269">
        <ele>353</ele>
        <time>2016-06-12T07:18:06.000Z</time>
      </trkpt>
      <trkpt lat="47.49396" lon="6.74264">
        <ele>352</ele>
        <time>2016-06-12T07:18:07.000Z</time>
      </trkpt>
      <trkpt lat="47.49397" lon="6.74258">
        <ele>352</ele>
        <time>2016-06-12T07:18:08.000Z</time>
      </trkpt>
      <trkpt lat="47.49398" lon="6.74252">
        <ele>351</ele>
        <time>2016-06-12T07:18:09.000Z</time>
      </trkpt>
      <trkpt lat="47.49399" lon="6.74247">
        <ele>351</ele>
        <time>2016-06-12T07:18:10.000Z</time>
      </trkpt>
      <trkpt lat="47.494" lon="6.74242">
        <ele>352</ele>
        <time>2016-06-12T07:18:11.000Z</time>
      </trkpt>
      <trkpt lat="47.494" lon="6.74237">
        <ele>352</ele>
        <time>2016-06-12T07:18:12.000Z</time>
      </trkpt>
      <trkpt lat="47.49401" lon="6.74233">
        <ele>352</ele>
        <time>2016-06-12T07:18:13.000Z</time>
      </trkpt>
      <trkpt lat="47.49402" lon="6.74229">
        <ele>353</ele>
        <time>2016-06-12T07:18:14.000Z</time>
      </trkpt>
      <trkpt lat="47.49402" lon="6.74225">
        <ele>353</ele>
        <time>2016-06-12T07:18:15.000Z</time>
      </trkpt>
      <trkpt lat="47.49403" lon="6.74221">
        <ele>353</ele>
        <time>2016-06-12T07:18:16.000Z</time>
      </trkpt>
      <trkpt lat="47.49404" lon="6.74217">
        <ele>353</ele>
        <time>2016-06-12T07:18:17.000Z</time>
      </trkpt>
      <trkpt lat="47.49404" lon="6.74213">
        <ele>354</ele>
        <time>2016-06-12T07:18:18.000Z</time>
      </trkpt>
      <trkpt lat="47.49405" lon="6.7421">
        <ele>354</ele>
        <time>2016-06-12T07:18:19.000Z</time>
      </trkpt>
      <trkpt lat="47.49407" lon="6.74206">
        <ele>353</ele>
        <time>2016-06-12T07:18:20.000Z</time>
      </trkpt>
      <trkpt lat="47.49408" lon="6.74201">
        <ele>353</ele>
        <time>2016-06-12T07:18:21.000Z</time>
      </trkpt>
      <trkpt lat="47.49409" lon="6.74197">
        <ele>353</ele>
        <time>2016-06-12T07:18:22.000Z</time>
      </trkpt>
      <trkpt lat="47.4941" lon="6.74193">
        <ele>352</ele>
        <time>2016-06-12T07:18:23.000Z</time>
      </trkpt>
      <trkpt lat="47.49411" lon="6.74188">
        <ele>352</ele>
        <time>2016-06-12T07:18:24.000Z</time>
      </trkpt>
      <trkpt lat="47.49413" lon="6.74184">
        <ele>351</ele>
        <time>2016-06-12T07:18:25.000Z</time>
      </trkpt>
      <trkpt lat="47.49414" lon="6.7418">
        <ele>350</ele>
        <time>2016-06-12T07:18:26.000Z</time>
      </trkpt>
      <trkpt lat="47.49415" lon="6.74176">
        <ele>349</ele>
        <time>2016-06-12T07:18:27.000Z</time>
      </trkpt>
      <trkpt lat="47.49415" lon="6.74172">
        <ele>348</ele>
        <time>2016-06-12T07:18:28.000Z</time>
      </trkpt>
      <trkpt lat="47.49416" lon="6.74169">
        <ele>346</ele>
        <time>2016-06-12T07:18:29.000Z</time>
      </trkpt>
      <trkpt lat="47.49416" lon="6.74166">
        <ele>346</ele>
        <time>2016-06-12T07:18:30.000Z</time>
      </trkpt>
      <trkpt lat="47.49416" lon="6.74162">
        <ele>347</ele>
        <time>2016-06-12T07:18:31.000Z</time>
      </trkpt>
      <trkpt lat="47.49416" lon="6.74159">
        <ele>348</ele>
        <time>2016-06-12T07:18:32.000Z</time>
      </trkpt>
      <trkpt lat="47.49416" lon="6.74155">
        <ele>350</ele>
        <time>2016-06-12T07:18:33.000Z</time>
      </trkpt>
      <trkpt lat="47.49416" lon="6.74151">
        <ele>351</ele>
        <time>2016-06-12T07:18:34.000Z</time>
      </trkpt>
      <trkpt lat="47.49415" lon="6.74148">
        <ele>351</ele>
        <time>2016-06-12T07:18:35.000Z</time>
      </trkpt>
      <trkpt lat="47.49415" lon="6.74144">
        <ele>352</ele>
        <time>2016-06-12T07:18:36.000Z</time>
      </trkpt>
      <trkpt lat="47.49414" lon="6.7414">
        <ele>352</ele>
        <time>2016-06-12T07:18:37.000Z</time>
      </trkpt>
      <trkpt lat="47.49413" lon="6.74137">
        <ele>353</ele>
        <time>2016-06-12T07:18:38.000Z</time>
      </trkpt>
      <trkpt lat="47.49413" lon="6.74134">
        <ele>353</ele>
        <time>2016-06-12T07:18:39.000Z</time>
      </trkpt>
      <trkpt lat="47.49412" lon="6.7413">
        <ele>353</ele>
        <time>2016-06-12T07:18:40.000Z</time>
      </trkpt>
      <trkpt lat="47.4941" lon="6.74125">
        <ele>354</ele>
        <time>2016-06-12T07:18:42.000Z</time>
      </trkpt>
      <trkpt lat="47.4941" lon="6.74122">
        <ele>354</ele>
        <time>2016-06-12T07:18:43.000Z</time>
      </trkpt>
      <trkpt lat="47.49409" lon="6.74117">
        <ele>354</ele>
        <time>2016-06-12T07:18:45.000Z</time>
      </trkpt>
      <trkpt lat="47.49408" lon="6.74116">
        <ele>354</ele>
        <time>2016-06-12T07:18:46.000Z</time>
      </trkpt>
      <trkpt lat="47.49405" lon="6.74111">
        <ele>354</ele>
        <time>2016-06-12T07:18:49.000Z</time>
      </trkpt>
      <trkpt lat="47.49405" lon="6.74109">
        <ele>354</ele>
        <time>2016-06-12T07:18:50.000Z</time>
      </trkpt>
      <trkpt lat="47.49404" lon="6.74104">
        <ele>353</ele>
        <time>2016-06-12T07:18:52.000Z</time>
      </trkpt>
      <trkpt lat="47.49404" lon="6.74101">
        <ele>353</ele>
        <time>2016-06-12T07:18:53.000Z</time>
      </trkpt>
      <trkpt lat="47.49404" lon="6.74096">
        <ele>352</ele>
        <time>2016-06-12T07:18:55.000Z</time>
      </trkpt>
      <trkpt lat="47.49403" lon="6.74093">
        <ele>352</ele>
        <time>2016-06-12T07:18:56.000Z</time>
      </trkpt>
      <trkpt lat="47.49403" lon="6.74088">
        <ele>352</ele>
        <time>2016-06-12T07:18:58.000Z</time>
      </trkpt>
      <trkpt lat="47.49402" lon="6.74086">
        <ele>352</ele>
        <time>2016-06-12T07:18:59.000Z</time>
      </trkpt>
      <trkpt lat="47.494" lon="6.74081">
        <ele>352</ele>
        <time>2016-06-12T07:19:01.000Z</time>
      </trkpt>
      <trkpt lat="47.494" lon="6.74078">
        <ele>352</ele>
        <time>2016-06-12T07:19:02.000Z</time>
      </trkpt>
      <trkpt lat="47.49399" lon="6.74073">
        <ele>352</ele>
        <time>2016-06-12T07:19:05.000Z</time>
      </trkpt>
      <trkpt lat="47.49399" lon="6.74071">
        <ele>353</ele>
        <time>2016-06-12T07:19:06.000Z</time>
      </trkpt>
      <trkpt lat="47.49399" lon="6.74066">
        <ele>353</ele>
        <time>2016-06-12T07:19:08.000Z</time>
      </trkpt>
      <trkpt lat="47.49399" lon="6.74063">
        <ele>353</ele>
        <time>2016-06-12T07:19:09.000Z</time>
      </trkpt>
      <trkpt lat="47.49399" lon="6.74059">
        <ele>354</ele>
        <time>2016-06-12T07:19:11.000Z</time>
      </trkpt>
      <trkpt lat="47.49398" lon="6.74056">
        <ele>354</ele>
        <time>2016-06-12T07:19:12.000Z</time>
      </trkpt>
      <trkpt lat="47.49399" lon="6.7405">
        <ele>354</ele>
        <time>2016-06-12T07:19:16.000Z</time>
      </trkpt>
      <trkpt lat="47.49398" lon="6.74048">
        <ele>354</ele>
        <time>2016-06-12T07:19:17.000Z</time>
      </trkpt>
      <trkpt lat="47.49397" lon="6.74042">
        <ele>354</ele>
        <time>2016-06-12T07:19:20.000Z</time>
      </trkpt>
      <trkpt lat="47.49397" lon="6.7404">
        <ele>354</ele>
        <time>2016-06-12T07:19:21.000Z</time>
      </trkpt>
      <trkpt lat="47.49397" lon="6.74035">
        <ele>354</ele>
        <time>2016-06-12T07:19:24.000Z</time>
      </trkpt>
      <trkpt lat="47.49396" lon="6.74033">
        <ele>354</ele>
        <time>2016-06-12T07:19:25.000Z</time>
      </trkpt>
      <trkpt lat="47.49395" lon="6.74028">
        <ele>354</ele>
        <time>2016-06-12T07:19:27.000Z</time>
      </trkpt>
      <trkpt lat="47.49394" lon="6.74026">
        <ele>354</ele>
        <time>2016-06-12T07:19:28.000Z</time>
      </trkpt>
      <trkpt lat="47.49392" lon="6.74022">
        <ele>354</ele>
        <time>2016-06-12T07:19:30.000Z</time>
      </trkpt>
      <trkpt lat="47.49391" lon="6.7402">
        <ele>354</ele>
        <time>2016-06-12T07:19:31.000Z</time>
      </trkpt>
      <trkpt lat="47.49389" lon="6.74016">
        <ele>354</ele>
        <time>2016-06-12T07:19:33.000Z</time>
      </trkpt>
      <trkpt lat="47.49388" lon="6.74013">
        <ele>355</ele>
        <time>2016-06-12T07:19:34.000Z</time>
      </trkpt>
      <trkpt lat="47.49387" lon="6.74008">
        <ele>355</ele>
        <time>2016-06-12T07:19:36.000Z</time>
      </trkpt>
      <trkpt lat="47.49386" lon="6.74004">
        <ele>355</ele>
        <time>2016-06-12T07:19:37.000Z</time>
      </trkpt>
      <trkpt lat="47.49386" lon="6.74001">
        <ele>355</ele>
        <time>2016-06-12T07:19:38.000Z</time>
      </trkpt>
      <trkpt lat="47.49385" lon="6.73998">
        <ele>353</ele>
        <time>2016-06-12T07:19:39.000Z</time>
      </trkpt>
      <trkpt lat="47.49384" lon="6.73992">
        <ele>354</ele>
        <time>2016-06-12T07:19:41.000Z</time>
      </trkpt>
      <trkpt lat="47.49383" lon="6.73989">
        <ele>354</ele>
        <time>2016-06-12T07:19:42.000Z</time>
      </trkpt>
      <trkpt lat="47.49382" lon="6.73985">
        <ele>354</ele>
        <time>2016-06-12T07:19:44.000Z</time>
      </trkpt>
      <trkpt lat="47.49381" lon="6.73982">
        <ele>354</ele>
        <time>2016-06-12T07:19:45.000Z</time>
      </trkpt>
      <trkpt lat="47.4938" lon="6.73977">
        <ele>354</ele>
        <time>2016-06-12T07:19:47.000Z</time>
      </trkpt>
      <trkpt lat="47.4938" lon="6.73975">
        <ele>354</ele>
        <time>2016-06-12T07:19:48.000Z</time>
      </trkpt>
      <trkpt lat="47.49379" lon="6.73971">
        <ele>354</ele>
        <time>2016-06-12T07:19:50.000Z</time>
      </trkpt>
      <trkpt lat="47.49378" lon="6.73969">
        <ele>354</ele>
        <time>2016-06-12T07:19:51.000Z</time>
      </trkpt>
      <trkpt lat="47.49376" lon="6.73965">
        <ele>354</ele>
        <time>2016-06-12T07:19:53.000Z</time>
      </trkpt>
      <trkpt lat="47.49374" lon="6.73963">
        <ele>354</ele>
        <time>2016-06-12T07:19:54.000Z</time>
      </trkpt>
      <trkpt lat="47.49373" lon="6.73957">
        <ele>354</ele>
        <time>2016-06-12T07:19:57.000Z</time>
      </trkpt>
      <trkpt lat="47.49373" lon="6.73955">
        <ele>354</ele>
        <time>2016-06-12T07:19:58.000Z</time>
      </trkpt>
      <trkpt lat="47.49372" lon="6.73951">
        <ele>354</ele>
        <time>2016-06-12T07:20:00.000Z</time>
      </trkpt>
      <trkpt lat="47.49371" lon="6.73949">
        <ele>354</ele>
        <time>2016-06-12T07:20:01.000Z</time>
      </trkpt>
      <trkpt lat="47.49369" lon="6.73944">
        <ele>354</ele>
        <time>2016-06-12T07:20:03.000Z</time>
      </trkpt>
      <trkpt lat="47.49368" lon="6.73941">
        <ele>354</ele>
        <time>2016-06-12T07:20:04.000Z</time>
      </trkpt>
      <trkpt lat="47.49367" lon="6.73937">
        <ele>354</ele>
        <time>2016-06-12T07:20:06.000Z</time>
      </trkpt>
      <trkpt lat="47.49366" lon="6.73935">
        <ele>355</ele>
        <time>2016-06-12T07:20:07.000Z</time>
      </trkpt>
      <trkpt lat="47.49364" lon="6.7393">
        <ele>355</ele>
        <time>2016-06-12T07:20:09.000Z</time>
      </trkpt>
      <trkpt lat="47.49363" lon="6.73927">
        <ele>355</ele>
        <time>2016-06-12T07:20:10.000Z</time>
      </trkpt>
      <trkpt lat="47.49361" lon="6.73922">
        <ele>355</ele>
        <time>2016-06-12T07:20:12.000Z</time>
      </trkpt>
      <trkpt lat="47.4936" lon="6.73919">
        <ele>355</ele>
        <time>2016-06-12T07:20:13.000Z</time>
      </trkpt>
      <trkpt lat="47.49357" lon="6.73914">
        <ele>354</ele>
        <time>2016-06-12T07:20:15.000Z</time>
      </trkpt>
      <trkpt lat="47.49356" lon="6.73911">
        <ele>354</ele>
        <time>2016-06-12T07:20:16.000Z</time>
      </trkpt>
      <trkpt lat="47.49354" lon="6.73909">
        <ele>354</ele>
        <time>2016-06-12T07:20:17.000Z</time>
      </trkpt>
      <trkpt lat="47.49352" lon="6.73906">
        <ele>354</ele>
        <time>2016-06-12T07:20:18.000Z</time>
      </trkpt>
      <trkpt lat="47.4935" lon="6.73903">
        <ele>354</ele>
        <time>2016-06-12T07:20:19.000Z</time>
      </trkpt>
      <trkpt lat="47.49347" lon="6.73899">
        <ele>354</ele>
        <time>2016-06-12T07:20:20.000Z</time>
      </trkpt>
      <trkpt lat="47.49344" lon="6.73895">
        <ele>354</ele>
        <time>2016-06-12T07:20:21.000Z</time>
      </trkpt>
      <trkpt lat="47.49341" lon="6.7389">
        <ele>354</ele>
        <time>2016-06-12T07:20:22.000Z</time>
      </trkpt>
      <trkpt lat="47.49339" lon="6.73884">
        <ele>353</ele>
        <time>2016-06-12T07:20:23.000Z</time>
      </trkpt>
      <trkpt lat="47.49336" lon="6.73878">
        <ele>353</ele>
        <time>2016-06-12T07:20:24.000Z</time>
      </trkpt>
      <trkpt lat="47.49334" lon="6.73872">
        <ele>353</ele>
        <time>2016-06-12T07:20:25.000Z</time>
      </trkpt>
      <trkpt lat="47.49333" lon="6.73866">
        <ele>357</ele>
        <time>2016-06-12T07:20:26.000Z</time>
      </trkpt>
      <trkpt lat="47.49331" lon="6.73862">
        <ele>357</ele>
        <time>2016-06-12T07:20:27.000Z</time>
      </trkpt>
      <trkpt lat="47.49329" lon="6.73859">
        <ele>357</ele>
        <time>2016-06-12T07:20:28.000Z</time>
      </trkpt>
      <trkpt lat="47.49328" lon="6.73856">
        <ele>357</ele>
        <time>2016-06-12T07:20:29.000Z</time>
      </trkpt>
      <trkpt lat="47.49328" lon="6.7385">
        <ele>356</ele>
        <time>2016-06-12T07:20:31.000Z</time>
      </trkpt>
      <trkpt lat="47.49328" lon="6.73848">
        <ele>356</ele>
        <time>2016-06-12T07:20:32.000Z</time>
      </trkpt>
      <trkpt lat="47.49326" lon="6.73843">
        <ele>356</ele>
        <time>2016-06-12T07:20:48.000Z</time>
      </trkpt>
      <trkpt lat="47.49324" lon="6.73842">
        <ele>356</ele>
        <time>2016-06-12T07:20:49.000Z</time>
      </trkpt>
      <trkpt lat="47.49322" lon="6.73839">
        <ele>356</ele>
        <time>2016-06-12T07:20:51.000Z</time>
      </trkpt>
      <trkpt lat="47.4932" lon="6.73837">
        <ele>356</ele>
        <time>2016-06-12T07:20:52.000Z</time>
      </trkpt>
      <trkpt lat="47.49317" lon="6.73834">
        <ele>356</ele>
        <time>2016-06-12T07:20:54.000Z</time>
      </trkpt>
      <trkpt lat="47.49315" lon="6.73833">
        <ele>355</ele>
        <time>2016-06-12T07:20:55.000Z</time>
      </trkpt>
      <trkpt lat="47.49311" lon="6.7383">
        <ele>356</ele>
        <time>2016-06-12T07:20:59.000Z</time>
      </trkpt>
      <trkpt lat="47.49311" lon="6.7383">
        <ele>356</ele>
        <time>2016-06-12T07:21:00.000Z</time>
      </trkpt>
      <trkpt lat="47.49311" lon="6.73825">
        <ele>356</ele>
        <time>2016-06-12T07:21:06.000Z</time>
      </trkpt>
      <trkpt lat="47.4931" lon="6.73823">
        <ele>356</ele>
        <time>2016-06-12T07:21:07.000Z</time>
      </trkpt>
      <trkpt lat="47.4931" lon="6.73817">
        <ele>356</ele>
        <time>2016-06-12T07:21:11.000Z</time>
      </trkpt>
      <trkpt lat="47.4931" lon="6.73815">
        <ele>356</ele>
        <time>2016-06-12T07:21:12.000Z</time>
      </trkpt>
      <trkpt lat="47.49311" lon="6.7381">
        <ele>356</ele>
        <time>2016-06-12T07:21:16.000Z</time>
      </trkpt>
      <trkpt lat="47.49311" lon="6.73808">
        <ele>356</ele>
        <time>2016-06-12T07:21:17.000Z</time>
      </trkpt>
      <trkpt lat="47.49309" lon="6.73802">
        <ele>356</ele>
        <time>2016-06-12T07:21:42.000Z</time>
      </trkpt>
      <trkpt lat="47.4931" lon="6.738">
        <ele>356</ele>
        <time>2016-06-12T07:21:43.000Z</time>
      </trkpt>
      <trkpt lat="47.49309" lon="6.73795">
        <ele>356</ele>
        <time>2016-06-12T07:21:48.000Z</time>
      </trkpt>
      <trkpt lat="47.49309" lon="6.73794">
        <ele>356</ele>
        <time>2016-06-12T07:21:49.000Z</time>
      </trkpt>
      <trkpt lat="47.4931" lon="6.73787">
        <ele>356</ele>
        <time>2016-06-12T07:22:00.000Z</time>
      </trkpt>
      <trkpt lat="47.49311" lon="6.73786">
        <ele>356</ele>
        <time>2016-06-12T07:22:01.000Z</time>
      </trkpt>
      <trkpt lat="47.49312" lon="6.7378">
        <ele>356</ele>
        <time>2016-06-12T07:22:04.000Z</time>
      </trkpt>
      <trkpt lat="47.49313" lon="6.73778">
        <ele>356</ele>
        <time>2016-06-12T07:22:05.000Z</time>
      </trkpt>
      <trkpt lat="47.49313" lon="6.73771">
        <ele>356</ele>
        <time>2016-06-12T07:22:08.000Z</time>
      </trkpt>
      <trkpt lat="47.49313" lon="6.73769">
        <ele>356</ele>
        <time>2016-06-12T07:22:09.000Z</time>
      </trkpt>
      <trkpt lat="47.49313" lon="6.73763">
        <ele>356</ele>
        <time>2016-06-12T07:22:12.000Z</time>
      </trkpt>
      <trkpt lat="47.49313" lon="6.73761">
        <ele>356</ele>
        <time>2016-06-12T07:22:13.000Z</time>
      </trkpt>
      <trkpt lat="47.49313" lon="6.73756">
        <ele>356</ele>
        <time>2016-06-12T07:22:16.000Z</time>
      </trkpt>
      <trkpt lat="47.49313" lon="6.73753">
        <ele>356</ele>
        <time>2016-06-12T07:22:17.000Z</time>
      </trkpt>
      <trkpt lat="47.49313" lon="6.73746">
        <ele>358</ele>
        <time>2016-06-12T07:22:19.000Z</time>
      </trkpt>
      <trkpt lat="47.49313" lon="6.73743">
        <ele>358</ele>
        <time>2016-06-12T07:22:20.000Z</time>
      </trkpt>
      <trkpt lat="47.49312" lon="6.73737">
        <ele>358</ele>
        <time>2016-06-12T07:22:23.000Z</time>
      </trkpt>
      <trkpt lat="47.49312" lon="6.73736">
        <ele>358</ele>
        <time>2016-06-12T07:22:24.000Z</time>
      </trkpt>
      <trkpt lat="47.49308" lon="6.73731">
        <ele>358</ele>
        <time>2016-06-12T07:22:30.000Z</time>
      </trkpt>
      <trkpt lat="47.49308" lon="6.73731">
        <ele>358</ele>
        <time>2016-06-12T07:22:31.000Z</time>
      </trkpt>
      <trkpt lat="47.49304" lon="6.7373">
        <ele>359</ele>
        <time>2016-06-12T07:22:34.000Z</time>
      </trkpt>
      <trkpt lat="47.49303" lon="6.7373">
        <ele>359</ele>
        <time>2016-06-12T07:22:35.000Z</time>
      </trkpt>
      <trkpt lat="47.49301" lon="6.73724">
        <ele>359</ele>
        <time>2016-06-12T07:22:56.000Z</time>
      </trkpt>
      <trkpt lat="47.49301" lon="6.73723">
        <ele>359</ele>
        <time>2016-06-12T07:22:57.000Z</time>
      </trkpt>
      <trkpt lat="47.49298" lon="6.7372">
        <ele>359</ele>
        <time>2016-06-12T07:23:00.000Z</time>
      </trkpt>
      <trkpt lat="47.49297" lon="6.73719">
        <ele>359</ele>
        <time>2016-06-12T07:23:01.000Z</time>
      </trkpt>
      <trkpt lat="47.49295" lon="6.73715">
        <ele>359</ele>
        <time>2016-06-12T07:23:03.000Z</time>
      </trkpt>
      <trkpt lat="47.49294" lon="6.73713">
        <ele>359</ele>
        <time>2016-06-12T07:23:04.000Z</time>
      </trkpt>
      <trkpt lat="47.49292" lon="6.73708">
        <ele>360</ele>
        <time>2016-06-12T07:23:06.000Z</time>
      </trkpt>
      <trkpt lat="47.49291" lon="6.73705">
        <ele>360</ele>
        <time>2016-06-12T07:23:07.000Z</time>
      </trkpt>
      <trkpt lat="47.4929" lon="6.737">
        <ele>360</ele>
        <time>2016-06-12T07:23:09.000Z</time>
      </trkpt>
      <trkpt lat="47.4929" lon="6.73697">
        <ele>360</ele>
        <time>2016-06-12T07:23:10.000Z</time>
      </trkpt>
      <trkpt lat="47.49289" lon="6.73693">
        <ele>360</ele>
        <time>2016-06-12T07:23:11.000Z</time>
      </trkpt>
      <trkpt lat="47.49289" lon="6.7369">
        <ele>360</ele>
        <time>2016-06-12T07:23:12.000Z</time>
      </trkpt>
      <trkpt lat="47.49288" lon="6.73686">
        <ele>360</ele>
        <time>2016-06-12T07:23:13.000Z</time>
      </trkpt>
      <trkpt lat="47.49288" lon="6.73682">
        <ele>360</ele>
        <time>2016-06-12T07:23:14.000Z</time>
      </trkpt>
      <trkpt lat="47.49288" lon="6.73678">
        <ele>360</ele>
        <time>2016-06-12T07:23:15.000Z</time>
      </trkpt>
      <trkpt lat="47.49288" lon="6.73674">
        <ele>360</ele>
        <time>2016-06-12T07:23:16.000Z</time>
      </trkpt>
      <trkpt lat="47.49288" lon="6.7367">
        <ele>360</ele>
        <time>2016-06-12T07:23:17.000Z</time>
      </trkpt>
      <trkpt lat="47.49288" lon="6.73667">
        <ele>361</ele>
        <time>2016-06-12T07:23:18.000Z</time>
      </trkpt>
      <trkpt lat="47.49288" lon="6.7366">
        <ele>362</ele>
        <time>2016-06-12T07:23:20.000Z</time>
      </trkpt>
      <trkpt lat="47.49287" lon="6.73657">
        <ele>362</ele>
        <time>2016-06-12T07:23:21.000Z</time>
      </trkpt>
      <trkpt lat="47.49286" lon="6.73652">
        <ele>362</ele>
        <time>2016-06-12T07:23:23.000Z</time>
      </trkpt>
      <trkpt lat="47.49285" lon="6.7365">
        <ele>362</ele>
        <time>2016-06-12T07:23:24.000Z</time>
      </trkpt>
      <trkpt lat="47.49283" lon="6.73645">
        <ele>362</ele>
        <time>2016-06-12T07:23:29.000Z</time>
      </trkpt>
      <trkpt lat="47.49282" lon="6.73645">
        <ele>362</ele>
        <time>2016-06-12T07:23:30.000Z</time>
      </trkpt>
      <trkpt lat="47.4928" lon="6.7364">
        <ele>362</ele>
        <time>2016-06-12T07:24:10.000Z</time>
      </trkpt>
      <trkpt lat="47.49278" lon="6.7364">
        <ele>362</ele>
        <time>2016-06-12T07:24:11.000Z</time>
      </trkpt>
      <trkpt lat="47.49274" lon="6.73638">
        <ele>363</ele>
        <time>2016-06-12T07:24:13.000Z</time>
      </trkpt>
      <trkpt lat="47.49273" lon="6.73638">
        <ele>363</ele>
        <time>2016-06-12T07:24:14.000Z</time>
      </trkpt>
      <trkpt lat="47.49268" lon="6.73636">
        <ele>363</ele>
        <time>2016-06-12T07:24:17.000Z</time>
      </trkpt>
      <trkpt lat="47.49267" lon="6.73635">
        <ele>363</ele>
        <time>2016-06-12T07:24:18.000Z</time>
      </trkpt>
      <trkpt lat="47.49263" lon="6.73633">
        <ele>363</ele>
        <time>2016-06-12T07:24:22.000Z</time>
      </trkpt>
      <trkpt lat="47.49262" lon="6.73633">
        <ele>363</ele>
        <time>2016-06-12T07:24:23.000Z</time>
      </trkpt>
      <trkpt lat="47.49259" lon="6.7363">
        <ele>363</ele>
        <time>2016-06-12T07:24:28.000Z</time>
      </trkpt>
      <trkpt lat="47.49258" lon="6.73631">
        <ele>363</ele>
        <time>2016-06-12T07:24:29.000Z</time>
      </trkpt>
      <trkpt lat="47.49254" lon="6.73632">
        <ele>363</ele>
        <time>2016-06-12T07:24:33.000Z</time>
      </trkpt>
      <trkpt lat="47.49253" lon="6.73632">
        <ele>363</ele>
        <time>2016-06-12T07:24:34.000Z</time>
      </trkpt>
      <trkpt lat="47.49249" lon="6.7363">
        <ele>368</ele>
        <time>2016-06-12T07:24:39.000Z</time>
      </trkpt>
      <trkpt lat="47.49248" lon="6.73629">
        <ele>368</ele>
        <time>2016-06-12T07:24:40.000Z</time>
      </trkpt>
      <trkpt lat="47.49245" lon="6.73626">
        <ele>369</ele>
        <time>2016-06-12T07:24:43.000Z</time>
      </trkpt>
      <trkpt lat="47.49244" lon="6.73625">
        <ele>369</ele>
        <time>2016-06-12T07:24:44.000Z</time>
      </trkpt>
      <trkpt lat="47.4924" lon="6.73622">
        <ele>369</ele>
        <time>2016-06-12T07:24:47.000Z</time>
      </trkpt>
      <trkpt lat="47.49238" lon="6.73621">
        <ele>369</ele>
        <time>2016-06-12T07:24:48.000Z</time>
      </trkpt>
      <trkpt lat="47.49235" lon="6.73619">
        <ele>369</ele>
        <time>2016-06-12T07:24:50.000Z</time>
      </trkpt>
      <trkpt lat="47.49234" lon="6.73617">
        <ele>369</ele>
        <time>2016-06-12T07:24:51.000Z</time>
      </trkpt>
      <trkpt lat="47.49231" lon="6.73615">
        <ele>369</ele>
        <time>2016-06-12T07:24:53.000Z</time>
      </trkpt>
      <trkpt lat="47.4923" lon="6.73614">
        <ele>369</ele>
        <time>2016-06-12T07:24:54.000Z</time>
      </trkpt>
      <trkpt lat="47.49226" lon="6.73611">
        <ele>369</ele>
        <time>2016-06-12T07:24:57.000Z</time>
      </trkpt>
      <trkpt lat="47.49225" lon="6.7361">
        <ele>369</ele>
        <time>2016-06-12T07:24:58.000Z</time>
      </trkpt>
      <trkpt lat="47.49221" lon="6.73608">
        <ele>370</ele>
        <time>2016-06-12T07:25:02.000Z</time>
      </trkpt>
      <trkpt lat="47.4922" lon="6.73608">
        <ele>370</ele>
        <time>2016-06-12T07:25:03.000Z</time>
      </trkpt>
      <trkpt lat="47.49216" lon="6.73609">
        <ele>370</ele>
        <time>2016-06-12T07:25:11.000Z</time>
      </trkpt>
      <trkpt lat="47.49215" lon="6.73609">
        <ele>370</ele>
        <time>2016-06-12T07:25:12.000Z</time>
      </trkpt>
      <trkpt lat="47.49212" lon="6.73608">
        <ele>370</ele>
        <time>2016-06-12T07:25:16.000Z</time>
      </trkpt>
      <trkpt lat="47.49211" lon="6.73607">
        <ele>370</ele>
        <time>2016-06-12T07:25:17.000Z</time>
      </trkpt>
      <trkpt lat="47.49207" lon="6.73604">
        <ele>370</ele>
        <time>2016-06-12T07:25:21.000Z</time>
      </trkpt>
      <trkpt lat="47.49207" lon="6.73603">
        <ele>370</ele>
        <time>2016-06-12T07:25:22.000Z</time>
      </trkpt>
      <trkpt lat="47.49205" lon="6.73597">
        <ele>371</ele>
        <time>2016-06-12T07:25:27.000Z</time>
      </trkpt>
      <trkpt lat="47.49204" lon="6.73595">
        <ele>371</ele>
        <time>2016-06-12T07:25:28.000Z</time>
      </trkpt>
      <trkpt lat="47.49202" lon="6.73589">
        <ele>371</ele>
        <time>2016-06-12T07:25:31.000Z</time>
      </trkpt>
      <trkpt lat="47.49202" lon="6.73587">
        <ele>371</ele>
        <time>2016-06-12T07:25:32.000Z</time>
      </trkpt>
      <trkpt lat="47.49199" lon="6.73582">
        <ele>374</ele>
        <time>2016-06-12T07:25:37.000Z</time>
      </trkpt>
      <trkpt lat="47.49199" lon="6.73581">
        <ele>374</ele>
        <time>2016-06-12T07:25:38.000Z</time>
      </trkpt>
      <trkpt lat="47.49196" lon="6.73577">
        <ele>374</ele>
        <time>2016-06-12T07:25:43.000Z</time>
      </trkpt>
      <trkpt lat="47.49195" lon="6.73576">
        <ele>374</ele>
        <time>2016-06-12T07:25:44.000Z</time>
      </trkpt>
      <trkpt lat="47.49191" lon="6.73574">
        <ele>374</ele>
        <time>2016-06-12T07:25:53.000Z</time>
      </trkpt>
      <trkpt lat="47.4919" lon="6.73574">
        <ele>375</ele>
        <time>2016-06-12T07:25:54.000Z</time>
      </trkpt>
      <trkpt lat="47.49187" lon="6.73573">
        <ele>375</ele>
        <time>2016-06-12T07:25:58.000Z</time>
      </trkpt>
      <trkpt lat="47.49186" lon="6.73572">
        <ele>375</ele>
        <time>2016-06-12T07:25:59.000Z</time>
      </trkpt>
      <trkpt lat="47.49184" lon="6.73567">
        <ele>375</ele>
        <time>2016-06-12T07:26:02.000Z</time>
      </trkpt>
      <trkpt lat="47.49183" lon="6.73565">
        <ele>375</ele>
        <time>2016-06-12T07:26:03.000Z</time>
      </trkpt>
      <trkpt lat="47.49182" lon="6.7356">
        <ele>375</ele>
        <time>2016-06-12T07:26:05.000Z</time>
      </trkpt>
      <trkpt lat="47.49181" lon="6.73556">
        <ele>375</ele>
        <time>2016-06-12T07:26:06.000Z</time>
      </trkpt>
      <trkpt lat="47.4918" lon="6.73552">
        <ele>375</ele>
        <time>2016-06-12T07:26:07.000Z</time>
      </trkpt>
      <trkpt lat="47.49179" lon="6.73549">
        <ele>375</ele>
        <time>2016-06-12T07:26:08.000Z</time>
      </trkpt>
      <trkpt lat="47.49178" lon="6.73545">
        <ele>375</ele>
        <time>2016-06-12T07:26:09.000Z</time>
      </trkpt>
      <trkpt lat="47.49178" lon="6.73542">
        <ele>375</ele>
        <time>2016-06-12T07:26:10.000Z</time>
      </trkpt>
      <trkpt lat="47.49177" lon="6.73539">
        <ele>375</ele>
        <time>2016-06-12T07:26:11.000Z</time>
      </trkpt>
      <trkpt lat="47.49177" lon="6.73535">
        <ele>375</ele>
        <time>2016-06-12T07:26:12.000Z</time>
      </trkpt>
      <trkpt lat="47.49177" lon="6.73529">
        <ele>376</ele>
        <time>2016-06-12T07:26:14.000Z</time>
      </trkpt>
      <trkpt lat="47.49177" lon="6.73526">
        <ele>376</ele>
        <time>2016-06-12T07:26:15.000Z</time>
      </trkpt>
      <trkpt lat="47.49179" lon="6.73522">
        <ele>376</ele>
        <time>2016-06-12T07:26:17.000Z</time>
      </trkpt>
      <trkpt lat="47.4918" lon="6.7352">
        <ele>376</ele>
        <time>2016-06-12T07:26:18.000Z</time>
      </trkpt>
      <trkpt lat="47.49181" lon="6.73515">
        <ele>376</ele>
        <time>2016-06-12T07:26:21.000Z</time>
      </trkpt>
      <trkpt lat="47.49182" lon="6.73513">
        <ele>376</ele>
        <time>2016-06-12T07:26:22.000Z</time>
      </trkpt>
      <trkpt lat="47.49182" lon="6.73507">
        <ele>376</ele>
        <time>2016-06-12T07:26:27.000Z</time>
      </trkpt>
      <trkpt lat="47.49182" lon="6.73506">
        <ele>376</ele>
        <time>2016-06-12T07:26:28.000Z</time>
      </trkpt>
      <trkpt lat="47.49181" lon="6.735">
        <ele>377</ele>
        <time>2016-06-12T07:26:32.000Z</time>
      </trkpt>
      <trkpt lat="47.49181" lon="6.73499">
        <ele>379</ele>
        <time>2016-06-12T07:26:33.000Z</time>
      </trkpt>
      <trkpt lat="47.4918" lon="6.73492">
        <ele>379</ele>
        <time>2016-06-12T07:26:38.000Z</time>
      </trkpt>
      <trkpt lat="47.4918" lon="6.73491">
        <ele>379</ele>
        <time>2016-06-12T07:26:39.000Z</time>
      </trkpt>
      <trkpt lat="47.49178" lon="6.73486">
        <ele>379</ele>
        <time>2016-06-12T07:26:42.000Z</time>
      </trkpt>
      <trkpt lat="47.49177" lon="6.73484">
        <ele>379</ele>
        <time>2016-06-12T07:26:43.000Z</time>
      </trkpt>
      <trkpt lat="47.49176" lon="6.73478">
        <ele>379</ele>
        <time>2016-06-12T07:26:45.000Z</time>
      </trkpt>
      <trkpt lat="47.49175" lon="6.73476">
        <ele>379</ele>
        <time>2016-06-12T07:26:46.000Z</time>
      </trkpt>
      <trkpt lat="47.49174" lon="6.73471">
        <ele>379</ele>
        <time>2016-06-12T07:26:49.000Z</time>
      </trkpt>
      <trkpt lat="47.49174" lon="6.73469">
        <ele>380</ele>
        <time>2016-06-12T07:26:50.000Z</time>
      </trkpt>
      <trkpt lat="47.49174" lon="6.73463">
        <ele>380</ele>
        <time>2016-06-12T07:26:53.000Z</time>
      </trkpt>
      <trkpt lat="47.49174" lon="6.73461">
        <ele>380</ele>
        <time>2016-06-12T07:26:54.000Z</time>
      </trkpt>
      <trkpt lat="47.49173" lon="6.73455">
        <ele>380</ele>
        <time>2016-06-12T07:26:59.000Z</time>
      </trkpt>
      <trkpt lat="47.49173" lon="6.73453">
        <ele>380</ele>
        <time>2016-06-12T07:27:00.000Z</time>
      </trkpt>
      <trkpt lat="47.49172" lon="6.73449">
        <ele>381</ele>
        <time>2016-06-12T07:27:02.000Z</time>
      </trkpt>
      <trkpt lat="47.49171" lon="6.73447">
        <ele>381</ele>
        <time>2016-06-12T07:27:03.000Z</time>
      </trkpt>
      <trkpt lat="47.4917" lon="6.73442">
        <ele>381</ele>
        <time>2016-06-12T07:27:05.000Z</time>
      </trkpt>
      <trkpt lat="47.4917" lon="6.7344">
        <ele>381</ele>
        <time>2016-06-12T07:27:06.000Z</time>
      </trkpt>
      <trkpt lat="47.49169" lon="6.73434">
        <ele>382</ele>
        <time>2016-06-12T07:27:09.000Z</time>
      </trkpt>
      <trkpt lat="47.49169" lon="6.73432">
        <ele>382</ele>
        <time>2016-06-12T07:27:10.000Z</time>
      </trkpt>
      <trkpt lat="47.49167" lon="6.73427">
        <ele>382</ele>
        <time>2016-06-12T07:27:13.000Z</time>
      </trkpt>
      <trkpt lat="47.49167" lon="6.73426">
        <ele>383</ele>
        <time>2016-06-12T07:27:14.000Z</time>
      </trkpt>
      <trkpt lat="47.49165" lon="6.73421">
        <ele>384</ele>
        <time>2016-06-12T07:27:19.000Z</time>
      </trkpt>
      <trkpt lat="47.49164" lon="6.7342">
        <ele>384</ele>
        <time>2016-06-12T07:27:20.000Z</time>
      </trkpt>
      <trkpt lat="47.4916" lon="6.73417">
        <ele>385</ele>
        <time>2016-06-12T07:27:24.000Z</time>
      </trkpt>
      <trkpt lat="47.49159" lon="6.73416">
        <ele>385</ele>
        <time>2016-06-12T07:27:25.000Z</time>
      </trkpt>
      <trkpt lat="47.49155" lon="6.73413">
        <ele>385</ele>
        <time>2016-06-12T07:27:32.000Z</time>
      </trkpt>
      <trkpt lat="47.49155" lon="6.73413">
        <ele>385</ele>
        <time>2016-06-12T07:27:33.000Z</time>
      </trkpt>
      <trkpt lat="47.49153" lon="6.73409">
        <ele>385</ele>
        <time>2016-06-12T07:27:37.000Z</time>
      </trkpt>
      <trkpt lat="47.49152" lon="6.73408">
        <ele>385</ele>
        <time>2016-06-12T07:27:38.000Z</time>
      </trkpt>
      <trkpt lat="47.49148" lon="6.73406">
        <ele>386</ele>
        <time>2016-06-12T07:27:41.000Z</time>
      </trkpt>
      <trkpt lat="47.49146" lon="6.73405">
        <ele>386</ele>
        <time>2016-06-12T07:27:42.000Z</time>
      </trkpt>
      <trkpt lat="47.49143" lon="6.73405">
        <ele>386</ele>
        <time>2016-06-12T07:27:44.000Z</time>
      </trkpt>
      <trkpt lat="47.49141" lon="6.73405">
        <ele>386</ele>
        <time>2016-06-12T07:27:45.000Z</time>
      </trkpt>
      <trkpt lat="47.49137" lon="6.73405">
        <ele>386</ele>
        <time>2016-06-12T07:27:48.000Z</time>
      </trkpt>
      <trkpt lat="47.49136" lon="6.73405">
        <ele>386</ele>
        <time>2016-06-12T07:27:49.000Z</time>
      </trkpt>
      <trkpt lat="47.49132" lon="6.73404">
        <ele>386</ele>
        <time>2016-06-12T07:27:53.000Z</time>
      </trkpt>
      <trkpt lat="47.4913" lon="6.73404">
        <ele>386</ele>
        <time>2016-06-12T07:27:54.000Z</time>
      </trkpt>
      <trkpt lat="47.49126" lon="6.73402">
        <ele>386</ele>
        <time>2016-06-12T07:27:57.000Z</time>
      </trkpt>
      <trkpt lat="47.49125" lon="6.73402">
        <ele>386</ele>
        <time>2016-06-12T07:27:58.000Z</time>
      </trkpt>
      <trkpt lat="47.49121" lon="6.73402">
        <ele>386</ele>
        <time>2016-06-12T07:28:04.000Z</time>
      </trkpt>
      <trkpt lat="47.4912" lon="6.73402">
        <ele>386</ele>
        <time>2016-06-12T07:28:05.000Z</time>
      </trkpt>
      <trkpt lat="47.49117" lon="6.73401">
        <ele>386</ele>
        <time>2016-06-12T07:28:08.000Z</time>
      </trkpt>
      <trkpt lat="47.49116" lon="6.73401">
        <ele>386</ele>
        <time>2016-06-12T07:28:09.000Z</time>
      </trkpt>
      <trkpt lat="47.49112" lon="6.73399">
        <ele>386</ele>
        <time>2016-06-12T07:28:11.000Z</time>
      </trkpt>
      <trkpt lat="47.49111" lon="6.73397">
        <ele>386</ele>
        <time>2016-06-12T07:28:12.000Z</time>
      </trkpt>
      <trkpt lat="47.49108" lon="6.73395">
        <ele>387</ele>
        <time>2016-06-12T07:28:14.000Z</time>
      </trkpt>
      <trkpt lat="47.49107" lon="6.73393">
        <ele>387</ele>
        <time>2016-06-12T07:28:15.000Z</time>
      </trkpt>
      <trkpt lat="47.49105" lon="6.7339">
        <ele>387</ele>
        <time>2016-06-12T07:28:17.000Z</time>
      </trkpt>
      <trkpt lat="47.49103" lon="6.73388">
        <ele>387</ele>
        <time>2016-06-12T07:28:18.000Z</time>
      </trkpt>
      <trkpt lat="47.49101" lon="6.73384">
        <ele>387</ele>
        <time>2016-06-12T07:28:20.000Z</time>
      </trkpt>
      <trkpt lat="47.49099" lon="6.73382">
        <ele>387</ele>
        <time>2016-06-12T07:28:21.000Z</time>
      </trkpt>
      <trkpt lat="47.49097" lon="6.73378">
        <ele>387</ele>
        <time>2016-06-12T07:28:23.000Z</time>
      </trkpt>
      <trkpt lat="47.49096" lon="6.73376">
        <ele>387</ele>
        <time>2016-06-12T07:28:24.000Z</time>
      </trkpt>
      <trkpt lat="47.49095" lon="6.73371">
        <ele>387</ele>
        <time>2016-06-12T07:28:26.000Z</time>
      </trkpt>
      <trkpt lat="47.49095" lon="6.73369">
        <ele>387</ele>
        <time>2016-06-12T07:28:27.000Z</time>
      </trkpt>
      <trkpt lat="47.49094" lon="6.73363">
        <ele>387</ele>
        <time>2016-06-12T07:28:29.000Z</time>
      </trkpt>
      <trkpt lat="47.49094" lon="6.73359">
        <ele>387</ele>
        <time>2016-06-12T07:28:30.000Z</time>
      </trkpt>
      <trkpt lat="47.49095" lon="6.73354">
        <ele>387</ele>
        <time>2016-06-12T07:28:31.000Z</time>
      </trkpt>
      <trkpt lat="47.49095" lon="6.73352">
        <ele>387</ele>
        <time>2016-06-12T07:28:32.000Z</time>
      </trkpt>
      <trkpt lat="47.49096" lon="6.73348">
        <ele>387</ele>
        <time>2016-06-12T07:28:34.000Z</time>
      </trkpt>
      <trkpt lat="47.49097" lon="6.73345">
        <ele>387</ele>
        <time>2016-06-12T07:28:35.000Z</time>
      </trkpt>
      <trkpt lat="47.49098" lon="6.73341">
        <ele>387</ele>
        <time>2016-06-12T07:28:37.000Z</time>
      </trkpt>
      <trkpt lat="47.49098" lon="6.73339">
        <ele>387</ele>
        <time>2016-06-12T07:28:38.000Z</time>
      </trkpt>
      <trkpt lat="47.491" lon="6.73334">
        <ele>387</ele>
        <time>2016-06-12T07:28:41.000Z</time>
      </trkpt>
      <trkpt lat="47.491" lon="6.73332">
        <ele>388</ele>
        <time>2016-06-12T07:28:42.000Z</time>
      </trkpt>
      <trkpt lat="47.49099" lon="6.73328">
        <ele>388</ele>
        <time>2016-06-12T07:28:45.000Z</time>
      </trkpt>
      <trkpt lat="47.49099" lon="6.73325">
        <ele>388</ele>
        <time>2016-06-12T07:28:46.000Z</time>
      </trkpt>
      <trkpt lat="47.491" lon="6.7332">
        <ele>388</ele>
        <time>2016-06-12T07:28:48.000Z</time>
      </trkpt>
      <trkpt lat="47.491" lon="6.73318">
        <ele>388</ele>
        <time>2016-06-12T07:28:49.000Z</time>
      </trkpt>
      <trkpt lat="47.491" lon="6.73312">
        <ele>388</ele>
        <time>2016-06-12T07:28:51.000Z</time>
      </trkpt>
      <trkpt lat="47.49101" lon="6.7331">
        <ele>388</ele>
        <time>2016-06-12T07:28:52.000Z</time>
      </trkpt>
      <trkpt lat="47.49101" lon="6.73304">
        <ele>389</ele>
        <time>2016-06-12T07:28:54.000Z</time>
      </trkpt>
      <trkpt lat="47.49101" lon="6.73302">
        <ele>389</ele>
        <time>2016-06-12T07:28:55.000Z</time>
      </trkpt>
      <trkpt lat="47.49102" lon="6.73297">
        <ele>389</ele>
        <time>2016-06-12T07:28:57.000Z</time>
      </trkpt>
      <trkpt lat="47.49102" lon="6.73295">
        <ele>389</ele>
        <time>2016-06-12T07:28:58.000Z</time>
      </trkpt>
      <trkpt lat="47.49101" lon="6.73289">
        <ele>389</ele>
        <time>2016-06-12T07:29:00.000Z</time>
      </trkpt>
      <trkpt lat="47.49101" lon="6.73286">
        <ele>389</ele>
        <time>2016-06-12T07:29:01.000Z</time>
      </trkpt>
      <trkpt lat="47.49101" lon="6.7328">
        <ele>389</ele>
        <time>2016-06-12T07:29:03.000Z</time>
      </trkpt>
      <trkpt lat="47.49102" lon="6.73277">
        <ele>389</ele>
        <time>2016-06-12T07:29:04.000Z</time>
      </trkpt>
      <trkpt lat="47.49103" lon="6.73273">
        <ele>389</ele>
        <time>2016-06-12T07:29:05.000Z</time>
      </trkpt>
      <trkpt lat="47.49104" lon="6.73269">
        <ele>389</ele>
        <time>2016-06-12T07:29:06.000Z</time>
      </trkpt>
      <trkpt lat="47.49105" lon="6.73266">
        <ele>389</ele>
        <time>2016-06-12T07:29:07.000Z</time>
      </trkpt>
      <trkpt lat="47.49106" lon="6.73263">
        <ele>389</ele>
        <time>2016-06-12T07:29:08.000Z</time>
      </trkpt>
      <trkpt lat="47.49107" lon="6.7326">
        <ele>389</ele>
        <time>2016-06-12T07:29:09.000Z</time>
      </trkpt>
      <trkpt lat="47.49109" lon="6.73257">
        <ele>389</ele>
        <time>2016-06-12T07:29:10.000Z</time>
      </trkpt>
      <trkpt lat="47.4911" lon="6.73253">
        <ele>389</ele>
        <time>2016-06-12T07:29:11.000Z</time>
      </trkpt>
      <trkpt lat="47.49112" lon="6.7325">
        <ele>390</ele>
        <time>2016-06-12T07:29:12.000Z</time>
      </trkpt>
      <trkpt lat="47.49114" lon="6.73246">
        <ele>390</ele>
        <time>2016-06-12T07:29:13.000Z</time>
      </trkpt>
      <trkpt lat="47.49116" lon="6.73242">
        <ele>391</ele>
        <time>2016-06-12T07:29:14.000Z</time>
      </trkpt>
      <trkpt lat="47.49117" lon="6.73239">
        <ele>391</ele>
        <time>2016-06-12T07:29:15.000Z</time>
      </trkpt>
      <trkpt lat="47.49118" lon="6.73236">
        <ele>391</ele>
        <time>2016-06-12T07:29:16.000Z</time>
      </trkpt>
      <trkpt lat="47.4912" lon="6.73232">
        <ele>391</ele>
        <time>2016-06-12T07:29:18.000Z</time>
      </trkpt>
      <trkpt lat="47.49121" lon="6.73229">
        <ele>391</ele>
        <time>2016-06-12T07:29:19.000Z</time>
      </trkpt>
      <trkpt lat="47.49123" lon="6.73225">
        <ele>391</ele>
        <time>2016-06-12T07:29:21.000Z</time>
      </trkpt>
      <trkpt lat="47.49124" lon="6.73222">
        <ele>391</ele>
        <time>2016-06-12T07:29:22.000Z</time>
      </trkpt>
      <trkpt lat="47.49127" lon="6.73217">
        <ele>391</ele>
        <time>2016-06-12T07:29:24.000Z</time>
      </trkpt>
      <trkpt lat="47.49128" lon="6.73215">
        <ele>392</ele>
        <time>2016-06-12T07:29:25.000Z</time>
      </trkpt>
      <trkpt lat="47.4913" lon="6.73212">
        <ele>392</ele>
        <time>2016-06-12T07:29:26.000Z</time>
      </trkpt>
      <trkpt lat="47.49132" lon="6.73208">
        <ele>392</ele>
        <time>2016-06-12T07:29:27.000Z</time>
      </trkpt>
      <trkpt lat="47.49134" lon="6.73205">
        <ele>392</ele>
        <time>2016-06-12T07:29:28.000Z</time>
      </trkpt>
      <trkpt lat="47.49136" lon="6.73202">
        <ele>392</ele>
        <time>2016-06-12T07:29:29.000Z</time>
      </trkpt>
      <trkpt lat="47.49137" lon="6.73199">
        <ele>392</ele>
        <time>2016-06-12T07:29:30.000Z</time>
      </trkpt>
      <trkpt lat="47.49139" lon="6.73197">
        <ele>393</ele>
        <time>2016-06-12T07:29:31.000Z</time>
      </trkpt>
      <trkpt lat="47.4914" lon="6.73194">
        <ele>393</ele>
        <time>2016-06-12T07:29:32.000Z</time>
      </trkpt>
      <trkpt lat="47.49142" lon="6.73191">
        <ele>393</ele>
        <time>2016-06-12T07:29:33.000Z</time>
      </trkpt>
      <trkpt lat="47.49144" lon="6.73188">
        <ele>393</ele>
        <time>2016-06-12T07:29:34.000Z</time>
      </trkpt>
      <trkpt lat="47.49145" lon="6.73185">
        <ele>393</ele>
        <time>2016-06-12T07:29:35.000Z</time>
      </trkpt>
      <trkpt lat="47.49147" lon="6.73183">
        <ele>394</ele>
        <time>2016-06-12T07:29:36.000Z</time>
      </trkpt>
      <trkpt lat="47.49148" lon="6.7318">
        <ele>394</ele>
        <time>2016-06-12T07:29:37.000Z</time>
      </trkpt>
      <trkpt lat="47.49151" lon="6.73176">
        <ele>395</ele>
        <time>2016-06-12T07:29:39.000Z</time>
      </trkpt>
      <trkpt lat="47.49152" lon="6.73174">
        <ele>395</ele>
        <time>2016-06-12T07:29:40.000Z</time>
      </trkpt>
      <trkpt lat="47.49154" lon="6.73168">
        <ele>395</ele>
        <time>2016-06-12T07:29:42.000Z</time>
      </trkpt>
      <trkpt lat="47.49155" lon="6.73165">
        <ele>395</ele>
        <time>2016-06-12T07:29:43.000Z</time>
      </trkpt>
      <trkpt lat="47.49156" lon="6.7316">
        <ele>395</ele>
        <time>2016-06-12T07:29:45.000Z</time>
      </trkpt>
      <trkpt lat="47.49156" lon="6.73158">
        <ele>395</ele>
        <time>2016-06-12T07:29:46.000Z</time>
      </trkpt>
      <trkpt lat="47.49157" lon="6.73151">
        <ele>394</ele>
        <time>2016-06-12T07:29:48.000Z</time>
      </trkpt>
      <trkpt lat="47.49157" lon="6.73148">
        <ele>394</ele>
        <time>2016-06-12T07:29:49.000Z</time>
      </trkpt>
      <trkpt lat="47.49157" lon="6.73144">
        <ele>394</ele>
        <time>2016-06-12T07:29:50.000Z</time>
      </trkpt>
      <trkpt lat="47.49157" lon="6.7314">
        <ele>393</ele>
        <time>2016-06-12T07:29:51.000Z</time>
      </trkpt>
      <trkpt lat="47.49158" lon="6.73136">
        <ele>393</ele>
        <time>2016-06-12T07:29:52.000Z</time>
      </trkpt>
      <trkpt lat="47.49158" lon="6.73132">
        <ele>393</ele>
        <time>2016-06-12T07:29:53.000Z</time>
      </trkpt>
      <trkpt lat="47.49159" lon="6.73128">
        <ele>393</ele>
        <time>2016-06-12T07:29:54.000Z</time>
      </trkpt>
      <trkpt lat="47.49159" lon="6.73124">
        <ele>393</ele>
        <time>2016-06-12T07:29:55.000Z</time>
      </trkpt>
      <trkpt lat="47.4916" lon="6.73121">
        <ele>392</ele>
        <time>2016-06-12T07:29:56.000Z</time>
      </trkpt>
      <trkpt lat="47.49161" lon="6.73117">
        <ele>392</ele>
        <time>2016-06-12T07:29:57.000Z</time>
      </trkpt>
      <trkpt lat="47.49162" lon="6.73113">
        <ele>392</ele>
        <time>2016-06-12T07:29:58.000Z</time>
      </trkpt>
      <trkpt lat="47.49163" lon="6.73109">
        <ele>392</ele>
        <time>2016-06-12T07:29:59.000Z</time>
      </trkpt>
      <trkpt lat="47.49164" lon="6.73106">
        <ele>393</ele>
        <time>2016-06-12T07:30:00.000Z</time>
      </trkpt>
      <trkpt lat="47.49166" lon="6.73102">
        <ele>393</ele>
        <time>2016-06-12T07:30:01.000Z</time>
      </trkpt>
      <trkpt lat="47.49167" lon="6.73099">
        <ele>395</ele>
        <time>2016-06-12T07:30:02.000Z</time>
      </trkpt>
      <trkpt lat="47.49169" lon="6.73095">
        <ele>395</ele>
        <time>2016-06-12T07:30:03.000Z</time>
      </trkpt>
      <trkpt lat="47.4917" lon="6.73091">
        <ele>395</ele>
        <time>2016-06-12T07:30:04.000Z</time>
      </trkpt>
      <trkpt lat="47.49171" lon="6.73087">
        <ele>394</ele>
        <time>2016-06-12T07:30:05.000Z</time>
      </trkpt>
      <trkpt lat="47.49173" lon="6.73082">
        <ele>394</ele>
        <time>2016-06-12T07:30:06.000Z</time>
      </trkpt>
      <trkpt lat="47.49174" lon="6.73078">
        <ele>394</ele>
        <time>2016-06-12T07:30:07.000Z</time>
      </trkpt>
      <trkpt lat="47.49175" lon="6.73074">
        <ele>394</ele>
        <time>2016-06-12T07:30:08.000Z</time>
      </trkpt>
      <trkpt lat="47.49176" lon="6.73069">
        <ele>394</ele>
        <time>2016-06-12T07:30:09.000Z</time>
      </trkpt>
      <trkpt lat="47.49177" lon="6.73064">
        <ele>395</ele>
        <time>2016-06-12T07:30:10.000Z</time>
      </trkpt>
      <trkpt lat="47.49179" lon="6.73059">
        <ele>395</ele>
        <time>2016-06-12T07:30:11.000Z</time>
      </trkpt>
      <trkpt lat="47.49179" lon="6.73055">
        <ele>395</ele>
        <time>2016-06-12T07:30:12.000Z</time>
      </trkpt>
      <trkpt lat="47.4918" lon="6.73051">
        <ele>395</ele>
        <time>2016-06-12T07:30:13.000Z</time>
      </trkpt>
      <trkpt lat="47.49181" lon="6.73047">
        <ele>395</ele>
        <time>2016-06-12T07:30:14.000Z</time>
      </trkpt>
      <trkpt lat="47.49182" lon="6.73043">
        <ele>394</ele>
        <time>2016-06-12T07:30:15.000Z</time>
      </trkpt>
      <trkpt lat="47.49183" lon="6.73038">
        <ele>394</ele>
        <time>2016-06-12T07:30:16.000Z</time>
      </trkpt>
      <trkpt lat="47.49183" lon="6.73034">
        <ele>394</ele>
        <time>2016-06-12T07:30:17.000Z</time>
      </trkpt>
      <trkpt lat="47.49184" lon="6.73029">
        <ele>394</ele>
        <time>2016-06-12T07:30:18.000Z</time>
      </trkpt>
      <trkpt lat="47.49185" lon="6.73025">
        <ele>394</ele>
        <time>2016-06-12T07:30:19.000Z</time>
      </trkpt>
      <trkpt lat="47.49186" lon="6.73021">
        <ele>394</ele>
        <time>2016-06-12T07:30:20.000Z</time>
      </trkpt>
      <trkpt lat="47.49185" lon="6.73017">
        <ele>394</ele>
        <time>2016-06-12T07:30:21.000Z</time>
      </trkpt>
      <trkpt lat="47.49185" lon="6.73011">
        <ele>394</ele>
        <time>2016-06-12T07:30:23.000Z</time>
      </trkpt>
      <trkpt lat="47.49185" lon="6.73008">
        <ele>393</ele>
        <time>2016-06-12T07:30:24.000Z</time>
      </trkpt>
      <trkpt lat="47.49184" lon="6.73003">
        <ele>393</ele>
        <time>2016-06-12T07:30:26.000Z</time>
      </trkpt>
      <trkpt lat="47.49184" lon="6.73">
        <ele>393</ele>
        <time>2016-06-12T07:30:27.000Z</time>
      </trkpt>
      <trkpt lat="47.49184" lon="6.72997">
        <ele>393</ele>
        <time>2016-06-12T07:30:28.000Z</time>
      </trkpt>
      <trkpt lat="47.49184" lon="6.72993">
        <ele>393</ele>
        <time>2016-06-12T07:30:29.000Z</time>
      </trkpt>
      <trkpt lat="47.49185" lon="6.72989">
        <ele>394</ele>
        <time>2016-06-12T07:30:30.000Z</time>
      </trkpt>
      <trkpt lat="47.49186" lon="6.72985">
        <ele>394</ele>
        <time>2016-06-12T07:30:31.000Z</time>
      </trkpt>
      <trkpt lat="47.49187" lon="6.72981">
        <ele>394</ele>
        <time>2016-06-12T07:30:32.000Z</time>
      </trkpt>
      <trkpt lat="47.49187" lon="6.72977">
        <ele>394</ele>
        <time>2016-06-12T07:30:33.000Z</time>
      </trkpt>
      <trkpt lat="47.49188" lon="6.72972">
        <ele>394</ele>
        <time>2016-06-12T07:30:34.000Z</time>
      </trkpt>
      <trkpt lat="47.49189" lon="6.72967">
        <ele>394</ele>
        <time>2016-06-12T07:30:35.000Z</time>
      </trkpt>
      <trkpt lat="47.49191" lon="6.72962">
        <ele>394</ele>
        <time>2016-06-12T07:30:36.000Z</time>
      </trkpt>
      <trkpt lat="47.49193" lon="6.72958">
        <ele>395</ele>
        <time>2016-06-12T07:30:37.000Z</time>
      </trkpt>
      <trkpt lat="47.49195" lon="6.72954">
        <ele>395</ele>
        <time>2016-06-12T07:30:38.000Z</time>
      </trkpt>
      <trkpt lat="47.49197" lon="6.7295">
        <ele>395</ele>
        <time>2016-06-12T07:30:39.000Z</time>
      </trkpt>
      <trkpt lat="47.49199" lon="6.72946">
        <ele>395</ele>
        <time>2016-06-12T07:30:40.000Z</time>
      </trkpt>
      <trkpt lat="47.492" lon="6.72942">
        <ele>395</ele>
        <time>2016-06-12T07:30:41.000Z</time>
      </trkpt>
      <trkpt lat="47.49201" lon="6.72939">
        <ele>395</ele>
        <time>2016-06-12T07:30:42.000Z</time>
      </trkpt>
      <trkpt lat="47.49203" lon="6.72935">
        <ele>395</ele>
        <time>2016-06-12T07:30:43.000Z</time>
      </trkpt>
      <trkpt lat="47.49203" lon="6.72931">
        <ele>395</ele>
        <time>2016-06-12T07:30:44.000Z</time>
      </trkpt>
      <trkpt lat="47.49205" lon="6.72928">
        <ele>395</ele>
        <time>2016-06-12T07:30:45.000Z</time>
      </trkpt>
      <trkpt lat="47.49206" lon="6.72924">
        <ele>395</ele>
        <time>2016-06-12T07:30:46.000Z</time>
      </trkpt>
      <trkpt lat="47.49207" lon="6.72921">
        <ele>395</ele>
        <time>2016-06-12T07:30:47.000Z</time>
      </trkpt>
      <trkpt lat="47.49208" lon="6.72917">
        <ele>395</ele>
        <time>2016-06-12T07:30:48.000Z</time>
      </trkpt>
      <trkpt lat="47.4921" lon="6.72913">
        <ele>395</ele>
        <time>2016-06-12T07:30:49.000Z</time>
      </trkpt>
      <trkpt lat="47.49211" lon="6.72909">
        <ele>395</ele>
        <time>2016-06-12T07:30:50.000Z</time>
      </trkpt>
      <trkpt lat="47.49212" lon="6.72905">
        <ele>395</ele>
        <time>2016-06-12T07:30:51.000Z</time>
      </trkpt>
      <trkpt lat="47.49214" lon="6.72901">
        <ele>395</ele>
        <time>2016-06-12T07:30:52.000Z</time>
      </trkpt>
      <trkpt lat="47.49216" lon="6.72898">
        <ele>395</ele>
        <time>2016-06-12T07:30:53.000Z</time>
      </trkpt>
      <trkpt lat="47.49218" lon="6.72894">
        <ele>395</ele>
        <time>2016-06-12T07:30:54.000Z</time>
      </trkpt>
      <trkpt lat="47.4922" lon="6.7289">
        <ele>395</ele>
        <time>2016-06-12T07:30:55.000Z</time>
      </trkpt>
      <trkpt lat="47.49221" lon="6.72887">
        <ele>396</ele>
        <time>2016-06-12T07:30:56.000Z</time>
      </trkpt>
      <trkpt lat="47.49223" lon="6.72883">
        <ele>396</ele>
        <time>2016-06-12T07:30:57.000Z</time>
      </trkpt>
      <trkpt lat="47.49224" lon="6.7288">
        <ele>396</ele>
        <time>2016-06-12T07:30:58.000Z</time>
      </trkpt>
      <trkpt lat="47.49226" lon="6.72877">
        <ele>396</ele>
        <time>2016-06-12T07:30:59.000Z</time>
      </trkpt>
      <trkpt lat="47.49227" lon="6.72873">
        <ele>396</ele>
        <time>2016-06-12T07:31:00.000Z</time>
      </trkpt>
      <trkpt lat="47.4923" lon="6.7287">
        <ele>396</ele>
        <time>2016-06-12T07:31:01.000Z</time>
      </trkpt>
      <trkpt lat="47.49232" lon="6.72867">
        <ele>396</ele>
        <time>2016-06-12T07:31:02.000Z</time>
      </trkpt>
      <trkpt lat="47.49235" lon="6.72863">
        <ele>396</ele>
        <time>2016-06-12T07:31:03.000Z</time>
      </trkpt>
      <trkpt lat="47.49238" lon="6.7286">
        <ele>396</ele>
        <time>2016-06-12T07:31:04.000Z</time>
      </trkpt>
      <trkpt lat="47.49241" lon="6.72857">
        <ele>396</ele>
        <time>2016-06-12T07:31:05.000Z</time>
      </trkpt>
      <trkpt lat="47.49243" lon="6.72853">
        <ele>397</ele>
        <time>2016-06-12T07:31:06.000Z</time>
      </trkpt>
      <trkpt lat="47.49246" lon="6.7285">
        <ele>397</ele>
        <time>2016-06-12T07:31:07.000Z</time>
      </trkpt>
      <trkpt lat="47.49249" lon="6.72846">
        <ele>397</ele>
        <time>2016-06-12T07:31:08.000Z</time>
      </trkpt>
      <trkpt lat="47.49252" lon="6.72842">
        <ele>398</ele>
        <time>2016-06-12T07:31:09.000Z</time>
      </trkpt>
      <trkpt lat="47.49255" lon="6.72839">
        <ele>398</ele>
        <time>2016-06-12T07:31:10.000Z</time>
      </trkpt>
      <trkpt lat="47.49257" lon="6.72836">
        <ele>398</ele>
        <time>2016-06-12T07:31:11.000Z</time>
      </trkpt>
      <trkpt lat="47.49259" lon="6.72833">
        <ele>398</ele>
        <time>2016-06-12T07:31:12.000Z</time>
      </trkpt>
      <trkpt lat="47.49261" lon="6.7283">
        <ele>398</ele>
        <time>2016-06-12T07:31:13.000Z</time>
      </trkpt>
      <trkpt lat="47.49262" lon="6.72827">
        <ele>398</ele>
        <time>2016-06-12T07:31:14.000Z</time>
      </trkpt>
      <trkpt lat="47.49263" lon="6.72824">
        <ele>398</ele>
        <time>2016-06-12T07:31:15.000Z</time>
      </trkpt>
      <trkpt lat="47.49264" lon="6.7282">
        <ele>398</ele>
        <time>2016-06-12T07:31:16.000Z</time>
      </trkpt>
      <trkpt lat="47.49266" lon="6.72816">
        <ele>398</ele>
        <time>2016-06-12T07:31:17.000Z</time>
      </trkpt>
      <trkpt lat="47.49267" lon="6.72812">
        <ele>398</ele>
        <time>2016-06-12T07:31:18.000Z</time>
      </trkpt>
      <trkpt lat="47.49268" lon="6.72809">
        <ele>398</ele>
        <time>2016-06-12T07:31:19.000Z</time>
      </trkpt>
      <trkpt lat="47.49269" lon="6.72805">
        <ele>398</ele>
        <time>2016-06-12T07:31:20.000Z</time>
      </trkpt>
      <trkpt lat="47.4927" lon="6.72803">
        <ele>398</ele>
        <time>2016-06-12T07:31:21.000Z</time>
      </trkpt>
      <trkpt lat="47.49271" lon="6.728">
        <ele>398</ele>
        <time>2016-06-12T07:31:22.000Z</time>
      </trkpt>
      <trkpt lat="47.49273" lon="6.72797">
        <ele>398</ele>
        <time>2016-06-12T07:31:23.000Z</time>
      </trkpt>
      <trkpt lat="47.49275" lon="6.72793">
        <ele>398</ele>
        <time>2016-06-12T07:31:24.000Z</time>
      </trkpt>
      <trkpt lat="47.49278" lon="6.72789">
        <ele>398</ele>
        <time>2016-06-12T07:31:25.000Z</time>
      </trkpt>
      <trkpt lat="47.49281" lon="6.72786">
        <ele>398</ele>
        <time>2016-06-12T07:31:26.000Z</time>
      </trkpt>
      <trkpt lat="47.49284" lon="6.72782">
        <ele>398</ele>
        <time>2016-06-12T07:31:27.000Z</time>
      </trkpt>
      <trkpt lat="47.49286" lon="6.72778">
        <ele>398</ele>
        <time>2016-06-12T07:31:28.000Z</time>
      </trkpt>
      <trkpt lat="47.49288" lon="6.72774">
        <ele>398</ele>
        <time>2016-06-12T07:31:29.000Z</time>
      </trkpt>
      <trkpt lat="47.4929" lon="6.72771">
        <ele>398</ele>
        <time>2016-06-12T07:31:30.000Z</time>
      </trkpt>
      <trkpt lat="47.49292" lon="6.72767">
        <ele>398</ele>
        <time>2016-06-12T07:31:31.000Z</time>
      </trkpt>
      <trkpt lat="47.49293" lon="6.72764">
        <ele>398</ele>
        <time>2016-06-12T07:31:32.000Z</time>
      </trkpt>
      <trkpt lat="47.49295" lon="6.7276">
        <ele>398</ele>
        <time>2016-06-12T07:31:33.000Z</time>
      </trkpt>
      <trkpt lat="47.49296" lon="6.72757">
        <ele>398</ele>
        <time>2016-06-12T07:31:34.000Z</time>
      </trkpt>
      <trkpt lat="47.49297" lon="6.72753">
        <ele>398</ele>
        <time>2016-06-12T07:31:35.000Z</time>
      </trkpt>
      <trkpt lat="47.49298" lon="6.72749">
        <ele>399</ele>
        <time>2016-06-12T07:31:36.000Z</time>
      </trkpt>
      <trkpt lat="47.49299" lon="6.72745">
        <ele>399</ele>
        <time>2016-06-12T07:31:37.000Z</time>
      </trkpt>
      <trkpt lat="47.49299" lon="6.7274">
        <ele>399</ele>
        <time>2016-06-12T07:31:38.000Z</time>
      </trkpt>
      <trkpt lat="47.493" lon="6.72736">
        <ele>399</ele>
        <time>2016-06-12T07:31:39.000Z</time>
      </trkpt>
      <trkpt lat="47.493" lon="6.72731">
        <ele>399</ele>
        <time>2016-06-12T07:31:40.000Z</time>
      </trkpt>
      <trkpt lat="47.49301" lon="6.72727">
        <ele>399</ele>
        <time>2016-06-12T07:31:41.000Z</time>
      </trkpt>
      <trkpt lat="47.49301" lon="6.72723">
        <ele>399</ele>
        <time>2016-06-12T07:31:42.000Z</time>
      </trkpt>
      <trkpt lat="47.49301" lon="6.72718">
        <ele>399</ele>
        <time>2016-06-12T07:31:43.000Z</time>
      </trkpt>
      <trkpt lat="47.49302" lon="6.72714">
        <ele>399</ele>
        <time>2016-06-12T07:31:44.000Z</time>
      </trkpt>
      <trkpt lat="47.49302" lon="6.7271">
        <ele>399</ele>
        <time>2016-06-12T07:31:45.000Z</time>
      </trkpt>
      <trkpt lat="47.49301" lon="6.72706">
        <ele>399</ele>
        <time>2016-06-12T07:31:46.000Z</time>
      </trkpt>
      <trkpt lat="47.49301" lon="6.72701">
        <ele>399</ele>
        <time>2016-06-12T07:31:47.000Z</time>
      </trkpt>
      <trkpt lat="47.49301" lon="6.72697">
        <ele>400</ele>
        <time>2016-06-12T07:31:48.000Z</time>
      </trkpt>
      <trkpt lat="47.49301" lon="6.72693">
        <ele>400</ele>
        <time>2016-06-12T07:31:49.000Z</time>
      </trkpt>
      <trkpt lat="47.49302" lon="6.72689">
        <ele>400</ele>
        <time>2016-06-12T07:31:50.000Z</time>
      </trkpt>
      <trkpt lat="47.49302" lon="6.72686">
        <ele>400</ele>
        <time>2016-06-12T07:31:51.000Z</time>
      </trkpt>
      <trkpt lat="47.49301" lon="6.72681">
        <ele>400</ele>
        <time>2016-06-12T07:31:53.000Z</time>
      </trkpt>
      <trkpt lat="47.49301" lon="6.72679">
        <ele>400</ele>
        <time>2016-06-12T07:31:54.000Z</time>
      </trkpt>
      <trkpt lat="47.493" lon="6.72673">
        <ele>400</ele>
        <time>2016-06-12T07:31:57.000Z</time>
      </trkpt>
      <trkpt lat="47.49299" lon="6.72671">
        <ele>400</ele>
        <time>2016-06-12T07:31:58.000Z</time>
      </trkpt>
      <trkpt lat="47.49298" lon="6.72667">
        <ele>400</ele>
        <time>2016-06-12T07:32:00.000Z</time>
      </trkpt>
      <trkpt lat="47.49298" lon="6.72664">
        <ele>401</ele>
        <time>2016-06-12T07:32:01.000Z</time>
      </trkpt>
      <trkpt lat="47.49297" lon="6.72659">
        <ele>401</ele>
        <time>2016-06-12T07:32:03.000Z</time>
      </trkpt>
      <trkpt lat="47.49296" lon="6.72657">
        <ele>401</ele>
        <time>2016-06-12T07:32:04.000Z</time>
      </trkpt>
      <trkpt lat="47.49294" lon="6.72651">
        <ele>401</ele>
        <time>2016-06-12T07:32:06.000Z</time>
      </trkpt>
      <trkpt lat="47.49294" lon="6.72648">
        <ele>401</ele>
        <time>2016-06-12T07:32:07.000Z</time>
      </trkpt>
      <trkpt lat="47.49293" lon="6.72644">
        <ele>401</ele>
        <time>2016-06-12T07:32:08.000Z</time>
      </trkpt>
      <trkpt lat="47.49291" lon="6.72641">
        <ele>401</ele>
        <time>2016-06-12T07:32:09.000Z</time>
      </trkpt>
      <trkpt lat="47.49289" lon="6.72637">
        <ele>401</ele>
        <time>2016-06-12T07:32:10.000Z</time>
      </trkpt>
      <trkpt lat="47.49288" lon="6.72633">
        <ele>401</ele>
        <time>2016-06-12T07:32:11.000Z</time>
      </trkpt>
      <trkpt lat="47.49286" lon="6.72628">
        <ele>401</ele>
        <time>2016-06-12T07:32:12.000Z</time>
      </trkpt>
      <trkpt lat="47.49284" lon="6.72624">
        <ele>401</ele>
        <time>2016-06-12T07:32:13.000Z</time>
      </trkpt>
      <trkpt lat="47.49282" lon="6.72619">
        <ele>401</ele>
        <time>2016-06-12T07:32:14.000Z</time>
      </trkpt>
      <trkpt lat="47.49279" lon="6.72615">
        <ele>401</ele>
        <time>2016-06-12T07:32:15.000Z</time>
      </trkpt>
      <trkpt lat="47.49277" lon="6.72611">
        <ele>401</ele>
        <time>2016-06-12T07:32:16.000Z</time>
      </trkpt>
      <trkpt lat="47.49275" lon="6.72606">
        <ele>401</ele>
        <time>2016-06-12T07:32:17.000Z</time>
      </trkpt>
      <trkpt lat="47.49273" lon="6.72601">
        <ele>401</ele>
        <time>2016-06-12T07:32:18.000Z</time>
      </trkpt>
      <trkpt lat="47.49271" lon="6.72596">
        <ele>401</ele>
        <time>2016-06-12T07:32:19.000Z</time>
      </trkpt>
      <trkpt lat="47.4927" lon="6.7259">
        <ele>401</ele>
        <time>2016-06-12T07:32:20.000Z</time>
      </trkpt>
      <trkpt lat="47.49269" lon="6.72584">
        <ele>401</ele>
        <time>2016-06-12T07:32:21.000Z</time>
      </trkpt>
      <trkpt lat="47.49268" lon="6.72579">
        <ele>403</ele>
        <time>2016-06-12T07:32:22.000Z</time>
      </trkpt>
      <trkpt lat="47.49268" lon="6.72573">
        <ele>403</ele>
        <time>2016-06-12T07:32:23.000Z</time>
      </trkpt>
      <trkpt lat="47.49267" lon="6.72568">
        <ele>403</ele>
        <time>2016-06-12T07:32:24.000Z</time>
      </trkpt>
      <trkpt lat="47.49267" lon="6.72562">
        <ele>403</ele>
        <time>2016-06-12T07:32:25.000Z</time>
      </trkpt>
      <trkpt lat="47.49267" lon="6.72557">
        <ele>404</ele>
        <time>2016-06-12T07:32:26.000Z</time>
      </trkpt>
      <trkpt lat="47.49267" lon="6.72552">
        <ele>404</ele>
        <time>2016-06-12T07:32:27.000Z</time>
      </trkpt>
      <trkpt lat="47.49267" lon="6.72546">
        <ele>404</ele>
        <time>2016-06-12T07:32:28.000Z</time>
      </trkpt>
      <trkpt lat="47.49267" lon="6.7254">
        <ele>404</ele>
        <time>2016-06-12T07:32:29.000Z</time>
      </trkpt>
      <trkpt lat="47.49267" lon="6.72534">
        <ele>405</ele>
        <time>2016-06-12T07:32:30.000Z</time>
      </trkpt>
      <trkpt lat="47.49267" lon="6.72528">
        <ele>405</ele>
        <time>2016-06-12T07:32:31.000Z</time>
      </trkpt>
      <trkpt lat="47.49266" lon="6.72522">
        <ele>405</ele>
        <time>2016-06-12T07:32:32.000Z</time>
      </trkpt>
      <trkpt lat="47.49266" lon="6.72516">
        <ele>405</ele>
        <time>2016-06-12T07:32:33.000Z</time>
      </trkpt>
      <trkpt lat="47.49266" lon="6.72509">
        <ele>405</ele>
        <time>2016-06-12T07:32:34.000Z</time>
      </trkpt>
      <trkpt lat="47.49266" lon="6.72502">
        <ele>405</ele>
        <time>2016-06-12T07:32:35.000Z</time>
      </trkpt>
      <trkpt lat="47.49265" lon="6.72495">
        <ele>406</ele>
        <time>2016-06-12T07:32:36.000Z</time>
      </trkpt>
      <trkpt lat="47.49264" lon="6.72489">
        <ele>407</ele>
        <time>2016-06-12T07:32:37.000Z</time>
      </trkpt>
      <trkpt lat="47.49263" lon="6.72482">
        <ele>407</ele>
        <time>2016-06-12T07:32:38.000Z</time>
      </trkpt>
      <trkpt lat="47.49262" lon="6.72476">
        <ele>407</ele>
        <time>2016-06-12T07:32:39.000Z</time>
      </trkpt>
      <trkpt lat="47.49261" lon="6.72469">
        <ele>407</ele>
        <time>2016-06-12T07:32:40.000Z</time>
      </trkpt>
      <trkpt lat="47.4926" lon="6.72463">
        <ele>407</ele>
        <time>2016-06-12T07:32:41.000Z</time>
      </trkpt>
      <trkpt lat="47.49258" lon="6.72457">
        <ele>407</ele>
        <time>2016-06-12T07:32:42.000Z</time>
      </trkpt>
      <trkpt lat="47.49256" lon="6.72451">
        <ele>407</ele>
        <time>2016-06-12T07:32:43.000Z</time>
      </trkpt>
      <trkpt lat="47.49254" lon="6.72445">
        <ele>407</ele>
        <time>2016-06-12T07:32:44.000Z</time>
      </trkpt>
      <trkpt lat="47.49253" lon="6.7244">
        <ele>407</ele>
        <time>2016-06-12T07:32:45.000Z</time>
      </trkpt>
      <trkpt lat="47.49251" lon="6.72435">
        <ele>407</ele>
        <time>2016-06-12T07:32:46.000Z</time>
      </trkpt>
      <trkpt lat="47.49249" lon="6.72429">
        <ele>403</ele>
        <time>2016-06-12T07:32:47.000Z</time>
      </trkpt>
      <trkpt lat="47.49247" lon="6.72424">
        <ele>404</ele>
        <time>2016-06-12T07:32:48.000Z</time>
      </trkpt>
      <trkpt lat="47.49246" lon="6.72419">
        <ele>405</ele>
        <time>2016-06-12T07:32:49.000Z</time>
      </trkpt>
      <trkpt lat="47.49246" lon="6.72413">
        <ele>405</ele>
        <time>2016-06-12T07:32:50.000Z</time>
      </trkpt>
      <trkpt lat="47.49245" lon="6.72408">
        <ele>404</ele>
        <time>2016-06-12T07:32:51.000Z</time>
      </trkpt>
      <trkpt lat="47.49245" lon="6.72401">
        <ele>403</ele>
        <time>2016-06-12T07:32:52.000Z</time>
      </trkpt>
      <trkpt lat="47.49246" lon="6.72394">
        <ele>402</ele>
        <time>2016-06-12T07:32:53.000Z</time>
      </trkpt>
      <trkpt lat="47.49247" lon="6.72388">
        <ele>402</ele>
        <time>2016-06-12T07:32:54.000Z</time>
      </trkpt>
      <trkpt lat="47.49248" lon="6.72381">
        <ele>402</ele>
        <time>2016-06-12T07:32:55.000Z</time>
      </trkpt>
      <trkpt lat="47.49249" lon="6.72374">
        <ele>402</ele>
        <time>2016-06-12T07:32:56.000Z</time>
      </trkpt>
      <trkpt lat="47.49251" lon="6.72368">
        <ele>409</ele>
        <time>2016-06-12T07:32:57.000Z</time>
      </trkpt>
      <trkpt lat="47.49252" lon="6.72362">
        <ele>409</ele>
        <time>2016-06-12T07:32:58.000Z</time>
      </trkpt>
      <trkpt lat="47.49252" lon="6.72356">
        <ele>409</ele>
        <time>2016-06-12T07:32:59.000Z</time>
      </trkpt>
      <trkpt lat="47.49253" lon="6.72351">
        <ele>409</ele>
        <time>2016-06-12T07:33:00.000Z</time>
      </trkpt>
      <trkpt lat="47.49254" lon="6.72345">
        <ele>409</ele>
        <time>2016-06-12T07:33:01.000Z</time>
      </trkpt>
      <trkpt lat="47.49255" lon="6.7234">
        <ele>409</ele>
        <time>2016-06-12T07:33:02.000Z</time>
      </trkpt>
      <trkpt lat="47.49256" lon="6.72336">
        <ele>409</ele>
        <time>2016-06-12T07:33:03.000Z</time>
      </trkpt>
      <trkpt lat="47.49257" lon="6.72331">
        <ele>410</ele>
        <time>2016-06-12T07:33:04.000Z</time>
      </trkpt>
      <trkpt lat="47.49258" lon="6.72327">
        <ele>410</ele>
        <time>2016-06-12T07:33:05.000Z</time>
      </trkpt>
      <trkpt lat="47.49258" lon="6.72322">
        <ele>411</ele>
        <time>2016-06-12T07:33:06.000Z</time>
      </trkpt>
      <trkpt lat="47.49258" lon="6.72318">
        <ele>411</ele>
        <time>2016-06-12T07:33:07.000Z</time>
      </trkpt>
      <trkpt lat="47.49257" lon="6.72313">
        <ele>411</ele>
        <time>2016-06-12T07:33:08.000Z</time>
      </trkpt>
      <trkpt lat="47.49257" lon="6.72309">
        <ele>412</ele>
        <time>2016-06-12T07:33:09.000Z</time>
      </trkpt>
      <trkpt lat="47.49256" lon="6.72305">
        <ele>412</ele>
        <time>2016-06-12T07:33:10.000Z</time>
      </trkpt>
      <trkpt lat="47.49255" lon="6.723">
        <ele>412</ele>
        <time>2016-06-12T07:33:11.000Z</time>
      </trkpt>
      <trkpt lat="47.49253" lon="6.72296">
        <ele>412</ele>
        <time>2016-06-12T07:33:12.000Z</time>
      </trkpt>
      <trkpt lat="47.49252" lon="6.72291">
        <ele>412</ele>
        <time>2016-06-12T07:33:13.000Z</time>
      </trkpt>
      <trkpt lat="47.49251" lon="6.72286">
        <ele>412</ele>
        <time>2016-06-12T07:33:14.000Z</time>
      </trkpt>
      <trkpt lat="47.49249" lon="6.72282">
        <ele>406</ele>
        <time>2016-06-12T07:33:15.000Z</time>
      </trkpt>
      <trkpt lat="47.49247" lon="6.72278">
        <ele>406</ele>
        <time>2016-06-12T07:33:16.000Z</time>
      </trkpt>
      <trkpt lat="47.49245" lon="6.72273">
        <ele>406</ele>
        <time>2016-06-12T07:33:17.000Z</time>
      </trkpt>
      <trkpt lat="47.49243" lon="6.72268">
        <ele>407</ele>
        <time>2016-06-12T07:33:18.000Z</time>
      </trkpt>
      <trkpt lat="47.49241" lon="6.72263">
        <ele>407</ele>
        <time>2016-06-12T07:33:19.000Z</time>
      </trkpt>
      <trkpt lat="47.4924" lon="6.72257">
        <ele>408</ele>
        <time>2016-06-12T07:33:20.000Z</time>
      </trkpt>
      <trkpt lat="47.49239" lon="6.72252">
        <ele>408</ele>
        <time>2016-06-12T07:33:21.000Z</time>
      </trkpt>
      <trkpt lat="47.49238" lon="6.72246">
        <ele>409</ele>
        <time>2016-06-12T07:33:22.000Z</time>
      </trkpt>
      <trkpt lat="47.49237" lon="6.72239">
        <ele>408</ele>
        <time>2016-06-12T07:33:23.000Z</time>
      </trkpt>
      <trkpt lat="47.49236" lon="6.72232">
        <ele>408</ele>
        <time>2016-06-12T07:33:24.000Z</time>
      </trkpt>
      <trkpt lat="47.49235" lon="6.72225">
        <ele>407</ele>
        <time>2016-06-12T07:33:25.000Z</time>
      </trkpt>
      <trkpt lat="47.49234" lon="6.72219">
        <ele>407</ele>
        <time>2016-06-12T07:33:26.000Z</time>
      </trkpt>
      <trkpt lat="47.49233" lon="6.72213">
        <ele>407</ele>
        <time>2016-06-12T07:33:27.000Z</time>
      </trkpt>
      <trkpt lat="47.49232" lon="6.72207">
        <ele>407</ele>
        <time>2016-06-12T07:33:28.000Z</time>
      </trkpt>
      <trkpt lat="47.49232" lon="6.72201">
        <ele>407</ele>
        <time>2016-06-12T07:33:29.000Z</time>
      </trkpt>
      <trkpt lat="47.49233" lon="6.72194">
        <ele>408</ele>
        <time>2016-06-12T07:33:30.000Z</time>
      </trkpt>
      <trkpt lat="47.49235" lon="6.72188">
        <ele>409</ele>
        <time>2016-06-12T07:33:31.000Z</time>
      </trkpt>
      <trkpt lat="47.49237" lon="6.72182">
        <ele>410</ele>
        <time>2016-06-12T07:33:32.000Z</time>
      </trkpt>
      <trkpt lat="47.49238" lon="6.72175">
        <ele>411</ele>
        <time>2016-06-12T07:33:33.000Z</time>
      </trkpt>
      <trkpt lat="47.49239" lon="6.72169">
        <ele>412</ele>
        <time>2016-06-12T07:33:34.000Z</time>
      </trkpt>
      <trkpt lat="47.49239" lon="6.72163">
        <ele>413</ele>
        <time>2016-06-12T07:33:35.000Z</time>
      </trkpt>
      <trkpt lat="47.49239" lon="6.72158">
        <ele>412</ele>
        <time>2016-06-12T07:33:36.000Z</time>
      </trkpt>
      <trkpt lat="47.49239" lon="6.72153">
        <ele>411</ele>
        <time>2016-06-12T07:33:37.000Z</time>
      </trkpt>
      <trkpt lat="47.49239" lon="6.72147">
        <ele>411</ele>
        <time>2016-06-12T07:33:38.000Z</time>
      </trkpt>
      <trkpt lat="47.49238" lon="6.72143">
        <ele>410</ele>
        <time>2016-06-12T07:33:39.000Z</time>
      </trkpt>
      <trkpt lat="47.49238" lon="6.72138">
        <ele>410</ele>
        <time>2016-06-12T07:33:40.000Z</time>
      </trkpt>
      <trkpt lat="47.49237" lon="6.72133">
        <ele>410</ele>
        <time>2016-06-12T07:33:41.000Z</time>
      </trkpt>
      <trkpt lat="47.49236" lon="6.72128">
        <ele>409</ele>
        <time>2016-06-12T07:33:42.000Z</time>
      </trkpt>
      <trkpt lat="47.49234" lon="6.72123">
        <ele>409</ele>
        <time>2016-06-12T07:33:43.000Z</time>
      </trkpt>
      <trkpt lat="47.49233" lon="6.72118">
        <ele>409</ele>
        <time>2016-06-12T07:33:44.000Z</time>
      </trkpt>
      <trkpt lat="47.49232" lon="6.72113">
        <ele>409</ele>
        <time>2016-06-12T07:33:45.000Z</time>
      </trkpt>
      <trkpt lat="47.49232" lon="6.72109">
        <ele>410</ele>
        <time>2016-06-12T07:33:46.000Z</time>
      </trkpt>
      <trkpt lat="47.49232" lon="6.72105">
        <ele>410</ele>
        <time>2016-06-12T07:33:47.000Z</time>
      </trkpt>
      <trkpt lat="47.49232" lon="6.72101">
        <ele>410</ele>
        <time>2016-06-12T07:33:48.000Z</time>
      </trkpt>
      <trkpt lat="47.49232" lon="6.72098">
        <ele>410</ele>
        <time>2016-06-12T07:33:49.000Z</time>
      </trkpt>
      <trkpt lat="47.49234" lon="6.72093">
        <ele>411</ele>
        <time>2016-06-12T07:33:51.000Z</time>
      </trkpt>
      <trkpt lat="47.49235" lon="6.7209">
        <ele>411</ele>
        <time>2016-06-12T07:33:52.000Z</time>
      </trkpt>
      <trkpt lat="47.49236" lon="6.72086">
        <ele>412</ele>
        <time>2016-06-12T07:33:54.000Z</time>
      </trkpt>
      <trkpt lat="47.49236" lon="6.72083">
        <ele>413</ele>
        <time>2016-06-12T07:33:55.000Z</time>
      </trkpt>
      <trkpt lat="47.49236" lon="6.72079">
        <ele>413</ele>
        <time>2016-06-12T07:33:56.000Z</time>
      </trkpt>
      <trkpt lat="47.49236" lon="6.72075">
        <ele>412</ele>
        <time>2016-06-12T07:33:57.000Z</time>
      </trkpt>
      <trkpt lat="47.49237" lon="6.72071">
        <ele>412</ele>
        <time>2016-06-12T07:33:58.000Z</time>
      </trkpt>
      <trkpt lat="47.49236" lon="6.72068">
        <ele>412</ele>
        <time>2016-06-12T07:33:59.000Z</time>
      </trkpt>
      <trkpt lat="47.49236" lon="6.72064">
        <ele>412</ele>
        <time>2016-06-12T07:34:00.000Z</time>
      </trkpt>
      <trkpt lat="47.49236" lon="6.72061">
        <ele>411</ele>
        <time>2016-06-12T07:34:01.000Z</time>
      </trkpt>
      <trkpt lat="47.49235" lon="6.72055">
        <ele>411</ele>
        <time>2016-06-12T07:34:03.000Z</time>
      </trkpt>
      <trkpt lat="47.49234" lon="6.72053">
        <ele>411</ele>
        <time>2016-06-12T07:34:04.000Z</time>
      </trkpt>
      <trkpt lat="47.49231" lon="6.72049">
        <ele>411</ele>
        <time>2016-06-12T07:34:10.000Z</time>
      </trkpt>
      <trkpt lat="47.4923" lon="6.72049">
        <ele>411</ele>
        <time>2016-06-12T07:34:11.000Z</time>
      </trkpt>
      <trkpt lat="47.49227" lon="6.72044">
        <ele>411</ele>
        <time>2016-06-12T07:34:14.000Z</time>
      </trkpt>
      <trkpt lat="47.49227" lon="6.72042">
        <ele>411</ele>
        <time>2016-06-12T07:34:15.000Z</time>
      </trkpt>
      <trkpt lat="47.49229" lon="6.72036">
        <ele>411</ele>
        <time>2016-06-12T07:34:17.000Z</time>
      </trkpt>
      <trkpt lat="47.49229" lon="6.72033">
        <ele>411</ele>
        <time>2016-06-12T07:34:18.000Z</time>
      </trkpt>
      <trkpt lat="47.4923" lon="6.72027">
        <ele>411</ele>
        <time>2016-06-12T07:34:20.000Z</time>
      </trkpt>
      <trkpt lat="47.49231" lon="6.72024">
        <ele>412</ele>
        <time>2016-06-12T07:34:21.000Z</time>
      </trkpt>
      <trkpt lat="47.49231" lon="6.72019">
        <ele>412</ele>
        <time>2016-06-12T07:34:23.000Z</time>
      </trkpt>
      <trkpt lat="47.49232" lon="6.72016">
        <ele>412</ele>
        <time>2016-06-12T07:34:24.000Z</time>
      </trkpt>
      <trkpt lat="47.49233" lon="6.72011">
        <ele>413</ele>
        <time>2016-06-12T07:34:26.000Z</time>
      </trkpt>
      <trkpt lat="47.49233" lon="6.72009">
        <ele>413</ele>
        <time>2016-06-12T07:34:27.000Z</time>
      </trkpt>
      <trkpt lat="47.49232" lon="6.72003">
        <ele>413</ele>
        <time>2016-06-12T07:34:31.000Z</time>
      </trkpt>
      <trkpt lat="47.49232" lon="6.72002">
        <ele>413</ele>
        <time>2016-06-12T07:34:32.000Z</time>
      </trkpt>
      <trkpt lat="47.49228" lon="6.72005">
        <ele>412</ele>
        <time>2016-06-12T07:34:39.000Z</time>
      </trkpt>
      <trkpt lat="47.49227" lon="6.72006">
        <ele>412</ele>
        <time>2016-06-12T07:34:40.000Z</time>
      </trkpt>
      <trkpt lat="47.49225" lon="6.72002">
        <ele>412</ele>
        <time>2016-06-12T07:34:46.000Z</time>
      </trkpt>
      <trkpt lat="47.49224" lon="6.72">
        <ele>412</ele>
        <time>2016-06-12T07:34:47.000Z</time>
      </trkpt>
      <trkpt lat="47.49222" lon="6.71996">
        <ele>413</ele>
        <time>2016-06-12T07:34:49.000Z</time>
      </trkpt>
      <trkpt lat="47.49221" lon="6.71995">
        <ele>413</ele>
        <time>2016-06-12T07:34:50.000Z</time>
      </trkpt>
      <trkpt lat="47.49218" lon="6.71991">
        <ele>412</ele>
        <time>2016-06-12T07:34:53.000Z</time>
      </trkpt>
      <trkpt lat="47.49217" lon="6.7199">
        <ele>412</ele>
        <time>2016-06-12T07:34:54.000Z</time>
      </trkpt>
      <trkpt lat="47.49214" lon="6.71987">
        <ele>412</ele>
        <time>2016-06-12T07:34:57.000Z</time>
      </trkpt>
      <trkpt lat="47.49213" lon="6.71986">
        <ele>411</ele>
        <time>2016-06-12T07:34:58.000Z</time>
      </trkpt>
      <trkpt lat="47.49209" lon="6.71984">
        <ele>411</ele>
        <time>2016-06-12T07:35:00.000Z</time>
      </trkpt>
      <trkpt lat="47.49207" lon="6.71982">
        <ele>411</ele>
        <time>2016-06-12T07:35:01.000Z</time>
      </trkpt>
      <trkpt lat="47.49205" lon="6.71979">
        <ele>411</ele>
        <time>2016-06-12T07:35:02.000Z</time>
      </trkpt>
      <trkpt lat="47.49203" lon="6.71976">
        <ele>410</ele>
        <time>2016-06-12T07:35:03.000Z</time>
      </trkpt>
      <trkpt lat="47.49201" lon="6.71973">
        <ele>410</ele>
        <time>2016-06-12T07:35:04.000Z</time>
      </trkpt>
      <trkpt lat="47.49199" lon="6.7197">
        <ele>410</ele>
        <time>2016-06-12T07:35:05.000Z</time>
      </trkpt>
      <trkpt lat="47.49197" lon="6.71967">
        <ele>410</ele>
        <time>2016-06-12T07:35:06.000Z</time>
      </trkpt>
      <trkpt lat="47.49195" lon="6.71964">
        <ele>410</ele>
        <time>2016-06-12T07:35:07.000Z</time>
      </trkpt>
      <trkpt lat="47.49193" lon="6.71959">
        <ele>410</ele>
        <time>2016-06-12T07:35:09.000Z</time>
      </trkpt>
      <trkpt lat="47.49191" lon="6.71957">
        <ele>410</ele>
        <time>2016-06-12T07:35:10.000Z</time>
      </trkpt>
      <trkpt lat="47.4919" lon="6.71954">
        <ele>410</ele>
        <time>2016-06-12T07:35:11.000Z</time>
      </trkpt>
      <trkpt lat="47.49189" lon="6.7195">
        <ele>410</ele>
        <time>2016-06-12T07:35:12.000Z</time>
      </trkpt>
      <trkpt lat="47.49188" lon="6.71947">
        <ele>410</ele>
        <time>2016-06-12T07:35:13.000Z</time>
      </trkpt>
      <trkpt lat="47.49187" lon="6.71943">
        <ele>409</ele>
        <time>2016-06-12T07:35:14.000Z</time>
      </trkpt>
      <trkpt lat="47.49187" lon="6.71939">
        <ele>409</ele>
        <time>2016-06-12T07:35:15.000Z</time>
      </trkpt>
      <trkpt lat="47.49186" lon="6.71935">
        <ele>409</ele>
        <time>2016-06-12T07:35:16.000Z</time>
      </trkpt>
      <trkpt lat="47.49185" lon="6.71931">
        <ele>409</ele>
        <time>2016-06-12T07:35:17.000Z</time>
      </trkpt>
      <trkpt lat="47.49183" lon="6.71928">
        <ele>409</ele>
        <time>2016-06-12T07:35:18.000Z</time>
      </trkpt>
      <trkpt lat="47.49182" lon="6.71925">
        <ele>408</ele>
        <time>2016-06-12T07:35:19.000Z</time>
      </trkpt>
      <trkpt lat="47.49181" lon="6.71921">
        <ele>408</ele>
        <time>2016-06-12T07:35:20.000Z</time>
      </trkpt>
      <trkpt lat="47.49181" lon="6.71915">
        <ele>409</ele>
        <time>2016-06-12T07:35:22.000Z</time>
      </trkpt>
      <trkpt lat="47.49181" lon="6.71913">
        <ele>409</ele>
        <time>2016-06-12T07:35:23.000Z</time>
      </trkpt>
      <trkpt lat="47.49181" lon="6.71907">
        <ele>409</ele>
        <time>2016-06-12T07:35:25.000Z</time>
      </trkpt>
      <trkpt lat="47.4918" lon="6.71904">
        <ele>409</ele>
        <time>2016-06-12T07:35:26.000Z</time>
      </trkpt>
      <trkpt lat="47.4918" lon="6.71899">
        <ele>410</ele>
        <time>2016-06-12T07:35:28.000Z</time>
      </trkpt>
      <trkpt lat="47.4918" lon="6.71896">
        <ele>410</ele>
        <time>2016-06-12T07:35:29.000Z</time>
      </trkpt>
      <trkpt lat="47.49177" lon="6.71891">
        <ele>410</ele>
        <time>2016-06-12T07:35:31.000Z</time>
      </trkpt>
      <trkpt lat="47.49176" lon="6.71889">
        <ele>410</ele>
        <time>2016-06-12T07:35:32.000Z</time>
      </trkpt>
      <trkpt lat="47.49172" lon="6.71887">
        <ele>410</ele>
        <time>2016-06-12T07:35:34.000Z</time>
      </trkpt>
      <trkpt lat="47.4917" lon="6.71886">
        <ele>410</ele>
        <time>2016-06-12T07:35:35.000Z</time>
      </trkpt>
      <trkpt lat="47.49167" lon="6.71882">
        <ele>410</ele>
        <time>2016-06-12T07:35:37.000Z</time>
      </trkpt>
      <trkpt lat="47.49166" lon="6.7188">
        <ele>399</ele>
        <time>2016-06-12T07:35:38.000Z</time>
      </trkpt>
      <trkpt lat="47.49164" lon="6.71875">
        <ele>399</ele>
        <time>2016-06-12T07:35:40.000Z</time>
      </trkpt>
      <trkpt lat="47.49163" lon="6.71873">
        <ele>399</ele>
        <time>2016-06-12T07:35:41.000Z</time>
      </trkpt>
      <trkpt lat="47.49161" lon="6.71867">
        <ele>399</ele>
        <time>2016-06-12T07:35:43.000Z</time>
      </trkpt>
      <trkpt lat="47.49161" lon="6.71865">
        <ele>399</ele>
        <time>2016-06-12T07:35:44.000Z</time>
      </trkpt>
      <trkpt lat="47.4916" lon="6.71859">
        <ele>400</ele>
        <time>2016-06-12T07:35:46.000Z</time>
      </trkpt>
      <trkpt lat="47.49159" lon="6.71856">
        <ele>400</ele>
        <time>2016-06-12T07:35:47.000Z</time>
      </trkpt>
      <trkpt lat="47.49158" lon="6.71853">
        <ele>400</ele>
        <time>2016-06-12T07:35:48.000Z</time>
      </trkpt>
      <trkpt lat="47.49157" lon="6.7185">
        <ele>401</ele>
        <time>2016-06-12T07:35:49.000Z</time>
      </trkpt>
      <trkpt lat="47.49154" lon="6.71845">
        <ele>401</ele>
        <time>2016-06-12T07:35:51.000Z</time>
      </trkpt>
      <trkpt lat="47.49153" lon="6.71843">
        <ele>401</ele>
        <time>2016-06-12T07:35:52.000Z</time>
      </trkpt>
      <trkpt lat="47.4915" lon="6.71838">
        <ele>401</ele>
        <time>2016-06-12T07:35:54.000Z</time>
      </trkpt>
      <trkpt lat="47.49148" lon="6.71836">
        <ele>400</ele>
        <time>2016-06-12T07:35:55.000Z</time>
      </trkpt>
      <trkpt lat="47.49146" lon="6.7183">
        <ele>400</ele>
        <time>2016-06-12T07:35:57.000Z</time>
      </trkpt>
      <trkpt lat="47.49144" lon="6.71828">
        <ele>400</ele>
        <time>2016-06-12T07:35:58.000Z</time>
      </trkpt>
      <trkpt lat="47.49142" lon="6.71823">
        <ele>400</ele>
        <time>2016-06-12T07:36:00.000Z</time>
      </trkpt>
      <trkpt lat="47.49141" lon="6.71821">
        <ele>399</ele>
        <time>2016-06-12T07:36:01.000Z</time>
      </trkpt>
      <trkpt lat="47.49141" lon="6.71818">
        <ele>399</ele>
        <time>2016-06-12T07:36:02.000Z</time>
      </trkpt>
      <trkpt lat="47.4914" lon="6.71814">
        <ele>399</ele>
        <time>2016-06-12T07:36:03.000Z</time>
      </trkpt>
      <trkpt lat="47.49139" lon="6.71811">
        <ele>399</ele>
        <time>2016-06-12T07:36:04.000Z</time>
      </trkpt>
      <trkpt lat="47.49138" lon="6.71807">
        <ele>399</ele>
        <time>2016-06-12T07:36:05.000Z</time>
      </trkpt>
      <trkpt lat="47.49137" lon="6.71804">
        <ele>398</ele>
        <time>2016-06-12T07:36:06.000Z</time>
      </trkpt>
      <trkpt lat="47.49137" lon="6.718">
        <ele>398</ele>
        <time>2016-06-12T07:36:07.000Z</time>
      </trkpt>
      <trkpt lat="47.49136" lon="6.71796">
        <ele>398</ele>
        <time>2016-06-12T07:36:08.000Z</time>
      </trkpt>
      <trkpt lat="47.49135" lon="6.71793">
        <ele>398</ele>
        <time>2016-06-12T07:36:09.000Z</time>
      </trkpt>
      <trkpt lat="47.49135" lon="6.71789">
        <ele>398</ele>
        <time>2016-06-12T07:36:10.000Z</time>
      </trkpt>
      <trkpt lat="47.49134" lon="6.71784">
        <ele>398</ele>
        <time>2016-06-12T07:36:11.000Z</time>
      </trkpt>
      <trkpt lat="47.49133" lon="6.71781">
        <ele>398</ele>
        <time>2016-06-12T07:36:12.000Z</time>
      </trkpt>
      <trkpt lat="47.49132" lon="6.71778">
        <ele>398</ele>
        <time>2016-06-12T07:36:13.000Z</time>
      </trkpt>
      <trkpt lat="47.49131" lon="6.71775">
        <ele>398</ele>
        <time>2016-06-12T07:36:14.000Z</time>
      </trkpt>
      <trkpt lat="47.49129" lon="6.71772">
        <ele>398</ele>
        <time>2016-06-12T07:36:15.000Z</time>
      </trkpt>
      <trkpt lat="47.49126" lon="6.71769">
        <ele>397</ele>
        <time>2016-06-12T07:36:16.000Z</time>
      </trkpt>
      <trkpt lat="47.49123" lon="6.71766">
        <ele>397</ele>
        <time>2016-06-12T07:36:17.000Z</time>
      </trkpt>
      <trkpt lat="47.4912" lon="6.71763">
        <ele>396</ele>
        <time>2016-06-12T07:36:18.000Z</time>
      </trkpt>
      <trkpt lat="47.49118" lon="6.7176">
        <ele>396</ele>
        <time>2016-06-12T07:36:19.000Z</time>
      </trkpt>
      <trkpt lat="47.49115" lon="6.71757">
        <ele>396</ele>
        <time>2016-06-12T07:36:20.000Z</time>
      </trkpt>
      <trkpt lat="47.49113" lon="6.71754">
        <ele>395</ele>
        <time>2016-06-12T07:36:21.000Z</time>
      </trkpt>
      <trkpt lat="47.49111" lon="6.7175">
        <ele>395</ele>
        <time>2016-06-12T07:36:22.000Z</time>
      </trkpt>
      <trkpt lat="47.4911" lon="6.71747">
        <ele>397</ele>
        <time>2016-06-12T07:36:23.000Z</time>
      </trkpt>
      <trkpt lat="47.49109" lon="6.71741">
        <ele>397</ele>
        <time>2016-06-12T07:36:25.000Z</time>
      </trkpt>
      <trkpt lat="47.4911" lon="6.71739">
        <ele>397</ele>
        <time>2016-06-12T07:36:26.000Z</time>
      </trkpt>
      <trkpt lat="47.49111" lon="6.71736">
        <ele>397</ele>
        <time>2016-06-12T07:36:27.000Z</time>
      </trkpt>
      <trkpt lat="47.49112" lon="6.71732">
        <ele>398</ele>
        <time>2016-06-12T07:36:28.000Z</time>
      </trkpt>
      <trkpt lat="47.49114" lon="6.71729">
        <ele>398</ele>
        <time>2016-06-12T07:36:29.000Z</time>
      </trkpt>
      <trkpt lat="47.49115" lon="6.71725">
        <ele>398</ele>
        <time>2016-06-12T07:36:30.000Z</time>
      </trkpt>
      <trkpt lat="47.49117" lon="6.71722">
        <ele>399</ele>
        <time>2016-06-12T07:36:31.000Z</time>
      </trkpt>
      <trkpt lat="47.4912" lon="6.71718">
        <ele>399</ele>
        <time>2016-06-12T07:36:32.000Z</time>
      </trkpt>
      <trkpt lat="47.49123" lon="6.71714">
        <ele>400</ele>
        <time>2016-06-12T07:36:33.000Z</time>
      </trkpt>
      <trkpt lat="47.49125" lon="6.71711">
        <ele>400</ele>
        <time>2016-06-12T07:36:34.000Z</time>
      </trkpt>
      <trkpt lat="47.49127" lon="6.71706">
        <ele>400</ele>
        <time>2016-06-12T07:36:35.000Z</time>
      </trkpt>
      <trkpt lat="47.49128" lon="6.71702">
        <ele>401</ele>
        <time>2016-06-12T07:36:36.000Z</time>
      </trkpt>
      <trkpt lat="47.49128" lon="6.71698">
        <ele>401</ele>
        <time>2016-06-12T07:36:37.000Z</time>
      </trkpt>
      <trkpt lat="47.49129" lon="6.71694">
        <ele>401</ele>
        <time>2016-06-12T07:36:38.000Z</time>
      </trkpt>
      <trkpt lat="47.4913" lon="6.71691">
        <ele>401</ele>
        <time>2016-06-12T07:36:39.000Z</time>
      </trkpt>
      <trkpt lat="47.49131" lon="6.71687">
        <ele>402</ele>
        <time>2016-06-12T07:36:40.000Z</time>
      </trkpt>
      <trkpt lat="47.49131" lon="6.71684">
        <ele>402</ele>
        <time>2016-06-12T07:36:41.000Z</time>
      </trkpt>
      <trkpt lat="47.49132" lon="6.71681">
        <ele>402</ele>
        <time>2016-06-12T07:36:42.000Z</time>
      </trkpt>
      <trkpt lat="47.49133" lon="6.71677">
        <ele>402</ele>
        <time>2016-06-12T07:36:43.000Z</time>
      </trkpt>
      <trkpt lat="47.49133" lon="6.71673">
        <ele>402</ele>
        <time>2016-06-12T07:36:44.000Z</time>
      </trkpt>
      <trkpt lat="47.49134" lon="6.7167">
        <ele>403</ele>
        <time>2016-06-12T07:36:45.000Z</time>
      </trkpt>
      <trkpt lat="47.49135" lon="6.71666">
        <ele>405</ele>
        <time>2016-06-12T07:36:46.000Z</time>
      </trkpt>
      <trkpt lat="47.49136" lon="6.71663">
        <ele>405</ele>
        <time>2016-06-12T07:36:47.000Z</time>
      </trkpt>
      <trkpt lat="47.49137" lon="6.71659">
        <ele>405</ele>
        <time>2016-06-12T07:36:48.000Z</time>
      </trkpt>
      <trkpt lat="47.49137" lon="6.71653">
        <ele>405</ele>
        <time>2016-06-12T07:36:50.000Z</time>
      </trkpt>
      <trkpt lat="47.49137" lon="6.71651">
        <ele>405</ele>
        <time>2016-06-12T07:36:51.000Z</time>
      </trkpt>
      <trkpt lat="47.49136" lon="6.71646">
        <ele>404</ele>
        <time>2016-06-12T07:36:53.000Z</time>
      </trkpt>
      <trkpt lat="47.49136" lon="6.71643">
        <ele>404</ele>
        <time>2016-06-12T07:36:54.000Z</time>
      </trkpt>
      <trkpt lat="47.49137" lon="6.71638">
        <ele>404</ele>
        <time>2016-06-12T07:36:56.000Z</time>
      </trkpt>
      <trkpt lat="47.49137" lon="6.71635">
        <ele>404</ele>
        <time>2016-06-12T07:36:57.000Z</time>
      </trkpt>
      <trkpt lat="47.49138" lon="6.71629">
        <ele>404</ele>
        <time>2016-06-12T07:36:59.000Z</time>
      </trkpt>
      <trkpt lat="47.49139" lon="6.71626">
        <ele>405</ele>
        <time>2016-06-12T07:37:00.000Z</time>
      </trkpt>
      <trkpt lat="47.49141" lon="6.71621">
        <ele>405</ele>
        <time>2016-06-12T07:37:02.000Z</time>
      </trkpt>
      <trkpt lat="47.49142" lon="6.71618">
        <ele>405</ele>
        <time>2016-06-12T07:37:03.000Z</time>
      </trkpt>
      <trkpt lat="47.49143" lon="6.71614">
        <ele>405</ele>
        <time>2016-06-12T07:37:04.000Z</time>
      </trkpt>
      <trkpt lat="47.49145" lon="6.71611">
        <ele>405</ele>
        <time>2016-06-12T07:37:05.000Z</time>
      </trkpt>
      <trkpt lat="47.49147" lon="6.71607">
        <ele>406</ele>
        <time>2016-06-12T07:37:06.000Z</time>
      </trkpt>
      <trkpt lat="47.49148" lon="6.71603">
        <ele>406</ele>
        <time>2016-06-12T07:37:07.000Z</time>
      </trkpt>
      <trkpt lat="47.4915" lon="6.71599">
        <ele>407</ele>
        <time>2016-06-12T07:37:08.000Z</time>
      </trkpt>
      <trkpt lat="47.49151" lon="6.71596">
        <ele>407</ele>
        <time>2016-06-12T07:37:09.000Z</time>
      </trkpt>
      <trkpt lat="47.49152" lon="6.71592">
        <ele>408</ele>
        <time>2016-06-12T07:37:10.000Z</time>
      </trkpt>
      <trkpt lat="47.49153" lon="6.71589">
        <ele>408</ele>
        <time>2016-06-12T07:37:11.000Z</time>
      </trkpt>
      <trkpt lat="47.49155" lon="6.71583">
        <ele>409</ele>
        <time>2016-06-12T07:37:13.000Z</time>
      </trkpt>
      <trkpt lat="47.49156" lon="6.71581">
        <ele>409</ele>
        <time>2016-06-12T07:37:14.000Z</time>
      </trkpt>
      <trkpt lat="47.49157" lon="6.71575">
        <ele>409</ele>
        <time>2016-06-12T07:37:17.000Z</time>
      </trkpt>
      <trkpt lat="47.49157" lon="6.71573">
        <ele>409</ele>
        <time>2016-06-12T07:37:18.000Z</time>
      </trkpt>
      <trkpt lat="47.4916" lon="6.71568">
        <ele>409</ele>
        <time>2016-06-12T07:37:21.000Z</time>
      </trkpt>
      <trkpt lat="47.49161" lon="6.71566">
        <ele>409</ele>
        <time>2016-06-12T07:37:22.000Z</time>
      </trkpt>
      <trkpt lat="47.49164" lon="6.71563">
        <ele>408</ele>
        <time>2016-06-12T07:37:24.000Z</time>
      </trkpt>
      <trkpt lat="47.49165" lon="6.7156">
        <ele>408</ele>
        <time>2016-06-12T07:37:25.000Z</time>
      </trkpt>
      <trkpt lat="47.49167" lon="6.71556">
        <ele>417</ele>
        <time>2016-06-12T07:37:27.000Z</time>
      </trkpt>
      <trkpt lat="47.49168" lon="6.71554">
        <ele>417</ele>
        <time>2016-06-12T07:37:28.000Z</time>
      </trkpt>
      <trkpt lat="47.49171" lon="6.71551">
        <ele>418</ele>
        <time>2016-06-12T07:37:30.000Z</time>
      </trkpt>
      <trkpt lat="47.49172" lon="6.71549">
        <ele>418</ele>
        <time>2016-06-12T07:37:31.000Z</time>
      </trkpt>
      <trkpt lat="47.49175" lon="6.71544">
        <ele>418</ele>
        <time>2016-06-12T07:37:34.000Z</time>
      </trkpt>
      <trkpt lat="47.49175" lon="6.71542">
        <ele>418</ele>
        <time>2016-06-12T07:37:35.000Z</time>
      </trkpt>
      <trkpt lat="47.49178" lon="6.71537">
        <ele>418</ele>
        <time>2016-06-12T07:37:38.000Z</time>
      </trkpt>
      <trkpt lat="47.49179" lon="6.71536">
        <ele>419</ele>
        <time>2016-06-12T07:37:39.000Z</time>
      </trkpt>
      <trkpt lat="47.49181" lon="6.71531">
        <ele>419</ele>
        <time>2016-06-12T07:37:42.000Z</time>
      </trkpt>
      <trkpt lat="47.49182" lon="6.71529">
        <ele>419</ele>
        <time>2016-06-12T07:37:43.000Z</time>
      </trkpt>
      <trkpt lat="47.49185" lon="6.71526">
        <ele>419</ele>
        <time>2016-06-12T07:37:45.000Z</time>
      </trkpt>
      <trkpt lat="47.49186" lon="6.71525">
        <ele>419</ele>
        <time>2016-06-12T07:37:46.000Z</time>
      </trkpt>
      <trkpt lat="47.49188" lon="6.71522">
        <ele>419</ele>
        <time>2016-06-12T07:37:48.000Z</time>
      </trkpt>
      <trkpt lat="47.4919" lon="6.7152">
        <ele>419</ele>
        <time>2016-06-12T07:37:49.000Z</time>
      </trkpt>
      <trkpt lat="47.49191" lon="6.71515">
        <ele>419</ele>
        <time>2016-06-12T07:37:51.000Z</time>
      </trkpt>
      <trkpt lat="47.49191" lon="6.71513">
        <ele>419</ele>
        <time>2016-06-12T07:37:52.000Z</time>
      </trkpt>
      <trkpt lat="47.49192" lon="6.71508">
        <ele>419</ele>
        <time>2016-06-12T07:37:55.000Z</time>
      </trkpt>
      <trkpt lat="47.49192" lon="6.71507">
        <ele>419</ele>
        <time>2016-06-12T07:37:56.000Z</time>
      </trkpt>
      <trkpt lat="47.49193" lon="6.71501">
        <ele>419</ele>
        <time>2016-06-12T07:37:59.000Z</time>
      </trkpt>
      <trkpt lat="47.49194" lon="6.71499">
        <ele>420</ele>
        <time>2016-06-12T07:38:00.000Z</time>
      </trkpt>
      <trkpt lat="47.49196" lon="6.71494">
        <ele>420</ele>
        <time>2016-06-12T07:38:03.000Z</time>
      </trkpt>
      <trkpt lat="47.49197" lon="6.71492">
        <ele>420</ele>
        <time>2016-06-12T07:38:04.000Z</time>
      </trkpt>
      <trkpt lat="47.49198" lon="6.71487">
        <ele>421</ele>
        <time>2016-06-12T07:38:06.000Z</time>
      </trkpt>
      <trkpt lat="47.49199" lon="6.71485">
        <ele>421</ele>
        <time>2016-06-12T07:38:07.000Z</time>
      </trkpt>
      <trkpt lat="47.492" lon="6.71481">
        <ele>421</ele>
        <time>2016-06-12T07:38:10.000Z</time>
      </trkpt>
      <trkpt lat="47.492" lon="6.71479">
        <ele>421</ele>
        <time>2016-06-12T07:38:11.000Z</time>
      </trkpt>
      <trkpt lat="47.49201" lon="6.71474">
        <ele>421</ele>
        <time>2016-06-12T07:38:13.000Z</time>
      </trkpt>
      <trkpt lat="47.49202" lon="6.71471">
        <ele>421</ele>
        <time>2016-06-12T07:38:14.000Z</time>
      </trkpt>
      <trkpt lat="47.49203" lon="6.71466">
        <ele>422</ele>
        <time>2016-06-12T07:38:16.000Z</time>
      </trkpt>
      <trkpt lat="47.49204" lon="6.71465">
        <ele>422</ele>
        <time>2016-06-12T07:38:17.000Z</time>
      </trkpt>
      <trkpt lat="47.49206" lon="6.7146">
        <ele>422</ele>
        <time>2016-06-12T07:38:20.000Z</time>
      </trkpt>
      <trkpt lat="47.49207" lon="6.71459">
        <ele>422</ele>
        <time>2016-06-12T07:38:21.000Z</time>
      </trkpt>
      <trkpt lat="47.4921" lon="6.71455">
        <ele>422</ele>
        <time>2016-06-12T07:38:25.000Z</time>
      </trkpt>
      <trkpt lat="47.49211" lon="6.71454">
        <ele>423</ele>
        <time>2016-06-12T07:38:26.000Z</time>
      </trkpt>
      <trkpt lat="47.49213" lon="6.7145">
        <ele>423</ele>
        <time>2016-06-12T07:38:29.000Z</time>
      </trkpt>
      <trkpt lat="47.49214" lon="6.71449">
        <ele>423</ele>
        <time>2016-06-12T07:38:30.000Z</time>
      </trkpt>
      <trkpt lat="47.49216" lon="6.71444">
        <ele>423</ele>
        <time>2016-06-12T07:38:33.000Z</time>
      </trkpt>
      <trkpt lat="47.49217" lon="6.71442">
        <ele>423</ele>
        <time>2016-06-12T07:38:34.000Z</time>
      </trkpt>
      <trkpt lat="47.4922" lon="6.71437">
        <ele>424</ele>
        <time>2016-06-12T07:38:38.000Z</time>
      </trkpt>
      <trkpt lat="47.49221" lon="6.71436">
        <ele>424</ele>
        <time>2016-06-12T07:38:39.000Z</time>
      </trkpt>
      <trkpt lat="47.49223" lon="6.71433">
        <ele>424</ele>
        <time>2016-06-12T07:38:42.000Z</time>
      </trkpt>
      <trkpt lat="47.49224" lon="6.71431">
        <ele>425</ele>
        <time>2016-06-12T07:38:43.000Z</time>
      </trkpt>
      <trkpt lat="47.49226" lon="6.71425">
        <ele>425</ele>
        <time>2016-06-12T07:38:45.000Z</time>
      </trkpt>
      <trkpt lat="47.49226" lon="6.71422">
        <ele>425</ele>
        <time>2016-06-12T07:38:46.000Z</time>
      </trkpt>
      <trkpt lat="47.49228" lon="6.71419">
        <ele>426</ele>
        <time>2016-06-12T07:38:48.000Z</time>
      </trkpt>
      <trkpt lat="47.49229" lon="6.71417">
        <ele>426</ele>
        <time>2016-06-12T07:38:49.000Z</time>
      </trkpt>
      <trkpt lat="47.49232" lon="6.71412">
        <ele>427</ele>
        <time>2016-06-12T07:38:52.000Z</time>
      </trkpt>
      <trkpt lat="47.49233" lon="6.7141">
        <ele>427</ele>
        <time>2016-06-12T07:38:53.000Z</time>
      </trkpt>
      <trkpt lat="47.49236" lon="6.71406">
        <ele>427</ele>
        <time>2016-06-12T07:38:56.000Z</time>
      </trkpt>
      <trkpt lat="47.49237" lon="6.71404">
        <ele>427</ele>
        <time>2016-06-12T07:38:57.000Z</time>
      </trkpt>
      <trkpt lat="47.4924" lon="6.71401">
        <ele>427</ele>
        <time>2016-06-12T07:39:42.000Z</time>
      </trkpt>
      <trkpt lat="47.49241" lon="6.71402">
        <ele>428</ele>
        <time>2016-06-12T07:39:43.000Z</time>
      </trkpt>
      <trkpt lat="47.49245" lon="6.71402">
        <ele>428</ele>
        <time>2016-06-12T07:39:46.000Z</time>
      </trkpt>
      <trkpt lat="47.49246" lon="6.71403">
        <ele>428</ele>
        <time>2016-06-12T07:39:47.000Z</time>
      </trkpt>
      <trkpt lat="47.49249" lon="6.71406">
        <ele>429</ele>
        <time>2016-06-12T07:40:12.000Z</time>
      </trkpt>
      <trkpt lat="47.49251" lon="6.71405">
        <ele>435</ele>
        <time>2016-06-12T07:40:13.000Z</time>
      </trkpt>
      <trkpt lat="47.49255" lon="6.71404">
        <ele>435</ele>
        <time>2016-06-12T07:40:17.000Z</time>
      </trkpt>
      <trkpt lat="47.49256" lon="6.71405">
        <ele>435</ele>
        <time>2016-06-12T07:40:18.000Z</time>
      </trkpt>
      <trkpt lat="47.49259" lon="6.71401">
        <ele>436</ele>
        <time>2016-06-12T07:41:07.000Z</time>
      </trkpt>
      <trkpt lat="47.49259" lon="6.714">
        <ele>436</ele>
        <time>2016-06-12T07:41:08.000Z</time>
      </trkpt>
      <trkpt lat="47.49263" lon="6.71403">
        <ele>437</ele>
        <time>2016-06-12T07:42:50.000Z</time>
      </trkpt>
      <trkpt lat="47.49263" lon="6.71403">
        <ele>437</ele>
        <time>2016-06-12T07:42:51.000Z</time>
      </trkpt>
      <trkpt lat="47.49267" lon="6.71401">
        <ele>437</ele>
        <time>2016-06-12T07:43:14.000Z</time>
      </trkpt>
      <trkpt lat="47.49268" lon="6.714">
        <ele>438</ele>
        <time>2016-06-12T07:43:15.000Z</time>
      </trkpt>
      <trkpt lat="47.49271" lon="6.71397">
        <ele>438</ele>
        <time>2016-06-12T07:43:18.000Z</time>
      </trkpt>
      <trkpt lat="47.49272" lon="6.71396">
        <ele>438</ele>
        <time>2016-06-12T07:43:19.000Z</time>
      </trkpt>
      <trkpt lat="47.49275" lon="6.71392">
        <ele>439</ele>
        <time>2016-06-12T07:43:23.000Z</time>
      </trkpt>
      <trkpt lat="47.49276" lon="6.71391">
        <ele>439</ele>
        <time>2016-06-12T07:43:24.000Z</time>
      </trkpt>
      <trkpt lat="47.49279" lon="6.71389">
        <ele>440</ele>
        <time>2016-06-12T07:43:28.000Z</time>
      </trkpt>
      <trkpt lat="47.4928" lon="6.71388">
        <ele>440</ele>
        <time>2016-06-12T07:43:29.000Z</time>
      </trkpt>
      <trkpt lat="47.49283" lon="6.71384">
        <ele>440</ele>
        <time>2016-06-12T07:43:34.000Z</time>
      </trkpt>
      <trkpt lat="47.49283" lon="6.71383">
        <ele>440</ele>
        <time>2016-06-12T07:43:35.000Z</time>
      </trkpt>
      <trkpt lat="47.49284" lon="6.71377">
        <ele>441</ele>
        <time>2016-06-12T07:43:44.000Z</time>
      </trkpt>
      <trkpt lat="47.49284" lon="6.71376">
        <ele>441</ele>
        <time>2016-06-12T07:43:45.000Z</time>
      </trkpt>
      <trkpt lat="47.49285" lon="6.71369">
        <ele>441</ele>
        <time>2016-06-12T07:43:53.000Z</time>
      </trkpt>
      <trkpt lat="47.49285" lon="6.71369">
        <ele>441</ele>
        <time>2016-06-12T07:43:54.000Z</time>
      </trkpt>
      <trkpt lat="47.49289" lon="6.71365">
        <ele>441</ele>
        <time>2016-06-12T07:44:00.000Z</time>
      </trkpt>
      <trkpt lat="47.49289" lon="6.71363">
        <ele>441</ele>
        <time>2016-06-12T07:44:01.000Z</time>
      </trkpt>
      <trkpt lat="47.49293" lon="6.7136">
        <ele>442</ele>
        <time>2016-06-12T07:44:04.000Z</time>
      </trkpt>
      <trkpt lat="47.49293" lon="6.71359">
        <ele>442</ele>
        <time>2016-06-12T07:44:05.000Z</time>
      </trkpt>
      <trkpt lat="47.49295" lon="6.71354">
        <ele>442</ele>
        <time>2016-06-12T07:44:09.000Z</time>
      </trkpt>
      <trkpt lat="47.49295" lon="6.71352">
        <ele>442</ele>
        <time>2016-06-12T07:44:10.000Z</time>
      </trkpt>
      <trkpt lat="47.49296" lon="6.71347">
        <ele>443</ele>
        <time>2016-06-12T07:44:14.000Z</time>
      </trkpt>
      <trkpt lat="47.49297" lon="6.71347">
        <ele>443</ele>
        <time>2016-06-12T07:44:15.000Z</time>
      </trkpt>
      <trkpt lat="47.493" lon="6.71341">
        <ele>443</ele>
        <time>2016-06-12T07:44:26.000Z</time>
      </trkpt>
      <trkpt lat="47.493" lon="6.71341">
        <ele>443</ele>
        <time>2016-06-12T07:44:27.000Z</time>
      </trkpt>
      <trkpt lat="47.49302" lon="6.71337">
        <ele>444</ele>
        <time>2016-06-12T07:44:31.000Z</time>
      </trkpt>
      <trkpt lat="47.49303" lon="6.71335">
        <ele>444</ele>
        <time>2016-06-12T07:44:32.000Z</time>
      </trkpt>
      <trkpt lat="47.49305" lon="6.71329">
        <ele>446</ele>
        <time>2016-06-12T07:44:37.000Z</time>
      </trkpt>
      <trkpt lat="47.49305" lon="6.71328">
        <ele>446</ele>
        <time>2016-06-12T07:44:38.000Z</time>
      </trkpt>
      <trkpt lat="47.49305" lon="6.71323">
        <ele>446</ele>
        <time>2016-06-12T07:44:43.000Z</time>
      </trkpt>
      <trkpt lat="47.49305" lon="6.71321">
        <ele>446</ele>
        <time>2016-06-12T07:44:44.000Z</time>
      </trkpt>
      <trkpt lat="47.49306" lon="6.71315">
        <ele>446</ele>
        <time>2016-06-12T07:44:53.000Z</time>
      </trkpt>
      <trkpt lat="47.49306" lon="6.71314">
        <ele>446</ele>
        <time>2016-06-12T07:44:54.000Z</time>
      </trkpt>
      <trkpt lat="47.4931" lon="6.7131">
        <ele>446</ele>
        <time>2016-06-12T07:44:58.000Z</time>
      </trkpt>
      <trkpt lat="47.49311" lon="6.7131">
        <ele>446</ele>
        <time>2016-06-12T07:44:59.000Z</time>
      </trkpt>
      <trkpt lat="47.49314" lon="6.71305">
        <ele>446</ele>
        <time>2016-06-12T07:45:03.000Z</time>
      </trkpt>
      <trkpt lat="47.49314" lon="6.71304">
        <ele>447</ele>
        <time>2016-06-12T07:45:04.000Z</time>
      </trkpt>
      <trkpt lat="47.49315" lon="6.71299">
        <ele>447</ele>
        <time>2016-06-12T07:45:07.000Z</time>
      </trkpt>
      <trkpt lat="47.49315" lon="6.71297">
        <ele>447</ele>
        <time>2016-06-12T07:45:08.000Z</time>
      </trkpt>
      <trkpt lat="47.49315" lon="6.71291">
        <ele>447</ele>
        <time>2016-06-12T07:45:11.000Z</time>
      </trkpt>
      <trkpt lat="47.49315" lon="6.7129">
        <ele>447</ele>
        <time>2016-06-12T07:45:12.000Z</time>
      </trkpt>
      <trkpt lat="47.49315" lon="6.71284">
        <ele>447</ele>
        <time>2016-06-12T07:45:25.000Z</time>
      </trkpt>
      <trkpt lat="47.49315" lon="6.71282">
        <ele>447</ele>
        <time>2016-06-12T07:45:26.000Z</time>
      </trkpt>
      <trkpt lat="47.49316" lon="6.71277">
        <ele>447</ele>
        <time>2016-06-12T07:45:28.000Z</time>
      </trkpt>
      <trkpt lat="47.49316" lon="6.71275">
        <ele>448</ele>
        <time>2016-06-12T07:45:29.000Z</time>
      </trkpt>
      <trkpt lat="47.49316" lon="6.7127">
        <ele>448</ele>
        <time>2016-06-12T07:45:31.000Z</time>
      </trkpt>
      <trkpt lat="47.49316" lon="6.71268">
        <ele>448</ele>
        <time>2016-06-12T07:45:32.000Z</time>
      </trkpt>
      <trkpt lat="47.49316" lon="6.71262">
        <ele>449</ele>
        <time>2016-06-12T07:45:35.000Z</time>
      </trkpt>
      <trkpt lat="47.49316" lon="6.7126">
        <ele>449</ele>
        <time>2016-06-12T07:45:36.000Z</time>
      </trkpt>
      <trkpt lat="47.49315" lon="6.71255">
        <ele>449</ele>
        <time>2016-06-12T07:45:39.000Z</time>
      </trkpt>
      <trkpt lat="47.49315" lon="6.71253">
        <ele>449</ele>
        <time>2016-06-12T07:45:40.000Z</time>
      </trkpt>
      <trkpt lat="47.49315" lon="6.71248">
        <ele>451</ele>
        <time>2016-06-12T07:45:43.000Z</time>
      </trkpt>
      <trkpt lat="47.49314" lon="6.71246">
        <ele>450</ele>
        <time>2016-06-12T07:45:44.000Z</time>
      </trkpt>
      <trkpt lat="47.49314" lon="6.71241">
        <ele>450</ele>
        <time>2016-06-12T07:45:47.000Z</time>
      </trkpt>
      <trkpt lat="47.49314" lon="6.71239">
        <ele>450</ele>
        <time>2016-06-12T07:45:48.000Z</time>
      </trkpt>
      <trkpt lat="47.49315" lon="6.71233">
        <ele>450</ele>
        <time>2016-06-12T07:45:51.000Z</time>
      </trkpt>
      <trkpt lat="47.49314" lon="6.71231">
        <ele>450</ele>
        <time>2016-06-12T07:45:52.000Z</time>
      </trkpt>
      <trkpt lat="47.49314" lon="6.71226">
        <ele>450</ele>
        <time>2016-06-12T07:45:54.000Z</time>
      </trkpt>
      <trkpt lat="47.49314" lon="6.71223">
        <ele>449</ele>
        <time>2016-06-12T07:45:55.000Z</time>
      </trkpt>
      <trkpt lat="47.49315" lon="6.71217">
        <ele>449</ele>
        <time>2016-06-12T07:45:57.000Z</time>
      </trkpt>
      <trkpt lat="47.49315" lon="6.71215">
        <ele>449</ele>
        <time>2016-06-12T07:45:58.000Z</time>
      </trkpt>
      <trkpt lat="47.49313" lon="6.71209">
        <ele>449</ele>
        <time>2016-06-12T07:46:02.000Z</time>
      </trkpt>
      <trkpt lat="47.49313" lon="6.71207">
        <ele>449</ele>
        <time>2016-06-12T07:46:03.000Z</time>
      </trkpt>
      <trkpt lat="47.49313" lon="6.71202">
        <ele>449</ele>
        <time>2016-06-12T07:46:06.000Z</time>
      </trkpt>
      <trkpt lat="47.49313" lon="6.712">
        <ele>449</ele>
        <time>2016-06-12T07:46:07.000Z</time>
      </trkpt>
      <trkpt lat="47.49314" lon="6.71196">
        <ele>450</ele>
        <time>2016-06-12T07:46:09.000Z</time>
      </trkpt>
      <trkpt lat="47.49315" lon="6.71194">
        <ele>450</ele>
        <time>2016-06-12T07:46:10.000Z</time>
      </trkpt>
      <trkpt lat="47.49318" lon="6.71189">
        <ele>450</ele>
        <time>2016-06-12T07:46:12.000Z</time>
      </trkpt>
      <trkpt lat="47.49319" lon="6.71187">
        <ele>451</ele>
        <time>2016-06-12T07:46:13.000Z</time>
      </trkpt>
      <trkpt lat="47.4932" lon="6.71183">
        <ele>451</ele>
        <time>2016-06-12T07:46:15.000Z</time>
      </trkpt>
      <trkpt lat="47.49321" lon="6.7118">
        <ele>452</ele>
        <time>2016-06-12T07:46:16.000Z</time>
      </trkpt>
      <trkpt lat="47.49323" lon="6.71176">
        <ele>452</ele>
        <time>2016-06-12T07:46:18.000Z</time>
      </trkpt>
      <trkpt lat="47.49324" lon="6.71174">
        <ele>453</ele>
        <time>2016-06-12T07:46:19.000Z</time>
      </trkpt>
      <trkpt lat="47.49326" lon="6.71169">
        <ele>454</ele>
        <time>2016-06-12T07:46:21.000Z</time>
      </trkpt>
      <trkpt lat="47.49327" lon="6.71167">
        <ele>454</ele>
        <time>2016-06-12T07:46:22.000Z</time>
      </trkpt>
      <trkpt lat="47.4933" lon="6.71163">
        <ele>455</ele>
        <time>2016-06-12T07:46:24.000Z</time>
      </trkpt>
      <trkpt lat="47.49331" lon="6.71161">
        <ele>455</ele>
        <time>2016-06-12T07:46:25.000Z</time>
      </trkpt>
      <trkpt lat="47.49333" lon="6.71158">
        <ele>454</ele>
        <time>2016-06-12T07:46:27.000Z</time>
      </trkpt>
      <trkpt lat="47.49334" lon="6.71156">
        <ele>458</ele>
        <time>2016-06-12T07:46:28.000Z</time>
      </trkpt>
      <trkpt lat="47.49336" lon="6.71152">
        <ele>458</ele>
        <time>2016-06-12T07:46:30.000Z</time>
      </trkpt>
      <trkpt lat="47.49337" lon="6.7115">
        <ele>458</ele>
        <time>2016-06-12T07:46:31.000Z</time>
      </trkpt>
      <trkpt lat="47.49339" lon="6.71145">
        <ele>458</ele>
        <time>2016-06-12T07:46:34.000Z</time>
      </trkpt>
      <trkpt lat="47.4934" lon="6.71143">
        <ele>459</ele>
        <time>2016-06-12T07:46:35.000Z</time>
      </trkpt>
      <trkpt lat="47.49342" lon="6.71139">
        <ele>459</ele>
        <time>2016-06-12T07:46:37.000Z</time>
      </trkpt>
      <trkpt lat="47.49343" lon="6.71137">
        <ele>459</ele>
        <time>2016-06-12T07:46:38.000Z</time>
      </trkpt>
      <trkpt lat="47.49343" lon="6.71131">
        <ele>459</ele>
        <time>2016-06-12T07:46:41.000Z</time>
      </trkpt>
      <trkpt lat="47.49343" lon="6.7113">
        <ele>459</ele>
        <time>2016-06-12T07:46:42.000Z</time>
      </trkpt>
      <trkpt lat="47.49343" lon="6.71124">
        <ele>459</ele>
        <time>2016-06-12T07:46:47.000Z</time>
      </trkpt>
      <trkpt lat="47.49343" lon="6.71123">
        <ele>459</ele>
        <time>2016-06-12T07:46:48.000Z</time>
      </trkpt>
      <trkpt lat="47.49343" lon="6.71116">
        <ele>459</ele>
        <time>2016-06-12T07:46:59.000Z</time>
      </trkpt>
      <trkpt lat="47.49344" lon="6.71116">
        <ele>459</ele>
        <time>2016-06-12T07:47:00.000Z</time>
      </trkpt>
      <trkpt lat="47.49345" lon="6.7111">
        <ele>459</ele>
        <time>2016-06-12T07:47:32.000Z</time>
      </trkpt>
      <trkpt lat="47.49344" lon="6.71108">
        <ele>459</ele>
        <time>2016-06-12T07:47:33.000Z</time>
      </trkpt>
      <trkpt lat="47.49344" lon="6.71103">
        <ele>459</ele>
        <time>2016-06-12T07:47:35.000Z</time>
      </trkpt>
      <trkpt lat="47.49344" lon="6.711">
        <ele>459</ele>
        <time>2016-06-12T07:47:36.000Z</time>
      </trkpt>
      <trkpt lat="47.49344" lon="6.71094">
        <ele>459</ele>
        <time>2016-06-12T07:47:39.000Z</time>
      </trkpt>
      <trkpt lat="47.49343" lon="6.71092">
        <ele>459</ele>
        <time>2016-06-12T07:47:40.000Z</time>
      </trkpt>
      <trkpt lat="47.49341" lon="6.71086">
        <ele>459</ele>
        <time>2016-06-12T07:47:43.000Z</time>
      </trkpt>
      <trkpt lat="47.49341" lon="6.71084">
        <ele>459</ele>
        <time>2016-06-12T07:47:44.000Z</time>
      </trkpt>
      <trkpt lat="47.49338" lon="6.7108">
        <ele>458</ele>
        <time>2016-06-12T07:47:48.000Z</time>
      </trkpt>
      <trkpt lat="47.49336" lon="6.71078">
        <ele>458</ele>
        <time>2016-06-12T07:47:49.000Z</time>
      </trkpt>
      <trkpt lat="47.49334" lon="6.71073">
        <ele>459</ele>
        <time>2016-06-12T07:47:51.000Z</time>
      </trkpt>
      <trkpt lat="47.49333" lon="6.71072">
        <ele>456</ele>
        <time>2016-06-12T07:47:52.000Z</time>
      </trkpt>
      <trkpt lat="47.4933" lon="6.71068">
        <ele>456</ele>
        <time>2016-06-12T07:47:54.000Z</time>
      </trkpt>
      <trkpt lat="47.49329" lon="6.71066">
        <ele>456</ele>
        <time>2016-06-12T07:47:55.000Z</time>
      </trkpt>
      <trkpt lat="47.49327" lon="6.71063">
        <ele>455</ele>
        <time>2016-06-12T07:47:57.000Z</time>
      </trkpt>
      <trkpt lat="47.49326" lon="6.71061">
        <ele>455</ele>
        <time>2016-06-12T07:47:58.000Z</time>
      </trkpt>
      <trkpt lat="47.49325" lon="6.71056">
        <ele>455</ele>
        <time>2016-06-12T07:48:00.000Z</time>
      </trkpt>
      <trkpt lat="47.49324" lon="6.71053">
        <ele>455</ele>
        <time>2016-06-12T07:48:01.000Z</time>
      </trkpt>
      <trkpt lat="47.49321" lon="6.71048">
        <ele>455</ele>
        <time>2016-06-12T07:48:03.000Z</time>
      </trkpt>
      <trkpt lat="47.4932" lon="6.71046">
        <ele>454</ele>
        <time>2016-06-12T07:48:04.000Z</time>
      </trkpt>
      <trkpt lat="47.49317" lon="6.71043">
        <ele>454</ele>
        <time>2016-06-12T07:48:06.000Z</time>
      </trkpt>
      <trkpt lat="47.49316" lon="6.71042">
        <ele>454</ele>
        <time>2016-06-12T07:48:07.000Z</time>
      </trkpt>
      <trkpt lat="47.49313" lon="6.71038">
        <ele>454</ele>
        <time>2016-06-12T07:48:10.000Z</time>
      </trkpt>
      <trkpt lat="47.49313" lon="6.71037">
        <ele>454</ele>
        <time>2016-06-12T07:48:11.000Z</time>
      </trkpt>
      <trkpt lat="47.4931" lon="6.71032">
        <ele>454</ele>
        <time>2016-06-12T07:48:14.000Z</time>
      </trkpt>
      <trkpt lat="47.49309" lon="6.71031">
        <ele>454</ele>
        <time>2016-06-12T07:48:15.000Z</time>
      </trkpt>
      <trkpt lat="47.49306" lon="6.71028">
        <ele>454</ele>
        <time>2016-06-12T07:48:17.000Z</time>
      </trkpt>
      <trkpt lat="47.49305" lon="6.71025">
        <ele>454</ele>
        <time>2016-06-12T07:48:18.000Z</time>
      </trkpt>
      <trkpt lat="47.49303" lon="6.71021">
        <ele>454</ele>
        <time>2016-06-12T07:48:20.000Z</time>
      </trkpt>
      <trkpt lat="47.49303" lon="6.71018">
        <ele>454</ele>
        <time>2016-06-12T07:48:21.000Z</time>
      </trkpt>
      <trkpt lat="47.49301" lon="6.71013">
        <ele>454</ele>
        <time>2016-06-12T07:48:23.000Z</time>
      </trkpt>
      <trkpt lat="47.493" lon="6.71011">
        <ele>454</ele>
        <time>2016-06-12T07:48:24.000Z</time>
      </trkpt>
      <trkpt lat="47.49299" lon="6.71007">
        <ele>454</ele>
        <time>2016-06-12T07:48:26.000Z</time>
      </trkpt>
      <trkpt lat="47.49299" lon="6.71005">
        <ele>454</ele>
        <time>2016-06-12T07:48:27.000Z</time>
      </trkpt>
      <trkpt lat="47.49297" lon="6.70999">
        <ele>455</ele>
        <time>2016-06-12T07:48:30.000Z</time>
      </trkpt>
      <trkpt lat="47.49297" lon="6.70996">
        <ele>455</ele>
        <time>2016-06-12T07:48:31.000Z</time>
      </trkpt>
      <trkpt lat="47.49295" lon="6.70991">
        <ele>455</ele>
        <time>2016-06-12T07:48:34.000Z</time>
      </trkpt>
      <trkpt lat="47.49294" lon="6.70989">
        <ele>455</ele>
        <time>2016-06-12T07:48:35.000Z</time>
      </trkpt>
      <trkpt lat="47.49293" lon="6.70985">
        <ele>455</ele>
        <time>2016-06-12T07:48:37.000Z</time>
      </trkpt>
      <trkpt lat="47.49292" lon="6.70983">
        <ele>454</ele>
        <time>2016-06-12T07:48:38.000Z</time>
      </trkpt>
      <trkpt lat="47.4929" lon="6.70979">
        <ele>454</ele>
        <time>2016-06-12T07:48:40.000Z</time>
      </trkpt>
      <trkpt lat="47.49289" lon="6.70977">
        <ele>454</ele>
        <time>2016-06-12T07:48:41.000Z</time>
      </trkpt>
      <trkpt lat="47.49287" lon="6.70975">
        <ele>454</ele>
        <time>2016-06-12T07:48:42.000Z</time>
      </trkpt>
      <trkpt lat="47.49286" lon="6.70972">
        <ele>454</ele>
        <time>2016-06-12T07:48:43.000Z</time>
      </trkpt>
      <trkpt lat="47.49284" lon="6.70969">
        <ele>454</ele>
        <time>2016-06-12T07:48:44.000Z</time>
      </trkpt>
      <trkpt lat="47.49282" lon="6.70967">
        <ele>454</ele>
        <time>2016-06-12T07:48:45.000Z</time>
      </trkpt>
      <trkpt lat="47.4928" lon="6.70964">
        <ele>454</ele>
        <time>2016-06-12T07:48:47.000Z</time>
      </trkpt>
      <trkpt lat="47.49279" lon="6.70963">
        <ele>454</ele>
        <time>2016-06-12T07:48:48.000Z</time>
      </trkpt>
      <trkpt lat="47.49276" lon="6.70959">
        <ele>454</ele>
        <time>2016-06-12T07:48:50.000Z</time>
      </trkpt>
      <trkpt lat="47.49275" lon="6.70957">
        <ele>454</ele>
        <time>2016-06-12T07:48:51.000Z</time>
      </trkpt>
      <trkpt lat="47.49273" lon="6.70955">
        <ele>454</ele>
        <time>2016-06-12T07:48:52.000Z</time>
      </trkpt>
      <trkpt lat="47.49271" lon="6.70953">
        <ele>454</ele>
        <time>2016-06-12T07:48:53.000Z</time>
      </trkpt>
      <trkpt lat="47.49269" lon="6.70951">
        <ele>454</ele>
        <time>2016-06-12T07:48:54.000Z</time>
      </trkpt>
      <trkpt lat="47.49267" lon="6.70949">
        <ele>454</ele>
        <time>2016-06-12T07:48:55.000Z</time>
      </trkpt>
      <trkpt lat="47.49264" lon="6.70945">
        <ele>454</ele>
        <time>2016-06-12T07:48:57.000Z</time>
      </trkpt>
      <trkpt lat="47.49262" lon="6.70943">
        <ele>454</ele>
        <time>2016-06-12T07:48:58.000Z</time>
      </trkpt>
      <trkpt lat="47.49261" lon="6.7094">
        <ele>454</ele>
        <time>2016-06-12T07:48:59.000Z</time>
      </trkpt>
      <trkpt lat="47.49259" lon="6.70938">
        <ele>454</ele>
        <time>2016-06-12T07:49:00.000Z</time>
      </trkpt>
      <trkpt lat="47.49257" lon="6.70935">
        <ele>454</ele>
        <time>2016-06-12T07:49:01.000Z</time>
      </trkpt>
      <trkpt lat="47.49255" lon="6.70932">
        <ele>454</ele>
        <time>2016-06-12T07:49:02.000Z</time>
      </trkpt>
      <trkpt lat="47.49254" lon="6.7093">
        <ele>454</ele>
        <time>2016-06-12T07:49:03.000Z</time>
      </trkpt>
      <trkpt lat="47.49252" lon="6.70928">
        <ele>454</ele>
        <time>2016-06-12T07:49:04.000Z</time>
      </trkpt>
      <trkpt lat="47.4925" lon="6.70923">
        <ele>452</ele>
        <time>2016-06-12T07:49:06.000Z</time>
      </trkpt>
      <trkpt lat="47.49248" lon="6.70921">
        <ele>452</ele>
        <time>2016-06-12T07:49:07.000Z</time>
      </trkpt>
      <trkpt lat="47.49246" lon="6.70918">
        <ele>452</ele>
        <time>2016-06-12T07:49:09.000Z</time>
      </trkpt>
      <trkpt lat="47.49244" lon="6.70916">
        <ele>453</ele>
        <time>2016-06-12T07:49:10.000Z</time>
      </trkpt>
      <trkpt lat="47.49243" lon="6.70914">
        <ele>453</ele>
        <time>2016-06-12T07:49:11.000Z</time>
      </trkpt>
      <trkpt lat="47.49237" lon="6.70908">
        <ele>452</ele>
        <time>2016-06-12T07:49:12.000Z</time>
      </trkpt>
      <trkpt lat="47.49233" lon="6.70906">
        <ele>451</ele>
        <time>2016-06-12T07:49:13.000Z</time>
      </trkpt>
      <trkpt lat="47.49232" lon="6.70904">
        <ele>451</ele>
        <time>2016-06-12T07:49:14.000Z</time>
      </trkpt>
      <trkpt lat="47.4923" lon="6.70899">
        <ele>451</ele>
        <time>2016-06-12T07:49:16.000Z</time>
      </trkpt>
      <trkpt lat="47.49229" lon="6.70897">
        <ele>451</ele>
        <time>2016-06-12T07:49:17.000Z</time>
      </trkpt>
      <trkpt lat="47.49231" lon="6.70895">
        <ele>451</ele>
        <time>2016-06-12T07:49:18.000Z</time>
      </trkpt>
      <trkpt lat="47.49232" lon="6.7089">
        <ele>451</ele>
        <time>2016-06-12T07:49:19.000Z</time>
      </trkpt>
      <trkpt lat="47.49232" lon="6.70887">
        <ele>451</ele>
        <time>2016-06-12T07:49:20.000Z</time>
      </trkpt>
      <trkpt lat="47.4923" lon="6.70884">
        <ele>451</ele>
        <time>2016-06-12T07:49:21.000Z</time>
      </trkpt>
      <trkpt lat="47.49229" lon="6.70881">
        <ele>451</ele>
        <time>2016-06-12T07:49:22.000Z</time>
      </trkpt>
      <trkpt lat="47.49228" lon="6.70878">
        <ele>450</ele>
        <time>2016-06-12T07:49:23.000Z</time>
      </trkpt>
      <trkpt lat="47.49226" lon="6.70875">
        <ele>450</ele>
        <time>2016-06-12T07:49:24.000Z</time>
      </trkpt>
      <trkpt lat="47.49225" lon="6.70872">
        <ele>450</ele>
        <time>2016-06-12T07:49:25.000Z</time>
      </trkpt>
      <trkpt lat="47.49223" lon="6.70869">
        <ele>450</ele>
        <time>2016-06-12T07:49:26.000Z</time>
      </trkpt>
      <trkpt lat="47.49221" lon="6.70867">
        <ele>450</ele>
        <time>2016-06-12T07:49:27.000Z</time>
      </trkpt>
      <trkpt lat="47.49219" lon="6.70864">
        <ele>450</ele>
        <time>2016-06-12T07:49:28.000Z</time>
      </trkpt>
      <trkpt lat="47.49217" lon="6.70862">
        <ele>450</ele>
        <time>2016-06-12T07:49:29.000Z</time>
      </trkpt>
      <trkpt lat="47.49214" lon="6.70858">
        <ele>450</ele>
        <time>2016-06-12T07:49:31.000Z</time>
      </trkpt>
      <trkpt lat="47.49212" lon="6.70858">
        <ele>450</ele>
        <time>2016-06-12T07:49:32.000Z</time>
      </trkpt>
      <trkpt lat="47.49208" lon="6.70857">
        <ele>450</ele>
        <time>2016-06-12T07:49:34.000Z</time>
      </trkpt>
      <trkpt lat="47.49207" lon="6.70853">
        <ele>450</ele>
        <time>2016-06-12T07:49:35.000Z</time>
      </trkpt>
      <trkpt lat="47.49206" lon="6.70849">
        <ele>450</ele>
        <time>2016-06-12T07:49:36.000Z</time>
      </trkpt>
      <trkpt lat="47.49205" lon="6.70844">
        <ele>450</ele>
        <time>2016-06-12T07:49:37.000Z</time>
      </trkpt>
      <trkpt lat="47.49204" lon="6.70839">
        <ele>450</ele>
        <time>2016-06-12T07:49:38.000Z</time>
      </trkpt>
      <trkpt lat="47.49203" lon="6.70835">
        <ele>450</ele>
        <time>2016-06-12T07:49:39.000Z</time>
      </trkpt>
      <trkpt lat="47.49201" lon="6.70829">
        <ele>452</ele>
        <time>2016-06-12T07:49:41.000Z</time>
      </trkpt>
      <trkpt lat="47.492" lon="6.70827">
        <ele>452</ele>
        <time>2016-06-12T07:49:42.000Z</time>
      </trkpt>
      <trkpt lat="47.49197" lon="6.70822">
        <ele>451</ele>
        <time>2016-06-12T07:49:44.000Z</time>
      </trkpt>
      <trkpt lat="47.49196" lon="6.7082">
        <ele>451</ele>
        <time>2016-06-12T07:49:45.000Z</time>
      </trkpt>
      <trkpt lat="47.49193" lon="6.70816">
        <ele>451</ele>
        <time>2016-06-12T07:49:47.000Z</time>
      </trkpt>
      <trkpt lat="47.49191" lon="6.70814">
        <ele>451</ele>
        <time>2016-06-12T07:49:48.000Z</time>
      </trkpt>
      <trkpt lat="47.49189" lon="6.70812">
        <ele>451</ele>
        <time>2016-06-12T07:49:49.000Z</time>
      </trkpt>
      <trkpt lat="47.49187" lon="6.70811">
        <ele>451</ele>
        <time>2016-06-12T07:49:50.000Z</time>
      </trkpt>
      <trkpt lat="47.49184" lon="6.70809">
        <ele>451</ele>
        <time>2016-06-12T07:49:51.000Z</time>
      </trkpt>
      <trkpt lat="47.49182" lon="6.70807">
        <ele>451</ele>
        <time>2016-06-12T07:49:52.000Z</time>
      </trkpt>
      <trkpt lat="47.49179" lon="6.70803">
        <ele>451</ele>
        <time>2016-06-12T07:49:54.000Z</time>
      </trkpt>
      <trkpt lat="47.49178" lon="6.70801">
        <ele>451</ele>
        <time>2016-06-12T07:49:55.000Z</time>
      </trkpt>
      <trkpt lat="47.49176" lon="6.70796">
        <ele>452</ele>
        <time>2016-06-12T07:49:57.000Z</time>
      </trkpt>
      <trkpt lat="47.49175" lon="6.70793">
        <ele>452</ele>
        <time>2016-06-12T07:49:58.000Z</time>
      </trkpt>
      <trkpt lat="47.49173" lon="6.70788">
        <ele>452</ele>
        <time>2016-06-12T07:50:00.000Z</time>
      </trkpt>
      <trkpt lat="47.49171" lon="6.70785">
        <ele>452</ele>
        <time>2016-06-12T07:50:01.000Z</time>
      </trkpt>
      <trkpt lat="47.49168" lon="6.70781">
        <ele>452</ele>
        <time>2016-06-12T07:50:03.000Z</time>
      </trkpt>
      <trkpt lat="47.49166" lon="6.70779">
        <ele>448</ele>
        <time>2016-06-12T07:50:04.000Z</time>
      </trkpt>
      <trkpt lat="47.49164" lon="6.70777">
        <ele>448</ele>
        <time>2016-06-12T07:50:05.000Z</time>
      </trkpt>
      <trkpt lat="47.49162" lon="6.70775">
        <ele>448</ele>
        <time>2016-06-12T07:50:06.000Z</time>
      </trkpt>
      <trkpt lat="47.4916" lon="6.70771">
        <ele>448</ele>
        <time>2016-06-12T07:50:08.000Z</time>
      </trkpt>
      <trkpt lat="47.49158" lon="6.70769">
        <ele>448</ele>
        <time>2016-06-12T07:50:09.000Z</time>
      </trkpt>
      <trkpt lat="47.49156" lon="6.70765">
        <ele>449</ele>
        <time>2016-06-12T07:50:11.000Z</time>
      </trkpt>
      <trkpt lat="47.49155" lon="6.70762">
        <ele>449</ele>
        <time>2016-06-12T07:50:12.000Z</time>
      </trkpt>
      <trkpt lat="47.49153" lon="6.70759">
        <ele>449</ele>
        <time>2016-06-12T07:50:13.000Z</time>
      </trkpt>
      <trkpt lat="47.49152" lon="6.70756">
        <ele>449</ele>
        <time>2016-06-12T07:50:14.000Z</time>
      </trkpt>
      <trkpt lat="47.49151" lon="6.70752">
        <ele>449</ele>
        <time>2016-06-12T07:50:15.000Z</time>
      </trkpt>
      <trkpt lat="47.49149" lon="6.70749">
        <ele>451</ele>
        <time>2016-06-12T07:50:16.000Z</time>
      </trkpt>
      <trkpt lat="47.49148" lon="6.70746">
        <ele>451</ele>
        <time>2016-06-12T07:50:17.000Z</time>
      </trkpt>
      <trkpt lat="47.49147" lon="6.70743">
        <ele>451</ele>
        <time>2016-06-12T07:50:18.000Z</time>
      </trkpt>
      <trkpt lat="47.49146" lon="6.70737">
        <ele>450</ele>
        <time>2016-06-12T07:50:20.000Z</time>
      </trkpt>
      <trkpt lat="47.49146" lon="6.70734">
        <ele>450</ele>
        <time>2016-06-12T07:50:21.000Z</time>
      </trkpt>
      <trkpt lat="47.49145" lon="6.70727">
        <ele>450</ele>
        <time>2016-06-12T07:50:23.000Z</time>
      </trkpt>
      <trkpt lat="47.49143" lon="6.70724">
        <ele>450</ele>
        <time>2016-06-12T07:50:24.000Z</time>
      </trkpt>
      <trkpt lat="47.49142" lon="6.70721">
        <ele>450</ele>
        <time>2016-06-12T07:50:25.000Z</time>
      </trkpt>
      <trkpt lat="47.4914" lon="6.70717">
        <ele>450</ele>
        <time>2016-06-12T07:50:26.000Z</time>
      </trkpt>
      <trkpt lat="47.49138" lon="6.70714">
        <ele>450</ele>
        <time>2016-06-12T07:50:27.000Z</time>
      </trkpt>
      <trkpt lat="47.49136" lon="6.7071">
        <ele>450</ele>
        <time>2016-06-12T07:50:28.000Z</time>
      </trkpt>
      <trkpt lat="47.49135" lon="6.70706">
        <ele>450</ele>
        <time>2016-06-12T07:50:29.000Z</time>
      </trkpt>
      <trkpt lat="47.49134" lon="6.70703">
        <ele>450</ele>
        <time>2016-06-12T07:50:30.000Z</time>
      </trkpt>
      <trkpt lat="47.49131" lon="6.70699">
        <ele>450</ele>
        <time>2016-06-12T07:50:31.000Z</time>
      </trkpt>
      <trkpt lat="47.4913" lon="6.70695">
        <ele>450</ele>
        <time>2016-06-12T07:50:32.000Z</time>
      </trkpt>
      <trkpt lat="47.49128" lon="6.70691">
        <ele>450</ele>
        <time>2016-06-12T07:50:33.000Z</time>
      </trkpt>
      <trkpt lat="47.49126" lon="6.70688">
        <ele>450</ele>
        <time>2016-06-12T07:50:34.000Z</time>
      </trkpt>
      <trkpt lat="47.49124" lon="6.70686">
        <ele>450</ele>
        <time>2016-06-12T07:50:35.000Z</time>
      </trkpt>
      <trkpt lat="47.49122" lon="6.70682">
        <ele>450</ele>
        <time>2016-06-12T07:50:36.000Z</time>
      </trkpt>
      <trkpt lat="47.49121" lon="6.70679">
        <ele>450</ele>
        <time>2016-06-12T07:50:37.000Z</time>
      </trkpt>
      <trkpt lat="47.49119" lon="6.70675">
        <ele>450</ele>
        <time>2016-06-12T07:50:38.000Z</time>
      </trkpt>
      <trkpt lat="47.49118" lon="6.70672">
        <ele>450</ele>
        <time>2016-06-12T07:50:39.000Z</time>
      </trkpt>
      <trkpt lat="47.49117" lon="6.70669">
        <ele>450</ele>
        <time>2016-06-12T07:50:40.000Z</time>
      </trkpt>
      <trkpt lat="47.49115" lon="6.70666">
        <ele>452</ele>
        <time>2016-06-12T07:50:41.000Z</time>
      </trkpt>
      <trkpt lat="47.49115" lon="6.70662">
        <ele>452</ele>
        <time>2016-06-12T07:50:42.000Z</time>
      </trkpt>
      <trkpt lat="47.49114" lon="6.70659">
        <ele>452</ele>
        <time>2016-06-12T07:50:43.000Z</time>
      </trkpt>
      <trkpt lat="47.49113" lon="6.70656">
        <ele>452</ele>
        <time>2016-06-12T07:50:44.000Z</time>
      </trkpt>
      <trkpt lat="47.49112" lon="6.70652">
        <ele>452</ele>
        <time>2016-06-12T07:50:45.000Z</time>
      </trkpt>
      <trkpt lat="47.4911" lon="6.70648">
        <ele>452</ele>
        <time>2016-06-12T07:50:46.000Z</time>
      </trkpt>
      <trkpt lat="47.49109" lon="6.70644">
        <ele>452</ele>
        <time>2016-06-12T07:50:47.000Z</time>
      </trkpt>
      <trkpt lat="47.49107" lon="6.70641">
        <ele>452</ele>
        <time>2016-06-12T07:50:48.000Z</time>
      </trkpt>
      <trkpt lat="47.49106" lon="6.70637">
        <ele>452</ele>
        <time>2016-06-12T07:50:49.000Z</time>
      </trkpt>
      <trkpt lat="47.49105" lon="6.70633">
        <ele>452</ele>
        <time>2016-06-12T07:50:50.000Z</time>
      </trkpt>
      <trkpt lat="47.49105" lon="6.70629">
        <ele>452</ele>
        <time>2016-06-12T07:50:51.000Z</time>
      </trkpt>
      <trkpt lat="47.49104" lon="6.70625">
        <ele>452</ele>
        <time>2016-06-12T07:50:52.000Z</time>
      </trkpt>
      <trkpt lat="47.49103" lon="6.70621">
        <ele>453</ele>
        <time>2016-06-12T07:50:53.000Z</time>
      </trkpt>
      <trkpt lat="47.49102" lon="6.70616">
        <ele>453</ele>
        <time>2016-06-12T07:50:54.000Z</time>
      </trkpt>
      <trkpt lat="47.49102" lon="6.70612">
        <ele>453</ele>
        <time>2016-06-12T07:50:55.000Z</time>
      </trkpt>
      <trkpt lat="47.49101" lon="6.70608">
        <ele>453</ele>
        <time>2016-06-12T07:50:56.000Z</time>
      </trkpt>
      <trkpt lat="47.491" lon="6.70604">
        <ele>453</ele>
        <time>2016-06-12T07:50:57.000Z</time>
      </trkpt>
      <trkpt lat="47.49099" lon="6.706">
        <ele>453</ele>
        <time>2016-06-12T07:50:58.000Z</time>
      </trkpt>
      <trkpt lat="47.49098" lon="6.70597">
        <ele>453</ele>
        <time>2016-06-12T07:50:59.000Z</time>
      </trkpt>
      <trkpt lat="47.49097" lon="6.70593">
        <ele>453</ele>
        <time>2016-06-12T07:51:00.000Z</time>
      </trkpt>
      <trkpt lat="47.49095" lon="6.70587">
        <ele>453</ele>
        <time>2016-06-12T07:51:02.000Z</time>
      </trkpt>
      <trkpt lat="47.49094" lon="6.70584">
        <ele>453</ele>
        <time>2016-06-12T07:51:03.000Z</time>
      </trkpt>
      <trkpt lat="47.49092" lon="6.70581">
        <ele>453</ele>
        <time>2016-06-12T07:51:04.000Z</time>
      </trkpt>
      <trkpt lat="47.4909" lon="6.70579">
        <ele>453</ele>
        <time>2016-06-12T07:51:05.000Z</time>
      </trkpt>
      <trkpt lat="47.49089" lon="6.70576">
        <ele>453</ele>
        <time>2016-06-12T07:51:06.000Z</time>
      </trkpt>
      <trkpt lat="47.49087" lon="6.70573">
        <ele>453</ele>
        <time>2016-06-12T07:51:07.000Z</time>
      </trkpt>
      <trkpt lat="47.49085" lon="6.70569">
        <ele>453</ele>
        <time>2016-06-12T07:51:08.000Z</time>
      </trkpt>
      <trkpt lat="47.49084" lon="6.70565">
        <ele>453</ele>
        <time>2016-06-12T07:51:09.000Z</time>
      </trkpt>
      <trkpt lat="47.49082" lon="6.70561">
        <ele>450</ele>
        <time>2016-06-12T07:51:10.000Z</time>
      </trkpt>
      <trkpt lat="47.49079" lon="6.70556">
        <ele>450</ele>
        <time>2016-06-12T07:51:11.000Z</time>
      </trkpt>
      <trkpt lat="47.49077" lon="6.70551">
        <ele>450</ele>
        <time>2016-06-12T07:51:12.000Z</time>
      </trkpt>
      <trkpt lat="47.49075" lon="6.70546">
        <ele>450</ele>
        <time>2016-06-12T07:51:13.000Z</time>
      </trkpt>
      <trkpt lat="47.49074" lon="6.70541">
        <ele>449</ele>
        <time>2016-06-12T07:51:14.000Z</time>
      </trkpt>
      <trkpt lat="47.49072" lon="6.70536">
        <ele>449</ele>
        <time>2016-06-12T07:51:15.000Z</time>
      </trkpt>
      <trkpt lat="47.49071" lon="6.70532">
        <ele>450</ele>
        <time>2016-06-12T07:51:16.000Z</time>
      </trkpt>
      <trkpt lat="47.4907" lon="6.70528">
        <ele>450</ele>
        <time>2016-06-12T07:51:17.000Z</time>
      </trkpt>
      <trkpt lat="47.49069" lon="6.70523">
        <ele>450</ele>
        <time>2016-06-12T07:51:18.000Z</time>
      </trkpt>
      <trkpt lat="47.49069" lon="6.70518">
        <ele>450</ele>
        <time>2016-06-12T07:51:19.000Z</time>
      </trkpt>
      <trkpt lat="47.49068" lon="6.70514">
        <ele>450</ele>
        <time>2016-06-12T07:51:20.000Z</time>
      </trkpt>
      <trkpt lat="47.49067" lon="6.7051">
        <ele>450</ele>
        <time>2016-06-12T07:51:21.000Z</time>
      </trkpt>
      <trkpt lat="47.49066" lon="6.70506">
        <ele>450</ele>
        <time>2016-06-12T07:51:22.000Z</time>
      </trkpt>
      <trkpt lat="47.49065" lon="6.70503">
        <ele>450</ele>
        <time>2016-06-12T07:51:23.000Z</time>
      </trkpt>
      <trkpt lat="47.49064" lon="6.705">
        <ele>450</ele>
        <time>2016-06-12T07:51:24.000Z</time>
      </trkpt>
      <trkpt lat="47.49062" lon="6.70496">
        <ele>450</ele>
        <time>2016-06-12T07:51:25.000Z</time>
      </trkpt>
      <trkpt lat="47.49061" lon="6.70493">
        <ele>450</ele>
        <time>2016-06-12T07:51:26.000Z</time>
      </trkpt>
      <trkpt lat="47.4906" lon="6.70489">
        <ele>450</ele>
        <time>2016-06-12T07:51:27.000Z</time>
      </trkpt>
      <trkpt lat="47.49058" lon="6.70485">
        <ele>450</ele>
        <time>2016-06-12T07:51:28.000Z</time>
      </trkpt>
      <trkpt lat="47.49056" lon="6.70481">
        <ele>449</ele>
        <time>2016-06-12T07:51:29.000Z</time>
      </trkpt>
      <trkpt lat="47.49054" lon="6.70478">
        <ele>449</ele>
        <time>2016-06-12T07:51:30.000Z</time>
      </trkpt>
      <trkpt lat="47.49051" lon="6.70473">
        <ele>449</ele>
        <time>2016-06-12T07:51:31.000Z</time>
      </trkpt>
      <trkpt lat="47.49047" lon="6.70467">
        <ele>449</ele>
        <time>2016-06-12T07:51:32.000Z</time>
      </trkpt>
      <trkpt lat="47.49043" lon="6.70462">
        <ele>449</ele>
        <time>2016-06-12T07:51:33.000Z</time>
      </trkpt>
      <trkpt lat="47.49041" lon="6.70457">
        <ele>448</ele>
        <time>2016-06-12T07:51:34.000Z</time>
      </trkpt>
      <trkpt lat="47.4904" lon="6.70452">
        <ele>448</ele>
        <time>2016-06-12T07:51:35.000Z</time>
      </trkpt>
      <trkpt lat="47.49039" lon="6.70448">
        <ele>448</ele>
        <time>2016-06-12T07:51:36.000Z</time>
      </trkpt>
      <trkpt lat="47.49039" lon="6.70443">
        <ele>448</ele>
        <time>2016-06-12T07:51:37.000Z</time>
      </trkpt>
      <trkpt lat="47.49039" lon="6.70439">
        <ele>448</ele>
        <time>2016-06-12T07:51:38.000Z</time>
      </trkpt>
      <trkpt lat="47.49038" lon="6.70435">
        <ele>448</ele>
        <time>2016-06-12T07:51:39.000Z</time>
      </trkpt>
      <trkpt lat="47.49037" lon="6.70431">
        <ele>448</ele>
        <time>2016-06-12T07:51:40.000Z</time>
      </trkpt>
      <trkpt lat="47.49036" lon="6.70427">
        <ele>448</ele>
        <time>2016-06-12T07:51:41.000Z</time>
      </trkpt>
      <trkpt lat="47.49035" lon="6.70421">
        <ele>448</ele>
        <time>2016-06-12T07:51:42.000Z</time>
      </trkpt>
      <trkpt lat="47.49034" lon="6.70416">
        <ele>448</ele>
        <time>2016-06-12T07:51:43.000Z</time>
      </trkpt>
      <trkpt lat="47.49033" lon="6.7041">
        <ele>448</ele>
        <time>2016-06-12T07:51:44.000Z</time>
      </trkpt>
      <trkpt lat="47.49031" lon="6.70405">
        <ele>448</ele>
        <time>2016-06-12T07:51:45.000Z</time>
      </trkpt>
      <trkpt lat="47.49029" lon="6.704">
        <ele>448</ele>
        <time>2016-06-12T07:51:46.000Z</time>
      </trkpt>
      <trkpt lat="47.49027" lon="6.70395">
        <ele>448</ele>
        <time>2016-06-12T07:51:47.000Z</time>
      </trkpt>
      <trkpt lat="47.49025" lon="6.7039">
        <ele>448</ele>
        <time>2016-06-12T07:51:48.000Z</time>
      </trkpt>
      <trkpt lat="47.49024" lon="6.70385">
        <ele>448</ele>
        <time>2016-06-12T07:51:49.000Z</time>
      </trkpt>
      <trkpt lat="47.49022" lon="6.7038">
        <ele>448</ele>
        <time>2016-06-12T07:51:50.000Z</time>
      </trkpt>
      <trkpt lat="47.4902" lon="6.70376">
        <ele>448</ele>
        <time>2016-06-12T07:51:51.000Z</time>
      </trkpt>
      <trkpt lat="47.49019" lon="6.70372">
        <ele>448</ele>
        <time>2016-06-12T07:51:52.000Z</time>
      </trkpt>
      <trkpt lat="47.49017" lon="6.70368">
        <ele>448</ele>
        <time>2016-06-12T07:51:53.000Z</time>
      </trkpt>
      <trkpt lat="47.49014" lon="6.70364">
        <ele>448</ele>
        <time>2016-06-12T07:51:54.000Z</time>
      </trkpt>
      <trkpt lat="47.49012" lon="6.70359">
        <ele>448</ele>
        <time>2016-06-12T07:51:55.000Z</time>
      </trkpt>
      <trkpt lat="47.4901" lon="6.70354">
        <ele>448</ele>
        <time>2016-06-12T07:51:56.000Z</time>
      </trkpt>
      <trkpt lat="47.49009" lon="6.70349">
        <ele>448</ele>
        <time>2016-06-12T07:51:57.000Z</time>
      </trkpt>
      <trkpt lat="47.49007" lon="6.70344">
        <ele>448</ele>
        <time>2016-06-12T07:51:58.000Z</time>
      </trkpt>
      <trkpt lat="47.49006" lon="6.70339">
        <ele>447</ele>
        <time>2016-06-12T07:51:59.000Z</time>
      </trkpt>
      <trkpt lat="47.49006" lon="6.70334">
        <ele>447</ele>
        <time>2016-06-12T07:52:00.000Z</time>
      </trkpt>
      <trkpt lat="47.49005" lon="6.7033">
        <ele>447</ele>
        <time>2016-06-12T07:52:01.000Z</time>
      </trkpt>
      <trkpt lat="47.49004" lon="6.70325">
        <ele>447</ele>
        <time>2016-06-12T07:52:02.000Z</time>
      </trkpt>
      <trkpt lat="47.49003" lon="6.70321">
        <ele>447</ele>
        <time>2016-06-12T07:52:03.000Z</time>
      </trkpt>
      <trkpt lat="47.49002" lon="6.70318">
        <ele>448</ele>
        <time>2016-06-12T07:52:04.000Z</time>
      </trkpt>
      <trkpt lat="47.49001" lon="6.70315">
        <ele>448</ele>
        <time>2016-06-12T07:52:05.000Z</time>
      </trkpt>
      <trkpt lat="47.49001" lon="6.70311">
        <ele>448</ele>
        <time>2016-06-12T07:52:06.000Z</time>
      </trkpt>
      <trkpt lat="47.49001" lon="6.70307">
        <ele>448</ele>
        <time>2016-06-12T07:52:07.000Z</time>
      </trkpt>
      <trkpt lat="47.49002" lon="6.70303">
        <ele>448</ele>
        <time>2016-06-12T07:52:08.000Z</time>
      </trkpt>
      <trkpt lat="47.49002" lon="6.70299">
        <ele>448</ele>
        <time>2016-06-12T07:52:09.000Z</time>
      </trkpt>
      <trkpt lat="47.49002" lon="6.70295">
        <ele>448</ele>
        <time>2016-06-12T07:52:10.000Z</time>
      </trkpt>
      <trkpt lat="47.49002" lon="6.7029">
        <ele>448</ele>
        <time>2016-06-12T07:52:11.000Z</time>
      </trkpt>
      <trkpt lat="47.49002" lon="6.70286">
        <ele>447</ele>
        <time>2016-06-12T07:52:12.000Z</time>
      </trkpt>
      <trkpt lat="47.49001" lon="6.70281">
        <ele>447</ele>
        <time>2016-06-12T07:52:13.000Z</time>
      </trkpt>
      <trkpt lat="47.49" lon="6.70277">
        <ele>441</ele>
        <time>2016-06-12T07:52:14.000Z</time>
      </trkpt>
      <trkpt lat="47.48999" lon="6.70271">
        <ele>441</ele>
        <time>2016-06-12T07:52:15.000Z</time>
      </trkpt>
      <trkpt lat="47.48997" lon="6.70266">
        <ele>442</ele>
        <time>2016-06-12T07:52:16.000Z</time>
      </trkpt>
      <trkpt lat="47.48996" lon="6.70262">
        <ele>442</ele>
        <time>2016-06-12T07:52:17.000Z</time>
      </trkpt>
      <trkpt lat="47.48995" lon="6.70257">
        <ele>443</ele>
        <time>2016-06-12T07:52:18.000Z</time>
      </trkpt>
      <trkpt lat="47.48994" lon="6.70253">
        <ele>443</ele>
        <time>2016-06-12T07:52:19.000Z</time>
      </trkpt>
      <trkpt lat="47.48993" lon="6.70249">
        <ele>443</ele>
        <time>2016-06-12T07:52:20.000Z</time>
      </trkpt>
      <trkpt lat="47.48993" lon="6.70245">
        <ele>443</ele>
        <time>2016-06-12T07:52:21.000Z</time>
      </trkpt>
      <trkpt lat="47.48993" lon="6.70242">
        <ele>442</ele>
        <time>2016-06-12T07:52:22.000Z</time>
      </trkpt>
      <trkpt lat="47.48992" lon="6.70238">
        <ele>442</ele>
        <time>2016-06-12T07:52:23.000Z</time>
      </trkpt>
      <trkpt lat="47.48991" lon="6.70234">
        <ele>441</ele>
        <time>2016-06-12T07:52:24.000Z</time>
      </trkpt>
      <trkpt lat="47.48989" lon="6.70231">
        <ele>441</ele>
        <time>2016-06-12T07:52:25.000Z</time>
      </trkpt>
      <trkpt lat="47.48988" lon="6.70227">
        <ele>441</ele>
        <time>2016-06-12T07:52:26.000Z</time>
      </trkpt>
      <trkpt lat="47.48987" lon="6.70223">
        <ele>440</ele>
        <time>2016-06-12T07:52:27.000Z</time>
      </trkpt>
      <trkpt lat="47.48986" lon="6.7022">
        <ele>440</ele>
        <time>2016-06-12T07:52:28.000Z</time>
      </trkpt>
      <trkpt lat="47.48986" lon="6.70216">
        <ele>440</ele>
        <time>2016-06-12T07:52:29.000Z</time>
      </trkpt>
      <trkpt lat="47.48986" lon="6.70213">
        <ele>440</ele>
        <time>2016-06-12T07:52:30.000Z</time>
      </trkpt>
      <trkpt lat="47.48986" lon="6.70209">
        <ele>440</ele>
        <time>2016-06-12T07:52:31.000Z</time>
      </trkpt>
      <trkpt lat="47.48986" lon="6.70205">
        <ele>440</ele>
        <time>2016-06-12T07:52:32.000Z</time>
      </trkpt>
      <trkpt lat="47.48985" lon="6.70201">
        <ele>440</ele>
        <time>2016-06-12T07:52:33.000Z</time>
      </trkpt>
      <trkpt lat="47.48985" lon="6.70196">
        <ele>440</ele>
        <time>2016-06-12T07:52:34.000Z</time>
      </trkpt>
      <trkpt lat="47.48984" lon="6.70191">
        <ele>440</ele>
        <time>2016-06-12T07:52:35.000Z</time>
      </trkpt>
      <trkpt lat="47.48982" lon="6.70186">
        <ele>440</ele>
        <time>2016-06-12T07:52:36.000Z</time>
      </trkpt>
      <trkpt lat="47.48981" lon="6.70179">
        <ele>440</ele>
        <time>2016-06-12T07:52:37.000Z</time>
      </trkpt>
      <trkpt lat="47.48979" lon="6.70172">
        <ele>440</ele>
        <time>2016-06-12T07:52:38.000Z</time>
      </trkpt>
      <trkpt lat="47.48977" lon="6.70165">
        <ele>437</ele>
        <time>2016-06-12T07:52:39.000Z</time>
      </trkpt>
      <trkpt lat="47.48975" lon="6.70159">
        <ele>437</ele>
        <time>2016-06-12T07:52:40.000Z</time>
      </trkpt>
      <trkpt lat="47.48972" lon="6.70153">
        <ele>436</ele>
        <time>2016-06-12T07:52:41.000Z</time>
      </trkpt>
      <trkpt lat="47.4897" lon="6.70147">
        <ele>436</ele>
        <time>2016-06-12T07:52:42.000Z</time>
      </trkpt>
      <trkpt lat="47.48969" lon="6.70141">
        <ele>435</ele>
        <time>2016-06-12T07:52:43.000Z</time>
      </trkpt>
      <trkpt lat="47.48966" lon="6.70134">
        <ele>435</ele>
        <time>2016-06-12T07:52:44.000Z</time>
      </trkpt>
      <trkpt lat="47.48964" lon="6.70127">
        <ele>434</ele>
        <time>2016-06-12T07:52:45.000Z</time>
      </trkpt>
      <trkpt lat="47.48961" lon="6.70111">
        <ele>433</ele>
        <time>2016-06-12T07:52:46.000Z</time>
      </trkpt>
      <trkpt lat="47.4896" lon="6.70102">
        <ele>433</ele>
        <time>2016-06-12T07:52:47.000Z</time>
      </trkpt>
      <trkpt lat="47.48958" lon="6.70095">
        <ele>433</ele>
        <time>2016-06-12T07:52:48.000Z</time>
      </trkpt>
      <trkpt lat="47.48955" lon="6.70088">
        <ele>432</ele>
        <time>2016-06-12T07:52:49.000Z</time>
      </trkpt>
      <trkpt lat="47.48953" lon="6.70082">
        <ele>428</ele>
        <time>2016-06-12T07:52:50.000Z</time>
      </trkpt>
      <trkpt lat="47.4895" lon="6.70077">
        <ele>428</ele>
        <time>2016-06-12T07:52:51.000Z</time>
      </trkpt>
      <trkpt lat="47.48948" lon="6.70072">
        <ele>428</ele>
        <time>2016-06-12T07:52:52.000Z</time>
      </trkpt>
      <trkpt lat="47.48945" lon="6.70067">
        <ele>428</ele>
        <time>2016-06-12T07:52:53.000Z</time>
      </trkpt>
      <trkpt lat="47.48941" lon="6.70063">
        <ele>428</ele>
        <time>2016-06-12T07:52:54.000Z</time>
      </trkpt>
      <trkpt lat="47.48938" lon="6.70058">
        <ele>428</ele>
        <time>2016-06-12T07:52:55.000Z</time>
      </trkpt>
      <trkpt lat="47.48934" lon="6.70048">
        <ele>427</ele>
        <time>2016-06-12T07:52:56.000Z</time>
      </trkpt>
      <trkpt lat="47.48929" lon="6.70038">
        <ele>427</ele>
        <time>2016-06-12T07:52:57.000Z</time>
      </trkpt>
      <trkpt lat="47.48925" lon="6.70034">
        <ele>426</ele>
        <time>2016-06-12T07:52:58.000Z</time>
      </trkpt>
      <trkpt lat="47.4892" lon="6.70027">
        <ele>426</ele>
        <time>2016-06-12T07:52:59.000Z</time>
      </trkpt>
      <trkpt lat="47.48917" lon="6.70021">
        <ele>425</ele>
        <time>2016-06-12T07:53:00.000Z</time>
      </trkpt>
      <trkpt lat="47.48915" lon="6.7001">
        <ele>423</ele>
        <time>2016-06-12T07:53:01.000Z</time>
      </trkpt>
      <trkpt lat="47.48913" lon="6.70002">
        <ele>423</ele>
        <time>2016-06-12T07:53:02.000Z</time>
      </trkpt>
      <trkpt lat="47.4891" lon="6.69993">
        <ele>422</ele>
        <time>2016-06-12T07:53:03.000Z</time>
      </trkpt>
      <trkpt lat="47.48908" lon="6.69984">
        <ele>422</ele>
        <time>2016-06-12T07:53:04.000Z</time>
      </trkpt>
      <trkpt lat="47.48906" lon="6.69976">
        <ele>421</ele>
        <time>2016-06-12T07:53:05.000Z</time>
      </trkpt>
      <trkpt lat="47.48901" lon="6.69967">
        <ele>421</ele>
        <time>2016-06-12T07:53:06.000Z</time>
      </trkpt>
      <trkpt lat="47.48894" lon="6.69957">
        <ele>421</ele>
        <time>2016-06-12T07:53:07.000Z</time>
      </trkpt>
      <trkpt lat="47.48888" lon="6.69948">
        <ele>420</ele>
        <time>2016-06-12T07:53:08.000Z</time>
      </trkpt>
      <trkpt lat="47.48882" lon="6.69938">
        <ele>420</ele>
        <time>2016-06-12T07:53:09.000Z</time>
      </trkpt>
      <trkpt lat="47.48877" lon="6.69928">
        <ele>420</ele>
        <time>2016-06-12T07:53:10.000Z</time>
      </trkpt>
      <trkpt lat="47.4887" lon="6.69922">
        <ele>420</ele>
        <time>2016-06-12T07:53:11.000Z</time>
      </trkpt>
      <trkpt lat="47.48863" lon="6.69913">
        <ele>415</ele>
        <time>2016-06-12T07:53:12.000Z</time>
      </trkpt>
      <trkpt lat="47.48859" lon="6.699">
        <ele>415</ele>
        <time>2016-06-12T07:53:13.000Z</time>
      </trkpt>
      <trkpt lat="47.4885" lon="6.69888">
        <ele>414</ele>
        <time>2016-06-12T07:53:14.000Z</time>
      </trkpt>
      <trkpt lat="47.48844" lon="6.69878">
        <ele>414</ele>
        <time>2016-06-12T07:53:15.000Z</time>
      </trkpt>
      <trkpt lat="47.48843" lon="6.69867">
        <ele>413</ele>
        <time>2016-06-12T07:53:16.000Z</time>
      </trkpt>
      <trkpt lat="47.48836" lon="6.69856">
        <ele>412</ele>
        <time>2016-06-12T07:53:17.000Z</time>
      </trkpt>
      <trkpt lat="47.48831" lon="6.69848">
        <ele>409</ele>
        <time>2016-06-12T07:53:18.000Z</time>
      </trkpt>
      <trkpt lat="47.48824" lon="6.69842">
        <ele>409</ele>
        <time>2016-06-12T07:53:19.000Z</time>
      </trkpt>
      <trkpt lat="47.48819" lon="6.69835">
        <ele>409</ele>
        <time>2016-06-12T07:53:20.000Z</time>
      </trkpt>
      <trkpt lat="47.48815" lon="6.69827">
        <ele>406</ele>
        <time>2016-06-12T07:53:21.000Z</time>
      </trkpt>
      <trkpt lat="47.48813" lon="6.69822">
        <ele>405</ele>
        <time>2016-06-12T07:53:22.000Z</time>
      </trkpt>
      <trkpt lat="47.48808" lon="6.69818">
        <ele>405</ele>
        <time>2016-06-12T07:53:23.000Z</time>
      </trkpt>
      <trkpt lat="47.48805" lon="6.69812">
        <ele>404</ele>
        <time>2016-06-12T07:53:24.000Z</time>
      </trkpt>
      <trkpt lat="47.488" lon="6.69805">
        <ele>404</ele>
        <time>2016-06-12T07:53:25.000Z</time>
      </trkpt>
      <trkpt lat="47.48796" lon="6.69799">
        <ele>404</ele>
        <time>2016-06-12T07:53:26.000Z</time>
      </trkpt>
      <trkpt lat="47.48791" lon="6.69793">
        <ele>404</ele>
        <time>2016-06-12T07:53:27.000Z</time>
      </trkpt>
      <trkpt lat="47.48788" lon="6.69789">
        <ele>403</ele>
        <time>2016-06-12T07:53:28.000Z</time>
      </trkpt>
      <trkpt lat="47.48784" lon="6.69787">
        <ele>403</ele>
        <time>2016-06-12T07:53:29.000Z</time>
      </trkpt>
      <trkpt lat="47.4878" lon="6.69787">
        <ele>403</ele>
        <time>2016-06-12T07:53:30.000Z</time>
      </trkpt>
      <trkpt lat="47.48778" lon="6.69784">
        <ele>403</ele>
        <time>2016-06-12T07:53:31.000Z</time>
      </trkpt>
      <trkpt lat="47.48777" lon="6.69782">
        <ele>403</ele>
        <time>2016-06-12T07:53:32.000Z</time>
      </trkpt>
      <trkpt lat="47.48775" lon="6.69779">
        <ele>403</ele>
        <time>2016-06-12T07:53:33.000Z</time>
      </trkpt>
      <trkpt lat="47.48774" lon="6.69777">
        <ele>403</ele>
        <time>2016-06-12T07:53:34.000Z</time>
      </trkpt>
      <trkpt lat="47.48772" lon="6.69773">
        <ele>403</ele>
        <time>2016-06-12T07:53:35.000Z</time>
      </trkpt>
      <trkpt lat="47.4877" lon="6.6977">
        <ele>402</ele>
        <time>2016-06-12T07:53:36.000Z</time>
      </trkpt>
      <trkpt lat="47.48767" lon="6.69766">
        <ele>402</ele>
        <time>2016-06-12T07:53:37.000Z</time>
      </trkpt>
      <trkpt lat="47.48764" lon="6.69762">
        <ele>402</ele>
        <time>2016-06-12T07:53:38.000Z</time>
      </trkpt>
      <trkpt lat="47.48761" lon="6.69758">
        <ele>401</ele>
        <time>2016-06-12T07:53:39.000Z</time>
      </trkpt>
      <trkpt lat="47.48758" lon="6.69753">
        <ele>401</ele>
        <time>2016-06-12T07:53:40.000Z</time>
      </trkpt>
      <trkpt lat="47.48754" lon="6.69747">
        <ele>400</ele>
        <time>2016-06-12T07:53:41.000Z</time>
      </trkpt>
      <trkpt lat="47.48751" lon="6.69741">
        <ele>399</ele>
        <time>2016-06-12T07:53:42.000Z</time>
      </trkpt>
      <trkpt lat="47.48739" lon="6.69717">
        <ele>397</ele>
        <time>2016-06-12T07:53:44.000Z</time>
      </trkpt>
      <trkpt lat="47.48735" lon="6.69711">
        <ele>397</ele>
        <time>2016-06-12T07:53:45.000Z</time>
      </trkpt>
      <trkpt lat="47.48731" lon="6.69705">
        <ele>396</ele>
        <time>2016-06-12T07:53:46.000Z</time>
      </trkpt>
      <trkpt lat="47.48726" lon="6.69699">
        <ele>396</ele>
        <time>2016-06-12T07:53:47.000Z</time>
      </trkpt>
      <trkpt lat="47.48721" lon="6.69691">
        <ele>396</ele>
        <time>2016-06-12T07:53:48.000Z</time>
      </trkpt>
      <trkpt lat="47.48716" lon="6.69684">
        <ele>396</ele>
        <time>2016-06-12T07:53:49.000Z</time>
      </trkpt>
      <trkpt lat="47.48711" lon="6.69679">
        <ele>396</ele>
        <time>2016-06-12T07:53:50.000Z</time>
      </trkpt>
      <trkpt lat="47.48707" lon="6.69673">
        <ele>395</ele>
        <time>2016-06-12T07:53:51.000Z</time>
      </trkpt>
      <trkpt lat="47.487" lon="6.69667">
        <ele>395</ele>
        <time>2016-06-12T07:53:52.000Z</time>
      </trkpt>
      <trkpt lat="47.48696" lon="6.69659">
        <ele>392</ele>
        <time>2016-06-12T07:53:53.000Z</time>
      </trkpt>
      <trkpt lat="47.48692" lon="6.6965">
        <ele>392</ele>
        <time>2016-06-12T07:53:54.000Z</time>
      </trkpt>
      <trkpt lat="47.48689" lon="6.69643">
        <ele>392</ele>
        <time>2016-06-12T07:53:55.000Z</time>
      </trkpt>
      <trkpt lat="47.48684" lon="6.69634">
        <ele>391</ele>
        <time>2016-06-12T07:53:56.000Z</time>
      </trkpt>
      <trkpt lat="47.48678" lon="6.69625">
        <ele>391</ele>
        <time>2016-06-12T07:53:57.000Z</time>
      </trkpt>
      <trkpt lat="47.48673" lon="6.69617">
        <ele>390</ele>
        <time>2016-06-12T07:53:58.000Z</time>
      </trkpt>
      <trkpt lat="47.4867" lon="6.69612">
        <ele>390</ele>
        <time>2016-06-12T07:53:59.000Z</time>
      </trkpt>
      <trkpt lat="47.48664" lon="6.69606">
        <ele>389</ele>
        <time>2016-06-12T07:54:00.000Z</time>
      </trkpt>
      <trkpt lat="47.48661" lon="6.696">
        <ele>389</ele>
        <time>2016-06-12T07:54:01.000Z</time>
      </trkpt>
      <trkpt lat="47.48656" lon="6.69592">
        <ele>389</ele>
        <time>2016-06-12T07:54:02.000Z</time>
      </trkpt>
      <trkpt lat="47.48653" lon="6.69587">
        <ele>389</ele>
        <time>2016-06-12T07:54:03.000Z</time>
      </trkpt>
      <trkpt lat="47.48648" lon="6.6958">
        <ele>386</ele>
        <time>2016-06-12T07:54:04.000Z</time>
      </trkpt>
      <trkpt lat="47.48645" lon="6.69574">
        <ele>386</ele>
        <time>2016-06-12T07:54:05.000Z</time>
      </trkpt>
      <trkpt lat="47.48641" lon="6.69569">
        <ele>386</ele>
        <time>2016-06-12T07:54:06.000Z</time>
      </trkpt>
      <trkpt lat="47.48637" lon="6.69564">
        <ele>385</ele>
        <time>2016-06-12T07:54:07.000Z</time>
      </trkpt>
      <trkpt lat="47.48633" lon="6.69557">
        <ele>385</ele>
        <time>2016-06-12T07:54:08.000Z</time>
      </trkpt>
      <trkpt lat="47.48629" lon="6.69552">
        <ele>385</ele>
        <time>2016-06-12T07:54:09.000Z</time>
      </trkpt>
      <trkpt lat="47.48624" lon="6.69547">
        <ele>385</ele>
        <time>2016-06-12T07:54:10.000Z</time>
      </trkpt>
      <trkpt lat="47.48618" lon="6.69541">
        <ele>384</ele>
        <time>2016-06-12T07:54:11.000Z</time>
      </trkpt>
      <trkpt lat="47.48615" lon="6.69537">
        <ele>384</ele>
        <time>2016-06-12T07:54:12.000Z</time>
      </trkpt>
      <trkpt lat="47.48611" lon="6.69532">
        <ele>384</ele>
        <time>2016-06-12T07:54:13.000Z</time>
      </trkpt>
      <trkpt lat="47.48605" lon="6.69523">
        <ele>384</ele>
        <time>2016-06-12T07:54:14.000Z</time>
      </trkpt>
      <trkpt lat="47.48601" lon="6.69518">
        <ele>384</ele>
        <time>2016-06-12T07:54:15.000Z</time>
      </trkpt>
      <trkpt lat="47.48597" lon="6.69514">
        <ele>383</ele>
        <time>2016-06-12T07:54:16.000Z</time>
      </trkpt>
      <trkpt lat="47.48594" lon="6.69509">
        <ele>383</ele>
        <time>2016-06-12T07:54:17.000Z</time>
      </trkpt>
      <trkpt lat="47.48589" lon="6.69504">
        <ele>383</ele>
        <time>2016-06-12T07:54:18.000Z</time>
      </trkpt>
      <trkpt lat="47.48586" lon="6.69498">
        <ele>382</ele>
        <time>2016-06-12T07:54:19.000Z</time>
      </trkpt>
      <trkpt lat="47.48584" lon="6.69491">
        <ele>381</ele>
        <time>2016-06-12T07:54:20.000Z</time>
      </trkpt>
      <trkpt lat="47.48579" lon="6.69484">
        <ele>381</ele>
        <time>2016-06-12T07:54:21.000Z</time>
      </trkpt>
      <trkpt lat="47.48576" lon="6.69479">
        <ele>380</ele>
        <time>2016-06-12T07:54:22.000Z</time>
      </trkpt>
      <trkpt lat="47.48574" lon="6.69474">
        <ele>380</ele>
        <time>2016-06-12T07:54:23.000Z</time>
      </trkpt>
      <trkpt lat="47.48571" lon="6.69469">
        <ele>380</ele>
        <time>2016-06-12T07:54:24.000Z</time>
      </trkpt>
      <trkpt lat="47.48568" lon="6.69465">
        <ele>380</ele>
        <time>2016-06-12T07:54:25.000Z</time>
      </trkpt>
      <trkpt lat="47.48564" lon="6.69461">
        <ele>380</ele>
        <time>2016-06-12T07:54:26.000Z</time>
      </trkpt>
      <trkpt lat="47.4856" lon="6.69457">
        <ele>379</ele>
        <time>2016-06-12T07:54:27.000Z</time>
      </trkpt>
      <trkpt lat="47.48555" lon="6.69453">
        <ele>379</ele>
        <time>2016-06-12T07:54:28.000Z</time>
      </trkpt>
      <trkpt lat="47.48551" lon="6.69448">
        <ele>379</ele>
        <time>2016-06-12T07:54:29.000Z</time>
      </trkpt>
      <trkpt lat="47.48547" lon="6.69443">
        <ele>379</ele>
        <time>2016-06-12T07:54:30.000Z</time>
      </trkpt>
      <trkpt lat="47.48543" lon="6.6944">
        <ele>379</ele>
        <time>2016-06-12T07:54:31.000Z</time>
      </trkpt>
      <trkpt lat="47.48539" lon="6.69436">
        <ele>379</ele>
        <time>2016-06-12T07:54:32.000Z</time>
      </trkpt>
      <trkpt lat="47.48535" lon="6.69432">
        <ele>379</ele>
        <time>2016-06-12T07:54:33.000Z</time>
      </trkpt>
      <trkpt lat="47.48531" lon="6.69427">
        <ele>379</ele>
        <time>2016-06-12T07:54:34.000Z</time>
      </trkpt>
      <trkpt lat="47.48526" lon="6.69422">
        <ele>378</ele>
        <time>2016-06-12T07:54:35.000Z</time>
      </trkpt>
      <trkpt lat="47.48514" lon="6.69404">
        <ele>376</ele>
        <time>2016-06-12T07:54:36.000Z</time>
      </trkpt>
      <trkpt lat="47.48509" lon="6.69398">
        <ele>376</ele>
        <time>2016-06-12T07:54:37.000Z</time>
      </trkpt>
      <trkpt lat="47.48503" lon="6.6939">
        <ele>375</ele>
        <time>2016-06-12T07:54:38.000Z</time>
      </trkpt>
      <trkpt lat="47.48497" lon="6.69382">
        <ele>374</ele>
        <time>2016-06-12T07:54:39.000Z</time>
      </trkpt>
      <trkpt lat="47.48491" lon="6.69374">
        <ele>374</ele>
        <time>2016-06-12T07:54:40.000Z</time>
      </trkpt>
      <trkpt lat="47.48486" lon="6.69366">
        <ele>373</ele>
        <time>2016-06-12T07:54:41.000Z</time>
      </trkpt>
      <trkpt lat="47.4848" lon="6.69358">
        <ele>373</ele>
        <time>2016-06-12T07:54:42.000Z</time>
      </trkpt>
      <trkpt lat="47.48474" lon="6.69351">
        <ele>373</ele>
        <time>2016-06-12T07:54:43.000Z</time>
      </trkpt>
      <trkpt lat="47.48469" lon="6.69343">
        <ele>373</ele>
        <time>2016-06-12T07:54:44.000Z</time>
      </trkpt>
      <trkpt lat="47.48465" lon="6.69335">
        <ele>373</ele>
        <time>2016-06-12T07:54:45.000Z</time>
      </trkpt>
      <trkpt lat="47.4846" lon="6.69327">
        <ele>370</ele>
        <time>2016-06-12T07:54:46.000Z</time>
      </trkpt>
      <trkpt lat="47.48456" lon="6.6932">
        <ele>370</ele>
        <time>2016-06-12T07:54:47.000Z</time>
      </trkpt>
      <trkpt lat="47.48452" lon="6.69314">
        <ele>370</ele>
        <time>2016-06-12T07:54:48.000Z</time>
      </trkpt>
      <trkpt lat="47.48447" lon="6.69309">
        <ele>370</ele>
        <time>2016-06-12T07:54:49.000Z</time>
      </trkpt>
      <trkpt lat="47.4844" lon="6.69303">
        <ele>370</ele>
        <time>2016-06-12T07:54:50.000Z</time>
      </trkpt>
      <trkpt lat="47.48433" lon="6.6929">
        <ele>370</ele>
        <time>2016-06-12T07:54:51.000Z</time>
      </trkpt>
      <trkpt lat="47.48426" lon="6.69279">
        <ele>370</ele>
        <time>2016-06-12T07:54:52.000Z</time>
      </trkpt>
      <trkpt lat="47.4842" lon="6.69274">
        <ele>370</ele>
        <time>2016-06-12T07:54:53.000Z</time>
      </trkpt>
      <trkpt lat="47.48416" lon="6.6927">
        <ele>370</ele>
        <time>2016-06-12T07:54:54.000Z</time>
      </trkpt>
      <trkpt lat="47.48411" lon="6.69268">
        <ele>370</ele>
        <time>2016-06-12T07:54:55.000Z</time>
      </trkpt>
      <trkpt lat="47.48408" lon="6.69267">
        <ele>370</ele>
        <time>2016-06-12T07:54:56.000Z</time>
      </trkpt>
      <trkpt lat="47.48404" lon="6.69263">
        <ele>370</ele>
        <time>2016-06-12T07:54:57.000Z</time>
      </trkpt>
      <trkpt lat="47.484" lon="6.69262">
        <ele>370</ele>
        <time>2016-06-12T07:54:58.000Z</time>
      </trkpt>
      <trkpt lat="47.48396" lon="6.69262">
        <ele>370</ele>
        <time>2016-06-12T07:54:59.000Z</time>
      </trkpt>
      <trkpt lat="47.48392" lon="6.6926">
        <ele>370</ele>
        <time>2016-06-12T07:55:00.000Z</time>
      </trkpt>
      <trkpt lat="47.48389" lon="6.69261">
        <ele>370</ele>
        <time>2016-06-12T07:55:01.000Z</time>
      </trkpt>
      <trkpt lat="47.48385" lon="6.6926">
        <ele>370</ele>
        <time>2016-06-12T07:55:02.000Z</time>
      </trkpt>
      <trkpt lat="47.48382" lon="6.69259">
        <ele>370</ele>
        <time>2016-06-12T07:55:03.000Z</time>
      </trkpt>
      <trkpt lat="47.48378" lon="6.69257">
        <ele>370</ele>
        <time>2016-06-12T07:55:04.000Z</time>
      </trkpt>
      <trkpt lat="47.48374" lon="6.69255">
        <ele>369</ele>
        <time>2016-06-12T07:55:05.000Z</time>
      </trkpt>
      <trkpt lat="47.4837" lon="6.69253">
        <ele>369</ele>
        <time>2016-06-12T07:55:06.000Z</time>
      </trkpt>
      <trkpt lat="47.48366" lon="6.69251">
        <ele>369</ele>
        <time>2016-06-12T07:55:07.000Z</time>
      </trkpt>
      <trkpt lat="47.48361" lon="6.69248">
        <ele>368</ele>
        <time>2016-06-12T07:55:08.000Z</time>
      </trkpt>
      <trkpt lat="47.48357" lon="6.69245">
        <ele>368</ele>
        <time>2016-06-12T07:55:09.000Z</time>
      </trkpt>
      <trkpt lat="47.48352" lon="6.69243">
        <ele>368</ele>
        <time>2016-06-12T07:55:10.000Z</time>
      </trkpt>
      <trkpt lat="47.48347" lon="6.69241">
        <ele>368</ele>
        <time>2016-06-12T07:55:11.000Z</time>
      </trkpt>
      <trkpt lat="47.48342" lon="6.69241">
        <ele>368</ele>
        <time>2016-06-12T07:55:12.000Z</time>
      </trkpt>
      <trkpt lat="47.48337" lon="6.69241">
        <ele>368</ele>
        <time>2016-06-12T07:55:13.000Z</time>
      </trkpt>
      <trkpt lat="47.48332" lon="6.69243">
        <ele>366</ele>
        <time>2016-06-12T07:55:14.000Z</time>
      </trkpt>
      <trkpt lat="47.48327" lon="6.69246">
        <ele>365</ele>
        <time>2016-06-12T07:55:15.000Z</time>
      </trkpt>
      <trkpt lat="47.48323" lon="6.69249">
        <ele>365</ele>
        <time>2016-06-12T07:55:16.000Z</time>
      </trkpt>
      <trkpt lat="47.48319" lon="6.69251">
        <ele>365</ele>
        <time>2016-06-12T07:55:17.000Z</time>
      </trkpt>
      <trkpt lat="47.48303" lon="6.69256">
        <ele>364</ele>
        <time>2016-06-12T07:55:18.000Z</time>
      </trkpt>
      <trkpt lat="47.48293" lon="6.69246">
        <ele>361</ele>
        <time>2016-06-12T07:55:19.000Z</time>
      </trkpt>
      <trkpt lat="47.48287" lon="6.69246">
        <ele>361</ele>
        <time>2016-06-12T07:55:20.000Z</time>
      </trkpt>
      <trkpt lat="47.48283" lon="6.69243">
        <ele>360</ele>
        <time>2016-06-12T07:55:21.000Z</time>
      </trkpt>
      <trkpt lat="47.4828" lon="6.69231">
        <ele>360</ele>
        <time>2016-06-12T07:55:22.000Z</time>
      </trkpt>
      <trkpt lat="47.48279" lon="6.69225">
        <ele>360</ele>
        <time>2016-06-12T07:55:23.000Z</time>
      </trkpt>
      <trkpt lat="47.48276" lon="6.69221">
        <ele>360</ele>
        <time>2016-06-12T07:55:27.000Z</time>
      </trkpt>
      <trkpt lat="47.48275" lon="6.69221">
        <ele>360</ele>
        <time>2016-06-12T07:55:28.000Z</time>
      </trkpt>
      <trkpt lat="47.4827" lon="6.69219">
        <ele>360</ele>
        <time>2016-06-12T07:55:30.000Z</time>
      </trkpt>
      <trkpt lat="47.48268" lon="6.69219">
        <ele>360</ele>
        <time>2016-06-12T07:55:31.000Z</time>
      </trkpt>
      <trkpt lat="47.48265" lon="6.69218">
        <ele>359</ele>
        <time>2016-06-12T07:55:32.000Z</time>
      </trkpt>
      <trkpt lat="47.48263" lon="6.69216">
        <ele>359</ele>
        <time>2016-06-12T07:55:33.000Z</time>
      </trkpt>
      <trkpt lat="47.4826" lon="6.69214">
        <ele>359</ele>
        <time>2016-06-12T07:55:34.000Z</time>
      </trkpt>
      <trkpt lat="47.48258" lon="6.69213">
        <ele>359</ele>
        <time>2016-06-12T07:55:35.000Z</time>
      </trkpt>
      <trkpt lat="47.48258" lon="6.69207">
        <ele>359</ele>
        <time>2016-06-12T07:58:02.000Z</time>
      </trkpt>
      <trkpt lat="47.48257" lon="6.69206">
        <ele>359</ele>
        <time>2016-06-12T07:58:03.000Z</time>
      </trkpt>
      <trkpt lat="47.48254" lon="6.69202">
        <ele>359</ele>
        <time>2016-06-12T07:58:07.000Z</time>
      </trkpt>
      <trkpt lat="47.48253" lon="6.69199">
        <ele>359</ele>
        <time>2016-06-12T07:58:08.000Z</time>
      </trkpt>
      <trkpt lat="47.48251" lon="6.69195">
        <ele>359</ele>
        <time>2016-06-12T07:58:09.000Z</time>
      </trkpt>
      <trkpt lat="47.48249" lon="6.69192">
        <ele>354</ele>
        <time>2016-06-12T07:58:10.000Z</time>
      </trkpt>
      <trkpt lat="47.48247" lon="6.69188">
        <ele>354</ele>
        <time>2016-06-12T07:58:11.000Z</time>
      </trkpt>
      <trkpt lat="47.48246" lon="6.69183">
        <ele>354</ele>
        <time>2016-06-12T07:58:12.000Z</time>
      </trkpt>
      <trkpt lat="47.48244" lon="6.69179">
        <ele>354</ele>
        <time>2016-06-12T07:58:13.000Z</time>
      </trkpt>
      <trkpt lat="47.48242" lon="6.69175">
        <ele>354</ele>
        <time>2016-06-12T07:58:14.000Z</time>
      </trkpt>
      <trkpt lat="47.48241" lon="6.69171">
        <ele>354</ele>
        <time>2016-06-12T07:58:15.000Z</time>
      </trkpt>
      <trkpt lat="47.48239" lon="6.69168">
        <ele>354</ele>
        <time>2016-06-12T07:58:16.000Z</time>
      </trkpt>
      <trkpt lat="47.48237" lon="6.69163">
        <ele>354</ele>
        <time>2016-06-12T07:58:18.000Z</time>
      </trkpt>
      <trkpt lat="47.48236" lon="6.69161">
        <ele>354</ele>
        <time>2016-06-12T07:58:19.000Z</time>
      </trkpt>
      <trkpt lat="47.48234" lon="6.69157">
        <ele>354</ele>
        <time>2016-06-12T07:58:22.000Z</time>
      </trkpt>
      <trkpt lat="47.48233" lon="6.69155">
        <ele>354</ele>
        <time>2016-06-12T07:58:23.000Z</time>
      </trkpt>
      <trkpt lat="47.48232" lon="6.69151">
        <ele>354</ele>
        <time>2016-06-12T07:58:25.000Z</time>
      </trkpt>
      <trkpt lat="47.4823" lon="6.69145">
        <ele>354</ele>
        <time>2016-06-12T07:58:27.000Z</time>
      </trkpt>
      <trkpt lat="47.48229" lon="6.69142">
        <ele>354</ele>
        <time>2016-06-12T07:58:28.000Z</time>
      </trkpt>
      <trkpt lat="47.48227" lon="6.69138">
        <ele>354</ele>
        <time>2016-06-12T07:58:29.000Z</time>
      </trkpt>
      <trkpt lat="47.48226" lon="6.69135">
        <ele>354</ele>
        <time>2016-06-12T07:58:30.000Z</time>
      </trkpt>
      <trkpt lat="47.48224" lon="6.69131">
        <ele>354</ele>
        <time>2016-06-12T07:58:30.999Z</time>
      </trkpt>
      <trkpt lat="47.48223" lon="6.69129">
        <ele>354</ele>
        <time>2016-06-12T07:58:32.000Z</time>
      </trkpt>
      <trkpt lat="47.48221" lon="6.69125">
        <ele>354</ele>
        <time>2016-06-12T07:58:33.000Z</time>
      </trkpt>
      <trkpt lat="47.4822" lon="6.69122">
        <ele>354</ele>
        <time>2016-06-12T07:58:34.000Z</time>
      </trkpt>
      <trkpt lat="47.48218" lon="6.69119">
        <ele>354</ele>
        <time>2016-06-12T07:58:35.000Z</time>
      </trkpt>
      <trkpt lat="47.48216" lon="6.69116">
        <ele>354</ele>
        <time>2016-06-12T07:58:36.000Z</time>
      </trkpt>
      <trkpt lat="47.48215" lon="6.69112">
        <ele>354</ele>
        <time>2016-06-12T07:58:37.000Z</time>
      </trkpt>
      <trkpt lat="47.48213" lon="6.69109">
        <ele>354</ele>
        <time>2016-06-12T07:58:38.000Z</time>
      </trkpt>
      <trkpt lat="47.48211" lon="6.69106">
        <ele>354</ele>
        <time>2016-06-12T07:58:39.000Z</time>
      </trkpt>
      <trkpt lat="47.48209" lon="6.691">
        <ele>354</ele>
        <time>2016-06-12T07:58:41.000Z</time>
      </trkpt>
      <trkpt lat="47.48208" lon="6.69099">
        <ele>354</ele>
        <time>2016-06-12T07:58:42.000Z</time>
      </trkpt>
      <trkpt lat="47.4821" lon="6.69093">
        <ele>354</ele>
        <time>2016-06-12T08:00:00.000Z</time>
      </trkpt>
      <trkpt lat="47.4821" lon="6.69091">
        <ele>354</ele>
        <time>2016-06-12T08:00:01.000Z</time>
      </trkpt>
      <trkpt lat="47.4821" lon="6.69086">
        <ele>354</ele>
        <time>2016-06-12T08:00:03.000Z</time>
      </trkpt>
      <trkpt lat="47.4821" lon="6.69083">
        <ele>355</ele>
        <time>2016-06-12T08:00:04.000Z</time>
      </trkpt>
      <trkpt lat="47.48211" lon="6.69077">
        <ele>355</ele>
        <time>2016-06-12T08:00:06.000Z</time>
      </trkpt>
      <trkpt lat="47.48211" lon="6.69073">
        <ele>355</ele>
        <time>2016-06-12T08:00:07.000Z</time>
      </trkpt>
      <trkpt lat="47.48212" lon="6.69067">
        <ele>355</ele>
        <time>2016-06-12T08:00:09.000Z</time>
      </trkpt>
      <trkpt lat="47.48213" lon="6.69065">
        <ele>355</ele>
        <time>2016-06-12T08:00:10.000Z</time>
      </trkpt>
      <trkpt lat="47.48215" lon="6.69062">
        <ele>355</ele>
        <time>2016-06-12T08:00:11.000Z</time>
      </trkpt>
      <trkpt lat="47.48216" lon="6.6906">
        <ele>355</ele>
        <time>2016-06-12T08:00:12.000Z</time>
      </trkpt>
      <trkpt lat="47.48218" lon="6.69057">
        <ele>355</ele>
        <time>2016-06-12T08:00:13.000Z</time>
      </trkpt>
      <trkpt lat="47.48221" lon="6.69055">
        <ele>355</ele>
        <time>2016-06-12T08:00:14.000Z</time>
      </trkpt>
      <trkpt lat="47.48223" lon="6.69052">
        <ele>355</ele>
        <time>2016-06-12T08:00:15.000Z</time>
      </trkpt>
      <trkpt lat="47.48225" lon="6.69049">
        <ele>355</ele>
        <time>2016-06-12T08:00:16.000Z</time>
      </trkpt>
      <trkpt lat="47.48226" lon="6.69045">
        <ele>355</ele>
        <time>2016-06-12T08:00:17.000Z</time>
      </trkpt>
      <trkpt lat="47.48228" lon="6.69042">
        <ele>355</ele>
        <time>2016-06-12T08:00:18.000Z</time>
      </trkpt>
      <trkpt lat="47.4823" lon="6.69039">
        <ele>355</ele>
        <time>2016-06-12T08:00:19.000Z</time>
      </trkpt>
      <trkpt lat="47.48234" lon="6.69037">
        <ele>355</ele>
        <time>2016-06-12T08:00:20.000Z</time>
      </trkpt>
      <trkpt lat="47.48238" lon="6.69035">
        <ele>355</ele>
        <time>2016-06-12T08:00:21.000Z</time>
      </trkpt>
      <trkpt lat="47.48241" lon="6.69032">
        <ele>355</ele>
        <time>2016-06-12T08:00:22.000Z</time>
      </trkpt>
      <trkpt lat="47.48243" lon="6.69027">
        <ele>355</ele>
        <time>2016-06-12T08:00:23.000Z</time>
      </trkpt>
      <trkpt lat="47.48245" lon="6.69024">
        <ele>356</ele>
        <time>2016-06-12T08:00:24.000Z</time>
      </trkpt>
      <trkpt lat="47.48247" lon="6.6902">
        <ele>356</ele>
        <time>2016-06-12T08:00:25.000Z</time>
      </trkpt>
      <trkpt lat="47.4825" lon="6.69017">
        <ele>357</ele>
        <time>2016-06-12T08:00:26.000Z</time>
      </trkpt>
      <trkpt lat="47.48253" lon="6.69014">
        <ele>357</ele>
        <time>2016-06-12T08:00:27.000Z</time>
      </trkpt>
      <trkpt lat="47.48256" lon="6.69012">
        <ele>357</ele>
        <time>2016-06-12T08:00:28.000Z</time>
      </trkpt>
      <trkpt lat="47.48259" lon="6.6901">
        <ele>357</ele>
        <time>2016-06-12T08:00:29.000Z</time>
      </trkpt>
      <trkpt lat="47.48262" lon="6.69008">
        <ele>357</ele>
        <time>2016-06-12T08:00:30.000Z</time>
      </trkpt>
      <trkpt lat="47.48264" lon="6.69007">
        <ele>357</ele>
        <time>2016-06-12T08:00:31.000Z</time>
      </trkpt>
      <trkpt lat="47.48267" lon="6.69007">
        <ele>357</ele>
        <time>2016-06-12T08:00:32.000Z</time>
      </trkpt>
      <trkpt lat="47.4827" lon="6.69007">
        <ele>357</ele>
        <time>2016-06-12T08:00:33.000Z</time>
      </trkpt>
      <trkpt lat="47.48274" lon="6.69007">
        <ele>357</ele>
        <time>2016-06-12T08:00:34.000Z</time>
      </trkpt>
      <trkpt lat="47.48278" lon="6.69007">
        <ele>357</ele>
        <time>2016-06-12T08:00:35.000Z</time>
      </trkpt>
      <trkpt lat="47.48281" lon="6.69007">
        <ele>357</ele>
        <time>2016-06-12T08:00:36.000Z</time>
      </trkpt>
      <trkpt lat="47.48285" lon="6.69008">
        <ele>357</ele>
        <time>2016-06-12T08:00:37.000Z</time>
      </trkpt>
      <trkpt lat="47.48289" lon="6.69009">
        <ele>357</ele>
        <time>2016-06-12T08:00:38.000Z</time>
      </trkpt>
      <trkpt lat="47.48294" lon="6.6901">
        <ele>357</ele>
        <time>2016-06-12T08:00:39.000Z</time>
      </trkpt>
      <trkpt lat="47.48298" lon="6.69012">
        <ele>357</ele>
        <time>2016-06-12T08:00:40.000Z</time>
      </trkpt>
      <trkpt lat="47.48301" lon="6.69012">
        <ele>357</ele>
        <time>2016-06-12T08:00:41.000Z</time>
      </trkpt>
      <trkpt lat="47.48305" lon="6.69012">
        <ele>357</ele>
        <time>2016-06-12T08:00:42.000Z</time>
      </trkpt>
      <trkpt lat="47.48309" lon="6.69013">
        <ele>357</ele>
        <time>2016-06-12T08:00:43.000Z</time>
      </trkpt>
      <trkpt lat="47.48313" lon="6.69013">
        <ele>357</ele>
        <time>2016-06-12T08:00:44.000Z</time>
      </trkpt>
      <trkpt lat="47.48317" lon="6.69014">
        <ele>357</ele>
        <time>2016-06-12T08:00:45.000Z</time>
      </trkpt>
      <trkpt lat="47.48321" lon="6.69014">
        <ele>357</ele>
        <time>2016-06-12T08:00:46.000Z</time>
      </trkpt>
      <trkpt lat="47.48324" lon="6.69015">
        <ele>356</ele>
        <time>2016-06-12T08:00:47.000Z</time>
      </trkpt>
      <trkpt lat="47.48328" lon="6.69015">
        <ele>356</ele>
        <time>2016-06-12T08:00:48.000Z</time>
      </trkpt>
      <trkpt lat="47.48332" lon="6.69016">
        <ele>356</ele>
        <time>2016-06-12T08:00:49.000Z</time>
      </trkpt>
      <trkpt lat="47.48335" lon="6.69017">
        <ele>358</ele>
        <time>2016-06-12T08:00:50.000Z</time>
      </trkpt>
      <trkpt lat="47.48339" lon="6.69018">
        <ele>358</ele>
        <time>2016-06-12T08:00:51.000Z</time>
      </trkpt>
      <trkpt lat="47.48343" lon="6.69018">
        <ele>359</ele>
        <time>2016-06-12T08:00:52.000Z</time>
      </trkpt>
      <trkpt lat="47.48347" lon="6.69019">
        <ele>359</ele>
        <time>2016-06-12T08:00:53.000Z</time>
      </trkpt>
      <trkpt lat="47.4835" lon="6.69019">
        <ele>359</ele>
        <time>2016-06-12T08:00:54.000Z</time>
      </trkpt>
      <trkpt lat="47.48354" lon="6.69019">
        <ele>359</ele>
        <time>2016-06-12T08:00:55.000Z</time>
      </trkpt>
      <trkpt lat="47.48357" lon="6.69018">
        <ele>360</ele>
        <time>2016-06-12T08:00:56.000Z</time>
      </trkpt>
      <trkpt lat="47.4836" lon="6.69017">
        <ele>360</ele>
        <time>2016-06-12T08:00:57.000Z</time>
      </trkpt>
      <trkpt lat="47.48363" lon="6.69015">
        <ele>360</ele>
        <time>2016-06-12T08:00:58.000Z</time>
      </trkpt>
      <trkpt lat="47.48366" lon="6.69013">
        <ele>360</ele>
        <time>2016-06-12T08:00:59.000Z</time>
      </trkpt>
      <trkpt lat="47.48368" lon="6.6901">
        <ele>360</ele>
        <time>2016-06-12T08:01:00.000Z</time>
      </trkpt>
      <trkpt lat="47.48371" lon="6.69007">
        <ele>360</ele>
        <time>2016-06-12T08:01:01.000Z</time>
      </trkpt>
      <trkpt lat="47.48374" lon="6.69004">
        <ele>360</ele>
        <time>2016-06-12T08:01:02.000Z</time>
      </trkpt>
      <trkpt lat="47.48376" lon="6.69001">
        <ele>360</ele>
        <time>2016-06-12T08:01:03.000Z</time>
      </trkpt>
      <trkpt lat="47.48377" lon="6.68997">
        <ele>356</ele>
        <time>2016-06-12T08:01:04.000Z</time>
      </trkpt>
      <trkpt lat="47.4838" lon="6.68991">
        <ele>356</ele>
        <time>2016-06-12T08:01:06.000Z</time>
      </trkpt>
      <trkpt lat="47.48381" lon="6.68989">
        <ele>356</ele>
        <time>2016-06-12T08:01:07.000Z</time>
      </trkpt>
      <trkpt lat="47.48384" lon="6.68986">
        <ele>356</ele>
        <time>2016-06-12T08:01:09.000Z</time>
      </trkpt>
      <trkpt lat="47.48385" lon="6.68985">
        <ele>356</ele>
        <time>2016-06-12T08:01:10.000Z</time>
      </trkpt>
      <trkpt lat="47.48388" lon="6.68981">
        <ele>356</ele>
        <time>2016-06-12T08:01:12.000Z</time>
      </trkpt>
      <trkpt lat="47.48389" lon="6.68979">
        <ele>356</ele>
        <time>2016-06-12T08:01:13.000Z</time>
      </trkpt>
      <trkpt lat="47.4839" lon="6.68974">
        <ele>355</ele>
        <time>2016-06-12T08:01:15.000Z</time>
      </trkpt>
      <trkpt lat="47.48391" lon="6.68971">
        <ele>355</ele>
        <time>2016-06-12T08:01:16.000Z</time>
      </trkpt>
      <trkpt lat="47.48392" lon="6.68968">
        <ele>355</ele>
        <time>2016-06-12T08:01:17.000Z</time>
      </trkpt>
      <trkpt lat="47.48393" lon="6.68965">
        <ele>355</ele>
        <time>2016-06-12T08:01:18.000Z</time>
      </trkpt>
      <trkpt lat="47.48395" lon="6.68959">
        <ele>355</ele>
        <time>2016-06-12T08:01:20.000Z</time>
      </trkpt>
      <trkpt lat="47.48396" lon="6.68957">
        <ele>354</ele>
        <time>2016-06-12T08:01:21.000Z</time>
      </trkpt>
      <trkpt lat="47.48397" lon="6.68952">
        <ele>354</ele>
        <time>2016-06-12T08:01:23.000Z</time>
      </trkpt>
      <trkpt lat="47.48398" lon="6.6895">
        <ele>354</ele>
        <time>2016-06-12T08:01:24.000Z</time>
      </trkpt>
      <trkpt lat="47.484" lon="6.68944">
        <ele>354</ele>
        <time>2016-06-12T08:01:27.000Z</time>
      </trkpt>
      <trkpt lat="47.48401" lon="6.68943">
        <ele>354</ele>
        <time>2016-06-12T08:01:28.000Z</time>
      </trkpt>
      <trkpt lat="47.48402" lon="6.68939">
        <ele>354</ele>
        <time>2016-06-12T08:01:31.000Z</time>
      </trkpt>
      <trkpt lat="47.48403" lon="6.68937">
        <ele>353</ele>
        <time>2016-06-12T08:01:32.000Z</time>
      </trkpt>
      <trkpt lat="47.48406" lon="6.68931">
        <ele>353</ele>
        <time>2016-06-12T08:01:34.000Z</time>
      </trkpt>
      <trkpt lat="47.48407" lon="6.68928">
        <ele>353</ele>
        <time>2016-06-12T08:01:35.000Z</time>
      </trkpt>
      <trkpt lat="47.48409" lon="6.68924">
        <ele>353</ele>
        <time>2016-06-12T08:01:36.000Z</time>
      </trkpt>
      <trkpt lat="47.48411" lon="6.68919">
        <ele>352</ele>
        <time>2016-06-12T08:01:37.000Z</time>
      </trkpt>
      <trkpt lat="47.48413" lon="6.68915">
        <ele>351</ele>
        <time>2016-06-12T08:01:38.000Z</time>
      </trkpt>
      <trkpt lat="47.48414" lon="6.6891">
        <ele>351</ele>
        <time>2016-06-12T08:01:39.000Z</time>
      </trkpt>
      <trkpt lat="47.48416" lon="6.68906">
        <ele>351</ele>
        <time>2016-06-12T08:01:40.000Z</time>
      </trkpt>
      <trkpt lat="47.48418" lon="6.68902">
        <ele>351</ele>
        <time>2016-06-12T08:01:41.000Z</time>
      </trkpt>
      <trkpt lat="47.4842" lon="6.68898">
        <ele>351</ele>
        <time>2016-06-12T08:01:42.000Z</time>
      </trkpt>
      <trkpt lat="47.48422" lon="6.68894">
        <ele>351</ele>
        <time>2016-06-12T08:01:43.000Z</time>
      </trkpt>
      <trkpt lat="47.48423" lon="6.6889">
        <ele>351</ele>
        <time>2016-06-12T08:01:44.000Z</time>
      </trkpt>
      <trkpt lat="47.48425" lon="6.68886">
        <ele>351</ele>
        <time>2016-06-12T08:01:45.000Z</time>
      </trkpt>
      <trkpt lat="47.48427" lon="6.68881">
        <ele>351</ele>
        <time>2016-06-12T08:01:46.000Z</time>
      </trkpt>
      <trkpt lat="47.48429" lon="6.68877">
        <ele>351</ele>
        <time>2016-06-12T08:01:47.001Z</time>
      </trkpt>
      <trkpt lat="47.48431" lon="6.68873">
        <ele>351</ele>
        <time>2016-06-12T08:01:48.000Z</time>
      </trkpt>
      <trkpt lat="47.48433" lon="6.68868">
        <ele>351</ele>
        <time>2016-06-12T08:01:49.000Z</time>
      </trkpt>
      <trkpt lat="47.48434" lon="6.68863">
        <ele>350</ele>
        <time>2016-06-12T08:01:50.001Z</time>
      </trkpt>
      <trkpt lat="47.48436" lon="6.68858">
        <ele>350</ele>
        <time>2016-06-12T08:01:51.001Z</time>
      </trkpt>
      <trkpt lat="47.48438" lon="6.68853">
        <ele>350</ele>
        <time>2016-06-12T08:01:52.000Z</time>
      </trkpt>
      <trkpt lat="47.4844" lon="6.68848">
        <ele>350</ele>
        <time>2016-06-12T08:01:53.000Z</time>
      </trkpt>
      <trkpt lat="47.48442" lon="6.68843">
        <ele>350</ele>
        <time>2016-06-12T08:01:54.000Z</time>
      </trkpt>
      <trkpt lat="47.48444" lon="6.68833">
        <ele>348</ele>
        <time>2016-06-12T08:01:55.000Z</time>
      </trkpt>
      <trkpt lat="47.48444" lon="6.68826">
        <ele>348</ele>
        <time>2016-06-12T08:01:56.000Z</time>
      </trkpt>
      <trkpt lat="47.48445" lon="6.68819">
        <ele>348</ele>
        <time>2016-06-12T08:01:57.000Z</time>
      </trkpt>
      <trkpt lat="47.48446" lon="6.68813">
        <ele>348</ele>
        <time>2016-06-12T08:01:58.000Z</time>
      </trkpt>
      <trkpt lat="47.48451" lon="6.68806">
        <ele>347</ele>
        <time>2016-06-12T08:01:59.000Z</time>
      </trkpt>
      <trkpt lat="47.48453" lon="6.68799">
        <ele>347</ele>
        <time>2016-06-12T08:02:00.000Z</time>
      </trkpt>
      <trkpt lat="47.48455" lon="6.68792">
        <ele>347</ele>
        <time>2016-06-12T08:02:01.000Z</time>
      </trkpt>
      <trkpt lat="47.48457" lon="6.68785">
        <ele>347</ele>
        <time>2016-06-12T08:02:02.000Z</time>
      </trkpt>
      <trkpt lat="47.48458" lon="6.68779">
        <ele>347</ele>
        <time>2016-06-12T08:02:03.000Z</time>
      </trkpt>
      <trkpt lat="47.48461" lon="6.68774">
        <ele>346</ele>
        <time>2016-06-12T08:02:04.000Z</time>
      </trkpt>
      <trkpt lat="47.48463" lon="6.6877">
        <ele>346</ele>
        <time>2016-06-12T08:02:05.000Z</time>
      </trkpt>
      <trkpt lat="47.48466" lon="6.68767">
        <ele>346</ele>
        <time>2016-06-12T08:02:06.000Z</time>
      </trkpt>
      <trkpt lat="47.4847" lon="6.68764">
        <ele>346</ele>
        <time>2016-06-12T08:02:07.000Z</time>
      </trkpt>
      <trkpt lat="47.48473" lon="6.68763">
        <ele>346</ele>
        <time>2016-06-12T08:02:08.000Z</time>
      </trkpt>
      <trkpt lat="47.48476" lon="6.6876">
        <ele>346</ele>
        <time>2016-06-12T08:02:09.000Z</time>
      </trkpt>
      <trkpt lat="47.48477" lon="6.68757">
        <ele>346</ele>
        <time>2016-06-12T08:02:10.000Z</time>
      </trkpt>
      <trkpt lat="47.48479" lon="6.68754">
        <ele>346</ele>
        <time>2016-06-12T08:02:11.000Z</time>
      </trkpt>
      <trkpt lat="47.48481" lon="6.68752">
        <ele>345</ele>
        <time>2016-06-12T08:02:12.000Z</time>
      </trkpt>
      <trkpt lat="47.48484" lon="6.68749">
        <ele>343</ele>
        <time>2016-06-12T08:02:13.000Z</time>
      </trkpt>
      <trkpt lat="47.48487" lon="6.68745">
        <ele>343</ele>
        <time>2016-06-12T08:02:14.000Z</time>
      </trkpt>
      <trkpt lat="47.4849" lon="6.68741">
        <ele>343</ele>
        <time>2016-06-12T08:02:15.000Z</time>
      </trkpt>
      <trkpt lat="47.48494" lon="6.68736">
        <ele>343</ele>
        <time>2016-06-12T08:02:16.000Z</time>
      </trkpt>
      <trkpt lat="47.48497" lon="6.6873">
        <ele>342</ele>
        <time>2016-06-12T08:02:17.000Z</time>
      </trkpt>
      <trkpt lat="47.48499" lon="6.68724">
        <ele>342</ele>
        <time>2016-06-12T08:02:18.000Z</time>
      </trkpt>
      <trkpt lat="47.48501" lon="6.68719">
        <ele>342</ele>
        <time>2016-06-12T08:02:19.000Z</time>
      </trkpt>
      <trkpt lat="47.48502" lon="6.68715">
        <ele>342</ele>
        <time>2016-06-12T08:02:20.000Z</time>
      </trkpt>
      <trkpt lat="47.48502" lon="6.68711">
        <ele>342</ele>
        <time>2016-06-12T08:02:21.000Z</time>
      </trkpt>
      <trkpt lat="47.48502" lon="6.68706">
        <ele>342</ele>
        <time>2016-06-12T08:02:22.000Z</time>
      </trkpt>
      <trkpt lat="47.48503" lon="6.68702">
        <ele>341</ele>
        <time>2016-06-12T08:02:23.000Z</time>
      </trkpt>
      <trkpt lat="47.48504" lon="6.68698">
        <ele>341</ele>
        <time>2016-06-12T08:02:24.000Z</time>
      </trkpt>
      <trkpt lat="47.48506" lon="6.68694">
        <ele>341</ele>
        <time>2016-06-12T08:02:25.000Z</time>
      </trkpt>
      <trkpt lat="47.48509" lon="6.68689">
        <ele>341</ele>
        <time>2016-06-12T08:02:26.000Z</time>
      </trkpt>
      <trkpt lat="47.48513" lon="6.68685">
        <ele>341</ele>
        <time>2016-06-12T08:02:27.000Z</time>
      </trkpt>
      <trkpt lat="47.48518" lon="6.68681">
        <ele>341</ele>
        <time>2016-06-12T08:02:28.000Z</time>
      </trkpt>
      <trkpt lat="47.48522" lon="6.68677">
        <ele>341</ele>
        <time>2016-06-12T08:02:29.000Z</time>
      </trkpt>
      <trkpt lat="47.48527" lon="6.68674">
        <ele>341</ele>
        <time>2016-06-12T08:02:30.000Z</time>
      </trkpt>
      <trkpt lat="47.4853" lon="6.68673">
        <ele>341</ele>
        <time>2016-06-12T08:02:31.000Z</time>
      </trkpt>
      <trkpt lat="47.48533" lon="6.68673">
        <ele>341</ele>
        <time>2016-06-12T08:02:32.000Z</time>
      </trkpt>
      <trkpt lat="47.48537" lon="6.68674">
        <ele>341</ele>
        <time>2016-06-12T08:02:34.000Z</time>
      </trkpt>
      <trkpt lat="47.48538" lon="6.68674">
        <ele>341</ele>
        <time>2016-06-12T08:02:35.000Z</time>
      </trkpt>
      <trkpt lat="47.48542" lon="6.68674">
        <ele>341</ele>
        <time>2016-06-12T08:02:38.000Z</time>
      </trkpt>
      <trkpt lat="47.48543" lon="6.68673">
        <ele>342</ele>
        <time>2016-06-12T08:02:39.000Z</time>
      </trkpt>
      <trkpt lat="47.48544" lon="6.68668">
        <ele>342</ele>
        <time>2016-06-12T08:02:42.000Z</time>
      </trkpt>
      <trkpt lat="47.48544" lon="6.68666">
        <ele>342</ele>
        <time>2016-06-12T08:02:43.000Z</time>
      </trkpt>
      <trkpt lat="47.48546" lon="6.68662">
        <ele>342</ele>
        <time>2016-06-12T08:02:45.000Z</time>
      </trkpt>
      <trkpt lat="47.48547" lon="6.68661">
        <ele>342</ele>
        <time>2016-06-12T08:02:46.000Z</time>
      </trkpt>
      <trkpt lat="47.48551" lon="6.68659">
        <ele>342</ele>
        <time>2016-06-12T08:02:48.000Z</time>
      </trkpt>
      <trkpt lat="47.48552" lon="6.68658">
        <ele>342</ele>
        <time>2016-06-12T08:02:49.000Z</time>
      </trkpt>
      <trkpt lat="47.48554" lon="6.68654">
        <ele>342</ele>
        <time>2016-06-12T08:02:52.000Z</time>
      </trkpt>
      <trkpt lat="47.48555" lon="6.68653">
        <ele>342</ele>
        <time>2016-06-12T08:02:53.000Z</time>
      </trkpt>
      <trkpt lat="47.48557" lon="6.68647">
        <ele>342</ele>
        <time>2016-06-12T08:02:56.000Z</time>
      </trkpt>
      <trkpt lat="47.48558" lon="6.68646">
        <ele>342</ele>
        <time>2016-06-12T08:02:57.000Z</time>
      </trkpt>
      <trkpt lat="47.48559" lon="6.6864">
        <ele>342</ele>
        <time>2016-06-12T08:03:00.000Z</time>
      </trkpt>
      <trkpt lat="47.4856" lon="6.68638">
        <ele>342</ele>
        <time>2016-06-12T08:03:01.000Z</time>
      </trkpt>
      <trkpt lat="47.4856" lon="6.68633">
        <ele>343</ele>
        <time>2016-06-12T08:03:05.000Z</time>
      </trkpt>
      <trkpt lat="47.4856" lon="6.68632">
        <ele>343</ele>
        <time>2016-06-12T08:03:06.000Z</time>
      </trkpt>
      <trkpt lat="47.4856" lon="6.68627">
        <ele>343</ele>
        <time>2016-06-12T08:03:08.000Z</time>
      </trkpt>
      <trkpt lat="47.4856" lon="6.68624">
        <ele>343</ele>
        <time>2016-06-12T08:03:09.000Z</time>
      </trkpt>
      <trkpt lat="47.4856" lon="6.68617">
        <ele>343</ele>
        <time>2016-06-12T08:03:11.000Z</time>
      </trkpt>
      <trkpt lat="47.4856" lon="6.68615">
        <ele>343</ele>
        <time>2016-06-12T08:03:12.000Z</time>
      </trkpt>
      <trkpt lat="47.48561" lon="6.6861">
        <ele>343</ele>
        <time>2016-06-12T08:03:14.000Z</time>
      </trkpt>
      <trkpt lat="47.48562" lon="6.68608">
        <ele>343</ele>
        <time>2016-06-12T08:03:15.000Z</time>
      </trkpt>
      <trkpt lat="47.48565" lon="6.68606">
        <ele>343</ele>
        <time>2016-06-12T08:03:17.000Z</time>
      </trkpt>
      <trkpt lat="47.48566" lon="6.68604">
        <ele>344</ele>
        <time>2016-06-12T08:03:18.000Z</time>
      </trkpt>
      <trkpt lat="47.48569" lon="6.68602">
        <ele>344</ele>
        <time>2016-06-12T08:03:20.000Z</time>
      </trkpt>
      <trkpt lat="47.4857" lon="6.686">
        <ele>344</ele>
        <time>2016-06-12T08:03:21.000Z</time>
      </trkpt>
      <trkpt lat="47.48572" lon="6.68597">
        <ele>344</ele>
        <time>2016-06-12T08:03:23.000Z</time>
      </trkpt>
      <trkpt lat="47.48574" lon="6.68595">
        <ele>344</ele>
        <time>2016-06-12T08:03:24.000Z</time>
      </trkpt>
      <trkpt lat="47.48577" lon="6.68592">
        <ele>345</ele>
        <time>2016-06-12T08:03:26.000Z</time>
      </trkpt>
      <trkpt lat="47.48578" lon="6.68591">
        <ele>345</ele>
        <time>2016-06-12T08:03:27.000Z</time>
      </trkpt>
      <trkpt lat="47.4858" lon="6.68587">
        <ele>345</ele>
        <time>2016-06-12T08:03:31.000Z</time>
      </trkpt>
      <trkpt lat="47.48581" lon="6.68586">
        <ele>346</ele>
        <time>2016-06-12T08:03:32.000Z</time>
      </trkpt>
      <trkpt lat="47.48583" lon="6.6858">
        <ele>346</ele>
        <time>2016-06-12T08:03:38.000Z</time>
      </trkpt>
      <trkpt lat="47.48582" lon="6.68579">
        <ele>346</ele>
        <time>2016-06-12T08:03:39.000Z</time>
      </trkpt>
      <trkpt lat="47.48581" lon="6.68573">
        <ele>346</ele>
        <time>2016-06-12T08:03:43.000Z</time>
      </trkpt>
      <trkpt lat="47.48581" lon="6.6857">
        <ele>346</ele>
        <time>2016-06-12T08:03:44.000Z</time>
      </trkpt>
      <trkpt lat="47.4858" lon="6.68566">
        <ele>346</ele>
        <time>2016-06-12T08:03:46.000Z</time>
      </trkpt>
      <trkpt lat="47.48579" lon="6.68563">
        <ele>346</ele>
        <time>2016-06-12T08:03:47.000Z</time>
      </trkpt>
      <trkpt lat="47.48579" lon="6.68558">
        <ele>347</ele>
        <time>2016-06-12T08:03:49.000Z</time>
      </trkpt>
      <trkpt lat="47.48579" lon="6.68556">
        <ele>347</ele>
        <time>2016-06-12T08:03:50.000Z</time>
      </trkpt>
      <trkpt lat="47.48579" lon="6.68551">
        <ele>347</ele>
        <time>2016-06-12T08:03:53.000Z</time>
      </trkpt>
      <trkpt lat="47.4858" lon="6.68549">
        <ele>347</ele>
        <time>2016-06-12T08:03:54.000Z</time>
      </trkpt>
      <trkpt lat="47.4858" lon="6.68544">
        <ele>347</ele>
        <time>2016-06-12T08:03:56.000Z</time>
      </trkpt>
      <trkpt lat="47.48581" lon="6.68542">
        <ele>347</ele>
        <time>2016-06-12T08:03:57.000Z</time>
      </trkpt>
      <trkpt lat="47.48581" lon="6.68536">
        <ele>347</ele>
        <time>2016-06-12T08:03:59.000Z</time>
      </trkpt>
      <trkpt lat="47.48581" lon="6.68533">
        <ele>347</ele>
        <time>2016-06-12T08:04:00.000Z</time>
      </trkpt>
      <trkpt lat="47.48581" lon="6.68527">
        <ele>348</ele>
        <time>2016-06-12T08:04:02.000Z</time>
      </trkpt>
      <trkpt lat="47.48581" lon="6.68524">
        <ele>348</ele>
        <time>2016-06-12T08:04:03.000Z</time>
      </trkpt>
      <trkpt lat="47.48581" lon="6.68518">
        <ele>348</ele>
        <time>2016-06-12T08:04:05.000Z</time>
      </trkpt>
      <trkpt lat="47.48581" lon="6.68514">
        <ele>348</ele>
        <time>2016-06-12T08:04:06.000Z</time>
      </trkpt>
      <trkpt lat="47.48581" lon="6.68507">
        <ele>348</ele>
        <time>2016-06-12T08:04:08.000Z</time>
      </trkpt>
      <trkpt lat="47.48581" lon="6.68504">
        <ele>349</ele>
        <time>2016-06-12T08:04:09.000Z</time>
      </trkpt>
      <trkpt lat="47.48583" lon="6.68501">
        <ele>349</ele>
        <time>2016-06-12T08:04:10.000Z</time>
      </trkpt>
      <trkpt lat="47.48585" lon="6.68498">
        <ele>349</ele>
        <time>2016-06-12T08:04:11.000Z</time>
      </trkpt>
      <trkpt lat="47.48587" lon="6.68496">
        <ele>349</ele>
        <time>2016-06-12T08:04:12.000Z</time>
      </trkpt>
      <trkpt lat="47.48589" lon="6.68493">
        <ele>349</ele>
        <time>2016-06-12T08:04:13.000Z</time>
      </trkpt>
      <trkpt lat="47.4859" lon="6.68488">
        <ele>349</ele>
        <time>2016-06-12T08:04:15.000Z</time>
      </trkpt>
      <trkpt lat="47.48591" lon="6.68486">
        <ele>348</ele>
        <time>2016-06-12T08:04:16.000Z</time>
      </trkpt>
      <trkpt lat="47.48591" lon="6.6848">
        <ele>348</ele>
        <time>2016-06-12T08:04:18.000Z</time>
      </trkpt>
      <trkpt lat="47.48592" lon="6.68478">
        <ele>348</ele>
        <time>2016-06-12T08:04:19.000Z</time>
      </trkpt>
      <trkpt lat="47.48592" lon="6.68472">
        <ele>348</ele>
        <time>2016-06-12T08:04:21.000Z</time>
      </trkpt>
      <trkpt lat="47.48592" lon="6.68469">
        <ele>348</ele>
        <time>2016-06-12T08:04:22.000Z</time>
      </trkpt>
      <trkpt lat="47.48593" lon="6.68463">
        <ele>348</ele>
        <time>2016-06-12T08:04:24.000Z</time>
      </trkpt>
      <trkpt lat="47.48594" lon="6.6846">
        <ele>348</ele>
        <time>2016-06-12T08:04:25.000Z</time>
      </trkpt>
      <trkpt lat="47.48594" lon="6.68455">
        <ele>348</ele>
        <time>2016-06-12T08:04:27.000Z</time>
      </trkpt>
      <trkpt lat="47.48595" lon="6.68452">
        <ele>348</ele>
        <time>2016-06-12T08:04:28.000Z</time>
      </trkpt>
      <trkpt lat="47.48595" lon="6.68447">
        <ele>348</ele>
        <time>2016-06-12T08:04:30.000Z</time>
      </trkpt>
      <trkpt lat="47.48595" lon="6.68444">
        <ele>347</ele>
        <time>2016-06-12T08:04:31.000Z</time>
      </trkpt>
      <trkpt lat="47.48596" lon="6.68439">
        <ele>347</ele>
        <time>2016-06-12T08:04:33.000Z</time>
      </trkpt>
      <trkpt lat="47.48597" lon="6.68435">
        <ele>347</ele>
        <time>2016-06-12T08:04:34.000Z</time>
      </trkpt>
      <trkpt lat="47.48598" lon="6.68432">
        <ele>347</ele>
        <time>2016-06-12T08:04:35.000Z</time>
      </trkpt>
      <trkpt lat="47.48599" lon="6.68428">
        <ele>347</ele>
        <time>2016-06-12T08:04:36.000Z</time>
      </trkpt>
      <trkpt lat="47.486" lon="6.68425">
        <ele>347</ele>
        <time>2016-06-12T08:04:37.000Z</time>
      </trkpt>
      <trkpt lat="47.48601" lon="6.68421">
        <ele>347</ele>
        <time>2016-06-12T08:04:38.000Z</time>
      </trkpt>
      <trkpt lat="47.48602" lon="6.68418">
        <ele>347</ele>
        <time>2016-06-12T08:04:39.000Z</time>
      </trkpt>
      <trkpt lat="47.48603" lon="6.68415">
        <ele>346</ele>
        <time>2016-06-12T08:04:40.000Z</time>
      </trkpt>
      <trkpt lat="47.48603" lon="6.6841">
        <ele>346</ele>
        <time>2016-06-12T08:04:42.000Z</time>
      </trkpt>
      <trkpt lat="47.48604" lon="6.68408">
        <ele>346</ele>
        <time>2016-06-12T08:04:43.000Z</time>
      </trkpt>
      <trkpt lat="47.48605" lon="6.68402">
        <ele>346</ele>
        <time>2016-06-12T08:04:45.000Z</time>
      </trkpt>
      <trkpt lat="47.48606" lon="6.68399">
        <ele>346</ele>
        <time>2016-06-12T08:04:46.000Z</time>
      </trkpt>
      <trkpt lat="47.48607" lon="6.68395">
        <ele>346</ele>
        <time>2016-06-12T08:04:47.000Z</time>
      </trkpt>
      <trkpt lat="47.48608" lon="6.68392">
        <ele>346</ele>
        <time>2016-06-12T08:04:48.000Z</time>
      </trkpt>
      <trkpt lat="47.48609" lon="6.68388">
        <ele>347</ele>
        <time>2016-06-12T08:04:49.000Z</time>
      </trkpt>
      <trkpt lat="47.4861" lon="6.68385">
        <ele>347</ele>
        <time>2016-06-12T08:04:50.000Z</time>
      </trkpt>
      <trkpt lat="47.48612" lon="6.68381">
        <ele>347</ele>
        <time>2016-06-12T08:04:52.000Z</time>
      </trkpt>
      <trkpt lat="47.48613" lon="6.68378">
        <ele>347</ele>
        <time>2016-06-12T08:04:53.000Z</time>
      </trkpt>
      <trkpt lat="47.48614" lon="6.68373">
        <ele>347</ele>
        <time>2016-06-12T08:04:55.000Z</time>
      </trkpt>
      <trkpt lat="47.48615" lon="6.6837">
        <ele>347</ele>
        <time>2016-06-12T08:04:56.000Z</time>
      </trkpt>
      <trkpt lat="47.48616" lon="6.68367">
        <ele>347</ele>
        <time>2016-06-12T08:04:57.000Z</time>
      </trkpt>
      <trkpt lat="47.48617" lon="6.68363">
        <ele>346</ele>
        <time>2016-06-12T08:04:58.000Z</time>
      </trkpt>
      <trkpt lat="47.48617" lon="6.6836">
        <ele>346</ele>
        <time>2016-06-12T08:04:59.000Z</time>
      </trkpt>
      <trkpt lat="47.48618" lon="6.68356">
        <ele>346</ele>
        <time>2016-06-12T08:05:00.000Z</time>
      </trkpt>
      <trkpt lat="47.48619" lon="6.68353">
        <ele>346</ele>
        <time>2016-06-12T08:05:01.000Z</time>
      </trkpt>
      <trkpt lat="47.48621" lon="6.68349">
        <ele>347</ele>
        <time>2016-06-12T08:05:02.000Z</time>
      </trkpt>
      <trkpt lat="47.48622" lon="6.68346">
        <ele>347</ele>
        <time>2016-06-12T08:05:03.000Z</time>
      </trkpt>
      <trkpt lat="47.48623" lon="6.68342">
        <ele>347</ele>
        <time>2016-06-12T08:05:04.000Z</time>
      </trkpt>
      <trkpt lat="47.48624" lon="6.68339">
        <ele>347</ele>
        <time>2016-06-12T08:05:05.000Z</time>
      </trkpt>
      <trkpt lat="47.48625" lon="6.68335">
        <ele>347</ele>
        <time>2016-06-12T08:05:06.000Z</time>
      </trkpt>
      <trkpt lat="47.48626" lon="6.68332">
        <ele>348</ele>
        <time>2016-06-12T08:05:07.000Z</time>
      </trkpt>
      <trkpt lat="47.48627" lon="6.68329">
        <ele>348</ele>
        <time>2016-06-12T08:05:08.000Z</time>
      </trkpt>
      <trkpt lat="47.48629" lon="6.68324">
        <ele>348</ele>
        <time>2016-06-12T08:05:10.000Z</time>
      </trkpt>
      <trkpt lat="47.48631" lon="6.68322">
        <ele>348</ele>
        <time>2016-06-12T08:05:11.000Z</time>
      </trkpt>
      <trkpt lat="47.48634" lon="6.68319">
        <ele>348</ele>
        <time>2016-06-12T08:05:12.999Z</time>
      </trkpt>
      <trkpt lat="47.48636" lon="6.68318">
        <ele>348</ele>
        <time>2016-06-12T08:05:14.000Z</time>
      </trkpt>
      <trkpt lat="47.4864" lon="6.68318">
        <ele>349</ele>
        <time>2016-06-12T08:05:16.000Z</time>
      </trkpt>
      <trkpt lat="47.48642" lon="6.68318">
        <ele>349</ele>
        <time>2016-06-12T08:05:17.000Z</time>
      </trkpt>
      <trkpt lat="47.48644" lon="6.68319">
        <ele>349</ele>
        <time>2016-06-12T08:05:18.000Z</time>
      </trkpt>
      <trkpt lat="47.48646" lon="6.6832">
        <ele>349</ele>
        <time>2016-06-12T08:05:18.999Z</time>
      </trkpt>
      <trkpt lat="47.48648" lon="6.68323">
        <ele>349</ele>
        <time>2016-06-12T08:05:20.000Z</time>
      </trkpt>
      <trkpt lat="47.48649" lon="6.68326">
        <ele>349</ele>
        <time>2016-06-12T08:05:21.000Z</time>
      </trkpt>
      <trkpt lat="47.48651" lon="6.6833">
        <ele>349</ele>
        <time>2016-06-12T08:05:22.000Z</time>
      </trkpt>
      <trkpt lat="47.48653" lon="6.68333">
        <ele>349</ele>
        <time>2016-06-12T08:05:23.000Z</time>
      </trkpt>
      <trkpt lat="47.48654" lon="6.68336">
        <ele>348</ele>
        <time>2016-06-12T08:05:24.000Z</time>
      </trkpt>
      <trkpt lat="47.48656" lon="6.68339">
        <ele>348</ele>
        <time>2016-06-12T08:05:24.999Z</time>
      </trkpt>
      <trkpt lat="47.48657" lon="6.68342">
        <ele>348</ele>
        <time>2016-06-12T08:05:26.000Z</time>
      </trkpt>
      <trkpt lat="47.48658" lon="6.68345">
        <ele>348</ele>
        <time>2016-06-12T08:05:27.000Z</time>
      </trkpt>
      <trkpt lat="47.4866" lon="6.68348">
        <ele>348</ele>
        <time>2016-06-12T08:05:28.000Z</time>
      </trkpt>
      <trkpt lat="47.48661" lon="6.68351">
        <ele>348</ele>
        <time>2016-06-12T08:05:29.000Z</time>
      </trkpt>
      <trkpt lat="47.48664" lon="6.68355">
        <ele>348</ele>
        <time>2016-06-12T08:05:31.000Z</time>
      </trkpt>
      <trkpt lat="47.48666" lon="6.68357">
        <ele>348</ele>
        <time>2016-06-12T08:05:31.999Z</time>
      </trkpt>
      <trkpt lat="47.48668" lon="6.68359">
        <ele>350</ele>
        <time>2016-06-12T08:05:33.000Z</time>
      </trkpt>
      <trkpt lat="47.4867" lon="6.68361">
        <ele>350</ele>
        <time>2016-06-12T08:05:34.000Z</time>
      </trkpt>
      <trkpt lat="47.48673" lon="6.68365">
        <ele>350</ele>
        <time>2016-06-12T08:05:36.000Z</time>
      </trkpt>
      <trkpt lat="47.48674" lon="6.68367">
        <ele>350</ele>
        <time>2016-06-12T08:05:36.999Z</time>
      </trkpt>
      <trkpt lat="47.48677" lon="6.68371">
        <ele>350</ele>
        <time>2016-06-12T08:05:39.000Z</time>
      </trkpt>
      <trkpt lat="47.48679" lon="6.68372">
        <ele>350</ele>
        <time>2016-06-12T08:05:40.000Z</time>
      </trkpt>
      <trkpt lat="47.48681" lon="6.68371">
        <ele>350</ele>
        <time>2016-06-12T08:05:41.000Z</time>
      </trkpt>
      <trkpt lat="47.48684" lon="6.68369">
        <ele>350</ele>
        <time>2016-06-12T08:05:42.000Z</time>
      </trkpt>
      <trkpt lat="47.48686" lon="6.68367">
        <ele>350</ele>
        <time>2016-06-12T08:05:43.000Z</time>
      </trkpt>
      <trkpt lat="47.48688" lon="6.68364">
        <ele>350</ele>
        <time>2016-06-12T08:05:44.000Z</time>
      </trkpt>
      <trkpt lat="47.4869" lon="6.68363">
        <ele>350</ele>
        <time>2016-06-12T08:05:45.000Z</time>
      </trkpt>
      <trkpt lat="47.48691" lon="6.68361">
        <ele>350</ele>
        <time>2016-06-12T08:05:46.000Z</time>
      </trkpt>
      <trkpt lat="47.48694" lon="6.68357">
        <ele>350</ele>
        <time>2016-06-12T08:05:48.000Z</time>
      </trkpt>
      <trkpt lat="47.48695" lon="6.68355">
        <ele>350</ele>
        <time>2016-06-12T08:05:49.000Z</time>
      </trkpt>
      <trkpt lat="47.48698" lon="6.68352">
        <ele>351</ele>
        <time>2016-06-12T08:05:53.000Z</time>
      </trkpt>
      <trkpt lat="47.487" lon="6.6835">
        <ele>351</ele>
        <time>2016-06-12T08:05:54.000Z</time>
      </trkpt>
      <trkpt lat="47.48704" lon="6.68347">
        <ele>351</ele>
        <time>2016-06-12T08:05:56.000Z</time>
      </trkpt>
      <trkpt lat="47.48706" lon="6.68345">
        <ele>351</ele>
        <time>2016-06-12T08:05:57.000Z</time>
      </trkpt>
      <trkpt lat="47.4871" lon="6.68343">
        <ele>351</ele>
        <time>2016-06-12T08:05:59.000Z</time>
      </trkpt>
      <trkpt lat="47.48712" lon="6.68341">
        <ele>351</ele>
        <time>2016-06-12T08:06:00.000Z</time>
      </trkpt>
      <trkpt lat="47.48714" lon="6.6834">
        <ele>351</ele>
        <time>2016-06-12T08:06:01.000Z</time>
      </trkpt>
      <trkpt lat="47.48716" lon="6.68339">
        <ele>351</ele>
        <time>2016-06-12T08:06:02.000Z</time>
      </trkpt>
      <trkpt lat="47.4872" lon="6.68336">
        <ele>352</ele>
        <time>2016-06-12T08:06:04.000Z</time>
      </trkpt>
      <trkpt lat="47.48722" lon="6.68334">
        <ele>352</ele>
        <time>2016-06-12T08:06:05.000Z</time>
      </trkpt>
      <trkpt lat="47.48725" lon="6.68332">
        <ele>353</ele>
        <time>2016-06-12T08:06:07.000Z</time>
      </trkpt>
      <trkpt lat="47.48727" lon="6.68331">
        <ele>353</ele>
        <time>2016-06-12T08:06:08.000Z</time>
      </trkpt>
      <trkpt lat="47.4873" lon="6.68329">
        <ele>353</ele>
        <time>2016-06-12T08:06:10.000Z</time>
      </trkpt>
      <trkpt lat="47.48732" lon="6.68328">
        <ele>353</ele>
        <time>2016-06-12T08:06:11.000Z</time>
      </trkpt>
      <trkpt lat="47.48735" lon="6.68326">
        <ele>354</ele>
        <time>2016-06-12T08:06:13.000Z</time>
      </trkpt>
      <trkpt lat="47.48737" lon="6.68326">
        <ele>354</ele>
        <time>2016-06-12T08:06:14.000Z</time>
      </trkpt>
      <trkpt lat="47.4874" lon="6.68326">
        <ele>354</ele>
        <time>2016-06-12T08:06:16.000Z</time>
      </trkpt>
      <trkpt lat="47.48741" lon="6.68325">
        <ele>354</ele>
        <time>2016-06-12T08:06:17.000Z</time>
      </trkpt>
      <trkpt lat="47.48745" lon="6.68324">
        <ele>354</ele>
        <time>2016-06-12T08:06:19.000Z</time>
      </trkpt>
      <trkpt lat="47.48748" lon="6.68324">
        <ele>354</ele>
        <time>2016-06-12T08:06:20.000Z</time>
      </trkpt>
      <trkpt lat="47.4875" lon="6.68324">
        <ele>354</ele>
        <time>2016-06-12T08:06:21.000Z</time>
      </trkpt>
      <trkpt lat="47.48753" lon="6.68324">
        <ele>355</ele>
        <time>2016-06-12T08:06:22.000Z</time>
      </trkpt>
      <trkpt lat="47.48755" lon="6.68325">
        <ele>355</ele>
        <time>2016-06-12T08:06:23.000Z</time>
      </trkpt>
      <trkpt lat="47.48758" lon="6.68325">
        <ele>355</ele>
        <time>2016-06-12T08:06:24.000Z</time>
      </trkpt>
      <trkpt lat="47.4876" lon="6.68325">
        <ele>355</ele>
        <time>2016-06-12T08:06:25.000Z</time>
      </trkpt>
      <trkpt lat="47.48762" lon="6.68325">
        <ele>355</ele>
        <time>2016-06-12T08:06:26.000Z</time>
      </trkpt>
      <trkpt lat="47.48765" lon="6.68325">
        <ele>355</ele>
        <time>2016-06-12T08:06:27.000Z</time>
      </trkpt>
      <trkpt lat="47.48767" lon="6.68325">
        <ele>355</ele>
        <time>2016-06-12T08:06:28.000Z</time>
      </trkpt>
      <trkpt lat="47.48769" lon="6.68324">
        <ele>355</ele>
        <time>2016-06-12T08:06:29.000Z</time>
      </trkpt>
      <trkpt lat="47.48772" lon="6.68324">
        <ele>355</ele>
        <time>2016-06-12T08:06:30.000Z</time>
      </trkpt>
      <trkpt lat="47.48774" lon="6.68323">
        <ele>355</ele>
        <time>2016-06-12T08:06:31.000Z</time>
      </trkpt>
      <trkpt lat="47.48776" lon="6.68322">
        <ele>355</ele>
        <time>2016-06-12T08:06:32.000Z</time>
      </trkpt>
      <trkpt lat="47.4878" lon="6.68321">
        <ele>355</ele>
        <time>2016-06-12T08:06:34.000Z</time>
      </trkpt>
      <trkpt lat="47.48782" lon="6.68321">
        <ele>355</ele>
        <time>2016-06-12T08:06:35.000Z</time>
      </trkpt>
      <trkpt lat="47.48786" lon="6.68318">
        <ele>355</ele>
        <time>2016-06-12T08:06:37.000Z</time>
      </trkpt>
      <trkpt lat="47.48788" lon="6.68316">
        <ele>355</ele>
        <time>2016-06-12T08:06:38.000Z</time>
      </trkpt>
      <trkpt lat="47.4879" lon="6.68314">
        <ele>355</ele>
        <time>2016-06-12T08:06:39.000Z</time>
      </trkpt>
      <trkpt lat="47.48792" lon="6.68313">
        <ele>356</ele>
        <time>2016-06-12T08:06:40.000Z</time>
      </trkpt>
      <trkpt lat="47.48794" lon="6.68311">
        <ele>356</ele>
        <time>2016-06-12T08:06:41.000Z</time>
      </trkpt>
      <trkpt lat="47.48797" lon="6.68309">
        <ele>356</ele>
        <time>2016-06-12T08:06:42.000Z</time>
      </trkpt>
      <trkpt lat="47.48799" lon="6.68307">
        <ele>356</ele>
        <time>2016-06-12T08:06:43.000Z</time>
      </trkpt>
      <trkpt lat="47.48802" lon="6.68305">
        <ele>356</ele>
        <time>2016-06-12T08:06:44.000Z</time>
      </trkpt>
      <trkpt lat="47.48805" lon="6.68302">
        <ele>356</ele>
        <time>2016-06-12T08:06:45.000Z</time>
      </trkpt>
      <trkpt lat="47.48807" lon="6.683">
        <ele>356</ele>
        <time>2016-06-12T08:06:46.000Z</time>
      </trkpt>
      <trkpt lat="47.4881" lon="6.68298">
        <ele>356</ele>
        <time>2016-06-12T08:06:47.000Z</time>
      </trkpt>
      <trkpt lat="47.48812" lon="6.68296">
        <ele>356</ele>
        <time>2016-06-12T08:06:48.000Z</time>
      </trkpt>
      <trkpt lat="47.48814" lon="6.68294">
        <ele>356</ele>
        <time>2016-06-12T08:06:49.000Z</time>
      </trkpt>
      <trkpt lat="47.48816" lon="6.68292">
        <ele>356</ele>
        <time>2016-06-12T08:06:50.000Z</time>
      </trkpt>
      <trkpt lat="47.48818" lon="6.68289">
        <ele>356</ele>
        <time>2016-06-12T08:06:51.000Z</time>
      </trkpt>
      <trkpt lat="47.4882" lon="6.68286">
        <ele>356</ele>
        <time>2016-06-12T08:06:52.000Z</time>
      </trkpt>
      <trkpt lat="47.48821" lon="6.68283">
        <ele>356</ele>
        <time>2016-06-12T08:06:53.000Z</time>
      </trkpt>
      <trkpt lat="47.48822" lon="6.68278">
        <ele>356</ele>
        <time>2016-06-12T08:06:54.000Z</time>
      </trkpt>
      <trkpt lat="47.48824" lon="6.68275">
        <ele>357</ele>
        <time>2016-06-12T08:06:55.000Z</time>
      </trkpt>
      <trkpt lat="47.48825" lon="6.68271">
        <ele>357</ele>
        <time>2016-06-12T08:06:56.000Z</time>
      </trkpt>
      <trkpt lat="47.48827" lon="6.68267">
        <ele>357</ele>
        <time>2016-06-12T08:06:57.000Z</time>
      </trkpt>
      <trkpt lat="47.48828" lon="6.68264">
        <ele>357</ele>
        <time>2016-06-12T08:06:58.000Z</time>
      </trkpt>
      <trkpt lat="47.48829" lon="6.68261">
        <ele>357</ele>
        <time>2016-06-12T08:06:59.000Z</time>
      </trkpt>
      <trkpt lat="47.48831" lon="6.68258">
        <ele>357</ele>
        <time>2016-06-12T08:07:00.000Z</time>
      </trkpt>
      <trkpt lat="47.48833" lon="6.68253">
        <ele>358</ele>
        <time>2016-06-12T08:07:02.000Z</time>
      </trkpt>
      <trkpt lat="47.48834" lon="6.68251">
        <ele>358</ele>
        <time>2016-06-12T08:07:03.000Z</time>
      </trkpt>
      <trkpt lat="47.48837" lon="6.68246">
        <ele>358</ele>
        <time>2016-06-12T08:07:05.000Z</time>
      </trkpt>
      <trkpt lat="47.48838" lon="6.68244">
        <ele>358</ele>
        <time>2016-06-12T08:07:06.000Z</time>
      </trkpt>
      <trkpt lat="47.4884" lon="6.68239">
        <ele>358</ele>
        <time>2016-06-12T08:07:08.000Z</time>
      </trkpt>
      <trkpt lat="47.4884" lon="6.68237">
        <ele>359</ele>
        <time>2016-06-12T08:07:09.000Z</time>
      </trkpt>
      <trkpt lat="47.48842" lon="6.68232">
        <ele>359</ele>
        <time>2016-06-12T08:07:11.000Z</time>
      </trkpt>
      <trkpt lat="47.48843" lon="6.6823">
        <ele>359</ele>
        <time>2016-06-12T08:07:12.000Z</time>
      </trkpt>
      <trkpt lat="47.48845" lon="6.68226">
        <ele>359</ele>
        <time>2016-06-12T08:07:14.000Z</time>
      </trkpt>
      <trkpt lat="47.48846" lon="6.68224">
        <ele>359</ele>
        <time>2016-06-12T08:07:15.000Z</time>
      </trkpt>
      <trkpt lat="47.48848" lon="6.68219">
        <ele>359</ele>
        <time>2016-06-12T08:07:17.000Z</time>
      </trkpt>
      <trkpt lat="47.48849" lon="6.68217">
        <ele>359</ele>
        <time>2016-06-12T08:07:18.000Z</time>
      </trkpt>
      <trkpt lat="47.48852" lon="6.68211">
        <ele>359</ele>
        <time>2016-06-12T08:07:20.000Z</time>
      </trkpt>
      <trkpt lat="47.48853" lon="6.68209">
        <ele>359</ele>
        <time>2016-06-12T08:07:21.000Z</time>
      </trkpt>
      <trkpt lat="47.48854" lon="6.68204">
        <ele>359</ele>
        <time>2016-06-12T08:07:23.000Z</time>
      </trkpt>
      <trkpt lat="47.48855" lon="6.68202">
        <ele>359</ele>
        <time>2016-06-12T08:07:24.000Z</time>
      </trkpt>
      <trkpt lat="47.48858" lon="6.68198">
        <ele>359</ele>
        <time>2016-06-12T08:07:26.000Z</time>
      </trkpt>
      <trkpt lat="47.48859" lon="6.68196">
        <ele>359</ele>
        <time>2016-06-12T08:07:27.000Z</time>
      </trkpt>
      <trkpt lat="47.48862" lon="6.68191">
        <ele>360</ele>
        <time>2016-06-12T08:07:29.000Z</time>
      </trkpt>
      <trkpt lat="47.48863" lon="6.68189">
        <ele>360</ele>
        <time>2016-06-12T08:07:30.000Z</time>
      </trkpt>
      <trkpt lat="47.48865" lon="6.68186">
        <ele>360</ele>
        <time>2016-06-12T08:07:31.000Z</time>
      </trkpt>
      <trkpt lat="47.48866" lon="6.68183">
        <ele>360</ele>
        <time>2016-06-12T08:07:32.000Z</time>
      </trkpt>
      <trkpt lat="47.48868" lon="6.6818">
        <ele>360</ele>
        <time>2016-06-12T08:07:33.000Z</time>
      </trkpt>
      <trkpt lat="47.48869" lon="6.68177">
        <ele>360</ele>
        <time>2016-06-12T08:07:34.000Z</time>
      </trkpt>
      <trkpt lat="47.48871" lon="6.68174">
        <ele>360</ele>
        <time>2016-06-12T08:07:35.000Z</time>
      </trkpt>
      <trkpt lat="47.48872" lon="6.68171">
        <ele>360</ele>
        <time>2016-06-12T08:07:36.000Z</time>
      </trkpt>
      <trkpt lat="47.48874" lon="6.68168">
        <ele>360</ele>
        <time>2016-06-12T08:07:37.000Z</time>
      </trkpt>
      <trkpt lat="47.48875" lon="6.68165">
        <ele>362</ele>
        <time>2016-06-12T08:07:38.000Z</time>
      </trkpt>
      <trkpt lat="47.48877" lon="6.68162">
        <ele>362</ele>
        <time>2016-06-12T08:07:39.000Z</time>
      </trkpt>
      <trkpt lat="47.48879" lon="6.68158">
        <ele>362</ele>
        <time>2016-06-12T08:07:40.000Z</time>
      </trkpt>
      <trkpt lat="47.4888" lon="6.68154">
        <ele>362</ele>
        <time>2016-06-12T08:07:41.000Z</time>
      </trkpt>
      <trkpt lat="47.48882" lon="6.68151">
        <ele>362</ele>
        <time>2016-06-12T08:07:42.000Z</time>
      </trkpt>
      <trkpt lat="47.48883" lon="6.68147">
        <ele>362</ele>
        <time>2016-06-12T08:07:43.000Z</time>
      </trkpt>
      <trkpt lat="47.48885" lon="6.68143">
        <ele>362</ele>
        <time>2016-06-12T08:07:44.000Z</time>
      </trkpt>
      <trkpt lat="47.48887" lon="6.68139">
        <ele>362</ele>
        <time>2016-06-12T08:07:45.000Z</time>
      </trkpt>
      <trkpt lat="47.48888" lon="6.68135">
        <ele>362</ele>
        <time>2016-06-12T08:07:46.000Z</time>
      </trkpt>
      <trkpt lat="47.4889" lon="6.68131">
        <ele>362</ele>
        <time>2016-06-12T08:07:47.000Z</time>
      </trkpt>
      <trkpt lat="47.48891" lon="6.68126">
        <ele>362</ele>
        <time>2016-06-12T08:07:48.000Z</time>
      </trkpt>
      <trkpt lat="47.48893" lon="6.68121">
        <ele>362</ele>
        <time>2016-06-12T08:07:49.000Z</time>
      </trkpt>
      <trkpt lat="47.48895" lon="6.68117">
        <ele>362</ele>
        <time>2016-06-12T08:07:50.000Z</time>
      </trkpt>
      <trkpt lat="47.48897" lon="6.68112">
        <ele>362</ele>
        <time>2016-06-12T08:07:51.000Z</time>
      </trkpt>
      <trkpt lat="47.48899" lon="6.68107">
        <ele>362</ele>
        <time>2016-06-12T08:07:52.000Z</time>
      </trkpt>
      <trkpt lat="47.48901" lon="6.68102">
        <ele>362</ele>
        <time>2016-06-12T08:07:53.000Z</time>
      </trkpt>
      <trkpt lat="47.48904" lon="6.68097">
        <ele>362</ele>
        <time>2016-06-12T08:07:54.000Z</time>
      </trkpt>
      <trkpt lat="47.48906" lon="6.68092">
        <ele>362</ele>
        <time>2016-06-12T08:07:55.000Z</time>
      </trkpt>
      <trkpt lat="47.48908" lon="6.68086">
        <ele>362</ele>
        <time>2016-06-12T08:07:56.000Z</time>
      </trkpt>
      <trkpt lat="47.48911" lon="6.68081">
        <ele>363</ele>
        <time>2016-06-12T08:07:57.000Z</time>
      </trkpt>
      <trkpt lat="47.48913" lon="6.68076">
        <ele>363</ele>
        <time>2016-06-12T08:07:58.000Z</time>
      </trkpt>
      <trkpt lat="47.48915" lon="6.6807">
        <ele>363</ele>
        <time>2016-06-12T08:07:59.000Z</time>
      </trkpt>
      <trkpt lat="47.48918" lon="6.68065">
        <ele>361</ele>
        <time>2016-06-12T08:08:00.000Z</time>
      </trkpt>
      <trkpt lat="47.4892" lon="6.6806">
        <ele>361</ele>
        <time>2016-06-12T08:08:01.000Z</time>
      </trkpt>
      <trkpt lat="47.48923" lon="6.68054">
        <ele>361</ele>
        <time>2016-06-12T08:08:02.000Z</time>
      </trkpt>
      <trkpt lat="47.48925" lon="6.68049">
        <ele>361</ele>
        <time>2016-06-12T08:08:03.000Z</time>
      </trkpt>
      <trkpt lat="47.48927" lon="6.68043">
        <ele>361</ele>
        <time>2016-06-12T08:08:04.000Z</time>
      </trkpt>
      <trkpt lat="47.4893" lon="6.68038">
        <ele>361</ele>
        <time>2016-06-12T08:08:05.000Z</time>
      </trkpt>
      <trkpt lat="47.48932" lon="6.68033">
        <ele>361</ele>
        <time>2016-06-12T08:08:06.000Z</time>
      </trkpt>
      <trkpt lat="47.48934" lon="6.68028">
        <ele>361</ele>
        <time>2016-06-12T08:08:07.000Z</time>
      </trkpt>
      <trkpt lat="47.48936" lon="6.68024">
        <ele>361</ele>
        <time>2016-06-12T08:08:08.000Z</time>
      </trkpt>
      <trkpt lat="47.48938" lon="6.68019">
        <ele>361</ele>
        <time>2016-06-12T08:08:09.000Z</time>
      </trkpt>
      <trkpt lat="47.4894" lon="6.68015">
        <ele>361</ele>
        <time>2016-06-12T08:08:10.000Z</time>
      </trkpt>
      <trkpt lat="47.48942" lon="6.68011">
        <ele>361</ele>
        <time>2016-06-12T08:08:11.000Z</time>
      </trkpt>
      <trkpt lat="47.48944" lon="6.68007">
        <ele>361</ele>
        <time>2016-06-12T08:08:12.000Z</time>
      </trkpt>
      <trkpt lat="47.48946" lon="6.68003">
        <ele>361</ele>
        <time>2016-06-12T08:08:13.000Z</time>
      </trkpt>
      <trkpt lat="47.48948" lon="6.67999">
        <ele>362</ele>
        <time>2016-06-12T08:08:14.000Z</time>
      </trkpt>
      <trkpt lat="47.48949" lon="6.67996">
        <ele>362</ele>
        <time>2016-06-12T08:08:15.000Z</time>
      </trkpt>
      <trkpt lat="47.48951" lon="6.67992">
        <ele>362</ele>
        <time>2016-06-12T08:08:16.000Z</time>
      </trkpt>
      <trkpt lat="47.48953" lon="6.67988">
        <ele>362</ele>
        <time>2016-06-12T08:08:17.000Z</time>
      </trkpt>
      <trkpt lat="47.48954" lon="6.67984">
        <ele>362</ele>
        <time>2016-06-12T08:08:18.000Z</time>
      </trkpt>
      <trkpt lat="47.48956" lon="6.67981">
        <ele>362</ele>
        <time>2016-06-12T08:08:19.000Z</time>
      </trkpt>
      <trkpt lat="47.48958" lon="6.67977">
        <ele>362</ele>
        <time>2016-06-12T08:08:20.000Z</time>
      </trkpt>
      <trkpt lat="47.4896" lon="6.67973">
        <ele>362</ele>
        <time>2016-06-12T08:08:21.000Z</time>
      </trkpt>
      <trkpt lat="47.48963" lon="6.67968">
        <ele>362</ele>
        <time>2016-06-12T08:08:22.000Z</time>
      </trkpt>
      <trkpt lat="47.48966" lon="6.67963">
        <ele>362</ele>
        <time>2016-06-12T08:08:23.000Z</time>
      </trkpt>
      <trkpt lat="47.4897" lon="6.67957">
        <ele>362</ele>
        <time>2016-06-12T08:08:24.000Z</time>
      </trkpt>
      <trkpt lat="47.48973" lon="6.67952">
        <ele>362</ele>
        <time>2016-06-12T08:08:25.000Z</time>
      </trkpt>
      <trkpt lat="47.48976" lon="6.67945">
        <ele>361</ele>
        <time>2016-06-12T08:08:26.000Z</time>
      </trkpt>
      <trkpt lat="47.48981" lon="6.67939">
        <ele>361</ele>
        <time>2016-06-12T08:08:27.000Z</time>
      </trkpt>
      <trkpt lat="47.48984" lon="6.67931">
        <ele>361</ele>
        <time>2016-06-12T08:08:28.000Z</time>
      </trkpt>
      <trkpt lat="47.48988" lon="6.67925">
        <ele>360</ele>
        <time>2016-06-12T08:08:29.000Z</time>
      </trkpt>
      <trkpt lat="47.48992" lon="6.67919">
        <ele>359</ele>
        <time>2016-06-12T08:08:30.000Z</time>
      </trkpt>
      <trkpt lat="47.48995" lon="6.67913">
        <ele>360</ele>
        <time>2016-06-12T08:08:31.000Z</time>
      </trkpt>
      <trkpt lat="47.48998" lon="6.67907">
        <ele>361</ele>
        <time>2016-06-12T08:08:32.000Z</time>
      </trkpt>
      <trkpt lat="47.49002" lon="6.67901">
        <ele>357</ele>
        <time>2016-06-12T08:08:33.000Z</time>
      </trkpt>
      <trkpt lat="47.49005" lon="6.67896">
        <ele>357</ele>
        <time>2016-06-12T08:08:34.000Z</time>
      </trkpt>
      <trkpt lat="47.49009" lon="6.67891">
        <ele>357</ele>
        <time>2016-06-12T08:08:35.000Z</time>
      </trkpt>
      <trkpt lat="47.49012" lon="6.67886">
        <ele>357</ele>
        <time>2016-06-12T08:08:36.000Z</time>
      </trkpt>
      <trkpt lat="47.49015" lon="6.6788">
        <ele>357</ele>
        <time>2016-06-12T08:08:37.000Z</time>
      </trkpt>
      <trkpt lat="47.49018" lon="6.67874">
        <ele>357</ele>
        <time>2016-06-12T08:08:38.000Z</time>
      </trkpt>
      <trkpt lat="47.49021" lon="6.67869">
        <ele>357</ele>
        <time>2016-06-12T08:08:39.000Z</time>
      </trkpt>
      <trkpt lat="47.49024" lon="6.67863">
        <ele>357</ele>
        <time>2016-06-12T08:08:40.000Z</time>
      </trkpt>
      <trkpt lat="47.49027" lon="6.67858">
        <ele>357</ele>
        <time>2016-06-12T08:08:41.000Z</time>
      </trkpt>
      <trkpt lat="47.49031" lon="6.67853">
        <ele>357</ele>
        <time>2016-06-12T08:08:42.000Z</time>
      </trkpt>
      <trkpt lat="47.49034" lon="6.67849">
        <ele>357</ele>
        <time>2016-06-12T08:08:43.000Z</time>
      </trkpt>
      <trkpt lat="47.49036" lon="6.67843">
        <ele>357</ele>
        <time>2016-06-12T08:08:44.000Z</time>
      </trkpt>
      <trkpt lat="47.49039" lon="6.67837">
        <ele>356</ele>
        <time>2016-06-12T08:08:45.000Z</time>
      </trkpt>
      <trkpt lat="47.49042" lon="6.67831">
        <ele>359</ele>
        <time>2016-06-12T08:08:46.000Z</time>
      </trkpt>
      <trkpt lat="47.49044" lon="6.67825">
        <ele>359</ele>
        <time>2016-06-12T08:08:47.000Z</time>
      </trkpt>
      <trkpt lat="47.49047" lon="6.67818">
        <ele>359</ele>
        <time>2016-06-12T08:08:48.000Z</time>
      </trkpt>
      <trkpt lat="47.4905" lon="6.67813">
        <ele>358</ele>
        <time>2016-06-12T08:08:49.000Z</time>
      </trkpt>
      <trkpt lat="47.49053" lon="6.67808">
        <ele>358</ele>
        <time>2016-06-12T08:08:50.000Z</time>
      </trkpt>
      <trkpt lat="47.49056" lon="6.67802">
        <ele>358</ele>
        <time>2016-06-12T08:08:51.000Z</time>
      </trkpt>
      <trkpt lat="47.49058" lon="6.67796">
        <ele>358</ele>
        <time>2016-06-12T08:08:52.000Z</time>
      </trkpt>
      <trkpt lat="47.49061" lon="6.67791">
        <ele>359</ele>
        <time>2016-06-12T08:08:53.000Z</time>
      </trkpt>
      <trkpt lat="47.49063" lon="6.67786">
        <ele>359</ele>
        <time>2016-06-12T08:08:54.000Z</time>
      </trkpt>
      <trkpt lat="47.49067" lon="6.67781">
        <ele>359</ele>
        <time>2016-06-12T08:08:55.000Z</time>
      </trkpt>
      <trkpt lat="47.49069" lon="6.67776">
        <ele>358</ele>
        <time>2016-06-12T08:08:56.000Z</time>
      </trkpt>
      <trkpt lat="47.49072" lon="6.67772">
        <ele>358</ele>
        <time>2016-06-12T08:08:57.000Z</time>
      </trkpt>
      <trkpt lat="47.49075" lon="6.67767">
        <ele>358</ele>
        <time>2016-06-12T08:08:58.000Z</time>
      </trkpt>
      <trkpt lat="47.49077" lon="6.67762">
        <ele>358</ele>
        <time>2016-06-12T08:08:59.000Z</time>
      </trkpt>
      <trkpt lat="47.4908" lon="6.67758">
        <ele>358</ele>
        <time>2016-06-12T08:09:00.000Z</time>
      </trkpt>
      <trkpt lat="47.49083" lon="6.67753">
        <ele>357</ele>
        <time>2016-06-12T08:09:01.000Z</time>
      </trkpt>
      <trkpt lat="47.49086" lon="6.67748">
        <ele>357</ele>
        <time>2016-06-12T08:09:02.000Z</time>
      </trkpt>
      <trkpt lat="47.49088" lon="6.67743">
        <ele>357</ele>
        <time>2016-06-12T08:09:03.000Z</time>
      </trkpt>
      <trkpt lat="47.49091" lon="6.67739">
        <ele>357</ele>
        <time>2016-06-12T08:09:04.000Z</time>
      </trkpt>
      <trkpt lat="47.49093" lon="6.67734">
        <ele>357</ele>
        <time>2016-06-12T08:09:05.000Z</time>
      </trkpt>
      <trkpt lat="47.49095" lon="6.6773">
        <ele>358</ele>
        <time>2016-06-12T08:09:06.000Z</time>
      </trkpt>
      <trkpt lat="47.49097" lon="6.67725">
        <ele>358</ele>
        <time>2016-06-12T08:09:07.000Z</time>
      </trkpt>
      <trkpt lat="47.49098" lon="6.6772">
        <ele>358</ele>
        <time>2016-06-12T08:09:08.000Z</time>
      </trkpt>
      <trkpt lat="47.49099" lon="6.67716">
        <ele>358</ele>
        <time>2016-06-12T08:09:09.000Z</time>
      </trkpt>
      <trkpt lat="47.491" lon="6.67711">
        <ele>358</ele>
        <time>2016-06-12T08:09:10.000Z</time>
      </trkpt>
      <trkpt lat="47.49101" lon="6.67706">
        <ele>358</ele>
        <time>2016-06-12T08:09:11.000Z</time>
      </trkpt>
      <trkpt lat="47.49101" lon="6.67701">
        <ele>359</ele>
        <time>2016-06-12T08:09:12.000Z</time>
      </trkpt>
      <trkpt lat="47.49101" lon="6.67696">
        <ele>359</ele>
        <time>2016-06-12T08:09:13.000Z</time>
      </trkpt>
      <trkpt lat="47.49101" lon="6.67691">
        <ele>359</ele>
        <time>2016-06-12T08:09:14.000Z</time>
      </trkpt>
      <trkpt lat="47.491" lon="6.67686">
        <ele>359</ele>
        <time>2016-06-12T08:09:15.000Z</time>
      </trkpt>
      <trkpt lat="47.491" lon="6.67681">
        <ele>359</ele>
        <time>2016-06-12T08:09:16.000Z</time>
      </trkpt>
      <trkpt lat="47.491" lon="6.67676">
        <ele>360</ele>
        <time>2016-06-12T08:09:17.000Z</time>
      </trkpt>
      <trkpt lat="47.491" lon="6.67671">
        <ele>360</ele>
        <time>2016-06-12T08:09:18.000Z</time>
      </trkpt>
      <trkpt lat="47.491" lon="6.67666">
        <ele>361</ele>
        <time>2016-06-12T08:09:19.000Z</time>
      </trkpt>
      <trkpt lat="47.491" lon="6.67661">
        <ele>361</ele>
        <time>2016-06-12T08:09:20.000Z</time>
      </trkpt>
      <trkpt lat="47.49101" lon="6.67656">
        <ele>361</ele>
        <time>2016-06-12T08:09:21.001Z</time>
      </trkpt>
      <trkpt lat="47.49101" lon="6.67652">
        <ele>361</ele>
        <time>2016-06-12T08:09:22.001Z</time>
      </trkpt>
      <trkpt lat="47.49102" lon="6.67647">
        <ele>361</ele>
        <time>2016-06-12T08:09:23.000Z</time>
      </trkpt>
      <trkpt lat="47.49102" lon="6.67642">
        <ele>361</ele>
        <time>2016-06-12T08:09:24.000Z</time>
      </trkpt>
      <trkpt lat="47.49102" lon="6.67636">
        <ele>361</ele>
        <time>2016-06-12T08:09:25.000Z</time>
      </trkpt>
      <trkpt lat="47.49102" lon="6.67631">
        <ele>361</ele>
        <time>2016-06-12T08:09:26.000Z</time>
      </trkpt>
      <trkpt lat="47.49102" lon="6.67625">
        <ele>361</ele>
        <time>2016-06-12T08:09:27.000Z</time>
      </trkpt>
      <trkpt lat="47.49102" lon="6.67619">
        <ele>361</ele>
        <time>2016-06-12T08:09:28.000Z</time>
      </trkpt>
      <trkpt lat="47.49102" lon="6.67613">
        <ele>361</ele>
        <time>2016-06-12T08:09:29.000Z</time>
      </trkpt>
      <trkpt lat="47.49101" lon="6.67608">
        <ele>361</ele>
        <time>2016-06-12T08:09:30.000Z</time>
      </trkpt>
      <trkpt lat="47.491" lon="6.67603">
        <ele>362</ele>
        <time>2016-06-12T08:09:31.000Z</time>
      </trkpt>
      <trkpt lat="47.49099" lon="6.67598">
        <ele>362</ele>
        <time>2016-06-12T08:09:32.000Z</time>
      </trkpt>
      <trkpt lat="47.49098" lon="6.67593">
        <ele>362</ele>
        <time>2016-06-12T08:09:33.000Z</time>
      </trkpt>
      <trkpt lat="47.49097" lon="6.67588">
        <ele>362</ele>
        <time>2016-06-12T08:09:33.999Z</time>
      </trkpt>
      <trkpt lat="47.49096" lon="6.67582">
        <ele>362</ele>
        <time>2016-06-12T08:09:35.000Z</time>
      </trkpt>
      <trkpt lat="47.49096" lon="6.67576">
        <ele>362</ele>
        <time>2016-06-12T08:09:36.000Z</time>
      </trkpt>
      <trkpt lat="47.49096" lon="6.6757">
        <ele>362</ele>
        <time>2016-06-12T08:09:37.000Z</time>
      </trkpt>
      <trkpt lat="47.49096" lon="6.67564">
        <ele>361</ele>
        <time>2016-06-12T08:09:38.000Z</time>
      </trkpt>
      <trkpt lat="47.49097" lon="6.67556">
        <ele>361</ele>
        <time>2016-06-12T08:09:39.000Z</time>
      </trkpt>
      <trkpt lat="47.49098" lon="6.67548">
        <ele>361</ele>
        <time>2016-06-12T08:09:40.000Z</time>
      </trkpt>
      <trkpt lat="47.49098" lon="6.67541">
        <ele>361</ele>
        <time>2016-06-12T08:09:41.000Z</time>
      </trkpt>
      <trkpt lat="47.49097" lon="6.67534">
        <ele>361</ele>
        <time>2016-06-12T08:09:42.000Z</time>
      </trkpt>
      <trkpt lat="47.49095" lon="6.67526">
        <ele>361</ele>
        <time>2016-06-12T08:09:43.000Z</time>
      </trkpt>
      <trkpt lat="47.49092" lon="6.67519">
        <ele>360</ele>
        <time>2016-06-12T08:09:44.000Z</time>
      </trkpt>
      <trkpt lat="47.49089" lon="6.67511">
        <ele>360</ele>
        <time>2016-06-12T08:09:45.000Z</time>
      </trkpt>
      <trkpt lat="47.49084" lon="6.67507">
        <ele>360</ele>
        <time>2016-06-12T08:09:46.000Z</time>
      </trkpt>
      <trkpt lat="47.49079" lon="6.67502">
        <ele>361</ele>
        <time>2016-06-12T08:09:47.000Z</time>
      </trkpt>
      <trkpt lat="47.49073" lon="6.67498">
        <ele>360</ele>
        <time>2016-06-12T08:09:48.000Z</time>
      </trkpt>
      <trkpt lat="47.49068" lon="6.67493">
        <ele>360</ele>
        <time>2016-06-12T08:09:48.999Z</time>
      </trkpt>
      <trkpt lat="47.49063" lon="6.67488">
        <ele>360</ele>
        <time>2016-06-12T08:09:50.000Z</time>
      </trkpt>
      <trkpt lat="47.49058" lon="6.67481">
        <ele>359</ele>
        <time>2016-06-12T08:09:51.000Z</time>
      </trkpt>
      <trkpt lat="47.49057" lon="6.6747">
        <ele>359</ele>
        <time>2016-06-12T08:09:52.000Z</time>
      </trkpt>
      <trkpt lat="47.49056" lon="6.67461">
        <ele>359</ele>
        <time>2016-06-12T08:09:53.000Z</time>
      </trkpt>
      <trkpt lat="47.49056" lon="6.67452">
        <ele>359</ele>
        <time>2016-06-12T08:09:54.000Z</time>
      </trkpt>
      <trkpt lat="47.49056" lon="6.67442">
        <ele>358</ele>
        <time>2016-06-12T08:09:55.000Z</time>
      </trkpt>
      <trkpt lat="47.49058" lon="6.67435">
        <ele>358</ele>
        <time>2016-06-12T08:09:56.000Z</time>
      </trkpt>
      <trkpt lat="47.4906" lon="6.67426">
        <ele>358</ele>
        <time>2016-06-12T08:09:57.000Z</time>
      </trkpt>
      <trkpt lat="47.49062" lon="6.67418">
        <ele>358</ele>
        <time>2016-06-12T08:09:58.000Z</time>
      </trkpt>
      <trkpt lat="47.49064" lon="6.67411">
        <ele>356</ele>
        <time>2016-06-12T08:09:59.000Z</time>
      </trkpt>
      <trkpt lat="47.49065" lon="6.67403">
        <ele>356</ele>
        <time>2016-06-12T08:10:00.000Z</time>
      </trkpt>
      <trkpt lat="47.49068" lon="6.67395">
        <ele>356</ele>
        <time>2016-06-12T08:10:01.000Z</time>
      </trkpt>
      <trkpt lat="47.49069" lon="6.67389">
        <ele>356</ele>
        <time>2016-06-12T08:10:02.000Z</time>
      </trkpt>
      <trkpt lat="47.49071" lon="6.67381">
        <ele>356</ele>
        <time>2016-06-12T08:10:03.000Z</time>
      </trkpt>
      <trkpt lat="47.49073" lon="6.67375">
        <ele>356</ele>
        <time>2016-06-12T08:10:04.000Z</time>
      </trkpt>
      <trkpt lat="47.49075" lon="6.67369">
        <ele>355</ele>
        <time>2016-06-12T08:10:05.000Z</time>
      </trkpt>
      <trkpt lat="47.49076" lon="6.67362">
        <ele>355</ele>
        <time>2016-06-12T08:10:06.000Z</time>
      </trkpt>
      <trkpt lat="47.49078" lon="6.67356">
        <ele>355</ele>
        <time>2016-06-12T08:10:07.000Z</time>
      </trkpt>
      <trkpt lat="47.49079" lon="6.6735">
        <ele>355</ele>
        <time>2016-06-12T08:10:08.000Z</time>
      </trkpt>
      <trkpt lat="47.49081" lon="6.67345">
        <ele>355</ele>
        <time>2016-06-12T08:10:09.000Z</time>
      </trkpt>
      <trkpt lat="47.49082" lon="6.6734">
        <ele>354</ele>
        <time>2016-06-12T08:10:10.000Z</time>
      </trkpt>
      <trkpt lat="47.49083" lon="6.67334">
        <ele>354</ele>
        <time>2016-06-12T08:10:11.000Z</time>
      </trkpt>
      <trkpt lat="47.49083" lon="6.67329">
        <ele>354</ele>
        <time>2016-06-12T08:10:12.000Z</time>
      </trkpt>
      <trkpt lat="47.49085" lon="6.67324">
        <ele>355</ele>
        <time>2016-06-12T08:10:13.000Z</time>
      </trkpt>
      <trkpt lat="47.49085" lon="6.67319">
        <ele>355</ele>
        <time>2016-06-12T08:10:14.000Z</time>
      </trkpt>
      <trkpt lat="47.49086" lon="6.67314">
        <ele>355</ele>
        <time>2016-06-12T08:10:15.000Z</time>
      </trkpt>
      <trkpt lat="47.49087" lon="6.67309">
        <ele>355</ele>
        <time>2016-06-12T08:10:16.000Z</time>
      </trkpt>
      <trkpt lat="47.49088" lon="6.67305">
        <ele>356</ele>
        <time>2016-06-12T08:10:17.000Z</time>
      </trkpt>
      <trkpt lat="47.49089" lon="6.673">
        <ele>356</ele>
        <time>2016-06-12T08:10:18.000Z</time>
      </trkpt>
      <trkpt lat="47.49089" lon="6.67296">
        <ele>356</ele>
        <time>2016-06-12T08:10:19.000Z</time>
      </trkpt>
      <trkpt lat="47.4909" lon="6.67292">
        <ele>356</ele>
        <time>2016-06-12T08:10:20.000Z</time>
      </trkpt>
      <trkpt lat="47.49091" lon="6.67288">
        <ele>356</ele>
        <time>2016-06-12T08:10:21.000Z</time>
      </trkpt>
      <trkpt lat="47.49092" lon="6.67283">
        <ele>356</ele>
        <time>2016-06-12T08:10:22.000Z</time>
      </trkpt>
      <trkpt lat="47.49093" lon="6.67279">
        <ele>356</ele>
        <time>2016-06-12T08:10:23.000Z</time>
      </trkpt>
      <trkpt lat="47.49094" lon="6.67274">
        <ele>356</ele>
        <time>2016-06-12T08:10:24.000Z</time>
      </trkpt>
      <trkpt lat="47.49096" lon="6.6727">
        <ele>356</ele>
        <time>2016-06-12T08:10:25.000Z</time>
      </trkpt>
      <trkpt lat="47.49097" lon="6.67265">
        <ele>356</ele>
        <time>2016-06-12T08:10:26.000Z</time>
      </trkpt>
      <trkpt lat="47.49098" lon="6.67261">
        <ele>356</ele>
        <time>2016-06-12T08:10:27.000Z</time>
      </trkpt>
      <trkpt lat="47.49099" lon="6.67256">
        <ele>356</ele>
        <time>2016-06-12T08:10:28.000Z</time>
      </trkpt>
      <trkpt lat="47.49101" lon="6.67252">
        <ele>356</ele>
        <time>2016-06-12T08:10:29.000Z</time>
      </trkpt>
      <trkpt lat="47.49102" lon="6.67248">
        <ele>358</ele>
        <time>2016-06-12T08:10:30.000Z</time>
      </trkpt>
      <trkpt lat="47.49103" lon="6.67244">
        <ele>358</ele>
        <time>2016-06-12T08:10:31.000Z</time>
      </trkpt>
      <trkpt lat="47.49104" lon="6.6724">
        <ele>358</ele>
        <time>2016-06-12T08:10:32.000Z</time>
      </trkpt>
      <trkpt lat="47.49105" lon="6.67236">
        <ele>358</ele>
        <time>2016-06-12T08:10:33.000Z</time>
      </trkpt>
      <trkpt lat="47.49107" lon="6.67231">
        <ele>358</ele>
        <time>2016-06-12T08:10:34.000Z</time>
      </trkpt>
      <trkpt lat="47.49108" lon="6.67227">
        <ele>359</ele>
        <time>2016-06-12T08:10:35.000Z</time>
      </trkpt>
      <trkpt lat="47.49108" lon="6.67222">
        <ele>359</ele>
        <time>2016-06-12T08:10:36.000Z</time>
      </trkpt>
      <trkpt lat="47.49109" lon="6.67218">
        <ele>359</ele>
        <time>2016-06-12T08:10:37.000Z</time>
      </trkpt>
      <trkpt lat="47.4911" lon="6.67214">
        <ele>359</ele>
        <time>2016-06-12T08:10:38.000Z</time>
      </trkpt>
      <trkpt lat="47.4911" lon="6.67209">
        <ele>359</ele>
        <time>2016-06-12T08:10:39.000Z</time>
      </trkpt>
      <trkpt lat="47.49111" lon="6.67205">
        <ele>359</ele>
        <time>2016-06-12T08:10:40.000Z</time>
      </trkpt>
      <trkpt lat="47.49112" lon="6.67201">
        <ele>360</ele>
        <time>2016-06-12T08:10:41.000Z</time>
      </trkpt>
      <trkpt lat="47.49112" lon="6.67198">
        <ele>360</ele>
        <time>2016-06-12T08:10:42.000Z</time>
      </trkpt>
      <trkpt lat="47.49113" lon="6.67194">
        <ele>360</ele>
        <time>2016-06-12T08:10:43.000Z</time>
      </trkpt>
      <trkpt lat="47.49113" lon="6.6719">
        <ele>360</ele>
        <time>2016-06-12T08:10:44.000Z</time>
      </trkpt>
      <trkpt lat="47.49113" lon="6.67186">
        <ele>360</ele>
        <time>2016-06-12T08:10:45.000Z</time>
      </trkpt>
      <trkpt lat="47.49112" lon="6.67182">
        <ele>360</ele>
        <time>2016-06-12T08:10:46.000Z</time>
      </trkpt>
      <trkpt lat="47.49112" lon="6.67178">
        <ele>360</ele>
        <time>2016-06-12T08:10:47.000Z</time>
      </trkpt>
      <trkpt lat="47.49111" lon="6.67173">
        <ele>360</ele>
        <time>2016-06-12T08:10:48.000Z</time>
      </trkpt>
      <trkpt lat="47.49111" lon="6.67169">
        <ele>360</ele>
        <time>2016-06-12T08:10:49.000Z</time>
      </trkpt>
      <trkpt lat="47.4911" lon="6.67165">
        <ele>363</ele>
        <time>2016-06-12T08:10:50.000Z</time>
      </trkpt>
      <trkpt lat="47.4911" lon="6.67161">
        <ele>363</ele>
        <time>2016-06-12T08:10:51.000Z</time>
      </trkpt>
      <trkpt lat="47.49109" lon="6.67157">
        <ele>363</ele>
        <time>2016-06-12T08:10:52.000Z</time>
      </trkpt>
      <trkpt lat="47.49109" lon="6.67153">
        <ele>363</ele>
        <time>2016-06-12T08:10:53.000Z</time>
      </trkpt>
      <trkpt lat="47.49109" lon="6.67149">
        <ele>363</ele>
        <time>2016-06-12T08:10:54.000Z</time>
      </trkpt>
      <trkpt lat="47.49109" lon="6.67145">
        <ele>363</ele>
        <time>2016-06-12T08:10:55.000Z</time>
      </trkpt>
      <trkpt lat="47.49109" lon="6.67141">
        <ele>363</ele>
        <time>2016-06-12T08:10:56.000Z</time>
      </trkpt>
      <trkpt lat="47.49109" lon="6.67138">
        <ele>363</ele>
        <time>2016-06-12T08:10:57.000Z</time>
      </trkpt>
      <trkpt lat="47.49108" lon="6.67134">
        <ele>363</ele>
        <time>2016-06-12T08:10:58.000Z</time>
      </trkpt>
      <trkpt lat="47.49108" lon="6.67131">
        <ele>364</ele>
        <time>2016-06-12T08:10:59.000Z</time>
      </trkpt>
      <trkpt lat="47.49108" lon="6.67127">
        <ele>364</ele>
        <time>2016-06-12T08:11:00.000Z</time>
      </trkpt>
      <trkpt lat="47.49107" lon="6.67124">
        <ele>364</ele>
        <time>2016-06-12T08:11:01.000Z</time>
      </trkpt>
      <trkpt lat="47.49107" lon="6.6712">
        <ele>364</ele>
        <time>2016-06-12T08:11:02.000Z</time>
      </trkpt>
      <trkpt lat="47.49107" lon="6.67117">
        <ele>364</ele>
        <time>2016-06-12T08:11:03.000Z</time>
      </trkpt>
      <trkpt lat="47.49107" lon="6.67113">
        <ele>364</ele>
        <time>2016-06-12T08:11:04.000Z</time>
      </trkpt>
      <trkpt lat="47.49106" lon="6.67107">
        <ele>365</ele>
        <time>2016-06-12T08:11:06.000Z</time>
      </trkpt>
      <trkpt lat="47.49106" lon="6.67103">
        <ele>365</ele>
        <time>2016-06-12T08:11:07.000Z</time>
      </trkpt>
      <trkpt lat="47.49106" lon="6.671">
        <ele>365</ele>
        <time>2016-06-12T08:11:08.000Z</time>
      </trkpt>
      <trkpt lat="47.49106" lon="6.67096">
        <ele>365</ele>
        <time>2016-06-12T08:11:09.000Z</time>
      </trkpt>
      <trkpt lat="47.49106" lon="6.67093">
        <ele>365</ele>
        <time>2016-06-12T08:11:10.000Z</time>
      </trkpt>
      <trkpt lat="47.49106" lon="6.67089">
        <ele>365</ele>
        <time>2016-06-12T08:11:11.000Z</time>
      </trkpt>
      <trkpt lat="47.49106" lon="6.67086">
        <ele>365</ele>
        <time>2016-06-12T08:11:12.000Z</time>
      </trkpt>
      <trkpt lat="47.49106" lon="6.67082">
        <ele>368</ele>
        <time>2016-06-12T08:11:13.000Z</time>
      </trkpt>
      <trkpt lat="47.49106" lon="6.67078">
        <ele>368</ele>
        <time>2016-06-12T08:11:14.000Z</time>
      </trkpt>
      <trkpt lat="47.49106" lon="6.67074">
        <ele>368</ele>
        <time>2016-06-12T08:11:15.000Z</time>
      </trkpt>
      <trkpt lat="47.49106" lon="6.67071">
        <ele>368</ele>
        <time>2016-06-12T08:11:16.000Z</time>
      </trkpt>
      <trkpt lat="47.49106" lon="6.67067">
        <ele>368</ele>
        <time>2016-06-12T08:11:17.000Z</time>
      </trkpt>
      <trkpt lat="47.49106" lon="6.67063">
        <ele>368</ele>
        <time>2016-06-12T08:11:18.000Z</time>
      </trkpt>
      <trkpt lat="47.49106" lon="6.67059">
        <ele>368</ele>
        <time>2016-06-12T08:11:19.000Z</time>
      </trkpt>
      <trkpt lat="47.49106" lon="6.67055">
        <ele>368</ele>
        <time>2016-06-12T08:11:20.000Z</time>
      </trkpt>
      <trkpt lat="47.49105" lon="6.67051">
        <ele>369</ele>
        <time>2016-06-12T08:11:21.000Z</time>
      </trkpt>
      <trkpt lat="47.49104" lon="6.67048">
        <ele>369</ele>
        <time>2016-06-12T08:11:22.000Z</time>
      </trkpt>
      <trkpt lat="47.49103" lon="6.67044">
        <ele>369</ele>
        <time>2016-06-12T08:11:23.000Z</time>
      </trkpt>
      <trkpt lat="47.49103" lon="6.6704">
        <ele>369</ele>
        <time>2016-06-12T08:11:24.000Z</time>
      </trkpt>
      <trkpt lat="47.49102" lon="6.67037">
        <ele>369</ele>
        <time>2016-06-12T08:11:25.000Z</time>
      </trkpt>
      <trkpt lat="47.491" lon="6.67033">
        <ele>369</ele>
        <time>2016-06-12T08:11:26.000Z</time>
      </trkpt>
      <trkpt lat="47.49099" lon="6.6703">
        <ele>369</ele>
        <time>2016-06-12T08:11:27.000Z</time>
      </trkpt>
      <trkpt lat="47.49098" lon="6.67027">
        <ele>370</ele>
        <time>2016-06-12T08:11:28.000Z</time>
      </trkpt>
      <trkpt lat="47.49097" lon="6.67023">
        <ele>370</ele>
        <time>2016-06-12T08:11:29.000Z</time>
      </trkpt>
      <trkpt lat="47.49097" lon="6.6702">
        <ele>370</ele>
        <time>2016-06-12T08:11:30.000Z</time>
      </trkpt>
      <trkpt lat="47.49095" lon="6.67016">
        <ele>370</ele>
        <time>2016-06-12T08:11:31.000Z</time>
      </trkpt>
      <trkpt lat="47.49094" lon="6.67013">
        <ele>370</ele>
        <time>2016-06-12T08:11:32.000Z</time>
      </trkpt>
      <trkpt lat="47.49093" lon="6.6701">
        <ele>371</ele>
        <time>2016-06-12T08:11:33.000Z</time>
      </trkpt>
      <trkpt lat="47.49093" lon="6.67006">
        <ele>371</ele>
        <time>2016-06-12T08:11:34.000Z</time>
      </trkpt>
      <trkpt lat="47.49092" lon="6.67003">
        <ele>371</ele>
        <time>2016-06-12T08:11:35.000Z</time>
      </trkpt>
      <trkpt lat="47.49091" lon="6.66999">
        <ele>373</ele>
        <time>2016-06-12T08:11:36.000Z</time>
      </trkpt>
      <trkpt lat="47.49091" lon="6.66995">
        <ele>373</ele>
        <time>2016-06-12T08:11:36.998Z</time>
      </trkpt>
      <trkpt lat="47.4909" lon="6.66991">
        <ele>373</ele>
        <time>2016-06-12T08:11:38.000Z</time>
      </trkpt>
      <trkpt lat="47.4909" lon="6.66988">
        <ele>373</ele>
        <time>2016-06-12T08:11:38.999Z</time>
      </trkpt>
      <trkpt lat="47.49089" lon="6.66984">
        <ele>373</ele>
        <time>2016-06-12T08:11:40.000Z</time>
      </trkpt>
      <trkpt lat="47.49089" lon="6.66981">
        <ele>373</ele>
        <time>2016-06-12T08:11:41.000Z</time>
      </trkpt>
      <trkpt lat="47.49088" lon="6.66977">
        <ele>373</ele>
        <time>2016-06-12T08:11:42.000Z</time>
      </trkpt>
      <trkpt lat="47.49088" lon="6.66974">
        <ele>374</ele>
        <time>2016-06-12T08:11:43.000Z</time>
      </trkpt>
      <trkpt lat="47.49088" lon="6.6697">
        <ele>374</ele>
        <time>2016-06-12T08:11:44.000Z</time>
      </trkpt>
      <trkpt lat="47.49088" lon="6.66967">
        <ele>374</ele>
        <time>2016-06-12T08:11:45.000Z</time>
      </trkpt>
      <trkpt lat="47.49087" lon="6.6696">
        <ele>374</ele>
        <time>2016-06-12T08:11:47.000Z</time>
      </trkpt>
      <trkpt lat="47.49087" lon="6.66957">
        <ele>374</ele>
        <time>2016-06-12T08:11:48.000Z</time>
      </trkpt>
      <trkpt lat="47.49085" lon="6.66951">
        <ele>375</ele>
        <time>2016-06-12T08:11:50.000Z</time>
      </trkpt>
      <trkpt lat="47.49084" lon="6.66949">
        <ele>375</ele>
        <time>2016-06-12T08:11:51.000Z</time>
      </trkpt>
      <trkpt lat="47.49082" lon="6.66945">
        <ele>376</ele>
        <time>2016-06-12T08:11:53.000Z</time>
      </trkpt>
      <trkpt lat="47.49081" lon="6.66943">
        <ele>376</ele>
        <time>2016-06-12T08:11:54.000Z</time>
      </trkpt>
      <trkpt lat="47.49078" lon="6.66939">
        <ele>376</ele>
        <time>2016-06-12T08:11:57.000Z</time>
      </trkpt>
      <trkpt lat="47.49076" lon="6.66938">
        <ele>376</ele>
        <time>2016-06-12T08:11:58.000Z</time>
      </trkpt>
      <trkpt lat="47.49073" lon="6.66935">
        <ele>376</ele>
        <time>2016-06-12T08:12:00.000Z</time>
      </trkpt>
      <trkpt lat="47.49072" lon="6.66934">
        <ele>376</ele>
        <time>2016-06-12T08:12:01.000Z</time>
      </trkpt>
      <trkpt lat="47.4907" lon="6.66931">
        <ele>377</ele>
        <time>2016-06-12T08:12:14.000Z</time>
      </trkpt>
      <trkpt lat="47.49069" lon="6.66929">
        <ele>377</ele>
        <time>2016-06-12T08:12:15.000Z</time>
      </trkpt>
      <trkpt lat="47.49065" lon="6.66925">
        <ele>377</ele>
        <time>2016-06-12T08:12:17.000Z</time>
      </trkpt>
      <trkpt lat="47.49064" lon="6.66923">
        <ele>377</ele>
        <time>2016-06-12T08:12:18.000Z</time>
      </trkpt>
      <trkpt lat="47.49061" lon="6.66919">
        <ele>377</ele>
        <time>2016-06-12T08:12:20.000Z</time>
      </trkpt>
      <trkpt lat="47.49059" lon="6.66917">
        <ele>377</ele>
        <time>2016-06-12T08:12:21.000Z</time>
      </trkpt>
      <trkpt lat="47.49057" lon="6.66913">
        <ele>379</ele>
        <time>2016-06-12T08:12:23.000Z</time>
      </trkpt>
      <trkpt lat="47.49056" lon="6.66911">
        <ele>379</ele>
        <time>2016-06-12T08:12:24.000Z</time>
      </trkpt>
      <trkpt lat="47.49052" lon="6.66909">
        <ele>380</ele>
        <time>2016-06-12T08:12:26.000Z</time>
      </trkpt>
      <trkpt lat="47.49051" lon="6.66907">
        <ele>380</ele>
        <time>2016-06-12T08:12:27.000Z</time>
      </trkpt>
      <trkpt lat="47.49049" lon="6.66902">
        <ele>380</ele>
        <time>2016-06-12T08:12:29.000Z</time>
      </trkpt>
      <trkpt lat="47.49048" lon="6.669">
        <ele>380</ele>
        <time>2016-06-12T08:12:30.000Z</time>
      </trkpt>
      <trkpt lat="47.49045" lon="6.66897">
        <ele>380</ele>
        <time>2016-06-12T08:12:32.000Z</time>
      </trkpt>
      <trkpt lat="47.49044" lon="6.66895">
        <ele>380</ele>
        <time>2016-06-12T08:12:33.000Z</time>
      </trkpt>
      <trkpt lat="47.49041" lon="6.66892">
        <ele>380</ele>
        <time>2016-06-12T08:12:34.999Z</time>
      </trkpt>
      <trkpt lat="47.49039" lon="6.66889">
        <ele>380</ele>
        <time>2016-06-12T08:12:36.000Z</time>
      </trkpt>
      <trkpt lat="47.49037" lon="6.66885">
        <ele>380</ele>
        <time>2016-06-12T08:12:38.000Z</time>
      </trkpt>
      <trkpt lat="47.49036" lon="6.66882">
        <ele>381</ele>
        <time>2016-06-12T08:12:39.000Z</time>
      </trkpt>
      <trkpt lat="47.49035" lon="6.66877">
        <ele>381</ele>
        <time>2016-06-12T08:12:41.000Z</time>
      </trkpt>
      <trkpt lat="47.49034" lon="6.66874">
        <ele>381</ele>
        <time>2016-06-12T08:12:42.000Z</time>
      </trkpt>
      <trkpt lat="47.49036" lon="6.66869">
        <ele>381</ele>
        <time>2016-06-12T08:12:44.000Z</time>
      </trkpt>
      <trkpt lat="47.49037" lon="6.66867">
        <ele>381</ele>
        <time>2016-06-12T08:12:45.000Z</time>
      </trkpt>
      <trkpt lat="47.49041" lon="6.66865">
        <ele>381</ele>
        <time>2016-06-12T08:12:47.000Z</time>
      </trkpt>
      <trkpt lat="47.49043" lon="6.66864">
        <ele>381</ele>
        <time>2016-06-12T08:12:48.000Z</time>
      </trkpt>
      <trkpt lat="47.49048" lon="6.66863">
        <ele>381</ele>
        <time>2016-06-12T08:12:50.000Z</time>
      </trkpt>
      <trkpt lat="47.4905" lon="6.66862">
        <ele>381</ele>
        <time>2016-06-12T08:12:51.000Z</time>
      </trkpt>
      <trkpt lat="47.49054" lon="6.66861">
        <ele>381</ele>
        <time>2016-06-12T08:12:53.000Z</time>
      </trkpt>
      <trkpt lat="47.49056" lon="6.6686">
        <ele>381</ele>
        <time>2016-06-12T08:12:54.000Z</time>
      </trkpt>
      <trkpt lat="47.49059" lon="6.66858">
        <ele>382</ele>
        <time>2016-06-12T08:12:56.000Z</time>
      </trkpt>
      <trkpt lat="47.49061" lon="6.66857">
        <ele>382</ele>
        <time>2016-06-12T08:12:57.000Z</time>
      </trkpt>
      <trkpt lat="47.49064" lon="6.66854">
        <ele>382</ele>
        <time>2016-06-12T08:13:00.000Z</time>
      </trkpt>
      <trkpt lat="47.49065" lon="6.66853">
        <ele>382</ele>
        <time>2016-06-12T08:13:01.000Z</time>
      </trkpt>
      <trkpt lat="47.49068" lon="6.66849">
        <ele>382</ele>
        <time>2016-06-12T08:13:42.000Z</time>
      </trkpt>
      <trkpt lat="47.4907" lon="6.66848">
        <ele>383</ele>
        <time>2016-06-12T08:13:43.000Z</time>
      </trkpt>
      <trkpt lat="47.49073" lon="6.66845">
        <ele>383</ele>
        <time>2016-06-12T08:13:45.000Z</time>
      </trkpt>
      <trkpt lat="47.49075" lon="6.66843">
        <ele>383</ele>
        <time>2016-06-12T08:13:46.000Z</time>
      </trkpt>
      <trkpt lat="47.49078" lon="6.66841">
        <ele>384</ele>
        <time>2016-06-12T08:13:48.000Z</time>
      </trkpt>
      <trkpt lat="47.4908" lon="6.6684">
        <ele>384</ele>
        <time>2016-06-12T08:13:49.000Z</time>
      </trkpt>
      <trkpt lat="47.49083" lon="6.66838">
        <ele>384</ele>
        <time>2016-06-12T08:13:51.000Z</time>
      </trkpt>
      <trkpt lat="47.49085" lon="6.66837">
        <ele>384</ele>
        <time>2016-06-12T08:13:52.000Z</time>
      </trkpt>
      <trkpt lat="47.49089" lon="6.66835">
        <ele>384</ele>
        <time>2016-06-12T08:13:54.000Z</time>
      </trkpt>
      <trkpt lat="47.4909" lon="6.66833">
        <ele>386</ele>
        <time>2016-06-12T08:13:55.000Z</time>
      </trkpt>
      <trkpt lat="47.49093" lon="6.66831">
        <ele>386</ele>
        <time>2016-06-12T08:13:57.000Z</time>
      </trkpt>
      <trkpt lat="47.49095" lon="6.66829">
        <ele>387</ele>
        <time>2016-06-12T08:13:58.000Z</time>
      </trkpt>
      <trkpt lat="47.49098" lon="6.66826">
        <ele>387</ele>
        <time>2016-06-12T08:14:00.000Z</time>
      </trkpt>
      <trkpt lat="47.491" lon="6.66824">
        <ele>387</ele>
        <time>2016-06-12T08:14:01.000Z</time>
      </trkpt>
      <trkpt lat="47.49103" lon="6.6682">
        <ele>388</ele>
        <time>2016-06-12T08:14:03.000Z</time>
      </trkpt>
      <trkpt lat="47.49105" lon="6.66818">
        <ele>388</ele>
        <time>2016-06-12T08:14:04.000Z</time>
      </trkpt>
      <trkpt lat="47.49108" lon="6.66814">
        <ele>388</ele>
        <time>2016-06-12T08:14:06.000Z</time>
      </trkpt>
      <trkpt lat="47.49109" lon="6.66812">
        <ele>388</ele>
        <time>2016-06-12T08:14:07.000Z</time>
      </trkpt>
      <trkpt lat="47.49113" lon="6.66808">
        <ele>389</ele>
        <time>2016-06-12T08:14:09.000Z</time>
      </trkpt>
      <trkpt lat="47.49114" lon="6.66806">
        <ele>389</ele>
        <time>2016-06-12T08:14:10.000Z</time>
      </trkpt>
      <trkpt lat="47.49117" lon="6.66802">
        <ele>389</ele>
        <time>2016-06-12T08:14:12.000Z</time>
      </trkpt>
      <trkpt lat="47.49119" lon="6.668">
        <ele>389</ele>
        <time>2016-06-12T08:14:13.000Z</time>
      </trkpt>
      <trkpt lat="47.49123" lon="6.66796">
        <ele>389</ele>
        <time>2016-06-12T08:14:15.000Z</time>
      </trkpt>
      <trkpt lat="47.49124" lon="6.66794">
        <ele>389</ele>
        <time>2016-06-12T08:14:16.000Z</time>
      </trkpt>
      <trkpt lat="47.49128" lon="6.6679">
        <ele>390</ele>
        <time>2016-06-12T08:14:18.000Z</time>
      </trkpt>
      <trkpt lat="47.4913" lon="6.66789">
        <ele>390</ele>
        <time>2016-06-12T08:14:19.000Z</time>
      </trkpt>
      <trkpt lat="47.49132" lon="6.66788">
        <ele>390</ele>
        <time>2016-06-12T08:14:20.000Z</time>
      </trkpt>
      <trkpt lat="47.49135" lon="6.66787">
        <ele>390</ele>
        <time>2016-06-12T08:14:21.000Z</time>
      </trkpt>
      <trkpt lat="47.49137" lon="6.66786">
        <ele>390</ele>
        <time>2016-06-12T08:14:21.999Z</time>
      </trkpt>
      <trkpt lat="47.4914" lon="6.66786">
        <ele>390</ele>
        <time>2016-06-12T08:14:23.000Z</time>
      </trkpt>
      <trkpt lat="47.49142" lon="6.66785">
        <ele>390</ele>
        <time>2016-06-12T08:14:24.000Z</time>
      </trkpt>
      <trkpt lat="47.49145" lon="6.66784">
        <ele>390</ele>
        <time>2016-06-12T08:14:25.000Z</time>
      </trkpt>
      <trkpt lat="47.49148" lon="6.66782">
        <ele>390</ele>
        <time>2016-06-12T08:14:26.000Z</time>
      </trkpt>
      <trkpt lat="47.4915" lon="6.66781">
        <ele>391</ele>
        <time>2016-06-12T08:14:27.000Z</time>
      </trkpt>
      <trkpt lat="47.49153" lon="6.6678">
        <ele>391</ele>
        <time>2016-06-12T08:14:28.000Z</time>
      </trkpt>
      <trkpt lat="47.49156" lon="6.66779">
        <ele>391</ele>
        <time>2016-06-12T08:14:29.000Z</time>
      </trkpt>
      <trkpt lat="47.49159" lon="6.66778">
        <ele>391</ele>
        <time>2016-06-12T08:14:30.000Z</time>
      </trkpt>
      <trkpt lat="47.49162" lon="6.66777">
        <ele>391</ele>
        <time>2016-06-12T08:14:31.000Z</time>
      </trkpt>
      <trkpt lat="47.49164" lon="6.66776">
        <ele>391</ele>
        <time>2016-06-12T08:14:32.000Z</time>
      </trkpt>
      <trkpt lat="47.49167" lon="6.66775">
        <ele>392</ele>
        <time>2016-06-12T08:14:33.000Z</time>
      </trkpt>
      <trkpt lat="47.4917" lon="6.66774">
        <ele>392</ele>
        <time>2016-06-12T08:14:34.000Z</time>
      </trkpt>
      <trkpt lat="47.49172" lon="6.66773">
        <ele>392</ele>
        <time>2016-06-12T08:14:35.000Z</time>
      </trkpt>
      <trkpt lat="47.49175" lon="6.66772">
        <ele>392</ele>
        <time>2016-06-12T08:14:35.999Z</time>
      </trkpt>
      <trkpt lat="47.49178" lon="6.66771">
        <ele>392</ele>
        <time>2016-06-12T08:14:37.000Z</time>
      </trkpt>
      <trkpt lat="47.4918" lon="6.6677">
        <ele>392</ele>
        <time>2016-06-12T08:14:38.000Z</time>
      </trkpt>
      <trkpt lat="47.49182" lon="6.66769">
        <ele>392</ele>
        <time>2016-06-12T08:14:39.000Z</time>
      </trkpt>
      <trkpt lat="47.49185" lon="6.66768">
        <ele>392</ele>
        <time>2016-06-12T08:14:40.000Z</time>
      </trkpt>
      <trkpt lat="47.49187" lon="6.66767">
        <ele>392</ele>
        <time>2016-06-12T08:14:41.000Z</time>
      </trkpt>
      <trkpt lat="47.49191" lon="6.66766">
        <ele>392</ele>
        <time>2016-06-12T08:14:42.999Z</time>
      </trkpt>
      <trkpt lat="47.49193" lon="6.66765">
        <ele>392</ele>
        <time>2016-06-12T08:14:44.000Z</time>
      </trkpt>
      <trkpt lat="47.49196" lon="6.66764">
        <ele>392</ele>
        <time>2016-06-12T08:14:45.000Z</time>
      </trkpt>
      <trkpt lat="47.49198" lon="6.66763">
        <ele>392</ele>
        <time>2016-06-12T08:14:46.000Z</time>
      </trkpt>
      <trkpt lat="47.492" lon="6.66762">
        <ele>392</ele>
        <time>2016-06-12T08:14:46.999Z</time>
      </trkpt>
      <trkpt lat="47.49202" lon="6.66762">
        <ele>392</ele>
        <time>2016-06-12T08:14:48.000Z</time>
      </trkpt>
      <trkpt lat="47.49205" lon="6.66761">
        <ele>392</ele>
        <time>2016-06-12T08:14:49.000Z</time>
      </trkpt>
      <trkpt lat="47.49207" lon="6.6676">
        <ele>392</ele>
        <time>2016-06-12T08:14:50.000Z</time>
      </trkpt>
      <trkpt lat="47.4921" lon="6.66759">
        <ele>392</ele>
        <time>2016-06-12T08:14:51.000Z</time>
      </trkpt>
      <trkpt lat="47.49212" lon="6.66758">
        <ele>392</ele>
        <time>2016-06-12T08:14:52.000Z</time>
      </trkpt>
      <trkpt lat="47.49215" lon="6.66756">
        <ele>392</ele>
        <time>2016-06-12T08:14:53.000Z</time>
      </trkpt>
      <trkpt lat="47.49217" lon="6.66755">
        <ele>392</ele>
        <time>2016-06-12T08:14:54.000Z</time>
      </trkpt>
      <trkpt lat="47.49219" lon="6.66754">
        <ele>392</ele>
        <time>2016-06-12T08:14:55.000Z</time>
      </trkpt>
      <trkpt lat="47.49221" lon="6.66752">
        <ele>392</ele>
        <time>2016-06-12T08:14:56.000Z</time>
      </trkpt>
      <trkpt lat="47.49225" lon="6.6675">
        <ele>397</ele>
        <time>2016-06-12T08:14:58.000Z</time>
      </trkpt>
      <trkpt lat="47.49227" lon="6.66749">
        <ele>397</ele>
        <time>2016-06-12T08:14:59.000Z</time>
      </trkpt>
      <trkpt lat="47.4923" lon="6.66748">
        <ele>397</ele>
        <time>2016-06-12T08:15:00.000Z</time>
      </trkpt>
      <trkpt lat="47.49232" lon="6.66746">
        <ele>397</ele>
        <time>2016-06-12T08:15:01.000Z</time>
      </trkpt>
      <trkpt lat="47.49234" lon="6.66745">
        <ele>397</ele>
        <time>2016-06-12T08:15:02.000Z</time>
      </trkpt>
      <trkpt lat="47.49236" lon="6.66744">
        <ele>397</ele>
        <time>2016-06-12T08:15:03.000Z</time>
      </trkpt>
      <trkpt lat="47.49238" lon="6.66743">
        <ele>397</ele>
        <time>2016-06-12T08:15:04.000Z</time>
      </trkpt>
      <trkpt lat="47.49241" lon="6.66743">
        <ele>397</ele>
        <time>2016-06-12T08:15:05.000Z</time>
      </trkpt>
      <trkpt lat="47.49243" lon="6.66742">
        <ele>397</ele>
        <time>2016-06-12T08:15:06.000Z</time>
      </trkpt>
      <trkpt lat="47.49245" lon="6.66741">
        <ele>397</ele>
        <time>2016-06-12T08:15:07.000Z</time>
      </trkpt>
      <trkpt lat="47.49247" lon="6.66739">
        <ele>397</ele>
        <time>2016-06-12T08:15:08.000Z</time>
      </trkpt>
      <trkpt lat="47.49249" lon="6.66738">
        <ele>397</ele>
        <time>2016-06-12T08:15:09.000Z</time>
      </trkpt>
      <trkpt lat="47.49251" lon="6.66736">
        <ele>397</ele>
        <time>2016-06-12T08:15:10.000Z</time>
      </trkpt>
      <trkpt lat="47.49254" lon="6.66734">
        <ele>397</ele>
        <time>2016-06-12T08:15:11.000Z</time>
      </trkpt>
      <trkpt lat="47.49256" lon="6.66733">
        <ele>398</ele>
        <time>2016-06-12T08:15:12.000Z</time>
      </trkpt>
      <trkpt lat="47.49258" lon="6.66731">
        <ele>398</ele>
        <time>2016-06-12T08:15:13.000Z</time>
      </trkpt>
      <trkpt lat="47.4926" lon="6.6673">
        <ele>398</ele>
        <time>2016-06-12T08:15:14.000Z</time>
      </trkpt>
      <trkpt lat="47.49262" lon="6.66728">
        <ele>398</ele>
        <time>2016-06-12T08:15:15.000Z</time>
      </trkpt>
      <trkpt lat="47.49264" lon="6.66727">
        <ele>398</ele>
        <time>2016-06-12T08:15:16.000Z</time>
      </trkpt>
      <trkpt lat="47.49266" lon="6.66726">
        <ele>398</ele>
        <time>2016-06-12T08:15:17.000Z</time>
      </trkpt>
      <trkpt lat="47.49268" lon="6.66725">
        <ele>399</ele>
        <time>2016-06-12T08:15:18.000Z</time>
      </trkpt>
      <trkpt lat="47.49271" lon="6.66724">
        <ele>399</ele>
        <time>2016-06-12T08:15:19.000Z</time>
      </trkpt>
      <trkpt lat="47.49273" lon="6.66723">
        <ele>399</ele>
        <time>2016-06-12T08:15:20.000Z</time>
      </trkpt>
      <trkpt lat="47.49275" lon="6.66722">
        <ele>399</ele>
        <time>2016-06-12T08:15:21.000Z</time>
      </trkpt>
      <trkpt lat="47.49277" lon="6.66721">
        <ele>399</ele>
        <time>2016-06-12T08:15:22.000Z</time>
      </trkpt>
      <trkpt lat="47.4928" lon="6.6672">
        <ele>399</ele>
        <time>2016-06-12T08:15:23.000Z</time>
      </trkpt>
      <trkpt lat="47.49283" lon="6.66719">
        <ele>399</ele>
        <time>2016-06-12T08:15:24.000Z</time>
      </trkpt>
      <trkpt lat="47.49285" lon="6.66718">
        <ele>399</ele>
        <time>2016-06-12T08:15:25.000Z</time>
      </trkpt>
      <trkpt lat="47.49288" lon="6.66717">
        <ele>399</ele>
        <time>2016-06-12T08:15:26.000Z</time>
      </trkpt>
      <trkpt lat="47.49291" lon="6.66716">
        <ele>399</ele>
        <time>2016-06-12T08:15:27.000Z</time>
      </trkpt>
      <trkpt lat="47.49293" lon="6.66715">
        <ele>399</ele>
        <time>2016-06-12T08:15:28.000Z</time>
      </trkpt>
      <trkpt lat="47.49296" lon="6.66714">
        <ele>399</ele>
        <time>2016-06-12T08:15:29.000Z</time>
      </trkpt>
      <trkpt lat="47.49298" lon="6.66713">
        <ele>400</ele>
        <time>2016-06-12T08:15:29.999Z</time>
      </trkpt>
      <trkpt lat="47.49301" lon="6.66711">
        <ele>400</ele>
        <time>2016-06-12T08:15:31.000Z</time>
      </trkpt>
      <trkpt lat="47.49303" lon="6.6671">
        <ele>400</ele>
        <time>2016-06-12T08:15:32.000Z</time>
      </trkpt>
      <trkpt lat="47.49306" lon="6.66709">
        <ele>400</ele>
        <time>2016-06-12T08:15:33.001Z</time>
      </trkpt>
      <trkpt lat="47.49309" lon="6.66708">
        <ele>400</ele>
        <time>2016-06-12T08:15:34.000Z</time>
      </trkpt>
      <trkpt lat="47.49312" lon="6.66707">
        <ele>400</ele>
        <time>2016-06-12T08:15:35.000Z</time>
      </trkpt>
      <trkpt lat="47.49315" lon="6.66706">
        <ele>400</ele>
        <time>2016-06-12T08:15:36.000Z</time>
      </trkpt>
      <trkpt lat="47.49318" lon="6.66704">
        <ele>400</ele>
        <time>2016-06-12T08:15:37.000Z</time>
      </trkpt>
      <trkpt lat="47.49321" lon="6.66702">
        <ele>400</ele>
        <time>2016-06-12T08:15:38.000Z</time>
      </trkpt>
      <trkpt lat="47.49323" lon="6.667">
        <ele>401</ele>
        <time>2016-06-12T08:15:39.000Z</time>
      </trkpt>
      <trkpt lat="47.49326" lon="6.66698">
        <ele>401</ele>
        <time>2016-06-12T08:15:40.000Z</time>
      </trkpt>
      <trkpt lat="47.49327" lon="6.66695">
        <ele>401</ele>
        <time>2016-06-12T08:15:41.000Z</time>
      </trkpt>
      <trkpt lat="47.49329" lon="6.66692">
        <ele>401</ele>
        <time>2016-06-12T08:15:42.000Z</time>
      </trkpt>
      <trkpt lat="47.4933" lon="6.66689">
        <ele>402</ele>
        <time>2016-06-12T08:15:43.000Z</time>
      </trkpt>
      <trkpt lat="47.49331" lon="6.66686">
        <ele>402</ele>
        <time>2016-06-12T08:15:44.000Z</time>
      </trkpt>
      <trkpt lat="47.49332" lon="6.66683">
        <ele>402</ele>
        <time>2016-06-12T08:15:45.000Z</time>
      </trkpt>
      <trkpt lat="47.49334" lon="6.66679">
        <ele>402</ele>
        <time>2016-06-12T08:15:47.000Z</time>
      </trkpt>
      <trkpt lat="47.49335" lon="6.66677">
        <ele>402</ele>
        <time>2016-06-12T08:15:48.000Z</time>
      </trkpt>
      <trkpt lat="47.49339" lon="6.66676">
        <ele>402</ele>
        <time>2016-06-12T08:15:53.000Z</time>
      </trkpt>
      <trkpt lat="47.4934" lon="6.66676">
        <ele>402</ele>
        <time>2016-06-12T08:15:54.000Z</time>
      </trkpt>
      <trkpt lat="47.49338" lon="6.6667">
        <ele>403</ele>
        <time>2016-06-12T08:15:57.000Z</time>
      </trkpt>
      <trkpt lat="47.49338" lon="6.66668">
        <ele>404</ele>
        <time>2016-06-12T08:15:58.000Z</time>
      </trkpt>
      <trkpt lat="47.49336" lon="6.66661">
        <ele>405</ele>
        <time>2016-06-12T08:16:00.000Z</time>
      </trkpt>
      <trkpt lat="47.49336" lon="6.66658">
        <ele>405</ele>
        <time>2016-06-12T08:16:01.000Z</time>
      </trkpt>
      <trkpt lat="47.49337" lon="6.66655">
        <ele>405</ele>
        <time>2016-06-12T08:16:02.000Z</time>
      </trkpt>
      <trkpt lat="47.49338" lon="6.66651">
        <ele>405</ele>
        <time>2016-06-12T08:16:03.000Z</time>
      </trkpt>
      <trkpt lat="47.49339" lon="6.66648">
        <ele>405</ele>
        <time>2016-06-12T08:16:04.000Z</time>
      </trkpt>
      <trkpt lat="47.49341" lon="6.66645">
        <ele>405</ele>
        <time>2016-06-12T08:16:05.000Z</time>
      </trkpt>
      <trkpt lat="47.49342" lon="6.66643">
        <ele>405</ele>
        <time>2016-06-12T08:16:06.000Z</time>
      </trkpt>
      <trkpt lat="47.49344" lon="6.6664">
        <ele>405</ele>
        <time>2016-06-12T08:16:07.000Z</time>
      </trkpt>
      <trkpt lat="47.49346" lon="6.66637">
        <ele>405</ele>
        <time>2016-06-12T08:16:08.000Z</time>
      </trkpt>
      <trkpt lat="47.49347" lon="6.66635">
        <ele>405</ele>
        <time>2016-06-12T08:16:09.000Z</time>
      </trkpt>
      <trkpt lat="47.49348" lon="6.66628">
        <ele>406</ele>
        <time>2016-06-12T08:16:11.000Z</time>
      </trkpt>
      <trkpt lat="47.49348" lon="6.66625">
        <ele>406</ele>
        <time>2016-06-12T08:16:12.000Z</time>
      </trkpt>
      <trkpt lat="47.49349" lon="6.66619">
        <ele>406</ele>
        <time>2016-06-12T08:16:14.000Z</time>
      </trkpt>
      <trkpt lat="47.49349" lon="6.66615">
        <ele>406</ele>
        <time>2016-06-12T08:16:15.000Z</time>
      </trkpt>
      <trkpt lat="47.4935" lon="6.66612">
        <ele>406</ele>
        <time>2016-06-12T08:16:16.000Z</time>
      </trkpt>
      <trkpt lat="47.4935" lon="6.66608">
        <ele>407</ele>
        <time>2016-06-12T08:16:17.000Z</time>
      </trkpt>
      <trkpt lat="47.4935" lon="6.66605">
        <ele>407</ele>
        <time>2016-06-12T08:16:18.000Z</time>
      </trkpt>
      <trkpt lat="47.4935" lon="6.66601">
        <ele>407</ele>
        <time>2016-06-12T08:16:19.000Z</time>
      </trkpt>
      <trkpt lat="47.4935" lon="6.66597">
        <ele>407</ele>
        <time>2016-06-12T08:16:20.000Z</time>
      </trkpt>
      <trkpt lat="47.4935" lon="6.66594">
        <ele>408</ele>
        <time>2016-06-12T08:16:21.000Z</time>
      </trkpt>
      <trkpt lat="47.49349" lon="6.66591">
        <ele>408</ele>
        <time>2016-06-12T08:16:22.000Z</time>
      </trkpt>
      <trkpt lat="47.49348" lon="6.66588">
        <ele>408</ele>
        <time>2016-06-12T08:16:23.000Z</time>
      </trkpt>
      <trkpt lat="47.49346" lon="6.66582">
        <ele>411</ele>
        <time>2016-06-12T08:16:25.000Z</time>
      </trkpt>
      <trkpt lat="47.49345" lon="6.66578">
        <ele>411</ele>
        <time>2016-06-12T08:16:26.000Z</time>
      </trkpt>
      <trkpt lat="47.49344" lon="6.66575">
        <ele>411</ele>
        <time>2016-06-12T08:16:27.000Z</time>
      </trkpt>
      <trkpt lat="47.49343" lon="6.66571">
        <ele>411</ele>
        <time>2016-06-12T08:16:28.000Z</time>
      </trkpt>
      <trkpt lat="47.49341" lon="6.66567">
        <ele>411</ele>
        <time>2016-06-12T08:16:29.000Z</time>
      </trkpt>
      <trkpt lat="47.4934" lon="6.66564">
        <ele>411</ele>
        <time>2016-06-12T08:16:30.000Z</time>
      </trkpt>
      <trkpt lat="47.49339" lon="6.6656">
        <ele>411</ele>
        <time>2016-06-12T08:16:31.000Z</time>
      </trkpt>
      <trkpt lat="47.49338" lon="6.66557">
        <ele>411</ele>
        <time>2016-06-12T08:16:32.000Z</time>
      </trkpt>
      <trkpt lat="47.49336" lon="6.66551">
        <ele>412</ele>
        <time>2016-06-12T08:16:34.000Z</time>
      </trkpt>
      <trkpt lat="47.49335" lon="6.66549">
        <ele>412</ele>
        <time>2016-06-12T08:16:35.000Z</time>
      </trkpt>
      <trkpt lat="47.49335" lon="6.66543">
        <ele>412</ele>
        <time>2016-06-12T08:16:37.000Z</time>
      </trkpt>
      <trkpt lat="47.49336" lon="6.6654">
        <ele>412</ele>
        <time>2016-06-12T08:16:38.000Z</time>
      </trkpt>
      <trkpt lat="47.49337" lon="6.66537">
        <ele>412</ele>
        <time>2016-06-12T08:16:39.000Z</time>
      </trkpt>
      <trkpt lat="47.49339" lon="6.66535">
        <ele>412</ele>
        <time>2016-06-12T08:16:40.000Z</time>
      </trkpt>
      <trkpt lat="47.49342" lon="6.66532">
        <ele>412</ele>
        <time>2016-06-12T08:16:41.000Z</time>
      </trkpt>
      <trkpt lat="47.49344" lon="6.6653">
        <ele>412</ele>
        <time>2016-06-12T08:16:42.000Z</time>
      </trkpt>
      <trkpt lat="47.49346" lon="6.66528">
        <ele>412</ele>
        <time>2016-06-12T08:16:43.000Z</time>
      </trkpt>
      <trkpt lat="47.49349" lon="6.66525">
        <ele>412</ele>
        <time>2016-06-12T08:16:44.000Z</time>
      </trkpt>
      <trkpt lat="47.49352" lon="6.66523">
        <ele>412</ele>
        <time>2016-06-12T08:16:45.000Z</time>
      </trkpt>
      <trkpt lat="47.49354" lon="6.66521">
        <ele>413</ele>
        <time>2016-06-12T08:16:45.999Z</time>
      </trkpt>
      <trkpt lat="47.49357" lon="6.66519">
        <ele>412</ele>
        <time>2016-06-12T08:16:47.000Z</time>
      </trkpt>
      <trkpt lat="47.4936" lon="6.66517">
        <ele>412</ele>
        <time>2016-06-12T08:16:48.000Z</time>
      </trkpt>
      <trkpt lat="47.49363" lon="6.66515">
        <ele>412</ele>
        <time>2016-06-12T08:16:49.000Z</time>
      </trkpt>
      <trkpt lat="47.49365" lon="6.66514">
        <ele>412</ele>
        <time>2016-06-12T08:16:50.000Z</time>
      </trkpt>
      <trkpt lat="47.49368" lon="6.66512">
        <ele>412</ele>
        <time>2016-06-12T08:16:51.000Z</time>
      </trkpt>
      <trkpt lat="47.49371" lon="6.6651">
        <ele>412</ele>
        <time>2016-06-12T08:16:52.000Z</time>
      </trkpt>
      <trkpt lat="47.49373" lon="6.66508">
        <ele>412</ele>
        <time>2016-06-12T08:16:53.000Z</time>
      </trkpt>
      <trkpt lat="47.49376" lon="6.66506">
        <ele>412</ele>
        <time>2016-06-12T08:16:54.000Z</time>
      </trkpt>
      <trkpt lat="47.49378" lon="6.66504">
        <ele>412</ele>
        <time>2016-06-12T08:16:54.999Z</time>
      </trkpt>
      <trkpt lat="47.49381" lon="6.66502">
        <ele>412</ele>
        <time>2016-06-12T08:16:56.000Z</time>
      </trkpt>
      <trkpt lat="47.49383" lon="6.665">
        <ele>415</ele>
        <time>2016-06-12T08:16:57.000Z</time>
      </trkpt>
      <trkpt lat="47.49386" lon="6.66498">
        <ele>415</ele>
        <time>2016-06-12T08:16:58.000Z</time>
      </trkpt>
      <trkpt lat="47.49389" lon="6.66495">
        <ele>415</ele>
        <time>2016-06-12T08:16:59.000Z</time>
      </trkpt>
      <trkpt lat="47.49392" lon="6.66493">
        <ele>415</ele>
        <time>2016-06-12T08:17:00.000Z</time>
      </trkpt>
      <trkpt lat="47.49395" lon="6.6649">
        <ele>415</ele>
        <time>2016-06-12T08:17:01.000Z</time>
      </trkpt>
      <trkpt lat="47.49397" lon="6.66487">
        <ele>415</ele>
        <time>2016-06-12T08:17:02.000Z</time>
      </trkpt>
      <trkpt lat="47.494" lon="6.66484">
        <ele>415</ele>
        <time>2016-06-12T08:17:03.000Z</time>
      </trkpt>
      <trkpt lat="47.49403" lon="6.66482">
        <ele>415</ele>
        <time>2016-06-12T08:17:04.000Z</time>
      </trkpt>
      <trkpt lat="47.49406" lon="6.6648">
        <ele>415</ele>
        <time>2016-06-12T08:17:05.000Z</time>
      </trkpt>
      <trkpt lat="47.49409" lon="6.66478">
        <ele>415</ele>
        <time>2016-06-12T08:17:06.000Z</time>
      </trkpt>
      <trkpt lat="47.49413" lon="6.66477">
        <ele>416</ele>
        <time>2016-06-12T08:17:07.000Z</time>
      </trkpt>
      <trkpt lat="47.49415" lon="6.66475">
        <ele>416</ele>
        <time>2016-06-12T08:17:07.999Z</time>
      </trkpt>
      <trkpt lat="47.49418" lon="6.66474">
        <ele>415</ele>
        <time>2016-06-12T08:17:09.000Z</time>
      </trkpt>
      <trkpt lat="47.49421" lon="6.66473">
        <ele>415</ele>
        <time>2016-06-12T08:17:10.000Z</time>
      </trkpt>
      <trkpt lat="47.49424" lon="6.66472">
        <ele>415</ele>
        <time>2016-06-12T08:17:11.001Z</time>
      </trkpt>
      <trkpt lat="47.49427" lon="6.66472">
        <ele>415</ele>
        <time>2016-06-12T08:17:12.000Z</time>
      </trkpt>
      <trkpt lat="47.49431" lon="6.66471">
        <ele>415</ele>
        <time>2016-06-12T08:17:13.000Z</time>
      </trkpt>
      <trkpt lat="47.49434" lon="6.6647">
        <ele>415</ele>
        <time>2016-06-12T08:17:14.000Z</time>
      </trkpt>
      <trkpt lat="47.49437" lon="6.66468">
        <ele>415</ele>
        <time>2016-06-12T08:17:15.000Z</time>
      </trkpt>
      <trkpt lat="47.49441" lon="6.66466">
        <ele>415</ele>
        <time>2016-06-12T08:17:16.000Z</time>
      </trkpt>
      <trkpt lat="47.49443" lon="6.66464">
        <ele>415</ele>
        <time>2016-06-12T08:17:17.000Z</time>
      </trkpt>
      <trkpt lat="47.49446" lon="6.66462">
        <ele>415</ele>
        <time>2016-06-12T08:17:18.000Z</time>
      </trkpt>
      <trkpt lat="47.49449" lon="6.66459">
        <ele>415</ele>
        <time>2016-06-12T08:17:19.000Z</time>
      </trkpt>
      <trkpt lat="47.49452" lon="6.66457">
        <ele>415</ele>
        <time>2016-06-12T08:17:20.000Z</time>
      </trkpt>
      <trkpt lat="47.49454" lon="6.66454">
        <ele>415</ele>
        <time>2016-06-12T08:17:21.000Z</time>
      </trkpt>
      <trkpt lat="47.49457" lon="6.66452">
        <ele>415</ele>
        <time>2016-06-12T08:17:22.000Z</time>
      </trkpt>
      <trkpt lat="47.4946" lon="6.6645">
        <ele>415</ele>
        <time>2016-06-12T08:17:23.000Z</time>
      </trkpt>
      <trkpt lat="47.49463" lon="6.66448">
        <ele>415</ele>
        <time>2016-06-12T08:17:23.999Z</time>
      </trkpt>
      <trkpt lat="47.49466" lon="6.66446">
        <ele>415</ele>
        <time>2016-06-12T08:17:25.000Z</time>
      </trkpt>
      <trkpt lat="47.49468" lon="6.66444">
        <ele>415</ele>
        <time>2016-06-12T08:17:26.000Z</time>
      </trkpt>
      <trkpt lat="47.4947" lon="6.66442">
        <ele>415</ele>
        <time>2016-06-12T08:17:27.000Z</time>
      </trkpt>
      <trkpt lat="47.49473" lon="6.6644">
        <ele>415</ele>
        <time>2016-06-12T08:17:28.000Z</time>
      </trkpt>
      <trkpt lat="47.49474" lon="6.66437">
        <ele>416</ele>
        <time>2016-06-12T08:17:29.000Z</time>
      </trkpt>
      <trkpt lat="47.49476" lon="6.66435">
        <ele>416</ele>
        <time>2016-06-12T08:17:30.000Z</time>
      </trkpt>
      <trkpt lat="47.49478" lon="6.66433">
        <ele>416</ele>
        <time>2016-06-12T08:17:31.000Z</time>
      </trkpt>
      <trkpt lat="47.4948" lon="6.66432">
        <ele>416</ele>
        <time>2016-06-12T08:17:32.000Z</time>
      </trkpt>
      <trkpt lat="47.49482" lon="6.6643">
        <ele>416</ele>
        <time>2016-06-12T08:17:33.000Z</time>
      </trkpt>
      <trkpt lat="47.49485" lon="6.66428">
        <ele>416</ele>
        <time>2016-06-12T08:17:33.999Z</time>
      </trkpt>
      <trkpt lat="47.49487" lon="6.66427">
        <ele>416</ele>
        <time>2016-06-12T08:17:35.000Z</time>
      </trkpt>
      <trkpt lat="47.4949" lon="6.66424">
        <ele>416</ele>
        <time>2016-06-12T08:17:36.000Z</time>
      </trkpt>
      <trkpt lat="47.49492" lon="6.66422">
        <ele>416</ele>
        <time>2016-06-12T08:17:37.000Z</time>
      </trkpt>
      <trkpt lat="47.49495" lon="6.6642">
        <ele>417</ele>
        <time>2016-06-12T08:17:38.000Z</time>
      </trkpt>
      <trkpt lat="47.49497" lon="6.66418">
        <ele>417</ele>
        <time>2016-06-12T08:17:39.000Z</time>
      </trkpt>
      <trkpt lat="47.495" lon="6.66416">
        <ele>417</ele>
        <time>2016-06-12T08:17:40.000Z</time>
      </trkpt>
      <trkpt lat="47.49503" lon="6.66414">
        <ele>417</ele>
        <time>2016-06-12T08:17:41.000Z</time>
      </trkpt>
      <trkpt lat="47.49506" lon="6.66412">
        <ele>418</ele>
        <time>2016-06-12T08:17:42.000Z</time>
      </trkpt>
      <trkpt lat="47.49508" lon="6.6641">
        <ele>418</ele>
        <time>2016-06-12T08:17:43.000Z</time>
      </trkpt>
      <trkpt lat="47.49511" lon="6.66409">
        <ele>418</ele>
        <time>2016-06-12T08:17:44.001Z</time>
      </trkpt>
      <trkpt lat="47.49515" lon="6.66407">
        <ele>418</ele>
        <time>2016-06-12T08:17:45.000Z</time>
      </trkpt>
      <trkpt lat="47.49518" lon="6.66405">
        <ele>418</ele>
        <time>2016-06-12T08:17:46.000Z</time>
      </trkpt>
      <trkpt lat="47.49521" lon="6.66403">
        <ele>418</ele>
        <time>2016-06-12T08:17:47.000Z</time>
      </trkpt>
      <trkpt lat="47.49524" lon="6.66401">
        <ele>419</ele>
        <time>2016-06-12T08:17:48.000Z</time>
      </trkpt>
      <trkpt lat="47.49527" lon="6.66399">
        <ele>419</ele>
        <time>2016-06-12T08:17:49.000Z</time>
      </trkpt>
      <trkpt lat="47.4953" lon="6.66396">
        <ele>419</ele>
        <time>2016-06-12T08:17:50.000Z</time>
      </trkpt>
      <trkpt lat="47.49533" lon="6.66394">
        <ele>419</ele>
        <time>2016-06-12T08:17:51.000Z</time>
      </trkpt>
      <trkpt lat="47.49536" lon="6.66392">
        <ele>419</ele>
        <time>2016-06-12T08:17:52.000Z</time>
      </trkpt>
      <trkpt lat="47.49539" lon="6.66389">
        <ele>419</ele>
        <time>2016-06-12T08:17:53.000Z</time>
      </trkpt>
      <trkpt lat="47.49542" lon="6.66387">
        <ele>419</ele>
        <time>2016-06-12T08:17:54.000Z</time>
      </trkpt>
      <trkpt lat="47.49545" lon="6.66385">
        <ele>419</ele>
        <time>2016-06-12T08:17:55.000Z</time>
      </trkpt>
      <trkpt lat="47.49548" lon="6.66383">
        <ele>419</ele>
        <time>2016-06-12T08:17:56.000Z</time>
      </trkpt>
      <trkpt lat="47.49551" lon="6.6638">
        <ele>419</ele>
        <time>2016-06-12T08:17:57.000Z</time>
      </trkpt>
      <trkpt lat="47.49554" lon="6.66378">
        <ele>419</ele>
        <time>2016-06-12T08:17:58.000Z</time>
      </trkpt>
      <trkpt lat="47.49557" lon="6.66376">
        <ele>419</ele>
        <time>2016-06-12T08:17:59.000Z</time>
      </trkpt>
      <trkpt lat="47.4956" lon="6.66373">
        <ele>420</ele>
        <time>2016-06-12T08:18:00.000Z</time>
      </trkpt>
      <trkpt lat="47.49562" lon="6.66371">
        <ele>420</ele>
        <time>2016-06-12T08:18:01.001Z</time>
      </trkpt>
      <trkpt lat="47.49565" lon="6.66368">
        <ele>420</ele>
        <time>2016-06-12T08:18:02.000Z</time>
      </trkpt>
      <trkpt lat="47.49568" lon="6.66365">
        <ele>420</ele>
        <time>2016-06-12T08:18:03.000Z</time>
      </trkpt>
      <trkpt lat="47.49571" lon="6.66362">
        <ele>420</ele>
        <time>2016-06-12T08:18:04.000Z</time>
      </trkpt>
      <trkpt lat="47.49574" lon="6.6636">
        <ele>420</ele>
        <time>2016-06-12T08:18:05.000Z</time>
      </trkpt>
      <trkpt lat="47.49576" lon="6.66357">
        <ele>421</ele>
        <time>2016-06-12T08:18:06.000Z</time>
      </trkpt>
      <trkpt lat="47.49579" lon="6.66354">
        <ele>421</ele>
        <time>2016-06-12T08:18:07.000Z</time>
      </trkpt>
      <trkpt lat="47.49581" lon="6.66351">
        <ele>421</ele>
        <time>2016-06-12T08:18:08.000Z</time>
      </trkpt>
      <trkpt lat="47.49582" lon="6.66347">
        <ele>421</ele>
        <time>2016-06-12T08:18:09.000Z</time>
      </trkpt>
      <trkpt lat="47.49584" lon="6.66343">
        <ele>421</ele>
        <time>2016-06-12T08:18:10.000Z</time>
      </trkpt>
      <trkpt lat="47.49585" lon="6.66339">
        <ele>421</ele>
        <time>2016-06-12T08:18:11.000Z</time>
      </trkpt>
      <trkpt lat="47.49587" lon="6.66336">
        <ele>422</ele>
        <time>2016-06-12T08:18:12.000Z</time>
      </trkpt>
      <trkpt lat="47.49589" lon="6.66332">
        <ele>422</ele>
        <time>2016-06-12T08:18:13.000Z</time>
      </trkpt>
      <trkpt lat="47.49591" lon="6.66329">
        <ele>422</ele>
        <time>2016-06-12T08:18:14.000Z</time>
      </trkpt>
      <trkpt lat="47.49593" lon="6.66326">
        <ele>422</ele>
        <time>2016-06-12T08:18:15.000Z</time>
      </trkpt>
      <trkpt lat="47.49596" lon="6.66323">
        <ele>422</ele>
        <time>2016-06-12T08:18:15.999Z</time>
      </trkpt>
      <trkpt lat="47.49598" lon="6.6632">
        <ele>422</ele>
        <time>2016-06-12T08:18:17.000Z</time>
      </trkpt>
      <trkpt lat="47.496" lon="6.66316">
        <ele>421</ele>
        <time>2016-06-12T08:18:18.001Z</time>
      </trkpt>
      <trkpt lat="47.49602" lon="6.66313">
        <ele>421</ele>
        <time>2016-06-12T08:18:19.000Z</time>
      </trkpt>
      <trkpt lat="47.49605" lon="6.6631">
        <ele>421</ele>
        <time>2016-06-12T08:18:20.000Z</time>
      </trkpt>
      <trkpt lat="47.49608" lon="6.66308">
        <ele>421</ele>
        <time>2016-06-12T08:18:21.000Z</time>
      </trkpt>
      <trkpt lat="47.4961" lon="6.66305">
        <ele>421</ele>
        <time>2016-06-12T08:18:22.000Z</time>
      </trkpt>
      <trkpt lat="47.49613" lon="6.66302">
        <ele>421</ele>
        <time>2016-06-12T08:18:23.000Z</time>
      </trkpt>
      <trkpt lat="47.49615" lon="6.66298">
        <ele>421</ele>
        <time>2016-06-12T08:18:24.000Z</time>
      </trkpt>
      <trkpt lat="47.49617" lon="6.66294">
        <ele>421</ele>
        <time>2016-06-12T08:18:25.000Z</time>
      </trkpt>
      <trkpt lat="47.49619" lon="6.6629">
        <ele>421</ele>
        <time>2016-06-12T08:18:26.000Z</time>
      </trkpt>
      <trkpt lat="47.4962" lon="6.66286">
        <ele>421</ele>
        <time>2016-06-12T08:18:27.000Z</time>
      </trkpt>
      <trkpt lat="47.49622" lon="6.66281">
        <ele>421</ele>
        <time>2016-06-12T08:18:28.000Z</time>
      </trkpt>
      <trkpt lat="47.49623" lon="6.66277">
        <ele>421</ele>
        <time>2016-06-12T08:18:29.000Z</time>
      </trkpt>
      <trkpt lat="47.49625" lon="6.66273">
        <ele>421</ele>
        <time>2016-06-12T08:18:30.000Z</time>
      </trkpt>
      <trkpt lat="47.49627" lon="6.66269">
        <ele>421</ele>
        <time>2016-06-12T08:18:31.000Z</time>
      </trkpt>
      <trkpt lat="47.49629" lon="6.66265">
        <ele>421</ele>
        <time>2016-06-12T08:18:32.000Z</time>
      </trkpt>
      <trkpt lat="47.49631" lon="6.6626">
        <ele>421</ele>
        <time>2016-06-12T08:18:33.000Z</time>
      </trkpt>
      <trkpt lat="47.49634" lon="6.66256">
        <ele>421</ele>
        <time>2016-06-12T08:18:34.000Z</time>
      </trkpt>
      <trkpt lat="47.49636" lon="6.66251">
        <ele>421</ele>
        <time>2016-06-12T08:18:35.000Z</time>
      </trkpt>
      <trkpt lat="47.49638" lon="6.66247">
        <ele>423</ele>
        <time>2016-06-12T08:18:36.000Z</time>
      </trkpt>
      <trkpt lat="47.49641" lon="6.66242">
        <ele>423</ele>
        <time>2016-06-12T08:18:37.000Z</time>
      </trkpt>
      <trkpt lat="47.49643" lon="6.66238">
        <ele>423</ele>
        <time>2016-06-12T08:18:38.000Z</time>
      </trkpt>
      <trkpt lat="47.49646" lon="6.66234">
        <ele>423</ele>
        <time>2016-06-12T08:18:39.000Z</time>
      </trkpt>
      <trkpt lat="47.49649" lon="6.6623">
        <ele>423</ele>
        <time>2016-06-12T08:18:40.000Z</time>
      </trkpt>
      <trkpt lat="47.49651" lon="6.66226">
        <ele>423</ele>
        <time>2016-06-12T08:18:41.000Z</time>
      </trkpt>
      <trkpt lat="47.49654" lon="6.66222">
        <ele>423</ele>
        <time>2016-06-12T08:18:42.000Z</time>
      </trkpt>
      <trkpt lat="47.49657" lon="6.66217">
        <ele>423</ele>
        <time>2016-06-12T08:18:43.000Z</time>
      </trkpt>
      <trkpt lat="47.4966" lon="6.66213">
        <ele>423</ele>
        <time>2016-06-12T08:18:44.000Z</time>
      </trkpt>
      <trkpt lat="47.49662" lon="6.66209">
        <ele>423</ele>
        <time>2016-06-12T08:18:45.000Z</time>
      </trkpt>
      <trkpt lat="47.49665" lon="6.66204">
        <ele>423</ele>
        <time>2016-06-12T08:18:46.000Z</time>
      </trkpt>
      <trkpt lat="47.49667" lon="6.66199">
        <ele>418</ele>
        <time>2016-06-12T08:18:47.000Z</time>
      </trkpt>
      <trkpt lat="47.49669" lon="6.66194">
        <ele>419</ele>
        <time>2016-06-12T08:18:48.000Z</time>
      </trkpt>
      <trkpt lat="47.4967" lon="6.66189">
        <ele>419</ele>
        <time>2016-06-12T08:18:49.000Z</time>
      </trkpt>
      <trkpt lat="47.49672" lon="6.66183">
        <ele>420</ele>
        <time>2016-06-12T08:18:50.000Z</time>
      </trkpt>
      <trkpt lat="47.49673" lon="6.66178">
        <ele>420</ele>
        <time>2016-06-12T08:18:51.000Z</time>
      </trkpt>
      <trkpt lat="47.49674" lon="6.66172">
        <ele>421</ele>
        <time>2016-06-12T08:18:52.000Z</time>
      </trkpt>
      <trkpt lat="47.49675" lon="6.66167">
        <ele>421</ele>
        <time>2016-06-12T08:18:53.000Z</time>
      </trkpt>
      <trkpt lat="47.49676" lon="6.66161">
        <ele>422</ele>
        <time>2016-06-12T08:18:54.000Z</time>
      </trkpt>
      <trkpt lat="47.49677" lon="6.66156">
        <ele>421</ele>
        <time>2016-06-12T08:18:55.000Z</time>
      </trkpt>
      <trkpt lat="47.49679" lon="6.66151">
        <ele>421</ele>
        <time>2016-06-12T08:18:56.000Z</time>
      </trkpt>
      <trkpt lat="47.49681" lon="6.66146">
        <ele>421</ele>
        <time>2016-06-12T08:18:57.000Z</time>
      </trkpt>
      <trkpt lat="47.49683" lon="6.66141">
        <ele>420</ele>
        <time>2016-06-12T08:18:58.000Z</time>
      </trkpt>
      <trkpt lat="47.49685" lon="6.66136">
        <ele>420</ele>
        <time>2016-06-12T08:18:59.000Z</time>
      </trkpt>
      <trkpt lat="47.49688" lon="6.66131">
        <ele>420</ele>
        <time>2016-06-12T08:19:00.000Z</time>
      </trkpt>
      <trkpt lat="47.4969" lon="6.66126">
        <ele>420</ele>
        <time>2016-06-12T08:19:01.000Z</time>
      </trkpt>
      <trkpt lat="47.49693" lon="6.6612">
        <ele>420</ele>
        <time>2016-06-12T08:19:02.000Z</time>
      </trkpt>
      <trkpt lat="47.49696" lon="6.66116">
        <ele>420</ele>
        <time>2016-06-12T08:19:03.000Z</time>
      </trkpt>
      <trkpt lat="47.49699" lon="6.66111">
        <ele>420</ele>
        <time>2016-06-12T08:19:04.000Z</time>
      </trkpt>
      <trkpt lat="47.49701" lon="6.66106">
        <ele>420</ele>
        <time>2016-06-12T08:19:05.000Z</time>
      </trkpt>
      <trkpt lat="47.49704" lon="6.66102">
        <ele>420</ele>
        <time>2016-06-12T08:19:06.000Z</time>
      </trkpt>
      <trkpt lat="47.49707" lon="6.66098">
        <ele>420</ele>
        <time>2016-06-12T08:19:07.000Z</time>
      </trkpt>
      <trkpt lat="47.4971" lon="6.66093">
        <ele>420</ele>
        <time>2016-06-12T08:19:08.000Z</time>
      </trkpt>
      <trkpt lat="47.49713" lon="6.66089">
        <ele>420</ele>
        <time>2016-06-12T08:19:09.000Z</time>
      </trkpt>
      <trkpt lat="47.49716" lon="6.66085">
        <ele>420</ele>
        <time>2016-06-12T08:19:10.000Z</time>
      </trkpt>
      <trkpt lat="47.49719" lon="6.66081">
        <ele>422</ele>
        <time>2016-06-12T08:19:11.000Z</time>
      </trkpt>
      <trkpt lat="47.49722" lon="6.66077">
        <ele>422</ele>
        <time>2016-06-12T08:19:12.000Z</time>
      </trkpt>
      <trkpt lat="47.49724" lon="6.66072">
        <ele>422</ele>
        <time>2016-06-12T08:19:13.000Z</time>
      </trkpt>
      <trkpt lat="47.49726" lon="6.66068">
        <ele>422</ele>
        <time>2016-06-12T08:19:14.000Z</time>
      </trkpt>
      <trkpt lat="47.49728" lon="6.66063">
        <ele>422</ele>
        <time>2016-06-12T08:19:15.000Z</time>
      </trkpt>
      <trkpt lat="47.4973" lon="6.66059">
        <ele>422</ele>
        <time>2016-06-12T08:19:16.000Z</time>
      </trkpt>
      <trkpt lat="47.49732" lon="6.66055">
        <ele>422</ele>
        <time>2016-06-12T08:19:17.000Z</time>
      </trkpt>
      <trkpt lat="47.49735" lon="6.66051">
        <ele>422</ele>
        <time>2016-06-12T08:19:18.000Z</time>
      </trkpt>
      <trkpt lat="47.49737" lon="6.66046">
        <ele>422</ele>
        <time>2016-06-12T08:19:19.000Z</time>
      </trkpt>
      <trkpt lat="47.4974" lon="6.66042">
        <ele>422</ele>
        <time>2016-06-12T08:19:20.000Z</time>
      </trkpt>
      <trkpt lat="47.49742" lon="6.66037">
        <ele>423</ele>
        <time>2016-06-12T08:19:21.000Z</time>
      </trkpt>
      <trkpt lat="47.49745" lon="6.66032">
        <ele>423</ele>
        <time>2016-06-12T08:19:22.000Z</time>
      </trkpt>
      <trkpt lat="47.49747" lon="6.66027">
        <ele>423</ele>
        <time>2016-06-12T08:19:23.000Z</time>
      </trkpt>
      <trkpt lat="47.49749" lon="6.66023">
        <ele>423</ele>
        <time>2016-06-12T08:19:24.000Z</time>
      </trkpt>
      <trkpt lat="47.49752" lon="6.66018">
        <ele>420</ele>
        <time>2016-06-12T08:19:25.000Z</time>
      </trkpt>
      <trkpt lat="47.49754" lon="6.66013">
        <ele>421</ele>
        <time>2016-06-12T08:19:26.000Z</time>
      </trkpt>
      <trkpt lat="47.49756" lon="6.66008">
        <ele>421</ele>
        <time>2016-06-12T08:19:27.000Z</time>
      </trkpt>
      <trkpt lat="47.49758" lon="6.66003">
        <ele>422</ele>
        <time>2016-06-12T08:19:28.000Z</time>
      </trkpt>
      <trkpt lat="47.4976" lon="6.65999">
        <ele>423</ele>
        <time>2016-06-12T08:19:29.000Z</time>
      </trkpt>
      <trkpt lat="47.49762" lon="6.65995">
        <ele>422</ele>
        <time>2016-06-12T08:19:30.000Z</time>
      </trkpt>
      <trkpt lat="47.49765" lon="6.6599">
        <ele>422</ele>
        <time>2016-06-12T08:19:31.000Z</time>
      </trkpt>
      <trkpt lat="47.49767" lon="6.65986">
        <ele>422</ele>
        <time>2016-06-12T08:19:31.999Z</time>
      </trkpt>
      <trkpt lat="47.49769" lon="6.65981">
        <ele>421</ele>
        <time>2016-06-12T08:19:33.000Z</time>
      </trkpt>
      <trkpt lat="47.49771" lon="6.65976">
        <ele>421</ele>
        <time>2016-06-12T08:19:34.000Z</time>
      </trkpt>
      <trkpt lat="47.49774" lon="6.65971">
        <ele>421</ele>
        <time>2016-06-12T08:19:35.000Z</time>
      </trkpt>
      <trkpt lat="47.49776" lon="6.65967">
        <ele>421</ele>
        <time>2016-06-12T08:19:36.000Z</time>
      </trkpt>
      <trkpt lat="47.49779" lon="6.65962">
        <ele>421</ele>
        <time>2016-06-12T08:19:37.000Z</time>
      </trkpt>
      <trkpt lat="47.49784" lon="6.65957">
        <ele>420</ele>
        <time>2016-06-12T08:19:38.000Z</time>
      </trkpt>
      <trkpt lat="47.49787" lon="6.65952">
        <ele>420</ele>
        <time>2016-06-12T08:19:39.000Z</time>
      </trkpt>
      <trkpt lat="47.4979" lon="6.65946">
        <ele>420</ele>
        <time>2016-06-12T08:19:40.001Z</time>
      </trkpt>
      <trkpt lat="47.49793" lon="6.65939">
        <ele>420</ele>
        <time>2016-06-12T08:19:41.000Z</time>
      </trkpt>
      <trkpt lat="47.49795" lon="6.65934">
        <ele>420</ele>
        <time>2016-06-12T08:19:42.000Z</time>
      </trkpt>
      <trkpt lat="47.49798" lon="6.65928">
        <ele>420</ele>
        <time>2016-06-12T08:19:43.000Z</time>
      </trkpt>
      <trkpt lat="47.49803" lon="6.65922">
        <ele>420</ele>
        <time>2016-06-12T08:19:44.000Z</time>
      </trkpt>
      <trkpt lat="47.49804" lon="6.65913">
        <ele>421</ele>
        <time>2016-06-12T08:19:45.000Z</time>
      </trkpt>
      <trkpt lat="47.49806" lon="6.65907">
        <ele>420</ele>
        <time>2016-06-12T08:19:46.000Z</time>
      </trkpt>
      <trkpt lat="47.49808" lon="6.659">
        <ele>420</ele>
        <time>2016-06-12T08:19:47.000Z</time>
      </trkpt>
      <trkpt lat="47.4981" lon="6.65894">
        <ele>421</ele>
        <time>2016-06-12T08:19:48.000Z</time>
      </trkpt>
      <trkpt lat="47.49811" lon="6.65885">
        <ele>421</ele>
        <time>2016-06-12T08:19:49.000Z</time>
      </trkpt>
      <trkpt lat="47.49813" lon="6.65879">
        <ele>421</ele>
        <time>2016-06-12T08:19:50.000Z</time>
      </trkpt>
      <trkpt lat="47.49814" lon="6.65873">
        <ele>421</ele>
        <time>2016-06-12T08:19:51.000Z</time>
      </trkpt>
      <trkpt lat="47.49816" lon="6.65869">
        <ele>421</ele>
        <time>2016-06-12T08:19:52.000Z</time>
      </trkpt>
      <trkpt lat="47.49817" lon="6.65863">
        <ele>421</ele>
        <time>2016-06-12T08:19:53.000Z</time>
      </trkpt>
      <trkpt lat="47.49817" lon="6.65856">
        <ele>421</ele>
        <time>2016-06-12T08:19:54.000Z</time>
      </trkpt>
      <trkpt lat="47.4982" lon="6.65851">
        <ele>421</ele>
        <time>2016-06-12T08:19:55.000Z</time>
      </trkpt>
      <trkpt lat="47.49821" lon="6.65845">
        <ele>421</ele>
        <time>2016-06-12T08:19:56.000Z</time>
      </trkpt>
      <trkpt lat="47.49822" lon="6.65839">
        <ele>420</ele>
        <time>2016-06-12T08:19:57.000Z</time>
      </trkpt>
      <trkpt lat="47.49823" lon="6.65833">
        <ele>421</ele>
        <time>2016-06-12T08:19:58.000Z</time>
      </trkpt>
      <trkpt lat="47.49825" lon="6.65827">
        <ele>421</ele>
        <time>2016-06-12T08:19:59.000Z</time>
      </trkpt>
      <trkpt lat="47.49826" lon="6.65821">
        <ele>421</ele>
        <time>2016-06-12T08:20:00.000Z</time>
      </trkpt>
      <trkpt lat="47.49827" lon="6.65815">
        <ele>421</ele>
        <time>2016-06-12T08:20:01.000Z</time>
      </trkpt>
      <trkpt lat="47.49828" lon="6.65809">
        <ele>421</ele>
        <time>2016-06-12T08:20:02.000Z</time>
      </trkpt>
      <trkpt lat="47.4983" lon="6.65803">
        <ele>421</ele>
        <time>2016-06-12T08:20:03.000Z</time>
      </trkpt>
      <trkpt lat="47.49831" lon="6.65797">
        <ele>421</ele>
        <time>2016-06-12T08:20:04.000Z</time>
      </trkpt>
      <trkpt lat="47.49834" lon="6.65791">
        <ele>418</ele>
        <time>2016-06-12T08:20:05.000Z</time>
      </trkpt>
      <trkpt lat="47.49837" lon="6.65785">
        <ele>418</ele>
        <time>2016-06-12T08:20:06.000Z</time>
      </trkpt>
      <trkpt lat="47.49838" lon="6.65779">
        <ele>418</ele>
        <time>2016-06-12T08:20:07.000Z</time>
      </trkpt>
      <trkpt lat="47.4984" lon="6.65773">
        <ele>419</ele>
        <time>2016-06-12T08:20:08.000Z</time>
      </trkpt>
      <trkpt lat="47.49842" lon="6.65767">
        <ele>419</ele>
        <time>2016-06-12T08:20:09.000Z</time>
      </trkpt>
      <trkpt lat="47.49844" lon="6.6576">
        <ele>419</ele>
        <time>2016-06-12T08:20:10.000Z</time>
      </trkpt>
      <trkpt lat="47.49846" lon="6.65754">
        <ele>419</ele>
        <time>2016-06-12T08:20:11.000Z</time>
      </trkpt>
      <trkpt lat="47.49848" lon="6.65748">
        <ele>420</ele>
        <time>2016-06-12T08:20:12.000Z</time>
      </trkpt>
      <trkpt lat="47.4985" lon="6.65741">
        <ele>420</ele>
        <time>2016-06-12T08:20:13.000Z</time>
      </trkpt>
      <trkpt lat="47.49852" lon="6.65736">
        <ele>420</ele>
        <time>2016-06-12T08:20:14.000Z</time>
      </trkpt>
      <trkpt lat="47.49854" lon="6.65729">
        <ele>419</ele>
        <time>2016-06-12T08:20:15.000Z</time>
      </trkpt>
      <trkpt lat="47.49856" lon="6.65723">
        <ele>419</ele>
        <time>2016-06-12T08:20:16.000Z</time>
      </trkpt>
      <trkpt lat="47.49857" lon="6.65716">
        <ele>419</ele>
        <time>2016-06-12T08:20:17.000Z</time>
      </trkpt>
      <trkpt lat="47.4986" lon="6.6571">
        <ele>419</ele>
        <time>2016-06-12T08:20:18.000Z</time>
      </trkpt>
      <trkpt lat="47.49862" lon="6.65704">
        <ele>419</ele>
        <time>2016-06-12T08:20:19.000Z</time>
      </trkpt>
      <trkpt lat="47.49864" lon="6.65697">
        <ele>419</ele>
        <time>2016-06-12T08:20:20.000Z</time>
      </trkpt>
      <trkpt lat="47.49866" lon="6.6569">
        <ele>419</ele>
        <time>2016-06-12T08:20:21.000Z</time>
      </trkpt>
      <trkpt lat="47.49867" lon="6.65683">
        <ele>419</ele>
        <time>2016-06-12T08:20:22.000Z</time>
      </trkpt>
      <trkpt lat="47.49868" lon="6.65676">
        <ele>419</ele>
        <time>2016-06-12T08:20:23.000Z</time>
      </trkpt>
      <trkpt lat="47.4987" lon="6.6567">
        <ele>419</ele>
        <time>2016-06-12T08:20:24.000Z</time>
      </trkpt>
      <trkpt lat="47.49872" lon="6.65663">
        <ele>419</ele>
        <time>2016-06-12T08:20:25.000Z</time>
      </trkpt>
      <trkpt lat="47.49874" lon="6.65656">
        <ele>419</ele>
        <time>2016-06-12T08:20:26.000Z</time>
      </trkpt>
      <trkpt lat="47.49876" lon="6.65649">
        <ele>419</ele>
        <time>2016-06-12T08:20:27.000Z</time>
      </trkpt>
      <trkpt lat="47.49877" lon="6.65642">
        <ele>419</ele>
        <time>2016-06-12T08:20:28.000Z</time>
      </trkpt>
      <trkpt lat="47.49879" lon="6.65636">
        <ele>419</ele>
        <time>2016-06-12T08:20:29.000Z</time>
      </trkpt>
      <trkpt lat="47.49881" lon="6.65629">
        <ele>419</ele>
        <time>2016-06-12T08:20:30.000Z</time>
      </trkpt>
      <trkpt lat="47.49882" lon="6.65622">
        <ele>419</ele>
        <time>2016-06-12T08:20:31.000Z</time>
      </trkpt>
      <trkpt lat="47.49884" lon="6.65615">
        <ele>419</ele>
        <time>2016-06-12T08:20:32.000Z</time>
      </trkpt>
      <trkpt lat="47.49887" lon="6.65608">
        <ele>419</ele>
        <time>2016-06-12T08:20:33.000Z</time>
      </trkpt>
      <trkpt lat="47.49889" lon="6.65601">
        <ele>419</ele>
        <time>2016-06-12T08:20:34.000Z</time>
      </trkpt>
      <trkpt lat="47.49891" lon="6.65595">
        <ele>419</ele>
        <time>2016-06-12T08:20:35.000Z</time>
      </trkpt>
      <trkpt lat="47.49893" lon="6.65587">
        <ele>419</ele>
        <time>2016-06-12T08:20:36.000Z</time>
      </trkpt>
      <trkpt lat="47.49895" lon="6.6558">
        <ele>418</ele>
        <time>2016-06-12T08:20:37.000Z</time>
      </trkpt>
      <trkpt lat="47.49897" lon="6.65574">
        <ele>418</ele>
        <time>2016-06-12T08:20:38.000Z</time>
      </trkpt>
      <trkpt lat="47.499" lon="6.65568">
        <ele>418</ele>
        <time>2016-06-12T08:20:39.000Z</time>
      </trkpt>
      <trkpt lat="47.49903" lon="6.65561">
        <ele>417</ele>
        <time>2016-06-12T08:20:40.000Z</time>
      </trkpt>
      <trkpt lat="47.49906" lon="6.65556">
        <ele>417</ele>
        <time>2016-06-12T08:20:41.000Z</time>
      </trkpt>
      <trkpt lat="47.49909" lon="6.65551">
        <ele>417</ele>
        <time>2016-06-12T08:20:42.000Z</time>
      </trkpt>
      <trkpt lat="47.49912" lon="6.65546">
        <ele>417</ele>
        <time>2016-06-12T08:20:43.000Z</time>
      </trkpt>
      <trkpt lat="47.49916" lon="6.6554">
        <ele>417</ele>
        <time>2016-06-12T08:20:44.000Z</time>
      </trkpt>
      <trkpt lat="47.49917" lon="6.65535">
        <ele>415</ele>
        <time>2016-06-12T08:20:45.000Z</time>
      </trkpt>
      <trkpt lat="47.49919" lon="6.65529">
        <ele>415</ele>
        <time>2016-06-12T08:20:46.000Z</time>
      </trkpt>
      <trkpt lat="47.49924" lon="6.65523">
        <ele>415</ele>
        <time>2016-06-12T08:20:47.000Z</time>
      </trkpt>
      <trkpt lat="47.49927" lon="6.65518">
        <ele>415</ele>
        <time>2016-06-12T08:20:48.000Z</time>
      </trkpt>
      <trkpt lat="47.49929" lon="6.65512">
        <ele>415</ele>
        <time>2016-06-12T08:20:49.000Z</time>
      </trkpt>
      <trkpt lat="47.49932" lon="6.65505">
        <ele>415</ele>
        <time>2016-06-12T08:20:50.000Z</time>
      </trkpt>
      <trkpt lat="47.49934" lon="6.65499">
        <ele>415</ele>
        <time>2016-06-12T08:20:51.000Z</time>
      </trkpt>
      <trkpt lat="47.49937" lon="6.65493">
        <ele>415</ele>
        <time>2016-06-12T08:20:52.000Z</time>
      </trkpt>
      <trkpt lat="47.49939" lon="6.65486">
        <ele>415</ele>
        <time>2016-06-12T08:20:53.000Z</time>
      </trkpt>
      <trkpt lat="47.49942" lon="6.6548">
        <ele>415</ele>
        <time>2016-06-12T08:20:54.000Z</time>
      </trkpt>
      <trkpt lat="47.49945" lon="6.65475">
        <ele>415</ele>
        <time>2016-06-12T08:20:55.000Z</time>
      </trkpt>
      <trkpt lat="47.49948" lon="6.65468">
        <ele>414</ele>
        <time>2016-06-12T08:20:56.000Z</time>
      </trkpt>
      <trkpt lat="47.49951" lon="6.65462">
        <ele>414</ele>
        <time>2016-06-12T08:20:57.000Z</time>
      </trkpt>
      <trkpt lat="47.49953" lon="6.65456">
        <ele>414</ele>
        <time>2016-06-12T08:20:58.000Z</time>
      </trkpt>
      <trkpt lat="47.49957" lon="6.65451">
        <ele>414</ele>
        <time>2016-06-12T08:20:59.000Z</time>
      </trkpt>
      <trkpt lat="47.4996" lon="6.65446">
        <ele>414</ele>
        <time>2016-06-12T08:21:00.000Z</time>
      </trkpt>
      <trkpt lat="47.49963" lon="6.6544">
        <ele>414</ele>
        <time>2016-06-12T08:21:01.000Z</time>
      </trkpt>
      <trkpt lat="47.49966" lon="6.65434">
        <ele>414</ele>
        <time>2016-06-12T08:21:02.000Z</time>
      </trkpt>
      <trkpt lat="47.49969" lon="6.65428">
        <ele>414</ele>
        <time>2016-06-12T08:21:02.999Z</time>
      </trkpt>
      <trkpt lat="47.49972" lon="6.65423">
        <ele>414</ele>
        <time>2016-06-12T08:21:04.000Z</time>
      </trkpt>
      <trkpt lat="47.49976" lon="6.65418">
        <ele>414</ele>
        <time>2016-06-12T08:21:05.000Z</time>
      </trkpt>
      <trkpt lat="47.49979" lon="6.65412">
        <ele>413</ele>
        <time>2016-06-12T08:21:06.000Z</time>
      </trkpt>
      <trkpt lat="47.49983" lon="6.65406">
        <ele>413</ele>
        <time>2016-06-12T08:21:07.000Z</time>
      </trkpt>
      <trkpt lat="47.49986" lon="6.65401">
        <ele>413</ele>
        <time>2016-06-12T08:21:08.000Z</time>
      </trkpt>
      <trkpt lat="47.49989" lon="6.65395">
        <ele>413</ele>
        <time>2016-06-12T08:21:09.000Z</time>
      </trkpt>
      <trkpt lat="47.49992" lon="6.6539">
        <ele>413</ele>
        <time>2016-06-12T08:21:10.000Z</time>
      </trkpt>
      <trkpt lat="47.49996" lon="6.65386">
        <ele>413</ele>
        <time>2016-06-12T08:21:11.000Z</time>
      </trkpt>
      <trkpt lat="47.5" lon="6.65381">
        <ele>413</ele>
        <time>2016-06-12T08:21:12.000Z</time>
      </trkpt>
      <trkpt lat="47.50005" lon="6.65375">
        <ele>412</ele>
        <time>2016-06-12T08:21:13.000Z</time>
      </trkpt>
      <trkpt lat="47.50008" lon="6.6537">
        <ele>412</ele>
        <time>2016-06-12T08:21:14.000Z</time>
      </trkpt>
      <trkpt lat="47.50013" lon="6.65364">
        <ele>412</ele>
        <time>2016-06-12T08:21:15.000Z</time>
      </trkpt>
      <trkpt lat="47.50018" lon="6.65358">
        <ele>412</ele>
        <time>2016-06-12T08:21:16.000Z</time>
      </trkpt>
      <trkpt lat="47.50022" lon="6.65354">
        <ele>412</ele>
        <time>2016-06-12T08:21:17.000Z</time>
      </trkpt>
      <trkpt lat="47.50026" lon="6.65349">
        <ele>412</ele>
        <time>2016-06-12T08:21:18.000Z</time>
      </trkpt>
      <trkpt lat="47.50031" lon="6.65344">
        <ele>412</ele>
        <time>2016-06-12T08:21:19.000Z</time>
      </trkpt>
      <trkpt lat="47.50035" lon="6.65339">
        <ele>412</ele>
        <time>2016-06-12T08:21:20.000Z</time>
      </trkpt>
      <trkpt lat="47.5004" lon="6.65334">
        <ele>412</ele>
        <time>2016-06-12T08:21:21.000Z</time>
      </trkpt>
      <trkpt lat="47.50045" lon="6.65329">
        <ele>412</ele>
        <time>2016-06-12T08:21:22.000Z</time>
      </trkpt>
      <trkpt lat="47.50049" lon="6.65324">
        <ele>412</ele>
        <time>2016-06-12T08:21:23.000Z</time>
      </trkpt>
      <trkpt lat="47.50053" lon="6.65318">
        <ele>412</ele>
        <time>2016-06-12T08:21:24.000Z</time>
      </trkpt>
      <trkpt lat="47.50058" lon="6.65313">
        <ele>412</ele>
        <time>2016-06-12T08:21:25.000Z</time>
      </trkpt>
      <trkpt lat="47.50062" lon="6.65309">
        <ele>412</ele>
        <time>2016-06-12T08:21:26.000Z</time>
      </trkpt>
      <trkpt lat="47.50067" lon="6.65303">
        <ele>412</ele>
        <time>2016-06-12T08:21:27.000Z</time>
      </trkpt>
      <trkpt lat="47.50071" lon="6.65297">
        <ele>412</ele>
        <time>2016-06-12T08:21:28.000Z</time>
      </trkpt>
      <trkpt lat="47.50075" lon="6.65291">
        <ele>412</ele>
        <time>2016-06-12T08:21:29.000Z</time>
      </trkpt>
      <trkpt lat="47.5008" lon="6.65286">
        <ele>412</ele>
        <time>2016-06-12T08:21:30.000Z</time>
      </trkpt>
      <trkpt lat="47.50084" lon="6.6528">
        <ele>409</ele>
        <time>2016-06-12T08:21:31.000Z</time>
      </trkpt>
      <trkpt lat="47.50088" lon="6.65275">
        <ele>409</ele>
        <time>2016-06-12T08:21:32.000Z</time>
      </trkpt>
      <trkpt lat="47.50092" lon="6.6527">
        <ele>410</ele>
        <time>2016-06-12T08:21:33.000Z</time>
      </trkpt>
      <trkpt lat="47.50096" lon="6.65265">
        <ele>410</ele>
        <time>2016-06-12T08:21:34.000Z</time>
      </trkpt>
      <trkpt lat="47.501" lon="6.6526">
        <ele>410</ele>
        <time>2016-06-12T08:21:35.000Z</time>
      </trkpt>
      <trkpt lat="47.50105" lon="6.65254">
        <ele>409</ele>
        <time>2016-06-12T08:21:36.000Z</time>
      </trkpt>
      <trkpt lat="47.50109" lon="6.65249">
        <ele>410</ele>
        <time>2016-06-12T08:21:37.000Z</time>
      </trkpt>
      <trkpt lat="47.50114" lon="6.65244">
        <ele>410</ele>
        <time>2016-06-12T08:21:38.000Z</time>
      </trkpt>
      <trkpt lat="47.50119" lon="6.65238">
        <ele>410</ele>
        <time>2016-06-12T08:21:39.000Z</time>
      </trkpt>
      <trkpt lat="47.50123" lon="6.65233">
        <ele>410</ele>
        <time>2016-06-12T08:21:40.000Z</time>
      </trkpt>
      <trkpt lat="47.50127" lon="6.65228">
        <ele>410</ele>
        <time>2016-06-12T08:21:41.000Z</time>
      </trkpt>
      <trkpt lat="47.50132" lon="6.65222">
        <ele>410</ele>
        <time>2016-06-12T08:21:42.000Z</time>
      </trkpt>
      <trkpt lat="47.50136" lon="6.65216">
        <ele>410</ele>
        <time>2016-06-12T08:21:43.000Z</time>
      </trkpt>
      <trkpt lat="47.5014" lon="6.6521">
        <ele>410</ele>
        <time>2016-06-12T08:21:44.000Z</time>
      </trkpt>
      <trkpt lat="47.50144" lon="6.65204">
        <ele>410</ele>
        <time>2016-06-12T08:21:45.000Z</time>
      </trkpt>
      <trkpt lat="47.50148" lon="6.65199">
        <ele>410</ele>
        <time>2016-06-12T08:21:46.000Z</time>
      </trkpt>
      <trkpt lat="47.50152" lon="6.65194">
        <ele>410</ele>
        <time>2016-06-12T08:21:47.000Z</time>
      </trkpt>
      <trkpt lat="47.50156" lon="6.65189">
        <ele>410</ele>
        <time>2016-06-12T08:21:48.000Z</time>
      </trkpt>
      <trkpt lat="47.5016" lon="6.65184">
        <ele>411</ele>
        <time>2016-06-12T08:21:49.000Z</time>
      </trkpt>
      <trkpt lat="47.50164" lon="6.65179">
        <ele>411</ele>
        <time>2016-06-12T08:21:50.000Z</time>
      </trkpt>
      <trkpt lat="47.50168" lon="6.65175">
        <ele>410</ele>
        <time>2016-06-12T08:21:51.000Z</time>
      </trkpt>
      <trkpt lat="47.50172" lon="6.6517">
        <ele>410</ele>
        <time>2016-06-12T08:21:52.000Z</time>
      </trkpt>
      <trkpt lat="47.50176" lon="6.65166">
        <ele>411</ele>
        <time>2016-06-12T08:21:53.000Z</time>
      </trkpt>
      <trkpt lat="47.5018" lon="6.65161">
        <ele>410</ele>
        <time>2016-06-12T08:21:54.000Z</time>
      </trkpt>
      <trkpt lat="47.50184" lon="6.65157">
        <ele>410</ele>
        <time>2016-06-12T08:21:55.000Z</time>
      </trkpt>
      <trkpt lat="47.50187" lon="6.65152">
        <ele>410</ele>
        <time>2016-06-12T08:21:56.000Z</time>
      </trkpt>
      <trkpt lat="47.50192" lon="6.65148">
        <ele>410</ele>
        <time>2016-06-12T08:21:57.000Z</time>
      </trkpt>
      <trkpt lat="47.50194" lon="6.65143">
        <ele>410</ele>
        <time>2016-06-12T08:21:58.000Z</time>
      </trkpt>
      <trkpt lat="47.50197" lon="6.65138">
        <ele>410</ele>
        <time>2016-06-12T08:21:59.000Z</time>
      </trkpt>
      <trkpt lat="47.502" lon="6.65133">
        <ele>410</ele>
        <time>2016-06-12T08:22:00.000Z</time>
      </trkpt>
      <trkpt lat="47.50204" lon="6.65129">
        <ele>410</ele>
        <time>2016-06-12T08:22:01.000Z</time>
      </trkpt>
      <trkpt lat="47.50207" lon="6.65125">
        <ele>410</ele>
        <time>2016-06-12T08:22:02.000Z</time>
      </trkpt>
      <trkpt lat="47.5021" lon="6.65121">
        <ele>410</ele>
        <time>2016-06-12T08:22:03.000Z</time>
      </trkpt>
      <trkpt lat="47.50212" lon="6.65118">
        <ele>410</ele>
        <time>2016-06-12T08:22:04.000Z</time>
      </trkpt>
      <trkpt lat="47.50215" lon="6.65115">
        <ele>410</ele>
        <time>2016-06-12T08:22:05.000Z</time>
      </trkpt>
      <trkpt lat="47.50218" lon="6.65111">
        <ele>410</ele>
        <time>2016-06-12T08:22:05.999Z</time>
      </trkpt>
      <trkpt lat="47.50221" lon="6.65109">
        <ele>410</ele>
        <time>2016-06-12T08:22:07.000Z</time>
      </trkpt>
      <trkpt lat="47.50223" lon="6.65106">
        <ele>410</ele>
        <time>2016-06-12T08:22:08.000Z</time>
      </trkpt>
      <trkpt lat="47.50227" lon="6.65103">
        <ele>410</ele>
        <time>2016-06-12T08:22:09.000Z</time>
      </trkpt>
      <trkpt lat="47.5023" lon="6.651">
        <ele>411</ele>
        <time>2016-06-12T08:22:10.000Z</time>
      </trkpt>
      <trkpt lat="47.50233" lon="6.65096">
        <ele>411</ele>
        <time>2016-06-12T08:22:11.000Z</time>
      </trkpt>
      <trkpt lat="47.50235" lon="6.65093">
        <ele>411</ele>
        <time>2016-06-12T08:22:12.000Z</time>
      </trkpt>
      <trkpt lat="47.50237" lon="6.65091">
        <ele>411</ele>
        <time>2016-06-12T08:22:13.000Z</time>
      </trkpt>
      <trkpt lat="47.50239" lon="6.65088">
        <ele>411</ele>
        <time>2016-06-12T08:22:14.000Z</time>
      </trkpt>
      <trkpt lat="47.50241" lon="6.65086">
        <ele>411</ele>
        <time>2016-06-12T08:22:15.000Z</time>
      </trkpt>
      <trkpt lat="47.50243" lon="6.65084">
        <ele>411</ele>
        <time>2016-06-12T08:22:16.000Z</time>
      </trkpt>
      <trkpt lat="47.50245" lon="6.65081">
        <ele>412</ele>
        <time>2016-06-12T08:22:17.000Z</time>
      </trkpt>
      <trkpt lat="47.50247" lon="6.65077">
        <ele>412</ele>
        <time>2016-06-12T08:22:18.000Z</time>
      </trkpt>
      <trkpt lat="47.50249" lon="6.65074">
        <ele>411</ele>
        <time>2016-06-12T08:22:19.000Z</time>
      </trkpt>
      <trkpt lat="47.50251" lon="6.6507">
        <ele>410</ele>
        <time>2016-06-12T08:22:20.000Z</time>
      </trkpt>
      <trkpt lat="47.50253" lon="6.65067">
        <ele>410</ele>
        <time>2016-06-12T08:22:21.000Z</time>
      </trkpt>
      <trkpt lat="47.50254" lon="6.65063">
        <ele>410</ele>
        <time>2016-06-12T08:22:22.000Z</time>
      </trkpt>
      <trkpt lat="47.50256" lon="6.65059">
        <ele>409</ele>
        <time>2016-06-12T08:22:23.000Z</time>
      </trkpt>
      <trkpt lat="47.50257" lon="6.65054">
        <ele>409</ele>
        <time>2016-06-12T08:22:24.000Z</time>
      </trkpt>
      <trkpt lat="47.50259" lon="6.65049">
        <ele>409</ele>
        <time>2016-06-12T08:22:25.000Z</time>
      </trkpt>
      <trkpt lat="47.50261" lon="6.65044">
        <ele>409</ele>
        <time>2016-06-12T08:22:26.000Z</time>
      </trkpt>
      <trkpt lat="47.50264" lon="6.65038">
        <ele>409</ele>
        <time>2016-06-12T08:22:27.000Z</time>
      </trkpt>
      <trkpt lat="47.50265" lon="6.65032">
        <ele>408</ele>
        <time>2016-06-12T08:22:28.000Z</time>
      </trkpt>
      <trkpt lat="47.50267" lon="6.65026">
        <ele>408</ele>
        <time>2016-06-12T08:22:29.000Z</time>
      </trkpt>
      <trkpt lat="47.50269" lon="6.6502">
        <ele>408</ele>
        <time>2016-06-12T08:22:30.000Z</time>
      </trkpt>
      <trkpt lat="47.50271" lon="6.65014">
        <ele>408</ele>
        <time>2016-06-12T08:22:31.000Z</time>
      </trkpt>
      <trkpt lat="47.50273" lon="6.65007">
        <ele>408</ele>
        <time>2016-06-12T08:22:32.000Z</time>
      </trkpt>
      <trkpt lat="47.50275" lon="6.65001">
        <ele>408</ele>
        <time>2016-06-12T08:22:33.000Z</time>
      </trkpt>
      <trkpt lat="47.50277" lon="6.64996">
        <ele>408</ele>
        <time>2016-06-12T08:22:34.000Z</time>
      </trkpt>
      <trkpt lat="47.50279" lon="6.6499">
        <ele>408</ele>
        <time>2016-06-12T08:22:35.000Z</time>
      </trkpt>
      <trkpt lat="47.50282" lon="6.64985">
        <ele>408</ele>
        <time>2016-06-12T08:22:36.000Z</time>
      </trkpt>
      <trkpt lat="47.50284" lon="6.6498">
        <ele>408</ele>
        <time>2016-06-12T08:22:37.000Z</time>
      </trkpt>
      <trkpt lat="47.50286" lon="6.64975">
        <ele>408</ele>
        <time>2016-06-12T08:22:38.000Z</time>
      </trkpt>
      <trkpt lat="47.50289" lon="6.6497">
        <ele>408</ele>
        <time>2016-06-12T08:22:39.000Z</time>
      </trkpt>
      <trkpt lat="47.50291" lon="6.64966">
        <ele>408</ele>
        <time>2016-06-12T08:22:40.000Z</time>
      </trkpt>
      <trkpt lat="47.50293" lon="6.64962">
        <ele>407</ele>
        <time>2016-06-12T08:22:41.000Z</time>
      </trkpt>
      <trkpt lat="47.50295" lon="6.64958">
        <ele>407</ele>
        <time>2016-06-12T08:22:42.000Z</time>
      </trkpt>
      <trkpt lat="47.50297" lon="6.64954">
        <ele>407</ele>
        <time>2016-06-12T08:22:43.000Z</time>
      </trkpt>
      <trkpt lat="47.50299" lon="6.6495">
        <ele>407</ele>
        <time>2016-06-12T08:22:44.000Z</time>
      </trkpt>
      <trkpt lat="47.50302" lon="6.64946">
        <ele>407</ele>
        <time>2016-06-12T08:22:45.000Z</time>
      </trkpt>
      <trkpt lat="47.50305" lon="6.64942">
        <ele>407</ele>
        <time>2016-06-12T08:22:46.000Z</time>
      </trkpt>
      <trkpt lat="47.50308" lon="6.64938">
        <ele>407</ele>
        <time>2016-06-12T08:22:47.000Z</time>
      </trkpt>
      <trkpt lat="47.50311" lon="6.64933">
        <ele>407</ele>
        <time>2016-06-12T08:22:48.000Z</time>
      </trkpt>
      <trkpt lat="47.50314" lon="6.64929">
        <ele>407</ele>
        <time>2016-06-12T08:22:49.000Z</time>
      </trkpt>
      <trkpt lat="47.50317" lon="6.64924">
        <ele>407</ele>
        <time>2016-06-12T08:22:50.000Z</time>
      </trkpt>
      <trkpt lat="47.50321" lon="6.6492">
        <ele>407</ele>
        <time>2016-06-12T08:22:51.000Z</time>
      </trkpt>
      <trkpt lat="47.50324" lon="6.64916">
        <ele>406</ele>
        <time>2016-06-12T08:22:52.000Z</time>
      </trkpt>
      <trkpt lat="47.50327" lon="6.64912">
        <ele>406</ele>
        <time>2016-06-12T08:22:53.000Z</time>
      </trkpt>
      <trkpt lat="47.5033" lon="6.64908">
        <ele>406</ele>
        <time>2016-06-12T08:22:54.000Z</time>
      </trkpt>
      <trkpt lat="47.50333" lon="6.64904">
        <ele>406</ele>
        <time>2016-06-12T08:22:55.000Z</time>
      </trkpt>
      <trkpt lat="47.50337" lon="6.649">
        <ele>406</ele>
        <time>2016-06-12T08:22:56.000Z</time>
      </trkpt>
      <trkpt lat="47.5034" lon="6.64896">
        <ele>406</ele>
        <time>2016-06-12T08:22:57.000Z</time>
      </trkpt>
      <trkpt lat="47.50343" lon="6.64893">
        <ele>406</ele>
        <time>2016-06-12T08:22:58.000Z</time>
      </trkpt>
      <trkpt lat="47.50345" lon="6.64889">
        <ele>406</ele>
        <time>2016-06-12T08:22:59.000Z</time>
      </trkpt>
      <trkpt lat="47.50348" lon="6.64885">
        <ele>406</ele>
        <time>2016-06-12T08:23:00.000Z</time>
      </trkpt>
      <trkpt lat="47.50351" lon="6.64881">
        <ele>406</ele>
        <time>2016-06-12T08:23:01.000Z</time>
      </trkpt>
      <trkpt lat="47.50354" lon="6.64878">
        <ele>406</ele>
        <time>2016-06-12T08:23:02.000Z</time>
      </trkpt>
      <trkpt lat="47.50358" lon="6.64874">
        <ele>406</ele>
        <time>2016-06-12T08:23:03.000Z</time>
      </trkpt>
      <trkpt lat="47.50361" lon="6.6487">
        <ele>406</ele>
        <time>2016-06-12T08:23:04.000Z</time>
      </trkpt>
      <trkpt lat="47.50364" lon="6.64867">
        <ele>406</ele>
        <time>2016-06-12T08:23:05.000Z</time>
      </trkpt>
      <trkpt lat="47.50368" lon="6.64863">
        <ele>406</ele>
        <time>2016-06-12T08:23:06.000Z</time>
      </trkpt>
      <trkpt lat="47.50371" lon="6.6486">
        <ele>406</ele>
        <time>2016-06-12T08:23:07.000Z</time>
      </trkpt>
      <trkpt lat="47.50374" lon="6.64857">
        <ele>406</ele>
        <time>2016-06-12T08:23:08.000Z</time>
      </trkpt>
      <trkpt lat="47.50378" lon="6.64855">
        <ele>406</ele>
        <time>2016-06-12T08:23:09.000Z</time>
      </trkpt>
      <trkpt lat="47.50381" lon="6.64852">
        <ele>406</ele>
        <time>2016-06-12T08:23:10.000Z</time>
      </trkpt>
      <trkpt lat="47.50384" lon="6.6485">
        <ele>406</ele>
        <time>2016-06-12T08:23:11.000Z</time>
      </trkpt>
      <trkpt lat="47.50386" lon="6.64848">
        <ele>406</ele>
        <time>2016-06-12T08:23:12.000Z</time>
      </trkpt>
      <trkpt lat="47.50389" lon="6.64846">
        <ele>406</ele>
        <time>2016-06-12T08:23:13.000Z</time>
      </trkpt>
      <trkpt lat="47.50391" lon="6.64845">
        <ele>406</ele>
        <time>2016-06-12T08:23:14.000Z</time>
      </trkpt>
      <trkpt lat="47.50393" lon="6.64844">
        <ele>406</ele>
        <time>2016-06-12T08:23:15.000Z</time>
      </trkpt>
      <trkpt lat="47.50395" lon="6.64842">
        <ele>406</ele>
        <time>2016-06-12T08:23:16.000Z</time>
      </trkpt>
      <trkpt lat="47.50398" lon="6.64841">
        <ele>406</ele>
        <time>2016-06-12T08:23:17.000Z</time>
      </trkpt>
      <trkpt lat="47.50401" lon="6.64839">
        <ele>406</ele>
        <time>2016-06-12T08:23:18.000Z</time>
      </trkpt>
      <trkpt lat="47.50404" lon="6.64837">
        <ele>406</ele>
        <time>2016-06-12T08:23:19.000Z</time>
      </trkpt>
      <trkpt lat="47.50407" lon="6.64834">
        <ele>406</ele>
        <time>2016-06-12T08:23:20.000Z</time>
      </trkpt>
      <trkpt lat="47.5041" lon="6.64832">
        <ele>406</ele>
        <time>2016-06-12T08:23:21.000Z</time>
      </trkpt>
      <trkpt lat="47.50413" lon="6.64829">
        <ele>406</ele>
        <time>2016-06-12T08:23:22.000Z</time>
      </trkpt>
      <trkpt lat="47.50416" lon="6.64825">
        <ele>406</ele>
        <time>2016-06-12T08:23:23.000Z</time>
      </trkpt>
      <trkpt lat="47.5042" lon="6.64822">
        <ele>405</ele>
        <time>2016-06-12T08:23:24.000Z</time>
      </trkpt>
      <trkpt lat="47.50423" lon="6.64818">
        <ele>405</ele>
        <time>2016-06-12T08:23:25.000Z</time>
      </trkpt>
      <trkpt lat="47.50427" lon="6.64814">
        <ele>405</ele>
        <time>2016-06-12T08:23:26.000Z</time>
      </trkpt>
      <trkpt lat="47.50431" lon="6.64811">
        <ele>405</ele>
        <time>2016-06-12T08:23:27.000Z</time>
      </trkpt>
      <trkpt lat="47.50435" lon="6.64807">
        <ele>405</ele>
        <time>2016-06-12T08:23:28.000Z</time>
      </trkpt>
      <trkpt lat="47.50438" lon="6.64803">
        <ele>405</ele>
        <time>2016-06-12T08:23:29.000Z</time>
      </trkpt>
      <trkpt lat="47.50441" lon="6.64799">
        <ele>405</ele>
        <time>2016-06-12T08:23:30.000Z</time>
      </trkpt>
      <trkpt lat="47.50445" lon="6.64796">
        <ele>404</ele>
        <time>2016-06-12T08:23:31.000Z</time>
      </trkpt>
      <trkpt lat="47.50447" lon="6.64793">
        <ele>404</ele>
        <time>2016-06-12T08:23:32.000Z</time>
      </trkpt>
      <trkpt lat="47.5045" lon="6.64789">
        <ele>404</ele>
        <time>2016-06-12T08:23:33.000Z</time>
      </trkpt>
      <trkpt lat="47.50452" lon="6.64786">
        <ele>404</ele>
        <time>2016-06-12T08:23:34.000Z</time>
      </trkpt>
      <trkpt lat="47.50455" lon="6.64783">
        <ele>404</ele>
        <time>2016-06-12T08:23:34.998Z</time>
      </trkpt>
      <trkpt lat="47.50457" lon="6.64779">
        <ele>404</ele>
        <time>2016-06-12T08:23:36.000Z</time>
      </trkpt>
      <trkpt lat="47.5046" lon="6.64776">
        <ele>404</ele>
        <time>2016-06-12T08:23:36.999Z</time>
      </trkpt>
      <trkpt lat="47.50462" lon="6.64774">
        <ele>404</ele>
        <time>2016-06-12T08:23:38.000Z</time>
      </trkpt>
      <trkpt lat="47.50464" lon="6.64774">
        <ele>404</ele>
        <time>2016-06-12T08:23:39.000Z</time>
      </trkpt>
      <trkpt lat="47.50468" lon="6.64776">
        <ele>404</ele>
        <time>2016-06-12T08:23:41.000Z</time>
      </trkpt>
      <trkpt lat="47.50469" lon="6.64777">
        <ele>404</ele>
        <time>2016-06-12T08:23:42.000Z</time>
      </trkpt>
      <trkpt lat="47.50471" lon="6.64783">
        <ele>404</ele>
        <time>2016-06-12T08:23:45.000Z</time>
      </trkpt>
      <trkpt lat="47.50472" lon="6.64784">
        <ele>404</ele>
        <time>2016-06-12T08:23:46.000Z</time>
      </trkpt>
      <trkpt lat="47.50474" lon="6.64789">
        <ele>404</ele>
        <time>2016-06-12T08:23:49.000Z</time>
      </trkpt>
      <trkpt lat="47.50475" lon="6.64791">
        <ele>404</ele>
        <time>2016-06-12T08:23:50.000Z</time>
      </trkpt>
      <trkpt lat="47.50477" lon="6.64796">
        <ele>404</ele>
        <time>2016-06-12T08:23:52.000Z</time>
      </trkpt>
      <trkpt lat="47.50478" lon="6.64798">
        <ele>404</ele>
        <time>2016-06-12T08:23:53.000Z</time>
      </trkpt>
      <trkpt lat="47.5048" lon="6.64804">
        <ele>404</ele>
        <time>2016-06-12T08:23:55.000Z</time>
      </trkpt>
      <trkpt lat="47.5048" lon="6.64807">
        <ele>404</ele>
        <time>2016-06-12T08:23:56.000Z</time>
      </trkpt>
      <trkpt lat="47.50482" lon="6.64814">
        <ele>404</ele>
        <time>2016-06-12T08:23:58.000Z</time>
      </trkpt>
      <trkpt lat="47.50482" lon="6.64817">
        <ele>404</ele>
        <time>2016-06-12T08:23:59.000Z</time>
      </trkpt>
      <trkpt lat="47.50483" lon="6.64821">
        <ele>404</ele>
        <time>2016-06-12T08:24:00.000Z</time>
      </trkpt>
      <trkpt lat="47.50483" lon="6.64824">
        <ele>404</ele>
        <time>2016-06-12T08:24:01.000Z</time>
      </trkpt>
      <trkpt lat="47.50484" lon="6.64828">
        <ele>404</ele>
        <time>2016-06-12T08:24:02.000Z</time>
      </trkpt>
      <trkpt lat="47.50484" lon="6.64832">
        <ele>404</ele>
        <time>2016-06-12T08:24:03.000Z</time>
      </trkpt>
      <trkpt lat="47.50484" lon="6.64836">
        <ele>404</ele>
        <time>2016-06-12T08:24:04.000Z</time>
      </trkpt>
      <trkpt lat="47.50484" lon="6.64842">
        <ele>404</ele>
        <time>2016-06-12T08:24:05.000Z</time>
      </trkpt>
      <trkpt lat="47.50485" lon="6.64847">
        <ele>404</ele>
        <time>2016-06-12T08:24:06.000Z</time>
      </trkpt>
      <trkpt lat="47.50485" lon="6.64852">
        <ele>404</ele>
        <time>2016-06-12T08:24:07.000Z</time>
      </trkpt>
      <trkpt lat="47.50487" lon="6.64857">
        <ele>404</ele>
        <time>2016-06-12T08:24:08.000Z</time>
      </trkpt>
      <trkpt lat="47.50489" lon="6.64862">
        <ele>404</ele>
        <time>2016-06-12T08:24:09.000Z</time>
      </trkpt>
      <trkpt lat="47.50491" lon="6.64867">
        <ele>404</ele>
        <time>2016-06-12T08:24:10.000Z</time>
      </trkpt>
      <trkpt lat="47.50495" lon="6.64871">
        <ele>404</ele>
        <time>2016-06-12T08:24:11.000Z</time>
      </trkpt>
      <trkpt lat="47.50498" lon="6.64874">
        <ele>404</ele>
        <time>2016-06-12T08:24:12.000Z</time>
      </trkpt>
      <trkpt lat="47.50501" lon="6.64877">
        <ele>402</ele>
        <time>2016-06-12T08:24:13.000Z</time>
      </trkpt>
      <trkpt lat="47.50512" lon="6.64888">
        <ele>402</ele>
        <time>2016-06-12T08:24:14.000Z</time>
      </trkpt>
      <trkpt lat="47.50517" lon="6.64892">
        <ele>402</ele>
        <time>2016-06-12T08:24:15.000Z</time>
      </trkpt>
      <trkpt lat="47.5052" lon="6.64895">
        <ele>402</ele>
        <time>2016-06-12T08:24:16.000Z</time>
      </trkpt>
      <trkpt lat="47.50523" lon="6.64898">
        <ele>402</ele>
        <time>2016-06-12T08:24:17.000Z</time>
      </trkpt>
      <trkpt lat="47.50528" lon="6.64902">
        <ele>401</ele>
        <time>2016-06-12T08:24:18.000Z</time>
      </trkpt>
      <trkpt lat="47.50531" lon="6.64903">
        <ele>401</ele>
        <time>2016-06-12T08:24:19.000Z</time>
      </trkpt>
      <trkpt lat="47.50537" lon="6.64908">
        <ele>401</ele>
        <time>2016-06-12T08:24:20.000Z</time>
      </trkpt>
      <trkpt lat="47.5054" lon="6.64911">
        <ele>401</ele>
        <time>2016-06-12T08:24:21.000Z</time>
      </trkpt>
      <trkpt lat="47.50541" lon="6.6492">
        <ele>401</ele>
        <time>2016-06-12T08:24:22.000Z</time>
      </trkpt>
      <trkpt lat="47.50544" lon="6.64925">
        <ele>401</ele>
        <time>2016-06-12T08:24:23.000Z</time>
      </trkpt>
      <trkpt lat="47.50547" lon="6.6493">
        <ele>401</ele>
        <time>2016-06-12T08:24:24.000Z</time>
      </trkpt>
      <trkpt lat="47.50551" lon="6.64933">
        <ele>401</ele>
        <time>2016-06-12T08:24:25.000Z</time>
      </trkpt>
      <trkpt lat="47.50554" lon="6.64937">
        <ele>401</ele>
        <time>2016-06-12T08:24:26.000Z</time>
      </trkpt>
      <trkpt lat="47.50558" lon="6.64943">
        <ele>401</ele>
        <time>2016-06-12T08:24:27.000Z</time>
      </trkpt>
      <trkpt lat="47.50562" lon="6.6495">
        <ele>401</ele>
        <time>2016-06-12T08:24:28.000Z</time>
      </trkpt>
      <trkpt lat="47.50564" lon="6.64955">
        <ele>401</ele>
        <time>2016-06-12T08:24:29.000Z</time>
      </trkpt>
      <trkpt lat="47.50569" lon="6.64967">
        <ele>400</ele>
        <time>2016-06-12T08:24:30.000Z</time>
      </trkpt>
      <trkpt lat="47.50572" lon="6.64975">
        <ele>400</ele>
        <time>2016-06-12T08:24:31.000Z</time>
      </trkpt>
      <trkpt lat="47.50576" lon="6.64981">
        <ele>400</ele>
        <time>2016-06-12T08:24:32.000Z</time>
      </trkpt>
      <trkpt lat="47.50579" lon="6.64986">
        <ele>400</ele>
        <time>2016-06-12T08:24:33.000Z</time>
      </trkpt>
      <trkpt lat="47.50584" lon="6.64989">
        <ele>397</ele>
        <time>2016-06-12T08:24:34.000Z</time>
      </trkpt>
      <trkpt lat="47.50588" lon="6.64991">
        <ele>397</ele>
        <time>2016-06-12T08:24:35.000Z</time>
      </trkpt>
      <trkpt lat="47.50591" lon="6.64992">
        <ele>397</ele>
        <time>2016-06-12T08:24:36.000Z</time>
      </trkpt>
      <trkpt lat="47.50598" lon="6.64992">
        <ele>397</ele>
        <time>2016-06-12T08:24:37.000Z</time>
      </trkpt>
      <trkpt lat="47.50605" lon="6.6499">
        <ele>396</ele>
        <time>2016-06-12T08:24:38.000Z</time>
      </trkpt>
      <trkpt lat="47.50611" lon="6.6499">
        <ele>395</ele>
        <time>2016-06-12T08:24:39.000Z</time>
      </trkpt>
      <trkpt lat="47.50617" lon="6.64991">
        <ele>395</ele>
        <time>2016-06-12T08:24:40.000Z</time>
      </trkpt>
      <trkpt lat="47.50625" lon="6.64997">
        <ele>394</ele>
        <time>2016-06-12T08:24:41.000Z</time>
      </trkpt>
      <trkpt lat="47.50632" lon="6.65">
        <ele>393</ele>
        <time>2016-06-12T08:24:42.000Z</time>
      </trkpt>
      <trkpt lat="47.50638" lon="6.65004">
        <ele>390</ele>
        <time>2016-06-12T08:24:43.000Z</time>
      </trkpt>
      <trkpt lat="47.50644" lon="6.65008">
        <ele>390</ele>
        <time>2016-06-12T08:24:44.000Z</time>
      </trkpt>
      <trkpt lat="47.5065" lon="6.6502">
        <ele>389</ele>
        <time>2016-06-12T08:24:45.000Z</time>
      </trkpt>
      <trkpt lat="47.50653" lon="6.65027">
        <ele>389</ele>
        <time>2016-06-12T08:24:46.000Z</time>
      </trkpt>
      <trkpt lat="47.50656" lon="6.65033">
        <ele>389</ele>
        <time>2016-06-12T08:24:47.000Z</time>
      </trkpt>
      <trkpt lat="47.5066" lon="6.6504">
        <ele>388</ele>
        <time>2016-06-12T08:24:48.000Z</time>
      </trkpt>
      <trkpt lat="47.50663" lon="6.65046">
        <ele>387</ele>
        <time>2016-06-12T08:24:49.000Z</time>
      </trkpt>
      <trkpt lat="47.50666" lon="6.65052">
        <ele>387</ele>
        <time>2016-06-12T08:24:50.000Z</time>
      </trkpt>
      <trkpt lat="47.5067" lon="6.65058">
        <ele>381</ele>
        <time>2016-06-12T08:24:51.000Z</time>
      </trkpt>
      <trkpt lat="47.50672" lon="6.65063">
        <ele>380</ele>
        <time>2016-06-12T08:24:52.000Z</time>
      </trkpt>
      <trkpt lat="47.50675" lon="6.65069">
        <ele>380</ele>
        <time>2016-06-12T08:24:53.000Z</time>
      </trkpt>
      <trkpt lat="47.50678" lon="6.65073">
        <ele>380</ele>
        <time>2016-06-12T08:24:54.000Z</time>
      </trkpt>
      <trkpt lat="47.5068" lon="6.65075">
        <ele>380</ele>
        <time>2016-06-12T08:24:55.000Z</time>
      </trkpt>
      <trkpt lat="47.50683" lon="6.65077">
        <ele>380</ele>
        <time>2016-06-12T08:24:56.000Z</time>
      </trkpt>
      <trkpt lat="47.50686" lon="6.6508">
        <ele>380</ele>
        <time>2016-06-12T08:24:57.000Z</time>
      </trkpt>
      <trkpt lat="47.50689" lon="6.65082">
        <ele>380</ele>
        <time>2016-06-12T08:24:58.000Z</time>
      </trkpt>
      <trkpt lat="47.50692" lon="6.65084">
        <ele>375</ele>
        <time>2016-06-12T08:24:59.000Z</time>
      </trkpt>
      <trkpt lat="47.50696" lon="6.65085">
        <ele>375</ele>
        <time>2016-06-12T08:25:00.000Z</time>
      </trkpt>
      <trkpt lat="47.507" lon="6.65088">
        <ele>374</ele>
        <time>2016-06-12T08:25:01.000Z</time>
      </trkpt>
      <trkpt lat="47.50704" lon="6.65091">
        <ele>374</ele>
        <time>2016-06-12T08:25:02.000Z</time>
      </trkpt>
      <trkpt lat="47.50708" lon="6.65095">
        <ele>374</ele>
        <time>2016-06-12T08:25:03.000Z</time>
      </trkpt>
      <trkpt lat="47.50712" lon="6.65099">
        <ele>373</ele>
        <time>2016-06-12T08:25:04.000Z</time>
      </trkpt>
      <trkpt lat="47.50717" lon="6.65104">
        <ele>373</ele>
        <time>2016-06-12T08:25:05.000Z</time>
      </trkpt>
      <trkpt lat="47.50721" lon="6.65109">
        <ele>373</ele>
        <time>2016-06-12T08:25:06.000Z</time>
      </trkpt>
      <trkpt lat="47.50725" lon="6.65115">
        <ele>373</ele>
        <time>2016-06-12T08:25:07.000Z</time>
      </trkpt>
      <trkpt lat="47.50728" lon="6.65121">
        <ele>372</ele>
        <time>2016-06-12T08:25:08.000Z</time>
      </trkpt>
      <trkpt lat="47.50732" lon="6.65127">
        <ele>372</ele>
        <time>2016-06-12T08:25:09.000Z</time>
      </trkpt>
      <trkpt lat="47.50736" lon="6.65133">
        <ele>372</ele>
        <time>2016-06-12T08:25:10.000Z</time>
      </trkpt>
      <trkpt lat="47.50739" lon="6.65138">
        <ele>371</ele>
        <time>2016-06-12T08:25:11.000Z</time>
      </trkpt>
      <trkpt lat="47.50743" lon="6.65143">
        <ele>371</ele>
        <time>2016-06-12T08:25:12.000Z</time>
      </trkpt>
      <trkpt lat="47.50747" lon="6.65148">
        <ele>370</ele>
        <time>2016-06-12T08:25:13.000Z</time>
      </trkpt>
      <trkpt lat="47.5075" lon="6.65153">
        <ele>368</ele>
        <time>2016-06-12T08:25:14.000Z</time>
      </trkpt>
      <trkpt lat="47.50754" lon="6.65157">
        <ele>368</ele>
        <time>2016-06-12T08:25:15.000Z</time>
      </trkpt>
      <trkpt lat="47.50757" lon="6.65161">
        <ele>368</ele>
        <time>2016-06-12T08:25:16.000Z</time>
      </trkpt>
      <trkpt lat="47.50761" lon="6.65165">
        <ele>368</ele>
        <time>2016-06-12T08:25:17.000Z</time>
      </trkpt>
      <trkpt lat="47.50764" lon="6.65168">
        <ele>367</ele>
        <time>2016-06-12T08:25:18.000Z</time>
      </trkpt>
      <trkpt lat="47.50768" lon="6.65172">
        <ele>367</ele>
        <time>2016-06-12T08:25:19.000Z</time>
      </trkpt>
      <trkpt lat="47.50771" lon="6.65175">
        <ele>367</ele>
        <time>2016-06-12T08:25:20.000Z</time>
      </trkpt>
      <trkpt lat="47.50775" lon="6.65178">
        <ele>367</ele>
        <time>2016-06-12T08:25:21.000Z</time>
      </trkpt>
      <trkpt lat="47.50778" lon="6.65181">
        <ele>367</ele>
        <time>2016-06-12T08:25:22.000Z</time>
      </trkpt>
      <trkpt lat="47.50781" lon="6.65183">
        <ele>367</ele>
        <time>2016-06-12T08:25:23.000Z</time>
      </trkpt>
      <trkpt lat="47.50785" lon="6.65185">
        <ele>367</ele>
        <time>2016-06-12T08:25:24.000Z</time>
      </trkpt>
      <trkpt lat="47.50788" lon="6.65185">
        <ele>367</ele>
        <time>2016-06-12T08:25:25.000Z</time>
      </trkpt>
      <trkpt lat="47.50791" lon="6.65185">
        <ele>367</ele>
        <time>2016-06-12T08:25:26.000Z</time>
      </trkpt>
      <trkpt lat="47.50795" lon="6.65183">
        <ele>367</ele>
        <time>2016-06-12T08:25:28.000Z</time>
      </trkpt>
      <trkpt lat="47.50796" lon="6.65183">
        <ele>367</ele>
        <time>2016-06-12T08:25:29.000Z</time>
      </trkpt>
      <trkpt lat="47.50799" lon="6.65188">
        <ele>367</ele>
        <time>2016-06-12T08:25:39.000Z</time>
      </trkpt>
      <trkpt lat="47.50799" lon="6.65189">
        <ele>367</ele>
        <time>2016-06-12T08:25:40.000Z</time>
      </trkpt>
      <trkpt lat="47.50803" lon="6.65189">
        <ele>367</ele>
        <time>2016-06-12T08:25:55.000Z</time>
      </trkpt>
      <trkpt lat="47.50804" lon="6.65188">
        <ele>367</ele>
        <time>2016-06-12T08:25:56.000Z</time>
      </trkpt>
      <trkpt lat="47.50808" lon="6.65188">
        <ele>367</ele>
        <time>2016-06-12T08:26:01.000Z</time>
      </trkpt>
      <trkpt lat="47.50808" lon="6.65188">
        <ele>367</ele>
        <time>2016-06-12T08:26:02.000Z</time>
      </trkpt>
      <trkpt lat="47.5081" lon="6.65194">
        <ele>367</ele>
        <time>2016-06-12T08:27:37.000Z</time>
      </trkpt>
      <trkpt lat="47.50811" lon="6.65193">
        <ele>367</ele>
        <time>2016-06-12T08:27:38.000Z</time>
      </trkpt>
      <trkpt lat="47.50815" lon="6.65192">
        <ele>367</ele>
        <time>2016-06-12T08:27:41.000Z</time>
      </trkpt>
      <trkpt lat="47.50817" lon="6.65191">
        <ele>367</ele>
        <time>2016-06-12T08:27:42.000Z</time>
      </trkpt>
      <trkpt lat="47.5082" lon="6.65189">
        <ele>367</ele>
        <time>2016-06-12T08:27:43.000Z</time>
      </trkpt>
      <trkpt lat="47.50823" lon="6.65188">
        <ele>367</ele>
        <time>2016-06-12T08:27:44.000Z</time>
      </trkpt>
      <trkpt lat="47.50826" lon="6.65187">
        <ele>367</ele>
        <time>2016-06-12T08:27:45.000Z</time>
      </trkpt>
      <trkpt lat="47.50829" lon="6.65185">
        <ele>367</ele>
        <time>2016-06-12T08:27:46.000Z</time>
      </trkpt>
      <trkpt lat="47.50832" lon="6.65184">
        <ele>367</ele>
        <time>2016-06-12T08:27:47.000Z</time>
      </trkpt>
      <trkpt lat="47.50835" lon="6.65182">
        <ele>368</ele>
        <time>2016-06-12T08:27:48.000Z</time>
      </trkpt>
      <trkpt lat="47.50839" lon="6.6518">
        <ele>368</ele>
        <time>2016-06-12T08:27:49.000Z</time>
      </trkpt>
      <trkpt lat="47.50842" lon="6.65178">
        <ele>368</ele>
        <time>2016-06-12T08:27:50.000Z</time>
      </trkpt>
      <trkpt lat="47.50845" lon="6.65176">
        <ele>368</ele>
        <time>2016-06-12T08:27:51.000Z</time>
      </trkpt>
      <trkpt lat="47.50849" lon="6.65174">
        <ele>369</ele>
        <time>2016-06-12T08:27:52.000Z</time>
      </trkpt>
      <trkpt lat="47.50853" lon="6.65171">
        <ele>369</ele>
        <time>2016-06-12T08:27:53.000Z</time>
      </trkpt>
      <trkpt lat="47.50857" lon="6.65169">
        <ele>369</ele>
        <time>2016-06-12T08:27:54.000Z</time>
      </trkpt>
      <trkpt lat="47.5086" lon="6.65167">
        <ele>369</ele>
        <time>2016-06-12T08:27:55.000Z</time>
      </trkpt>
      <trkpt lat="47.50864" lon="6.65165">
        <ele>368</ele>
        <time>2016-06-12T08:27:56.000Z</time>
      </trkpt>
      <trkpt lat="47.50867" lon="6.65162">
        <ele>368</ele>
        <time>2016-06-12T08:27:57.000Z</time>
      </trkpt>
      <trkpt lat="47.50869" lon="6.65159">
        <ele>368</ele>
        <time>2016-06-12T08:27:58.000Z</time>
      </trkpt>
      <trkpt lat="47.50872" lon="6.65155">
        <ele>368</ele>
        <time>2016-06-12T08:27:59.000Z</time>
      </trkpt>
      <trkpt lat="47.50874" lon="6.65152">
        <ele>368</ele>
        <time>2016-06-12T08:28:00.000Z</time>
      </trkpt>
      <trkpt lat="47.50876" lon="6.65148">
        <ele>368</ele>
        <time>2016-06-12T08:28:01.000Z</time>
      </trkpt>
      <trkpt lat="47.50879" lon="6.65145">
        <ele>368</ele>
        <time>2016-06-12T08:28:02.000Z</time>
      </trkpt>
      <trkpt lat="47.50881" lon="6.65142">
        <ele>368</ele>
        <time>2016-06-12T08:28:03.000Z</time>
      </trkpt>
      <trkpt lat="47.50883" lon="6.65139">
        <ele>368</ele>
        <time>2016-06-12T08:28:04.000Z</time>
      </trkpt>
      <trkpt lat="47.50885" lon="6.65136">
        <ele>368</ele>
        <time>2016-06-12T08:28:05.000Z</time>
      </trkpt>
      <trkpt lat="47.50888" lon="6.65133">
        <ele>368</ele>
        <time>2016-06-12T08:28:06.000Z</time>
      </trkpt>
      <trkpt lat="47.50891" lon="6.65131">
        <ele>368</ele>
        <time>2016-06-12T08:28:07.000Z</time>
      </trkpt>
      <trkpt lat="47.50894" lon="6.65128">
        <ele>368</ele>
        <time>2016-06-12T08:28:08.000Z</time>
      </trkpt>
      <trkpt lat="47.50897" lon="6.65126">
        <ele>368</ele>
        <time>2016-06-12T08:28:09.000Z</time>
      </trkpt>
      <trkpt lat="47.50901" lon="6.65123">
        <ele>368</ele>
        <time>2016-06-12T08:28:10.000Z</time>
      </trkpt>
      <trkpt lat="47.50904" lon="6.65121">
        <ele>368</ele>
        <time>2016-06-12T08:28:11.000Z</time>
      </trkpt>
      <trkpt lat="47.50906" lon="6.65119">
        <ele>368</ele>
        <time>2016-06-12T08:28:12.000Z</time>
      </trkpt>
      <trkpt lat="47.5091" lon="6.65116">
        <ele>368</ele>
        <time>2016-06-12T08:28:14.000Z</time>
      </trkpt>
      <trkpt lat="47.50911" lon="6.65114">
        <ele>368</ele>
        <time>2016-06-12T08:28:15.000Z</time>
      </trkpt>
      <trkpt lat="47.50914" lon="6.65111">
        <ele>368</ele>
        <time>2016-06-12T08:28:17.000Z</time>
      </trkpt>
      <trkpt lat="47.50915" lon="6.65109">
        <ele>368</ele>
        <time>2016-06-12T08:28:18.000Z</time>
      </trkpt>
      <trkpt lat="47.50918" lon="6.65107">
        <ele>369</ele>
        <time>2016-06-12T08:28:20.000Z</time>
      </trkpt>
      <trkpt lat="47.5092" lon="6.65105">
        <ele>369</ele>
        <time>2016-06-12T08:28:21.000Z</time>
      </trkpt>
      <trkpt lat="47.50923" lon="6.65103">
        <ele>369</ele>
        <time>2016-06-12T08:28:22.000Z</time>
      </trkpt>
      <trkpt lat="47.50926" lon="6.65101">
        <ele>369</ele>
        <time>2016-06-12T08:28:23.000Z</time>
      </trkpt>
      <trkpt lat="47.50928" lon="6.65099">
        <ele>369</ele>
        <time>2016-06-12T08:28:24.000Z</time>
      </trkpt>
      <trkpt lat="47.50931" lon="6.65097">
        <ele>369</ele>
        <time>2016-06-12T08:28:25.000Z</time>
      </trkpt>
      <trkpt lat="47.50935" lon="6.65095">
        <ele>369</ele>
        <time>2016-06-12T08:28:26.000Z</time>
      </trkpt>
      <trkpt lat="47.50938" lon="6.65093">
        <ele>369</ele>
        <time>2016-06-12T08:28:27.000Z</time>
      </trkpt>
      <trkpt lat="47.50942" lon="6.65091">
        <ele>369</ele>
        <time>2016-06-12T08:28:28.000Z</time>
      </trkpt>
      <trkpt lat="47.50946" lon="6.6509">
        <ele>369</ele>
        <time>2016-06-12T08:28:29.000Z</time>
      </trkpt>
      <trkpt lat="47.5095" lon="6.65088">
        <ele>370</ele>
        <time>2016-06-12T08:28:30.000Z</time>
      </trkpt>
      <trkpt lat="47.50954" lon="6.65086">
        <ele>370</ele>
        <time>2016-06-12T08:28:31.000Z</time>
      </trkpt>
      <trkpt lat="47.50958" lon="6.65084">
        <ele>370</ele>
        <time>2016-06-12T08:28:32.000Z</time>
      </trkpt>
      <trkpt lat="47.50962" lon="6.65081">
        <ele>369</ele>
        <time>2016-06-12T08:28:33.000Z</time>
      </trkpt>
      <trkpt lat="47.50965" lon="6.65079">
        <ele>369</ele>
        <time>2016-06-12T08:28:34.000Z</time>
      </trkpt>
      <trkpt lat="47.50968" lon="6.65076">
        <ele>369</ele>
        <time>2016-06-12T08:28:35.000Z</time>
      </trkpt>
      <trkpt lat="47.5097" lon="6.65074">
        <ele>369</ele>
        <time>2016-06-12T08:28:36.000Z</time>
      </trkpt>
      <trkpt lat="47.50973" lon="6.65071">
        <ele>369</ele>
        <time>2016-06-12T08:28:37.000Z</time>
      </trkpt>
      <trkpt lat="47.50975" lon="6.65069">
        <ele>369</ele>
        <time>2016-06-12T08:28:38.000Z</time>
      </trkpt>
      <trkpt lat="47.50977" lon="6.65067">
        <ele>369</ele>
        <time>2016-06-12T08:28:39.000Z</time>
      </trkpt>
      <trkpt lat="47.5098" lon="6.65064">
        <ele>369</ele>
        <time>2016-06-12T08:28:40.000Z</time>
      </trkpt>
      <trkpt lat="47.50982" lon="6.65061">
        <ele>369</ele>
        <time>2016-06-12T08:28:41.000Z</time>
      </trkpt>
      <trkpt lat="47.50985" lon="6.65058">
        <ele>369</ele>
        <time>2016-06-12T08:28:42.000Z</time>
      </trkpt>
      <trkpt lat="47.50988" lon="6.65055">
        <ele>369</ele>
        <time>2016-06-12T08:28:43.000Z</time>
      </trkpt>
      <trkpt lat="47.5099" lon="6.65052">
        <ele>369</ele>
        <time>2016-06-12T08:28:44.000Z</time>
      </trkpt>
      <trkpt lat="47.50993" lon="6.6505">
        <ele>369</ele>
        <time>2016-06-12T08:28:45.000Z</time>
      </trkpt>
      <trkpt lat="47.50997" lon="6.65048">
        <ele>369</ele>
        <time>2016-06-12T08:28:46.000Z</time>
      </trkpt>
      <trkpt lat="47.50999" lon="6.65047">
        <ele>369</ele>
        <time>2016-06-12T08:28:47.000Z</time>
      </trkpt>
      <trkpt lat="47.51002" lon="6.65045">
        <ele>368</ele>
        <time>2016-06-12T08:28:48.000Z</time>
      </trkpt>
      <trkpt lat="47.51004" lon="6.65044">
        <ele>368</ele>
        <time>2016-06-12T08:28:49.000Z</time>
      </trkpt>
      <trkpt lat="47.51006" lon="6.65043">
        <ele>368</ele>
        <time>2016-06-12T08:28:50.000Z</time>
      </trkpt>
      <trkpt lat="47.51009" lon="6.65042">
        <ele>368</ele>
        <time>2016-06-12T08:28:51.000Z</time>
      </trkpt>
      <trkpt lat="47.51012" lon="6.65041">
        <ele>368</ele>
        <time>2016-06-12T08:28:52.000Z</time>
      </trkpt>
      <trkpt lat="47.51016" lon="6.65039">
        <ele>368</ele>
        <time>2016-06-12T08:28:53.000Z</time>
      </trkpt>
      <trkpt lat="47.51019" lon="6.65038">
        <ele>368</ele>
        <time>2016-06-12T08:28:54.000Z</time>
      </trkpt>
      <trkpt lat="47.51022" lon="6.65037">
        <ele>368</ele>
        <time>2016-06-12T08:28:55.000Z</time>
      </trkpt>
      <trkpt lat="47.51025" lon="6.65035">
        <ele>368</ele>
        <time>2016-06-12T08:28:56.000Z</time>
      </trkpt>
      <trkpt lat="47.51028" lon="6.65034">
        <ele>368</ele>
        <time>2016-06-12T08:28:57.000Z</time>
      </trkpt>
      <trkpt lat="47.51031" lon="6.65033">
        <ele>368</ele>
        <time>2016-06-12T08:28:58.000Z</time>
      </trkpt>
      <trkpt lat="47.51034" lon="6.65032">
        <ele>368</ele>
        <time>2016-06-12T08:28:59.000Z</time>
      </trkpt>
      <trkpt lat="47.51037" lon="6.65031">
        <ele>368</ele>
        <time>2016-06-12T08:29:00.000Z</time>
      </trkpt>
      <trkpt lat="47.5104" lon="6.6503">
        <ele>368</ele>
        <time>2016-06-12T08:29:01.000Z</time>
      </trkpt>
      <trkpt lat="47.51044" lon="6.65029">
        <ele>368</ele>
        <time>2016-06-12T08:29:02.000Z</time>
      </trkpt>
      <trkpt lat="47.51048" lon="6.65027">
        <ele>368</ele>
        <time>2016-06-12T08:29:03.000Z</time>
      </trkpt>
      <trkpt lat="47.51051" lon="6.65024">
        <ele>368</ele>
        <time>2016-06-12T08:29:04.000Z</time>
      </trkpt>
      <trkpt lat="47.51055" lon="6.65021">
        <ele>367</ele>
        <time>2016-06-12T08:29:05.000Z</time>
      </trkpt>
      <trkpt lat="47.51059" lon="6.65017">
        <ele>367</ele>
        <time>2016-06-12T08:29:06.000Z</time>
      </trkpt>
      <trkpt lat="47.51064" lon="6.65013">
        <ele>367</ele>
        <time>2016-06-12T08:29:07.000Z</time>
      </trkpt>
      <trkpt lat="47.51068" lon="6.6501">
        <ele>366</ele>
        <time>2016-06-12T08:29:08.000Z</time>
      </trkpt>
      <trkpt lat="47.51072" lon="6.65006">
        <ele>366</ele>
        <time>2016-06-12T08:29:09.000Z</time>
      </trkpt>
      <trkpt lat="47.51077" lon="6.65003">
        <ele>365</ele>
        <time>2016-06-12T08:29:10.000Z</time>
      </trkpt>
      <trkpt lat="47.51081" lon="6.65">
        <ele>364</ele>
        <time>2016-06-12T08:29:11.000Z</time>
      </trkpt>
      <trkpt lat="47.51085" lon="6.64997">
        <ele>364</ele>
        <time>2016-06-12T08:29:12.000Z</time>
      </trkpt>
      <trkpt lat="47.51089" lon="6.64994">
        <ele>365</ele>
        <time>2016-06-12T08:29:13.000Z</time>
      </trkpt>
      <trkpt lat="47.51094" lon="6.64991">
        <ele>365</ele>
        <time>2016-06-12T08:29:14.000Z</time>
      </trkpt>
      <trkpt lat="47.51098" lon="6.64987">
        <ele>366</ele>
        <time>2016-06-12T08:29:15.000Z</time>
      </trkpt>
      <trkpt lat="47.51103" lon="6.64983">
        <ele>366</ele>
        <time>2016-06-12T08:29:16.000Z</time>
      </trkpt>
      <trkpt lat="47.51107" lon="6.64978">
        <ele>366</ele>
        <time>2016-06-12T08:29:17.000Z</time>
      </trkpt>
      <trkpt lat="47.51111" lon="6.64972">
        <ele>366</ele>
        <time>2016-06-12T08:29:18.000Z</time>
      </trkpt>
      <trkpt lat="47.51115" lon="6.64967">
        <ele>366</ele>
        <time>2016-06-12T08:29:19.000Z</time>
      </trkpt>
      <trkpt lat="47.51117" lon="6.64963">
        <ele>366</ele>
        <time>2016-06-12T08:29:20.000Z</time>
      </trkpt>
      <trkpt lat="47.5112" lon="6.64959">
        <ele>366</ele>
        <time>2016-06-12T08:29:21.000Z</time>
      </trkpt>
      <trkpt lat="47.51122" lon="6.64955">
        <ele>366</ele>
        <time>2016-06-12T08:29:22.000Z</time>
      </trkpt>
      <trkpt lat="47.51124" lon="6.64951">
        <ele>366</ele>
        <time>2016-06-12T08:29:23.000Z</time>
      </trkpt>
      <trkpt lat="47.51126" lon="6.64947">
        <ele>366</ele>
        <time>2016-06-12T08:29:24.000Z</time>
      </trkpt>
      <trkpt lat="47.51128" lon="6.64943">
        <ele>366</ele>
        <time>2016-06-12T08:29:25.000Z</time>
      </trkpt>
      <trkpt lat="47.51131" lon="6.6494">
        <ele>366</ele>
        <time>2016-06-12T08:29:26.000Z</time>
      </trkpt>
      <trkpt lat="47.51133" lon="6.64936">
        <ele>366</ele>
        <time>2016-06-12T08:29:27.000Z</time>
      </trkpt>
      <trkpt lat="47.51136" lon="6.64932">
        <ele>366</ele>
        <time>2016-06-12T08:29:28.000Z</time>
      </trkpt>
      <trkpt lat="47.51139" lon="6.64927">
        <ele>366</ele>
        <time>2016-06-12T08:29:29.000Z</time>
      </trkpt>
      <trkpt lat="47.51141" lon="6.64922">
        <ele>366</ele>
        <time>2016-06-12T08:29:30.000Z</time>
      </trkpt>
      <trkpt lat="47.51144" lon="6.64917">
        <ele>366</ele>
        <time>2016-06-12T08:29:31.000Z</time>
      </trkpt>
      <trkpt lat="47.51147" lon="6.64912">
        <ele>365</ele>
        <time>2016-06-12T08:29:32.000Z</time>
      </trkpt>
      <trkpt lat="47.51149" lon="6.64908">
        <ele>365</ele>
        <time>2016-06-12T08:29:33.000Z</time>
      </trkpt>
      <trkpt lat="47.51152" lon="6.64904">
        <ele>365</ele>
        <time>2016-06-12T08:29:34.000Z</time>
      </trkpt>
      <trkpt lat="47.51155" lon="6.649">
        <ele>365</ele>
        <time>2016-06-12T08:29:35.000Z</time>
      </trkpt>
      <trkpt lat="47.51157" lon="6.64896">
        <ele>365</ele>
        <time>2016-06-12T08:29:36.000Z</time>
      </trkpt>
      <trkpt lat="47.51159" lon="6.64886">
        <ele>365</ele>
        <time>2016-06-12T08:29:37.000Z</time>
      </trkpt>
      <trkpt lat="47.51161" lon="6.64881">
        <ele>365</ele>
        <time>2016-06-12T08:29:38.000Z</time>
      </trkpt>
      <trkpt lat="47.51164" lon="6.64878">
        <ele>365</ele>
        <time>2016-06-12T08:29:39.000Z</time>
      </trkpt>
      <trkpt lat="47.51167" lon="6.64875">
        <ele>364</ele>
        <time>2016-06-12T08:29:40.000Z</time>
      </trkpt>
      <trkpt lat="47.5117" lon="6.64872">
        <ele>364</ele>
        <time>2016-06-12T08:29:41.000Z</time>
      </trkpt>
      <trkpt lat="47.51174" lon="6.64871">
        <ele>364</ele>
        <time>2016-06-12T08:29:42.000Z</time>
      </trkpt>
      <trkpt lat="47.51177" lon="6.6487">
        <ele>364</ele>
        <time>2016-06-12T08:29:43.000Z</time>
      </trkpt>
      <trkpt lat="47.5118" lon="6.64871">
        <ele>364</ele>
        <time>2016-06-12T08:29:44.000Z</time>
      </trkpt>
      <trkpt lat="47.51184" lon="6.64871">
        <ele>365</ele>
        <time>2016-06-12T08:29:45.000Z</time>
      </trkpt>
      <trkpt lat="47.51188" lon="6.64876">
        <ele>365</ele>
        <time>2016-06-12T08:29:46.000Z</time>
      </trkpt>
      <trkpt lat="47.51191" lon="6.64878">
        <ele>365</ele>
        <time>2016-06-12T08:29:47.000Z</time>
      </trkpt>
      <trkpt lat="47.51195" lon="6.64879">
        <ele>365</ele>
        <time>2016-06-12T08:29:48.000Z</time>
      </trkpt>
      <trkpt lat="47.51198" lon="6.64881">
        <ele>365</ele>
        <time>2016-06-12T08:29:49.000Z</time>
      </trkpt>
      <trkpt lat="47.51202" lon="6.64882">
        <ele>365</ele>
        <time>2016-06-12T08:29:50.000Z</time>
      </trkpt>
      <trkpt lat="47.51206" lon="6.64883">
        <ele>365</ele>
        <time>2016-06-12T08:29:51.000Z</time>
      </trkpt>
      <trkpt lat="47.5121" lon="6.64883">
        <ele>365</ele>
        <time>2016-06-12T08:29:52.000Z</time>
      </trkpt>
      <trkpt lat="47.51213" lon="6.64882">
        <ele>365</ele>
        <time>2016-06-12T08:29:53.000Z</time>
      </trkpt>
      <trkpt lat="47.51217" lon="6.64882">
        <ele>366</ele>
        <time>2016-06-12T08:29:54.000Z</time>
      </trkpt>
      <trkpt lat="47.51221" lon="6.64881">
        <ele>366</ele>
        <time>2016-06-12T08:29:55.000Z</time>
      </trkpt>
      <trkpt lat="47.51225" lon="6.64879">
        <ele>366</ele>
        <time>2016-06-12T08:29:56.000Z</time>
      </trkpt>
      <trkpt lat="47.51228" lon="6.64877">
        <ele>366</ele>
        <time>2016-06-12T08:29:57.000Z</time>
      </trkpt>
      <trkpt lat="47.51232" lon="6.64875">
        <ele>365</ele>
        <time>2016-06-12T08:29:58.000Z</time>
      </trkpt>
      <trkpt lat="47.51235" lon="6.64873">
        <ele>365</ele>
        <time>2016-06-12T08:29:59.000Z</time>
      </trkpt>
      <trkpt lat="47.51239" lon="6.64871">
        <ele>365</ele>
        <time>2016-06-12T08:30:00.000Z</time>
      </trkpt>
      <trkpt lat="47.51242" lon="6.6487">
        <ele>365</ele>
        <time>2016-06-12T08:30:01.000Z</time>
      </trkpt>
      <trkpt lat="47.51246" lon="6.64868">
        <ele>365</ele>
        <time>2016-06-12T08:30:02.000Z</time>
      </trkpt>
      <trkpt lat="47.51249" lon="6.64867">
        <ele>365</ele>
        <time>2016-06-12T08:30:03.000Z</time>
      </trkpt>
      <trkpt lat="47.51252" lon="6.64867">
        <ele>364</ele>
        <time>2016-06-12T08:30:04.000Z</time>
      </trkpt>
      <trkpt lat="47.51254" lon="6.64866">
        <ele>364</ele>
        <time>2016-06-12T08:30:05.000Z</time>
      </trkpt>
      <trkpt lat="47.51257" lon="6.64865">
        <ele>364</ele>
        <time>2016-06-12T08:30:06.000Z</time>
      </trkpt>
      <trkpt lat="47.51259" lon="6.64865">
        <ele>364</ele>
        <time>2016-06-12T08:30:07.000Z</time>
      </trkpt>
      <trkpt lat="47.51261" lon="6.64864">
        <ele>364</ele>
        <time>2016-06-12T08:30:08.000Z</time>
      </trkpt>
      <trkpt lat="47.51266" lon="6.64863">
        <ele>364</ele>
        <time>2016-06-12T08:30:10.000Z</time>
      </trkpt>
      <trkpt lat="47.51268" lon="6.64864">
        <ele>364</ele>
        <time>2016-06-12T08:30:11.000Z</time>
      </trkpt>
      <trkpt lat="47.51271" lon="6.64865">
        <ele>364</ele>
        <time>2016-06-12T08:30:12.000Z</time>
      </trkpt>
      <trkpt lat="47.51274" lon="6.64867">
        <ele>364</ele>
        <time>2016-06-12T08:30:13.000Z</time>
      </trkpt>
      <trkpt lat="47.51277" lon="6.6487">
        <ele>364</ele>
        <time>2016-06-12T08:30:14.000Z</time>
      </trkpt>
      <trkpt lat="47.51279" lon="6.64873">
        <ele>365</ele>
        <time>2016-06-12T08:30:15.000Z</time>
      </trkpt>
      <trkpt lat="47.51282" lon="6.64877">
        <ele>365</ele>
        <time>2016-06-12T08:30:16.000Z</time>
      </trkpt>
      <trkpt lat="47.51284" lon="6.6488">
        <ele>365</ele>
        <time>2016-06-12T08:30:17.000Z</time>
      </trkpt>
      <trkpt lat="47.51286" lon="6.64884">
        <ele>365</ele>
        <time>2016-06-12T08:30:18.000Z</time>
      </trkpt>
      <trkpt lat="47.51288" lon="6.64888">
        <ele>365</ele>
        <time>2016-06-12T08:30:19.000Z</time>
      </trkpt>
      <trkpt lat="47.5129" lon="6.64892">
        <ele>366</ele>
        <time>2016-06-12T08:30:20.000Z</time>
      </trkpt>
      <trkpt lat="47.51292" lon="6.64895">
        <ele>366</ele>
        <time>2016-06-12T08:30:21.000Z</time>
      </trkpt>
      <trkpt lat="47.51293" lon="6.64899">
        <ele>366</ele>
        <time>2016-06-12T08:30:22.000Z</time>
      </trkpt>
      <trkpt lat="47.51295" lon="6.64903">
        <ele>366</ele>
        <time>2016-06-12T08:30:23.000Z</time>
      </trkpt>
      <trkpt lat="47.51298" lon="6.64907">
        <ele>366</ele>
        <time>2016-06-12T08:30:25.000Z</time>
      </trkpt>
      <trkpt lat="47.513" lon="6.64906">
        <ele>366</ele>
        <time>2016-06-12T08:30:26.000Z</time>
      </trkpt>
      <trkpt lat="47.51303" lon="6.64903">
        <ele>366</ele>
        <time>2016-06-12T08:30:28.000Z</time>
      </trkpt>
      <trkpt lat="47.51305" lon="6.64904">
        <ele>366</ele>
        <time>2016-06-12T08:30:29.000Z</time>
      </trkpt>
      <trkpt lat="47.51306" lon="6.64906">
        <ele>366</ele>
        <time>2016-06-12T08:30:30.000Z</time>
      </trkpt>
      <trkpt lat="47.51308" lon="6.64909">
        <ele>366</ele>
        <time>2016-06-12T08:30:31.000Z</time>
      </trkpt>
      <trkpt lat="47.5131" lon="6.64913">
        <ele>366</ele>
        <time>2016-06-12T08:30:32.000Z</time>
      </trkpt>
      <trkpt lat="47.51312" lon="6.64916">
        <ele>366</ele>
        <time>2016-06-12T08:30:33.000Z</time>
      </trkpt>
      <trkpt lat="47.51314" lon="6.6492">
        <ele>371</ele>
        <time>2016-06-12T08:30:34.000Z</time>
      </trkpt>
      <trkpt lat="47.51316" lon="6.64924">
        <ele>371</ele>
        <time>2016-06-12T08:30:35.000Z</time>
      </trkpt>
      <trkpt lat="47.51318" lon="6.64929">
        <ele>371</ele>
        <time>2016-06-12T08:30:36.000Z</time>
      </trkpt>
      <trkpt lat="47.51321" lon="6.64933">
        <ele>372</ele>
        <time>2016-06-12T08:30:37.000Z</time>
      </trkpt>
      <trkpt lat="47.51323" lon="6.64937">
        <ele>372</ele>
        <time>2016-06-12T08:30:38.000Z</time>
      </trkpt>
      <trkpt lat="47.51325" lon="6.64941">
        <ele>372</ele>
        <time>2016-06-12T08:30:39.000Z</time>
      </trkpt>
      <trkpt lat="47.51327" lon="6.64944">
        <ele>373</ele>
        <time>2016-06-12T08:30:40.000Z</time>
      </trkpt>
      <trkpt lat="47.5133" lon="6.64948">
        <ele>373</ele>
        <time>2016-06-12T08:30:41.000Z</time>
      </trkpt>
      <trkpt lat="47.51332" lon="6.64951">
        <ele>374</ele>
        <time>2016-06-12T08:30:42.000Z</time>
      </trkpt>
      <trkpt lat="47.51335" lon="6.64953">
        <ele>370</ele>
        <time>2016-06-12T08:30:43.000Z</time>
      </trkpt>
      <trkpt lat="47.51338" lon="6.64956">
        <ele>370</ele>
        <time>2016-06-12T08:30:44.000Z</time>
      </trkpt>
      <trkpt lat="47.51341" lon="6.64959">
        <ele>370</ele>
        <time>2016-06-12T08:30:45.000Z</time>
      </trkpt>
      <trkpt lat="47.51344" lon="6.64963">
        <ele>371</ele>
        <time>2016-06-12T08:30:46.000Z</time>
      </trkpt>
      <trkpt lat="47.51347" lon="6.64966">
        <ele>371</ele>
        <time>2016-06-12T08:30:47.000Z</time>
      </trkpt>
      <trkpt lat="47.51349" lon="6.6497">
        <ele>371</ele>
        <time>2016-06-12T08:30:48.000Z</time>
      </trkpt>
      <trkpt lat="47.51352" lon="6.64974">
        <ele>371</ele>
        <time>2016-06-12T08:30:49.000Z</time>
      </trkpt>
      <trkpt lat="47.51355" lon="6.64977">
        <ele>372</ele>
        <time>2016-06-12T08:30:50.000Z</time>
      </trkpt>
      <trkpt lat="47.51357" lon="6.64981">
        <ele>372</ele>
        <time>2016-06-12T08:30:51.000Z</time>
      </trkpt>
      <trkpt lat="47.5136" lon="6.64985">
        <ele>372</ele>
        <time>2016-06-12T08:30:52.000Z</time>
      </trkpt>
      <trkpt lat="47.51363" lon="6.64989">
        <ele>372</ele>
        <time>2016-06-12T08:30:53.000Z</time>
      </trkpt>
      <trkpt lat="47.51365" lon="6.64993">
        <ele>371</ele>
        <time>2016-06-12T08:30:54.000Z</time>
      </trkpt>
      <trkpt lat="47.51368" lon="6.64997">
        <ele>371</ele>
        <time>2016-06-12T08:30:55.000Z</time>
      </trkpt>
      <trkpt lat="47.5137" lon="6.65001">
        <ele>376</ele>
        <time>2016-06-12T08:30:56.000Z</time>
      </trkpt>
      <trkpt lat="47.51372" lon="6.65005">
        <ele>376</ele>
        <time>2016-06-12T08:30:57.000Z</time>
      </trkpt>
      <trkpt lat="47.51374" lon="6.6501">
        <ele>376</ele>
        <time>2016-06-12T08:30:58.000Z</time>
      </trkpt>
      <trkpt lat="47.51376" lon="6.65014">
        <ele>376</ele>
        <time>2016-06-12T08:30:59.000Z</time>
      </trkpt>
      <trkpt lat="47.51379" lon="6.65018">
        <ele>376</ele>
        <time>2016-06-12T08:31:00.000Z</time>
      </trkpt>
      <trkpt lat="47.51381" lon="6.65022">
        <ele>376</ele>
        <time>2016-06-12T08:31:01.000Z</time>
      </trkpt>
      <trkpt lat="47.51383" lon="6.65026">
        <ele>376</ele>
        <time>2016-06-12T08:31:02.000Z</time>
      </trkpt>
      <trkpt lat="47.51385" lon="6.6503">
        <ele>376</ele>
        <time>2016-06-12T08:31:03.000Z</time>
      </trkpt>
      <trkpt lat="47.51387" lon="6.65034">
        <ele>376</ele>
        <time>2016-06-12T08:31:04.000Z</time>
      </trkpt>
      <trkpt lat="47.51389" lon="6.65037">
        <ele>376</ele>
        <time>2016-06-12T08:31:05.000Z</time>
      </trkpt>
      <trkpt lat="47.51391" lon="6.65041">
        <ele>376</ele>
        <time>2016-06-12T08:31:06.000Z</time>
      </trkpt>
      <trkpt lat="47.51394" lon="6.65044">
        <ele>376</ele>
        <time>2016-06-12T08:31:07.000Z</time>
      </trkpt>
      <trkpt lat="47.51396" lon="6.65048">
        <ele>376</ele>
        <time>2016-06-12T08:31:08.000Z</time>
      </trkpt>
      <trkpt lat="47.51398" lon="6.65051">
        <ele>376</ele>
        <time>2016-06-12T08:31:09.000Z</time>
      </trkpt>
      <trkpt lat="47.514" lon="6.65055">
        <ele>376</ele>
        <time>2016-06-12T08:31:10.000Z</time>
      </trkpt>
      <trkpt lat="47.51402" lon="6.65058">
        <ele>376</ele>
        <time>2016-06-12T08:31:11.000Z</time>
      </trkpt>
      <trkpt lat="47.51405" lon="6.65061">
        <ele>376</ele>
        <time>2016-06-12T08:31:12.000Z</time>
      </trkpt>
      <trkpt lat="47.51407" lon="6.65064">
        <ele>376</ele>
        <time>2016-06-12T08:31:13.000Z</time>
      </trkpt>
      <trkpt lat="47.5141" lon="6.65067">
        <ele>376</ele>
        <time>2016-06-12T08:31:14.000Z</time>
      </trkpt>
      <trkpt lat="47.51412" lon="6.6507">
        <ele>376</ele>
        <time>2016-06-12T08:31:15.000Z</time>
      </trkpt>
      <trkpt lat="47.51415" lon="6.65073">
        <ele>376</ele>
        <time>2016-06-12T08:31:16.000Z</time>
      </trkpt>
      <trkpt lat="47.51417" lon="6.65076">
        <ele>373</ele>
        <time>2016-06-12T08:31:17.000Z</time>
      </trkpt>
      <trkpt lat="47.5142" lon="6.65079">
        <ele>373</ele>
        <time>2016-06-12T08:31:18.000Z</time>
      </trkpt>
      <trkpt lat="47.51422" lon="6.65082">
        <ele>373</ele>
        <time>2016-06-12T08:31:19.000Z</time>
      </trkpt>
      <trkpt lat="47.51424" lon="6.65085">
        <ele>374</ele>
        <time>2016-06-12T08:31:20.000Z</time>
      </trkpt>
      <trkpt lat="47.51426" lon="6.65089">
        <ele>374</ele>
        <time>2016-06-12T08:31:21.000Z</time>
      </trkpt>
      <trkpt lat="47.51428" lon="6.65092">
        <ele>373</ele>
        <time>2016-06-12T08:31:22.000Z</time>
      </trkpt>
      <trkpt lat="47.5143" lon="6.65095">
        <ele>373</ele>
        <time>2016-06-12T08:31:23.000Z</time>
      </trkpt>
      <trkpt lat="47.51432" lon="6.65098">
        <ele>373</ele>
        <time>2016-06-12T08:31:24.000Z</time>
      </trkpt>
      <trkpt lat="47.51434" lon="6.65102">
        <ele>373</ele>
        <time>2016-06-12T08:31:25.000Z</time>
      </trkpt>
      <trkpt lat="47.51436" lon="6.65105">
        <ele>373</ele>
        <time>2016-06-12T08:31:26.000Z</time>
      </trkpt>
      <trkpt lat="47.51438" lon="6.65109">
        <ele>373</ele>
        <time>2016-06-12T08:31:27.000Z</time>
      </trkpt>
      <trkpt lat="47.5144" lon="6.65112">
        <ele>373</ele>
        <time>2016-06-12T08:31:28.000Z</time>
      </trkpt>
      <trkpt lat="47.51442" lon="6.65116">
        <ele>372</ele>
        <time>2016-06-12T08:31:29.000Z</time>
      </trkpt>
      <trkpt lat="47.51445" lon="6.65119">
        <ele>372</ele>
        <time>2016-06-12T08:31:30.000Z</time>
      </trkpt>
      <trkpt lat="47.51447" lon="6.65123">
        <ele>372</ele>
        <time>2016-06-12T08:31:31.000Z</time>
      </trkpt>
      <trkpt lat="47.5145" lon="6.65126">
        <ele>372</ele>
        <time>2016-06-12T08:31:32.000Z</time>
      </trkpt>
      <trkpt lat="47.51453" lon="6.65129">
        <ele>372</ele>
        <time>2016-06-12T08:31:33.000Z</time>
      </trkpt>
      <trkpt lat="47.51456" lon="6.65133">
        <ele>372</ele>
        <time>2016-06-12T08:31:34.000Z</time>
      </trkpt>
      <trkpt lat="47.51459" lon="6.65136">
        <ele>372</ele>
        <time>2016-06-12T08:31:35.000Z</time>
      </trkpt>
      <trkpt lat="47.51463" lon="6.6514">
        <ele>371</ele>
        <time>2016-06-12T08:31:36.000Z</time>
      </trkpt>
      <trkpt lat="47.51467" lon="6.65144">
        <ele>371</ele>
        <time>2016-06-12T08:31:37.000Z</time>
      </trkpt>
      <trkpt lat="47.5147" lon="6.65147">
        <ele>371</ele>
        <time>2016-06-12T08:31:38.000Z</time>
      </trkpt>
      <trkpt lat="47.51474" lon="6.65151">
        <ele>370</ele>
        <time>2016-06-12T08:31:39.000Z</time>
      </trkpt>
      <trkpt lat="47.51478" lon="6.65156">
        <ele>370</ele>
        <time>2016-06-12T08:31:40.000Z</time>
      </trkpt>
      <trkpt lat="47.51481" lon="6.65161">
        <ele>369</ele>
        <time>2016-06-12T08:31:41.000Z</time>
      </trkpt>
      <trkpt lat="47.51484" lon="6.65166">
        <ele>369</ele>
        <time>2016-06-12T08:31:42.000Z</time>
      </trkpt>
      <trkpt lat="47.51488" lon="6.65171">
        <ele>369</ele>
        <time>2016-06-12T08:31:43.000Z</time>
      </trkpt>
      <trkpt lat="47.51492" lon="6.65176">
        <ele>369</ele>
        <time>2016-06-12T08:31:44.000Z</time>
      </trkpt>
      <trkpt lat="47.51496" lon="6.65181">
        <ele>370</ele>
        <time>2016-06-12T08:31:45.000Z</time>
      </trkpt>
      <trkpt lat="47.515" lon="6.65187">
        <ele>366</ele>
        <time>2016-06-12T08:31:46.000Z</time>
      </trkpt>
      <trkpt lat="47.51505" lon="6.65192">
        <ele>366</ele>
        <time>2016-06-12T08:31:47.000Z</time>
      </trkpt>
      <trkpt lat="47.5151" lon="6.65197">
        <ele>366</ele>
        <time>2016-06-12T08:31:48.000Z</time>
      </trkpt>
      <trkpt lat="47.51514" lon="6.65202">
        <ele>366</ele>
        <time>2016-06-12T08:31:49.000Z</time>
      </trkpt>
      <trkpt lat="47.51518" lon="6.65207">
        <ele>366</ele>
        <time>2016-06-12T08:31:50.000Z</time>
      </trkpt>
      <trkpt lat="47.51522" lon="6.65213">
        <ele>366</ele>
        <time>2016-06-12T08:31:51.000Z</time>
      </trkpt>
      <trkpt lat="47.51525" lon="6.65219">
        <ele>366</ele>
        <time>2016-06-12T08:31:52.000Z</time>
      </trkpt>
      <trkpt lat="47.51529" lon="6.65225">
        <ele>366</ele>
        <time>2016-06-12T08:31:53.000Z</time>
      </trkpt>
      <trkpt lat="47.51533" lon="6.65231">
        <ele>365</ele>
        <time>2016-06-12T08:31:54.000Z</time>
      </trkpt>
      <trkpt lat="47.51536" lon="6.65237">
        <ele>365</ele>
        <time>2016-06-12T08:31:55.000Z</time>
      </trkpt>
      <trkpt lat="47.51539" lon="6.65243">
        <ele>365</ele>
        <time>2016-06-12T08:31:56.000Z</time>
      </trkpt>
      <trkpt lat="47.51543" lon="6.65249">
        <ele>365</ele>
        <time>2016-06-12T08:31:57.000Z</time>
      </trkpt>
      <trkpt lat="47.51546" lon="6.65254">
        <ele>366</ele>
        <time>2016-06-12T08:31:58.000Z</time>
      </trkpt>
      <trkpt lat="47.5155" lon="6.6526">
        <ele>366</ele>
        <time>2016-06-12T08:31:59.000Z</time>
      </trkpt>
      <trkpt lat="47.51553" lon="6.65265">
        <ele>366</ele>
        <time>2016-06-12T08:32:00.001Z</time>
      </trkpt>
      <trkpt lat="47.51556" lon="6.6527">
        <ele>366</ele>
        <time>2016-06-12T08:32:01.000Z</time>
      </trkpt>
      <trkpt lat="47.5156" lon="6.65274">
        <ele>366</ele>
        <time>2016-06-12T08:32:02.000Z</time>
      </trkpt>
      <trkpt lat="47.51564" lon="6.65279">
        <ele>366</ele>
        <time>2016-06-12T08:32:03.000Z</time>
      </trkpt>
      <trkpt lat="47.51568" lon="6.65283">
        <ele>366</ele>
        <time>2016-06-12T08:32:04.000Z</time>
      </trkpt>
      <trkpt lat="47.51572" lon="6.65288">
        <ele>366</ele>
        <time>2016-06-12T08:32:05.000Z</time>
      </trkpt>
      <trkpt lat="47.51576" lon="6.65293">
        <ele>366</ele>
        <time>2016-06-12T08:32:06.000Z</time>
      </trkpt>
      <trkpt lat="47.5158" lon="6.65298">
        <ele>366</ele>
        <time>2016-06-12T08:32:07.000Z</time>
      </trkpt>
      <trkpt lat="47.51584" lon="6.65303">
        <ele>363</ele>
        <time>2016-06-12T08:32:08.000Z</time>
      </trkpt>
      <trkpt lat="47.51588" lon="6.65308">
        <ele>363</ele>
        <time>2016-06-12T08:32:09.000Z</time>
      </trkpt>
      <trkpt lat="47.51592" lon="6.65313">
        <ele>363</ele>
        <time>2016-06-12T08:32:10.000Z</time>
      </trkpt>
      <trkpt lat="47.51596" lon="6.65318">
        <ele>363</ele>
        <time>2016-06-12T08:32:11.000Z</time>
      </trkpt>
      <trkpt lat="47.516" lon="6.65323">
        <ele>363</ele>
        <time>2016-06-12T08:32:12.000Z</time>
      </trkpt>
      <trkpt lat="47.51604" lon="6.65329">
        <ele>363</ele>
        <time>2016-06-12T08:32:13.000Z</time>
      </trkpt>
      <trkpt lat="47.51609" lon="6.65334">
        <ele>364</ele>
        <time>2016-06-12T08:32:14.000Z</time>
      </trkpt>
      <trkpt lat="47.51613" lon="6.6534">
        <ele>364</ele>
        <time>2016-06-12T08:32:15.000Z</time>
      </trkpt>
      <trkpt lat="47.51617" lon="6.65345">
        <ele>364</ele>
        <time>2016-06-12T08:32:16.000Z</time>
      </trkpt>
      <trkpt lat="47.51621" lon="6.65351">
        <ele>364</ele>
        <time>2016-06-12T08:32:17.000Z</time>
      </trkpt>
      <trkpt lat="47.51625" lon="6.65357">
        <ele>364</ele>
        <time>2016-06-12T08:32:18.000Z</time>
      </trkpt>
      <trkpt lat="47.5163" lon="6.65362">
        <ele>364</ele>
        <time>2016-06-12T08:32:19.000Z</time>
      </trkpt>
      <trkpt lat="47.51634" lon="6.65367">
        <ele>364</ele>
        <time>2016-06-12T08:32:20.000Z</time>
      </trkpt>
      <trkpt lat="47.51639" lon="6.65372">
        <ele>364</ele>
        <time>2016-06-12T08:32:21.000Z</time>
      </trkpt>
      <trkpt lat="47.51643" lon="6.65377">
        <ele>364</ele>
        <time>2016-06-12T08:32:22.000Z</time>
      </trkpt>
      <trkpt lat="47.51647" lon="6.65382">
        <ele>363</ele>
        <time>2016-06-12T08:32:23.000Z</time>
      </trkpt>
      <trkpt lat="47.51651" lon="6.65387">
        <ele>363</ele>
        <time>2016-06-12T08:32:24.000Z</time>
      </trkpt>
      <trkpt lat="47.51655" lon="6.65391">
        <ele>363</ele>
        <time>2016-06-12T08:32:25.000Z</time>
      </trkpt>
      <trkpt lat="47.51659" lon="6.65395">
        <ele>363</ele>
        <time>2016-06-12T08:32:26.000Z</time>
      </trkpt>
      <trkpt lat="47.51663" lon="6.654">
        <ele>363</ele>
        <time>2016-06-12T08:32:27.000Z</time>
      </trkpt>
      <trkpt lat="47.51667" lon="6.65404">
        <ele>362</ele>
        <time>2016-06-12T08:32:28.000Z</time>
      </trkpt>
      <trkpt lat="47.5167" lon="6.6541">
        <ele>363</ele>
        <time>2016-06-12T08:32:29.000Z</time>
      </trkpt>
      <trkpt lat="47.51675" lon="6.65415">
        <ele>363</ele>
        <time>2016-06-12T08:32:30.000Z</time>
      </trkpt>
      <trkpt lat="47.51679" lon="6.65419">
        <ele>363</ele>
        <time>2016-06-12T08:32:31.000Z</time>
      </trkpt>
      <trkpt lat="47.51684" lon="6.65425">
        <ele>363</ele>
        <time>2016-06-12T08:32:32.000Z</time>
      </trkpt>
      <trkpt lat="47.51688" lon="6.6543">
        <ele>363</ele>
        <time>2016-06-12T08:32:33.000Z</time>
      </trkpt>
      <trkpt lat="47.51693" lon="6.65436">
        <ele>362</ele>
        <time>2016-06-12T08:32:34.000Z</time>
      </trkpt>
      <trkpt lat="47.51697" lon="6.65441">
        <ele>362</ele>
        <time>2016-06-12T08:32:35.000Z</time>
      </trkpt>
      <trkpt lat="47.51702" lon="6.65446">
        <ele>362</ele>
        <time>2016-06-12T08:32:36.000Z</time>
      </trkpt>
      <trkpt lat="47.51706" lon="6.65452">
        <ele>362</ele>
        <time>2016-06-12T08:32:37.000Z</time>
      </trkpt>
      <trkpt lat="47.51711" lon="6.65457">
        <ele>362</ele>
        <time>2016-06-12T08:32:38.000Z</time>
      </trkpt>
      <trkpt lat="47.51716" lon="6.65462">
        <ele>362</ele>
        <time>2016-06-12T08:32:39.000Z</time>
      </trkpt>
      <trkpt lat="47.5172" lon="6.65468">
        <ele>362</ele>
        <time>2016-06-12T08:32:40.000Z</time>
      </trkpt>
      <trkpt lat="47.51724" lon="6.65474">
        <ele>362</ele>
        <time>2016-06-12T08:32:41.000Z</time>
      </trkpt>
      <trkpt lat="47.51729" lon="6.65478">
        <ele>362</ele>
        <time>2016-06-12T08:32:42.000Z</time>
      </trkpt>
      <trkpt lat="47.51733" lon="6.65483">
        <ele>361</ele>
        <time>2016-06-12T08:32:43.000Z</time>
      </trkpt>
      <trkpt lat="47.51738" lon="6.65488">
        <ele>361</ele>
        <time>2016-06-12T08:32:44.000Z</time>
      </trkpt>
      <trkpt lat="47.51743" lon="6.65493">
        <ele>361</ele>
        <time>2016-06-12T08:32:45.000Z</time>
      </trkpt>
      <trkpt lat="47.51748" lon="6.65498">
        <ele>360</ele>
        <time>2016-06-12T08:32:46.000Z</time>
      </trkpt>
      <trkpt lat="47.51752" lon="6.65503">
        <ele>360</ele>
        <time>2016-06-12T08:32:47.000Z</time>
      </trkpt>
      <trkpt lat="47.51757" lon="6.65507">
        <ele>360</ele>
        <time>2016-06-12T08:32:48.000Z</time>
      </trkpt>
      <trkpt lat="47.51761" lon="6.6551">
        <ele>360</ele>
        <time>2016-06-12T08:32:49.000Z</time>
      </trkpt>
      <trkpt lat="47.51766" lon="6.65514">
        <ele>360</ele>
        <time>2016-06-12T08:32:50.000Z</time>
      </trkpt>
      <trkpt lat="47.51771" lon="6.65518">
        <ele>360</ele>
        <time>2016-06-12T08:32:51.000Z</time>
      </trkpt>
      <trkpt lat="47.51776" lon="6.65521">
        <ele>360</ele>
        <time>2016-06-12T08:32:52.000Z</time>
      </trkpt>
      <trkpt lat="47.51781" lon="6.65525">
        <ele>360</ele>
        <time>2016-06-12T08:32:53.000Z</time>
      </trkpt>
      <trkpt lat="47.51786" lon="6.65528">
        <ele>360</ele>
        <time>2016-06-12T08:32:54.000Z</time>
      </trkpt>
      <trkpt lat="47.51791" lon="6.6553">
        <ele>360</ele>
        <time>2016-06-12T08:32:55.000Z</time>
      </trkpt>
      <trkpt lat="47.51796" lon="6.65533">
        <ele>360</ele>
        <time>2016-06-12T08:32:56.000Z</time>
      </trkpt>
      <trkpt lat="47.51801" lon="6.65535">
        <ele>360</ele>
        <time>2016-06-12T08:32:57.000Z</time>
      </trkpt>
      <trkpt lat="47.51806" lon="6.65537">
        <ele>360</ele>
        <time>2016-06-12T08:32:58.000Z</time>
      </trkpt>
      <trkpt lat="47.51811" lon="6.6554">
        <ele>360</ele>
        <time>2016-06-12T08:32:59.000Z</time>
      </trkpt>
      <trkpt lat="47.51817" lon="6.65544">
        <ele>360</ele>
        <time>2016-06-12T08:33:00.000Z</time>
      </trkpt>
      <trkpt lat="47.51821" lon="6.65546">
        <ele>360</ele>
        <time>2016-06-12T08:33:01.000Z</time>
      </trkpt>
      <trkpt lat="47.51826" lon="6.65549">
        <ele>360</ele>
        <time>2016-06-12T08:33:02.000Z</time>
      </trkpt>
      <trkpt lat="47.51831" lon="6.65553">
        <ele>360</ele>
        <time>2016-06-12T08:33:03.000Z</time>
      </trkpt>
      <trkpt lat="47.51837" lon="6.65556">
        <ele>360</ele>
        <time>2016-06-12T08:33:04.000Z</time>
      </trkpt>
      <trkpt lat="47.51842" lon="6.65559">
        <ele>360</ele>
        <time>2016-06-12T08:33:05.000Z</time>
      </trkpt>
      <trkpt lat="47.51847" lon="6.65563">
        <ele>360</ele>
        <time>2016-06-12T08:33:06.000Z</time>
      </trkpt>
      <trkpt lat="47.51851" lon="6.65567">
        <ele>360</ele>
        <time>2016-06-12T08:33:07.000Z</time>
      </trkpt>
      <trkpt lat="47.51856" lon="6.65571">
        <ele>360</ele>
        <time>2016-06-12T08:33:08.000Z</time>
      </trkpt>
      <trkpt lat="47.5186" lon="6.65577">
        <ele>360</ele>
        <time>2016-06-12T08:33:09.000Z</time>
      </trkpt>
      <trkpt lat="47.51865" lon="6.65583">
        <ele>360</ele>
        <time>2016-06-12T08:33:10.000Z</time>
      </trkpt>
      <trkpt lat="47.51869" lon="6.65587">
        <ele>361</ele>
        <time>2016-06-12T08:33:11.000Z</time>
      </trkpt>
      <trkpt lat="47.51874" lon="6.65592">
        <ele>361</ele>
        <time>2016-06-12T08:33:12.000Z</time>
      </trkpt>
      <trkpt lat="47.51878" lon="6.65596">
        <ele>361</ele>
        <time>2016-06-12T08:33:13.000Z</time>
      </trkpt>
      <trkpt lat="47.51882" lon="6.65601">
        <ele>361</ele>
        <time>2016-06-12T08:33:14.000Z</time>
      </trkpt>
      <trkpt lat="47.51886" lon="6.65607">
        <ele>361</ele>
        <time>2016-06-12T08:33:15.000Z</time>
      </trkpt>
      <trkpt lat="47.5189" lon="6.65614">
        <ele>361</ele>
        <time>2016-06-12T08:33:16.000Z</time>
      </trkpt>
      <trkpt lat="47.51894" lon="6.65619">
        <ele>361</ele>
        <time>2016-06-12T08:33:17.000Z</time>
      </trkpt>
      <trkpt lat="47.51898" lon="6.65625">
        <ele>361</ele>
        <time>2016-06-12T08:33:18.000Z</time>
      </trkpt>
      <trkpt lat="47.51901" lon="6.65629">
        <ele>362</ele>
        <time>2016-06-12T08:33:19.000Z</time>
      </trkpt>
      <trkpt lat="47.51904" lon="6.65635">
        <ele>362</ele>
        <time>2016-06-12T08:33:20.000Z</time>
      </trkpt>
      <trkpt lat="47.51908" lon="6.6564">
        <ele>362</ele>
        <time>2016-06-12T08:33:21.000Z</time>
      </trkpt>
      <trkpt lat="47.51911" lon="6.65645">
        <ele>362</ele>
        <time>2016-06-12T08:33:22.000Z</time>
      </trkpt>
      <trkpt lat="47.51915" lon="6.65649">
        <ele>362</ele>
        <time>2016-06-12T08:33:23.000Z</time>
      </trkpt>
      <trkpt lat="47.51918" lon="6.65654">
        <ele>363</ele>
        <time>2016-06-12T08:33:23.999Z</time>
      </trkpt>
      <trkpt lat="47.51922" lon="6.65659">
        <ele>363</ele>
        <time>2016-06-12T08:33:25.000Z</time>
      </trkpt>
      <trkpt lat="47.51925" lon="6.65664">
        <ele>363</ele>
        <time>2016-06-12T08:33:26.000Z</time>
      </trkpt>
      <trkpt lat="47.51929" lon="6.65667">
        <ele>364</ele>
        <time>2016-06-12T08:33:27.000Z</time>
      </trkpt>
      <trkpt lat="47.51933" lon="6.65671">
        <ele>364</ele>
        <time>2016-06-12T08:33:28.000Z</time>
      </trkpt>
      <trkpt lat="47.51937" lon="6.65675">
        <ele>364</ele>
        <time>2016-06-12T08:33:29.001Z</time>
      </trkpt>
      <trkpt lat="47.51939" lon="6.65681">
        <ele>364</ele>
        <time>2016-06-12T08:33:30.000Z</time>
      </trkpt>
      <trkpt lat="47.51943" lon="6.65686">
        <ele>364</ele>
        <time>2016-06-12T08:33:31.000Z</time>
      </trkpt>
      <trkpt lat="47.51948" lon="6.65689">
        <ele>364</ele>
        <time>2016-06-12T08:33:32.000Z</time>
      </trkpt>
      <trkpt lat="47.51952" lon="6.65693">
        <ele>364</ele>
        <time>2016-06-12T08:33:33.000Z</time>
      </trkpt>
      <trkpt lat="47.51955" lon="6.65697">
        <ele>365</ele>
        <time>2016-06-12T08:33:34.000Z</time>
      </trkpt>
      <trkpt lat="47.51958" lon="6.657">
        <ele>365</ele>
        <time>2016-06-12T08:33:35.000Z</time>
      </trkpt>
      <trkpt lat="47.51963" lon="6.65703">
        <ele>365</ele>
        <time>2016-06-12T08:33:36.000Z</time>
      </trkpt>
      <trkpt lat="47.51967" lon="6.65706">
        <ele>365</ele>
        <time>2016-06-12T08:33:37.000Z</time>
      </trkpt>
      <trkpt lat="47.5197" lon="6.6571">
        <ele>365</ele>
        <time>2016-06-12T08:33:38.000Z</time>
      </trkpt>
      <trkpt lat="47.51973" lon="6.65713">
        <ele>365</ele>
        <time>2016-06-12T08:33:39.000Z</time>
      </trkpt>
      <trkpt lat="47.51977" lon="6.65717">
        <ele>365</ele>
        <time>2016-06-12T08:33:40.000Z</time>
      </trkpt>
      <trkpt lat="47.5198" lon="6.65719">
        <ele>365</ele>
        <time>2016-06-12T08:33:41.000Z</time>
      </trkpt>
      <trkpt lat="47.51983" lon="6.65723">
        <ele>365</ele>
        <time>2016-06-12T08:33:42.000Z</time>
      </trkpt>
      <trkpt lat="47.51987" lon="6.65726">
        <ele>365</ele>
        <time>2016-06-12T08:33:43.000Z</time>
      </trkpt>
      <trkpt lat="47.5199" lon="6.65729">
        <ele>366</ele>
        <time>2016-06-12T08:33:44.000Z</time>
      </trkpt>
      <trkpt lat="47.51993" lon="6.65732">
        <ele>366</ele>
        <time>2016-06-12T08:33:45.000Z</time>
      </trkpt>
      <trkpt lat="47.51996" lon="6.65735">
        <ele>366</ele>
        <time>2016-06-12T08:33:46.000Z</time>
      </trkpt>
      <trkpt lat="47.52" lon="6.65738">
        <ele>366</ele>
        <time>2016-06-12T08:33:47.000Z</time>
      </trkpt>
      <trkpt lat="47.52003" lon="6.6574">
        <ele>366</ele>
        <time>2016-06-12T08:33:48.000Z</time>
      </trkpt>
      <trkpt lat="47.52007" lon="6.65743">
        <ele>366</ele>
        <time>2016-06-12T08:33:49.000Z</time>
      </trkpt>
      <trkpt lat="47.52011" lon="6.65745">
        <ele>366</ele>
        <time>2016-06-12T08:33:50.000Z</time>
      </trkpt>
      <trkpt lat="47.52014" lon="6.65746">
        <ele>366</ele>
        <time>2016-06-12T08:33:51.000Z</time>
      </trkpt>
      <trkpt lat="47.52017" lon="6.65746">
        <ele>366</ele>
        <time>2016-06-12T08:33:52.000Z</time>
      </trkpt>
      <trkpt lat="47.5202" lon="6.65746">
        <ele>366</ele>
        <time>2016-06-12T08:33:53.000Z</time>
      </trkpt>
      <trkpt lat="47.52023" lon="6.65747">
        <ele>366</ele>
        <time>2016-06-12T08:33:53.999Z</time>
      </trkpt>
      <trkpt lat="47.52027" lon="6.65746">
        <ele>366</ele>
        <time>2016-06-12T08:33:55.000Z</time>
      </trkpt>
      <trkpt lat="47.52031" lon="6.65745">
        <ele>366</ele>
        <time>2016-06-12T08:33:56.000Z</time>
      </trkpt>
      <trkpt lat="47.52035" lon="6.65746">
        <ele>366</ele>
        <time>2016-06-12T08:33:57.000Z</time>
      </trkpt>
      <trkpt lat="47.52039" lon="6.65748">
        <ele>366</ele>
        <time>2016-06-12T08:33:58.000Z</time>
      </trkpt>
      <trkpt lat="47.52042" lon="6.65751">
        <ele>367</ele>
        <time>2016-06-12T08:33:59.000Z</time>
      </trkpt>
      <trkpt lat="47.52046" lon="6.65753">
        <ele>367</ele>
        <time>2016-06-12T08:34:00.001Z</time>
      </trkpt>
      <trkpt lat="47.52048" lon="6.6576">
        <ele>367</ele>
        <time>2016-06-12T08:34:01.000Z</time>
      </trkpt>
      <trkpt lat="47.5205" lon="6.65765">
        <ele>367</ele>
        <time>2016-06-12T08:34:02.000Z</time>
      </trkpt>
      <trkpt lat="47.52052" lon="6.65771">
        <ele>367</ele>
        <time>2016-06-12T08:34:03.000Z</time>
      </trkpt>
      <trkpt lat="47.52054" lon="6.65776">
        <ele>367</ele>
        <time>2016-06-12T08:34:04.000Z</time>
      </trkpt>
      <trkpt lat="47.52056" lon="6.65782">
        <ele>367</ele>
        <time>2016-06-12T08:34:05.000Z</time>
      </trkpt>
      <trkpt lat="47.52058" lon="6.65787">
        <ele>367</ele>
        <time>2016-06-12T08:34:05.999Z</time>
      </trkpt>
      <trkpt lat="47.52059" lon="6.65792">
        <ele>367</ele>
        <time>2016-06-12T08:34:07.000Z</time>
      </trkpt>
      <trkpt lat="47.52061" lon="6.65797">
        <ele>367</ele>
        <time>2016-06-12T08:34:08.000Z</time>
      </trkpt>
      <trkpt lat="47.52062" lon="6.65802">
        <ele>367</ele>
        <time>2016-06-12T08:34:09.000Z</time>
      </trkpt>
      <trkpt lat="47.52064" lon="6.65807">
        <ele>367</ele>
        <time>2016-06-12T08:34:10.000Z</time>
      </trkpt>
      <trkpt lat="47.52066" lon="6.65811">
        <ele>367</ele>
        <time>2016-06-12T08:34:11.001Z</time>
      </trkpt>
      <trkpt lat="47.52068" lon="6.65816">
        <ele>368</ele>
        <time>2016-06-12T08:34:12.000Z</time>
      </trkpt>
      <trkpt lat="47.5207" lon="6.6582">
        <ele>368</ele>
        <time>2016-06-12T08:34:13.000Z</time>
      </trkpt>
      <trkpt lat="47.52072" lon="6.65824">
        <ele>368</ele>
        <time>2016-06-12T08:34:14.000Z</time>
      </trkpt>
      <trkpt lat="47.52073" lon="6.65828">
        <ele>368</ele>
        <time>2016-06-12T08:34:15.000Z</time>
      </trkpt>
      <trkpt lat="47.52075" lon="6.65832">
        <ele>368</ele>
        <time>2016-06-12T08:34:16.000Z</time>
      </trkpt>
      <trkpt lat="47.52076" lon="6.65837">
        <ele>369</ele>
        <time>2016-06-12T08:34:17.000Z</time>
      </trkpt>
      <trkpt lat="47.52077" lon="6.65841">
        <ele>369</ele>
        <time>2016-06-12T08:34:18.000Z</time>
      </trkpt>
      <trkpt lat="47.52078" lon="6.65846">
        <ele>369</ele>
        <time>2016-06-12T08:34:19.000Z</time>
      </trkpt>
      <trkpt lat="47.5208" lon="6.6585">
        <ele>369</ele>
        <time>2016-06-12T08:34:20.000Z</time>
      </trkpt>
      <trkpt lat="47.52081" lon="6.65855">
        <ele>369</ele>
        <time>2016-06-12T08:34:21.000Z</time>
      </trkpt>
      <trkpt lat="47.52082" lon="6.6586">
        <ele>370</ele>
        <time>2016-06-12T08:34:22.000Z</time>
      </trkpt>
      <trkpt lat="47.52082" lon="6.65865">
        <ele>370</ele>
        <time>2016-06-12T08:34:23.000Z</time>
      </trkpt>
      <trkpt lat="47.52082" lon="6.6587">
        <ele>370</ele>
        <time>2016-06-12T08:34:24.000Z</time>
      </trkpt>
      <trkpt lat="47.52081" lon="6.65875">
        <ele>370</ele>
        <time>2016-06-12T08:34:24.999Z</time>
      </trkpt>
      <trkpt lat="47.52079" lon="6.6588">
        <ele>370</ele>
        <time>2016-06-12T08:34:26.000Z</time>
      </trkpt>
      <trkpt lat="47.52077" lon="6.65884">
        <ele>370</ele>
        <time>2016-06-12T08:34:27.000Z</time>
      </trkpt>
      <trkpt lat="47.52075" lon="6.65889">
        <ele>370</ele>
        <time>2016-06-12T08:34:28.000Z</time>
      </trkpt>
      <trkpt lat="47.52072" lon="6.65893">
        <ele>370</ele>
        <time>2016-06-12T08:34:29.000Z</time>
      </trkpt>
      <trkpt lat="47.5207" lon="6.65897">
        <ele>371</ele>
        <time>2016-06-12T08:34:30.000Z</time>
      </trkpt>
      <trkpt lat="47.52068" lon="6.659">
        <ele>371</ele>
        <time>2016-06-12T08:34:31.000Z</time>
      </trkpt>
      <trkpt lat="47.52065" lon="6.65904">
        <ele>371</ele>
        <time>2016-06-12T08:34:32.000Z</time>
      </trkpt>
      <trkpt lat="47.52063" lon="6.65908">
        <ele>371</ele>
        <time>2016-06-12T08:34:33.000Z</time>
      </trkpt>
      <trkpt lat="47.52062" lon="6.65913">
        <ele>371</ele>
        <time>2016-06-12T08:34:34.000Z</time>
      </trkpt>
      <trkpt lat="47.5206" lon="6.65917">
        <ele>372</ele>
        <time>2016-06-12T08:34:35.000Z</time>
      </trkpt>
      <trkpt lat="47.52061" lon="6.65923">
        <ele>372</ele>
        <time>2016-06-12T08:34:36.000Z</time>
      </trkpt>
      <trkpt lat="47.52062" lon="6.65928">
        <ele>372</ele>
        <time>2016-06-12T08:34:37.000Z</time>
      </trkpt>
      <trkpt lat="47.52063" lon="6.65934">
        <ele>372</ele>
        <time>2016-06-12T08:34:38.000Z</time>
      </trkpt>
      <trkpt lat="47.52064" lon="6.65939">
        <ele>372</ele>
        <time>2016-06-12T08:34:39.000Z</time>
      </trkpt>
      <trkpt lat="47.52065" lon="6.65944">
        <ele>373</ele>
        <time>2016-06-12T08:34:40.001Z</time>
      </trkpt>
      <trkpt lat="47.52067" lon="6.65949">
        <ele>373</ele>
        <time>2016-06-12T08:34:41.000Z</time>
      </trkpt>
      <trkpt lat="47.52069" lon="6.65953">
        <ele>373</ele>
        <time>2016-06-12T08:34:42.000Z</time>
      </trkpt>
      <trkpt lat="47.52071" lon="6.65958">
        <ele>373</ele>
        <time>2016-06-12T08:34:43.000Z</time>
      </trkpt>
      <trkpt lat="47.52072" lon="6.65963">
        <ele>373</ele>
        <time>2016-06-12T08:34:44.000Z</time>
      </trkpt>
      <trkpt lat="47.52076" lon="6.65967">
        <ele>373</ele>
        <time>2016-06-12T08:34:45.000Z</time>
      </trkpt>
      <trkpt lat="47.52078" lon="6.65972">
        <ele>373</ele>
        <time>2016-06-12T08:34:46.000Z</time>
      </trkpt>
      <trkpt lat="47.5208" lon="6.65976">
        <ele>373</ele>
        <time>2016-06-12T08:34:47.000Z</time>
      </trkpt>
      <trkpt lat="47.52083" lon="6.65981">
        <ele>373</ele>
        <time>2016-06-12T08:34:48.000Z</time>
      </trkpt>
      <trkpt lat="47.52084" lon="6.65985">
        <ele>373</ele>
        <time>2016-06-12T08:34:49.000Z</time>
      </trkpt>
      <trkpt lat="47.52086" lon="6.6599">
        <ele>373</ele>
        <time>2016-06-12T08:34:50.000Z</time>
      </trkpt>
      <trkpt lat="47.52088" lon="6.65995">
        <ele>373</ele>
        <time>2016-06-12T08:34:51.000Z</time>
      </trkpt>
      <trkpt lat="47.5209" lon="6.65999">
        <ele>373</ele>
        <time>2016-06-12T08:34:52.000Z</time>
      </trkpt>
      <trkpt lat="47.52092" lon="6.66004">
        <ele>374</ele>
        <time>2016-06-12T08:34:52.999Z</time>
      </trkpt>
      <trkpt lat="47.52094" lon="6.66008">
        <ele>374</ele>
        <time>2016-06-12T08:34:54.000Z</time>
      </trkpt>
      <trkpt lat="47.52096" lon="6.66013">
        <ele>374</ele>
        <time>2016-06-12T08:34:54.999Z</time>
      </trkpt>
      <trkpt lat="47.52098" lon="6.66018">
        <ele>374</ele>
        <time>2016-06-12T08:34:56.000Z</time>
      </trkpt>
      <trkpt lat="47.521" lon="6.66023">
        <ele>374</ele>
        <time>2016-06-12T08:34:57.000Z</time>
      </trkpt>
      <trkpt lat="47.52102" lon="6.66028">
        <ele>374</ele>
        <time>2016-06-12T08:34:58.000Z</time>
      </trkpt>
      <trkpt lat="47.52104" lon="6.66033">
        <ele>374</ele>
        <time>2016-06-12T08:34:59.001Z</time>
      </trkpt>
      <trkpt lat="47.52106" lon="6.66039">
        <ele>374</ele>
        <time>2016-06-12T08:35:00.000Z</time>
      </trkpt>
      <trkpt lat="47.52108" lon="6.66044">
        <ele>374</ele>
        <time>2016-06-12T08:35:01.000Z</time>
      </trkpt>
      <trkpt lat="47.52108" lon="6.66049">
        <ele>375</ele>
        <time>2016-06-12T08:35:02.000Z</time>
      </trkpt>
      <trkpt lat="47.52107" lon="6.66054">
        <ele>375</ele>
        <time>2016-06-12T08:35:03.000Z</time>
      </trkpt>
      <trkpt lat="47.52106" lon="6.66057">
        <ele>375</ele>
        <time>2016-06-12T08:35:04.000Z</time>
      </trkpt>
      <trkpt lat="47.52103" lon="6.6606">
        <ele>375</ele>
        <time>2016-06-12T08:35:05.000Z</time>
      </trkpt>
      <trkpt lat="47.521" lon="6.66062">
        <ele>375</ele>
        <time>2016-06-12T08:35:06.000Z</time>
      </trkpt>
      <trkpt lat="47.52097" lon="6.66064">
        <ele>376</ele>
        <time>2016-06-12T08:35:07.000Z</time>
      </trkpt>
      <trkpt lat="47.52094" lon="6.66066">
        <ele>376</ele>
        <time>2016-06-12T08:35:08.000Z</time>
      </trkpt>
      <trkpt lat="47.5209" lon="6.66068">
        <ele>376</ele>
        <time>2016-06-12T08:35:09.000Z</time>
      </trkpt>
      <trkpt lat="47.52087" lon="6.66069">
        <ele>376</ele>
        <time>2016-06-12T08:35:10.000Z</time>
      </trkpt>
      <trkpt lat="47.52085" lon="6.66071">
        <ele>376</ele>
        <time>2016-06-12T08:35:11.000Z</time>
      </trkpt>
      <trkpt lat="47.52083" lon="6.66074">
        <ele>377</ele>
        <time>2016-06-12T08:35:12.000Z</time>
      </trkpt>
      <trkpt lat="47.52082" lon="6.66077">
        <ele>377</ele>
        <time>2016-06-12T08:35:13.000Z</time>
      </trkpt>
      <trkpt lat="47.52081" lon="6.66082">
        <ele>378</ele>
        <time>2016-06-12T08:35:14.000Z</time>
      </trkpt>
      <trkpt lat="47.52082" lon="6.66086">
        <ele>378</ele>
        <time>2016-06-12T08:35:15.000Z</time>
      </trkpt>
      <trkpt lat="47.52083" lon="6.66091">
        <ele>378</ele>
        <time>2016-06-12T08:35:16.000Z</time>
      </trkpt>
      <trkpt lat="47.52085" lon="6.66095">
        <ele>378</ele>
        <time>2016-06-12T08:35:17.000Z</time>
      </trkpt>
      <trkpt lat="47.52086" lon="6.661">
        <ele>377</ele>
        <time>2016-06-12T08:35:18.000Z</time>
      </trkpt>
      <trkpt lat="47.52088" lon="6.66104">
        <ele>377</ele>
        <time>2016-06-12T08:35:19.000Z</time>
      </trkpt>
      <trkpt lat="47.5209" lon="6.66108">
        <ele>377</ele>
        <time>2016-06-12T08:35:20.000Z</time>
      </trkpt>
      <trkpt lat="47.52091" lon="6.66112">
        <ele>377</ele>
        <time>2016-06-12T08:35:21.000Z</time>
      </trkpt>
      <trkpt lat="47.52092" lon="6.66117">
        <ele>377</ele>
        <time>2016-06-12T08:35:22.000Z</time>
      </trkpt>
      <trkpt lat="47.52093" lon="6.66121">
        <ele>377</ele>
        <time>2016-06-12T08:35:23.000Z</time>
      </trkpt>
      <trkpt lat="47.52094" lon="6.66126">
        <ele>377</ele>
        <time>2016-06-12T08:35:24.000Z</time>
      </trkpt>
      <trkpt lat="47.52095" lon="6.66131">
        <ele>377</ele>
        <time>2016-06-12T08:35:25.000Z</time>
      </trkpt>
      <trkpt lat="47.52096" lon="6.66136">
        <ele>377</ele>
        <time>2016-06-12T08:35:26.000Z</time>
      </trkpt>
      <trkpt lat="47.52097" lon="6.66141">
        <ele>377</ele>
        <time>2016-06-12T08:35:27.000Z</time>
      </trkpt>
      <trkpt lat="47.52098" lon="6.66146">
        <ele>377</ele>
        <time>2016-06-12T08:35:28.000Z</time>
      </trkpt>
      <trkpt lat="47.52099" lon="6.66151">
        <ele>378</ele>
        <time>2016-06-12T08:35:29.000Z</time>
      </trkpt>
      <trkpt lat="47.521" lon="6.66157">
        <ele>378</ele>
        <time>2016-06-12T08:35:30.000Z</time>
      </trkpt>
      <trkpt lat="47.52101" lon="6.66162">
        <ele>378</ele>
        <time>2016-06-12T08:35:31.000Z</time>
      </trkpt>
      <trkpt lat="47.52103" lon="6.66167">
        <ele>378</ele>
        <time>2016-06-12T08:35:32.000Z</time>
      </trkpt>
      <trkpt lat="47.52104" lon="6.66173">
        <ele>378</ele>
        <time>2016-06-12T08:35:33.000Z</time>
      </trkpt>
      <trkpt lat="47.52105" lon="6.66178">
        <ele>378</ele>
        <time>2016-06-12T08:35:34.000Z</time>
      </trkpt>
      <trkpt lat="47.52107" lon="6.66183">
        <ele>378</ele>
        <time>2016-06-12T08:35:35.000Z</time>
      </trkpt>
      <trkpt lat="47.52109" lon="6.66188">
        <ele>378</ele>
        <time>2016-06-12T08:35:36.000Z</time>
      </trkpt>
      <trkpt lat="47.52111" lon="6.66193">
        <ele>378</ele>
        <time>2016-06-12T08:35:37.000Z</time>
      </trkpt>
      <trkpt lat="47.52114" lon="6.66197">
        <ele>378</ele>
        <time>2016-06-12T08:35:38.000Z</time>
      </trkpt>
      <trkpt lat="47.52116" lon="6.66202">
        <ele>378</ele>
        <time>2016-06-12T08:35:39.000Z</time>
      </trkpt>
      <trkpt lat="47.52118" lon="6.66207">
        <ele>378</ele>
        <time>2016-06-12T08:35:40.000Z</time>
      </trkpt>
      <trkpt lat="47.52121" lon="6.66212">
        <ele>378</ele>
        <time>2016-06-12T08:35:41.000Z</time>
      </trkpt>
      <trkpt lat="47.52123" lon="6.66217">
        <ele>378</ele>
        <time>2016-06-12T08:35:42.000Z</time>
      </trkpt>
      <trkpt lat="47.52126" lon="6.66221">
        <ele>378</ele>
        <time>2016-06-12T08:35:43.000Z</time>
      </trkpt>
      <trkpt lat="47.52128" lon="6.66226">
        <ele>378</ele>
        <time>2016-06-12T08:35:44.000Z</time>
      </trkpt>
      <trkpt lat="47.52131" lon="6.66231">
        <ele>378</ele>
        <time>2016-06-12T08:35:44.999Z</time>
      </trkpt>
      <trkpt lat="47.52133" lon="6.66237">
        <ele>378</ele>
        <time>2016-06-12T08:35:46.000Z</time>
      </trkpt>
      <trkpt lat="47.52136" lon="6.66242">
        <ele>378</ele>
        <time>2016-06-12T08:35:47.000Z</time>
      </trkpt>
      <trkpt lat="47.52138" lon="6.66248">
        <ele>378</ele>
        <time>2016-06-12T08:35:48.000Z</time>
      </trkpt>
      <trkpt lat="47.5214" lon="6.66254">
        <ele>378</ele>
        <time>2016-06-12T08:35:49.000Z</time>
      </trkpt>
      <trkpt lat="47.52142" lon="6.66259">
        <ele>378</ele>
        <time>2016-06-12T08:35:50.000Z</time>
      </trkpt>
      <trkpt lat="47.52143" lon="6.66265">
        <ele>378</ele>
        <time>2016-06-12T08:35:51.000Z</time>
      </trkpt>
      <trkpt lat="47.52141" lon="6.66271">
        <ele>378</ele>
        <time>2016-06-12T08:35:52.000Z</time>
      </trkpt>
      <trkpt lat="47.52138" lon="6.66275">
        <ele>378</ele>
        <time>2016-06-12T08:35:53.000Z</time>
      </trkpt>
      <trkpt lat="47.52135" lon="6.6628">
        <ele>378</ele>
        <time>2016-06-12T08:35:54.000Z</time>
      </trkpt>
      <trkpt lat="47.52132" lon="6.66285">
        <ele>378</ele>
        <time>2016-06-12T08:35:55.000Z</time>
      </trkpt>
      <trkpt lat="47.52127" lon="6.66288">
        <ele>378</ele>
        <time>2016-06-12T08:35:56.000Z</time>
      </trkpt>
      <trkpt lat="47.52124" lon="6.66292">
        <ele>378</ele>
        <time>2016-06-12T08:35:57.000Z</time>
      </trkpt>
      <trkpt lat="47.5212" lon="6.66296">
        <ele>378</ele>
        <time>2016-06-12T08:35:58.000Z</time>
      </trkpt>
      <trkpt lat="47.52117" lon="6.663">
        <ele>378</ele>
        <time>2016-06-12T08:35:59.000Z</time>
      </trkpt>
      <trkpt lat="47.52113" lon="6.66304">
        <ele>378</ele>
        <time>2016-06-12T08:36:00.000Z</time>
      </trkpt>
      <trkpt lat="47.5211" lon="6.6631">
        <ele>378</ele>
        <time>2016-06-12T08:36:01.000Z</time>
      </trkpt>
      <trkpt lat="47.52108" lon="6.66316">
        <ele>378</ele>
        <time>2016-06-12T08:36:02.001Z</time>
      </trkpt>
      <trkpt lat="47.52106" lon="6.66322">
        <ele>377</ele>
        <time>2016-06-12T08:36:03.000Z</time>
      </trkpt>
      <trkpt lat="47.52105" lon="6.66329">
        <ele>377</ele>
        <time>2016-06-12T08:36:04.000Z</time>
      </trkpt>
      <trkpt lat="47.52105" lon="6.66336">
        <ele>377</ele>
        <time>2016-06-12T08:36:05.000Z</time>
      </trkpt>
      <trkpt lat="47.52105" lon="6.66343">
        <ele>377</ele>
        <time>2016-06-12T08:36:06.000Z</time>
      </trkpt>
      <trkpt lat="47.52105" lon="6.6635">
        <ele>377</ele>
        <time>2016-06-12T08:36:07.000Z</time>
      </trkpt>
      <trkpt lat="47.52106" lon="6.66357">
        <ele>377</ele>
        <time>2016-06-12T08:36:08.000Z</time>
      </trkpt>
      <trkpt lat="47.52106" lon="6.66363">
        <ele>377</ele>
        <time>2016-06-12T08:36:09.000Z</time>
      </trkpt>
      <trkpt lat="47.52108" lon="6.6637">
        <ele>377</ele>
        <time>2016-06-12T08:36:10.000Z</time>
      </trkpt>
      <trkpt lat="47.5211" lon="6.66376">
        <ele>377</ele>
        <time>2016-06-12T08:36:11.000Z</time>
      </trkpt>
      <trkpt lat="47.52111" lon="6.66383">
        <ele>377</ele>
        <time>2016-06-12T08:36:12.000Z</time>
      </trkpt>
      <trkpt lat="47.52112" lon="6.6639">
        <ele>377</ele>
        <time>2016-06-12T08:36:13.000Z</time>
      </trkpt>
      <trkpt lat="47.52113" lon="6.66396">
        <ele>377</ele>
        <time>2016-06-12T08:36:14.000Z</time>
      </trkpt>
      <trkpt lat="47.52114" lon="6.66403">
        <ele>377</ele>
        <time>2016-06-12T08:36:15.000Z</time>
      </trkpt>
      <trkpt lat="47.52115" lon="6.6641">
        <ele>377</ele>
        <time>2016-06-12T08:36:16.000Z</time>
      </trkpt>
      <trkpt lat="47.52115" lon="6.66417">
        <ele>377</ele>
        <time>2016-06-12T08:36:17.000Z</time>
      </trkpt>
      <trkpt lat="47.52116" lon="6.66424">
        <ele>377</ele>
        <time>2016-06-12T08:36:18.000Z</time>
      </trkpt>
      <trkpt lat="47.52117" lon="6.66431">
        <ele>377</ele>
        <time>2016-06-12T08:36:19.000Z</time>
      </trkpt>
      <trkpt lat="47.52117" lon="6.66438">
        <ele>378</ele>
        <time>2016-06-12T08:36:20.000Z</time>
      </trkpt>
      <trkpt lat="47.52117" lon="6.66445">
        <ele>378</ele>
        <time>2016-06-12T08:36:21.000Z</time>
      </trkpt>
      <trkpt lat="47.52118" lon="6.66452">
        <ele>378</ele>
        <time>2016-06-12T08:36:22.000Z</time>
      </trkpt>
      <trkpt lat="47.52118" lon="6.66458">
        <ele>378</ele>
        <time>2016-06-12T08:36:23.001Z</time>
      </trkpt>
      <trkpt lat="47.52117" lon="6.66465">
        <ele>378</ele>
        <time>2016-06-12T08:36:24.000Z</time>
      </trkpt>
      <trkpt lat="47.52117" lon="6.66471">
        <ele>378</ele>
        <time>2016-06-12T08:36:25.000Z</time>
      </trkpt>
      <trkpt lat="47.52117" lon="6.66478">
        <ele>378</ele>
        <time>2016-06-12T08:36:26.000Z</time>
      </trkpt>
      <trkpt lat="47.52116" lon="6.66485">
        <ele>378</ele>
        <time>2016-06-12T08:36:27.000Z</time>
      </trkpt>
      <trkpt lat="47.52115" lon="6.66491">
        <ele>378</ele>
        <time>2016-06-12T08:36:28.000Z</time>
      </trkpt>
      <trkpt lat="47.52115" lon="6.66498">
        <ele>378</ele>
        <time>2016-06-12T08:36:29.000Z</time>
      </trkpt>
      <trkpt lat="47.52114" lon="6.66504">
        <ele>378</ele>
        <time>2016-06-12T08:36:30.000Z</time>
      </trkpt>
      <trkpt lat="47.52114" lon="6.66511">
        <ele>378</ele>
        <time>2016-06-12T08:36:31.000Z</time>
      </trkpt>
      <trkpt lat="47.52113" lon="6.66517">
        <ele>378</ele>
        <time>2016-06-12T08:36:32.000Z</time>
      </trkpt>
      <trkpt lat="47.52113" lon="6.66524">
        <ele>378</ele>
        <time>2016-06-12T08:36:33.000Z</time>
      </trkpt>
      <trkpt lat="47.52113" lon="6.66531">
        <ele>378</ele>
        <time>2016-06-12T08:36:34.000Z</time>
      </trkpt>
      <trkpt lat="47.52112" lon="6.66537">
        <ele>378</ele>
        <time>2016-06-12T08:36:35.000Z</time>
      </trkpt>
      <trkpt lat="47.52112" lon="6.66544">
        <ele>378</ele>
        <time>2016-06-12T08:36:36.000Z</time>
      </trkpt>
      <trkpt lat="47.52112" lon="6.6655">
        <ele>378</ele>
        <time>2016-06-12T08:36:37.000Z</time>
      </trkpt>
      <trkpt lat="47.52113" lon="6.66557">
        <ele>378</ele>
        <time>2016-06-12T08:36:38.000Z</time>
      </trkpt>
      <trkpt lat="47.52113" lon="6.66563">
        <ele>378</ele>
        <time>2016-06-12T08:36:39.000Z</time>
      </trkpt>
      <trkpt lat="47.52112" lon="6.6657">
        <ele>378</ele>
        <time>2016-06-12T08:36:40.000Z</time>
      </trkpt>
      <trkpt lat="47.52112" lon="6.66576">
        <ele>378</ele>
        <time>2016-06-12T08:36:41.000Z</time>
      </trkpt>
      <trkpt lat="47.52112" lon="6.66582">
        <ele>378</ele>
        <time>2016-06-12T08:36:42.000Z</time>
      </trkpt>
      <trkpt lat="47.52112" lon="6.66588">
        <ele>378</ele>
        <time>2016-06-12T08:36:43.000Z</time>
      </trkpt>
      <trkpt lat="47.52112" lon="6.66595">
        <ele>378</ele>
        <time>2016-06-12T08:36:44.000Z</time>
      </trkpt>
      <trkpt lat="47.52112" lon="6.66602">
        <ele>378</ele>
        <time>2016-06-12T08:36:45.000Z</time>
      </trkpt>
      <trkpt lat="47.52112" lon="6.66608">
        <ele>378</ele>
        <time>2016-06-12T08:36:46.000Z</time>
      </trkpt>
      <trkpt lat="47.52112" lon="6.66615">
        <ele>378</ele>
        <time>2016-06-12T08:36:47.000Z</time>
      </trkpt>
      <trkpt lat="47.52111" lon="6.66622">
        <ele>378</ele>
        <time>2016-06-12T08:36:48.000Z</time>
      </trkpt>
      <trkpt lat="47.52111" lon="6.66628">
        <ele>378</ele>
        <time>2016-06-12T08:36:49.000Z</time>
      </trkpt>
      <trkpt lat="47.52112" lon="6.66636">
        <ele>378</ele>
        <time>2016-06-12T08:36:50.000Z</time>
      </trkpt>
      <trkpt lat="47.5211" lon="6.66642">
        <ele>378</ele>
        <time>2016-06-12T08:36:51.000Z</time>
      </trkpt>
      <trkpt lat="47.5211" lon="6.66649">
        <ele>378</ele>
        <time>2016-06-12T08:36:52.000Z</time>
      </trkpt>
      <trkpt lat="47.52111" lon="6.66656">
        <ele>378</ele>
        <time>2016-06-12T08:36:53.000Z</time>
      </trkpt>
      <trkpt lat="47.5211" lon="6.66662">
        <ele>378</ele>
        <time>2016-06-12T08:36:54.000Z</time>
      </trkpt>
      <trkpt lat="47.5211" lon="6.66668">
        <ele>377</ele>
        <time>2016-06-12T08:36:54.999Z</time>
      </trkpt>
      <trkpt lat="47.5211" lon="6.66675">
        <ele>377</ele>
        <time>2016-06-12T08:36:56.000Z</time>
      </trkpt>
      <trkpt lat="47.52109" lon="6.66681">
        <ele>377</ele>
        <time>2016-06-12T08:36:57.000Z</time>
      </trkpt>
      <trkpt lat="47.52109" lon="6.66688">
        <ele>377</ele>
        <time>2016-06-12T08:36:57.999Z</time>
      </trkpt>
      <trkpt lat="47.5211" lon="6.66696">
        <ele>377</ele>
        <time>2016-06-12T08:36:59.000Z</time>
      </trkpt>
      <trkpt lat="47.52109" lon="6.66703">
        <ele>377</ele>
        <time>2016-06-12T08:37:00.000Z</time>
      </trkpt>
      <trkpt lat="47.52109" lon="6.66711">
        <ele>377</ele>
        <time>2016-06-12T08:37:00.999Z</time>
      </trkpt>
      <trkpt lat="47.52108" lon="6.66718">
        <ele>377</ele>
        <time>2016-06-12T08:37:02.000Z</time>
      </trkpt>
      <trkpt lat="47.52108" lon="6.66725">
        <ele>377</ele>
        <time>2016-06-12T08:37:03.000Z</time>
      </trkpt>
      <trkpt lat="47.52108" lon="6.6673">
        <ele>377</ele>
        <time>2016-06-12T08:37:04.000Z</time>
      </trkpt>
      <trkpt lat="47.52107" lon="6.66737">
        <ele>377</ele>
        <time>2016-06-12T08:37:05.000Z</time>
      </trkpt>
      <trkpt lat="47.52106" lon="6.66744">
        <ele>377</ele>
        <time>2016-06-12T08:37:06.000Z</time>
      </trkpt>
      <trkpt lat="47.52106" lon="6.66751">
        <ele>377</ele>
        <time>2016-06-12T08:37:07.000Z</time>
      </trkpt>
      <trkpt lat="47.52106" lon="6.66758">
        <ele>377</ele>
        <time>2016-06-12T08:37:08.000Z</time>
      </trkpt>
      <trkpt lat="47.52105" lon="6.66766">
        <ele>377</ele>
        <time>2016-06-12T08:37:09.000Z</time>
      </trkpt>
      <trkpt lat="47.52106" lon="6.66773">
        <ele>377</ele>
        <time>2016-06-12T08:37:10.000Z</time>
      </trkpt>
      <trkpt lat="47.52106" lon="6.66779">
        <ele>377</ele>
        <time>2016-06-12T08:37:11.000Z</time>
      </trkpt>
      <trkpt lat="47.52106" lon="6.66786">
        <ele>377</ele>
        <time>2016-06-12T08:37:12.001Z</time>
      </trkpt>
      <trkpt lat="47.52105" lon="6.66793">
        <ele>377</ele>
        <time>2016-06-12T08:37:13.000Z</time>
      </trkpt>
      <trkpt lat="47.52105" lon="6.66801">
        <ele>377</ele>
        <time>2016-06-12T08:37:14.000Z</time>
      </trkpt>
      <trkpt lat="47.52105" lon="6.66809">
        <ele>377</ele>
        <time>2016-06-12T08:37:15.001Z</time>
      </trkpt>
      <trkpt lat="47.52106" lon="6.66817">
        <ele>377</ele>
        <time>2016-06-12T08:37:16.000Z</time>
      </trkpt>
      <trkpt lat="47.52107" lon="6.66825">
        <ele>376</ele>
        <time>2016-06-12T08:37:17.000Z</time>
      </trkpt>
      <trkpt lat="47.52107" lon="6.66833">
        <ele>376</ele>
        <time>2016-06-12T08:37:17.998Z</time>
      </trkpt>
      <trkpt lat="47.52108" lon="6.66842">
        <ele>376</ele>
        <time>2016-06-12T08:37:19.000Z</time>
      </trkpt>
      <trkpt lat="47.52108" lon="6.6685">
        <ele>376</ele>
        <time>2016-06-12T08:37:20.000Z</time>
      </trkpt>
      <trkpt lat="47.52109" lon="6.66857">
        <ele>376</ele>
        <time>2016-06-12T08:37:21.000Z</time>
      </trkpt>
      <trkpt lat="47.52109" lon="6.66866">
        <ele>376</ele>
        <time>2016-06-12T08:37:22.000Z</time>
      </trkpt>
      <trkpt lat="47.52108" lon="6.66874">
        <ele>376</ele>
        <time>2016-06-12T08:37:22.999Z</time>
      </trkpt>
      <trkpt lat="47.52108" lon="6.66881">
        <ele>376</ele>
        <time>2016-06-12T08:37:24.000Z</time>
      </trkpt>
      <trkpt lat="47.52106" lon="6.66888">
        <ele>376</ele>
        <time>2016-06-12T08:37:25.000Z</time>
      </trkpt>
      <trkpt lat="47.52105" lon="6.66895">
        <ele>376</ele>
        <time>2016-06-12T08:37:26.000Z</time>
      </trkpt>
      <trkpt lat="47.52101" lon="6.669">
        <ele>376</ele>
        <time>2016-06-12T08:37:27.000Z</time>
      </trkpt>
      <trkpt lat="47.52097" lon="6.66904">
        <ele>376</ele>
        <time>2016-06-12T08:37:27.999Z</time>
      </trkpt>
      <trkpt lat="47.52095" lon="6.6691">
        <ele>375</ele>
        <time>2016-06-12T08:37:29.000Z</time>
      </trkpt>
      <trkpt lat="47.52092" lon="6.66915">
        <ele>375</ele>
        <time>2016-06-12T08:37:30.000Z</time>
      </trkpt>
      <trkpt lat="47.52088" lon="6.66921">
        <ele>375</ele>
        <time>2016-06-12T08:37:31.000Z</time>
      </trkpt>
      <trkpt lat="47.52085" lon="6.66927">
        <ele>375</ele>
        <time>2016-06-12T08:37:32.000Z</time>
      </trkpt>
      <trkpt lat="47.52082" lon="6.66932">
        <ele>375</ele>
        <time>2016-06-12T08:37:33.000Z</time>
      </trkpt>
      <trkpt lat="47.52078" lon="6.66938">
        <ele>374</ele>
        <time>2016-06-12T08:37:34.000Z</time>
      </trkpt>
      <trkpt lat="47.52075" lon="6.66942">
        <ele>374</ele>
        <time>2016-06-12T08:37:35.000Z</time>
      </trkpt>
      <trkpt lat="47.5207" lon="6.66947">
        <ele>374</ele>
        <time>2016-06-12T08:37:36.000Z</time>
      </trkpt>
      <trkpt lat="47.52067" lon="6.66952">
        <ele>374</ele>
        <time>2016-06-12T08:37:37.000Z</time>
      </trkpt>
      <trkpt lat="47.52063" lon="6.66957">
        <ele>374</ele>
        <time>2016-06-12T08:37:38.000Z</time>
      </trkpt>
      <trkpt lat="47.5206" lon="6.66963">
        <ele>374</ele>
        <time>2016-06-12T08:37:39.000Z</time>
      </trkpt>
      <trkpt lat="47.52056" lon="6.66968">
        <ele>374</ele>
        <time>2016-06-12T08:37:40.000Z</time>
      </trkpt>
      <trkpt lat="47.52052" lon="6.66973">
        <ele>374</ele>
        <time>2016-06-12T08:37:41.000Z</time>
      </trkpt>
      <trkpt lat="47.52049" lon="6.66978">
        <ele>374</ele>
        <time>2016-06-12T08:37:42.000Z</time>
      </trkpt>
      <trkpt lat="47.52045" lon="6.66982">
        <ele>374</ele>
        <time>2016-06-12T08:37:43.000Z</time>
      </trkpt>
      <trkpt lat="47.52042" lon="6.66987">
        <ele>374</ele>
        <time>2016-06-12T08:37:44.000Z</time>
      </trkpt>
      <trkpt lat="47.52038" lon="6.66993">
        <ele>374</ele>
        <time>2016-06-12T08:37:45.000Z</time>
      </trkpt>
      <trkpt lat="47.52034" lon="6.66998">
        <ele>374</ele>
        <time>2016-06-12T08:37:46.000Z</time>
      </trkpt>
      <trkpt lat="47.52031" lon="6.67003">
        <ele>373</ele>
        <time>2016-06-12T08:37:47.000Z</time>
      </trkpt>
      <trkpt lat="47.52027" lon="6.67009">
        <ele>373</ele>
        <time>2016-06-12T08:37:48.000Z</time>
      </trkpt>
      <trkpt lat="47.52023" lon="6.67013">
        <ele>373</ele>
        <time>2016-06-12T08:37:49.000Z</time>
      </trkpt>
      <trkpt lat="47.5202" lon="6.67018">
        <ele>373</ele>
        <time>2016-06-12T08:37:50.000Z</time>
      </trkpt>
      <trkpt lat="47.52016" lon="6.67022">
        <ele>373</ele>
        <time>2016-06-12T08:37:51.000Z</time>
      </trkpt>
      <trkpt lat="47.52013" lon="6.67028">
        <ele>373</ele>
        <time>2016-06-12T08:37:52.000Z</time>
      </trkpt>
      <trkpt lat="47.52009" lon="6.67033">
        <ele>373</ele>
        <time>2016-06-12T08:37:53.000Z</time>
      </trkpt>
      <trkpt lat="47.52006" lon="6.67037">
        <ele>373</ele>
        <time>2016-06-12T08:37:54.000Z</time>
      </trkpt>
      <trkpt lat="47.52002" lon="6.67042">
        <ele>373</ele>
        <time>2016-06-12T08:37:55.000Z</time>
      </trkpt>
      <trkpt lat="47.51998" lon="6.67047">
        <ele>372</ele>
        <time>2016-06-12T08:37:56.000Z</time>
      </trkpt>
      <trkpt lat="47.51994" lon="6.67052">
        <ele>372</ele>
        <time>2016-06-12T08:37:57.000Z</time>
      </trkpt>
      <trkpt lat="47.5199" lon="6.67057">
        <ele>372</ele>
        <time>2016-06-12T08:37:58.000Z</time>
      </trkpt>
      <trkpt lat="47.51986" lon="6.67063">
        <ele>372</ele>
        <time>2016-06-12T08:37:59.000Z</time>
      </trkpt>
      <trkpt lat="47.51983" lon="6.6707">
        <ele>372</ele>
        <time>2016-06-12T08:38:00.000Z</time>
      </trkpt>
      <trkpt lat="47.51978" lon="6.67076">
        <ele>372</ele>
        <time>2016-06-12T08:38:01.000Z</time>
      </trkpt>
      <trkpt lat="47.51974" lon="6.67082">
        <ele>372</ele>
        <time>2016-06-12T08:38:02.000Z</time>
      </trkpt>
      <trkpt lat="47.5197" lon="6.6709">
        <ele>372</ele>
        <time>2016-06-12T08:38:03.000Z</time>
      </trkpt>
      <trkpt lat="47.51965" lon="6.67096">
        <ele>371</ele>
        <time>2016-06-12T08:38:04.000Z</time>
      </trkpt>
      <trkpt lat="47.51962" lon="6.67103">
        <ele>371</ele>
        <time>2016-06-12T08:38:05.000Z</time>
      </trkpt>
      <trkpt lat="47.51958" lon="6.67109">
        <ele>371</ele>
        <time>2016-06-12T08:38:06.000Z</time>
      </trkpt>
      <trkpt lat="47.51953" lon="6.67115">
        <ele>371</ele>
        <time>2016-06-12T08:38:07.000Z</time>
      </trkpt>
      <trkpt lat="47.51948" lon="6.67122">
        <ele>371</ele>
        <time>2016-06-12T08:38:08.000Z</time>
      </trkpt>
      <trkpt lat="47.51944" lon="6.67128">
        <ele>371</ele>
        <time>2016-06-12T08:38:09.000Z</time>
      </trkpt>
      <trkpt lat="47.51939" lon="6.67135">
        <ele>371</ele>
        <time>2016-06-12T08:38:10.000Z</time>
      </trkpt>
      <trkpt lat="47.51934" lon="6.67139">
        <ele>371</ele>
        <time>2016-06-12T08:38:11.000Z</time>
      </trkpt>
      <trkpt lat="47.5193" lon="6.67145">
        <ele>371</ele>
        <time>2016-06-12T08:38:12.000Z</time>
      </trkpt>
      <trkpt lat="47.51926" lon="6.67151">
        <ele>371</ele>
        <time>2016-06-12T08:38:13.000Z</time>
      </trkpt>
      <trkpt lat="47.51922" lon="6.67156">
        <ele>371</ele>
        <time>2016-06-12T08:38:14.000Z</time>
      </trkpt>
      <trkpt lat="47.51919" lon="6.6716">
        <ele>371</ele>
        <time>2016-06-12T08:38:15.000Z</time>
      </trkpt>
      <trkpt lat="47.51915" lon="6.67165">
        <ele>371</ele>
        <time>2016-06-12T08:38:16.000Z</time>
      </trkpt>
      <trkpt lat="47.51913" lon="6.67169">
        <ele>371</ele>
        <time>2016-06-12T08:38:17.000Z</time>
      </trkpt>
      <trkpt lat="47.51909" lon="6.67174">
        <ele>371</ele>
        <time>2016-06-12T08:38:18.000Z</time>
      </trkpt>
      <trkpt lat="47.51905" lon="6.67179">
        <ele>371</ele>
        <time>2016-06-12T08:38:19.000Z</time>
      </trkpt>
      <trkpt lat="47.51901" lon="6.67182">
        <ele>371</ele>
        <time>2016-06-12T08:38:20.000Z</time>
      </trkpt>
      <trkpt lat="47.51897" lon="6.67185">
        <ele>371</ele>
        <time>2016-06-12T08:38:21.000Z</time>
      </trkpt>
      <trkpt lat="47.51893" lon="6.67189">
        <ele>371</ele>
        <time>2016-06-12T08:38:22.000Z</time>
      </trkpt>
      <trkpt lat="47.51889" lon="6.67192">
        <ele>371</ele>
        <time>2016-06-12T08:38:23.000Z</time>
      </trkpt>
      <trkpt lat="47.51885" lon="6.67195">
        <ele>371</ele>
        <time>2016-06-12T08:38:24.000Z</time>
      </trkpt>
      <trkpt lat="47.51881" lon="6.67199">
        <ele>371</ele>
        <time>2016-06-12T08:38:25.000Z</time>
      </trkpt>
      <trkpt lat="47.51877" lon="6.67203">
        <ele>371</ele>
        <time>2016-06-12T08:38:26.000Z</time>
      </trkpt>
      <trkpt lat="47.51873" lon="6.67207">
        <ele>371</ele>
        <time>2016-06-12T08:38:27.000Z</time>
      </trkpt>
      <trkpt lat="47.51869" lon="6.67211">
        <ele>370</ele>
        <time>2016-06-12T08:38:28.000Z</time>
      </trkpt>
      <trkpt lat="47.51865" lon="6.67216">
        <ele>370</ele>
        <time>2016-06-12T08:38:29.000Z</time>
      </trkpt>
      <trkpt lat="47.51861" lon="6.67221">
        <ele>370</ele>
        <time>2016-06-12T08:38:30.000Z</time>
      </trkpt>
      <trkpt lat="47.51856" lon="6.67225">
        <ele>370</ele>
        <time>2016-06-12T08:38:31.000Z</time>
      </trkpt>
      <trkpt lat="47.51852" lon="6.67229">
        <ele>370</ele>
        <time>2016-06-12T08:38:32.000Z</time>
      </trkpt>
      <trkpt lat="47.51848" lon="6.67234">
        <ele>370</ele>
        <time>2016-06-12T08:38:33.000Z</time>
      </trkpt>
      <trkpt lat="47.51843" lon="6.67237">
        <ele>370</ele>
        <time>2016-06-12T08:38:33.999Z</time>
      </trkpt>
      <trkpt lat="47.51838" lon="6.67242">
        <ele>370</ele>
        <time>2016-06-12T08:38:35.000Z</time>
      </trkpt>
      <trkpt lat="47.51833" lon="6.67247">
        <ele>370</ele>
        <time>2016-06-12T08:38:36.000Z</time>
      </trkpt>
      <trkpt lat="47.51829" lon="6.67251">
        <ele>370</ele>
        <time>2016-06-12T08:38:37.000Z</time>
      </trkpt>
      <trkpt lat="47.51824" lon="6.67255">
        <ele>370</ele>
        <time>2016-06-12T08:38:38.000Z</time>
      </trkpt>
      <trkpt lat="47.51819" lon="6.6726">
        <ele>370</ele>
        <time>2016-06-12T08:38:39.000Z</time>
      </trkpt>
      <trkpt lat="47.51815" lon="6.67264">
        <ele>370</ele>
        <time>2016-06-12T08:38:40.000Z</time>
      </trkpt>
      <trkpt lat="47.51811" lon="6.67268">
        <ele>369</ele>
        <time>2016-06-12T08:38:41.000Z</time>
      </trkpt>
      <trkpt lat="47.51807" lon="6.67273">
        <ele>369</ele>
        <time>2016-06-12T08:38:42.000Z</time>
      </trkpt>
      <trkpt lat="47.51803" lon="6.67277">
        <ele>369</ele>
        <time>2016-06-12T08:38:43.000Z</time>
      </trkpt>
      <trkpt lat="47.51798" lon="6.67282">
        <ele>369</ele>
        <time>2016-06-12T08:38:44.000Z</time>
      </trkpt>
      <trkpt lat="47.51795" lon="6.67285">
        <ele>369</ele>
        <time>2016-06-12T08:38:45.000Z</time>
      </trkpt>
      <trkpt lat="47.51791" lon="6.67288">
        <ele>369</ele>
        <time>2016-06-12T08:38:46.000Z</time>
      </trkpt>
      <trkpt lat="47.51787" lon="6.67293">
        <ele>369</ele>
        <time>2016-06-12T08:38:47.000Z</time>
      </trkpt>
      <trkpt lat="47.51784" lon="6.67296">
        <ele>369</ele>
        <time>2016-06-12T08:38:48.000Z</time>
      </trkpt>
      <trkpt lat="47.51781" lon="6.67299">
        <ele>369</ele>
        <time>2016-06-12T08:38:49.000Z</time>
      </trkpt>
      <trkpt lat="47.51777" lon="6.67304">
        <ele>369</ele>
        <time>2016-06-12T08:38:49.999Z</time>
      </trkpt>
      <trkpt lat="47.51773" lon="6.67307">
        <ele>369</ele>
        <time>2016-06-12T08:38:51.000Z</time>
      </trkpt>
      <trkpt lat="47.51769" lon="6.67311">
        <ele>369</ele>
        <time>2016-06-12T08:38:52.000Z</time>
      </trkpt>
      <trkpt lat="47.51765" lon="6.67315">
        <ele>369</ele>
        <time>2016-06-12T08:38:53.000Z</time>
      </trkpt>
      <trkpt lat="47.51761" lon="6.67318">
        <ele>369</ele>
        <time>2016-06-12T08:38:53.999Z</time>
      </trkpt>
      <trkpt lat="47.51759" lon="6.67321">
        <ele>369</ele>
        <time>2016-06-12T08:38:55.000Z</time>
      </trkpt>
      <trkpt lat="47.51755" lon="6.67323">
        <ele>369</ele>
        <time>2016-06-12T08:38:56.001Z</time>
      </trkpt>
      <trkpt lat="47.51755" lon="6.67324">
        <ele>369</ele>
        <time>2016-06-12T08:38:57.000Z</time>
      </trkpt>
      <trkpt lat="47.51752" lon="6.67328">
        <ele>369</ele>
        <time>2016-06-12T08:38:58.000Z</time>
      </trkpt>
      <trkpt lat="47.51745" lon="6.67332">
        <ele>369</ele>
        <time>2016-06-12T08:38:59.000Z</time>
      </trkpt>
      <trkpt lat="47.51741" lon="6.67337">
        <ele>369</ele>
        <time>2016-06-12T08:39:00.000Z</time>
      </trkpt>
      <trkpt lat="47.51737" lon="6.6734">
        <ele>369</ele>
        <time>2016-06-12T08:39:01.000Z</time>
      </trkpt>
      <trkpt lat="47.51733" lon="6.67345">
        <ele>369</ele>
        <time>2016-06-12T08:39:02.000Z</time>
      </trkpt>
      <trkpt lat="47.51728" lon="6.67347">
        <ele>369</ele>
        <time>2016-06-12T08:39:03.000Z</time>
      </trkpt>
      <trkpt lat="47.51723" lon="6.67351">
        <ele>369</ele>
        <time>2016-06-12T08:39:04.000Z</time>
      </trkpt>
      <trkpt lat="47.51719" lon="6.67355">
        <ele>369</ele>
        <time>2016-06-12T08:39:05.000Z</time>
      </trkpt>
      <trkpt lat="47.51716" lon="6.67358">
        <ele>369</ele>
        <time>2016-06-12T08:39:06.000Z</time>
      </trkpt>
      <trkpt lat="47.51712" lon="6.67361">
        <ele>369</ele>
        <time>2016-06-12T08:39:07.000Z</time>
      </trkpt>
      <trkpt lat="47.51707" lon="6.67364">
        <ele>368</ele>
        <time>2016-06-12T08:39:08.000Z</time>
      </trkpt>
      <trkpt lat="47.51704" lon="6.6737">
        <ele>368</ele>
        <time>2016-06-12T08:39:09.000Z</time>
      </trkpt>
      <trkpt lat="47.517" lon="6.67375">
        <ele>368</ele>
        <time>2016-06-12T08:39:10.001Z</time>
      </trkpt>
      <trkpt lat="47.51696" lon="6.67378">
        <ele>369</ele>
        <time>2016-06-12T08:39:11.000Z</time>
      </trkpt>
      <trkpt lat="47.51692" lon="6.67382">
        <ele>369</ele>
        <time>2016-06-12T08:39:12.000Z</time>
      </trkpt>
      <trkpt lat="47.51689" lon="6.67387">
        <ele>369</ele>
        <time>2016-06-12T08:39:13.000Z</time>
      </trkpt>
      <trkpt lat="47.51684" lon="6.6739">
        <ele>369</ele>
        <time>2016-06-12T08:39:14.000Z</time>
      </trkpt>
      <trkpt lat="47.51679" lon="6.67392">
        <ele>369</ele>
        <time>2016-06-12T08:39:15.000Z</time>
      </trkpt>
      <trkpt lat="47.51675" lon="6.67395">
        <ele>369</ele>
        <time>2016-06-12T08:39:16.001Z</time>
      </trkpt>
      <trkpt lat="47.51672" lon="6.67399">
        <ele>369</ele>
        <time>2016-06-12T08:39:17.000Z</time>
      </trkpt>
      <trkpt lat="47.51668" lon="6.67401">
        <ele>369</ele>
        <time>2016-06-12T08:39:18.000Z</time>
      </trkpt>
      <trkpt lat="47.51664" lon="6.67403">
        <ele>369</ele>
        <time>2016-06-12T08:39:19.000Z</time>
      </trkpt>
      <trkpt lat="47.51661" lon="6.67407">
        <ele>369</ele>
        <time>2016-06-12T08:39:20.000Z</time>
      </trkpt>
      <trkpt lat="47.51659" lon="6.6741">
        <ele>369</ele>
        <time>2016-06-12T08:39:21.000Z</time>
      </trkpt>
      <trkpt lat="47.51656" lon="6.67414">
        <ele>369</ele>
        <time>2016-06-12T08:39:22.000Z</time>
      </trkpt>
      <trkpt lat="47.51652" lon="6.67418">
        <ele>369</ele>
        <time>2016-06-12T08:39:23.000Z</time>
      </trkpt>
      <trkpt lat="47.5165" lon="6.67422">
        <ele>369</ele>
        <time>2016-06-12T08:39:24.000Z</time>
      </trkpt>
      <trkpt lat="47.51647" lon="6.67426">
        <ele>369</ele>
        <time>2016-06-12T08:39:25.000Z</time>
      </trkpt>
      <trkpt lat="47.51644" lon="6.67429">
        <ele>369</ele>
        <time>2016-06-12T08:39:26.000Z</time>
      </trkpt>
      <trkpt lat="47.51641" lon="6.67432">
        <ele>369</ele>
        <time>2016-06-12T08:39:27.000Z</time>
      </trkpt>
      <trkpt lat="47.51638" lon="6.67436">
        <ele>369</ele>
        <time>2016-06-12T08:39:28.000Z</time>
      </trkpt>
      <trkpt lat="47.51635" lon="6.67439">
        <ele>369</ele>
        <time>2016-06-12T08:39:29.000Z</time>
      </trkpt>
      <trkpt lat="47.51632" lon="6.67443">
        <ele>369</ele>
        <time>2016-06-12T08:39:30.000Z</time>
      </trkpt>
      <trkpt lat="47.5163" lon="6.67447">
        <ele>370</ele>
        <time>2016-06-12T08:39:31.000Z</time>
      </trkpt>
      <trkpt lat="47.51627" lon="6.6745">
        <ele>370</ele>
        <time>2016-06-12T08:39:32.000Z</time>
      </trkpt>
      <trkpt lat="47.51625" lon="6.67454">
        <ele>370</ele>
        <time>2016-06-12T08:39:33.000Z</time>
      </trkpt>
      <trkpt lat="47.51622" lon="6.67458">
        <ele>370</ele>
        <time>2016-06-12T08:39:34.000Z</time>
      </trkpt>
      <trkpt lat="47.5162" lon="6.67461">
        <ele>370</ele>
        <time>2016-06-12T08:39:35.000Z</time>
      </trkpt>
      <trkpt lat="47.51618" lon="6.67466">
        <ele>370</ele>
        <time>2016-06-12T08:39:36.000Z</time>
      </trkpt>
      <trkpt lat="47.51616" lon="6.6747">
        <ele>370</ele>
        <time>2016-06-12T08:39:37.000Z</time>
      </trkpt>
      <trkpt lat="47.51614" lon="6.67475">
        <ele>370</ele>
        <time>2016-06-12T08:39:38.000Z</time>
      </trkpt>
      <trkpt lat="47.51613" lon="6.6748">
        <ele>370</ele>
        <time>2016-06-12T08:39:39.000Z</time>
      </trkpt>
      <trkpt lat="47.51611" lon="6.67485">
        <ele>370</ele>
        <time>2016-06-12T08:39:40.000Z</time>
      </trkpt>
      <trkpt lat="47.51609" lon="6.6749">
        <ele>370</ele>
        <time>2016-06-12T08:39:41.000Z</time>
      </trkpt>
      <trkpt lat="47.51607" lon="6.67495">
        <ele>370</ele>
        <time>2016-06-12T08:39:42.000Z</time>
      </trkpt>
      <trkpt lat="47.51605" lon="6.67499">
        <ele>370</ele>
        <time>2016-06-12T08:39:43.000Z</time>
      </trkpt>
      <trkpt lat="47.51603" lon="6.67504">
        <ele>369</ele>
        <time>2016-06-12T08:39:44.000Z</time>
      </trkpt>
      <trkpt lat="47.51601" lon="6.67509">
        <ele>369</ele>
        <time>2016-06-12T08:39:45.000Z</time>
      </trkpt>
      <trkpt lat="47.51599" lon="6.67513">
        <ele>369</ele>
        <time>2016-06-12T08:39:46.000Z</time>
      </trkpt>
      <trkpt lat="47.51597" lon="6.67518">
        <ele>369</ele>
        <time>2016-06-12T08:39:47.000Z</time>
      </trkpt>
      <trkpt lat="47.51595" lon="6.67522">
        <ele>369</ele>
        <time>2016-06-12T08:39:48.000Z</time>
      </trkpt>
      <trkpt lat="47.51594" lon="6.67526">
        <ele>369</ele>
        <time>2016-06-12T08:39:49.000Z</time>
      </trkpt>
      <trkpt lat="47.51592" lon="6.6753">
        <ele>369</ele>
        <time>2016-06-12T08:39:50.000Z</time>
      </trkpt>
      <trkpt lat="47.5159" lon="6.67534">
        <ele>369</ele>
        <time>2016-06-12T08:39:51.000Z</time>
      </trkpt>
      <trkpt lat="47.51588" lon="6.67538">
        <ele>369</ele>
        <time>2016-06-12T08:39:52.000Z</time>
      </trkpt>
      <trkpt lat="47.51586" lon="6.67541">
        <ele>369</ele>
        <time>2016-06-12T08:39:53.000Z</time>
      </trkpt>
      <trkpt lat="47.51585" lon="6.67545">
        <ele>369</ele>
        <time>2016-06-12T08:39:54.000Z</time>
      </trkpt>
      <trkpt lat="47.51583" lon="6.67549">
        <ele>370</ele>
        <time>2016-06-12T08:39:55.000Z</time>
      </trkpt>
      <trkpt lat="47.51581" lon="6.67554">
        <ele>370</ele>
        <time>2016-06-12T08:39:56.000Z</time>
      </trkpt>
      <trkpt lat="47.51579" lon="6.67558">
        <ele>370</ele>
        <time>2016-06-12T08:39:57.000Z</time>
      </trkpt>
      <trkpt lat="47.51577" lon="6.67562">
        <ele>370</ele>
        <time>2016-06-12T08:39:58.000Z</time>
      </trkpt>
      <trkpt lat="47.51575" lon="6.67566">
        <ele>370</ele>
        <time>2016-06-12T08:39:59.000Z</time>
      </trkpt>
      <trkpt lat="47.51573" lon="6.6757">
        <ele>370</ele>
        <time>2016-06-12T08:40:00.000Z</time>
      </trkpt>
      <trkpt lat="47.51571" lon="6.67574">
        <ele>370</ele>
        <time>2016-06-12T08:40:01.001Z</time>
      </trkpt>
      <trkpt lat="47.51569" lon="6.67578">
        <ele>370</ele>
        <time>2016-06-12T08:40:02.000Z</time>
      </trkpt>
      <trkpt lat="47.51567" lon="6.67582">
        <ele>370</ele>
        <time>2016-06-12T08:40:03.000Z</time>
      </trkpt>
      <trkpt lat="47.51565" lon="6.67586">
        <ele>370</ele>
        <time>2016-06-12T08:40:04.000Z</time>
      </trkpt>
      <trkpt lat="47.51563" lon="6.67591">
        <ele>370</ele>
        <time>2016-06-12T08:40:04.999Z</time>
      </trkpt>
      <trkpt lat="47.51561" lon="6.67596">
        <ele>370</ele>
        <time>2016-06-12T08:40:06.000Z</time>
      </trkpt>
      <trkpt lat="47.51558" lon="6.676">
        <ele>370</ele>
        <time>2016-06-12T08:40:06.999Z</time>
      </trkpt>
      <trkpt lat="47.51556" lon="6.67605">
        <ele>370</ele>
        <time>2016-06-12T08:40:08.000Z</time>
      </trkpt>
      <trkpt lat="47.51554" lon="6.6761">
        <ele>370</ele>
        <time>2016-06-12T08:40:08.999Z</time>
      </trkpt>
      <trkpt lat="47.51553" lon="6.67613">
        <ele>370</ele>
        <time>2016-06-12T08:40:10.000Z</time>
      </trkpt>
      <trkpt lat="47.51551" lon="6.67618">
        <ele>370</ele>
        <time>2016-06-12T08:40:11.000Z</time>
      </trkpt>
      <trkpt lat="47.51549" lon="6.67622">
        <ele>370</ele>
        <time>2016-06-12T08:40:12.000Z</time>
      </trkpt>
      <trkpt lat="47.51548" lon="6.67626">
        <ele>370</ele>
        <time>2016-06-12T08:40:13.000Z</time>
      </trkpt>
      <trkpt lat="47.51546" lon="6.67631">
        <ele>370</ele>
        <time>2016-06-12T08:40:14.000Z</time>
      </trkpt>
      <trkpt lat="47.51544" lon="6.67635">
        <ele>370</ele>
        <time>2016-06-12T08:40:15.000Z</time>
      </trkpt>
      <trkpt lat="47.51542" lon="6.67639">
        <ele>370</ele>
        <time>2016-06-12T08:40:16.000Z</time>
      </trkpt>
      <trkpt lat="47.5154" lon="6.67644">
        <ele>370</ele>
        <time>2016-06-12T08:40:17.000Z</time>
      </trkpt>
      <trkpt lat="47.51537" lon="6.67648">
        <ele>370</ele>
        <time>2016-06-12T08:40:18.000Z</time>
      </trkpt>
      <trkpt lat="47.51535" lon="6.67652">
        <ele>370</ele>
        <time>2016-06-12T08:40:19.000Z</time>
      </trkpt>
      <trkpt lat="47.51532" lon="6.67656">
        <ele>370</ele>
        <time>2016-06-12T08:40:20.000Z</time>
      </trkpt>
      <trkpt lat="47.5153" lon="6.67661">
        <ele>370</ele>
        <time>2016-06-12T08:40:21.000Z</time>
      </trkpt>
      <trkpt lat="47.51528" lon="6.67666">
        <ele>370</ele>
        <time>2016-06-12T08:40:22.000Z</time>
      </trkpt>
      <trkpt lat="47.51525" lon="6.67672">
        <ele>370</ele>
        <time>2016-06-12T08:40:23.000Z</time>
      </trkpt>
      <trkpt lat="47.51523" lon="6.67677">
        <ele>370</ele>
        <time>2016-06-12T08:40:24.000Z</time>
      </trkpt>
      <trkpt lat="47.51521" lon="6.67682">
        <ele>370</ele>
        <time>2016-06-12T08:40:25.000Z</time>
      </trkpt>
      <trkpt lat="47.51519" lon="6.67687">
        <ele>370</ele>
        <time>2016-06-12T08:40:26.000Z</time>
      </trkpt>
      <trkpt lat="47.51517" lon="6.67692">
        <ele>370</ele>
        <time>2016-06-12T08:40:26.999Z</time>
      </trkpt>
      <trkpt lat="47.51515" lon="6.67696">
        <ele>370</ele>
        <time>2016-06-12T08:40:28.000Z</time>
      </trkpt>
      <trkpt lat="47.51514" lon="6.677">
        <ele>369</ele>
        <time>2016-06-12T08:40:29.000Z</time>
      </trkpt>
      <trkpt lat="47.51512" lon="6.67704">
        <ele>369</ele>
        <time>2016-06-12T08:40:30.000Z</time>
      </trkpt>
      <trkpt lat="47.51511" lon="6.67708">
        <ele>369</ele>
        <time>2016-06-12T08:40:31.000Z</time>
      </trkpt>
      <trkpt lat="47.51509" lon="6.67712">
        <ele>369</ele>
        <time>2016-06-12T08:40:32.000Z</time>
      </trkpt>
      <trkpt lat="47.51508" lon="6.67715">
        <ele>370</ele>
        <time>2016-06-12T08:40:33.000Z</time>
      </trkpt>
      <trkpt lat="47.51507" lon="6.67719">
        <ele>370</ele>
        <time>2016-06-12T08:40:34.000Z</time>
      </trkpt>
      <trkpt lat="47.51505" lon="6.67723">
        <ele>370</ele>
        <time>2016-06-12T08:40:35.000Z</time>
      </trkpt>
      <trkpt lat="47.51504" lon="6.67726">
        <ele>370</ele>
        <time>2016-06-12T08:40:36.000Z</time>
      </trkpt>
      <trkpt lat="47.51503" lon="6.67729">
        <ele>370</ele>
        <time>2016-06-12T08:40:37.000Z</time>
      </trkpt>
      <trkpt lat="47.51501" lon="6.67732">
        <ele>370</ele>
        <time>2016-06-12T08:40:38.000Z</time>
      </trkpt>
      <trkpt lat="47.515" lon="6.67736">
        <ele>370</ele>
        <time>2016-06-12T08:40:39.000Z</time>
      </trkpt>
      <trkpt lat="47.51498" lon="6.67739">
        <ele>370</ele>
        <time>2016-06-12T08:40:40.001Z</time>
      </trkpt>
      <trkpt lat="47.51497" lon="6.67742">
        <ele>370</ele>
        <time>2016-06-12T08:40:41.000Z</time>
      </trkpt>
      <trkpt lat="47.51496" lon="6.67745">
        <ele>370</ele>
        <time>2016-06-12T08:40:42.000Z</time>
      </trkpt>
      <trkpt lat="47.51495" lon="6.67749">
        <ele>370</ele>
        <time>2016-06-12T08:40:43.000Z</time>
      </trkpt>
      <trkpt lat="47.51493" lon="6.67752">
        <ele>370</ele>
        <time>2016-06-12T08:40:44.000Z</time>
      </trkpt>
      <trkpt lat="47.51492" lon="6.67756">
        <ele>370</ele>
        <time>2016-06-12T08:40:45.000Z</time>
      </trkpt>
      <trkpt lat="47.51491" lon="6.67759">
        <ele>370</ele>
        <time>2016-06-12T08:40:46.000Z</time>
      </trkpt>
      <trkpt lat="47.51489" lon="6.67763">
        <ele>370</ele>
        <time>2016-06-12T08:40:47.000Z</time>
      </trkpt>
      <trkpt lat="47.51488" lon="6.67767">
        <ele>370</ele>
        <time>2016-06-12T08:40:48.000Z</time>
      </trkpt>
      <trkpt lat="47.51486" lon="6.6777">
        <ele>370</ele>
        <time>2016-06-12T08:40:49.000Z</time>
      </trkpt>
      <trkpt lat="47.51485" lon="6.67774">
        <ele>370</ele>
        <time>2016-06-12T08:40:50.000Z</time>
      </trkpt>
      <trkpt lat="47.51483" lon="6.67778">
        <ele>370</ele>
        <time>2016-06-12T08:40:51.000Z</time>
      </trkpt>
      <trkpt lat="47.51482" lon="6.67782">
        <ele>370</ele>
        <time>2016-06-12T08:40:52.000Z</time>
      </trkpt>
      <trkpt lat="47.51481" lon="6.67785">
        <ele>370</ele>
        <time>2016-06-12T08:40:53.000Z</time>
      </trkpt>
      <trkpt lat="47.5148" lon="6.67789">
        <ele>370</ele>
        <time>2016-06-12T08:40:54.000Z</time>
      </trkpt>
      <trkpt lat="47.5148" lon="6.67792">
        <ele>370</ele>
        <time>2016-06-12T08:40:55.000Z</time>
      </trkpt>
      <trkpt lat="47.51479" lon="6.67796">
        <ele>370</ele>
        <time>2016-06-12T08:40:56.000Z</time>
      </trkpt>
      <trkpt lat="47.51477" lon="6.67799">
        <ele>370</ele>
        <time>2016-06-12T08:40:57.000Z</time>
      </trkpt>
      <trkpt lat="47.51475" lon="6.67803">
        <ele>370</ele>
        <time>2016-06-12T08:40:58.000Z</time>
      </trkpt>
      <trkpt lat="47.51474" lon="6.67807">
        <ele>370</ele>
        <time>2016-06-12T08:40:58.999Z</time>
      </trkpt>
      <trkpt lat="47.51472" lon="6.67811">
        <ele>370</ele>
        <time>2016-06-12T08:41:00.000Z</time>
      </trkpt>
      <trkpt lat="47.51471" lon="6.67814">
        <ele>370</ele>
        <time>2016-06-12T08:41:01.000Z</time>
      </trkpt>
      <trkpt lat="47.5147" lon="6.67817">
        <ele>370</ele>
        <time>2016-06-12T08:41:02.000Z</time>
      </trkpt>
      <trkpt lat="47.51469" lon="6.6782">
        <ele>370</ele>
        <time>2016-06-12T08:41:03.000Z</time>
      </trkpt>
      <trkpt lat="47.51468" lon="6.67823">
        <ele>370</ele>
        <time>2016-06-12T08:41:04.000Z</time>
      </trkpt>
      <trkpt lat="47.51466" lon="6.67826">
        <ele>370</ele>
        <time>2016-06-12T08:41:05.000Z</time>
      </trkpt>
      <trkpt lat="47.51465" lon="6.67829">
        <ele>370</ele>
        <time>2016-06-12T08:41:06.000Z</time>
      </trkpt>
      <trkpt lat="47.51464" lon="6.67832">
        <ele>370</ele>
        <time>2016-06-12T08:41:07.000Z</time>
      </trkpt>
      <trkpt lat="47.51463" lon="6.67835">
        <ele>370</ele>
        <time>2016-06-12T08:41:08.000Z</time>
      </trkpt>
      <trkpt lat="47.51461" lon="6.67838">
        <ele>370</ele>
        <time>2016-06-12T08:41:09.000Z</time>
      </trkpt>
      <trkpt lat="47.51459" lon="6.67843">
        <ele>370</ele>
        <time>2016-06-12T08:41:11.000Z</time>
      </trkpt>
      <trkpt lat="47.51458" lon="6.67846">
        <ele>370</ele>
        <time>2016-06-12T08:41:11.999Z</time>
      </trkpt>
      <trkpt lat="47.51457" lon="6.67849">
        <ele>370</ele>
        <time>2016-06-12T08:41:13.000Z</time>
      </trkpt>
      <trkpt lat="47.51455" lon="6.67852">
        <ele>370</ele>
        <time>2016-06-12T08:41:14.001Z</time>
      </trkpt>
      <trkpt lat="47.51454" lon="6.67855">
        <ele>370</ele>
        <time>2016-06-12T08:41:15.000Z</time>
      </trkpt>
      <trkpt lat="47.51452" lon="6.67858">
        <ele>370</ele>
        <time>2016-06-12T08:41:16.000Z</time>
      </trkpt>
      <trkpt lat="47.5145" lon="6.67861">
        <ele>370</ele>
        <time>2016-06-12T08:41:17.000Z</time>
      </trkpt>
      <trkpt lat="47.51449" lon="6.67864">
        <ele>370</ele>
        <time>2016-06-12T08:41:18.000Z</time>
      </trkpt>
      <trkpt lat="47.51448" lon="6.67867">
        <ele>370</ele>
        <time>2016-06-12T08:41:19.000Z</time>
      </trkpt>
      <trkpt lat="47.51446" lon="6.6787">
        <ele>370</ele>
        <time>2016-06-12T08:41:20.000Z</time>
      </trkpt>
      <trkpt lat="47.51445" lon="6.67873">
        <ele>370</ele>
        <time>2016-06-12T08:41:21.000Z</time>
      </trkpt>
      <trkpt lat="47.51443" lon="6.67876">
        <ele>370</ele>
        <time>2016-06-12T08:41:22.000Z</time>
      </trkpt>
      <trkpt lat="47.51441" lon="6.67879">
        <ele>370</ele>
        <time>2016-06-12T08:41:23.000Z</time>
      </trkpt>
      <trkpt lat="47.51439" lon="6.67882">
        <ele>370</ele>
        <time>2016-06-12T08:41:23.998Z</time>
      </trkpt>
      <trkpt lat="47.51437" lon="6.67886">
        <ele>370</ele>
        <time>2016-06-12T08:41:25.000Z</time>
      </trkpt>
      <trkpt lat="47.51436" lon="6.67889">
        <ele>370</ele>
        <time>2016-06-12T08:41:26.000Z</time>
      </trkpt>
      <trkpt lat="47.51434" lon="6.67892">
        <ele>370</ele>
        <time>2016-06-12T08:41:27.000Z</time>
      </trkpt>
      <trkpt lat="47.51433" lon="6.67895">
        <ele>370</ele>
        <time>2016-06-12T08:41:28.000Z</time>
      </trkpt>
      <trkpt lat="47.51431" lon="6.67899">
        <ele>370</ele>
        <time>2016-06-12T08:41:29.000Z</time>
      </trkpt>
      <trkpt lat="47.5143" lon="6.67902">
        <ele>370</ele>
        <time>2016-06-12T08:41:30.000Z</time>
      </trkpt>
      <trkpt lat="47.51429" lon="6.67905">
        <ele>370</ele>
        <time>2016-06-12T08:41:31.000Z</time>
      </trkpt>
      <trkpt lat="47.51427" lon="6.67908">
        <ele>371</ele>
        <time>2016-06-12T08:41:31.999Z</time>
      </trkpt>
      <trkpt lat="47.51425" lon="6.67912">
        <ele>371</ele>
        <time>2016-06-12T08:41:33.000Z</time>
      </trkpt>
      <trkpt lat="47.51424" lon="6.67916">
        <ele>371</ele>
        <time>2016-06-12T08:41:34.000Z</time>
      </trkpt>
      <trkpt lat="47.51422" lon="6.67919">
        <ele>371</ele>
        <time>2016-06-12T08:41:35.000Z</time>
      </trkpt>
      <trkpt lat="47.5142" lon="6.67923">
        <ele>371</ele>
        <time>2016-06-12T08:41:36.000Z</time>
      </trkpt>
      <trkpt lat="47.51419" lon="6.67926">
        <ele>371</ele>
        <time>2016-06-12T08:41:37.000Z</time>
      </trkpt>
      <trkpt lat="47.51417" lon="6.6793">
        <ele>370</ele>
        <time>2016-06-12T08:41:37.999Z</time>
      </trkpt>
      <trkpt lat="47.51416" lon="6.67933">
        <ele>371</ele>
        <time>2016-06-12T08:41:39.000Z</time>
      </trkpt>
      <trkpt lat="47.51414" lon="6.67936">
        <ele>371</ele>
        <time>2016-06-12T08:41:40.000Z</time>
      </trkpt>
      <trkpt lat="47.51413" lon="6.67939">
        <ele>371</ele>
        <time>2016-06-12T08:41:41.000Z</time>
      </trkpt>
      <trkpt lat="47.51412" lon="6.67943">
        <ele>371</ele>
        <time>2016-06-12T08:41:42.000Z</time>
      </trkpt>
      <trkpt lat="47.51411" lon="6.67946">
        <ele>371</ele>
        <time>2016-06-12T08:41:43.000Z</time>
      </trkpt>
      <trkpt lat="47.51409" lon="6.67949">
        <ele>371</ele>
        <time>2016-06-12T08:41:44.000Z</time>
      </trkpt>
      <trkpt lat="47.51407" lon="6.67953">
        <ele>371</ele>
        <time>2016-06-12T08:41:45.000Z</time>
      </trkpt>
      <trkpt lat="47.51406" lon="6.67957">
        <ele>371</ele>
        <time>2016-06-12T08:41:46.000Z</time>
      </trkpt>
      <trkpt lat="47.51404" lon="6.67961">
        <ele>371</ele>
        <time>2016-06-12T08:41:47.000Z</time>
      </trkpt>
      <trkpt lat="47.51403" lon="6.67966">
        <ele>371</ele>
        <time>2016-06-12T08:41:48.000Z</time>
      </trkpt>
      <trkpt lat="47.51401" lon="6.6797">
        <ele>371</ele>
        <time>2016-06-12T08:41:48.999Z</time>
      </trkpt>
      <trkpt lat="47.51399" lon="6.67976">
        <ele>371</ele>
        <time>2016-06-12T08:41:50.000Z</time>
      </trkpt>
      <trkpt lat="47.51397" lon="6.6798">
        <ele>371</ele>
        <time>2016-06-12T08:41:51.000Z</time>
      </trkpt>
      <trkpt lat="47.51396" lon="6.67985">
        <ele>371</ele>
        <time>2016-06-12T08:41:52.000Z</time>
      </trkpt>
      <trkpt lat="47.51394" lon="6.67988">
        <ele>371</ele>
        <time>2016-06-12T08:41:53.000Z</time>
      </trkpt>
      <trkpt lat="47.51392" lon="6.67992">
        <ele>371</ele>
        <time>2016-06-12T08:41:54.000Z</time>
      </trkpt>
      <trkpt lat="47.5139" lon="6.67996">
        <ele>371</ele>
        <time>2016-06-12T08:41:55.000Z</time>
      </trkpt>
      <trkpt lat="47.51388" lon="6.68">
        <ele>371</ele>
        <time>2016-06-12T08:41:56.000Z</time>
      </trkpt>
      <trkpt lat="47.51387" lon="6.68005">
        <ele>371</ele>
        <time>2016-06-12T08:41:57.000Z</time>
      </trkpt>
      <trkpt lat="47.51385" lon="6.6801">
        <ele>371</ele>
        <time>2016-06-12T08:41:58.000Z</time>
      </trkpt>
      <trkpt lat="47.51383" lon="6.68014">
        <ele>371</ele>
        <time>2016-06-12T08:41:58.999Z</time>
      </trkpt>
      <trkpt lat="47.51382" lon="6.68019">
        <ele>371</ele>
        <time>2016-06-12T08:42:00.000Z</time>
      </trkpt>
      <trkpt lat="47.51381" lon="6.68023">
        <ele>371</ele>
        <time>2016-06-12T08:42:01.000Z</time>
      </trkpt>
      <trkpt lat="47.51379" lon="6.68027">
        <ele>371</ele>
        <time>2016-06-12T08:42:02.000Z</time>
      </trkpt>
      <trkpt lat="47.51378" lon="6.6803">
        <ele>371</ele>
        <time>2016-06-12T08:42:03.000Z</time>
      </trkpt>
      <trkpt lat="47.51376" lon="6.68033">
        <ele>371</ele>
        <time>2016-06-12T08:42:04.000Z</time>
      </trkpt>
      <trkpt lat="47.51374" lon="6.68036">
        <ele>370</ele>
        <time>2016-06-12T08:42:05.000Z</time>
      </trkpt>
      <trkpt lat="47.51373" lon="6.68039">
        <ele>370</ele>
        <time>2016-06-12T08:42:06.000Z</time>
      </trkpt>
      <trkpt lat="47.51371" lon="6.68043">
        <ele>371</ele>
        <time>2016-06-12T08:42:07.000Z</time>
      </trkpt>
      <trkpt lat="47.5137" lon="6.68046">
        <ele>371</ele>
        <time>2016-06-12T08:42:08.000Z</time>
      </trkpt>
      <trkpt lat="47.51368" lon="6.68049">
        <ele>371</ele>
        <time>2016-06-12T08:42:08.999Z</time>
      </trkpt>
      <trkpt lat="47.51367" lon="6.68053">
        <ele>371</ele>
        <time>2016-06-12T08:42:10.000Z</time>
      </trkpt>
      <trkpt lat="47.51365" lon="6.68057">
        <ele>371</ele>
        <time>2016-06-12T08:42:11.000Z</time>
      </trkpt>
      <trkpt lat="47.51364" lon="6.68061">
        <ele>371</ele>
        <time>2016-06-12T08:42:12.000Z</time>
      </trkpt>
      <trkpt lat="47.51362" lon="6.68065">
        <ele>371</ele>
        <time>2016-06-12T08:42:13.000Z</time>
      </trkpt>
      <trkpt lat="47.5136" lon="6.68068">
        <ele>371</ele>
        <time>2016-06-12T08:42:14.000Z</time>
      </trkpt>
      <trkpt lat="47.51358" lon="6.68072">
        <ele>371</ele>
        <time>2016-06-12T08:42:15.000Z</time>
      </trkpt>
      <trkpt lat="47.51357" lon="6.68076">
        <ele>371</ele>
        <time>2016-06-12T08:42:16.000Z</time>
      </trkpt>
      <trkpt lat="47.51355" lon="6.6808">
        <ele>371</ele>
        <time>2016-06-12T08:42:17.000Z</time>
      </trkpt>
      <trkpt lat="47.51353" lon="6.68084">
        <ele>371</ele>
        <time>2016-06-12T08:42:18.000Z</time>
      </trkpt>
      <trkpt lat="47.51352" lon="6.68088">
        <ele>371</ele>
        <time>2016-06-12T08:42:19.000Z</time>
      </trkpt>
      <trkpt lat="47.51351" lon="6.68093">
        <ele>371</ele>
        <time>2016-06-12T08:42:20.000Z</time>
      </trkpt>
      <trkpt lat="47.51349" lon="6.68097">
        <ele>371</ele>
        <time>2016-06-12T08:42:21.000Z</time>
      </trkpt>
      <trkpt lat="47.51348" lon="6.68101">
        <ele>371</ele>
        <time>2016-06-12T08:42:22.000Z</time>
      </trkpt>
      <trkpt lat="47.51347" lon="6.68105">
        <ele>371</ele>
        <time>2016-06-12T08:42:23.000Z</time>
      </trkpt>
      <trkpt lat="47.51345" lon="6.68109">
        <ele>371</ele>
        <time>2016-06-12T08:42:24.000Z</time>
      </trkpt>
      <trkpt lat="47.51344" lon="6.68114">
        <ele>371</ele>
        <time>2016-06-12T08:42:25.000Z</time>
      </trkpt>
      <trkpt lat="47.51342" lon="6.68118">
        <ele>371</ele>
        <time>2016-06-12T08:42:26.000Z</time>
      </trkpt>
      <trkpt lat="47.51341" lon="6.68123">
        <ele>371</ele>
        <time>2016-06-12T08:42:27.000Z</time>
      </trkpt>
      <trkpt lat="47.51339" lon="6.68128">
        <ele>371</ele>
        <time>2016-06-12T08:42:28.000Z</time>
      </trkpt>
      <trkpt lat="47.51338" lon="6.68132">
        <ele>371</ele>
        <time>2016-06-12T08:42:29.000Z</time>
      </trkpt>
      <trkpt lat="47.51337" lon="6.68137">
        <ele>371</ele>
        <time>2016-06-12T08:42:30.000Z</time>
      </trkpt>
      <trkpt lat="47.51336" lon="6.68142">
        <ele>371</ele>
        <time>2016-06-12T08:42:31.000Z</time>
      </trkpt>
      <trkpt lat="47.51335" lon="6.68147">
        <ele>371</ele>
        <time>2016-06-12T08:42:32.000Z</time>
      </trkpt>
      <trkpt lat="47.51334" lon="6.68152">
        <ele>371</ele>
        <time>2016-06-12T08:42:33.000Z</time>
      </trkpt>
      <trkpt lat="47.51332" lon="6.68157">
        <ele>371</ele>
        <time>2016-06-12T08:42:34.000Z</time>
      </trkpt>
      <trkpt lat="47.51331" lon="6.68163">
        <ele>371</ele>
        <time>2016-06-12T08:42:35.000Z</time>
      </trkpt>
      <trkpt lat="47.5133" lon="6.68168">
        <ele>371</ele>
        <time>2016-06-12T08:42:35.999Z</time>
      </trkpt>
      <trkpt lat="47.51328" lon="6.68173">
        <ele>371</ele>
        <time>2016-06-12T08:42:37.000Z</time>
      </trkpt>
      <trkpt lat="47.51326" lon="6.68179">
        <ele>371</ele>
        <time>2016-06-12T08:42:38.000Z</time>
      </trkpt>
      <trkpt lat="47.51324" lon="6.68185">
        <ele>371</ele>
        <time>2016-06-12T08:42:39.000Z</time>
      </trkpt>
      <trkpt lat="47.51322" lon="6.6819">
        <ele>371</ele>
        <time>2016-06-12T08:42:40.000Z</time>
      </trkpt>
      <trkpt lat="47.5132" lon="6.68196">
        <ele>371</ele>
        <time>2016-06-12T08:42:41.000Z</time>
      </trkpt>
      <trkpt lat="47.51319" lon="6.68202">
        <ele>371</ele>
        <time>2016-06-12T08:42:42.000Z</time>
      </trkpt>
      <trkpt lat="47.51317" lon="6.68207">
        <ele>371</ele>
        <time>2016-06-12T08:42:43.000Z</time>
      </trkpt>
      <trkpt lat="47.51316" lon="6.68212">
        <ele>371</ele>
        <time>2016-06-12T08:42:44.000Z</time>
      </trkpt>
      <trkpt lat="47.51315" lon="6.68216">
        <ele>371</ele>
        <time>2016-06-12T08:42:45.000Z</time>
      </trkpt>
      <trkpt lat="47.51315" lon="6.68221">
        <ele>371</ele>
        <time>2016-06-12T08:42:46.000Z</time>
      </trkpt>
      <trkpt lat="47.51313" lon="6.68225">
        <ele>371</ele>
        <time>2016-06-12T08:42:47.000Z</time>
      </trkpt>
      <trkpt lat="47.51312" lon="6.6823">
        <ele>371</ele>
        <time>2016-06-12T08:42:48.000Z</time>
      </trkpt>
      <trkpt lat="47.51311" lon="6.68235">
        <ele>371</ele>
        <time>2016-06-12T08:42:49.000Z</time>
      </trkpt>
      <trkpt lat="47.5131" lon="6.68239">
        <ele>371</ele>
        <time>2016-06-12T08:42:50.000Z</time>
      </trkpt>
      <trkpt lat="47.51309" lon="6.68243">
        <ele>371</ele>
        <time>2016-06-12T08:42:51.000Z</time>
      </trkpt>
      <trkpt lat="47.51308" lon="6.68248">
        <ele>371</ele>
        <time>2016-06-12T08:42:52.000Z</time>
      </trkpt>
      <trkpt lat="47.51307" lon="6.68252">
        <ele>371</ele>
        <time>2016-06-12T08:42:53.000Z</time>
      </trkpt>
      <trkpt lat="47.51306" lon="6.68256">
        <ele>371</ele>
        <time>2016-06-12T08:42:54.000Z</time>
      </trkpt>
      <trkpt lat="47.51305" lon="6.6826">
        <ele>371</ele>
        <time>2016-06-12T08:42:55.000Z</time>
      </trkpt>
      <trkpt lat="47.51305" lon="6.68264">
        <ele>371</ele>
        <time>2016-06-12T08:42:56.000Z</time>
      </trkpt>
      <trkpt lat="47.51304" lon="6.68269">
        <ele>371</ele>
        <time>2016-06-12T08:42:57.000Z</time>
      </trkpt>
      <trkpt lat="47.51303" lon="6.68273">
        <ele>371</ele>
        <time>2016-06-12T08:42:58.000Z</time>
      </trkpt>
      <trkpt lat="47.51302" lon="6.68278">
        <ele>371</ele>
        <time>2016-06-12T08:42:59.000Z</time>
      </trkpt>
      <trkpt lat="47.51301" lon="6.68283">
        <ele>371</ele>
        <time>2016-06-12T08:43:00.000Z</time>
      </trkpt>
      <trkpt lat="47.513" lon="6.68288">
        <ele>370</ele>
        <time>2016-06-12T08:43:01.000Z</time>
      </trkpt>
      <trkpt lat="47.51299" lon="6.68293">
        <ele>370</ele>
        <time>2016-06-12T08:43:02.000Z</time>
      </trkpt>
      <trkpt lat="47.51297" lon="6.68298">
        <ele>370</ele>
        <time>2016-06-12T08:43:03.000Z</time>
      </trkpt>
      <trkpt lat="47.51296" lon="6.68303">
        <ele>370</ele>
        <time>2016-06-12T08:43:04.000Z</time>
      </trkpt>
      <trkpt lat="47.51295" lon="6.68308">
        <ele>370</ele>
        <time>2016-06-12T08:43:05.000Z</time>
      </trkpt>
      <trkpt lat="47.51294" lon="6.68314">
        <ele>370</ele>
        <time>2016-06-12T08:43:06.000Z</time>
      </trkpt>
      <trkpt lat="47.51294" lon="6.68318">
        <ele>370</ele>
        <time>2016-06-12T08:43:07.000Z</time>
      </trkpt>
      <trkpt lat="47.51294" lon="6.68323">
        <ele>370</ele>
        <time>2016-06-12T08:43:08.000Z</time>
      </trkpt>
      <trkpt lat="47.51293" lon="6.68328">
        <ele>370</ele>
        <time>2016-06-12T08:43:09.000Z</time>
      </trkpt>
      <trkpt lat="47.51292" lon="6.68334">
        <ele>370</ele>
        <time>2016-06-12T08:43:10.000Z</time>
      </trkpt>
      <trkpt lat="47.51291" lon="6.68339">
        <ele>370</ele>
        <time>2016-06-12T08:43:11.000Z</time>
      </trkpt>
      <trkpt lat="47.5129" lon="6.68344">
        <ele>370</ele>
        <time>2016-06-12T08:43:12.000Z</time>
      </trkpt>
      <trkpt lat="47.5129" lon="6.68349">
        <ele>370</ele>
        <time>2016-06-12T08:43:13.000Z</time>
      </trkpt>
      <trkpt lat="47.51289" lon="6.68354">
        <ele>370</ele>
        <time>2016-06-12T08:43:14.000Z</time>
      </trkpt>
      <trkpt lat="47.51287" lon="6.68359">
        <ele>370</ele>
        <time>2016-06-12T08:43:15.000Z</time>
      </trkpt>
      <trkpt lat="47.51286" lon="6.68363">
        <ele>370</ele>
        <time>2016-06-12T08:43:16.000Z</time>
      </trkpt>
      <trkpt lat="47.51284" lon="6.68368">
        <ele>371</ele>
        <time>2016-06-12T08:43:17.000Z</time>
      </trkpt>
      <trkpt lat="47.51283" lon="6.68372">
        <ele>371</ele>
        <time>2016-06-12T08:43:18.000Z</time>
      </trkpt>
      <trkpt lat="47.51282" lon="6.68376">
        <ele>371</ele>
        <time>2016-06-12T08:43:19.000Z</time>
      </trkpt>
      <trkpt lat="47.51282" lon="6.6838">
        <ele>371</ele>
        <time>2016-06-12T08:43:20.000Z</time>
      </trkpt>
      <trkpt lat="47.51281" lon="6.68384">
        <ele>371</ele>
        <time>2016-06-12T08:43:21.000Z</time>
      </trkpt>
      <trkpt lat="47.51281" lon="6.68388">
        <ele>371</ele>
        <time>2016-06-12T08:43:22.000Z</time>
      </trkpt>
      <trkpt lat="47.5128" lon="6.68392">
        <ele>371</ele>
        <time>2016-06-12T08:43:22.999Z</time>
      </trkpt>
      <trkpt lat="47.5128" lon="6.68395">
        <ele>371</ele>
        <time>2016-06-12T08:43:24.000Z</time>
      </trkpt>
      <trkpt lat="47.51279" lon="6.68399">
        <ele>371</ele>
        <time>2016-06-12T08:43:25.000Z</time>
      </trkpt>
      <trkpt lat="47.51279" lon="6.68403">
        <ele>371</ele>
        <time>2016-06-12T08:43:26.000Z</time>
      </trkpt>
      <trkpt lat="47.51278" lon="6.68407">
        <ele>371</ele>
        <time>2016-06-12T08:43:27.000Z</time>
      </trkpt>
      <trkpt lat="47.51278" lon="6.68411">
        <ele>371</ele>
        <time>2016-06-12T08:43:28.000Z</time>
      </trkpt>
      <trkpt lat="47.51277" lon="6.68416">
        <ele>371</ele>
        <time>2016-06-12T08:43:29.000Z</time>
      </trkpt>
      <trkpt lat="47.51277" lon="6.6842">
        <ele>371</ele>
        <time>2016-06-12T08:43:30.000Z</time>
      </trkpt>
      <trkpt lat="47.51276" lon="6.68425">
        <ele>371</ele>
        <time>2016-06-12T08:43:31.000Z</time>
      </trkpt>
      <trkpt lat="47.51276" lon="6.6843">
        <ele>371</ele>
        <time>2016-06-12T08:43:32.000Z</time>
      </trkpt>
      <trkpt lat="47.51275" lon="6.68434">
        <ele>371</ele>
        <time>2016-06-12T08:43:33.000Z</time>
      </trkpt>
      <trkpt lat="47.51275" lon="6.68438">
        <ele>371</ele>
        <time>2016-06-12T08:43:34.000Z</time>
      </trkpt>
      <trkpt lat="47.51274" lon="6.68443">
        <ele>371</ele>
        <time>2016-06-12T08:43:35.000Z</time>
      </trkpt>
      <trkpt lat="47.51273" lon="6.68447">
        <ele>371</ele>
        <time>2016-06-12T08:43:36.000Z</time>
      </trkpt>
      <trkpt lat="47.51272" lon="6.68452">
        <ele>371</ele>
        <time>2016-06-12T08:43:37.000Z</time>
      </trkpt>
      <trkpt lat="47.51271" lon="6.68456">
        <ele>371</ele>
        <time>2016-06-12T08:43:38.000Z</time>
      </trkpt>
      <trkpt lat="47.5127" lon="6.6846">
        <ele>371</ele>
        <time>2016-06-12T08:43:39.000Z</time>
      </trkpt>
      <trkpt lat="47.51269" lon="6.68465">
        <ele>371</ele>
        <time>2016-06-12T08:43:40.000Z</time>
      </trkpt>
      <trkpt lat="47.51268" lon="6.6847">
        <ele>371</ele>
        <time>2016-06-12T08:43:41.000Z</time>
      </trkpt>
      <trkpt lat="47.51267" lon="6.68475">
        <ele>371</ele>
        <time>2016-06-12T08:43:42.000Z</time>
      </trkpt>
      <trkpt lat="47.51266" lon="6.6848">
        <ele>371</ele>
        <time>2016-06-12T08:43:43.000Z</time>
      </trkpt>
      <trkpt lat="47.51266" lon="6.68485">
        <ele>371</ele>
        <time>2016-06-12T08:43:44.000Z</time>
      </trkpt>
      <trkpt lat="47.51265" lon="6.6849">
        <ele>371</ele>
        <time>2016-06-12T08:43:44.999Z</time>
      </trkpt>
      <trkpt lat="47.51265" lon="6.68495">
        <ele>371</ele>
        <time>2016-06-12T08:43:46.000Z</time>
      </trkpt>
      <trkpt lat="47.51264" lon="6.685">
        <ele>371</ele>
        <time>2016-06-12T08:43:47.000Z</time>
      </trkpt>
      <trkpt lat="47.51263" lon="6.68504">
        <ele>371</ele>
        <time>2016-06-12T08:43:48.000Z</time>
      </trkpt>
      <trkpt lat="47.51262" lon="6.68509">
        <ele>371</ele>
        <time>2016-06-12T08:43:49.000Z</time>
      </trkpt>
      <trkpt lat="47.5126" lon="6.68514">
        <ele>371</ele>
        <time>2016-06-12T08:43:50.000Z</time>
      </trkpt>
      <trkpt lat="47.5126" lon="6.6852">
        <ele>371</ele>
        <time>2016-06-12T08:43:51.000Z</time>
      </trkpt>
      <trkpt lat="47.51259" lon="6.68525">
        <ele>371</ele>
        <time>2016-06-12T08:43:52.000Z</time>
      </trkpt>
      <trkpt lat="47.51258" lon="6.68531">
        <ele>371</ele>
        <time>2016-06-12T08:43:53.000Z</time>
      </trkpt>
      <trkpt lat="47.51257" lon="6.68537">
        <ele>371</ele>
        <time>2016-06-12T08:43:54.000Z</time>
      </trkpt>
      <trkpt lat="47.51257" lon="6.68542">
        <ele>371</ele>
        <time>2016-06-12T08:43:55.000Z</time>
      </trkpt>
      <trkpt lat="47.51256" lon="6.68548">
        <ele>371</ele>
        <time>2016-06-12T08:43:56.000Z</time>
      </trkpt>
      <trkpt lat="47.51255" lon="6.68553">
        <ele>371</ele>
        <time>2016-06-12T08:43:57.000Z</time>
      </trkpt>
      <trkpt lat="47.51255" lon="6.68559">
        <ele>371</ele>
        <time>2016-06-12T08:43:58.000Z</time>
      </trkpt>
      <trkpt lat="47.51254" lon="6.68564">
        <ele>371</ele>
        <time>2016-06-12T08:43:59.000Z</time>
      </trkpt>
      <trkpt lat="47.51253" lon="6.68569">
        <ele>371</ele>
        <time>2016-06-12T08:43:59.999Z</time>
      </trkpt>
      <trkpt lat="47.51252" lon="6.68574">
        <ele>370</ele>
        <time>2016-06-12T08:44:01.000Z</time>
      </trkpt>
      <trkpt lat="47.51251" lon="6.6858">
        <ele>370</ele>
        <time>2016-06-12T08:44:02.000Z</time>
      </trkpt>
      <trkpt lat="47.5125" lon="6.68585">
        <ele>370</ele>
        <time>2016-06-12T08:44:03.000Z</time>
      </trkpt>
      <trkpt lat="47.51249" lon="6.68591">
        <ele>370</ele>
        <time>2016-06-12T08:44:04.000Z</time>
      </trkpt>
      <trkpt lat="47.51249" lon="6.68596">
        <ele>370</ele>
        <time>2016-06-12T08:44:05.000Z</time>
      </trkpt>
      <trkpt lat="47.51248" lon="6.68601">
        <ele>371</ele>
        <time>2016-06-12T08:44:06.000Z</time>
      </trkpt>
      <trkpt lat="47.51246" lon="6.68607">
        <ele>371</ele>
        <time>2016-06-12T08:44:07.000Z</time>
      </trkpt>
      <trkpt lat="47.51245" lon="6.68612">
        <ele>371</ele>
        <time>2016-06-12T08:44:08.000Z</time>
      </trkpt>
      <trkpt lat="47.51244" lon="6.68618">
        <ele>371</ele>
        <time>2016-06-12T08:44:09.000Z</time>
      </trkpt>
      <trkpt lat="47.51243" lon="6.68623">
        <ele>371</ele>
        <time>2016-06-12T08:44:10.000Z</time>
      </trkpt>
      <trkpt lat="47.51242" lon="6.68628">
        <ele>371</ele>
        <time>2016-06-12T08:44:11.000Z</time>
      </trkpt>
      <trkpt lat="47.5124" lon="6.68633">
        <ele>371</ele>
        <time>2016-06-12T08:44:12.000Z</time>
      </trkpt>
      <trkpt lat="47.51239" lon="6.68638">
        <ele>371</ele>
        <time>2016-06-12T08:44:13.000Z</time>
      </trkpt>
      <trkpt lat="47.51238" lon="6.68644">
        <ele>371</ele>
        <time>2016-06-12T08:44:14.000Z</time>
      </trkpt>
      <trkpt lat="47.51238" lon="6.68649">
        <ele>371</ele>
        <time>2016-06-12T08:44:15.000Z</time>
      </trkpt>
      <trkpt lat="47.51237" lon="6.68654">
        <ele>371</ele>
        <time>2016-06-12T08:44:16.000Z</time>
      </trkpt>
      <trkpt lat="47.51237" lon="6.68659">
        <ele>371</ele>
        <time>2016-06-12T08:44:17.000Z</time>
      </trkpt>
      <trkpt lat="47.51236" lon="6.68665">
        <ele>371</ele>
        <time>2016-06-12T08:44:18.000Z</time>
      </trkpt>
      <trkpt lat="47.51235" lon="6.6867">
        <ele>372</ele>
        <time>2016-06-12T08:44:19.000Z</time>
      </trkpt>
      <trkpt lat="47.51234" lon="6.68676">
        <ele>372</ele>
        <time>2016-06-12T08:44:20.000Z</time>
      </trkpt>
      <trkpt lat="47.51232" lon="6.68681">
        <ele>372</ele>
        <time>2016-06-12T08:44:21.000Z</time>
      </trkpt>
      <trkpt lat="47.51231" lon="6.68687">
        <ele>372</ele>
        <time>2016-06-12T08:44:22.000Z</time>
      </trkpt>
      <trkpt lat="47.51231" lon="6.68692">
        <ele>372</ele>
        <time>2016-06-12T08:44:23.000Z</time>
      </trkpt>
      <trkpt lat="47.5123" lon="6.68698">
        <ele>372</ele>
        <time>2016-06-12T08:44:24.000Z</time>
      </trkpt>
      <trkpt lat="47.51229" lon="6.68703">
        <ele>372</ele>
        <time>2016-06-12T08:44:25.000Z</time>
      </trkpt>
      <trkpt lat="47.51228" lon="6.68709">
        <ele>372</ele>
        <time>2016-06-12T08:44:25.999Z</time>
      </trkpt>
      <trkpt lat="47.51227" lon="6.68714">
        <ele>373</ele>
        <time>2016-06-12T08:44:27.000Z</time>
      </trkpt>
      <trkpt lat="47.51227" lon="6.68719">
        <ele>373</ele>
        <time>2016-06-12T08:44:28.000Z</time>
      </trkpt>
      <trkpt lat="47.51227" lon="6.68724">
        <ele>373</ele>
        <time>2016-06-12T08:44:29.000Z</time>
      </trkpt>
      <trkpt lat="47.51226" lon="6.68729">
        <ele>373</ele>
        <time>2016-06-12T08:44:30.000Z</time>
      </trkpt>
      <trkpt lat="47.51226" lon="6.68734">
        <ele>373</ele>
        <time>2016-06-12T08:44:31.000Z</time>
      </trkpt>
      <trkpt lat="47.51224" lon="6.68739">
        <ele>373</ele>
        <time>2016-06-12T08:44:32.000Z</time>
      </trkpt>
      <trkpt lat="47.51223" lon="6.68744">
        <ele>373</ele>
        <time>2016-06-12T08:44:33.000Z</time>
      </trkpt>
      <trkpt lat="47.51222" lon="6.6875">
        <ele>373</ele>
        <time>2016-06-12T08:44:34.000Z</time>
      </trkpt>
      <trkpt lat="47.51221" lon="6.68755">
        <ele>373</ele>
        <time>2016-06-12T08:44:35.000Z</time>
      </trkpt>
      <trkpt lat="47.5122" lon="6.6876">
        <ele>373</ele>
        <time>2016-06-12T08:44:36.000Z</time>
      </trkpt>
      <trkpt lat="47.51219" lon="6.68765">
        <ele>373</ele>
        <time>2016-06-12T08:44:37.000Z</time>
      </trkpt>
      <trkpt lat="47.51218" lon="6.6877">
        <ele>373</ele>
        <time>2016-06-12T08:44:38.000Z</time>
      </trkpt>
      <trkpt lat="47.51216" lon="6.68775">
        <ele>373</ele>
        <time>2016-06-12T08:44:39.000Z</time>
      </trkpt>
      <trkpt lat="47.51214" lon="6.68779">
        <ele>373</ele>
        <time>2016-06-12T08:44:40.000Z</time>
      </trkpt>
      <trkpt lat="47.51212" lon="6.68783">
        <ele>373</ele>
        <time>2016-06-12T08:44:41.000Z</time>
      </trkpt>
      <trkpt lat="47.51209" lon="6.68787">
        <ele>373</ele>
        <time>2016-06-12T08:44:42.000Z</time>
      </trkpt>
      <trkpt lat="47.51206" lon="6.68791">
        <ele>373</ele>
        <time>2016-06-12T08:44:43.000Z</time>
      </trkpt>
      <trkpt lat="47.51204" lon="6.68795">
        <ele>373</ele>
        <time>2016-06-12T08:44:44.000Z</time>
      </trkpt>
      <trkpt lat="47.51201" lon="6.68799">
        <ele>373</ele>
        <time>2016-06-12T08:44:45.000Z</time>
      </trkpt>
      <trkpt lat="47.51199" lon="6.68803">
        <ele>373</ele>
        <time>2016-06-12T08:44:46.000Z</time>
      </trkpt>
      <trkpt lat="47.51196" lon="6.68807">
        <ele>373</ele>
        <time>2016-06-12T08:44:47.000Z</time>
      </trkpt>
      <trkpt lat="47.51194" lon="6.68812">
        <ele>373</ele>
        <time>2016-06-12T08:44:48.000Z</time>
      </trkpt>
      <trkpt lat="47.51191" lon="6.68816">
        <ele>373</ele>
        <time>2016-06-12T08:44:49.000Z</time>
      </trkpt>
      <trkpt lat="47.51188" lon="6.6882">
        <ele>374</ele>
        <time>2016-06-12T08:44:50.000Z</time>
      </trkpt>
      <trkpt lat="47.51185" lon="6.68824">
        <ele>374</ele>
        <time>2016-06-12T08:44:51.000Z</time>
      </trkpt>
      <trkpt lat="47.51182" lon="6.68828">
        <ele>374</ele>
        <time>2016-06-12T08:44:52.000Z</time>
      </trkpt>
      <trkpt lat="47.5118" lon="6.68832">
        <ele>374</ele>
        <time>2016-06-12T08:44:53.000Z</time>
      </trkpt>
      <trkpt lat="47.51177" lon="6.68837">
        <ele>374</ele>
        <time>2016-06-12T08:44:54.000Z</time>
      </trkpt>
      <trkpt lat="47.51175" lon="6.68841">
        <ele>374</ele>
        <time>2016-06-12T08:44:55.000Z</time>
      </trkpt>
      <trkpt lat="47.51172" lon="6.68845">
        <ele>374</ele>
        <time>2016-06-12T08:44:56.000Z</time>
      </trkpt>
      <trkpt lat="47.5117" lon="6.6885">
        <ele>374</ele>
        <time>2016-06-12T08:44:57.000Z</time>
      </trkpt>
      <trkpt lat="47.51168" lon="6.68854">
        <ele>374</ele>
        <time>2016-06-12T08:44:58.000Z</time>
      </trkpt>
      <trkpt lat="47.51165" lon="6.68859">
        <ele>373</ele>
        <time>2016-06-12T08:44:59.000Z</time>
      </trkpt>
      <trkpt lat="47.51162" lon="6.68863">
        <ele>373</ele>
        <time>2016-06-12T08:45:00.000Z</time>
      </trkpt>
      <trkpt lat="47.51159" lon="6.68868">
        <ele>373</ele>
        <time>2016-06-12T08:45:01.000Z</time>
      </trkpt>
      <trkpt lat="47.51156" lon="6.68874">
        <ele>373</ele>
        <time>2016-06-12T08:45:02.000Z</time>
      </trkpt>
      <trkpt lat="47.51153" lon="6.68879">
        <ele>373</ele>
        <time>2016-06-12T08:45:03.000Z</time>
      </trkpt>
      <trkpt lat="47.51149" lon="6.68884">
        <ele>373</ele>
        <time>2016-06-12T08:45:04.000Z</time>
      </trkpt>
      <trkpt lat="47.51146" lon="6.6889">
        <ele>373</ele>
        <time>2016-06-12T08:45:05.000Z</time>
      </trkpt>
      <trkpt lat="47.51143" lon="6.68896">
        <ele>373</ele>
        <time>2016-06-12T08:45:06.000Z</time>
      </trkpt>
      <trkpt lat="47.51141" lon="6.68901">
        <ele>373</ele>
        <time>2016-06-12T08:45:07.000Z</time>
      </trkpt>
      <trkpt lat="47.51138" lon="6.68907">
        <ele>373</ele>
        <time>2016-06-12T08:45:08.000Z</time>
      </trkpt>
      <trkpt lat="47.51136" lon="6.68914">
        <ele>373</ele>
        <time>2016-06-12T08:45:09.000Z</time>
      </trkpt>
      <trkpt lat="47.51134" lon="6.6892">
        <ele>372</ele>
        <time>2016-06-12T08:45:10.000Z</time>
      </trkpt>
      <trkpt lat="47.51132" lon="6.68927">
        <ele>371</ele>
        <time>2016-06-12T08:45:11.000Z</time>
      </trkpt>
      <trkpt lat="47.5113" lon="6.68933">
        <ele>371</ele>
        <time>2016-06-12T08:45:12.000Z</time>
      </trkpt>
      <trkpt lat="47.51127" lon="6.6894">
        <ele>371</ele>
        <time>2016-06-12T08:45:13.000Z</time>
      </trkpt>
      <trkpt lat="47.51125" lon="6.68946">
        <ele>371</ele>
        <time>2016-06-12T08:45:14.000Z</time>
      </trkpt>
      <trkpt lat="47.51122" lon="6.68952">
        <ele>371</ele>
        <time>2016-06-12T08:45:15.000Z</time>
      </trkpt>
      <trkpt lat="47.5112" lon="6.68958">
        <ele>371</ele>
        <time>2016-06-12T08:45:16.000Z</time>
      </trkpt>
      <trkpt lat="47.51118" lon="6.68964">
        <ele>371</ele>
        <time>2016-06-12T08:45:17.000Z</time>
      </trkpt>
      <trkpt lat="47.51116" lon="6.6897">
        <ele>370</ele>
        <time>2016-06-12T08:45:18.000Z</time>
      </trkpt>
      <trkpt lat="47.51114" lon="6.68976">
        <ele>370</ele>
        <time>2016-06-12T08:45:19.000Z</time>
      </trkpt>
      <trkpt lat="47.51111" lon="6.68981">
        <ele>370</ele>
        <time>2016-06-12T08:45:20.000Z</time>
      </trkpt>
      <trkpt lat="47.51109" lon="6.68987">
        <ele>370</ele>
        <time>2016-06-12T08:45:21.000Z</time>
      </trkpt>
      <trkpt lat="47.51107" lon="6.68994">
        <ele>370</ele>
        <time>2016-06-12T08:45:22.000Z</time>
      </trkpt>
      <trkpt lat="47.51105" lon="6.69">
        <ele>370</ele>
        <time>2016-06-12T08:45:23.000Z</time>
      </trkpt>
      <trkpt lat="47.51103" lon="6.69005">
        <ele>369</ele>
        <time>2016-06-12T08:45:24.000Z</time>
      </trkpt>
      <trkpt lat="47.51101" lon="6.6901">
        <ele>369</ele>
        <time>2016-06-12T08:45:25.000Z</time>
      </trkpt>
      <trkpt lat="47.51099" lon="6.69015">
        <ele>369</ele>
        <time>2016-06-12T08:45:25.999Z</time>
      </trkpt>
      <trkpt lat="47.51096" lon="6.6902">
        <ele>369</ele>
        <time>2016-06-12T08:45:27.000Z</time>
      </trkpt>
      <trkpt lat="47.51094" lon="6.69023">
        <ele>369</ele>
        <time>2016-06-12T08:45:28.000Z</time>
      </trkpt>
      <trkpt lat="47.51091" lon="6.69028">
        <ele>369</ele>
        <time>2016-06-12T08:45:29.000Z</time>
      </trkpt>
      <trkpt lat="47.51088" lon="6.69031">
        <ele>369</ele>
        <time>2016-06-12T08:45:30.000Z</time>
      </trkpt>
      <trkpt lat="47.51084" lon="6.69035">
        <ele>369</ele>
        <time>2016-06-12T08:45:31.000Z</time>
      </trkpt>
      <trkpt lat="47.51081" lon="6.69039">
        <ele>368</ele>
        <time>2016-06-12T08:45:32.000Z</time>
      </trkpt>
      <trkpt lat="47.51078" lon="6.69043">
        <ele>368</ele>
        <time>2016-06-12T08:45:33.000Z</time>
      </trkpt>
      <trkpt lat="47.51074" lon="6.69047">
        <ele>368</ele>
        <time>2016-06-12T08:45:34.000Z</time>
      </trkpt>
      <trkpt lat="47.51072" lon="6.6905">
        <ele>368</ele>
        <time>2016-06-12T08:45:35.000Z</time>
      </trkpt>
      <trkpt lat="47.51069" lon="6.69054">
        <ele>368</ele>
        <time>2016-06-12T08:45:36.000Z</time>
      </trkpt>
      <trkpt lat="47.51065" lon="6.6906">
        <ele>368</ele>
        <time>2016-06-12T08:45:37.000Z</time>
      </trkpt>
      <trkpt lat="47.51062" lon="6.69065">
        <ele>368</ele>
        <time>2016-06-12T08:45:38.000Z</time>
      </trkpt>
      <trkpt lat="47.51058" lon="6.69069">
        <ele>368</ele>
        <time>2016-06-12T08:45:39.000Z</time>
      </trkpt>
      <trkpt lat="47.51055" lon="6.69074">
        <ele>368</ele>
        <time>2016-06-12T08:45:40.000Z</time>
      </trkpt>
      <trkpt lat="47.51052" lon="6.69079">
        <ele>368</ele>
        <time>2016-06-12T08:45:41.000Z</time>
      </trkpt>
      <trkpt lat="47.51049" lon="6.69084">
        <ele>369</ele>
        <time>2016-06-12T08:45:42.000Z</time>
      </trkpt>
      <trkpt lat="47.51046" lon="6.69089">
        <ele>369</ele>
        <time>2016-06-12T08:45:43.000Z</time>
      </trkpt>
      <trkpt lat="47.51042" lon="6.69094">
        <ele>369</ele>
        <time>2016-06-12T08:45:44.000Z</time>
      </trkpt>
      <trkpt lat="47.51039" lon="6.69099">
        <ele>369</ele>
        <time>2016-06-12T08:45:45.000Z</time>
      </trkpt>
      <trkpt lat="47.51037" lon="6.69104">
        <ele>369</ele>
        <time>2016-06-12T08:45:46.000Z</time>
      </trkpt>
      <trkpt lat="47.51034" lon="6.69109">
        <ele>369</ele>
        <time>2016-06-12T08:45:47.000Z</time>
      </trkpt>
      <trkpt lat="47.51032" lon="6.69114">
        <ele>369</ele>
        <time>2016-06-12T08:45:48.000Z</time>
      </trkpt>
      <trkpt lat="47.5103" lon="6.6912">
        <ele>369</ele>
        <time>2016-06-12T08:45:49.000Z</time>
      </trkpt>
      <trkpt lat="47.51029" lon="6.69126">
        <ele>369</ele>
        <time>2016-06-12T08:45:50.000Z</time>
      </trkpt>
      <trkpt lat="47.51026" lon="6.69132">
        <ele>369</ele>
        <time>2016-06-12T08:45:51.000Z</time>
      </trkpt>
      <trkpt lat="47.51023" lon="6.69136">
        <ele>370</ele>
        <time>2016-06-12T08:45:52.000Z</time>
      </trkpt>
      <trkpt lat="47.51021" lon="6.69141">
        <ele>370</ele>
        <time>2016-06-12T08:45:53.000Z</time>
      </trkpt>
      <trkpt lat="47.51018" lon="6.69145">
        <ele>370</ele>
        <time>2016-06-12T08:45:54.000Z</time>
      </trkpt>
      <trkpt lat="47.51014" lon="6.6915">
        <ele>370</ele>
        <time>2016-06-12T08:45:55.000Z</time>
      </trkpt>
      <trkpt lat="47.51012" lon="6.69154">
        <ele>370</ele>
        <time>2016-06-12T08:45:56.000Z</time>
      </trkpt>
      <trkpt lat="47.51009" lon="6.69159">
        <ele>370</ele>
        <time>2016-06-12T08:45:57.000Z</time>
      </trkpt>
      <trkpt lat="47.51006" lon="6.69164">
        <ele>370</ele>
        <time>2016-06-12T08:45:58.000Z</time>
      </trkpt>
      <trkpt lat="47.51004" lon="6.69168">
        <ele>370</ele>
        <time>2016-06-12T08:45:59.000Z</time>
      </trkpt>
      <trkpt lat="47.51001" lon="6.69172">
        <ele>370</ele>
        <time>2016-06-12T08:46:00.000Z</time>
      </trkpt>
      <trkpt lat="47.50998" lon="6.69176">
        <ele>371</ele>
        <time>2016-06-12T08:46:01.000Z</time>
      </trkpt>
      <trkpt lat="47.50995" lon="6.6918">
        <ele>371</ele>
        <time>2016-06-12T08:46:02.000Z</time>
      </trkpt>
      <trkpt lat="47.50992" lon="6.69184">
        <ele>371</ele>
        <time>2016-06-12T08:46:03.000Z</time>
      </trkpt>
      <trkpt lat="47.5099" lon="6.69188">
        <ele>371</ele>
        <time>2016-06-12T08:46:04.000Z</time>
      </trkpt>
      <trkpt lat="47.50988" lon="6.69192">
        <ele>372</ele>
        <time>2016-06-12T08:46:05.000Z</time>
      </trkpt>
      <trkpt lat="47.50985" lon="6.69195">
        <ele>372</ele>
        <time>2016-06-12T08:46:06.000Z</time>
      </trkpt>
      <trkpt lat="47.50983" lon="6.69199">
        <ele>372</ele>
        <time>2016-06-12T08:46:07.000Z</time>
      </trkpt>
      <trkpt lat="47.50981" lon="6.69204">
        <ele>372</ele>
        <time>2016-06-12T08:46:08.000Z</time>
      </trkpt>
      <trkpt lat="47.50979" lon="6.69208">
        <ele>372</ele>
        <time>2016-06-12T08:46:09.000Z</time>
      </trkpt>
      <trkpt lat="47.50977" lon="6.69213">
        <ele>372</ele>
        <time>2016-06-12T08:46:10.000Z</time>
      </trkpt>
      <trkpt lat="47.50975" lon="6.69218">
        <ele>373</ele>
        <time>2016-06-12T08:46:11.000Z</time>
      </trkpt>
      <trkpt lat="47.50973" lon="6.69222">
        <ele>373</ele>
        <time>2016-06-12T08:46:12.000Z</time>
      </trkpt>
      <trkpt lat="47.50971" lon="6.69227">
        <ele>373</ele>
        <time>2016-06-12T08:46:13.000Z</time>
      </trkpt>
      <trkpt lat="47.50969" lon="6.69231">
        <ele>373</ele>
        <time>2016-06-12T08:46:14.000Z</time>
      </trkpt>
      <trkpt lat="47.50967" lon="6.69235">
        <ele>373</ele>
        <time>2016-06-12T08:46:15.000Z</time>
      </trkpt>
      <trkpt lat="47.50965" lon="6.6924">
        <ele>373</ele>
        <time>2016-06-12T08:46:16.000Z</time>
      </trkpt>
      <trkpt lat="47.50963" lon="6.69244">
        <ele>373</ele>
        <time>2016-06-12T08:46:16.999Z</time>
      </trkpt>
      <trkpt lat="47.50961" lon="6.69248">
        <ele>373</ele>
        <time>2016-06-12T08:46:18.000Z</time>
      </trkpt>
      <trkpt lat="47.50959" lon="6.69253">
        <ele>375</ele>
        <time>2016-06-12T08:46:19.000Z</time>
      </trkpt>
      <trkpt lat="47.50957" lon="6.69257">
        <ele>376</ele>
        <time>2016-06-12T08:46:20.000Z</time>
      </trkpt>
      <trkpt lat="47.50954" lon="6.69262">
        <ele>376</ele>
        <time>2016-06-12T08:46:21.000Z</time>
      </trkpt>
      <trkpt lat="47.50952" lon="6.69266">
        <ele>376</ele>
        <time>2016-06-12T08:46:22.001Z</time>
      </trkpt>
      <trkpt lat="47.5095" lon="6.69271">
        <ele>376</ele>
        <time>2016-06-12T08:46:23.000Z</time>
      </trkpt>
      <trkpt lat="47.50947" lon="6.69275">
        <ele>376</ele>
        <time>2016-06-12T08:46:24.000Z</time>
      </trkpt>
      <trkpt lat="47.50945" lon="6.69279">
        <ele>376</ele>
        <time>2016-06-12T08:46:25.000Z</time>
      </trkpt>
      <trkpt lat="47.50943" lon="6.69284">
        <ele>376</ele>
        <time>2016-06-12T08:46:26.000Z</time>
      </trkpt>
      <trkpt lat="47.5094" lon="6.69288">
        <ele>376</ele>
        <time>2016-06-12T08:46:27.000Z</time>
      </trkpt>
      <trkpt lat="47.50938" lon="6.69292">
        <ele>376</ele>
        <time>2016-06-12T08:46:28.000Z</time>
      </trkpt>
      <trkpt lat="47.50936" lon="6.69297">
        <ele>376</ele>
        <time>2016-06-12T08:46:29.000Z</time>
      </trkpt>
      <trkpt lat="47.50934" lon="6.69301">
        <ele>377</ele>
        <time>2016-06-12T08:46:29.999Z</time>
      </trkpt>
      <trkpt lat="47.50932" lon="6.69306">
        <ele>377</ele>
        <time>2016-06-12T08:46:31.000Z</time>
      </trkpt>
      <trkpt lat="47.5093" lon="6.6931">
        <ele>377</ele>
        <time>2016-06-12T08:46:31.999Z</time>
      </trkpt>
      <trkpt lat="47.50928" lon="6.69316">
        <ele>377</ele>
        <time>2016-06-12T08:46:33.000Z</time>
      </trkpt>
      <trkpt lat="47.50927" lon="6.69321">
        <ele>378</ele>
        <time>2016-06-12T08:46:34.000Z</time>
      </trkpt>
      <trkpt lat="47.50926" lon="6.69326">
        <ele>378</ele>
        <time>2016-06-12T08:46:35.000Z</time>
      </trkpt>
      <trkpt lat="47.50925" lon="6.69332">
        <ele>378</ele>
        <time>2016-06-12T08:46:36.000Z</time>
      </trkpt>
      <trkpt lat="47.50924" lon="6.69336">
        <ele>379</ele>
        <time>2016-06-12T08:46:37.000Z</time>
      </trkpt>
      <trkpt lat="47.50923" lon="6.69341">
        <ele>379</ele>
        <time>2016-06-12T08:46:38.000Z</time>
      </trkpt>
      <trkpt lat="47.50923" lon="6.69345">
        <ele>379</ele>
        <time>2016-06-12T08:46:39.000Z</time>
      </trkpt>
      <trkpt lat="47.50922" lon="6.69349">
        <ele>379</ele>
        <time>2016-06-12T08:46:40.000Z</time>
      </trkpt>
      <trkpt lat="47.50922" lon="6.69353">
        <ele>379</ele>
        <time>2016-06-12T08:46:41.000Z</time>
      </trkpt>
      <trkpt lat="47.50921" lon="6.69357">
        <ele>379</ele>
        <time>2016-06-12T08:46:42.000Z</time>
      </trkpt>
      <trkpt lat="47.50921" lon="6.69361">
        <ele>379</ele>
        <time>2016-06-12T08:46:43.000Z</time>
      </trkpt>
      <trkpt lat="47.50921" lon="6.69365">
        <ele>379</ele>
        <time>2016-06-12T08:46:44.000Z</time>
      </trkpt>
      <trkpt lat="47.50921" lon="6.69369">
        <ele>379</ele>
        <time>2016-06-12T08:46:45.000Z</time>
      </trkpt>
      <trkpt lat="47.50923" lon="6.69373">
        <ele>379</ele>
        <time>2016-06-12T08:46:46.000Z</time>
      </trkpt>
      <trkpt lat="47.50924" lon="6.69377">
        <ele>379</ele>
        <time>2016-06-12T08:46:47.000Z</time>
      </trkpt>
      <trkpt lat="47.50926" lon="6.69381">
        <ele>379</ele>
        <time>2016-06-12T08:46:48.000Z</time>
      </trkpt>
      <trkpt lat="47.50928" lon="6.69385">
        <ele>379</ele>
        <time>2016-06-12T08:46:49.000Z</time>
      </trkpt>
      <trkpt lat="47.5093" lon="6.6939">
        <ele>379</ele>
        <time>2016-06-12T08:46:50.000Z</time>
      </trkpt>
      <trkpt lat="47.50932" lon="6.69394">
        <ele>379</ele>
        <time>2016-06-12T08:46:51.000Z</time>
      </trkpt>
      <trkpt lat="47.50934" lon="6.69399">
        <ele>379</ele>
        <time>2016-06-12T08:46:52.000Z</time>
      </trkpt>
      <trkpt lat="47.50935" lon="6.69404">
        <ele>379</ele>
        <time>2016-06-12T08:46:53.000Z</time>
      </trkpt>
      <trkpt lat="47.50937" lon="6.69409">
        <ele>379</ele>
        <time>2016-06-12T08:46:54.000Z</time>
      </trkpt>
      <trkpt lat="47.50938" lon="6.69415">
        <ele>379</ele>
        <time>2016-06-12T08:46:55.000Z</time>
      </trkpt>
      <trkpt lat="47.50939" lon="6.6942">
        <ele>380</ele>
        <time>2016-06-12T08:46:56.000Z</time>
      </trkpt>
      <trkpt lat="47.5094" lon="6.69426">
        <ele>380</ele>
        <time>2016-06-12T08:46:57.000Z</time>
      </trkpt>
      <trkpt lat="47.50941" lon="6.69432">
        <ele>380</ele>
        <time>2016-06-12T08:46:58.000Z</time>
      </trkpt>
      <trkpt lat="47.50941" lon="6.69438">
        <ele>380</ele>
        <time>2016-06-12T08:46:59.000Z</time>
      </trkpt>
      <trkpt lat="47.50939" lon="6.69443">
        <ele>380</ele>
        <time>2016-06-12T08:47:00.000Z</time>
      </trkpt>
      <trkpt lat="47.50937" lon="6.69447">
        <ele>380</ele>
        <time>2016-06-12T08:47:01.000Z</time>
      </trkpt>
      <trkpt lat="47.50934" lon="6.69451">
        <ele>380</ele>
        <time>2016-06-12T08:47:02.000Z</time>
      </trkpt>
      <trkpt lat="47.5093" lon="6.69456">
        <ele>380</ele>
        <time>2016-06-12T08:47:03.000Z</time>
      </trkpt>
      <trkpt lat="47.50927" lon="6.6946">
        <ele>380</ele>
        <time>2016-06-12T08:47:04.000Z</time>
      </trkpt>
      <trkpt lat="47.5092" lon="6.69465">
        <ele>380</ele>
        <time>2016-06-12T08:47:05.000Z</time>
      </trkpt>
      <trkpt lat="47.50917" lon="6.69469">
        <ele>380</ele>
        <time>2016-06-12T08:47:06.000Z</time>
      </trkpt>
      <trkpt lat="47.50915" lon="6.69472">
        <ele>380</ele>
        <time>2016-06-12T08:47:07.000Z</time>
      </trkpt>
      <trkpt lat="47.50912" lon="6.69475">
        <ele>380</ele>
        <time>2016-06-12T08:47:08.000Z</time>
      </trkpt>
      <trkpt lat="47.50908" lon="6.69479">
        <ele>380</ele>
        <time>2016-06-12T08:47:09.000Z</time>
      </trkpt>
      <trkpt lat="47.50905" lon="6.69483">
        <ele>380</ele>
        <time>2016-06-12T08:47:10.000Z</time>
      </trkpt>
      <trkpt lat="47.50901" lon="6.69487">
        <ele>380</ele>
        <time>2016-06-12T08:47:11.000Z</time>
      </trkpt>
      <trkpt lat="47.50899" lon="6.69494">
        <ele>380</ele>
        <time>2016-06-12T08:47:12.000Z</time>
      </trkpt>
      <trkpt lat="47.50897" lon="6.69499">
        <ele>380</ele>
        <time>2016-06-12T08:47:13.000Z</time>
      </trkpt>
      <trkpt lat="47.50895" lon="6.69505">
        <ele>379</ele>
        <time>2016-06-12T08:47:14.000Z</time>
      </trkpt>
      <trkpt lat="47.50894" lon="6.69508">
        <ele>379</ele>
        <time>2016-06-12T08:47:15.000Z</time>
      </trkpt>
      <trkpt lat="47.50899" lon="6.69509">
        <ele>380</ele>
        <time>2016-06-12T08:47:16.000Z</time>
      </trkpt>
      <trkpt lat="47.50899" lon="6.69513">
        <ele>380</ele>
        <time>2016-06-12T08:47:17.000Z</time>
      </trkpt>
      <trkpt lat="47.509" lon="6.69516">
        <ele>379</ele>
        <time>2016-06-12T08:47:18.000Z</time>
      </trkpt>
      <trkpt lat="47.50901" lon="6.6952">
        <ele>379</ele>
        <time>2016-06-12T08:47:19.000Z</time>
      </trkpt>
      <trkpt lat="47.50902" lon="6.69523">
        <ele>379</ele>
        <time>2016-06-12T08:47:20.000Z</time>
      </trkpt>
      <trkpt lat="47.50903" lon="6.69528">
        <ele>379</ele>
        <time>2016-06-12T08:47:21.000Z</time>
      </trkpt>
      <trkpt lat="47.50904" lon="6.69531">
        <ele>379</ele>
        <time>2016-06-12T08:47:22.000Z</time>
      </trkpt>
      <trkpt lat="47.50906" lon="6.69535">
        <ele>379</ele>
        <time>2016-06-12T08:47:23.000Z</time>
      </trkpt>
      <trkpt lat="47.50907" lon="6.69539">
        <ele>379</ele>
        <time>2016-06-12T08:47:23.999Z</time>
      </trkpt>
      <trkpt lat="47.5091" lon="6.69541">
        <ele>379</ele>
        <time>2016-06-12T08:47:25.000Z</time>
      </trkpt>
      <trkpt lat="47.50913" lon="6.69544">
        <ele>379</ele>
        <time>2016-06-12T08:47:26.000Z</time>
      </trkpt>
      <trkpt lat="47.50916" lon="6.69547">
        <ele>379</ele>
        <time>2016-06-12T08:47:27.000Z</time>
      </trkpt>
      <trkpt lat="47.50919" lon="6.69549">
        <ele>381</ele>
        <time>2016-06-12T08:47:28.000Z</time>
      </trkpt>
      <trkpt lat="47.50923" lon="6.69551">
        <ele>381</ele>
        <time>2016-06-12T08:47:29.000Z</time>
      </trkpt>
      <trkpt lat="47.50926" lon="6.69554">
        <ele>381</ele>
        <time>2016-06-12T08:47:30.001Z</time>
      </trkpt>
      <trkpt lat="47.5093" lon="6.69555">
        <ele>381</ele>
        <time>2016-06-12T08:47:31.000Z</time>
      </trkpt>
      <trkpt lat="47.50934" lon="6.69556">
        <ele>381</ele>
        <time>2016-06-12T08:47:32.000Z</time>
      </trkpt>
      <trkpt lat="47.50938" lon="6.69558">
        <ele>381</ele>
        <time>2016-06-12T08:47:33.000Z</time>
      </trkpt>
      <trkpt lat="47.50941" lon="6.6956">
        <ele>381</ele>
        <time>2016-06-12T08:47:34.000Z</time>
      </trkpt>
      <trkpt lat="47.50944" lon="6.69562">
        <ele>381</ele>
        <time>2016-06-12T08:47:34.999Z</time>
      </trkpt>
      <trkpt lat="47.50947" lon="6.69565">
        <ele>381</ele>
        <time>2016-06-12T08:47:36.000Z</time>
      </trkpt>
      <trkpt lat="47.5095" lon="6.69567">
        <ele>381</ele>
        <time>2016-06-12T08:47:37.000Z</time>
      </trkpt>
      <trkpt lat="47.50952" lon="6.6957">
        <ele>381</ele>
        <time>2016-06-12T08:47:37.999Z</time>
      </trkpt>
      <trkpt lat="47.50956" lon="6.69572">
        <ele>381</ele>
        <time>2016-06-12T08:47:39.000Z</time>
      </trkpt>
      <trkpt lat="47.5096" lon="6.69575">
        <ele>381</ele>
        <time>2016-06-12T08:47:40.000Z</time>
      </trkpt>
      <trkpt lat="47.50964" lon="6.69578">
        <ele>381</ele>
        <time>2016-06-12T08:47:41.000Z</time>
      </trkpt>
      <trkpt lat="47.50967" lon="6.69582">
        <ele>381</ele>
        <time>2016-06-12T08:47:42.000Z</time>
      </trkpt>
      <trkpt lat="47.5097" lon="6.69587">
        <ele>381</ele>
        <time>2016-06-12T08:47:43.000Z</time>
      </trkpt>
      <trkpt lat="47.50973" lon="6.69594">
        <ele>381</ele>
        <time>2016-06-12T08:47:44.000Z</time>
      </trkpt>
      <trkpt lat="47.50976" lon="6.69599">
        <ele>381</ele>
        <time>2016-06-12T08:47:45.000Z</time>
      </trkpt>
      <trkpt lat="47.50979" lon="6.69604">
        <ele>381</ele>
        <time>2016-06-12T08:47:46.000Z</time>
      </trkpt>
      <trkpt lat="47.50982" lon="6.69609">
        <ele>381</ele>
        <time>2016-06-12T08:47:47.000Z</time>
      </trkpt>
      <trkpt lat="47.50984" lon="6.69614">
        <ele>381</ele>
        <time>2016-06-12T08:47:48.000Z</time>
      </trkpt>
      <trkpt lat="47.50987" lon="6.6962">
        <ele>381</ele>
        <time>2016-06-12T08:47:49.000Z</time>
      </trkpt>
      <trkpt lat="47.50989" lon="6.69625">
        <ele>381</ele>
        <time>2016-06-12T08:47:50.000Z</time>
      </trkpt>
      <trkpt lat="47.50992" lon="6.69631">
        <ele>381</ele>
        <time>2016-06-12T08:47:51.000Z</time>
      </trkpt>
      <trkpt lat="47.50994" lon="6.69636">
        <ele>381</ele>
        <time>2016-06-12T08:47:52.000Z</time>
      </trkpt>
      <trkpt lat="47.50997" lon="6.69642">
        <ele>381</ele>
        <time>2016-06-12T08:47:53.000Z</time>
      </trkpt>
      <trkpt lat="47.50999" lon="6.69647">
        <ele>381</ele>
        <time>2016-06-12T08:47:54.000Z</time>
      </trkpt>
      <trkpt lat="47.51002" lon="6.69653">
        <ele>381</ele>
        <time>2016-06-12T08:47:55.000Z</time>
      </trkpt>
      <trkpt lat="47.51005" lon="6.69658">
        <ele>381</ele>
        <time>2016-06-12T08:47:56.000Z</time>
      </trkpt>
      <trkpt lat="47.51007" lon="6.69663">
        <ele>381</ele>
        <time>2016-06-12T08:47:57.000Z</time>
      </trkpt>
      <trkpt lat="47.5101" lon="6.69668">
        <ele>381</ele>
        <time>2016-06-12T08:47:58.000Z</time>
      </trkpt>
      <trkpt lat="47.51013" lon="6.69673">
        <ele>381</ele>
        <time>2016-06-12T08:47:59.000Z</time>
      </trkpt>
      <trkpt lat="47.51016" lon="6.69677">
        <ele>381</ele>
        <time>2016-06-12T08:48:00.000Z</time>
      </trkpt>
      <trkpt lat="47.51018" lon="6.69682">
        <ele>381</ele>
        <time>2016-06-12T08:48:01.000Z</time>
      </trkpt>
      <trkpt lat="47.51021" lon="6.69687">
        <ele>381</ele>
        <time>2016-06-12T08:48:02.000Z</time>
      </trkpt>
      <trkpt lat="47.51023" lon="6.69692">
        <ele>381</ele>
        <time>2016-06-12T08:48:03.000Z</time>
      </trkpt>
      <trkpt lat="47.51026" lon="6.69697">
        <ele>381</ele>
        <time>2016-06-12T08:48:04.000Z</time>
      </trkpt>
      <trkpt lat="47.51029" lon="6.69703">
        <ele>381</ele>
        <time>2016-06-12T08:48:05.000Z</time>
      </trkpt>
      <trkpt lat="47.51031" lon="6.69707">
        <ele>381</ele>
        <time>2016-06-12T08:48:06.000Z</time>
      </trkpt>
      <trkpt lat="47.51033" lon="6.69712">
        <ele>381</ele>
        <time>2016-06-12T08:48:07.000Z</time>
      </trkpt>
      <trkpt lat="47.51036" lon="6.69717">
        <ele>381</ele>
        <time>2016-06-12T08:48:08.000Z</time>
      </trkpt>
      <trkpt lat="47.51039" lon="6.69722">
        <ele>381</ele>
        <time>2016-06-12T08:48:09.000Z</time>
      </trkpt>
      <trkpt lat="47.51041" lon="6.69727">
        <ele>381</ele>
        <time>2016-06-12T08:48:10.000Z</time>
      </trkpt>
      <trkpt lat="47.51044" lon="6.69732">
        <ele>381</ele>
        <time>2016-06-12T08:48:11.000Z</time>
      </trkpt>
      <trkpt lat="47.51047" lon="6.69737">
        <ele>381</ele>
        <time>2016-06-12T08:48:12.000Z</time>
      </trkpt>
      <trkpt lat="47.5105" lon="6.69741">
        <ele>381</ele>
        <time>2016-06-12T08:48:13.000Z</time>
      </trkpt>
      <trkpt lat="47.51052" lon="6.69746">
        <ele>381</ele>
        <time>2016-06-12T08:48:14.000Z</time>
      </trkpt>
      <trkpt lat="47.51055" lon="6.6975">
        <ele>382</ele>
        <time>2016-06-12T08:48:15.000Z</time>
      </trkpt>
      <trkpt lat="47.51058" lon="6.69754">
        <ele>382</ele>
        <time>2016-06-12T08:48:16.000Z</time>
      </trkpt>
      <trkpt lat="47.51061" lon="6.69758">
        <ele>382</ele>
        <time>2016-06-12T08:48:17.000Z</time>
      </trkpt>
      <trkpt lat="47.51064" lon="6.69762">
        <ele>382</ele>
        <time>2016-06-12T08:48:18.000Z</time>
      </trkpt>
      <trkpt lat="47.51067" lon="6.69766">
        <ele>382</ele>
        <time>2016-06-12T08:48:19.000Z</time>
      </trkpt>
      <trkpt lat="47.5107" lon="6.6977">
        <ele>382</ele>
        <time>2016-06-12T08:48:20.000Z</time>
      </trkpt>
      <trkpt lat="47.51073" lon="6.69774">
        <ele>382</ele>
        <time>2016-06-12T08:48:21.000Z</time>
      </trkpt>
      <trkpt lat="47.51076" lon="6.69778">
        <ele>382</ele>
        <time>2016-06-12T08:48:22.000Z</time>
      </trkpt>
      <trkpt lat="47.51079" lon="6.69782">
        <ele>382</ele>
        <time>2016-06-12T08:48:23.000Z</time>
      </trkpt>
      <trkpt lat="47.51083" lon="6.69788">
        <ele>382</ele>
        <time>2016-06-12T08:48:24.000Z</time>
      </trkpt>
      <trkpt lat="47.51086" lon="6.69794">
        <ele>380</ele>
        <time>2016-06-12T08:48:25.000Z</time>
      </trkpt>
      <trkpt lat="47.51089" lon="6.69799">
        <ele>381</ele>
        <time>2016-06-12T08:48:26.000Z</time>
      </trkpt>
      <trkpt lat="47.51093" lon="6.69806">
        <ele>381</ele>
        <time>2016-06-12T08:48:27.000Z</time>
      </trkpt>
      <trkpt lat="47.51096" lon="6.69812">
        <ele>381</ele>
        <time>2016-06-12T08:48:28.000Z</time>
      </trkpt>
      <trkpt lat="47.51099" lon="6.69818">
        <ele>381</ele>
        <time>2016-06-12T08:48:29.000Z</time>
      </trkpt>
      <trkpt lat="47.51102" lon="6.69823">
        <ele>381</ele>
        <time>2016-06-12T08:48:30.000Z</time>
      </trkpt>
      <trkpt lat="47.51105" lon="6.6983">
        <ele>381</ele>
        <time>2016-06-12T08:48:31.000Z</time>
      </trkpt>
      <trkpt lat="47.51109" lon="6.69836">
        <ele>381</ele>
        <time>2016-06-12T08:48:32.000Z</time>
      </trkpt>
      <trkpt lat="47.51112" lon="6.69842">
        <ele>381</ele>
        <time>2016-06-12T08:48:33.000Z</time>
      </trkpt>
      <trkpt lat="47.51116" lon="6.69849">
        <ele>380</ele>
        <time>2016-06-12T08:48:34.000Z</time>
      </trkpt>
      <trkpt lat="47.5112" lon="6.69855">
        <ele>380</ele>
        <time>2016-06-12T08:48:35.000Z</time>
      </trkpt>
      <trkpt lat="47.51124" lon="6.69862">
        <ele>380</ele>
        <time>2016-06-12T08:48:36.000Z</time>
      </trkpt>
      <trkpt lat="47.51127" lon="6.69869">
        <ele>380</ele>
        <time>2016-06-12T08:48:37.000Z</time>
      </trkpt>
      <trkpt lat="47.51131" lon="6.69876">
        <ele>380</ele>
        <time>2016-06-12T08:48:38.000Z</time>
      </trkpt>
      <trkpt lat="47.51134" lon="6.69883">
        <ele>380</ele>
        <time>2016-06-12T08:48:39.000Z</time>
      </trkpt>
      <trkpt lat="47.51137" lon="6.6989">
        <ele>380</ele>
        <time>2016-06-12T08:48:40.000Z</time>
      </trkpt>
      <trkpt lat="47.5114" lon="6.69898">
        <ele>380</ele>
        <time>2016-06-12T08:48:41.000Z</time>
      </trkpt>
      <trkpt lat="47.51143" lon="6.69905">
        <ele>379</ele>
        <time>2016-06-12T08:48:42.000Z</time>
      </trkpt>
      <trkpt lat="47.51147" lon="6.69912">
        <ele>379</ele>
        <time>2016-06-12T08:48:43.000Z</time>
      </trkpt>
      <trkpt lat="47.5115" lon="6.69919">
        <ele>378</ele>
        <time>2016-06-12T08:48:44.000Z</time>
      </trkpt>
      <trkpt lat="47.51154" lon="6.69926">
        <ele>378</ele>
        <time>2016-06-12T08:48:45.000Z</time>
      </trkpt>
      <trkpt lat="47.51157" lon="6.69934">
        <ele>378</ele>
        <time>2016-06-12T08:48:46.000Z</time>
      </trkpt>
      <trkpt lat="47.5116" lon="6.69941">
        <ele>378</ele>
        <time>2016-06-12T08:48:47.000Z</time>
      </trkpt>
      <trkpt lat="47.51164" lon="6.6995">
        <ele>378</ele>
        <time>2016-06-12T08:48:48.000Z</time>
      </trkpt>
      <trkpt lat="47.51167" lon="6.69958">
        <ele>375</ele>
        <time>2016-06-12T08:48:49.000Z</time>
      </trkpt>
      <trkpt lat="47.51172" lon="6.69966">
        <ele>375</ele>
        <time>2016-06-12T08:48:50.000Z</time>
      </trkpt>
      <trkpt lat="47.51176" lon="6.69975">
        <ele>375</ele>
        <time>2016-06-12T08:48:51.000Z</time>
      </trkpt>
      <trkpt lat="47.5118" lon="6.69983">
        <ele>374</ele>
        <time>2016-06-12T08:48:52.000Z</time>
      </trkpt>
      <trkpt lat="47.51185" lon="6.69993">
        <ele>374</ele>
        <time>2016-06-12T08:48:53.000Z</time>
      </trkpt>
      <trkpt lat="47.5119" lon="6.70003">
        <ele>373</ele>
        <time>2016-06-12T08:48:54.000Z</time>
      </trkpt>
      <trkpt lat="47.51195" lon="6.70013">
        <ele>373</ele>
        <time>2016-06-12T08:48:55.000Z</time>
      </trkpt>
      <trkpt lat="47.512" lon="6.70021">
        <ele>372</ele>
        <time>2016-06-12T08:48:56.000Z</time>
      </trkpt>
      <trkpt lat="47.51205" lon="6.7003">
        <ele>372</ele>
        <time>2016-06-12T08:48:57.000Z</time>
      </trkpt>
      <trkpt lat="47.5121" lon="6.7004">
        <ele>372</ele>
        <time>2016-06-12T08:48:58.000Z</time>
      </trkpt>
      <trkpt lat="47.51215" lon="6.70049">
        <ele>372</ele>
        <time>2016-06-12T08:48:59.000Z</time>
      </trkpt>
      <trkpt lat="47.51221" lon="6.70059">
        <ele>372</ele>
        <time>2016-06-12T08:49:00.000Z</time>
      </trkpt>
      <trkpt lat="47.51226" lon="6.70067">
        <ele>371</ele>
        <time>2016-06-12T08:49:01.000Z</time>
      </trkpt>
      <trkpt lat="47.51231" lon="6.70075">
        <ele>371</ele>
        <time>2016-06-12T08:49:02.000Z</time>
      </trkpt>
      <trkpt lat="47.51235" lon="6.70083">
        <ele>371</ele>
        <time>2016-06-12T08:49:03.000Z</time>
      </trkpt>
      <trkpt lat="47.5124" lon="6.70092">
        <ele>370</ele>
        <time>2016-06-12T08:49:04.000Z</time>
      </trkpt>
      <trkpt lat="47.51245" lon="6.70099">
        <ele>370</ele>
        <time>2016-06-12T08:49:05.000Z</time>
      </trkpt>
      <trkpt lat="47.5125" lon="6.70107">
        <ele>369</ele>
        <time>2016-06-12T08:49:06.000Z</time>
      </trkpt>
      <trkpt lat="47.51255" lon="6.70113">
        <ele>369</ele>
        <time>2016-06-12T08:49:07.000Z</time>
      </trkpt>
      <trkpt lat="47.5126" lon="6.70119">
        <ele>369</ele>
        <time>2016-06-12T08:49:08.000Z</time>
      </trkpt>
      <trkpt lat="47.51264" lon="6.70126">
        <ele>368</ele>
        <time>2016-06-12T08:49:09.000Z</time>
      </trkpt>
      <trkpt lat="47.51269" lon="6.70134">
        <ele>368</ele>
        <time>2016-06-12T08:49:10.000Z</time>
      </trkpt>
      <trkpt lat="47.51274" lon="6.70139">
        <ele>368</ele>
        <time>2016-06-12T08:49:11.000Z</time>
      </trkpt>
      <trkpt lat="47.51279" lon="6.70145">
        <ele>368</ele>
        <time>2016-06-12T08:49:12.000Z</time>
      </trkpt>
      <trkpt lat="47.51284" lon="6.70152">
        <ele>368</ele>
        <time>2016-06-12T08:49:13.000Z</time>
      </trkpt>
      <trkpt lat="47.5129" lon="6.70158">
        <ele>368</ele>
        <time>2016-06-12T08:49:14.000Z</time>
      </trkpt>
      <trkpt lat="47.51296" lon="6.70166">
        <ele>368</ele>
        <time>2016-06-12T08:49:15.000Z</time>
      </trkpt>
      <trkpt lat="47.51303" lon="6.70173">
        <ele>368</ele>
        <time>2016-06-12T08:49:16.000Z</time>
      </trkpt>
      <trkpt lat="47.51309" lon="6.70181">
        <ele>368</ele>
        <time>2016-06-12T08:49:17.000Z</time>
      </trkpt>
      <trkpt lat="47.51315" lon="6.7019">
        <ele>368</ele>
        <time>2016-06-12T08:49:18.000Z</time>
      </trkpt>
      <trkpt lat="47.51321" lon="6.70198">
        <ele>368</ele>
        <time>2016-06-12T08:49:19.000Z</time>
      </trkpt>
      <trkpt lat="47.51327" lon="6.70205">
        <ele>368</ele>
        <time>2016-06-12T08:49:20.000Z</time>
      </trkpt>
      <trkpt lat="47.51333" lon="6.70212">
        <ele>368</ele>
        <time>2016-06-12T08:49:21.000Z</time>
      </trkpt>
      <trkpt lat="47.51338" lon="6.70219">
        <ele>366</ele>
        <time>2016-06-12T08:49:22.000Z</time>
      </trkpt>
      <trkpt lat="47.51344" lon="6.70227">
        <ele>366</ele>
        <time>2016-06-12T08:49:23.000Z</time>
      </trkpt>
      <trkpt lat="47.51349" lon="6.70235">
        <ele>366</ele>
        <time>2016-06-12T08:49:24.000Z</time>
      </trkpt>
      <trkpt lat="47.51354" lon="6.70243">
        <ele>366</ele>
        <time>2016-06-12T08:49:25.000Z</time>
      </trkpt>
      <trkpt lat="47.51358" lon="6.70252">
        <ele>368</ele>
        <time>2016-06-12T08:49:26.000Z</time>
      </trkpt>
      <trkpt lat="47.51361" lon="6.7026">
        <ele>368</ele>
        <time>2016-06-12T08:49:27.000Z</time>
      </trkpt>
      <trkpt lat="47.51365" lon="6.70268">
        <ele>369</ele>
        <time>2016-06-12T08:49:28.000Z</time>
      </trkpt>
      <trkpt lat="47.51368" lon="6.70275">
        <ele>369</ele>
        <time>2016-06-12T08:49:29.000Z</time>
      </trkpt>
      <trkpt lat="47.51371" lon="6.70282">
        <ele>369</ele>
        <time>2016-06-12T08:49:30.000Z</time>
      </trkpt>
      <trkpt lat="47.51372" lon="6.70288">
        <ele>369</ele>
        <time>2016-06-12T08:49:31.000Z</time>
      </trkpt>
      <trkpt lat="47.51371" lon="6.70295">
        <ele>369</ele>
        <time>2016-06-12T08:49:32.000Z</time>
      </trkpt>
      <trkpt lat="47.5137" lon="6.703">
        <ele>370</ele>
        <time>2016-06-12T08:49:33.000Z</time>
      </trkpt>
      <trkpt lat="47.51369" lon="6.70303">
        <ele>370</ele>
        <time>2016-06-12T08:49:34.000Z</time>
      </trkpt>
      <trkpt lat="47.51366" lon="6.70305">
        <ele>370</ele>
        <time>2016-06-12T08:49:35.000Z</time>
      </trkpt>
      <trkpt lat="47.51363" lon="6.70308">
        <ele>370</ele>
        <time>2016-06-12T08:49:36.000Z</time>
      </trkpt>
      <trkpt lat="47.5136" lon="6.7031">
        <ele>371</ele>
        <time>2016-06-12T08:49:38.000Z</time>
      </trkpt>
      <trkpt lat="47.51359" lon="6.70312">
        <ele>371</ele>
        <time>2016-06-12T08:49:39.000Z</time>
      </trkpt>
      <trkpt lat="47.51356" lon="6.70315">
        <ele>371</ele>
        <time>2016-06-12T08:49:42.000Z</time>
      </trkpt>
      <trkpt lat="47.51355" lon="6.70316">
        <ele>371</ele>
        <time>2016-06-12T08:49:43.000Z</time>
      </trkpt>
      <trkpt lat="47.51351" lon="6.70319">
        <ele>372</ele>
        <time>2016-06-12T08:49:46.000Z</time>
      </trkpt>
      <trkpt lat="47.51349" lon="6.7032">
        <ele>372</ele>
        <time>2016-06-12T08:49:47.000Z</time>
      </trkpt>
      <trkpt lat="47.51346" lon="6.70321">
        <ele>373</ele>
        <time>2016-06-12T08:49:49.000Z</time>
      </trkpt>
      <trkpt lat="47.51345" lon="6.70321">
        <ele>373</ele>
        <time>2016-06-12T08:49:50.000Z</time>
      </trkpt>
      <trkpt lat="47.5134" lon="6.70323">
        <ele>374</ele>
        <time>2016-06-12T08:49:53.000Z</time>
      </trkpt>
      <trkpt lat="47.51339" lon="6.70324">
        <ele>374</ele>
        <time>2016-06-12T08:49:54.000Z</time>
      </trkpt>
      <trkpt lat="47.51336" lon="6.70325">
        <ele>374</ele>
        <time>2016-06-12T08:49:56.000Z</time>
      </trkpt>
      <trkpt lat="47.51334" lon="6.70325">
        <ele>375</ele>
        <time>2016-06-12T08:49:57.000Z</time>
      </trkpt>
      <trkpt lat="47.5133" lon="6.70326">
        <ele>376</ele>
        <time>2016-06-12T08:49:59.000Z</time>
      </trkpt>
      <trkpt lat="47.51328" lon="6.70326">
        <ele>376</ele>
        <time>2016-06-12T08:50:00.000Z</time>
      </trkpt>
      <trkpt lat="47.51324" lon="6.70328">
        <ele>376</ele>
        <time>2016-06-12T08:50:02.000Z</time>
      </trkpt>
      <trkpt lat="47.51323" lon="6.70329">
        <ele>376</ele>
        <time>2016-06-12T08:50:03.000Z</time>
      </trkpt>
      <trkpt lat="47.5132" lon="6.70331">
        <ele>376</ele>
        <time>2016-06-12T08:50:05.000Z</time>
      </trkpt>
      <trkpt lat="47.51319" lon="6.70332">
        <ele>375</ele>
        <time>2016-06-12T08:50:06.000Z</time>
      </trkpt>
      <trkpt lat="47.51315" lon="6.70334">
        <ele>379</ele>
        <time>2016-06-12T08:50:08.000Z</time>
      </trkpt>
      <trkpt lat="47.51313" lon="6.70335">
        <ele>379</ele>
        <time>2016-06-12T08:50:09.000Z</time>
      </trkpt>
      <trkpt lat="47.51309" lon="6.70337">
        <ele>379</ele>
        <time>2016-06-12T08:50:11.000Z</time>
      </trkpt>
      <trkpt lat="47.51308" lon="6.70338">
        <ele>379</ele>
        <time>2016-06-12T08:50:12.000Z</time>
      </trkpt>
      <trkpt lat="47.51304" lon="6.70339">
        <ele>380</ele>
        <time>2016-06-12T08:50:14.000Z</time>
      </trkpt>
      <trkpt lat="47.51303" lon="6.7034">
        <ele>380</ele>
        <time>2016-06-12T08:50:15.000Z</time>
      </trkpt>
      <trkpt lat="47.51299" lon="6.70342">
        <ele>380</ele>
        <time>2016-06-12T08:50:18.000Z</time>
      </trkpt>
      <trkpt lat="47.51298" lon="6.70343">
        <ele>380</ele>
        <time>2016-06-12T08:50:19.000Z</time>
      </trkpt>
      <trkpt lat="47.51294" lon="6.70345">
        <ele>380</ele>
        <time>2016-06-12T08:50:22.000Z</time>
      </trkpt>
      <trkpt lat="47.51293" lon="6.70346">
        <ele>380</ele>
        <time>2016-06-12T08:50:23.000Z</time>
      </trkpt>
      <trkpt lat="47.5129" lon="6.7035">
        <ele>380</ele>
        <time>2016-06-12T08:50:27.000Z</time>
      </trkpt>
      <trkpt lat="47.51289" lon="6.70351">
        <ele>380</ele>
        <time>2016-06-12T08:50:28.000Z</time>
      </trkpt>
      <trkpt lat="47.51286" lon="6.70355">
        <ele>380</ele>
        <time>2016-06-12T08:50:32.000Z</time>
      </trkpt>
      <trkpt lat="47.51285" lon="6.70356">
        <ele>381</ele>
        <time>2016-06-12T08:50:33.000Z</time>
      </trkpt>
      <trkpt lat="47.51281" lon="6.70358">
        <ele>381</ele>
        <time>2016-06-12T08:50:36.000Z</time>
      </trkpt>
      <trkpt lat="47.5128" lon="6.70359">
        <ele>381</ele>
        <time>2016-06-12T08:50:37.000Z</time>
      </trkpt>
      <trkpt lat="47.51277" lon="6.70362">
        <ele>381</ele>
        <time>2016-06-12T08:50:41.000Z</time>
      </trkpt>
      <trkpt lat="47.51276" lon="6.70363">
        <ele>381</ele>
        <time>2016-06-12T08:50:42.000Z</time>
      </trkpt>
      <trkpt lat="47.51274" lon="6.70366">
        <ele>381</ele>
        <time>2016-06-12T08:50:44.000Z</time>
      </trkpt>
      <trkpt lat="47.51272" lon="6.70368">
        <ele>381</ele>
        <time>2016-06-12T08:50:45.000Z</time>
      </trkpt>
      <trkpt lat="47.5127" lon="6.70369">
        <ele>381</ele>
        <time>2016-06-12T08:50:46.000Z</time>
      </trkpt>
      <trkpt lat="47.51267" lon="6.70369">
        <ele>381</ele>
        <time>2016-06-12T08:50:47.000Z</time>
      </trkpt>
      <trkpt lat="47.51264" lon="6.70369">
        <ele>381</ele>
        <time>2016-06-12T08:50:48.000Z</time>
      </trkpt>
      <trkpt lat="47.51262" lon="6.70369">
        <ele>381</ele>
        <time>2016-06-12T08:50:49.000Z</time>
      </trkpt>
      <trkpt lat="47.51259" lon="6.7037">
        <ele>381</ele>
        <time>2016-06-12T08:50:50.000Z</time>
      </trkpt>
      <trkpt lat="47.51257" lon="6.70371">
        <ele>382</ele>
        <time>2016-06-12T08:50:51.000Z</time>
      </trkpt>
      <trkpt lat="47.51254" lon="6.70372">
        <ele>382</ele>
        <time>2016-06-12T08:50:52.000Z</time>
      </trkpt>
      <trkpt lat="47.51252" lon="6.70374">
        <ele>382</ele>
        <time>2016-06-12T08:50:53.000Z</time>
      </trkpt>
      <trkpt lat="47.51249" lon="6.70376">
        <ele>383</ele>
        <time>2016-06-12T08:50:55.000Z</time>
      </trkpt>
      <trkpt lat="47.51248" lon="6.70378">
        <ele>383</ele>
        <time>2016-06-12T08:50:56.000Z</time>
      </trkpt>
      <trkpt lat="47.51245" lon="6.70382">
        <ele>383</ele>
        <time>2016-06-12T08:51:00.000Z</time>
      </trkpt>
      <trkpt lat="47.51245" lon="6.70384">
        <ele>383</ele>
        <time>2016-06-12T08:51:01.000Z</time>
      </trkpt>
      <trkpt lat="47.51242" lon="6.70388">
        <ele>384</ele>
        <time>2016-06-12T08:51:04.000Z</time>
      </trkpt>
      <trkpt lat="47.51241" lon="6.70389">
        <ele>384</ele>
        <time>2016-06-12T08:51:05.000Z</time>
      </trkpt>
      <trkpt lat="47.51238" lon="6.70392">
        <ele>384</ele>
        <time>2016-06-12T08:51:08.000Z</time>
      </trkpt>
      <trkpt lat="47.51237" lon="6.70393">
        <ele>384</ele>
        <time>2016-06-12T08:51:09.000Z</time>
      </trkpt>
      <trkpt lat="47.51234" lon="6.70396">
        <ele>384</ele>
        <time>2016-06-12T08:51:12.000Z</time>
      </trkpt>
      <trkpt lat="47.51234" lon="6.70398">
        <ele>384</ele>
        <time>2016-06-12T08:51:13.000Z</time>
      </trkpt>
      <trkpt lat="47.51231" lon="6.70402">
        <ele>384</ele>
        <time>2016-06-12T08:51:16.000Z</time>
      </trkpt>
      <trkpt lat="47.5123" lon="6.70403">
        <ele>384</ele>
        <time>2016-06-12T08:51:17.000Z</time>
      </trkpt>
      <trkpt lat="47.51226" lon="6.70405">
        <ele>384</ele>
        <time>2016-06-12T08:51:20.000Z</time>
      </trkpt>
      <trkpt lat="47.51224" lon="6.70406">
        <ele>384</ele>
        <time>2016-06-12T08:51:21.000Z</time>
      </trkpt>
      <trkpt lat="47.5122" lon="6.70408">
        <ele>384</ele>
        <time>2016-06-12T08:51:23.000Z</time>
      </trkpt>
      <trkpt lat="47.51218" lon="6.70409">
        <ele>384</ele>
        <time>2016-06-12T08:51:24.000Z</time>
      </trkpt>
      <trkpt lat="47.51214" lon="6.7041">
        <ele>384</ele>
        <time>2016-06-12T08:51:26.000Z</time>
      </trkpt>
      <trkpt lat="47.51213" lon="6.70411">
        <ele>384</ele>
        <time>2016-06-12T08:51:27.000Z</time>
      </trkpt>
      <trkpt lat="47.51209" lon="6.70414">
        <ele>384</ele>
        <time>2016-06-12T08:51:29.000Z</time>
      </trkpt>
      <trkpt lat="47.51208" lon="6.70415">
        <ele>384</ele>
        <time>2016-06-12T08:51:30.000Z</time>
      </trkpt>
      <trkpt lat="47.51205" lon="6.70418">
        <ele>390</ele>
        <time>2016-06-12T08:51:32.000Z</time>
      </trkpt>
      <trkpt lat="47.51204" lon="6.70419">
        <ele>390</ele>
        <time>2016-06-12T08:51:33.000Z</time>
      </trkpt>
      <trkpt lat="47.512" lon="6.70423">
        <ele>390</ele>
        <time>2016-06-12T08:51:36.000Z</time>
      </trkpt>
      <trkpt lat="47.51199" lon="6.70424">
        <ele>390</ele>
        <time>2016-06-12T08:51:37.000Z</time>
      </trkpt>
      <trkpt lat="47.51196" lon="6.70427">
        <ele>390</ele>
        <time>2016-06-12T08:51:39.000Z</time>
      </trkpt>
      <trkpt lat="47.51195" lon="6.70429">
        <ele>390</ele>
        <time>2016-06-12T08:51:40.000Z</time>
      </trkpt>
      <trkpt lat="47.51192" lon="6.70432">
        <ele>390</ele>
        <time>2016-06-12T08:51:42.000Z</time>
      </trkpt>
      <trkpt lat="47.51191" lon="6.70434">
        <ele>391</ele>
        <time>2016-06-12T08:51:43.000Z</time>
      </trkpt>
      <trkpt lat="47.51187" lon="6.70437">
        <ele>391</ele>
        <time>2016-06-12T08:51:46.000Z</time>
      </trkpt>
      <trkpt lat="47.51186" lon="6.70438">
        <ele>391</ele>
        <time>2016-06-12T08:51:47.000Z</time>
      </trkpt>
      <trkpt lat="47.51182" lon="6.70439">
        <ele>391</ele>
        <time>2016-06-12T08:51:49.000Z</time>
      </trkpt>
      <trkpt lat="47.5118" lon="6.7044">
        <ele>391</ele>
        <time>2016-06-12T08:51:50.000Z</time>
      </trkpt>
      <trkpt lat="47.51177" lon="6.70441">
        <ele>390</ele>
        <time>2016-06-12T08:51:52.000Z</time>
      </trkpt>
      <trkpt lat="47.51175" lon="6.70441">
        <ele>390</ele>
        <time>2016-06-12T08:51:53.000Z</time>
      </trkpt>
      <trkpt lat="47.51172" lon="6.70443">
        <ele>391</ele>
        <time>2016-06-12T08:51:55.000Z</time>
      </trkpt>
      <trkpt lat="47.51171" lon="6.70444">
        <ele>391</ele>
        <time>2016-06-12T08:51:56.000Z</time>
      </trkpt>
      <trkpt lat="47.51167" lon="6.70444">
        <ele>391</ele>
        <time>2016-06-12T08:51:58.000Z</time>
      </trkpt>
      <trkpt lat="47.51165" lon="6.70444">
        <ele>389</ele>
        <time>2016-06-12T08:51:59.000Z</time>
      </trkpt>
      <trkpt lat="47.51162" lon="6.70445">
        <ele>389</ele>
        <time>2016-06-12T08:52:01.000Z</time>
      </trkpt>
      <trkpt lat="47.51161" lon="6.70446">
        <ele>389</ele>
        <time>2016-06-12T08:52:02.000Z</time>
      </trkpt>
      <trkpt lat="47.51157" lon="6.70448">
        <ele>389</ele>
        <time>2016-06-12T08:52:05.000Z</time>
      </trkpt>
      <trkpt lat="47.51156" lon="6.70449">
        <ele>389</ele>
        <time>2016-06-12T08:52:06.000Z</time>
      </trkpt>
      <trkpt lat="47.51152" lon="6.7045">
        <ele>389</ele>
        <time>2016-06-12T08:52:09.000Z</time>
      </trkpt>
      <trkpt lat="47.51151" lon="6.7045">
        <ele>389</ele>
        <time>2016-06-12T08:52:10.000Z</time>
      </trkpt>
      <trkpt lat="47.51146" lon="6.70449">
        <ele>389</ele>
        <time>2016-06-12T08:52:52.000Z</time>
      </trkpt>
      <trkpt lat="47.51146" lon="6.70449">
        <ele>389</ele>
        <time>2016-06-12T08:52:53.000Z</time>
      </trkpt>
      <trkpt lat="47.51142" lon="6.7045">
        <ele>389</ele>
        <time>2016-06-12T08:53:03.000Z</time>
      </trkpt>
      <trkpt lat="47.51141" lon="6.70449">
        <ele>389</ele>
        <time>2016-06-12T08:53:04.000Z</time>
      </trkpt>
      <trkpt lat="47.51137" lon="6.70448">
        <ele>389</ele>
        <time>2016-06-12T08:53:07.000Z</time>
      </trkpt>
      <trkpt lat="47.51135" lon="6.70448">
        <ele>389</ele>
        <time>2016-06-12T08:53:08.000Z</time>
      </trkpt>
      <trkpt lat="47.51132" lon="6.7045">
        <ele>389</ele>
        <time>2016-06-12T08:53:10.000Z</time>
      </trkpt>
      <trkpt lat="47.51131" lon="6.70451">
        <ele>389</ele>
        <time>2016-06-12T08:53:11.000Z</time>
      </trkpt>
      <trkpt lat="47.51129" lon="6.70454">
        <ele>389</ele>
        <time>2016-06-12T08:53:13.000Z</time>
      </trkpt>
      <trkpt lat="47.51127" lon="6.70456">
        <ele>389</ele>
        <time>2016-06-12T08:53:14.000Z</time>
      </trkpt>
      <trkpt lat="47.51125" lon="6.70459">
        <ele>389</ele>
        <time>2016-06-12T08:53:16.000Z</time>
      </trkpt>
      <trkpt lat="47.51124" lon="6.70461">
        <ele>389</ele>
        <time>2016-06-12T08:53:17.000Z</time>
      </trkpt>
      <trkpt lat="47.51121" lon="6.70464">
        <ele>389</ele>
        <time>2016-06-12T08:53:20.000Z</time>
      </trkpt>
      <trkpt lat="47.5112" lon="6.70465">
        <ele>389</ele>
        <time>2016-06-12T08:53:21.000Z</time>
      </trkpt>
      <trkpt lat="47.51116" lon="6.70468">
        <ele>389</ele>
        <time>2016-06-12T08:53:25.000Z</time>
      </trkpt>
      <trkpt lat="47.51113" lon="6.70468">
        <ele>389</ele>
        <time>2016-06-12T08:53:26.000Z</time>
      </trkpt>
      <trkpt lat="47.51111" lon="6.70467">
        <ele>389</ele>
        <time>2016-06-12T08:53:27.000Z</time>
      </trkpt>
      <trkpt lat="47.51108" lon="6.70466">
        <ele>389</ele>
        <time>2016-06-12T08:53:28.000Z</time>
      </trkpt>
      <trkpt lat="47.51105" lon="6.70466">
        <ele>389</ele>
        <time>2016-06-12T08:53:29.000Z</time>
      </trkpt>
      <trkpt lat="47.51103" lon="6.70465">
        <ele>389</ele>
        <time>2016-06-12T08:53:30.000Z</time>
      </trkpt>
      <trkpt lat="47.511" lon="6.70465">
        <ele>389</ele>
        <time>2016-06-12T08:53:31.000Z</time>
      </trkpt>
      <trkpt lat="47.51098" lon="6.70464">
        <ele>389</ele>
        <time>2016-06-12T08:53:32.000Z</time>
      </trkpt>
      <trkpt lat="47.51094" lon="6.70464">
        <ele>389</ele>
        <time>2016-06-12T08:53:34.000Z</time>
      </trkpt>
      <trkpt lat="47.51091" lon="6.70464">
        <ele>389</ele>
        <time>2016-06-12T08:53:35.000Z</time>
      </trkpt>
      <trkpt lat="47.51088" lon="6.70464">
        <ele>389</ele>
        <time>2016-06-12T08:53:36.000Z</time>
      </trkpt>
      <trkpt lat="47.51085" lon="6.70464">
        <ele>389</ele>
        <time>2016-06-12T08:53:37.000Z</time>
      </trkpt>
      <trkpt lat="47.51082" lon="6.70465">
        <ele>384</ele>
        <time>2016-06-12T08:53:38.000Z</time>
      </trkpt>
      <trkpt lat="47.5108" lon="6.70466">
        <ele>384</ele>
        <time>2016-06-12T08:53:39.000Z</time>
      </trkpt>
      <trkpt lat="47.51077" lon="6.7047">
        <ele>385</ele>
        <time>2016-06-12T08:53:41.000Z</time>
      </trkpt>
      <trkpt lat="47.51076" lon="6.70472">
        <ele>385</ele>
        <time>2016-06-12T08:53:42.000Z</time>
      </trkpt>
      <trkpt lat="47.51073" lon="6.70476">
        <ele>385</ele>
        <time>2016-06-12T08:53:45.000Z</time>
      </trkpt>
      <trkpt lat="47.51072" lon="6.70478">
        <ele>385</ele>
        <time>2016-06-12T08:53:46.000Z</time>
      </trkpt>
      <trkpt lat="47.5107" lon="6.70483">
        <ele>386</ele>
        <time>2016-06-12T08:53:50.000Z</time>
      </trkpt>
      <trkpt lat="47.5107" lon="6.70485">
        <ele>386</ele>
        <time>2016-06-12T08:53:51.000Z</time>
      </trkpt>
      <trkpt lat="47.51071" lon="6.7049">
        <ele>387</ele>
        <time>2016-06-12T08:53:54.000Z</time>
      </trkpt>
      <trkpt lat="47.51071" lon="6.70492">
        <ele>387</ele>
        <time>2016-06-12T08:53:55.000Z</time>
      </trkpt>
      <trkpt lat="47.51071" lon="6.70498">
        <ele>388</ele>
        <time>2016-06-12T08:53:59.000Z</time>
      </trkpt>
      <trkpt lat="47.51072" lon="6.705">
        <ele>388</ele>
        <time>2016-06-12T08:54:00.000Z</time>
      </trkpt>
      <trkpt lat="47.5107" lon="6.70505">
        <ele>390</ele>
        <time>2016-06-12T08:54:03.000Z</time>
      </trkpt>
      <trkpt lat="47.5107" lon="6.70507">
        <ele>390</ele>
        <time>2016-06-12T08:54:04.000Z</time>
      </trkpt>
      <trkpt lat="47.51068" lon="6.70512">
        <ele>390</ele>
        <time>2016-06-12T08:54:07.000Z</time>
      </trkpt>
      <trkpt lat="47.51068" lon="6.70515">
        <ele>390</ele>
        <time>2016-06-12T08:54:08.000Z</time>
      </trkpt>
      <trkpt lat="47.51067" lon="6.7052">
        <ele>390</ele>
        <time>2016-06-12T08:54:10.000Z</time>
      </trkpt>
      <trkpt lat="47.51067" lon="6.70522">
        <ele>390</ele>
        <time>2016-06-12T08:54:11.000Z</time>
      </trkpt>
      <trkpt lat="47.51066" lon="6.70528">
        <ele>390</ele>
        <time>2016-06-12T08:54:14.000Z</time>
      </trkpt>
      <trkpt lat="47.51066" lon="6.70529">
        <ele>390</ele>
        <time>2016-06-12T08:54:15.000Z</time>
      </trkpt>
      <trkpt lat="47.51064" lon="6.70535">
        <ele>390</ele>
        <time>2016-06-12T08:54:18.000Z</time>
      </trkpt>
      <trkpt lat="47.51064" lon="6.70537">
        <ele>390</ele>
        <time>2016-06-12T08:54:19.000Z</time>
      </trkpt>
      <trkpt lat="47.51062" lon="6.70542">
        <ele>390</ele>
        <time>2016-06-12T08:54:22.000Z</time>
      </trkpt>
      <trkpt lat="47.51061" lon="6.70544">
        <ele>390</ele>
        <time>2016-06-12T08:54:23.000Z</time>
      </trkpt>
      <trkpt lat="47.51059" lon="6.7055">
        <ele>390</ele>
        <time>2016-06-12T08:54:26.000Z</time>
      </trkpt>
      <trkpt lat="47.51059" lon="6.70551">
        <ele>390</ele>
        <time>2016-06-12T08:54:27.000Z</time>
      </trkpt>
      <trkpt lat="47.51058" lon="6.70556">
        <ele>390</ele>
        <time>2016-06-12T08:54:30.000Z</time>
      </trkpt>
      <trkpt lat="47.51058" lon="6.70558">
        <ele>390</ele>
        <time>2016-06-12T08:54:31.000Z</time>
      </trkpt>
      <trkpt lat="47.51057" lon="6.70564">
        <ele>390</ele>
        <time>2016-06-12T08:54:34.000Z</time>
      </trkpt>
      <trkpt lat="47.51057" lon="6.70566">
        <ele>390</ele>
        <time>2016-06-12T08:54:35.000Z</time>
      </trkpt>
      <trkpt lat="47.51056" lon="6.7057">
        <ele>391</ele>
        <time>2016-06-12T08:54:37.000Z</time>
      </trkpt>
      <trkpt lat="47.51055" lon="6.70573">
        <ele>391</ele>
        <time>2016-06-12T08:54:38.000Z</time>
      </trkpt>
      <trkpt lat="47.51053" lon="6.70577">
        <ele>390</ele>
        <time>2016-06-12T08:54:40.000Z</time>
      </trkpt>
      <trkpt lat="47.51052" lon="6.70579">
        <ele>390</ele>
        <time>2016-06-12T08:54:41.000Z</time>
      </trkpt>
      <trkpt lat="47.5105" lon="6.70584">
        <ele>393</ele>
        <time>2016-06-12T08:54:43.000Z</time>
      </trkpt>
      <trkpt lat="47.5105" lon="6.70586">
        <ele>393</ele>
        <time>2016-06-12T08:54:44.000Z</time>
      </trkpt>
      <trkpt lat="47.51049" lon="6.70592">
        <ele>393</ele>
        <time>2016-06-12T08:54:47.000Z</time>
      </trkpt>
      <trkpt lat="47.51049" lon="6.70593">
        <ele>393</ele>
        <time>2016-06-12T08:54:48.000Z</time>
      </trkpt>
      <trkpt lat="47.51047" lon="6.70598">
        <ele>393</ele>
        <time>2016-06-12T08:54:52.000Z</time>
      </trkpt>
      <trkpt lat="47.51047" lon="6.706">
        <ele>393</ele>
        <time>2016-06-12T08:54:53.000Z</time>
      </trkpt>
      <trkpt lat="47.51045" lon="6.70606">
        <ele>393</ele>
        <time>2016-06-12T08:54:59.000Z</time>
      </trkpt>
      <trkpt lat="47.51045" lon="6.70607">
        <ele>393</ele>
        <time>2016-06-12T08:55:00.000Z</time>
      </trkpt>
      <trkpt lat="47.51043" lon="6.70611">
        <ele>393</ele>
        <time>2016-06-12T08:55:05.000Z</time>
      </trkpt>
      <trkpt lat="47.51042" lon="6.70612">
        <ele>393</ele>
        <time>2016-06-12T08:55:06.000Z</time>
      </trkpt>
      <trkpt lat="47.51039" lon="6.70617">
        <ele>393</ele>
        <time>2016-06-12T08:55:26.000Z</time>
      </trkpt>
      <trkpt lat="47.51039" lon="6.70617">
        <ele>393</ele>
        <time>2016-06-12T08:55:27.000Z</time>
      </trkpt>
      <trkpt lat="47.51038" lon="6.70621">
        <ele>393</ele>
        <time>2016-06-12T08:55:47.000Z</time>
      </trkpt>
      <trkpt lat="47.51038" lon="6.70623">
        <ele>393</ele>
        <time>2016-06-12T08:55:48.000Z</time>
      </trkpt>
      <trkpt lat="47.51036" lon="6.70629">
        <ele>393</ele>
        <time>2016-06-12T08:55:50.000Z</time>
      </trkpt>
      <trkpt lat="47.51034" lon="6.70632">
        <ele>393</ele>
        <time>2016-06-12T08:55:51.000Z</time>
      </trkpt>
      <trkpt lat="47.51031" lon="6.70636">
        <ele>393</ele>
        <time>2016-06-12T08:55:53.000Z</time>
      </trkpt>
      <trkpt lat="47.51029" lon="6.70638">
        <ele>392</ele>
        <time>2016-06-12T08:55:54.000Z</time>
      </trkpt>
      <trkpt lat="47.51027" lon="6.70641">
        <ele>392</ele>
        <time>2016-06-12T08:55:55.000Z</time>
      </trkpt>
      <trkpt lat="47.51025" lon="6.70644">
        <ele>392</ele>
        <time>2016-06-12T08:55:56.000Z</time>
      </trkpt>
      <trkpt lat="47.51024" lon="6.70647">
        <ele>392</ele>
        <time>2016-06-12T08:55:57.000Z</time>
      </trkpt>
      <trkpt lat="47.51022" lon="6.7065">
        <ele>392</ele>
        <time>2016-06-12T08:55:58.000Z</time>
      </trkpt>
      <trkpt lat="47.5102" lon="6.70653">
        <ele>392</ele>
        <time>2016-06-12T08:56:00.000Z</time>
      </trkpt>
      <trkpt lat="47.51019" lon="6.70654">
        <ele>392</ele>
        <time>2016-06-12T08:56:01.000Z</time>
      </trkpt>
      <trkpt lat="47.51015" lon="6.70655">
        <ele>391</ele>
        <time>2016-06-12T08:56:03.000Z</time>
      </trkpt>
      <trkpt lat="47.51013" lon="6.70655">
        <ele>391</ele>
        <time>2016-06-12T08:56:04.000Z</time>
      </trkpt>
      <trkpt lat="47.51009" lon="6.70654">
        <ele>391</ele>
        <time>2016-06-12T08:56:11.000Z</time>
      </trkpt>
      <trkpt lat="47.51009" lon="6.70655">
        <ele>391</ele>
        <time>2016-06-12T08:56:12.000Z</time>
      </trkpt>
      <trkpt lat="47.51005" lon="6.70657">
        <ele>390</ele>
        <time>2016-06-12T08:56:15.000Z</time>
      </trkpt>
      <trkpt lat="47.51003" lon="6.70658">
        <ele>390</ele>
        <time>2016-06-12T08:56:16.000Z</time>
      </trkpt>
      <trkpt lat="47.50999" lon="6.7066">
        <ele>387</ele>
        <time>2016-06-12T08:56:18.000Z</time>
      </trkpt>
      <trkpt lat="47.50997" lon="6.70661">
        <ele>387</ele>
        <time>2016-06-12T08:56:19.000Z</time>
      </trkpt>
      <trkpt lat="47.50994" lon="6.70665">
        <ele>387</ele>
        <time>2016-06-12T08:56:21.000Z</time>
      </trkpt>
      <trkpt lat="47.50992" lon="6.70667">
        <ele>388</ele>
        <time>2016-06-12T08:56:22.000Z</time>
      </trkpt>
      <trkpt lat="47.50989" lon="6.70671">
        <ele>387</ele>
        <time>2016-06-12T08:56:24.000Z</time>
      </trkpt>
      <trkpt lat="47.50987" lon="6.70673">
        <ele>387</ele>
        <time>2016-06-12T08:56:25.000Z</time>
      </trkpt>
      <trkpt lat="47.50983" lon="6.70676">
        <ele>386</ele>
        <time>2016-06-12T08:56:27.000Z</time>
      </trkpt>
      <trkpt lat="47.50981" lon="6.70677">
        <ele>386</ele>
        <time>2016-06-12T08:56:28.000Z</time>
      </trkpt>
      <trkpt lat="47.50977" lon="6.70679">
        <ele>386</ele>
        <time>2016-06-12T08:56:30.000Z</time>
      </trkpt>
      <trkpt lat="47.50975" lon="6.70681">
        <ele>386</ele>
        <time>2016-06-12T08:56:31.000Z</time>
      </trkpt>
      <trkpt lat="47.50973" lon="6.70683">
        <ele>385</ele>
        <time>2016-06-12T08:56:32.000Z</time>
      </trkpt>
      <trkpt lat="47.50971" lon="6.70685">
        <ele>385</ele>
        <time>2016-06-12T08:56:33.000Z</time>
      </trkpt>
      <trkpt lat="47.50969" lon="6.70687">
        <ele>385</ele>
        <time>2016-06-12T08:56:34.000Z</time>
      </trkpt>
      <trkpt lat="47.50967" lon="6.70689">
        <ele>385</ele>
        <time>2016-06-12T08:56:35.000Z</time>
      </trkpt>
      <trkpt lat="47.50964" lon="6.70692">
        <ele>385</ele>
        <time>2016-06-12T08:56:36.000Z</time>
      </trkpt>
      <trkpt lat="47.50961" lon="6.70695">
        <ele>384</ele>
        <time>2016-06-12T08:56:37.000Z</time>
      </trkpt>
      <trkpt lat="47.50957" lon="6.70697">
        <ele>384</ele>
        <time>2016-06-12T08:56:38.000Z</time>
      </trkpt>
      <trkpt lat="47.50953" lon="6.70699">
        <ele>384</ele>
        <time>2016-06-12T08:56:39.000Z</time>
      </trkpt>
      <trkpt lat="47.5095" lon="6.707">
        <ele>384</ele>
        <time>2016-06-12T08:56:40.000Z</time>
      </trkpt>
      <trkpt lat="47.50947" lon="6.707">
        <ele>383</ele>
        <time>2016-06-12T08:56:41.000Z</time>
      </trkpt>
      <trkpt lat="47.50944" lon="6.707">
        <ele>383</ele>
        <time>2016-06-12T08:56:42.000Z</time>
      </trkpt>
      <trkpt lat="47.50941" lon="6.707">
        <ele>383</ele>
        <time>2016-06-12T08:56:43.000Z</time>
      </trkpt>
      <trkpt lat="47.50938" lon="6.707">
        <ele>383</ele>
        <time>2016-06-12T08:56:44.000Z</time>
      </trkpt>
      <trkpt lat="47.50936" lon="6.70699">
        <ele>382</ele>
        <time>2016-06-12T08:56:45.000Z</time>
      </trkpt>
      <trkpt lat="47.50932" lon="6.70699">
        <ele>382</ele>
        <time>2016-06-12T08:56:47.000Z</time>
      </trkpt>
      <trkpt lat="47.5093" lon="6.70698">
        <ele>382</ele>
        <time>2016-06-12T08:56:48.000Z</time>
      </trkpt>
      <trkpt lat="47.50926" lon="6.70698">
        <ele>382</ele>
        <time>2016-06-12T08:56:51.000Z</time>
      </trkpt>
      <trkpt lat="47.50924" lon="6.70699">
        <ele>382</ele>
        <time>2016-06-12T08:56:52.000Z</time>
      </trkpt>
      <trkpt lat="47.50921" lon="6.70702">
        <ele>382</ele>
        <time>2016-06-12T08:56:55.000Z</time>
      </trkpt>
      <trkpt lat="47.5092" lon="6.70704">
        <ele>382</ele>
        <time>2016-06-12T08:56:56.000Z</time>
      </trkpt>
      <trkpt lat="47.50919" lon="6.70709">
        <ele>382</ele>
        <time>2016-06-12T08:56:59.000Z</time>
      </trkpt>
      <trkpt lat="47.5092" lon="6.70711">
        <ele>382</ele>
        <time>2016-06-12T08:57:00.000Z</time>
      </trkpt>
      <trkpt lat="47.50921" lon="6.70717">
        <ele>382</ele>
        <time>2016-06-12T08:57:03.000Z</time>
      </trkpt>
      <trkpt lat="47.50921" lon="6.70719">
        <ele>382</ele>
        <time>2016-06-12T08:57:04.000Z</time>
      </trkpt>
      <trkpt lat="47.50921" lon="6.70725">
        <ele>382</ele>
        <time>2016-06-12T08:57:07.000Z</time>
      </trkpt>
      <trkpt lat="47.50921" lon="6.70727">
        <ele>382</ele>
        <time>2016-06-12T08:57:08.000Z</time>
      </trkpt>
      <trkpt lat="47.5092" lon="6.70732">
        <ele>382</ele>
        <time>2016-06-12T08:57:11.000Z</time>
      </trkpt>
      <trkpt lat="47.50919" lon="6.70734">
        <ele>381</ele>
        <time>2016-06-12T08:57:12.000Z</time>
      </trkpt>
      <trkpt lat="47.50919" lon="6.70738">
        <ele>381</ele>
        <time>2016-06-12T08:57:14.000Z</time>
      </trkpt>
      <trkpt lat="47.50918" lon="6.7074">
        <ele>381</ele>
        <time>2016-06-12T08:57:15.000Z</time>
      </trkpt>
      <trkpt lat="47.50917" lon="6.70746">
        <ele>380</ele>
        <time>2016-06-12T08:57:17.000Z</time>
      </trkpt>
      <trkpt lat="47.50917" lon="6.70749">
        <ele>379</ele>
        <time>2016-06-12T08:57:18.000Z</time>
      </trkpt>
      <trkpt lat="47.50916" lon="6.70753">
        <ele>378</ele>
        <time>2016-06-12T08:57:19.000Z</time>
      </trkpt>
      <trkpt lat="47.50916" lon="6.70756">
        <ele>378</ele>
        <time>2016-06-12T08:57:20.000Z</time>
      </trkpt>
      <trkpt lat="47.50916" lon="6.70759">
        <ele>377</ele>
        <time>2016-06-12T08:57:21.000Z</time>
      </trkpt>
      <trkpt lat="47.50915" lon="6.70763">
        <ele>376</ele>
        <time>2016-06-12T08:57:22.000Z</time>
      </trkpt>
      <trkpt lat="47.50914" lon="6.70769">
        <ele>376</ele>
        <time>2016-06-12T08:57:24.000Z</time>
      </trkpt>
      <trkpt lat="47.50914" lon="6.70772">
        <ele>375</ele>
        <time>2016-06-12T08:57:25.000Z</time>
      </trkpt>
      <trkpt lat="47.50913" lon="6.70777">
        <ele>375</ele>
        <time>2016-06-12T08:57:27.000Z</time>
      </trkpt>
      <trkpt lat="47.50913" lon="6.70779">
        <ele>375</ele>
        <time>2016-06-12T08:57:28.000Z</time>
      </trkpt>
      <trkpt lat="47.50913" lon="6.70784">
        <ele>375</ele>
        <time>2016-06-12T08:57:30.000Z</time>
      </trkpt>
      <trkpt lat="47.50913" lon="6.70787">
        <ele>375</ele>
        <time>2016-06-12T08:57:31.000Z</time>
      </trkpt>
      <trkpt lat="47.50915" lon="6.70793">
        <ele>375</ele>
        <time>2016-06-12T08:57:33.000Z</time>
      </trkpt>
      <trkpt lat="47.50916" lon="6.70795">
        <ele>375</ele>
        <time>2016-06-12T08:57:34.000Z</time>
      </trkpt>
      <trkpt lat="47.50918" lon="6.70801">
        <ele>384</ele>
        <time>2016-06-12T08:57:36.000Z</time>
      </trkpt>
      <trkpt lat="47.50919" lon="6.70803">
        <ele>384</ele>
        <time>2016-06-12T08:57:37.000Z</time>
      </trkpt>
      <trkpt lat="47.50921" lon="6.70806">
        <ele>384</ele>
        <time>2016-06-12T08:57:38.000Z</time>
      </trkpt>
      <trkpt lat="47.50922" lon="6.70809">
        <ele>384</ele>
        <time>2016-06-12T08:57:39.000Z</time>
      </trkpt>
      <trkpt lat="47.50924" lon="6.70814">
        <ele>384</ele>
        <time>2016-06-12T08:57:41.000Z</time>
      </trkpt>
      <trkpt lat="47.50925" lon="6.70816">
        <ele>383</ele>
        <time>2016-06-12T08:57:42.000Z</time>
      </trkpt>
      <trkpt lat="47.50925" lon="6.70821">
        <ele>383</ele>
        <time>2016-06-12T08:57:44.000Z</time>
      </trkpt>
      <trkpt lat="47.50925" lon="6.70824">
        <ele>383</ele>
        <time>2016-06-12T08:57:45.000Z</time>
      </trkpt>
      <trkpt lat="47.50924" lon="6.70829">
        <ele>382</ele>
        <time>2016-06-12T08:57:47.000Z</time>
      </trkpt>
      <trkpt lat="47.50924" lon="6.70832">
        <ele>382</ele>
        <time>2016-06-12T08:57:48.000Z</time>
      </trkpt>
      <trkpt lat="47.50923" lon="6.70835">
        <ele>381</ele>
        <time>2016-06-12T08:57:49.000Z</time>
      </trkpt>
      <trkpt lat="47.50923" lon="6.70838">
        <ele>381</ele>
        <time>2016-06-12T08:57:50.000Z</time>
      </trkpt>
      <trkpt lat="47.50922" lon="6.70845">
        <ele>382</ele>
        <time>2016-06-12T08:57:52.000Z</time>
      </trkpt>
      <trkpt lat="47.50921" lon="6.70847">
        <ele>382</ele>
        <time>2016-06-12T08:57:53.000Z</time>
      </trkpt>
      <trkpt lat="47.50921" lon="6.70853">
        <ele>382</ele>
        <time>2016-06-12T08:57:55.000Z</time>
      </trkpt>
      <trkpt lat="47.5092" lon="6.70856">
        <ele>383</ele>
        <time>2016-06-12T08:57:56.000Z</time>
      </trkpt>
      <trkpt lat="47.5092" lon="6.70862">
        <ele>383</ele>
        <time>2016-06-12T08:57:58.000Z</time>
      </trkpt>
      <trkpt lat="47.50921" lon="6.70865">
        <ele>383</ele>
        <time>2016-06-12T08:57:59.000Z</time>
      </trkpt>
      <trkpt lat="47.5092" lon="6.7087">
        <ele>383</ele>
        <time>2016-06-12T08:58:01.000Z</time>
      </trkpt>
      <trkpt lat="47.5092" lon="6.70872">
        <ele>383</ele>
        <time>2016-06-12T08:58:02.000Z</time>
      </trkpt>
      <trkpt lat="47.50921" lon="6.70877">
        <ele>382</ele>
        <time>2016-06-12T08:58:04.000Z</time>
      </trkpt>
      <trkpt lat="47.50921" lon="6.7088">
        <ele>382</ele>
        <time>2016-06-12T08:58:05.000Z</time>
      </trkpt>
      <trkpt lat="47.50922" lon="6.70885">
        <ele>382</ele>
        <time>2016-06-12T08:58:07.000Z</time>
      </trkpt>
      <trkpt lat="47.50923" lon="6.70887">
        <ele>382</ele>
        <time>2016-06-12T08:58:08.000Z</time>
      </trkpt>
      <trkpt lat="47.50924" lon="6.70892">
        <ele>381</ele>
        <time>2016-06-12T08:58:10.000Z</time>
      </trkpt>
      <trkpt lat="47.50926" lon="6.70895">
        <ele>381</ele>
        <time>2016-06-12T08:58:11.000Z</time>
      </trkpt>
      <trkpt lat="47.50926" lon="6.70898">
        <ele>381</ele>
        <time>2016-06-12T08:58:12.000Z</time>
      </trkpt>
      <trkpt lat="47.50927" lon="6.70902">
        <ele>380</ele>
        <time>2016-06-12T08:58:13.000Z</time>
      </trkpt>
      <trkpt lat="47.50928" lon="6.70908">
        <ele>380</ele>
        <time>2016-06-12T08:58:15.000Z</time>
      </trkpt>
      <trkpt lat="47.50928" lon="6.70911">
        <ele>379</ele>
        <time>2016-06-12T08:58:16.000Z</time>
      </trkpt>
      <trkpt lat="47.50929" lon="6.70916">
        <ele>379</ele>
        <time>2016-06-12T08:58:18.000Z</time>
      </trkpt>
      <trkpt lat="47.50929" lon="6.70918">
        <ele>378</ele>
        <time>2016-06-12T08:58:19.000Z</time>
      </trkpt>
      <trkpt lat="47.5093" lon="6.70923">
        <ele>379</ele>
        <time>2016-06-12T08:58:22.000Z</time>
      </trkpt>
      <trkpt lat="47.50931" lon="6.70925">
        <ele>379</ele>
        <time>2016-06-12T08:58:23.000Z</time>
      </trkpt>
      <trkpt lat="47.50932" lon="6.7093">
        <ele>380</ele>
        <time>2016-06-12T08:58:25.000Z</time>
      </trkpt>
      <trkpt lat="47.50933" lon="6.70932">
        <ele>380</ele>
        <time>2016-06-12T08:58:26.000Z</time>
      </trkpt>
      <trkpt lat="47.50935" lon="6.70936">
        <ele>380</ele>
        <time>2016-06-12T08:58:27.000Z</time>
      </trkpt>
      <trkpt lat="47.50936" lon="6.70939">
        <ele>381</ele>
        <time>2016-06-12T08:58:28.000Z</time>
      </trkpt>
      <trkpt lat="47.50938" lon="6.70943">
        <ele>381</ele>
        <time>2016-06-12T08:58:29.000Z</time>
      </trkpt>
      <trkpt lat="47.50939" lon="6.70946">
        <ele>381</ele>
        <time>2016-06-12T08:58:30.000Z</time>
      </trkpt>
      <trkpt lat="47.5094" lon="6.70949">
        <ele>381</ele>
        <time>2016-06-12T08:58:31.000Z</time>
      </trkpt>
      <trkpt lat="47.5094" lon="6.70952">
        <ele>382</ele>
        <time>2016-06-12T08:58:32.000Z</time>
      </trkpt>
      <trkpt lat="47.5094" lon="6.70959">
        <ele>382</ele>
        <time>2016-06-12T08:58:34.000Z</time>
      </trkpt>
      <trkpt lat="47.5094" lon="6.70961">
        <ele>382</ele>
        <time>2016-06-12T08:58:35.000Z</time>
      </trkpt>
      <trkpt lat="47.5094" lon="6.70967">
        <ele>382</ele>
        <time>2016-06-12T08:58:37.000Z</time>
      </trkpt>
      <trkpt lat="47.50939" lon="6.7097">
        <ele>381</ele>
        <time>2016-06-12T08:58:38.000Z</time>
      </trkpt>
      <trkpt lat="47.50937" lon="6.70974">
        <ele>381</ele>
        <time>2016-06-12T08:58:40.000Z</time>
      </trkpt>
      <trkpt lat="47.50936" lon="6.70977">
        <ele>381</ele>
        <time>2016-06-12T08:58:41.000Z</time>
      </trkpt>
      <trkpt lat="47.50935" lon="6.70981">
        <ele>381</ele>
        <time>2016-06-12T08:58:43.000Z</time>
      </trkpt>
      <trkpt lat="47.50935" lon="6.70986">
        <ele>380</ele>
        <time>2016-06-12T08:58:45.000Z</time>
      </trkpt>
      <trkpt lat="47.50935" lon="6.70992">
        <ele>380</ele>
        <time>2016-06-12T08:58:47.000Z</time>
      </trkpt>
      <trkpt lat="47.50935" lon="6.70995">
        <ele>380</ele>
        <time>2016-06-12T08:58:48.000Z</time>
      </trkpt>
      <trkpt lat="47.50934" lon="6.70999">
        <ele>380</ele>
        <time>2016-06-12T08:58:49.000Z</time>
      </trkpt>
      <trkpt lat="47.50933" lon="6.71003">
        <ele>379</ele>
        <time>2016-06-12T08:58:50.000Z</time>
      </trkpt>
      <trkpt lat="47.50933" lon="6.71006">
        <ele>379</ele>
        <time>2016-06-12T08:58:51.000Z</time>
      </trkpt>
      <trkpt lat="47.50932" lon="6.7101">
        <ele>380</ele>
        <time>2016-06-12T08:58:52.000Z</time>
      </trkpt>
      <trkpt lat="47.50931" lon="6.71015">
        <ele>380</ele>
        <time>2016-06-12T08:58:54.000Z</time>
      </trkpt>
      <trkpt lat="47.50931" lon="6.71017">
        <ele>380</ele>
        <time>2016-06-12T08:58:55.000Z</time>
      </trkpt>
      <trkpt lat="47.50933" lon="6.71023">
        <ele>380</ele>
        <time>2016-06-12T08:58:59.000Z</time>
      </trkpt>
      <trkpt lat="47.50933" lon="6.71024">
        <ele>380</ele>
        <time>2016-06-12T08:59:00.000Z</time>
      </trkpt>
      <trkpt lat="47.50936" lon="6.71026">
        <ele>381</ele>
        <time>2016-06-12T08:59:04.000Z</time>
      </trkpt>
      <trkpt lat="47.50937" lon="6.71027">
        <ele>381</ele>
        <time>2016-06-12T08:59:05.000Z</time>
      </trkpt>
      <trkpt lat="47.5094" lon="6.7103">
        <ele>381</ele>
        <time>2016-06-12T08:59:07.000Z</time>
      </trkpt>
      <trkpt lat="47.50942" lon="6.71032">
        <ele>381</ele>
        <time>2016-06-12T08:59:08.000Z</time>
      </trkpt>
      <trkpt lat="47.50943" lon="6.71037">
        <ele>382</ele>
        <time>2016-06-12T08:59:10.000Z</time>
      </trkpt>
      <trkpt lat="47.50943" lon="6.7104">
        <ele>382</ele>
        <time>2016-06-12T08:59:11.000Z</time>
      </trkpt>
      <trkpt lat="47.50942" lon="6.71045">
        <ele>381</ele>
        <time>2016-06-12T08:59:13.000Z</time>
      </trkpt>
      <trkpt lat="47.50942" lon="6.71048">
        <ele>381</ele>
        <time>2016-06-12T08:59:14.000Z</time>
      </trkpt>
      <trkpt lat="47.5094" lon="6.71053">
        <ele>381</ele>
        <time>2016-06-12T08:59:16.000Z</time>
      </trkpt>
      <trkpt lat="47.5094" lon="6.71055">
        <ele>381</ele>
        <time>2016-06-12T08:59:17.000Z</time>
      </trkpt>
      <trkpt lat="47.5094" lon="6.71062">
        <ele>381</ele>
        <time>2016-06-12T08:59:21.000Z</time>
      </trkpt>
      <trkpt lat="47.50941" lon="6.71064">
        <ele>381</ele>
        <time>2016-06-12T08:59:22.000Z</time>
      </trkpt>
      <trkpt lat="47.5094" lon="6.7107">
        <ele>381</ele>
        <time>2016-06-12T08:59:24.000Z</time>
      </trkpt>
      <trkpt lat="47.5094" lon="6.71073">
        <ele>381</ele>
        <time>2016-06-12T08:59:25.000Z</time>
      </trkpt>
      <trkpt lat="47.5094" lon="6.71077">
        <ele>380</ele>
        <time>2016-06-12T08:59:26.000Z</time>
      </trkpt>
      <trkpt lat="47.5094" lon="6.7108">
        <ele>380</ele>
        <time>2016-06-12T08:59:27.000Z</time>
      </trkpt>
      <trkpt lat="47.5094" lon="6.71084">
        <ele>381</ele>
        <time>2016-06-12T08:59:28.000Z</time>
      </trkpt>
      <trkpt lat="47.50941" lon="6.71088">
        <ele>381</ele>
        <time>2016-06-12T08:59:29.000Z</time>
      </trkpt>
      <trkpt lat="47.50942" lon="6.71092">
        <ele>382</ele>
        <time>2016-06-12T08:59:30.000Z</time>
      </trkpt>
      <trkpt lat="47.50943" lon="6.71095">
        <ele>382</ele>
        <time>2016-06-12T08:59:31.000Z</time>
      </trkpt>
      <trkpt lat="47.50944" lon="6.71099">
        <ele>382</ele>
        <time>2016-06-12T08:59:32.000Z</time>
      </trkpt>
      <trkpt lat="47.50945" lon="6.71102">
        <ele>382</ele>
        <time>2016-06-12T08:59:33.000Z</time>
      </trkpt>
      <trkpt lat="47.50945" lon="6.71106">
        <ele>382</ele>
        <time>2016-06-12T08:59:34.000Z</time>
      </trkpt>
      <trkpt lat="47.50946" lon="6.7111">
        <ele>383</ele>
        <time>2016-06-12T08:59:35.000Z</time>
      </trkpt>
      <trkpt lat="47.50947" lon="6.71113">
        <ele>383</ele>
        <time>2016-06-12T08:59:36.000Z</time>
      </trkpt>
      <trkpt lat="47.50947" lon="6.71117">
        <ele>383</ele>
        <time>2016-06-12T08:59:37.000Z</time>
      </trkpt>
      <trkpt lat="47.50947" lon="6.71121">
        <ele>383</ele>
        <time>2016-06-12T08:59:38.000Z</time>
      </trkpt>
      <trkpt lat="47.50947" lon="6.71124">
        <ele>383</ele>
        <time>2016-06-12T08:59:39.000Z</time>
      </trkpt>
      <trkpt lat="47.50948" lon="6.7113">
        <ele>383</ele>
        <time>2016-06-12T08:59:41.000Z</time>
      </trkpt>
      <trkpt lat="47.50948" lon="6.71133">
        <ele>383</ele>
        <time>2016-06-12T08:59:42.000Z</time>
      </trkpt>
      <trkpt lat="47.50948" lon="6.71136">
        <ele>383</ele>
        <time>2016-06-12T08:59:43.000Z</time>
      </trkpt>
      <trkpt lat="47.50949" lon="6.71143">
        <ele>384</ele>
        <time>2016-06-12T08:59:45.000Z</time>
      </trkpt>
      <trkpt lat="47.5095" lon="6.71146">
        <ele>384</ele>
        <time>2016-06-12T08:59:46.000Z</time>
      </trkpt>
      <trkpt lat="47.5095" lon="6.71149">
        <ele>384</ele>
        <time>2016-06-12T08:59:47.000Z</time>
      </trkpt>
      <trkpt lat="47.50951" lon="6.71155">
        <ele>384</ele>
        <time>2016-06-12T08:59:49.000Z</time>
      </trkpt>
      <trkpt lat="47.50952" lon="6.71158">
        <ele>384</ele>
        <time>2016-06-12T08:59:50.000Z</time>
      </trkpt>
      <trkpt lat="47.50952" lon="6.71161">
        <ele>384</ele>
        <time>2016-06-12T08:59:51.000Z</time>
      </trkpt>
      <trkpt lat="47.50952" lon="6.71165">
        <ele>384</ele>
        <time>2016-06-12T08:59:52.000Z</time>
      </trkpt>
      <trkpt lat="47.50952" lon="6.7117">
        <ele>387</ele>
        <time>2016-06-12T08:59:53.000Z</time>
      </trkpt>
      <trkpt lat="47.50951" lon="6.71174">
        <ele>387</ele>
        <time>2016-06-12T08:59:54.000Z</time>
      </trkpt>
      <trkpt lat="47.50949" lon="6.71179">
        <ele>386</ele>
        <time>2016-06-12T08:59:55.000Z</time>
      </trkpt>
      <trkpt lat="47.50946" lon="6.71182">
        <ele>386</ele>
        <time>2016-06-12T08:59:56.000Z</time>
      </trkpt>
      <trkpt lat="47.50943" lon="6.71183">
        <ele>386</ele>
        <time>2016-06-12T08:59:57.000Z</time>
      </trkpt>
      <trkpt lat="47.50941" lon="6.71184">
        <ele>386</ele>
        <time>2016-06-12T08:59:58.000Z</time>
      </trkpt>
      <trkpt lat="47.50938" lon="6.71185">
        <ele>386</ele>
        <time>2016-06-12T08:59:59.000Z</time>
      </trkpt>
      <trkpt lat="47.50935" lon="6.71185">
        <ele>385</ele>
        <time>2016-06-12T09:00:00.000Z</time>
      </trkpt>
      <trkpt lat="47.50932" lon="6.71185">
        <ele>385</ele>
        <time>2016-06-12T09:00:01.000Z</time>
      </trkpt>
      <trkpt lat="47.50929" lon="6.71185">
        <ele>385</ele>
        <time>2016-06-12T09:00:02.000Z</time>
      </trkpt>
      <trkpt lat="47.50926" lon="6.71186">
        <ele>385</ele>
        <time>2016-06-12T09:00:03.000Z</time>
      </trkpt>
      <trkpt lat="47.50924" lon="6.71187">
        <ele>385</ele>
        <time>2016-06-12T09:00:04.000Z</time>
      </trkpt>
      <trkpt lat="47.5092" lon="6.71184">
        <ele>384</ele>
        <time>2016-06-12T09:00:06.000Z</time>
      </trkpt>
      <trkpt lat="47.50919" lon="6.71182">
        <ele>384</ele>
        <time>2016-06-12T09:00:07.000Z</time>
      </trkpt>
      <trkpt lat="47.50915" lon="6.71185">
        <ele>377</ele>
        <time>2016-06-12T09:00:13.000Z</time>
      </trkpt>
      <trkpt lat="47.50915" lon="6.71188">
        <ele>377</ele>
        <time>2016-06-12T09:00:14.000Z</time>
      </trkpt>
      <trkpt lat="47.50915" lon="6.71194">
        <ele>377</ele>
        <time>2016-06-12T09:00:16.000Z</time>
      </trkpt>
      <trkpt lat="47.50914" lon="6.71197">
        <ele>377</ele>
        <time>2016-06-12T09:00:17.000Z</time>
      </trkpt>
      <trkpt lat="47.50914" lon="6.712">
        <ele>377</ele>
        <time>2016-06-12T09:00:18.000Z</time>
      </trkpt>
      <trkpt lat="47.50913" lon="6.71204">
        <ele>377</ele>
        <time>2016-06-12T09:00:19.000Z</time>
      </trkpt>
      <trkpt lat="47.50912" lon="6.71208">
        <ele>377</ele>
        <time>2016-06-12T09:00:20.000Z</time>
      </trkpt>
      <trkpt lat="47.50911" lon="6.71212">
        <ele>377</ele>
        <time>2016-06-12T09:00:21.000Z</time>
      </trkpt>
      <trkpt lat="47.50911" lon="6.71215">
        <ele>377</ele>
        <time>2016-06-12T09:00:22.000Z</time>
      </trkpt>
      <trkpt lat="47.5091" lon="6.71219">
        <ele>377</ele>
        <time>2016-06-12T09:00:23.000Z</time>
      </trkpt>
      <trkpt lat="47.5091" lon="6.71223">
        <ele>378</ele>
        <time>2016-06-12T09:00:24.000Z</time>
      </trkpt>
      <trkpt lat="47.50909" lon="6.71227">
        <ele>378</ele>
        <time>2016-06-12T09:00:25.000Z</time>
      </trkpt>
      <trkpt lat="47.50908" lon="6.71231">
        <ele>379</ele>
        <time>2016-06-12T09:00:26.000Z</time>
      </trkpt>
      <trkpt lat="47.50908" lon="6.71235">
        <ele>379</ele>
        <time>2016-06-12T09:00:27.000Z</time>
      </trkpt>
      <trkpt lat="47.50908" lon="6.71239">
        <ele>380</ele>
        <time>2016-06-12T09:00:28.000Z</time>
      </trkpt>
      <trkpt lat="47.50907" lon="6.71243">
        <ele>381</ele>
        <time>2016-06-12T09:00:29.000Z</time>
      </trkpt>
      <trkpt lat="47.50906" lon="6.71247">
        <ele>381</ele>
        <time>2016-06-12T09:00:30.000Z</time>
      </trkpt>
      <trkpt lat="47.50905" lon="6.71252">
        <ele>382</ele>
        <time>2016-06-12T09:00:31.000Z</time>
      </trkpt>
      <trkpt lat="47.50904" lon="6.71256">
        <ele>381</ele>
        <time>2016-06-12T09:00:32.000Z</time>
      </trkpt>
      <trkpt lat="47.50902" lon="6.7126">
        <ele>381</ele>
        <time>2016-06-12T09:00:33.000Z</time>
      </trkpt>
      <trkpt lat="47.50901" lon="6.71263">
        <ele>380</ele>
        <time>2016-06-12T09:00:34.000Z</time>
      </trkpt>
      <trkpt lat="47.509" lon="6.71267">
        <ele>380</ele>
        <time>2016-06-12T09:00:35.000Z</time>
      </trkpt>
      <trkpt lat="47.50899" lon="6.71271">
        <ele>380</ele>
        <time>2016-06-12T09:00:36.000Z</time>
      </trkpt>
      <trkpt lat="47.50899" lon="6.71275">
        <ele>380</ele>
        <time>2016-06-12T09:00:37.000Z</time>
      </trkpt>
      <trkpt lat="47.509" lon="6.71279">
        <ele>380</ele>
        <time>2016-06-12T09:00:38.000Z</time>
      </trkpt>
      <trkpt lat="47.509" lon="6.71283">
        <ele>380</ele>
        <time>2016-06-12T09:00:39.000Z</time>
      </trkpt>
      <trkpt lat="47.509" lon="6.71287">
        <ele>380</ele>
        <time>2016-06-12T09:00:40.000Z</time>
      </trkpt>
      <trkpt lat="47.509" lon="6.71291">
        <ele>380</ele>
        <time>2016-06-12T09:00:41.000Z</time>
      </trkpt>
      <trkpt lat="47.50899" lon="6.71294">
        <ele>380</ele>
        <time>2016-06-12T09:00:42.000Z</time>
      </trkpt>
      <trkpt lat="47.50899" lon="6.71298">
        <ele>380</ele>
        <time>2016-06-12T09:00:43.000Z</time>
      </trkpt>
      <trkpt lat="47.50899" lon="6.71302">
        <ele>380</ele>
        <time>2016-06-12T09:00:44.000Z</time>
      </trkpt>
      <trkpt lat="47.50899" lon="6.71305">
        <ele>380</ele>
        <time>2016-06-12T09:00:45.000Z</time>
      </trkpt>
      <trkpt lat="47.50899" lon="6.71309">
        <ele>380</ele>
        <time>2016-06-12T09:00:46.000Z</time>
      </trkpt>
      <trkpt lat="47.509" lon="6.71312">
        <ele>381</ele>
        <time>2016-06-12T09:00:47.000Z</time>
      </trkpt>
      <trkpt lat="47.50899" lon="6.71318">
        <ele>381</ele>
        <time>2016-06-12T09:00:49.000Z</time>
      </trkpt>
      <trkpt lat="47.50898" lon="6.71322">
        <ele>381</ele>
        <time>2016-06-12T09:00:50.000Z</time>
      </trkpt>
      <trkpt lat="47.50897" lon="6.71325">
        <ele>381</ele>
        <time>2016-06-12T09:00:51.000Z</time>
      </trkpt>
      <trkpt lat="47.50895" lon="6.71329">
        <ele>381</ele>
        <time>2016-06-12T09:00:52.000Z</time>
      </trkpt>
      <trkpt lat="47.50893" lon="6.71333">
        <ele>381</ele>
        <time>2016-06-12T09:00:53.000Z</time>
      </trkpt>
      <trkpt lat="47.50891" lon="6.71336">
        <ele>382</ele>
        <time>2016-06-12T09:00:54.000Z</time>
      </trkpt>
      <trkpt lat="47.50889" lon="6.7134">
        <ele>381</ele>
        <time>2016-06-12T09:00:55.000Z</time>
      </trkpt>
      <trkpt lat="47.50887" lon="6.71343">
        <ele>381</ele>
        <time>2016-06-12T09:00:56.000Z</time>
      </trkpt>
      <trkpt lat="47.50885" lon="6.71347">
        <ele>381</ele>
        <time>2016-06-12T09:00:57.000Z</time>
      </trkpt>
      <trkpt lat="47.50883" lon="6.71351">
        <ele>380</ele>
        <time>2016-06-12T09:00:58.000Z</time>
      </trkpt>
      <trkpt lat="47.50882" lon="6.71355">
        <ele>380</ele>
        <time>2016-06-12T09:00:59.000Z</time>
      </trkpt>
      <trkpt lat="47.50881" lon="6.71359">
        <ele>380</ele>
        <time>2016-06-12T09:01:00.000Z</time>
      </trkpt>
      <trkpt lat="47.5088" lon="6.71363">
        <ele>380</ele>
        <time>2016-06-12T09:01:01.000Z</time>
      </trkpt>
      <trkpt lat="47.50879" lon="6.71366">
        <ele>380</ele>
        <time>2016-06-12T09:01:02.000Z</time>
      </trkpt>
      <trkpt lat="47.50878" lon="6.71371">
        <ele>380</ele>
        <time>2016-06-12T09:01:03.000Z</time>
      </trkpt>
      <trkpt lat="47.50877" lon="6.71375">
        <ele>379</ele>
        <time>2016-06-12T09:01:04.000Z</time>
      </trkpt>
      <trkpt lat="47.50876" lon="6.7138">
        <ele>379</ele>
        <time>2016-06-12T09:01:05.000Z</time>
      </trkpt>
      <trkpt lat="47.50874" lon="6.71385">
        <ele>379</ele>
        <time>2016-06-12T09:01:06.000Z</time>
      </trkpt>
      <trkpt lat="47.50873" lon="6.71389">
        <ele>379</ele>
        <time>2016-06-12T09:01:07.000Z</time>
      </trkpt>
      <trkpt lat="47.50872" lon="6.71393">
        <ele>379</ele>
        <time>2016-06-12T09:01:08.000Z</time>
      </trkpt>
      <trkpt lat="47.50871" lon="6.71397">
        <ele>379</ele>
        <time>2016-06-12T09:01:09.000Z</time>
      </trkpt>
      <trkpt lat="47.5087" lon="6.714">
        <ele>379</ele>
        <time>2016-06-12T09:01:10.000Z</time>
      </trkpt>
      <trkpt lat="47.50869" lon="6.71407">
        <ele>379</ele>
        <time>2016-06-12T09:01:12.000Z</time>
      </trkpt>
      <trkpt lat="47.50869" lon="6.71409">
        <ele>378</ele>
        <time>2016-06-12T09:01:13.000Z</time>
      </trkpt>
      <trkpt lat="47.50868" lon="6.71415">
        <ele>378</ele>
        <time>2016-06-12T09:01:15.000Z</time>
      </trkpt>
      <trkpt lat="47.50868" lon="6.71418">
        <ele>379</ele>
        <time>2016-06-12T09:01:16.000Z</time>
      </trkpt>
      <trkpt lat="47.50867" lon="6.71424">
        <ele>379</ele>
        <time>2016-06-12T09:01:18.000Z</time>
      </trkpt>
      <trkpt lat="47.50867" lon="6.71427">
        <ele>379</ele>
        <time>2016-06-12T09:01:19.000Z</time>
      </trkpt>
      <trkpt lat="47.50866" lon="6.7143">
        <ele>379</ele>
        <time>2016-06-12T09:01:20.000Z</time>
      </trkpt>
      <trkpt lat="47.50866" lon="6.71434">
        <ele>379</ele>
        <time>2016-06-12T09:01:21.000Z</time>
      </trkpt>
      <trkpt lat="47.50866" lon="6.71438">
        <ele>379</ele>
        <time>2016-06-12T09:01:22.000Z</time>
      </trkpt>
      <trkpt lat="47.50865" lon="6.71442">
        <ele>379</ele>
        <time>2016-06-12T09:01:23.000Z</time>
      </trkpt>
      <trkpt lat="47.50864" lon="6.71446">
        <ele>379</ele>
        <time>2016-06-12T09:01:24.000Z</time>
      </trkpt>
      <trkpt lat="47.50863" lon="6.7145">
        <ele>379</ele>
        <time>2016-06-12T09:01:25.000Z</time>
      </trkpt>
      <trkpt lat="47.50861" lon="6.71454">
        <ele>379</ele>
        <time>2016-06-12T09:01:26.000Z</time>
      </trkpt>
      <trkpt lat="47.5086" lon="6.71458">
        <ele>379</ele>
        <time>2016-06-12T09:01:27.000Z</time>
      </trkpt>
      <trkpt lat="47.50859" lon="6.71462">
        <ele>379</ele>
        <time>2016-06-12T09:01:28.000Z</time>
      </trkpt>
      <trkpt lat="47.50858" lon="6.71466">
        <ele>379</ele>
        <time>2016-06-12T09:01:29.000Z</time>
      </trkpt>
      <trkpt lat="47.50858" lon="6.71469">
        <ele>379</ele>
        <time>2016-06-12T09:01:30.000Z</time>
      </trkpt>
      <trkpt lat="47.50857" lon="6.71473">
        <ele>378</ele>
        <time>2016-06-12T09:01:31.000Z</time>
      </trkpt>
      <trkpt lat="47.50856" lon="6.71477">
        <ele>378</ele>
        <time>2016-06-12T09:01:32.000Z</time>
      </trkpt>
      <trkpt lat="47.50855" lon="6.7148">
        <ele>378</ele>
        <time>2016-06-12T09:01:33.000Z</time>
      </trkpt>
      <trkpt lat="47.50854" lon="6.71486">
        <ele>378</ele>
        <time>2016-06-12T09:01:35.000Z</time>
      </trkpt>
      <trkpt lat="47.50854" lon="6.71489">
        <ele>377</ele>
        <time>2016-06-12T09:01:36.000Z</time>
      </trkpt>
      <trkpt lat="47.50854" lon="6.71493">
        <ele>377</ele>
        <time>2016-06-12T09:01:37.000Z</time>
      </trkpt>
      <trkpt lat="47.50853" lon="6.71496">
        <ele>377</ele>
        <time>2016-06-12T09:01:38.000Z</time>
      </trkpt>
      <trkpt lat="47.50852" lon="6.71502">
        <ele>378</ele>
        <time>2016-06-12T09:01:40.000Z</time>
      </trkpt>
      <trkpt lat="47.50851" lon="6.71505">
        <ele>378</ele>
        <time>2016-06-12T09:01:41.000Z</time>
      </trkpt>
      <trkpt lat="47.50851" lon="6.71509">
        <ele>378</ele>
        <time>2016-06-12T09:01:42.000Z</time>
      </trkpt>
      <trkpt lat="47.5085" lon="6.71512">
        <ele>378</ele>
        <time>2016-06-12T09:01:43.000Z</time>
      </trkpt>
      <trkpt lat="47.50849" lon="6.71516">
        <ele>378</ele>
        <time>2016-06-12T09:01:44.000Z</time>
      </trkpt>
      <trkpt lat="47.50848" lon="6.7152">
        <ele>379</ele>
        <time>2016-06-12T09:01:45.000Z</time>
      </trkpt>
      <trkpt lat="47.50848" lon="6.71523">
        <ele>379</ele>
        <time>2016-06-12T09:01:46.000Z</time>
      </trkpt>
      <trkpt lat="47.50847" lon="6.71527">
        <ele>379</ele>
        <time>2016-06-12T09:01:47.000Z</time>
      </trkpt>
      <trkpt lat="47.50847" lon="6.7153">
        <ele>379</ele>
        <time>2016-06-12T09:01:48.000Z</time>
      </trkpt>
      <trkpt lat="47.50846" lon="6.71534">
        <ele>380</ele>
        <time>2016-06-12T09:01:49.000Z</time>
      </trkpt>
      <trkpt lat="47.50845" lon="6.71538">
        <ele>380</ele>
        <time>2016-06-12T09:01:50.000Z</time>
      </trkpt>
      <trkpt lat="47.50844" lon="6.71542">
        <ele>380</ele>
        <time>2016-06-12T09:01:51.000Z</time>
      </trkpt>
      <trkpt lat="47.50843" lon="6.71546">
        <ele>380</ele>
        <time>2016-06-12T09:01:52.000Z</time>
      </trkpt>
      <trkpt lat="47.50842" lon="6.7155">
        <ele>380</ele>
        <time>2016-06-12T09:01:53.000Z</time>
      </trkpt>
      <trkpt lat="47.50842" lon="6.71555">
        <ele>380</ele>
        <time>2016-06-12T09:01:54.000Z</time>
      </trkpt>
      <trkpt lat="47.50841" lon="6.71559">
        <ele>379</ele>
        <time>2016-06-12T09:01:55.000Z</time>
      </trkpt>
      <trkpt lat="47.5084" lon="6.71564">
        <ele>379</ele>
        <time>2016-06-12T09:01:56.000Z</time>
      </trkpt>
      <trkpt lat="47.50839" lon="6.71569">
        <ele>378</ele>
        <time>2016-06-12T09:01:57.000Z</time>
      </trkpt>
      <trkpt lat="47.50838" lon="6.71574">
        <ele>378</ele>
        <time>2016-06-12T09:01:58.000Z</time>
      </trkpt>
      <trkpt lat="47.50837" lon="6.71579">
        <ele>377</ele>
        <time>2016-06-12T09:01:59.000Z</time>
      </trkpt>
      <trkpt lat="47.50835" lon="6.71583">
        <ele>376</ele>
        <time>2016-06-12T09:02:00.000Z</time>
      </trkpt>
      <trkpt lat="47.50835" lon="6.71588">
        <ele>377</ele>
        <time>2016-06-12T09:02:01.000Z</time>
      </trkpt>
      <trkpt lat="47.50834" lon="6.71592">
        <ele>378</ele>
        <time>2016-06-12T09:02:02.000Z</time>
      </trkpt>
      <trkpt lat="47.50834" lon="6.71596">
        <ele>379</ele>
        <time>2016-06-12T09:02:03.000Z</time>
      </trkpt>
      <trkpt lat="47.50833" lon="6.716">
        <ele>380</ele>
        <time>2016-06-12T09:02:04.000Z</time>
      </trkpt>
      <trkpt lat="47.50833" lon="6.71604">
        <ele>371</ele>
        <time>2016-06-12T09:02:05.000Z</time>
      </trkpt>
      <trkpt lat="47.50833" lon="6.71608">
        <ele>371</ele>
        <time>2016-06-12T09:02:06.000Z</time>
      </trkpt>
      <trkpt lat="47.50832" lon="6.71613">
        <ele>371</ele>
        <time>2016-06-12T09:02:07.000Z</time>
      </trkpt>
      <trkpt lat="47.50832" lon="6.71617">
        <ele>371</ele>
        <time>2016-06-12T09:02:08.000Z</time>
      </trkpt>
      <trkpt lat="47.50832" lon="6.71623">
        <ele>371</ele>
        <time>2016-06-12T09:02:09.000Z</time>
      </trkpt>
      <trkpt lat="47.50831" lon="6.71628">
        <ele>371</ele>
        <time>2016-06-12T09:02:10.000Z</time>
      </trkpt>
      <trkpt lat="47.50831" lon="6.71632">
        <ele>371</ele>
        <time>2016-06-12T09:02:11.000Z</time>
      </trkpt>
      <trkpt lat="47.50831" lon="6.71637">
        <ele>372</ele>
        <time>2016-06-12T09:02:12.000Z</time>
      </trkpt>
      <trkpt lat="47.50831" lon="6.71641">
        <ele>372</ele>
        <time>2016-06-12T09:02:13.000Z</time>
      </trkpt>
      <trkpt lat="47.5083" lon="6.71646">
        <ele>373</ele>
        <time>2016-06-12T09:02:14.000Z</time>
      </trkpt>
      <trkpt lat="47.50828" lon="6.71652">
        <ele>374</ele>
        <time>2016-06-12T09:02:15.000Z</time>
      </trkpt>
      <trkpt lat="47.50825" lon="6.71657">
        <ele>375</ele>
        <time>2016-06-12T09:02:16.000Z</time>
      </trkpt>
      <trkpt lat="47.50823" lon="6.71662">
        <ele>375</ele>
        <time>2016-06-12T09:02:17.000Z</time>
      </trkpt>
      <trkpt lat="47.5082" lon="6.71666">
        <ele>375</ele>
        <time>2016-06-12T09:02:18.000Z</time>
      </trkpt>
      <trkpt lat="47.50817" lon="6.7167">
        <ele>374</ele>
        <time>2016-06-12T09:02:19.000Z</time>
      </trkpt>
      <trkpt lat="47.50813" lon="6.71674">
        <ele>373</ele>
        <time>2016-06-12T09:02:20.000Z</time>
      </trkpt>
      <trkpt lat="47.50809" lon="6.71676">
        <ele>372</ele>
        <time>2016-06-12T09:02:21.000Z</time>
      </trkpt>
      <trkpt lat="47.50806" lon="6.71677">
        <ele>371</ele>
        <time>2016-06-12T09:02:22.000Z</time>
      </trkpt>
      <trkpt lat="47.50802" lon="6.71677">
        <ele>371</ele>
        <time>2016-06-12T09:02:23.000Z</time>
      </trkpt>
      <trkpt lat="47.50798" lon="6.71676">
        <ele>370</ele>
        <time>2016-06-12T09:02:24.000Z</time>
      </trkpt>
      <trkpt lat="47.50794" lon="6.71676">
        <ele>369</ele>
        <time>2016-06-12T09:02:25.000Z</time>
      </trkpt>
      <trkpt lat="47.5079" lon="6.71675">
        <ele>369</ele>
        <time>2016-06-12T09:02:26.000Z</time>
      </trkpt>
      <trkpt lat="47.50787" lon="6.71675">
        <ele>368</ele>
        <time>2016-06-12T09:02:27.000Z</time>
      </trkpt>
      <trkpt lat="47.50783" lon="6.71675">
        <ele>367</ele>
        <time>2016-06-12T09:02:28.000Z</time>
      </trkpt>
      <trkpt lat="47.50779" lon="6.71674">
        <ele>366</ele>
        <time>2016-06-12T09:02:29.000Z</time>
      </trkpt>
      <trkpt lat="47.50775" lon="6.71674">
        <ele>366</ele>
        <time>2016-06-12T09:02:30.000Z</time>
      </trkpt>
      <trkpt lat="47.50772" lon="6.71674">
        <ele>365</ele>
        <time>2016-06-12T09:02:31.000Z</time>
      </trkpt>
      <trkpt lat="47.50768" lon="6.71673">
        <ele>364</ele>
        <time>2016-06-12T09:02:32.000Z</time>
      </trkpt>
      <trkpt lat="47.50764" lon="6.71673">
        <ele>363</ele>
        <time>2016-06-12T09:02:33.000Z</time>
      </trkpt>
      <trkpt lat="47.5076" lon="6.71672">
        <ele>362</ele>
        <time>2016-06-12T09:02:34.000Z</time>
      </trkpt>
      <trkpt lat="47.50756" lon="6.71671">
        <ele>361</ele>
        <time>2016-06-12T09:02:35.000Z</time>
      </trkpt>
      <trkpt lat="47.50752" lon="6.7167">
        <ele>359</ele>
        <time>2016-06-12T09:02:36.000Z</time>
      </trkpt>
      <trkpt lat="47.50748" lon="6.71669">
        <ele>358</ele>
        <time>2016-06-12T09:02:37.000Z</time>
      </trkpt>
      <trkpt lat="47.50744" lon="6.71668">
        <ele>357</ele>
        <time>2016-06-12T09:02:38.000Z</time>
      </trkpt>
      <trkpt lat="47.50741" lon="6.71667">
        <ele>357</ele>
        <time>2016-06-12T09:02:39.000Z</time>
      </trkpt>
      <trkpt lat="47.50737" lon="6.71666">
        <ele>356</ele>
        <time>2016-06-12T09:02:40.000Z</time>
      </trkpt>
      <trkpt lat="47.50733" lon="6.71665">
        <ele>356</ele>
        <time>2016-06-12T09:02:41.000Z</time>
      </trkpt>
      <trkpt lat="47.50729" lon="6.71664">
        <ele>355</ele>
        <time>2016-06-12T09:02:42.000Z</time>
      </trkpt>
      <trkpt lat="47.50726" lon="6.71663">
        <ele>355</ele>
        <time>2016-06-12T09:02:43.000Z</time>
      </trkpt>
      <trkpt lat="47.50722" lon="6.71662">
        <ele>355</ele>
        <time>2016-06-12T09:02:44.000Z</time>
      </trkpt>
      <trkpt lat="47.50719" lon="6.71662">
        <ele>355</ele>
        <time>2016-06-12T09:02:45.000Z</time>
      </trkpt>
      <trkpt lat="47.50715" lon="6.71661">
        <ele>354</ele>
        <time>2016-06-12T09:02:46.000Z</time>
      </trkpt>
      <trkpt lat="47.50712" lon="6.7166">
        <ele>354</ele>
        <time>2016-06-12T09:02:47.000Z</time>
      </trkpt>
      <trkpt lat="47.50709" lon="6.71659">
        <ele>354</ele>
        <time>2016-06-12T09:02:48.000Z</time>
      </trkpt>
      <trkpt lat="47.50705" lon="6.71658">
        <ele>354</ele>
        <time>2016-06-12T09:02:49.000Z</time>
      </trkpt>
      <trkpt lat="47.50701" lon="6.71657">
        <ele>353</ele>
        <time>2016-06-12T09:02:50.000Z</time>
      </trkpt>
      <trkpt lat="47.50698" lon="6.71656">
        <ele>353</ele>
        <time>2016-06-12T09:02:51.000Z</time>
      </trkpt>
      <trkpt lat="47.50695" lon="6.71655">
        <ele>353</ele>
        <time>2016-06-12T09:02:52.000Z</time>
      </trkpt>
      <trkpt lat="47.50691" lon="6.71654">
        <ele>353</ele>
        <time>2016-06-12T09:02:53.000Z</time>
      </trkpt>
      <trkpt lat="47.50688" lon="6.71653">
        <ele>353</ele>
        <time>2016-06-12T09:02:54.000Z</time>
      </trkpt>
      <trkpt lat="47.50685" lon="6.71652">
        <ele>352</ele>
        <time>2016-06-12T09:02:55.000Z</time>
      </trkpt>
      <trkpt lat="47.50682" lon="6.71651">
        <ele>352</ele>
        <time>2016-06-12T09:02:56.000Z</time>
      </trkpt>
      <trkpt lat="47.50679" lon="6.7165">
        <ele>352</ele>
        <time>2016-06-12T09:02:57.000Z</time>
      </trkpt>
      <trkpt lat="47.50676" lon="6.71649">
        <ele>352</ele>
        <time>2016-06-12T09:02:58.000Z</time>
      </trkpt>
      <trkpt lat="47.50673" lon="6.71648">
        <ele>352</ele>
        <time>2016-06-12T09:02:59.000Z</time>
      </trkpt>
      <trkpt lat="47.5067" lon="6.71647">
        <ele>352</ele>
        <time>2016-06-12T09:03:00.000Z</time>
      </trkpt>
      <trkpt lat="47.50667" lon="6.71646">
        <ele>352</ele>
        <time>2016-06-12T09:03:01.000Z</time>
      </trkpt>
      <trkpt lat="47.50665" lon="6.71645">
        <ele>350</ele>
        <time>2016-06-12T09:03:02.000Z</time>
      </trkpt>
      <trkpt lat="47.50662" lon="6.71644">
        <ele>350</ele>
        <time>2016-06-12T09:03:03.000Z</time>
      </trkpt>
      <trkpt lat="47.50659" lon="6.71643">
        <ele>350</ele>
        <time>2016-06-12T09:03:04.000Z</time>
      </trkpt>
      <trkpt lat="47.50657" lon="6.71643">
        <ele>350</ele>
        <time>2016-06-12T09:03:05.000Z</time>
      </trkpt>
      <trkpt lat="47.50654" lon="6.71642">
        <ele>350</ele>
        <time>2016-06-12T09:03:06.000Z</time>
      </trkpt>
      <trkpt lat="47.50651" lon="6.71642">
        <ele>350</ele>
        <time>2016-06-12T09:03:07.000Z</time>
      </trkpt>
      <trkpt lat="47.50648" lon="6.71642">
        <ele>350</ele>
        <time>2016-06-12T09:03:08.000Z</time>
      </trkpt>
      <trkpt lat="47.50646" lon="6.71644">
        <ele>350</ele>
        <time>2016-06-12T09:03:09.000Z</time>
      </trkpt>
      <trkpt lat="47.50644" lon="6.71647">
        <ele>350</ele>
        <time>2016-06-12T09:03:10.000Z</time>
      </trkpt>
      <trkpt lat="47.50643" lon="6.71652">
        <ele>350</ele>
        <time>2016-06-12T09:03:11.000Z</time>
      </trkpt>
      <trkpt lat="47.50642" lon="6.71657">
        <ele>350</ele>
        <time>2016-06-12T09:03:12.000Z</time>
      </trkpt>
      <trkpt lat="47.50641" lon="6.71662">
        <ele>350</ele>
        <time>2016-06-12T09:03:13.000Z</time>
      </trkpt>
      <trkpt lat="47.50641" lon="6.71667">
        <ele>349</ele>
        <time>2016-06-12T09:03:14.000Z</time>
      </trkpt>
      <trkpt lat="47.5064" lon="6.71672">
        <ele>349</ele>
        <time>2016-06-12T09:03:15.000Z</time>
      </trkpt>
      <trkpt lat="47.50639" lon="6.71677">
        <ele>349</ele>
        <time>2016-06-12T09:03:16.000Z</time>
      </trkpt>
      <trkpt lat="47.50639" lon="6.71682">
        <ele>349</ele>
        <time>2016-06-12T09:03:17.000Z</time>
      </trkpt>
      <trkpt lat="47.50638" lon="6.71687">
        <ele>349</ele>
        <time>2016-06-12T09:03:18.000Z</time>
      </trkpt>
      <trkpt lat="47.50637" lon="6.71691">
        <ele>349</ele>
        <time>2016-06-12T09:03:19.000Z</time>
      </trkpt>
      <trkpt lat="47.50636" lon="6.71695">
        <ele>349</ele>
        <time>2016-06-12T09:03:20.000Z</time>
      </trkpt>
      <trkpt lat="47.50635" lon="6.717">
        <ele>349</ele>
        <time>2016-06-12T09:03:21.000Z</time>
      </trkpt>
      <trkpt lat="47.50635" lon="6.71705">
        <ele>349</ele>
        <time>2016-06-12T09:03:22.000Z</time>
      </trkpt>
      <trkpt lat="47.50634" lon="6.7171">
        <ele>349</ele>
        <time>2016-06-12T09:03:23.000Z</time>
      </trkpt>
      <trkpt lat="47.50633" lon="6.71715">
        <ele>349</ele>
        <time>2016-06-12T09:03:24.000Z</time>
      </trkpt>
      <trkpt lat="47.50632" lon="6.71721">
        <ele>348</ele>
        <time>2016-06-12T09:03:25.000Z</time>
      </trkpt>
      <trkpt lat="47.5063" lon="6.71727">
        <ele>348</ele>
        <time>2016-06-12T09:03:26.000Z</time>
      </trkpt>
      <trkpt lat="47.50629" lon="6.71733">
        <ele>348</ele>
        <time>2016-06-12T09:03:27.000Z</time>
      </trkpt>
      <trkpt lat="47.50627" lon="6.71739">
        <ele>348</ele>
        <time>2016-06-12T09:03:28.000Z</time>
      </trkpt>
      <trkpt lat="47.50626" lon="6.71746">
        <ele>348</ele>
        <time>2016-06-12T09:03:29.000Z</time>
      </trkpt>
      <trkpt lat="47.50625" lon="6.71752">
        <ele>347</ele>
        <time>2016-06-12T09:03:30.000Z</time>
      </trkpt>
      <trkpt lat="47.50623" lon="6.71759">
        <ele>347</ele>
        <time>2016-06-12T09:03:31.000Z</time>
      </trkpt>
      <trkpt lat="47.50622" lon="6.71765">
        <ele>347</ele>
        <time>2016-06-12T09:03:32.000Z</time>
      </trkpt>
      <trkpt lat="47.5062" lon="6.71771">
        <ele>347</ele>
        <time>2016-06-12T09:03:33.000Z</time>
      </trkpt>
      <trkpt lat="47.50619" lon="6.71778">
        <ele>347</ele>
        <time>2016-06-12T09:03:34.000Z</time>
      </trkpt>
      <trkpt lat="47.50618" lon="6.71784">
        <ele>347</ele>
        <time>2016-06-12T09:03:35.000Z</time>
      </trkpt>
      <trkpt lat="47.50616" lon="6.71791">
        <ele>347</ele>
        <time>2016-06-12T09:03:36.000Z</time>
      </trkpt>
      <trkpt lat="47.50614" lon="6.71797">
        <ele>346</ele>
        <time>2016-06-12T09:03:37.000Z</time>
      </trkpt>
      <trkpt lat="47.50612" lon="6.71804">
        <ele>346</ele>
        <time>2016-06-12T09:03:38.000Z</time>
      </trkpt>
      <trkpt lat="47.50611" lon="6.71811">
        <ele>346</ele>
        <time>2016-06-12T09:03:39.000Z</time>
      </trkpt>
      <trkpt lat="47.5061" lon="6.71818">
        <ele>346</ele>
        <time>2016-06-12T09:03:40.000Z</time>
      </trkpt>
      <trkpt lat="47.50608" lon="6.71825">
        <ele>346</ele>
        <time>2016-06-12T09:03:41.000Z</time>
      </trkpt>
      <trkpt lat="47.50607" lon="6.71832">
        <ele>346</ele>
        <time>2016-06-12T09:03:42.000Z</time>
      </trkpt>
      <trkpt lat="47.50605" lon="6.71838">
        <ele>345</ele>
        <time>2016-06-12T09:03:43.000Z</time>
      </trkpt>
      <trkpt lat="47.50604" lon="6.71844">
        <ele>345</ele>
        <time>2016-06-12T09:03:44.000Z</time>
      </trkpt>
      <trkpt lat="47.50602" lon="6.71851">
        <ele>345</ele>
        <time>2016-06-12T09:03:45.000Z</time>
      </trkpt>
      <trkpt lat="47.50601" lon="6.71858">
        <ele>345</ele>
        <time>2016-06-12T09:03:46.000Z</time>
      </trkpt>
      <trkpt lat="47.50599" lon="6.71865">
        <ele>345</ele>
        <time>2016-06-12T09:03:47.000Z</time>
      </trkpt>
      <trkpt lat="47.50598" lon="6.71871">
        <ele>346</ele>
        <time>2016-06-12T09:03:48.000Z</time>
      </trkpt>
      <trkpt lat="47.50596" lon="6.71878">
        <ele>346</ele>
        <time>2016-06-12T09:03:49.000Z</time>
      </trkpt>
      <trkpt lat="47.50595" lon="6.71883">
        <ele>346</ele>
        <time>2016-06-12T09:03:50.000Z</time>
      </trkpt>
      <trkpt lat="47.50593" lon="6.7189">
        <ele>346</ele>
        <time>2016-06-12T09:03:51.000Z</time>
      </trkpt>
      <trkpt lat="47.50591" lon="6.71897">
        <ele>345</ele>
        <time>2016-06-12T09:03:52.000Z</time>
      </trkpt>
      <trkpt lat="47.50589" lon="6.71905">
        <ele>345</ele>
        <time>2016-06-12T09:03:53.000Z</time>
      </trkpt>
      <trkpt lat="47.50587" lon="6.71912">
        <ele>345</ele>
        <time>2016-06-12T09:03:54.000Z</time>
      </trkpt>
      <trkpt lat="47.50585" lon="6.71919">
        <ele>345</ele>
        <time>2016-06-12T09:03:55.000Z</time>
      </trkpt>
      <trkpt lat="47.50583" lon="6.71927">
        <ele>345</ele>
        <time>2016-06-12T09:03:56.001Z</time>
      </trkpt>
      <trkpt lat="47.50581" lon="6.71935">
        <ele>345</ele>
        <time>2016-06-12T09:03:57.002Z</time>
      </trkpt>
      <trkpt lat="47.50578" lon="6.71941">
        <ele>345</ele>
        <time>2016-06-12T09:03:58.000Z</time>
      </trkpt>
      <trkpt lat="47.50575" lon="6.71947">
        <ele>345</ele>
        <time>2016-06-12T09:03:59.000Z</time>
      </trkpt>
      <trkpt lat="47.50573" lon="6.71953">
        <ele>345</ele>
        <time>2016-06-12T09:04:00.000Z</time>
      </trkpt>
      <trkpt lat="47.50569" lon="6.71958">
        <ele>345</ele>
        <time>2016-06-12T09:04:01.000Z</time>
      </trkpt>
      <trkpt lat="47.50567" lon="6.71964">
        <ele>345</ele>
        <time>2016-06-12T09:04:01.999Z</time>
      </trkpt>
      <trkpt lat="47.50563" lon="6.71971">
        <ele>345</ele>
        <time>2016-06-12T09:04:03.000Z</time>
      </trkpt>
      <trkpt lat="47.5056" lon="6.71977">
        <ele>345</ele>
        <time>2016-06-12T09:04:04.000Z</time>
      </trkpt>
      <trkpt lat="47.50558" lon="6.71983">
        <ele>345</ele>
        <time>2016-06-12T09:04:05.000Z</time>
      </trkpt>
      <trkpt lat="47.50555" lon="6.71989">
        <ele>345</ele>
        <time>2016-06-12T09:04:06.000Z</time>
      </trkpt>
      <trkpt lat="47.50552" lon="6.71995">
        <ele>345</ele>
        <time>2016-06-12T09:04:07.000Z</time>
      </trkpt>
      <trkpt lat="47.50549" lon="6.72001">
        <ele>344</ele>
        <time>2016-06-12T09:04:07.999Z</time>
      </trkpt>
      <trkpt lat="47.50546" lon="6.72006">
        <ele>344</ele>
        <time>2016-06-12T09:04:09.000Z</time>
      </trkpt>
      <trkpt lat="47.50543" lon="6.72011">
        <ele>344</ele>
        <time>2016-06-12T09:04:10.000Z</time>
      </trkpt>
      <trkpt lat="47.50541" lon="6.72017">
        <ele>344</ele>
        <time>2016-06-12T09:04:11.000Z</time>
      </trkpt>
      <trkpt lat="47.50539" lon="6.72022">
        <ele>344</ele>
        <time>2016-06-12T09:04:12.000Z</time>
      </trkpt>
      <trkpt lat="47.50537" lon="6.72028">
        <ele>344</ele>
        <time>2016-06-12T09:04:12.999Z</time>
      </trkpt>
      <trkpt lat="47.50536" lon="6.72034">
        <ele>344</ele>
        <time>2016-06-12T09:04:14.000Z</time>
      </trkpt>
      <trkpt lat="47.50534" lon="6.7204">
        <ele>344</ele>
        <time>2016-06-12T09:04:15.000Z</time>
      </trkpt>
      <trkpt lat="47.50531" lon="6.72047">
        <ele>344</ele>
        <time>2016-06-12T09:04:16.000Z</time>
      </trkpt>
      <trkpt lat="47.50528" lon="6.72053">
        <ele>344</ele>
        <time>2016-06-12T09:04:17.000Z</time>
      </trkpt>
      <trkpt lat="47.50526" lon="6.72059">
        <ele>344</ele>
        <time>2016-06-12T09:04:17.999Z</time>
      </trkpt>
      <trkpt lat="47.50524" lon="6.72066">
        <ele>344</ele>
        <time>2016-06-12T09:04:19.000Z</time>
      </trkpt>
      <trkpt lat="47.50522" lon="6.72073">
        <ele>344</ele>
        <time>2016-06-12T09:04:19.999Z</time>
      </trkpt>
      <trkpt lat="47.50521" lon="6.7208">
        <ele>344</ele>
        <time>2016-06-12T09:04:21.000Z</time>
      </trkpt>
      <trkpt lat="47.50519" lon="6.72086">
        <ele>344</ele>
        <time>2016-06-12T09:04:22.000Z</time>
      </trkpt>
      <trkpt lat="47.50517" lon="6.72093">
        <ele>344</ele>
        <time>2016-06-12T09:04:23.000Z</time>
      </trkpt>
      <trkpt lat="47.50515" lon="6.72099">
        <ele>344</ele>
        <time>2016-06-12T09:04:24.000Z</time>
      </trkpt>
      <trkpt lat="47.50513" lon="6.72106">
        <ele>344</ele>
        <time>2016-06-12T09:04:25.000Z</time>
      </trkpt>
      <trkpt lat="47.50512" lon="6.72114">
        <ele>344</ele>
        <time>2016-06-12T09:04:26.000Z</time>
      </trkpt>
      <trkpt lat="47.5051" lon="6.7212">
        <ele>344</ele>
        <time>2016-06-12T09:04:27.000Z</time>
      </trkpt>
      <trkpt lat="47.5051" lon="6.72127">
        <ele>344</ele>
        <time>2016-06-12T09:04:28.000Z</time>
      </trkpt>
      <trkpt lat="47.50509" lon="6.72134">
        <ele>344</ele>
        <time>2016-06-12T09:04:29.000Z</time>
      </trkpt>
      <trkpt lat="47.50508" lon="6.72141">
        <ele>344</ele>
        <time>2016-06-12T09:04:30.000Z</time>
      </trkpt>
      <trkpt lat="47.50507" lon="6.72148">
        <ele>344</ele>
        <time>2016-06-12T09:04:31.000Z</time>
      </trkpt>
      <trkpt lat="47.50506" lon="6.72155">
        <ele>344</ele>
        <time>2016-06-12T09:04:32.000Z</time>
      </trkpt>
      <trkpt lat="47.50505" lon="6.72162">
        <ele>343</ele>
        <time>2016-06-12T09:04:33.000Z</time>
      </trkpt>
      <trkpt lat="47.50504" lon="6.72169">
        <ele>343</ele>
        <time>2016-06-12T09:04:34.000Z</time>
      </trkpt>
      <trkpt lat="47.50504" lon="6.72174">
        <ele>344</ele>
        <time>2016-06-12T09:04:35.000Z</time>
      </trkpt>
      <trkpt lat="47.50504" lon="6.72181">
        <ele>344</ele>
        <time>2016-06-12T09:04:36.000Z</time>
      </trkpt>
      <trkpt lat="47.50503" lon="6.72187">
        <ele>344</ele>
        <time>2016-06-12T09:04:37.000Z</time>
      </trkpt>
      <trkpt lat="47.50502" lon="6.72194">
        <ele>344</ele>
        <time>2016-06-12T09:04:38.000Z</time>
      </trkpt>
      <trkpt lat="47.50501" lon="6.72201">
        <ele>344</ele>
        <time>2016-06-12T09:04:39.000Z</time>
      </trkpt>
      <trkpt lat="47.50501" lon="6.72207">
        <ele>344</ele>
        <time>2016-06-12T09:04:40.000Z</time>
      </trkpt>
      <trkpt lat="47.505" lon="6.72214">
        <ele>343</ele>
        <time>2016-06-12T09:04:41.000Z</time>
      </trkpt>
      <trkpt lat="47.50498" lon="6.72219">
        <ele>343</ele>
        <time>2016-06-12T09:04:42.000Z</time>
      </trkpt>
      <trkpt lat="47.50495" lon="6.72225">
        <ele>343</ele>
        <time>2016-06-12T09:04:43.000Z</time>
      </trkpt>
      <trkpt lat="47.50488" lon="6.72228">
        <ele>343</ele>
        <time>2016-06-12T09:04:44.000Z</time>
      </trkpt>
      <trkpt lat="47.50485" lon="6.72233">
        <ele>343</ele>
        <time>2016-06-12T09:04:45.000Z</time>
      </trkpt>
      <trkpt lat="47.50481" lon="6.72237">
        <ele>343</ele>
        <time>2016-06-12T09:04:46.000Z</time>
      </trkpt>
      <trkpt lat="47.50477" lon="6.72242">
        <ele>343</ele>
        <time>2016-06-12T09:04:47.000Z</time>
      </trkpt>
      <trkpt lat="47.50473" lon="6.72248">
        <ele>343</ele>
        <time>2016-06-12T09:04:48.000Z</time>
      </trkpt>
      <trkpt lat="47.50469" lon="6.72252">
        <ele>343</ele>
        <time>2016-06-12T09:04:49.000Z</time>
      </trkpt>
      <trkpt lat="47.50465" lon="6.72255">
        <ele>343</ele>
        <time>2016-06-12T09:04:50.000Z</time>
      </trkpt>
      <trkpt lat="47.50462" lon="6.72257">
        <ele>343</ele>
        <time>2016-06-12T09:04:51.000Z</time>
      </trkpt>
      <trkpt lat="47.50458" lon="6.72259">
        <ele>343</ele>
        <time>2016-06-12T09:04:52.000Z</time>
      </trkpt>
      <trkpt lat="47.50455" lon="6.72263">
        <ele>343</ele>
        <time>2016-06-12T09:04:53.001Z</time>
      </trkpt>
      <trkpt lat="47.50452" lon="6.72266">
        <ele>343</ele>
        <time>2016-06-12T09:04:54.000Z</time>
      </trkpt>
      <trkpt lat="47.50448" lon="6.72269">
        <ele>343</ele>
        <time>2016-06-12T09:04:55.000Z</time>
      </trkpt>
      <trkpt lat="47.50444" lon="6.72271">
        <ele>343</ele>
        <time>2016-06-12T09:04:56.000Z</time>
      </trkpt>
      <trkpt lat="47.5044" lon="6.72274">
        <ele>343</ele>
        <time>2016-06-12T09:04:57.000Z</time>
      </trkpt>
      <trkpt lat="47.50436" lon="6.72276">
        <ele>343</ele>
        <time>2016-06-12T09:04:58.000Z</time>
      </trkpt>
      <trkpt lat="47.50432" lon="6.7228">
        <ele>343</ele>
        <time>2016-06-12T09:04:59.000Z</time>
      </trkpt>
      <trkpt lat="47.50428" lon="6.72283">
        <ele>343</ele>
        <time>2016-06-12T09:05:00.000Z</time>
      </trkpt>
      <trkpt lat="47.50423" lon="6.72285">
        <ele>343</ele>
        <time>2016-06-12T09:05:01.000Z</time>
      </trkpt>
      <trkpt lat="47.50419" lon="6.72289">
        <ele>343</ele>
        <time>2016-06-12T09:05:02.000Z</time>
      </trkpt>
      <trkpt lat="47.50415" lon="6.72292">
        <ele>343</ele>
        <time>2016-06-12T09:05:03.000Z</time>
      </trkpt>
      <trkpt lat="47.5041" lon="6.72295">
        <ele>343</ele>
        <time>2016-06-12T09:05:04.000Z</time>
      </trkpt>
      <trkpt lat="47.50405" lon="6.72298">
        <ele>343</ele>
        <time>2016-06-12T09:05:05.000Z</time>
      </trkpt>
      <trkpt lat="47.50402" lon="6.72299">
        <ele>343</ele>
        <time>2016-06-12T09:05:06.000Z</time>
      </trkpt>
      <trkpt lat="47.50397" lon="6.72301">
        <ele>343</ele>
        <time>2016-06-12T09:05:07.000Z</time>
      </trkpt>
      <trkpt lat="47.50393" lon="6.72304">
        <ele>343</ele>
        <time>2016-06-12T09:05:08.000Z</time>
      </trkpt>
      <trkpt lat="47.50388" lon="6.72307">
        <ele>343</ele>
        <time>2016-06-12T09:05:09.000Z</time>
      </trkpt>
      <trkpt lat="47.50384" lon="6.7231">
        <ele>343</ele>
        <time>2016-06-12T09:05:09.999Z</time>
      </trkpt>
      <trkpt lat="47.5038" lon="6.72312">
        <ele>343</ele>
        <time>2016-06-12T09:05:11.000Z</time>
      </trkpt>
      <trkpt lat="47.50376" lon="6.72315">
        <ele>343</ele>
        <time>2016-06-12T09:05:12.000Z</time>
      </trkpt>
      <trkpt lat="47.50371" lon="6.72317">
        <ele>343</ele>
        <time>2016-06-12T09:05:13.000Z</time>
      </trkpt>
      <trkpt lat="47.50367" lon="6.72319">
        <ele>343</ele>
        <time>2016-06-12T09:05:14.000Z</time>
      </trkpt>
      <trkpt lat="47.50362" lon="6.72321">
        <ele>343</ele>
        <time>2016-06-12T09:05:15.000Z</time>
      </trkpt>
      <trkpt lat="47.50358" lon="6.72323">
        <ele>343</ele>
        <time>2016-06-12T09:05:16.000Z</time>
      </trkpt>
      <trkpt lat="47.50354" lon="6.72325">
        <ele>343</ele>
        <time>2016-06-12T09:05:17.000Z</time>
      </trkpt>
      <trkpt lat="47.50349" lon="6.72326">
        <ele>343</ele>
        <time>2016-06-12T09:05:18.000Z</time>
      </trkpt>
      <trkpt lat="47.50346" lon="6.72329">
        <ele>343</ele>
        <time>2016-06-12T09:05:19.000Z</time>
      </trkpt>
      <trkpt lat="47.50341" lon="6.72331">
        <ele>343</ele>
        <time>2016-06-12T09:05:20.000Z</time>
      </trkpt>
      <trkpt lat="47.50337" lon="6.72333">
        <ele>343</ele>
        <time>2016-06-12T09:05:21.000Z</time>
      </trkpt>
      <trkpt lat="47.50333" lon="6.72334">
        <ele>343</ele>
        <time>2016-06-12T09:05:22.000Z</time>
      </trkpt>
      <trkpt lat="47.50329" lon="6.72336">
        <ele>343</ele>
        <time>2016-06-12T09:05:23.000Z</time>
      </trkpt>
      <trkpt lat="47.50325" lon="6.72338">
        <ele>343</ele>
        <time>2016-06-12T09:05:24.000Z</time>
      </trkpt>
      <trkpt lat="47.50322" lon="6.72341">
        <ele>343</ele>
        <time>2016-06-12T09:05:25.000Z</time>
      </trkpt>
      <trkpt lat="47.50319" lon="6.72342">
        <ele>343</ele>
        <time>2016-06-12T09:05:26.000Z</time>
      </trkpt>
      <trkpt lat="47.50316" lon="6.72344">
        <ele>343</ele>
        <time>2016-06-12T09:05:27.001Z</time>
      </trkpt>
      <trkpt lat="47.50312" lon="6.72345">
        <ele>343</ele>
        <time>2016-06-12T09:05:29.000Z</time>
      </trkpt>
      <trkpt lat="47.5031" lon="6.72346">
        <ele>343</ele>
        <time>2016-06-12T09:05:30.000Z</time>
      </trkpt>
      <trkpt lat="47.50307" lon="6.72346">
        <ele>343</ele>
        <time>2016-06-12T09:05:31.000Z</time>
      </trkpt>
      <trkpt lat="47.50304" lon="6.72347">
        <ele>343</ele>
        <time>2016-06-12T09:05:32.000Z</time>
      </trkpt>
      <trkpt lat="47.50301" lon="6.72348">
        <ele>343</ele>
        <time>2016-06-12T09:05:33.000Z</time>
      </trkpt>
      <trkpt lat="47.50298" lon="6.72349">
        <ele>343</ele>
        <time>2016-06-12T09:05:34.000Z</time>
      </trkpt>
      <trkpt lat="47.50294" lon="6.72351">
        <ele>343</ele>
        <time>2016-06-12T09:05:35.000Z</time>
      </trkpt>
      <trkpt lat="47.5029" lon="6.72353">
        <ele>343</ele>
        <time>2016-06-12T09:05:36.000Z</time>
      </trkpt>
      <trkpt lat="47.50287" lon="6.72355">
        <ele>343</ele>
        <time>2016-06-12T09:05:37.000Z</time>
      </trkpt>
      <trkpt lat="47.50282" lon="6.72357">
        <ele>343</ele>
        <time>2016-06-12T09:05:38.000Z</time>
      </trkpt>
      <trkpt lat="47.50278" lon="6.72359">
        <ele>343</ele>
        <time>2016-06-12T09:05:39.000Z</time>
      </trkpt>
      <trkpt lat="47.50274" lon="6.72361">
        <ele>343</ele>
        <time>2016-06-12T09:05:40.000Z</time>
      </trkpt>
      <trkpt lat="47.5027" lon="6.72363">
        <ele>343</ele>
        <time>2016-06-12T09:05:41.000Z</time>
      </trkpt>
      <trkpt lat="47.50266" lon="6.72365">
        <ele>343</ele>
        <time>2016-06-12T09:05:42.000Z</time>
      </trkpt>
      <trkpt lat="47.50262" lon="6.72367">
        <ele>343</ele>
        <time>2016-06-12T09:05:43.000Z</time>
      </trkpt>
      <trkpt lat="47.50259" lon="6.7237">
        <ele>343</ele>
        <time>2016-06-12T09:05:44.000Z</time>
      </trkpt>
      <trkpt lat="47.50255" lon="6.72371">
        <ele>343</ele>
        <time>2016-06-12T09:05:45.000Z</time>
      </trkpt>
      <trkpt lat="47.50251" lon="6.72373">
        <ele>343</ele>
        <time>2016-06-12T09:05:46.000Z</time>
      </trkpt>
      <trkpt lat="47.50247" lon="6.72375">
        <ele>345</ele>
        <time>2016-06-12T09:05:47.000Z</time>
      </trkpt>
      <trkpt lat="47.50243" lon="6.72377">
        <ele>345</ele>
        <time>2016-06-12T09:05:48.001Z</time>
      </trkpt>
      <trkpt lat="47.50239" lon="6.72379">
        <ele>345</ele>
        <time>2016-06-12T09:05:49.000Z</time>
      </trkpt>
      <trkpt lat="47.50235" lon="6.72381">
        <ele>345</ele>
        <time>2016-06-12T09:05:50.000Z</time>
      </trkpt>
      <trkpt lat="47.50231" lon="6.72383">
        <ele>345</ele>
        <time>2016-06-12T09:05:51.000Z</time>
      </trkpt>
      <trkpt lat="47.50227" lon="6.72385">
        <ele>345</ele>
        <time>2016-06-12T09:05:52.000Z</time>
      </trkpt>
      <trkpt lat="47.50223" lon="6.72387">
        <ele>345</ele>
        <time>2016-06-12T09:05:53.000Z</time>
      </trkpt>
      <trkpt lat="47.50219" lon="6.7239">
        <ele>346</ele>
        <time>2016-06-12T09:05:54.000Z</time>
      </trkpt>
      <trkpt lat="47.50215" lon="6.72392">
        <ele>346</ele>
        <time>2016-06-12T09:05:55.000Z</time>
      </trkpt>
      <trkpt lat="47.50211" lon="6.72394">
        <ele>346</ele>
        <time>2016-06-12T09:05:56.000Z</time>
      </trkpt>
      <trkpt lat="47.50208" lon="6.72397">
        <ele>346</ele>
        <time>2016-06-12T09:05:57.000Z</time>
      </trkpt>
      <trkpt lat="47.50204" lon="6.72399">
        <ele>346</ele>
        <time>2016-06-12T09:05:58.000Z</time>
      </trkpt>
      <trkpt lat="47.502" lon="6.72401">
        <ele>346</ele>
        <time>2016-06-12T09:05:59.000Z</time>
      </trkpt>
      <trkpt lat="47.50197" lon="6.72402">
        <ele>346</ele>
        <time>2016-06-12T09:06:00.000Z</time>
      </trkpt>
      <trkpt lat="47.50193" lon="6.72404">
        <ele>347</ele>
        <time>2016-06-12T09:06:00.999Z</time>
      </trkpt>
      <trkpt lat="47.5019" lon="6.72405">
        <ele>347</ele>
        <time>2016-06-12T09:06:02.000Z</time>
      </trkpt>
      <trkpt lat="47.50187" lon="6.72406">
        <ele>347</ele>
        <time>2016-06-12T09:06:03.000Z</time>
      </trkpt>
      <trkpt lat="47.50184" lon="6.72408">
        <ele>347</ele>
        <time>2016-06-12T09:06:04.000Z</time>
      </trkpt>
      <trkpt lat="47.5018" lon="6.7241">
        <ele>347</ele>
        <time>2016-06-12T09:06:05.000Z</time>
      </trkpt>
      <trkpt lat="47.50177" lon="6.72412">
        <ele>347</ele>
        <time>2016-06-12T09:06:06.000Z</time>
      </trkpt>
      <trkpt lat="47.50174" lon="6.72415">
        <ele>348</ele>
        <time>2016-06-12T09:06:07.000Z</time>
      </trkpt>
      <trkpt lat="47.5017" lon="6.72417">
        <ele>347</ele>
        <time>2016-06-12T09:06:08.000Z</time>
      </trkpt>
      <trkpt lat="47.50167" lon="6.7242">
        <ele>348</ele>
        <time>2016-06-12T09:06:09.000Z</time>
      </trkpt>
      <trkpt lat="47.50164" lon="6.72422">
        <ele>348</ele>
        <time>2016-06-12T09:06:10.000Z</time>
      </trkpt>
      <trkpt lat="47.50161" lon="6.72424">
        <ele>348</ele>
        <time>2016-06-12T09:06:11.000Z</time>
      </trkpt>
      <trkpt lat="47.50158" lon="6.72426">
        <ele>349</ele>
        <time>2016-06-12T09:06:12.000Z</time>
      </trkpt>
      <trkpt lat="47.50155" lon="6.72429">
        <ele>349</ele>
        <time>2016-06-12T09:06:13.000Z</time>
      </trkpt>
      <trkpt lat="47.50153" lon="6.72432">
        <ele>349</ele>
        <time>2016-06-12T09:06:14.000Z</time>
      </trkpt>
      <trkpt lat="47.5015" lon="6.72435">
        <ele>349</ele>
        <time>2016-06-12T09:06:15.000Z</time>
      </trkpt>
      <trkpt lat="47.50148" lon="6.72438">
        <ele>349</ele>
        <time>2016-06-12T09:06:16.000Z</time>
      </trkpt>
      <trkpt lat="47.50146" lon="6.72442">
        <ele>349</ele>
        <time>2016-06-12T09:06:17.000Z</time>
      </trkpt>
      <trkpt lat="47.50144" lon="6.72446">
        <ele>349</ele>
        <time>2016-06-12T09:06:18.000Z</time>
      </trkpt>
      <trkpt lat="47.50142" lon="6.7245">
        <ele>349</ele>
        <time>2016-06-12T09:06:19.000Z</time>
      </trkpt>
      <trkpt lat="47.5014" lon="6.72454">
        <ele>349</ele>
        <time>2016-06-12T09:06:20.000Z</time>
      </trkpt>
      <trkpt lat="47.50138" lon="6.72457">
        <ele>349</ele>
        <time>2016-06-12T09:06:21.000Z</time>
      </trkpt>
      <trkpt lat="47.50136" lon="6.72461">
        <ele>349</ele>
        <time>2016-06-12T09:06:22.000Z</time>
      </trkpt>
      <trkpt lat="47.50135" lon="6.72466">
        <ele>349</ele>
        <time>2016-06-12T09:06:23.000Z</time>
      </trkpt>
      <trkpt lat="47.50133" lon="6.7247">
        <ele>349</ele>
        <time>2016-06-12T09:06:24.000Z</time>
      </trkpt>
      <trkpt lat="47.50131" lon="6.72474">
        <ele>349</ele>
        <time>2016-06-12T09:06:25.000Z</time>
      </trkpt>
      <trkpt lat="47.5013" lon="6.72478">
        <ele>349</ele>
        <time>2016-06-12T09:06:26.000Z</time>
      </trkpt>
      <trkpt lat="47.50128" lon="6.72482">
        <ele>349</ele>
        <time>2016-06-12T09:06:27.000Z</time>
      </trkpt>
      <trkpt lat="47.50126" lon="6.72487">
        <ele>349</ele>
        <time>2016-06-12T09:06:28.000Z</time>
      </trkpt>
      <trkpt lat="47.50124" lon="6.72492">
        <ele>349</ele>
        <time>2016-06-12T09:06:29.000Z</time>
      </trkpt>
      <trkpt lat="47.50122" lon="6.72496">
        <ele>349</ele>
        <time>2016-06-12T09:06:30.000Z</time>
      </trkpt>
      <trkpt lat="47.50121" lon="6.72501">
        <ele>348</ele>
        <time>2016-06-12T09:06:31.000Z</time>
      </trkpt>
      <trkpt lat="47.50119" lon="6.72506">
        <ele>348</ele>
        <time>2016-06-12T09:06:32.000Z</time>
      </trkpt>
      <trkpt lat="47.50117" lon="6.7251">
        <ele>348</ele>
        <time>2016-06-12T09:06:33.000Z</time>
      </trkpt>
      <trkpt lat="47.50115" lon="6.72515">
        <ele>348</ele>
        <time>2016-06-12T09:06:34.000Z</time>
      </trkpt>
      <trkpt lat="47.50113" lon="6.7252">
        <ele>348</ele>
        <time>2016-06-12T09:06:35.000Z</time>
      </trkpt>
      <trkpt lat="47.50111" lon="6.72525">
        <ele>348</ele>
        <time>2016-06-12T09:06:36.000Z</time>
      </trkpt>
      <trkpt lat="47.50109" lon="6.72529">
        <ele>348</ele>
        <time>2016-06-12T09:06:37.000Z</time>
      </trkpt>
      <trkpt lat="47.50107" lon="6.72534">
        <ele>348</ele>
        <time>2016-06-12T09:06:38.000Z</time>
      </trkpt>
      <trkpt lat="47.50104" lon="6.72539">
        <ele>348</ele>
        <time>2016-06-12T09:06:39.000Z</time>
      </trkpt>
      <trkpt lat="47.50102" lon="6.72543">
        <ele>348</ele>
        <time>2016-06-12T09:06:40.000Z</time>
      </trkpt>
      <trkpt lat="47.501" lon="6.72548">
        <ele>348</ele>
        <time>2016-06-12T09:06:41.000Z</time>
      </trkpt>
      <trkpt lat="47.50097" lon="6.72553">
        <ele>348</ele>
        <time>2016-06-12T09:06:42.000Z</time>
      </trkpt>
      <trkpt lat="47.50095" lon="6.72558">
        <ele>348</ele>
        <time>2016-06-12T09:06:43.000Z</time>
      </trkpt>
      <trkpt lat="47.50092" lon="6.72563">
        <ele>348</ele>
        <time>2016-06-12T09:06:44.000Z</time>
      </trkpt>
      <trkpt lat="47.50089" lon="6.72567">
        <ele>348</ele>
        <time>2016-06-12T09:06:45.000Z</time>
      </trkpt>
      <trkpt lat="47.50087" lon="6.72573">
        <ele>348</ele>
        <time>2016-06-12T09:06:46.000Z</time>
      </trkpt>
      <trkpt lat="47.50084" lon="6.72578">
        <ele>348</ele>
        <time>2016-06-12T09:06:47.000Z</time>
      </trkpt>
      <trkpt lat="47.50081" lon="6.72584">
        <ele>348</ele>
        <time>2016-06-12T09:06:48.000Z</time>
      </trkpt>
      <trkpt lat="47.50078" lon="6.7259">
        <ele>347</ele>
        <time>2016-06-12T09:06:49.000Z</time>
      </trkpt>
      <trkpt lat="47.50074" lon="6.72595">
        <ele>347</ele>
        <time>2016-06-12T09:06:50.000Z</time>
      </trkpt>
      <trkpt lat="47.5007" lon="6.72602">
        <ele>347</ele>
        <time>2016-06-12T09:06:51.000Z</time>
      </trkpt>
      <trkpt lat="47.50066" lon="6.72608">
        <ele>347</ele>
        <time>2016-06-12T09:06:52.000Z</time>
      </trkpt>
      <trkpt lat="47.50062" lon="6.72613">
        <ele>347</ele>
        <time>2016-06-12T09:06:53.000Z</time>
      </trkpt>
      <trkpt lat="47.50057" lon="6.72618">
        <ele>346</ele>
        <time>2016-06-12T09:06:54.000Z</time>
      </trkpt>
      <trkpt lat="47.50053" lon="6.72625">
        <ele>346</ele>
        <time>2016-06-12T09:06:55.000Z</time>
      </trkpt>
      <trkpt lat="47.50049" lon="6.72631">
        <ele>346</ele>
        <time>2016-06-12T09:06:55.999Z</time>
      </trkpt>
      <trkpt lat="47.50045" lon="6.72636">
        <ele>346</ele>
        <time>2016-06-12T09:06:57.000Z</time>
      </trkpt>
      <trkpt lat="47.5004" lon="6.72641">
        <ele>346</ele>
        <time>2016-06-12T09:06:58.000Z</time>
      </trkpt>
      <trkpt lat="47.50035" lon="6.72646">
        <ele>346</ele>
        <time>2016-06-12T09:06:59.000Z</time>
      </trkpt>
      <trkpt lat="47.50029" lon="6.72652">
        <ele>346</ele>
        <time>2016-06-12T09:07:00.000Z</time>
      </trkpt>
      <trkpt lat="47.50024" lon="6.72659">
        <ele>346</ele>
        <time>2016-06-12T09:07:01.000Z</time>
      </trkpt>
      <trkpt lat="47.5002" lon="6.72665">
        <ele>346</ele>
        <time>2016-06-12T09:07:02.000Z</time>
      </trkpt>
      <trkpt lat="47.50012" lon="6.72671">
        <ele>344</ele>
        <time>2016-06-12T09:07:03.000Z</time>
      </trkpt>
      <trkpt lat="47.50006" lon="6.72677">
        <ele>344</ele>
        <time>2016-06-12T09:07:04.000Z</time>
      </trkpt>
      <trkpt lat="47.5" lon="6.72684">
        <ele>344</ele>
        <time>2016-06-12T09:07:05.000Z</time>
      </trkpt>
      <trkpt lat="47.49993" lon="6.72691">
        <ele>344</ele>
        <time>2016-06-12T09:07:06.000Z</time>
      </trkpt>
      <trkpt lat="47.49986" lon="6.72696">
        <ele>343</ele>
        <time>2016-06-12T09:07:07.000Z</time>
      </trkpt>
      <trkpt lat="47.49981" lon="6.72702">
        <ele>343</ele>
        <time>2016-06-12T09:07:08.000Z</time>
      </trkpt>
      <trkpt lat="47.49975" lon="6.72708">
        <ele>343</ele>
        <time>2016-06-12T09:07:08.999Z</time>
      </trkpt>
      <trkpt lat="47.4997" lon="6.72717">
        <ele>343</ele>
        <time>2016-06-12T09:07:10.000Z</time>
      </trkpt>
      <trkpt lat="47.49964" lon="6.72724">
        <ele>343</ele>
        <time>2016-06-12T09:07:10.999Z</time>
      </trkpt>
      <trkpt lat="47.49958" lon="6.7273">
        <ele>343</ele>
        <time>2016-06-12T09:07:12.000Z</time>
      </trkpt>
      <trkpt lat="47.49953" lon="6.72736">
        <ele>343</ele>
        <time>2016-06-12T09:07:13.000Z</time>
      </trkpt>
      <trkpt lat="47.49948" lon="6.72742">
        <ele>343</ele>
        <time>2016-06-12T09:07:14.000Z</time>
      </trkpt>
      <trkpt lat="47.49944" lon="6.72747">
        <ele>343</ele>
        <time>2016-06-12T09:07:15.000Z</time>
      </trkpt>
      <trkpt lat="47.49941" lon="6.72752">
        <ele>342</ele>
        <time>2016-06-12T09:07:16.000Z</time>
      </trkpt>
      <trkpt lat="47.49939" lon="6.72759">
        <ele>342</ele>
        <time>2016-06-12T09:07:17.000Z</time>
      </trkpt>
      <trkpt lat="47.49936" lon="6.72764">
        <ele>342</ele>
        <time>2016-06-12T09:07:18.000Z</time>
      </trkpt>
      <trkpt lat="47.49936" lon="6.72771">
        <ele>342</ele>
        <time>2016-06-12T09:07:19.000Z</time>
      </trkpt>
      <trkpt lat="47.49934" lon="6.72779">
        <ele>342</ele>
        <time>2016-06-12T09:07:20.000Z</time>
      </trkpt>
      <trkpt lat="47.49934" lon="6.72786">
        <ele>342</ele>
        <time>2016-06-12T09:07:21.000Z</time>
      </trkpt>
      <trkpt lat="47.49933" lon="6.72793">
        <ele>342</ele>
        <time>2016-06-12T09:07:22.000Z</time>
      </trkpt>
      <trkpt lat="47.49933" lon="6.72801">
        <ele>342</ele>
        <time>2016-06-12T09:07:22.999Z</time>
      </trkpt>
      <trkpt lat="47.49934" lon="6.7281">
        <ele>342</ele>
        <time>2016-06-12T09:07:24.000Z</time>
      </trkpt>
      <trkpt lat="47.49935" lon="6.72817">
        <ele>342</ele>
        <time>2016-06-12T09:07:25.000Z</time>
      </trkpt>
      <trkpt lat="47.49936" lon="6.72826">
        <ele>342</ele>
        <time>2016-06-12T09:07:26.000Z</time>
      </trkpt>
      <trkpt lat="47.49938" lon="6.72833">
        <ele>342</ele>
        <time>2016-06-12T09:07:27.000Z</time>
      </trkpt>
      <trkpt lat="47.49939" lon="6.72841">
        <ele>341</ele>
        <time>2016-06-12T09:07:28.000Z</time>
      </trkpt>
      <trkpt lat="47.4994" lon="6.72849">
        <ele>341</ele>
        <time>2016-06-12T09:07:29.000Z</time>
      </trkpt>
      <trkpt lat="47.49941" lon="6.72857">
        <ele>341</ele>
        <time>2016-06-12T09:07:30.000Z</time>
      </trkpt>
      <trkpt lat="47.49942" lon="6.72864">
        <ele>341</ele>
        <time>2016-06-12T09:07:31.000Z</time>
      </trkpt>
      <trkpt lat="47.49943" lon="6.72872">
        <ele>341</ele>
        <time>2016-06-12T09:07:31.999Z</time>
      </trkpt>
      <trkpt lat="47.49943" lon="6.72881">
        <ele>341</ele>
        <time>2016-06-12T09:07:33.000Z</time>
      </trkpt>
      <trkpt lat="47.49943" lon="6.72888">
        <ele>341</ele>
        <time>2016-06-12T09:07:34.000Z</time>
      </trkpt>
      <trkpt lat="47.49943" lon="6.72896">
        <ele>341</ele>
        <time>2016-06-12T09:07:35.001Z</time>
      </trkpt>
      <trkpt lat="47.4994" lon="6.72904">
        <ele>341</ele>
        <time>2016-06-12T09:07:36.000Z</time>
      </trkpt>
      <trkpt lat="47.49937" lon="6.72911">
        <ele>341</ele>
        <time>2016-06-12T09:07:37.000Z</time>
      </trkpt>
      <trkpt lat="47.49934" lon="6.72917">
        <ele>340</ele>
        <time>2016-06-12T09:07:38.000Z</time>
      </trkpt>
      <trkpt lat="47.49932" lon="6.72924">
        <ele>340</ele>
        <time>2016-06-12T09:07:39.000Z</time>
      </trkpt>
      <trkpt lat="47.49929" lon="6.72928">
        <ele>340</ele>
        <time>2016-06-12T09:07:40.000Z</time>
      </trkpt>
      <trkpt lat="47.49927" lon="6.72934">
        <ele>340</ele>
        <time>2016-06-12T09:07:41.000Z</time>
      </trkpt>
      <trkpt lat="47.49924" lon="6.7294">
        <ele>340</ele>
        <time>2016-06-12T09:07:42.000Z</time>
      </trkpt>
      <trkpt lat="47.49922" lon="6.72943">
        <ele>340</ele>
        <time>2016-06-12T09:07:43.000Z</time>
      </trkpt>
      <trkpt lat="47.49918" lon="6.72945">
        <ele>340</ele>
        <time>2016-06-12T09:07:44.000Z</time>
      </trkpt>
      <trkpt lat="47.49913" lon="6.72946">
        <ele>341</ele>
        <time>2016-06-12T09:07:45.000Z</time>
      </trkpt>
      <trkpt lat="47.49909" lon="6.72946">
        <ele>341</ele>
        <time>2016-06-12T09:07:46.000Z</time>
      </trkpt>
      <trkpt lat="47.49903" lon="6.72945">
        <ele>342</ele>
        <time>2016-06-12T09:07:47.000Z</time>
      </trkpt>
      <trkpt lat="47.49902" lon="6.72943">
        <ele>342</ele>
        <time>2016-06-12T09:07:48.000Z</time>
      </trkpt>
      <trkpt lat="47.49899" lon="6.72941">
        <ele>342</ele>
        <time>2016-06-12T09:07:49.000Z</time>
      </trkpt>
      <trkpt lat="47.49896" lon="6.72943">
        <ele>342</ele>
        <time>2016-06-12T09:07:50.000Z</time>
      </trkpt>
      <trkpt lat="47.49893" lon="6.72944">
        <ele>342</ele>
        <time>2016-06-12T09:07:51.000Z</time>
      </trkpt>
      <trkpt lat="47.4989" lon="6.72946">
        <ele>342</ele>
        <time>2016-06-12T09:07:52.000Z</time>
      </trkpt>
      <trkpt lat="47.49888" lon="6.7295">
        <ele>342</ele>
        <time>2016-06-12T09:07:53.000Z</time>
      </trkpt>
      <trkpt lat="47.49886" lon="6.72954">
        <ele>342</ele>
        <time>2016-06-12T09:07:54.000Z</time>
      </trkpt>
      <trkpt lat="47.49885" lon="6.72958">
        <ele>342</ele>
        <time>2016-06-12T09:07:55.000Z</time>
      </trkpt>
      <trkpt lat="47.49883" lon="6.72963">
        <ele>342</ele>
        <time>2016-06-12T09:07:56.000Z</time>
      </trkpt>
      <trkpt lat="47.49882" lon="6.72967">
        <ele>342</ele>
        <time>2016-06-12T09:07:57.000Z</time>
      </trkpt>
      <trkpt lat="47.49881" lon="6.72971">
        <ele>342</ele>
        <time>2016-06-12T09:07:58.000Z</time>
      </trkpt>
      <trkpt lat="47.49879" lon="6.72975">
        <ele>342</ele>
        <time>2016-06-12T09:07:59.000Z</time>
      </trkpt>
      <trkpt lat="47.49878" lon="6.7298">
        <ele>342</ele>
        <time>2016-06-12T09:08:00.000Z</time>
      </trkpt>
      <trkpt lat="47.49876" lon="6.72984">
        <ele>342</ele>
        <time>2016-06-12T09:08:01.000Z</time>
      </trkpt>
      <trkpt lat="47.49875" lon="6.72989">
        <ele>342</ele>
        <time>2016-06-12T09:08:02.000Z</time>
      </trkpt>
      <trkpt lat="47.49873" lon="6.72993">
        <ele>342</ele>
        <time>2016-06-12T09:08:03.000Z</time>
      </trkpt>
      <trkpt lat="47.49871" lon="6.72998">
        <ele>342</ele>
        <time>2016-06-12T09:08:04.000Z</time>
      </trkpt>
      <trkpt lat="47.49869" lon="6.73002">
        <ele>341</ele>
        <time>2016-06-12T09:08:05.000Z</time>
      </trkpt>
      <trkpt lat="47.49867" lon="6.73008">
        <ele>341</ele>
        <time>2016-06-12T09:08:06.000Z</time>
      </trkpt>
      <trkpt lat="47.49866" lon="6.73012">
        <ele>341</ele>
        <time>2016-06-12T09:08:07.000Z</time>
      </trkpt>
      <trkpt lat="47.49863" lon="6.73016">
        <ele>341</ele>
        <time>2016-06-12T09:08:08.000Z</time>
      </trkpt>
      <trkpt lat="47.49862" lon="6.73021">
        <ele>341</ele>
        <time>2016-06-12T09:08:09.000Z</time>
      </trkpt>
      <trkpt lat="47.4986" lon="6.73026">
        <ele>341</ele>
        <time>2016-06-12T09:08:10.000Z</time>
      </trkpt>
      <trkpt lat="47.49859" lon="6.73031">
        <ele>340</ele>
        <time>2016-06-12T09:08:11.000Z</time>
      </trkpt>
      <trkpt lat="47.49857" lon="6.73035">
        <ele>340</ele>
        <time>2016-06-12T09:08:12.000Z</time>
      </trkpt>
      <trkpt lat="47.49855" lon="6.73041">
        <ele>340</ele>
        <time>2016-06-12T09:08:13.000Z</time>
      </trkpt>
      <trkpt lat="47.49854" lon="6.73046">
        <ele>340</ele>
        <time>2016-06-12T09:08:14.000Z</time>
      </trkpt>
      <trkpt lat="47.49852" lon="6.73051">
        <ele>340</ele>
        <time>2016-06-12T09:08:15.000Z</time>
      </trkpt>
      <trkpt lat="47.4985" lon="6.73056">
        <ele>340</ele>
        <time>2016-06-12T09:08:16.000Z</time>
      </trkpt>
      <trkpt lat="47.49848" lon="6.73061">
        <ele>340</ele>
        <time>2016-06-12T09:08:17.000Z</time>
      </trkpt>
      <trkpt lat="47.49846" lon="6.73065">
        <ele>340</ele>
        <time>2016-06-12T09:08:18.000Z</time>
      </trkpt>
      <trkpt lat="47.49844" lon="6.7307">
        <ele>340</ele>
        <time>2016-06-12T09:08:19.000Z</time>
      </trkpt>
      <trkpt lat="47.49842" lon="6.73075">
        <ele>340</ele>
        <time>2016-06-12T09:08:20.000Z</time>
      </trkpt>
      <trkpt lat="47.4984" lon="6.7308">
        <ele>340</ele>
        <time>2016-06-12T09:08:21.000Z</time>
      </trkpt>
      <trkpt lat="47.49839" lon="6.73085">
        <ele>340</ele>
        <time>2016-06-12T09:08:22.000Z</time>
      </trkpt>
      <trkpt lat="47.49837" lon="6.73091">
        <ele>339</ele>
        <time>2016-06-12T09:08:23.000Z</time>
      </trkpt>
      <trkpt lat="47.49836" lon="6.73097">
        <ele>339</ele>
        <time>2016-06-12T09:08:24.000Z</time>
      </trkpt>
      <trkpt lat="47.49834" lon="6.73102">
        <ele>339</ele>
        <time>2016-06-12T09:08:25.000Z</time>
      </trkpt>
      <trkpt lat="47.49832" lon="6.73108">
        <ele>339</ele>
        <time>2016-06-12T09:08:26.000Z</time>
      </trkpt>
      <trkpt lat="47.49831" lon="6.73114">
        <ele>339</ele>
        <time>2016-06-12T09:08:27.000Z</time>
      </trkpt>
      <trkpt lat="47.49829" lon="6.73121">
        <ele>339</ele>
        <time>2016-06-12T09:08:28.000Z</time>
      </trkpt>
      <trkpt lat="47.49828" lon="6.73129">
        <ele>339</ele>
        <time>2016-06-12T09:08:29.000Z</time>
      </trkpt>
      <trkpt lat="47.49826" lon="6.73137">
        <ele>339</ele>
        <time>2016-06-12T09:08:30.000Z</time>
      </trkpt>
      <trkpt lat="47.49823" lon="6.73145">
        <ele>338</ele>
        <time>2016-06-12T09:08:31.000Z</time>
      </trkpt>
      <trkpt lat="47.49822" lon="6.73153">
        <ele>338</ele>
        <time>2016-06-12T09:08:32.000Z</time>
      </trkpt>
      <trkpt lat="47.4982" lon="6.73161">
        <ele>338</ele>
        <time>2016-06-12T09:08:33.000Z</time>
      </trkpt>
      <trkpt lat="47.49817" lon="6.73171">
        <ele>337</ele>
        <time>2016-06-12T09:08:34.000Z</time>
      </trkpt>
      <trkpt lat="47.49815" lon="6.7318">
        <ele>337</ele>
        <time>2016-06-12T09:08:35.000Z</time>
      </trkpt>
      <trkpt lat="47.49813" lon="6.73188">
        <ele>337</ele>
        <time>2016-06-12T09:08:36.000Z</time>
      </trkpt>
      <trkpt lat="47.4981" lon="6.73196">
        <ele>337</ele>
        <time>2016-06-12T09:08:37.000Z</time>
      </trkpt>
      <trkpt lat="47.49807" lon="6.73205">
        <ele>337</ele>
        <time>2016-06-12T09:08:38.000Z</time>
      </trkpt>
      <trkpt lat="47.49804" lon="6.73213">
        <ele>337</ele>
        <time>2016-06-12T09:08:39.000Z</time>
      </trkpt>
      <trkpt lat="47.49801" lon="6.73223">
        <ele>337</ele>
        <time>2016-06-12T09:08:39.999Z</time>
      </trkpt>
      <trkpt lat="47.49798" lon="6.7323">
        <ele>337</ele>
        <time>2016-06-12T09:08:41.000Z</time>
      </trkpt>
      <trkpt lat="47.49794" lon="6.73239">
        <ele>337</ele>
        <time>2016-06-12T09:08:42.000Z</time>
      </trkpt>
      <trkpt lat="47.4979" lon="6.73247">
        <ele>337</ele>
        <time>2016-06-12T09:08:43.000Z</time>
      </trkpt>
      <trkpt lat="47.49787" lon="6.73256">
        <ele>335</ele>
        <time>2016-06-12T09:08:44.000Z</time>
      </trkpt>
      <trkpt lat="47.49783" lon="6.73263">
        <ele>335</ele>
        <time>2016-06-12T09:08:45.000Z</time>
      </trkpt>
      <trkpt lat="47.4978" lon="6.73271">
        <ele>335</ele>
        <time>2016-06-12T09:08:45.999Z</time>
      </trkpt>
      <trkpt lat="47.49775" lon="6.73277">
        <ele>335</ele>
        <time>2016-06-12T09:08:47.000Z</time>
      </trkpt>
      <trkpt lat="47.49772" lon="6.73284">
        <ele>334</ele>
        <time>2016-06-12T09:08:48.000Z</time>
      </trkpt>
      <trkpt lat="47.49768" lon="6.73291">
        <ele>334</ele>
        <time>2016-06-12T09:08:49.000Z</time>
      </trkpt>
      <trkpt lat="47.49763" lon="6.73298">
        <ele>334</ele>
        <time>2016-06-12T09:08:50.000Z</time>
      </trkpt>
      <trkpt lat="47.4976" lon="6.73305">
        <ele>334</ele>
        <time>2016-06-12T09:08:51.000Z</time>
      </trkpt>
      <trkpt lat="47.49755" lon="6.73312">
        <ele>333</ele>
        <time>2016-06-12T09:08:52.000Z</time>
      </trkpt>
      <trkpt lat="47.49751" lon="6.73318">
        <ele>333</ele>
        <time>2016-06-12T09:08:53.000Z</time>
      </trkpt>
      <trkpt lat="47.49746" lon="6.73324">
        <ele>334</ele>
        <time>2016-06-12T09:08:54.000Z</time>
      </trkpt>
      <trkpt lat="47.49742" lon="6.7333">
        <ele>333</ele>
        <time>2016-06-12T09:08:55.000Z</time>
      </trkpt>
      <trkpt lat="47.49737" lon="6.73337">
        <ele>333</ele>
        <time>2016-06-12T09:08:56.000Z</time>
      </trkpt>
      <trkpt lat="47.49733" lon="6.73345">
        <ele>333</ele>
        <time>2016-06-12T09:08:57.000Z</time>
      </trkpt>
      <trkpt lat="47.49728" lon="6.73351">
        <ele>333</ele>
        <time>2016-06-12T09:08:58.000Z</time>
      </trkpt>
      <trkpt lat="47.49724" lon="6.73358">
        <ele>334</ele>
        <time>2016-06-12T09:08:59.000Z</time>
      </trkpt>
      <trkpt lat="47.4972" lon="6.73364">
        <ele>334</ele>
        <time>2016-06-12T09:09:00.000Z</time>
      </trkpt>
      <trkpt lat="47.49715" lon="6.7337">
        <ele>334</ele>
        <time>2016-06-12T09:09:01.000Z</time>
      </trkpt>
      <trkpt lat="47.49711" lon="6.73377">
        <ele>334</ele>
        <time>2016-06-12T09:09:02.000Z</time>
      </trkpt>
      <trkpt lat="47.49708" lon="6.73384">
        <ele>334</ele>
        <time>2016-06-12T09:09:03.000Z</time>
      </trkpt>
      <trkpt lat="47.49703" lon="6.7339">
        <ele>334</ele>
        <time>2016-06-12T09:09:04.000Z</time>
      </trkpt>
      <trkpt lat="47.49699" lon="6.73395">
        <ele>334</ele>
        <time>2016-06-12T09:09:05.000Z</time>
      </trkpt>
      <trkpt lat="47.49697" lon="6.73401">
        <ele>334</ele>
        <time>2016-06-12T09:09:06.000Z</time>
      </trkpt>
      <trkpt lat="47.49693" lon="6.73407">
        <ele>334</ele>
        <time>2016-06-12T09:09:07.000Z</time>
      </trkpt>
      <trkpt lat="47.49689" lon="6.73412">
        <ele>334</ele>
        <time>2016-06-12T09:09:08.000Z</time>
      </trkpt>
      <trkpt lat="47.49686" lon="6.73416">
        <ele>334</ele>
        <time>2016-06-12T09:09:09.000Z</time>
      </trkpt>
      <trkpt lat="47.49682" lon="6.73422">
        <ele>333</ele>
        <time>2016-06-12T09:09:10.000Z</time>
      </trkpt>
      <trkpt lat="47.49679" lon="6.73427">
        <ele>333</ele>
        <time>2016-06-12T09:09:11.000Z</time>
      </trkpt>
      <trkpt lat="47.49675" lon="6.73432">
        <ele>333</ele>
        <time>2016-06-12T09:09:12.000Z</time>
      </trkpt>
      <trkpt lat="47.49672" lon="6.73436">
        <ele>333</ele>
        <time>2016-06-12T09:09:13.000Z</time>
      </trkpt>
      <trkpt lat="47.49669" lon="6.73441">
        <ele>333</ele>
        <time>2016-06-12T09:09:14.000Z</time>
      </trkpt>
      <trkpt lat="47.49666" lon="6.73446">
        <ele>334</ele>
        <time>2016-06-12T09:09:15.000Z</time>
      </trkpt>
      <trkpt lat="47.49663" lon="6.7345">
        <ele>334</ele>
        <time>2016-06-12T09:09:16.000Z</time>
      </trkpt>
      <trkpt lat="47.4966" lon="6.73454">
        <ele>334</ele>
        <time>2016-06-12T09:09:17.000Z</time>
      </trkpt>
      <trkpt lat="47.49656" lon="6.73458">
        <ele>334</ele>
        <time>2016-06-12T09:09:18.000Z</time>
      </trkpt>
      <trkpt lat="47.49653" lon="6.73462">
        <ele>334</ele>
        <time>2016-06-12T09:09:19.000Z</time>
      </trkpt>
      <trkpt lat="47.4965" lon="6.73466">
        <ele>334</ele>
        <time>2016-06-12T09:09:20.000Z</time>
      </trkpt>
      <trkpt lat="47.49647" lon="6.7347">
        <ele>334</ele>
        <time>2016-06-12T09:09:21.000Z</time>
      </trkpt>
      <trkpt lat="47.49646" lon="6.73474">
        <ele>333</ele>
        <time>2016-06-12T09:09:22.000Z</time>
      </trkpt>
      <trkpt lat="47.49645" lon="6.7348">
        <ele>333</ele>
        <time>2016-06-12T09:09:23.000Z</time>
      </trkpt>
      <trkpt lat="47.49646" lon="6.73487">
        <ele>333</ele>
        <time>2016-06-12T09:09:24.000Z</time>
      </trkpt>
      <trkpt lat="47.49649" lon="6.73492">
        <ele>333</ele>
        <time>2016-06-12T09:09:25.000Z</time>
      </trkpt>
      <trkpt lat="47.49653" lon="6.73496">
        <ele>333</ele>
        <time>2016-06-12T09:09:26.000Z</time>
      </trkpt>
      <trkpt lat="47.49657" lon="6.735">
        <ele>332</ele>
        <time>2016-06-12T09:09:27.000Z</time>
      </trkpt>
      <trkpt lat="47.49661" lon="6.73504">
        <ele>332</ele>
        <time>2016-06-12T09:09:28.000Z</time>
      </trkpt>
      <trkpt lat="47.49665" lon="6.73509">
        <ele>332</ele>
        <time>2016-06-12T09:09:29.000Z</time>
      </trkpt>
      <trkpt lat="47.4967" lon="6.73515">
        <ele>332</ele>
        <time>2016-06-12T09:09:30.000Z</time>
      </trkpt>
      <trkpt lat="47.49674" lon="6.73518">
        <ele>332</ele>
        <time>2016-06-12T09:09:31.000Z</time>
      </trkpt>
      <trkpt lat="47.49678" lon="6.73522">
        <ele>332</ele>
        <time>2016-06-12T09:09:32.000Z</time>
      </trkpt>
      <trkpt lat="47.49683" lon="6.73526">
        <ele>332</ele>
        <time>2016-06-12T09:09:33.000Z</time>
      </trkpt>
      <trkpt lat="47.49686" lon="6.7353">
        <ele>332</ele>
        <time>2016-06-12T09:09:34.000Z</time>
      </trkpt>
      <trkpt lat="47.4969" lon="6.73533">
        <ele>332</ele>
        <time>2016-06-12T09:09:35.000Z</time>
      </trkpt>
      <trkpt lat="47.49694" lon="6.73537">
        <ele>332</ele>
        <time>2016-06-12T09:09:36.000Z</time>
      </trkpt>
      <trkpt lat="47.49697" lon="6.73541">
        <ele>332</ele>
        <time>2016-06-12T09:09:37.000Z</time>
      </trkpt>
      <trkpt lat="47.497" lon="6.73546">
        <ele>332</ele>
        <time>2016-06-12T09:09:38.000Z</time>
      </trkpt>
      <trkpt lat="47.49704" lon="6.73549">
        <ele>332</ele>
        <time>2016-06-12T09:09:39.000Z</time>
      </trkpt>
      <trkpt lat="47.49708" lon="6.73553">
        <ele>332</ele>
        <time>2016-06-12T09:09:40.000Z</time>
      </trkpt>
      <trkpt lat="47.49712" lon="6.73556">
        <ele>332</ele>
        <time>2016-06-12T09:09:41.000Z</time>
      </trkpt>
      <trkpt lat="47.49715" lon="6.73561">
        <ele>332</ele>
        <time>2016-06-12T09:09:42.000Z</time>
      </trkpt>
      <trkpt lat="47.49719" lon="6.73564">
        <ele>332</ele>
        <time>2016-06-12T09:09:43.000Z</time>
      </trkpt>
      <trkpt lat="47.49724" lon="6.73568">
        <ele>332</ele>
        <time>2016-06-12T09:09:44.000Z</time>
      </trkpt>
      <trkpt lat="47.49728" lon="6.73573">
        <ele>332</ele>
        <time>2016-06-12T09:09:45.000Z</time>
      </trkpt>
      <trkpt lat="47.49732" lon="6.73577">
        <ele>332</ele>
        <time>2016-06-12T09:09:46.000Z</time>
      </trkpt>
      <trkpt lat="47.49736" lon="6.73581">
        <ele>332</ele>
        <time>2016-06-12T09:09:47.000Z</time>
      </trkpt>
      <trkpt lat="47.49741" lon="6.73586">
        <ele>332</ele>
        <time>2016-06-12T09:09:48.000Z</time>
      </trkpt>
      <trkpt lat="47.49745" lon="6.7359">
        <ele>332</ele>
        <time>2016-06-12T09:09:49.000Z</time>
      </trkpt>
      <trkpt lat="47.49748" lon="6.73593">
        <ele>332</ele>
        <time>2016-06-12T09:09:50.000Z</time>
      </trkpt>
      <trkpt lat="47.49753" lon="6.73597">
        <ele>333</ele>
        <time>2016-06-12T09:09:51.000Z</time>
      </trkpt>
      <trkpt lat="47.49757" lon="6.73603">
        <ele>333</ele>
        <time>2016-06-12T09:09:52.000Z</time>
      </trkpt>
      <trkpt lat="47.49761" lon="6.73607">
        <ele>333</ele>
        <time>2016-06-12T09:09:53.000Z</time>
      </trkpt>
      <trkpt lat="47.49764" lon="6.73611">
        <ele>333</ele>
        <time>2016-06-12T09:09:54.000Z</time>
      </trkpt>
      <trkpt lat="47.49769" lon="6.73615">
        <ele>333</ele>
        <time>2016-06-12T09:09:55.000Z</time>
      </trkpt>
      <trkpt lat="47.49773" lon="6.73619">
        <ele>333</ele>
        <time>2016-06-12T09:09:56.000Z</time>
      </trkpt>
      <trkpt lat="47.49776" lon="6.73621">
        <ele>333</ele>
        <time>2016-06-12T09:09:57.000Z</time>
      </trkpt>
      <trkpt lat="47.49779" lon="6.73626">
        <ele>333</ele>
        <time>2016-06-12T09:09:58.000Z</time>
      </trkpt>
      <trkpt lat="47.49781" lon="6.73631">
        <ele>333</ele>
        <time>2016-06-12T09:09:59.000Z</time>
      </trkpt>
      <trkpt lat="47.49784" lon="6.73635">
        <ele>333</ele>
        <time>2016-06-12T09:10:00.000Z</time>
      </trkpt>
      <trkpt lat="47.49786" lon="6.7364">
        <ele>333</ele>
        <time>2016-06-12T09:10:01.000Z</time>
      </trkpt>
      <trkpt lat="47.49789" lon="6.73643">
        <ele>333</ele>
        <time>2016-06-12T09:10:02.000Z</time>
      </trkpt>
      <trkpt lat="47.49792" lon="6.73645">
        <ele>334</ele>
        <time>2016-06-12T09:10:03.000Z</time>
      </trkpt>
      <trkpt lat="47.49794" lon="6.7365">
        <ele>334</ele>
        <time>2016-06-12T09:10:04.000Z</time>
      </trkpt>
      <trkpt lat="47.49797" lon="6.73653">
        <ele>334</ele>
        <time>2016-06-12T09:10:05.000Z</time>
      </trkpt>
      <trkpt lat="47.49799" lon="6.73657">
        <ele>334</ele>
        <time>2016-06-12T09:10:06.000Z</time>
      </trkpt>
      <trkpt lat="47.49801" lon="6.73661">
        <ele>334</ele>
        <time>2016-06-12T09:10:07.000Z</time>
      </trkpt>
      <trkpt lat="47.49803" lon="6.73664">
        <ele>334</ele>
        <time>2016-06-12T09:10:08.000Z</time>
      </trkpt>
      <trkpt lat="47.49805" lon="6.73667">
        <ele>336</ele>
        <time>2016-06-12T09:10:09.000Z</time>
      </trkpt>
      <trkpt lat="47.49806" lon="6.7367">
        <ele>336</ele>
        <time>2016-06-12T09:10:10.000Z</time>
      </trkpt>
      <trkpt lat="47.49808" lon="6.73672">
        <ele>336</ele>
        <time>2016-06-12T09:10:11.000Z</time>
      </trkpt>
      <trkpt lat="47.49811" lon="6.73674">
        <ele>336</ele>
        <time>2016-06-12T09:10:12.000Z</time>
      </trkpt>
      <trkpt lat="47.49814" lon="6.73675">
        <ele>336</ele>
        <time>2016-06-12T09:10:13.000Z</time>
      </trkpt>
      <trkpt lat="47.49817" lon="6.73675">
        <ele>336</ele>
        <time>2016-06-12T09:10:14.000Z</time>
      </trkpt>
      <trkpt lat="47.49821" lon="6.73675">
        <ele>336</ele>
        <time>2016-06-12T09:10:15.000Z</time>
      </trkpt>
      <trkpt lat="47.49824" lon="6.73676">
        <ele>336</ele>
        <time>2016-06-12T09:10:16.000Z</time>
      </trkpt>
      <trkpt lat="47.49827" lon="6.73678">
        <ele>336</ele>
        <time>2016-06-12T09:10:17.000Z</time>
      </trkpt>
      <trkpt lat="47.4983" lon="6.73681">
        <ele>336</ele>
        <time>2016-06-12T09:10:18.000Z</time>
      </trkpt>
      <trkpt lat="47.49834" lon="6.73684">
        <ele>336</ele>
        <time>2016-06-12T09:10:19.000Z</time>
      </trkpt>
      <trkpt lat="47.49837" lon="6.73687">
        <ele>336</ele>
        <time>2016-06-12T09:10:20.000Z</time>
      </trkpt>
      <trkpt lat="47.4984" lon="6.7369">
        <ele>336</ele>
        <time>2016-06-12T09:10:21.000Z</time>
      </trkpt>
      <trkpt lat="47.49844" lon="6.73693">
        <ele>337</ele>
        <time>2016-06-12T09:10:22.000Z</time>
      </trkpt>
      <trkpt lat="47.49847" lon="6.73695">
        <ele>337</ele>
        <time>2016-06-12T09:10:23.000Z</time>
      </trkpt>
      <trkpt lat="47.4985" lon="6.73697">
        <ele>337</ele>
        <time>2016-06-12T09:10:24.000Z</time>
      </trkpt>
      <trkpt lat="47.49854" lon="6.737">
        <ele>337</ele>
        <time>2016-06-12T09:10:25.000Z</time>
      </trkpt>
      <trkpt lat="47.49857" lon="6.73702">
        <ele>337</ele>
        <time>2016-06-12T09:10:26.000Z</time>
      </trkpt>
      <trkpt lat="47.4986" lon="6.73704">
        <ele>337</ele>
        <time>2016-06-12T09:10:27.000Z</time>
      </trkpt>
      <trkpt lat="47.49863" lon="6.73707">
        <ele>337</ele>
        <time>2016-06-12T09:10:28.000Z</time>
      </trkpt>
      <trkpt lat="47.49866" lon="6.7371">
        <ele>337</ele>
        <time>2016-06-12T09:10:29.000Z</time>
      </trkpt>
      <trkpt lat="47.4987" lon="6.73713">
        <ele>337</ele>
        <time>2016-06-12T09:10:30.000Z</time>
      </trkpt>
      <trkpt lat="47.49872" lon="6.73716">
        <ele>337</ele>
        <time>2016-06-12T09:10:31.000Z</time>
      </trkpt>
      <trkpt lat="47.49875" lon="6.73719">
        <ele>337</ele>
        <time>2016-06-12T09:10:32.000Z</time>
      </trkpt>
      <trkpt lat="47.49878" lon="6.73721">
        <ele>338</ele>
        <time>2016-06-12T09:10:33.000Z</time>
      </trkpt>
      <trkpt lat="47.49881" lon="6.73724">
        <ele>338</ele>
        <time>2016-06-12T09:10:34.000Z</time>
      </trkpt>
      <trkpt lat="47.49884" lon="6.73727">
        <ele>338</ele>
        <time>2016-06-12T09:10:35.000Z</time>
      </trkpt>
      <trkpt lat="47.49887" lon="6.73729">
        <ele>338</ele>
        <time>2016-06-12T09:10:36.000Z</time>
      </trkpt>
      <trkpt lat="47.49891" lon="6.73731">
        <ele>338</ele>
        <time>2016-06-12T09:10:37.000Z</time>
      </trkpt>
      <trkpt lat="47.49894" lon="6.73733">
        <ele>338</ele>
        <time>2016-06-12T09:10:38.000Z</time>
      </trkpt>
      <trkpt lat="47.49897" lon="6.73736">
        <ele>338</ele>
        <time>2016-06-12T09:10:39.000Z</time>
      </trkpt>
      <trkpt lat="47.499" lon="6.73738">
        <ele>338</ele>
        <time>2016-06-12T09:10:40.000Z</time>
      </trkpt>
      <trkpt lat="47.49903" lon="6.7374">
        <ele>338</ele>
        <time>2016-06-12T09:10:41.000Z</time>
      </trkpt>
      <trkpt lat="47.49906" lon="6.73742">
        <ele>338</ele>
        <time>2016-06-12T09:10:42.000Z</time>
      </trkpt>
      <trkpt lat="47.49909" lon="6.73745">
        <ele>338</ele>
        <time>2016-06-12T09:10:43.000Z</time>
      </trkpt>
      <trkpt lat="47.49912" lon="6.73747">
        <ele>339</ele>
        <time>2016-06-12T09:10:44.000Z</time>
      </trkpt>
      <trkpt lat="47.49915" lon="6.73749">
        <ele>339</ele>
        <time>2016-06-12T09:10:45.000Z</time>
      </trkpt>
      <trkpt lat="47.49918" lon="6.73752">
        <ele>339</ele>
        <time>2016-06-12T09:10:46.000Z</time>
      </trkpt>
      <trkpt lat="47.49921" lon="6.73754">
        <ele>340</ele>
        <time>2016-06-12T09:10:47.000Z</time>
      </trkpt>
      <trkpt lat="47.49924" lon="6.73756">
        <ele>340</ele>
        <time>2016-06-12T09:10:48.000Z</time>
      </trkpt>
      <trkpt lat="47.49927" lon="6.73758">
        <ele>341</ele>
        <time>2016-06-12T09:10:49.000Z</time>
      </trkpt>
      <trkpt lat="47.4993" lon="6.7376">
        <ele>341</ele>
        <time>2016-06-12T09:10:50.000Z</time>
      </trkpt>
      <trkpt lat="47.49933" lon="6.73762">
        <ele>341</ele>
        <time>2016-06-12T09:10:51.000Z</time>
      </trkpt>
      <trkpt lat="47.49936" lon="6.73764">
        <ele>341</ele>
        <time>2016-06-12T09:10:52.000Z</time>
      </trkpt>
      <trkpt lat="47.49938" lon="6.73766">
        <ele>342</ele>
        <time>2016-06-12T09:10:53.000Z</time>
      </trkpt>
      <trkpt lat="47.49941" lon="6.73768">
        <ele>342</ele>
        <time>2016-06-12T09:10:54.000Z</time>
      </trkpt>
      <trkpt lat="47.49943" lon="6.7377">
        <ele>342</ele>
        <time>2016-06-12T09:10:55.000Z</time>
      </trkpt>
      <trkpt lat="47.49946" lon="6.73772">
        <ele>342</ele>
        <time>2016-06-12T09:10:56.000Z</time>
      </trkpt>
      <trkpt lat="47.49949" lon="6.73774">
        <ele>342</ele>
        <time>2016-06-12T09:10:57.000Z</time>
      </trkpt>
      <trkpt lat="47.49951" lon="6.73777">
        <ele>342</ele>
        <time>2016-06-12T09:10:58.000Z</time>
      </trkpt>
      <trkpt lat="47.49954" lon="6.73779">
        <ele>342</ele>
        <time>2016-06-12T09:10:59.000Z</time>
      </trkpt>
      <trkpt lat="47.49956" lon="6.73782">
        <ele>342</ele>
        <time>2016-06-12T09:11:00.000Z</time>
      </trkpt>
      <trkpt lat="47.49959" lon="6.73785">
        <ele>343</ele>
        <time>2016-06-12T09:11:01.000Z</time>
      </trkpt>
      <trkpt lat="47.49961" lon="6.73788">
        <ele>343</ele>
        <time>2016-06-12T09:11:02.000Z</time>
      </trkpt>
      <trkpt lat="47.49964" lon="6.7379">
        <ele>343</ele>
        <time>2016-06-12T09:11:03.000Z</time>
      </trkpt>
      <trkpt lat="47.49966" lon="6.73793">
        <ele>343</ele>
        <time>2016-06-12T09:11:04.000Z</time>
      </trkpt>
      <trkpt lat="47.49969" lon="6.73795">
        <ele>343</ele>
        <time>2016-06-12T09:11:05.000Z</time>
      </trkpt>
      <trkpt lat="47.49971" lon="6.73797">
        <ele>343</ele>
        <time>2016-06-12T09:11:06.000Z</time>
      </trkpt>
      <trkpt lat="47.49974" lon="6.73799">
        <ele>343</ele>
        <time>2016-06-12T09:11:07.000Z</time>
      </trkpt>
      <trkpt lat="47.49976" lon="6.73801">
        <ele>343</ele>
        <time>2016-06-12T09:11:08.000Z</time>
      </trkpt>
      <trkpt lat="47.49979" lon="6.73803">
        <ele>343</ele>
        <time>2016-06-12T09:11:09.000Z</time>
      </trkpt>
      <trkpt lat="47.49981" lon="6.73804">
        <ele>344</ele>
        <time>2016-06-12T09:11:10.000Z</time>
      </trkpt>
      <trkpt lat="47.49983" lon="6.73806">
        <ele>344</ele>
        <time>2016-06-12T09:11:11.000Z</time>
      </trkpt>
      <trkpt lat="47.49985" lon="6.73808">
        <ele>344</ele>
        <time>2016-06-12T09:11:12.000Z</time>
      </trkpt>
      <trkpt lat="47.49988" lon="6.7381">
        <ele>344</ele>
        <time>2016-06-12T09:11:13.000Z</time>
      </trkpt>
      <trkpt lat="47.4999" lon="6.73812">
        <ele>344</ele>
        <time>2016-06-12T09:11:14.000Z</time>
      </trkpt>
      <trkpt lat="47.49992" lon="6.73815">
        <ele>344</ele>
        <time>2016-06-12T09:11:15.000Z</time>
      </trkpt>
      <trkpt lat="47.49995" lon="6.73817">
        <ele>344</ele>
        <time>2016-06-12T09:11:16.000Z</time>
      </trkpt>
      <trkpt lat="47.49998" lon="6.73819">
        <ele>345</ele>
        <time>2016-06-12T09:11:17.000Z</time>
      </trkpt>
      <trkpt lat="47.5" lon="6.73821">
        <ele>345</ele>
        <time>2016-06-12T09:11:18.000Z</time>
      </trkpt>
      <trkpt lat="47.50002" lon="6.73822">
        <ele>348</ele>
        <time>2016-06-12T09:11:19.000Z</time>
      </trkpt>
      <trkpt lat="47.50004" lon="6.73824">
        <ele>348</ele>
        <time>2016-06-12T09:11:20.000Z</time>
      </trkpt>
      <trkpt lat="47.50007" lon="6.73826">
        <ele>348</ele>
        <time>2016-06-12T09:11:21.000Z</time>
      </trkpt>
      <trkpt lat="47.50009" lon="6.73827">
        <ele>348</ele>
        <time>2016-06-12T09:11:22.000Z</time>
      </trkpt>
      <trkpt lat="47.50011" lon="6.73829">
        <ele>348</ele>
        <time>2016-06-12T09:11:23.000Z</time>
      </trkpt>
      <trkpt lat="47.50013" lon="6.7383">
        <ele>348</ele>
        <time>2016-06-12T09:11:24.000Z</time>
      </trkpt>
      <trkpt lat="47.50015" lon="6.73831">
        <ele>348</ele>
        <time>2016-06-12T09:11:25.000Z</time>
      </trkpt>
      <trkpt lat="47.50017" lon="6.73832">
        <ele>349</ele>
        <time>2016-06-12T09:11:26.000Z</time>
      </trkpt>
      <trkpt lat="47.50019" lon="6.73834">
        <ele>349</ele>
        <time>2016-06-12T09:11:27.000Z</time>
      </trkpt>
      <trkpt lat="47.50022" lon="6.73835">
        <ele>350</ele>
        <time>2016-06-12T09:11:28.000Z</time>
      </trkpt>
      <trkpt lat="47.50025" lon="6.73838">
        <ele>350</ele>
        <time>2016-06-12T09:11:30.000Z</time>
      </trkpt>
      <trkpt lat="47.50027" lon="6.7384">
        <ele>350</ele>
        <time>2016-06-12T09:11:31.000Z</time>
      </trkpt>
      <trkpt lat="47.50029" lon="6.73841">
        <ele>351</ele>
        <time>2016-06-12T09:11:32.000Z</time>
      </trkpt>
      <trkpt lat="47.50031" lon="6.73843">
        <ele>351</ele>
        <time>2016-06-12T09:11:33.000Z</time>
      </trkpt>
      <trkpt lat="47.50033" lon="6.73844">
        <ele>351</ele>
        <time>2016-06-12T09:11:34.000Z</time>
      </trkpt>
      <trkpt lat="47.50035" lon="6.73846">
        <ele>351</ele>
        <time>2016-06-12T09:11:35.000Z</time>
      </trkpt>
      <trkpt lat="47.50039" lon="6.73849">
        <ele>352</ele>
        <time>2016-06-12T09:11:37.000Z</time>
      </trkpt>
      <trkpt lat="47.50041" lon="6.7385">
        <ele>352</ele>
        <time>2016-06-12T09:11:38.000Z</time>
      </trkpt>
      <trkpt lat="47.50044" lon="6.73851">
        <ele>352</ele>
        <time>2016-06-12T09:11:39.000Z</time>
      </trkpt>
      <trkpt lat="47.50046" lon="6.73853">
        <ele>352</ele>
        <time>2016-06-12T09:11:40.000Z</time>
      </trkpt>
      <trkpt lat="47.50048" lon="6.73855">
        <ele>353</ele>
        <time>2016-06-12T09:11:41.000Z</time>
      </trkpt>
      <trkpt lat="47.5005" lon="6.73857">
        <ele>353</ele>
        <time>2016-06-12T09:11:42.000Z</time>
      </trkpt>
      <trkpt lat="47.50052" lon="6.73859">
        <ele>353</ele>
        <time>2016-06-12T09:11:43.000Z</time>
      </trkpt>
      <trkpt lat="47.50054" lon="6.73861">
        <ele>353</ele>
        <time>2016-06-12T09:11:44.000Z</time>
      </trkpt>
      <trkpt lat="47.50058" lon="6.73863">
        <ele>353</ele>
        <time>2016-06-12T09:11:46.000Z</time>
      </trkpt>
      <trkpt lat="47.5006" lon="6.73865">
        <ele>353</ele>
        <time>2016-06-12T09:11:47.000Z</time>
      </trkpt>
      <trkpt lat="47.50062" lon="6.73867">
        <ele>353</ele>
        <time>2016-06-12T09:11:48.000Z</time>
      </trkpt>
      <trkpt lat="47.50064" lon="6.73868">
        <ele>353</ele>
        <time>2016-06-12T09:11:49.000Z</time>
      </trkpt>
      <trkpt lat="47.50066" lon="6.7387">
        <ele>353</ele>
        <time>2016-06-12T09:11:50.000Z</time>
      </trkpt>
      <trkpt lat="47.50068" lon="6.73872">
        <ele>353</ele>
        <time>2016-06-12T09:11:51.000Z</time>
      </trkpt>
      <trkpt lat="47.5007" lon="6.73873">
        <ele>354</ele>
        <time>2016-06-12T09:11:52.000Z</time>
      </trkpt>
      <trkpt lat="47.50072" lon="6.73875">
        <ele>354</ele>
        <time>2016-06-12T09:11:53.000Z</time>
      </trkpt>
      <trkpt lat="47.50074" lon="6.73878">
        <ele>354</ele>
        <time>2016-06-12T09:11:54.000Z</time>
      </trkpt>
      <trkpt lat="47.50075" lon="6.73881">
        <ele>354</ele>
        <time>2016-06-12T09:11:55.000Z</time>
      </trkpt>
      <trkpt lat="47.50077" lon="6.73883">
        <ele>354</ele>
        <time>2016-06-12T09:11:56.000Z</time>
      </trkpt>
      <trkpt lat="47.50077" lon="6.73888">
        <ele>354</ele>
        <time>2016-06-12T09:11:57.000Z</time>
      </trkpt>
      <trkpt lat="47.50077" lon="6.73892">
        <ele>354</ele>
        <time>2016-06-12T09:11:58.000Z</time>
      </trkpt>
      <trkpt lat="47.50078" lon="6.73896">
        <ele>354</ele>
        <time>2016-06-12T09:11:59.000Z</time>
      </trkpt>
      <trkpt lat="47.50078" lon="6.739">
        <ele>354</ele>
        <time>2016-06-12T09:12:00.000Z</time>
      </trkpt>
      <trkpt lat="47.50078" lon="6.73904">
        <ele>354</ele>
        <time>2016-06-12T09:12:01.000Z</time>
      </trkpt>
      <trkpt lat="47.50079" lon="6.73908">
        <ele>355</ele>
        <time>2016-06-12T09:12:02.000Z</time>
      </trkpt>
      <trkpt lat="47.50079" lon="6.73913">
        <ele>355</ele>
        <time>2016-06-12T09:12:03.000Z</time>
      </trkpt>
      <trkpt lat="47.50079" lon="6.73917">
        <ele>356</ele>
        <time>2016-06-12T09:12:03.999Z</time>
      </trkpt>
      <trkpt lat="47.5008" lon="6.73922">
        <ele>356</ele>
        <time>2016-06-12T09:12:05.000Z</time>
      </trkpt>
      <trkpt lat="47.5008" lon="6.73926">
        <ele>355</ele>
        <time>2016-06-12T09:12:05.999Z</time>
      </trkpt>
      <trkpt lat="47.50081" lon="6.73931">
        <ele>355</ele>
        <time>2016-06-12T09:12:07.000Z</time>
      </trkpt>
      <trkpt lat="47.50081" lon="6.73935">
        <ele>355</ele>
        <time>2016-06-12T09:12:08.000Z</time>
      </trkpt>
      <trkpt lat="47.50082" lon="6.7394">
        <ele>355</ele>
        <time>2016-06-12T09:12:09.000Z</time>
      </trkpt>
      <trkpt lat="47.50082" lon="6.73945">
        <ele>355</ele>
        <time>2016-06-12T09:12:09.999Z</time>
      </trkpt>
      <trkpt lat="47.50082" lon="6.7395">
        <ele>355</ele>
        <time>2016-06-12T09:12:11.000Z</time>
      </trkpt>
      <trkpt lat="47.50083" lon="6.73954">
        <ele>355</ele>
        <time>2016-06-12T09:12:12.000Z</time>
      </trkpt>
      <trkpt lat="47.50083" lon="6.73958">
        <ele>355</ele>
        <time>2016-06-12T09:12:13.000Z</time>
      </trkpt>
      <trkpt lat="47.50084" lon="6.73962">
        <ele>362</ele>
        <time>2016-06-12T09:12:14.000Z</time>
      </trkpt>
      <trkpt lat="47.50085" lon="6.73967">
        <ele>362</ele>
        <time>2016-06-12T09:12:15.000Z</time>
      </trkpt>
      <trkpt lat="47.50085" lon="6.73971">
        <ele>362</ele>
        <time>2016-06-12T09:12:16.000Z</time>
      </trkpt>
      <trkpt lat="47.50086" lon="6.73975">
        <ele>361</ele>
        <time>2016-06-12T09:12:17.000Z</time>
      </trkpt>
      <trkpt lat="47.50087" lon="6.7398">
        <ele>361</ele>
        <time>2016-06-12T09:12:18.000Z</time>
      </trkpt>
      <trkpt lat="47.50088" lon="6.73984">
        <ele>361</ele>
        <time>2016-06-12T09:12:19.000Z</time>
      </trkpt>
      <trkpt lat="47.50088" lon="6.73988">
        <ele>360</ele>
        <time>2016-06-12T09:12:20.000Z</time>
      </trkpt>
      <trkpt lat="47.50087" lon="6.73994">
        <ele>359</ele>
        <time>2016-06-12T09:12:21.000Z</time>
      </trkpt>
      <trkpt lat="47.50086" lon="6.73999">
        <ele>358</ele>
        <time>2016-06-12T09:12:22.000Z</time>
      </trkpt>
      <trkpt lat="47.50086" lon="6.74004">
        <ele>359</ele>
        <time>2016-06-12T09:12:23.000Z</time>
      </trkpt>
      <trkpt lat="47.50086" lon="6.74009">
        <ele>360</ele>
        <time>2016-06-12T09:12:24.000Z</time>
      </trkpt>
      <trkpt lat="47.50087" lon="6.74013">
        <ele>361</ele>
        <time>2016-06-12T09:12:25.000Z</time>
      </trkpt>
      <trkpt lat="47.50088" lon="6.74016">
        <ele>362</ele>
        <time>2016-06-12T09:12:26.000Z</time>
      </trkpt>
      <trkpt lat="47.5009" lon="6.74019">
        <ele>363</ele>
        <time>2016-06-12T09:12:27.000Z</time>
      </trkpt>
      <trkpt lat="47.50093" lon="6.74022">
        <ele>364</ele>
        <time>2016-06-12T09:12:28.000Z</time>
      </trkpt>
      <trkpt lat="47.50094" lon="6.74025">
        <ele>364</ele>
        <time>2016-06-12T09:12:28.999Z</time>
      </trkpt>
      <trkpt lat="47.50098" lon="6.74027">
        <ele>365</ele>
        <time>2016-06-12T09:12:30.000Z</time>
      </trkpt>
      <trkpt lat="47.501" lon="6.7403">
        <ele>365</ele>
        <time>2016-06-12T09:12:31.000Z</time>
      </trkpt>
      <trkpt lat="47.50102" lon="6.74033">
        <ele>366</ele>
        <time>2016-06-12T09:12:32.000Z</time>
      </trkpt>
      <trkpt lat="47.50104" lon="6.74037">
        <ele>366</ele>
        <time>2016-06-12T09:12:33.000Z</time>
      </trkpt>
      <trkpt lat="47.50105" lon="6.7404">
        <ele>366</ele>
        <time>2016-06-12T09:12:34.000Z</time>
      </trkpt>
      <trkpt lat="47.50107" lon="6.74044">
        <ele>367</ele>
        <time>2016-06-12T09:12:35.000Z</time>
      </trkpt>
      <trkpt lat="47.50109" lon="6.74048">
        <ele>367</ele>
        <time>2016-06-12T09:12:36.000Z</time>
      </trkpt>
      <trkpt lat="47.50111" lon="6.74051">
        <ele>367</ele>
        <time>2016-06-12T09:12:37.000Z</time>
      </trkpt>
      <trkpt lat="47.50113" lon="6.74055">
        <ele>367</ele>
        <time>2016-06-12T09:12:38.000Z</time>
      </trkpt>
      <trkpt lat="47.50115" lon="6.74058">
        <ele>368</ele>
        <time>2016-06-12T09:12:39.000Z</time>
      </trkpt>
      <trkpt lat="47.50117" lon="6.74061">
        <ele>368</ele>
        <time>2016-06-12T09:12:40.000Z</time>
      </trkpt>
      <trkpt lat="47.50118" lon="6.74064">
        <ele>368</ele>
        <time>2016-06-12T09:12:41.000Z</time>
      </trkpt>
      <trkpt lat="47.5012" lon="6.74068">
        <ele>368</ele>
        <time>2016-06-12T09:12:42.000Z</time>
      </trkpt>
      <trkpt lat="47.50122" lon="6.74071">
        <ele>368</ele>
        <time>2016-06-12T09:12:43.000Z</time>
      </trkpt>
      <trkpt lat="47.50124" lon="6.74074">
        <ele>368</ele>
        <time>2016-06-12T09:12:44.000Z</time>
      </trkpt>
      <trkpt lat="47.50126" lon="6.74078">
        <ele>368</ele>
        <time>2016-06-12T09:12:45.000Z</time>
      </trkpt>
      <trkpt lat="47.50128" lon="6.74081">
        <ele>369</ele>
        <time>2016-06-12T09:12:46.000Z</time>
      </trkpt>
      <trkpt lat="47.5013" lon="6.74084">
        <ele>370</ele>
        <time>2016-06-12T09:12:47.000Z</time>
      </trkpt>
      <trkpt lat="47.50132" lon="6.74086">
        <ele>370</ele>
        <time>2016-06-12T09:12:48.000Z</time>
      </trkpt>
      <trkpt lat="47.50134" lon="6.74089">
        <ele>370</ele>
        <time>2016-06-12T09:12:49.000Z</time>
      </trkpt>
      <trkpt lat="47.50136" lon="6.74092">
        <ele>370</ele>
        <time>2016-06-12T09:12:50.000Z</time>
      </trkpt>
      <trkpt lat="47.50137" lon="6.74095">
        <ele>370</ele>
        <time>2016-06-12T09:12:51.000Z</time>
      </trkpt>
      <trkpt lat="47.50139" lon="6.74098">
        <ele>370</ele>
        <time>2016-06-12T09:12:52.000Z</time>
      </trkpt>
      <trkpt lat="47.50141" lon="6.74101">
        <ele>370</ele>
        <time>2016-06-12T09:12:53.000Z</time>
      </trkpt>
      <trkpt lat="47.50142" lon="6.74104">
        <ele>370</ele>
        <time>2016-06-12T09:12:54.000Z</time>
      </trkpt>
      <trkpt lat="47.50144" lon="6.74107">
        <ele>370</ele>
        <time>2016-06-12T09:12:55.000Z</time>
      </trkpt>
      <trkpt lat="47.50145" lon="6.7411">
        <ele>370</ele>
        <time>2016-06-12T09:12:56.000Z</time>
      </trkpt>
      <trkpt lat="47.50147" lon="6.74113">
        <ele>370</ele>
        <time>2016-06-12T09:12:57.000Z</time>
      </trkpt>
      <trkpt lat="47.50148" lon="6.74116">
        <ele>370</ele>
        <time>2016-06-12T09:12:58.000Z</time>
      </trkpt>
      <trkpt lat="47.5015" lon="6.7412">
        <ele>370</ele>
        <time>2016-06-12T09:12:59.000Z</time>
      </trkpt>
      <trkpt lat="47.50152" lon="6.74123">
        <ele>370</ele>
        <time>2016-06-12T09:13:00.000Z</time>
      </trkpt>
      <trkpt lat="47.50154" lon="6.74126">
        <ele>370</ele>
        <time>2016-06-12T09:13:01.000Z</time>
      </trkpt>
      <trkpt lat="47.50155" lon="6.74129">
        <ele>370</ele>
        <time>2016-06-12T09:13:02.000Z</time>
      </trkpt>
      <trkpt lat="47.50157" lon="6.74132">
        <ele>370</ele>
        <time>2016-06-12T09:13:03.000Z</time>
      </trkpt>
      <trkpt lat="47.50158" lon="6.74136">
        <ele>370</ele>
        <time>2016-06-12T09:13:04.000Z</time>
      </trkpt>
      <trkpt lat="47.5016" lon="6.7414">
        <ele>370</ele>
        <time>2016-06-12T09:13:05.000Z</time>
      </trkpt>
      <trkpt lat="47.50161" lon="6.74145">
        <ele>370</ele>
        <time>2016-06-12T09:13:06.000Z</time>
      </trkpt>
      <trkpt lat="47.50163" lon="6.74149">
        <ele>370</ele>
        <time>2016-06-12T09:13:07.000Z</time>
      </trkpt>
      <trkpt lat="47.50164" lon="6.74154">
        <ele>370</ele>
        <time>2016-06-12T09:13:08.000Z</time>
      </trkpt>
      <trkpt lat="47.50166" lon="6.74159">
        <ele>370</ele>
        <time>2016-06-12T09:13:09.000Z</time>
      </trkpt>
      <trkpt lat="47.50167" lon="6.74163">
        <ele>371</ele>
        <time>2016-06-12T09:13:10.000Z</time>
      </trkpt>
      <trkpt lat="47.50169" lon="6.74167">
        <ele>371</ele>
        <time>2016-06-12T09:13:11.000Z</time>
      </trkpt>
      <trkpt lat="47.5017" lon="6.7417">
        <ele>370</ele>
        <time>2016-06-12T09:13:12.000Z</time>
      </trkpt>
      <trkpt lat="47.50172" lon="6.74174">
        <ele>371</ele>
        <time>2016-06-12T09:13:13.000Z</time>
      </trkpt>
      <trkpt lat="47.50174" lon="6.74179">
        <ele>371</ele>
        <time>2016-06-12T09:13:14.000Z</time>
      </trkpt>
      <trkpt lat="47.50175" lon="6.74183">
        <ele>371</ele>
        <time>2016-06-12T09:13:15.000Z</time>
      </trkpt>
      <trkpt lat="47.50177" lon="6.74187">
        <ele>371</ele>
        <time>2016-06-12T09:13:16.000Z</time>
      </trkpt>
      <trkpt lat="47.50179" lon="6.74191">
        <ele>371</ele>
        <time>2016-06-12T09:13:17.000Z</time>
      </trkpt>
      <trkpt lat="47.5018" lon="6.74196">
        <ele>371</ele>
        <time>2016-06-12T09:13:18.000Z</time>
      </trkpt>
      <trkpt lat="47.50182" lon="6.742">
        <ele>371</ele>
        <time>2016-06-12T09:13:19.000Z</time>
      </trkpt>
      <trkpt lat="47.50184" lon="6.74205">
        <ele>371</ele>
        <time>2016-06-12T09:13:20.000Z</time>
      </trkpt>
      <trkpt lat="47.50186" lon="6.7421">
        <ele>370</ele>
        <time>2016-06-12T09:13:21.000Z</time>
      </trkpt>
      <trkpt lat="47.50189" lon="6.74216">
        <ele>370</ele>
        <time>2016-06-12T09:13:22.000Z</time>
      </trkpt>
      <trkpt lat="47.50192" lon="6.74225">
        <ele>370</ele>
        <time>2016-06-12T09:13:23.000Z</time>
      </trkpt>
      <trkpt lat="47.50195" lon="6.74231">
        <ele>370</ele>
        <time>2016-06-12T09:13:24.000Z</time>
      </trkpt>
      <trkpt lat="47.50197" lon="6.74238">
        <ele>370</ele>
        <time>2016-06-12T09:13:25.000Z</time>
      </trkpt>
      <trkpt lat="47.502" lon="6.74244">
        <ele>370</ele>
        <time>2016-06-12T09:13:26.000Z</time>
      </trkpt>
      <trkpt lat="47.50203" lon="6.7425">
        <ele>365</ele>
        <time>2016-06-12T09:13:27.000Z</time>
      </trkpt>
      <trkpt lat="47.50206" lon="6.74257">
        <ele>365</ele>
        <time>2016-06-12T09:13:28.000Z</time>
      </trkpt>
      <trkpt lat="47.50209" lon="6.74264">
        <ele>365</ele>
        <time>2016-06-12T09:13:29.000Z</time>
      </trkpt>
      <trkpt lat="47.50213" lon="6.7427">
        <ele>365</ele>
        <time>2016-06-12T09:13:30.000Z</time>
      </trkpt>
      <trkpt lat="47.50217" lon="6.74276">
        <ele>365</ele>
        <time>2016-06-12T09:13:31.000Z</time>
      </trkpt>
      <trkpt lat="47.50221" lon="6.74283">
        <ele>365</ele>
        <time>2016-06-12T09:13:32.000Z</time>
      </trkpt>
      <trkpt lat="47.50224" lon="6.74289">
        <ele>365</ele>
        <time>2016-06-12T09:13:33.000Z</time>
      </trkpt>
      <trkpt lat="47.50228" lon="6.74296">
        <ele>364</ele>
        <time>2016-06-12T09:13:34.000Z</time>
      </trkpt>
      <trkpt lat="47.50232" lon="6.74303">
        <ele>364</ele>
        <time>2016-06-12T09:13:35.000Z</time>
      </trkpt>
      <trkpt lat="47.50237" lon="6.74309">
        <ele>363</ele>
        <time>2016-06-12T09:13:36.000Z</time>
      </trkpt>
      <trkpt lat="47.50242" lon="6.74316">
        <ele>363</ele>
        <time>2016-06-12T09:13:37.000Z</time>
      </trkpt>
      <trkpt lat="47.50246" lon="6.74322">
        <ele>362</ele>
        <time>2016-06-12T09:13:38.000Z</time>
      </trkpt>
      <trkpt lat="47.50251" lon="6.74329">
        <ele>363</ele>
        <time>2016-06-12T09:13:39.000Z</time>
      </trkpt>
      <trkpt lat="47.50255" lon="6.74335">
        <ele>361</ele>
        <time>2016-06-12T09:13:40.000Z</time>
      </trkpt>
      <trkpt lat="47.50259" lon="6.74343">
        <ele>360</ele>
        <time>2016-06-12T09:13:41.000Z</time>
      </trkpt>
      <trkpt lat="47.50262" lon="6.74351">
        <ele>360</ele>
        <time>2016-06-12T09:13:42.000Z</time>
      </trkpt>
      <trkpt lat="47.50265" lon="6.7436">
        <ele>359</ele>
        <time>2016-06-12T09:13:43.000Z</time>
      </trkpt>
      <trkpt lat="47.50269" lon="6.74368">
        <ele>359</ele>
        <time>2016-06-12T09:13:44.000Z</time>
      </trkpt>
      <trkpt lat="47.50272" lon="6.74377">
        <ele>358</ele>
        <time>2016-06-12T09:13:45.000Z</time>
      </trkpt>
      <trkpt lat="47.50275" lon="6.74385">
        <ele>358</ele>
        <time>2016-06-12T09:13:46.000Z</time>
      </trkpt>
      <trkpt lat="47.50278" lon="6.74394">
        <ele>357</ele>
        <time>2016-06-12T09:13:47.000Z</time>
      </trkpt>
      <trkpt lat="47.50281" lon="6.74403">
        <ele>357</ele>
        <time>2016-06-12T09:13:48.000Z</time>
      </trkpt>
      <trkpt lat="47.50284" lon="6.74413">
        <ele>357</ele>
        <time>2016-06-12T09:13:49.000Z</time>
      </trkpt>
      <trkpt lat="47.50287" lon="6.74423">
        <ele>352</ele>
        <time>2016-06-12T09:13:50.000Z</time>
      </trkpt>
      <trkpt lat="47.50289" lon="6.74433">
        <ele>352</ele>
        <time>2016-06-12T09:13:51.000Z</time>
      </trkpt>
      <trkpt lat="47.50291" lon="6.74443">
        <ele>352</ele>
        <time>2016-06-12T09:13:52.000Z</time>
      </trkpt>
      <trkpt lat="47.50292" lon="6.74453">
        <ele>352</ele>
        <time>2016-06-12T09:13:53.000Z</time>
      </trkpt>
      <trkpt lat="47.50294" lon="6.74464">
        <ele>351</ele>
        <time>2016-06-12T09:13:54.000Z</time>
      </trkpt>
      <trkpt lat="47.50296" lon="6.74474">
        <ele>351</ele>
        <time>2016-06-12T09:13:55.000Z</time>
      </trkpt>
      <trkpt lat="47.50297" lon="6.74485">
        <ele>351</ele>
        <time>2016-06-12T09:13:56.000Z</time>
      </trkpt>
      <trkpt lat="47.50297" lon="6.74496">
        <ele>351</ele>
        <time>2016-06-12T09:13:57.000Z</time>
      </trkpt>
      <trkpt lat="47.50297" lon="6.74507">
        <ele>349</ele>
        <time>2016-06-12T09:13:58.000Z</time>
      </trkpt>
      <trkpt lat="47.50297" lon="6.74518">
        <ele>349</ele>
        <time>2016-06-12T09:13:59.000Z</time>
      </trkpt>
      <trkpt lat="47.50297" lon="6.7453">
        <ele>349</ele>
        <time>2016-06-12T09:14:00.000Z</time>
      </trkpt>
      <trkpt lat="47.50297" lon="6.74542">
        <ele>348</ele>
        <time>2016-06-12T09:14:01.000Z</time>
      </trkpt>
      <trkpt lat="47.50297" lon="6.74554">
        <ele>348</ele>
        <time>2016-06-12T09:14:02.000Z</time>
      </trkpt>
      <trkpt lat="47.50297" lon="6.74565">
        <ele>348</ele>
        <time>2016-06-12T09:14:03.000Z</time>
      </trkpt>
      <trkpt lat="47.50296" lon="6.74577">
        <ele>348</ele>
        <time>2016-06-12T09:14:04.000Z</time>
      </trkpt>
      <trkpt lat="47.50295" lon="6.7459">
        <ele>346</ele>
        <time>2016-06-12T09:14:05.000Z</time>
      </trkpt>
      <trkpt lat="47.50295" lon="6.74602">
        <ele>346</ele>
        <time>2016-06-12T09:14:06.000Z</time>
      </trkpt>
      <trkpt lat="47.50296" lon="6.74613">
        <ele>346</ele>
        <time>2016-06-12T09:14:07.000Z</time>
      </trkpt>
      <trkpt lat="47.50296" lon="6.74626">
        <ele>345</ele>
        <time>2016-06-12T09:14:08.000Z</time>
      </trkpt>
      <trkpt lat="47.50297" lon="6.74638">
        <ele>345</ele>
        <time>2016-06-12T09:14:09.000Z</time>
      </trkpt>
      <trkpt lat="47.50297" lon="6.7465">
        <ele>345</ele>
        <time>2016-06-12T09:14:09.999Z</time>
      </trkpt>
      <trkpt lat="47.50297" lon="6.7466">
        <ele>345</ele>
        <time>2016-06-12T09:14:11.000Z</time>
      </trkpt>
      <trkpt lat="47.50296" lon="6.74671">
        <ele>344</ele>
        <time>2016-06-12T09:14:12.000Z</time>
      </trkpt>
      <trkpt lat="47.50295" lon="6.74682">
        <ele>343</ele>
        <time>2016-06-12T09:14:13.000Z</time>
      </trkpt>
      <trkpt lat="47.50293" lon="6.74693">
        <ele>343</ele>
        <time>2016-06-12T09:14:14.000Z</time>
      </trkpt>
      <trkpt lat="47.50292" lon="6.74705">
        <ele>343</ele>
        <time>2016-06-12T09:14:15.000Z</time>
      </trkpt>
      <trkpt lat="47.50291" lon="6.74716">
        <ele>343</ele>
        <time>2016-06-12T09:14:16.000Z</time>
      </trkpt>
      <trkpt lat="47.50289" lon="6.74728">
        <ele>343</ele>
        <time>2016-06-12T09:14:17.000Z</time>
      </trkpt>
      <trkpt lat="47.50288" lon="6.7474">
        <ele>342</ele>
        <time>2016-06-12T09:14:18.000Z</time>
      </trkpt>
      <trkpt lat="47.50284" lon="6.74751">
        <ele>341</ele>
        <time>2016-06-12T09:14:19.000Z</time>
      </trkpt>
      <trkpt lat="47.50281" lon="6.74762">
        <ele>341</ele>
        <time>2016-06-12T09:14:20.000Z</time>
      </trkpt>
      <trkpt lat="47.50278" lon="6.74773">
        <ele>341</ele>
        <time>2016-06-12T09:14:21.000Z</time>
      </trkpt>
      <trkpt lat="47.50274" lon="6.74785">
        <ele>341</ele>
        <time>2016-06-12T09:14:22.000Z</time>
      </trkpt>
      <trkpt lat="47.50271" lon="6.74796">
        <ele>340</ele>
        <time>2016-06-12T09:14:23.000Z</time>
      </trkpt>
      <trkpt lat="47.50268" lon="6.74807">
        <ele>340</ele>
        <time>2016-06-12T09:14:23.999Z</time>
      </trkpt>
      <trkpt lat="47.50266" lon="6.74818">
        <ele>339</ele>
        <time>2016-06-12T09:14:25.000Z</time>
      </trkpt>
      <trkpt lat="47.50263" lon="6.74829">
        <ele>338</ele>
        <time>2016-06-12T09:14:26.000Z</time>
      </trkpt>
      <trkpt lat="47.50261" lon="6.74841">
        <ele>338</ele>
        <time>2016-06-12T09:14:27.000Z</time>
      </trkpt>
      <trkpt lat="47.50258" lon="6.74854">
        <ele>339</ele>
        <time>2016-06-12T09:14:28.000Z</time>
      </trkpt>
      <trkpt lat="47.50255" lon="6.74866">
        <ele>339</ele>
        <time>2016-06-12T09:14:29.000Z</time>
      </trkpt>
      <trkpt lat="47.50253" lon="6.74877">
        <ele>339</ele>
        <time>2016-06-12T09:14:30.000Z</time>
      </trkpt>
      <trkpt lat="47.50251" lon="6.74889">
        <ele>339</ele>
        <time>2016-06-12T09:14:31.000Z</time>
      </trkpt>
      <trkpt lat="47.50249" lon="6.74901">
        <ele>336</ele>
        <time>2016-06-12T09:14:32.000Z</time>
      </trkpt>
      <trkpt lat="47.50247" lon="6.74913">
        <ele>336</ele>
        <time>2016-06-12T09:14:33.000Z</time>
      </trkpt>
      <trkpt lat="47.50244" lon="6.74924">
        <ele>336</ele>
        <time>2016-06-12T09:14:34.000Z</time>
      </trkpt>
      <trkpt lat="47.50241" lon="6.74935">
        <ele>336</ele>
        <time>2016-06-12T09:14:35.000Z</time>
      </trkpt>
      <trkpt lat="47.50237" lon="6.74945">
        <ele>336</ele>
        <time>2016-06-12T09:14:36.000Z</time>
      </trkpt>
      <trkpt lat="47.5023" lon="6.74954">
        <ele>336</ele>
        <time>2016-06-12T09:14:37.000Z</time>
      </trkpt>
      <trkpt lat="47.50223" lon="6.74962">
        <ele>336</ele>
        <time>2016-06-12T09:14:38.000Z</time>
      </trkpt>
      <trkpt lat="47.50217" lon="6.74969">
        <ele>336</ele>
        <time>2016-06-12T09:14:39.000Z</time>
      </trkpt>
      <trkpt lat="47.50211" lon="6.74978">
        <ele>336</ele>
        <time>2016-06-12T09:14:40.000Z</time>
      </trkpt>
      <trkpt lat="47.50205" lon="6.74986">
        <ele>335</ele>
        <time>2016-06-12T09:14:40.999Z</time>
      </trkpt>
      <trkpt lat="47.50202" lon="6.74998">
        <ele>335</ele>
        <time>2016-06-12T09:14:42.000Z</time>
      </trkpt>
      <trkpt lat="47.50199" lon="6.75009">
        <ele>334</ele>
        <time>2016-06-12T09:14:43.000Z</time>
      </trkpt>
      <trkpt lat="47.50197" lon="6.7502">
        <ele>334</ele>
        <time>2016-06-12T09:14:44.000Z</time>
      </trkpt>
      <trkpt lat="47.50196" lon="6.75031">
        <ele>333</ele>
        <time>2016-06-12T09:14:44.999Z</time>
      </trkpt>
      <trkpt lat="47.50195" lon="6.75043">
        <ele>333</ele>
        <time>2016-06-12T09:14:46.000Z</time>
      </trkpt>
      <trkpt lat="47.50194" lon="6.75056">
        <ele>333</ele>
        <time>2016-06-12T09:14:47.000Z</time>
      </trkpt>
      <trkpt lat="47.50192" lon="6.75069">
        <ele>332</ele>
        <time>2016-06-12T09:14:47.999Z</time>
      </trkpt>
      <trkpt lat="47.50191" lon="6.75081">
        <ele>332</ele>
        <time>2016-06-12T09:14:49.000Z</time>
      </trkpt>
      <trkpt lat="47.5019" lon="6.75093">
        <ele>329</ele>
        <time>2016-06-12T09:14:50.000Z</time>
      </trkpt>
      <trkpt lat="47.5019" lon="6.75105">
        <ele>329</ele>
        <time>2016-06-12T09:14:50.999Z</time>
      </trkpt>
      <trkpt lat="47.50184" lon="6.75115">
        <ele>329</ele>
        <time>2016-06-12T09:14:52.000Z</time>
      </trkpt>
      <trkpt lat="47.50179" lon="6.75124">
        <ele>328</ele>
        <time>2016-06-12T09:14:53.000Z</time>
      </trkpt>
      <trkpt lat="47.50175" lon="6.75133">
        <ele>328</ele>
        <time>2016-06-12T09:14:54.000Z</time>
      </trkpt>
      <trkpt lat="47.50166" lon="6.7514">
        <ele>326</ele>
        <time>2016-06-12T09:14:55.000Z</time>
      </trkpt>
      <trkpt lat="47.50159" lon="6.75145">
        <ele>325</ele>
        <time>2016-06-12T09:14:56.000Z</time>
      </trkpt>
      <trkpt lat="47.50152" lon="6.7515">
        <ele>325</ele>
        <time>2016-06-12T09:14:57.000Z</time>
      </trkpt>
      <trkpt lat="47.50146" lon="6.75155">
        <ele>325</ele>
        <time>2016-06-12T09:14:58.000Z</time>
      </trkpt>
      <trkpt lat="47.50139" lon="6.75159">
        <ele>325</ele>
        <time>2016-06-12T09:14:59.000Z</time>
      </trkpt>
      <trkpt lat="47.50134" lon="6.75164">
        <ele>326</ele>
        <time>2016-06-12T09:15:00.000Z</time>
      </trkpt>
      <trkpt lat="47.50128" lon="6.75169">
        <ele>323</ele>
        <time>2016-06-12T09:15:01.000Z</time>
      </trkpt>
      <trkpt lat="47.50122" lon="6.75174">
        <ele>323</ele>
        <time>2016-06-12T09:15:02.000Z</time>
      </trkpt>
      <trkpt lat="47.50116" lon="6.75178">
        <ele>323</ele>
        <time>2016-06-12T09:15:03.000Z</time>
      </trkpt>
      <trkpt lat="47.5011" lon="6.75181">
        <ele>323</ele>
        <time>2016-06-12T09:15:04.000Z</time>
      </trkpt>
      <trkpt lat="47.50104" lon="6.75185">
        <ele>323</ele>
        <time>2016-06-12T09:15:05.000Z</time>
      </trkpt>
      <trkpt lat="47.50098" lon="6.75188">
        <ele>323</ele>
        <time>2016-06-12T09:15:06.000Z</time>
      </trkpt>
      <trkpt lat="47.50093" lon="6.7519">
        <ele>323</ele>
        <time>2016-06-12T09:15:07.000Z</time>
      </trkpt>
      <trkpt lat="47.50087" lon="6.75192">
        <ele>323</ele>
        <time>2016-06-12T09:15:08.000Z</time>
      </trkpt>
      <trkpt lat="47.50081" lon="6.75194">
        <ele>323</ele>
        <time>2016-06-12T09:15:09.000Z</time>
      </trkpt>
      <trkpt lat="47.50075" lon="6.75197">
        <ele>323</ele>
        <time>2016-06-12T09:15:10.000Z</time>
      </trkpt>
      <trkpt lat="47.5007" lon="6.75198">
        <ele>322</ele>
        <time>2016-06-12T09:15:11.000Z</time>
      </trkpt>
      <trkpt lat="47.50064" lon="6.752">
        <ele>322</ele>
        <time>2016-06-12T09:15:12.000Z</time>
      </trkpt>
      <trkpt lat="47.50057" lon="6.75201">
        <ele>322</ele>
        <time>2016-06-12T09:15:13.000Z</time>
      </trkpt>
      <trkpt lat="47.50051" lon="6.75202">
        <ele>322</ele>
        <time>2016-06-12T09:15:14.000Z</time>
      </trkpt>
      <trkpt lat="47.50045" lon="6.75204">
        <ele>322</ele>
        <time>2016-06-12T09:15:15.000Z</time>
      </trkpt>
      <trkpt lat="47.5004" lon="6.75206">
        <ele>322</ele>
        <time>2016-06-12T09:15:16.000Z</time>
      </trkpt>
      <trkpt lat="47.50034" lon="6.75209">
        <ele>322</ele>
        <time>2016-06-12T09:15:17.000Z</time>
      </trkpt>
      <trkpt lat="47.50028" lon="6.75212">
        <ele>322</ele>
        <time>2016-06-12T09:15:18.000Z</time>
      </trkpt>
      <trkpt lat="47.50024" lon="6.75218">
        <ele>322</ele>
        <time>2016-06-12T09:15:19.000Z</time>
      </trkpt>
      <trkpt lat="47.5002" lon="6.75224">
        <ele>322</ele>
        <time>2016-06-12T09:15:20.000Z</time>
      </trkpt>
      <trkpt lat="47.50016" lon="6.75231">
        <ele>322</ele>
        <time>2016-06-12T09:15:21.000Z</time>
      </trkpt>
      <trkpt lat="47.50014" lon="6.75238">
        <ele>322</ele>
        <time>2016-06-12T09:15:22.000Z</time>
      </trkpt>
      <trkpt lat="47.50011" lon="6.75246">
        <ele>321</ele>
        <time>2016-06-12T09:15:23.000Z</time>
      </trkpt>
      <trkpt lat="47.5001" lon="6.75254">
        <ele>321</ele>
        <time>2016-06-12T09:15:24.000Z</time>
      </trkpt>
      <trkpt lat="47.50009" lon="6.75261">
        <ele>322</ele>
        <time>2016-06-12T09:15:25.000Z</time>
      </trkpt>
      <trkpt lat="47.50009" lon="6.7527">
        <ele>322</ele>
        <time>2016-06-12T09:15:26.000Z</time>
      </trkpt>
      <trkpt lat="47.50009" lon="6.75278">
        <ele>322</ele>
        <time>2016-06-12T09:15:27.000Z</time>
      </trkpt>
      <trkpt lat="47.5001" lon="6.75286">
        <ele>322</ele>
        <time>2016-06-12T09:15:28.000Z</time>
      </trkpt>
      <trkpt lat="47.5001" lon="6.75294">
        <ele>322</ele>
        <time>2016-06-12T09:15:29.000Z</time>
      </trkpt>
      <trkpt lat="47.50011" lon="6.75301">
        <ele>322</ele>
        <time>2016-06-12T09:15:30.000Z</time>
      </trkpt>
      <trkpt lat="47.50011" lon="6.75308">
        <ele>322</ele>
        <time>2016-06-12T09:15:31.000Z</time>
      </trkpt>
      <trkpt lat="47.50013" lon="6.75315">
        <ele>323</ele>
        <time>2016-06-12T09:15:32.001Z</time>
      </trkpt>
      <trkpt lat="47.50014" lon="6.75321">
        <ele>323</ele>
        <time>2016-06-12T09:15:33.000Z</time>
      </trkpt>
      <trkpt lat="47.50014" lon="6.75328">
        <ele>323</ele>
        <time>2016-06-12T09:15:34.000Z</time>
      </trkpt>
      <trkpt lat="47.50014" lon="6.75335">
        <ele>325</ele>
        <time>2016-06-12T09:15:35.000Z</time>
      </trkpt>
      <trkpt lat="47.50014" lon="6.75342">
        <ele>326</ele>
        <time>2016-06-12T09:15:36.000Z</time>
      </trkpt>
      <trkpt lat="47.50013" lon="6.75349">
        <ele>326</ele>
        <time>2016-06-12T09:15:37.000Z</time>
      </trkpt>
      <trkpt lat="47.50013" lon="6.75356">
        <ele>327</ele>
        <time>2016-06-12T09:15:38.000Z</time>
      </trkpt>
      <trkpt lat="47.50012" lon="6.75362">
        <ele>327</ele>
        <time>2016-06-12T09:15:39.000Z</time>
      </trkpt>
      <trkpt lat="47.50011" lon="6.75367">
        <ele>328</ele>
        <time>2016-06-12T09:15:40.000Z</time>
      </trkpt>
      <trkpt lat="47.5001" lon="6.75372">
        <ele>328</ele>
        <time>2016-06-12T09:15:41.000Z</time>
      </trkpt>
      <trkpt lat="47.50008" lon="6.75378">
        <ele>328</ele>
        <time>2016-06-12T09:15:42.000Z</time>
      </trkpt>
      <trkpt lat="47.50006" lon="6.75383">
        <ele>329</ele>
        <time>2016-06-12T09:15:43.000Z</time>
      </trkpt>
      <trkpt lat="47.50004" lon="6.75388">
        <ele>329</ele>
        <time>2016-06-12T09:15:43.999Z</time>
      </trkpt>
      <trkpt lat="47.50002" lon="6.75392">
        <ele>329</ele>
        <time>2016-06-12T09:15:45.000Z</time>
      </trkpt>
      <trkpt lat="47.5" lon="6.75397">
        <ele>329</ele>
        <time>2016-06-12T09:15:46.000Z</time>
      </trkpt>
      <trkpt lat="47.49997" lon="6.754">
        <ele>328</ele>
        <time>2016-06-12T09:15:47.000Z</time>
      </trkpt>
      <trkpt lat="47.49995" lon="6.75404">
        <ele>329</ele>
        <time>2016-06-12T09:15:48.000Z</time>
      </trkpt>
      <trkpt lat="47.49993" lon="6.75408">
        <ele>329</ele>
        <time>2016-06-12T09:15:48.999Z</time>
      </trkpt>
      <trkpt lat="47.49993" lon="6.75412">
        <ele>329</ele>
        <time>2016-06-12T09:15:50.000Z</time>
      </trkpt>
      <trkpt lat="47.49992" lon="6.75415">
        <ele>330</ele>
        <time>2016-06-12T09:15:51.000Z</time>
      </trkpt>
      <trkpt lat="47.49993" lon="6.7542">
        <ele>333</ele>
        <time>2016-06-12T09:15:52.000Z</time>
      </trkpt>
      <trkpt lat="47.49993" lon="6.75424">
        <ele>333</ele>
        <time>2016-06-12T09:15:53.001Z</time>
      </trkpt>
      <trkpt lat="47.49996" lon="6.75428">
        <ele>333</ele>
        <time>2016-06-12T09:15:54.000Z</time>
      </trkpt>
      <trkpt lat="47.49997" lon="6.75431">
        <ele>334</ele>
        <time>2016-06-12T09:15:55.000Z</time>
      </trkpt>
      <trkpt lat="47.49999" lon="6.75434">
        <ele>334</ele>
        <time>2016-06-12T09:15:56.000Z</time>
      </trkpt>
      <trkpt lat="47.50001" lon="6.75439">
        <ele>335</ele>
        <time>2016-06-12T09:15:58.000Z</time>
      </trkpt>
      <trkpt lat="47.50002" lon="6.75442">
        <ele>336</ele>
        <time>2016-06-12T09:15:59.000Z</time>
      </trkpt>
      <trkpt lat="47.50004" lon="6.75448">
        <ele>337</ele>
        <time>2016-06-12T09:16:01.000Z</time>
      </trkpt>
      <trkpt lat="47.50005" lon="6.75451">
        <ele>337</ele>
        <time>2016-06-12T09:16:02.000Z</time>
      </trkpt>
      <trkpt lat="47.50007" lon="6.75456">
        <ele>338</ele>
        <time>2016-06-12T09:16:04.000Z</time>
      </trkpt>
      <trkpt lat="47.50009" lon="6.75458">
        <ele>338</ele>
        <time>2016-06-12T09:16:05.000Z</time>
      </trkpt>
      <trkpt lat="47.50011" lon="6.75461">
        <ele>338</ele>
        <time>2016-06-12T09:16:06.000Z</time>
      </trkpt>
      <trkpt lat="47.50012" lon="6.75463">
        <ele>338</ele>
        <time>2016-06-12T09:16:07.000Z</time>
      </trkpt>
      <trkpt lat="47.50015" lon="6.75468">
        <ele>339</ele>
        <time>2016-06-12T09:16:09.000Z</time>
      </trkpt>
      <trkpt lat="47.50016" lon="6.75471">
        <ele>339</ele>
        <time>2016-06-12T09:16:10.000Z</time>
      </trkpt>
      <trkpt lat="47.50017" lon="6.75477">
        <ele>340</ele>
        <time>2016-06-12T09:16:12.000Z</time>
      </trkpt>
      <trkpt lat="47.50018" lon="6.7548">
        <ele>340</ele>
        <time>2016-06-12T09:16:13.000Z</time>
      </trkpt>
      <trkpt lat="47.50019" lon="6.75487">
        <ele>340</ele>
        <time>2016-06-12T09:16:15.000Z</time>
      </trkpt>
      <trkpt lat="47.5002" lon="6.75489">
        <ele>340</ele>
        <time>2016-06-12T09:16:16.000Z</time>
      </trkpt>
      <trkpt lat="47.5002" lon="6.75495">
        <ele>341</ele>
        <time>2016-06-12T09:16:18.000Z</time>
      </trkpt>
      <trkpt lat="47.50021" lon="6.75498">
        <ele>341</ele>
        <time>2016-06-12T09:16:19.000Z</time>
      </trkpt>
      <trkpt lat="47.50022" lon="6.75504">
        <ele>345</ele>
        <time>2016-06-12T09:16:21.000Z</time>
      </trkpt>
      <trkpt lat="47.50022" lon="6.75507">
        <ele>345</ele>
        <time>2016-06-12T09:16:22.000Z</time>
      </trkpt>
      <trkpt lat="47.50024" lon="6.75513">
        <ele>345</ele>
        <time>2016-06-12T09:16:24.000Z</time>
      </trkpt>
      <trkpt lat="47.50024" lon="6.75516">
        <ele>345</ele>
        <time>2016-06-12T09:16:25.000Z</time>
      </trkpt>
      <trkpt lat="47.50025" lon="6.75521">
        <ele>345</ele>
        <time>2016-06-12T09:16:27.000Z</time>
      </trkpt>
      <trkpt lat="47.50026" lon="6.75524">
        <ele>345</ele>
        <time>2016-06-12T09:16:28.000Z</time>
      </trkpt>
      <trkpt lat="47.50026" lon="6.7553">
        <ele>345</ele>
        <time>2016-06-12T09:16:30.000Z</time>
      </trkpt>
      <trkpt lat="47.50027" lon="6.75533">
        <ele>345</ele>
        <time>2016-06-12T09:16:31.000Z</time>
      </trkpt>
      <trkpt lat="47.50029" lon="6.75539">
        <ele>346</ele>
        <time>2016-06-12T09:16:33.000Z</time>
      </trkpt>
      <trkpt lat="47.5003" lon="6.75542">
        <ele>346</ele>
        <time>2016-06-12T09:16:34.000Z</time>
      </trkpt>
      <trkpt lat="47.50032" lon="6.75548">
        <ele>346</ele>
        <time>2016-06-12T09:16:36.000Z</time>
      </trkpt>
      <trkpt lat="47.50032" lon="6.7555">
        <ele>346</ele>
        <time>2016-06-12T09:16:37.000Z</time>
      </trkpt>
      <trkpt lat="47.50034" lon="6.75556">
        <ele>346</ele>
        <time>2016-06-12T09:16:39.000Z</time>
      </trkpt>
      <trkpt lat="47.50035" lon="6.75558">
        <ele>346</ele>
        <time>2016-06-12T09:16:40.000Z</time>
      </trkpt>
      <trkpt lat="47.50037" lon="6.75563">
        <ele>346</ele>
        <time>2016-06-12T09:16:42.000Z</time>
      </trkpt>
      <trkpt lat="47.50038" lon="6.75566">
        <ele>346</ele>
        <time>2016-06-12T09:16:43.000Z</time>
      </trkpt>
      <trkpt lat="47.5004" lon="6.75571">
        <ele>346</ele>
        <time>2016-06-12T09:16:45.000Z</time>
      </trkpt>
      <trkpt lat="47.50041" lon="6.75574">
        <ele>346</ele>
        <time>2016-06-12T09:16:46.000Z</time>
      </trkpt>
      <trkpt lat="47.50043" lon="6.75579">
        <ele>346</ele>
        <time>2016-06-12T09:16:48.000Z</time>
      </trkpt>
      <trkpt lat="47.50044" lon="6.75582">
        <ele>346</ele>
        <time>2016-06-12T09:16:49.000Z</time>
      </trkpt>
      <trkpt lat="47.50046" lon="6.75587">
        <ele>351</ele>
        <time>2016-06-12T09:16:51.000Z</time>
      </trkpt>
      <trkpt lat="47.50047" lon="6.75589">
        <ele>351</ele>
        <time>2016-06-12T09:16:52.000Z</time>
      </trkpt>
      <trkpt lat="47.50049" lon="6.75594">
        <ele>351</ele>
        <time>2016-06-12T09:16:54.000Z</time>
      </trkpt>
      <trkpt lat="47.5005" lon="6.75597">
        <ele>351</ele>
        <time>2016-06-12T09:16:55.000Z</time>
      </trkpt>
      <trkpt lat="47.50052" lon="6.75603">
        <ele>352</ele>
        <time>2016-06-12T09:16:57.000Z</time>
      </trkpt>
      <trkpt lat="47.50053" lon="6.75606">
        <ele>352</ele>
        <time>2016-06-12T09:16:58.000Z</time>
      </trkpt>
      <trkpt lat="47.50055" lon="6.75611">
        <ele>352</ele>
        <time>2016-06-12T09:17:00.000Z</time>
      </trkpt>
      <trkpt lat="47.50056" lon="6.75614">
        <ele>352</ele>
        <time>2016-06-12T09:17:01.000Z</time>
      </trkpt>
      <trkpt lat="47.50057" lon="6.75617">
        <ele>352</ele>
        <time>2016-06-12T09:17:02.000Z</time>
      </trkpt>
      <trkpt lat="47.50058" lon="6.7562">
        <ele>352</ele>
        <time>2016-06-12T09:17:03.000Z</time>
      </trkpt>
      <trkpt lat="47.50059" lon="6.75623">
        <ele>353</ele>
        <time>2016-06-12T09:17:04.000Z</time>
      </trkpt>
      <trkpt lat="47.50061" lon="6.75625">
        <ele>353</ele>
        <time>2016-06-12T09:17:05.000Z</time>
      </trkpt>
      <trkpt lat="47.50064" lon="6.7563">
        <ele>353</ele>
        <time>2016-06-12T09:17:07.000Z</time>
      </trkpt>
      <trkpt lat="47.50065" lon="6.75632">
        <ele>353</ele>
        <time>2016-06-12T09:17:08.000Z</time>
      </trkpt>
      <trkpt lat="47.50068" lon="6.75637">
        <ele>353</ele>
        <time>2016-06-12T09:17:10.000Z</time>
      </trkpt>
      <trkpt lat="47.50069" lon="6.7564">
        <ele>353</ele>
        <time>2016-06-12T09:17:11.000Z</time>
      </trkpt>
      <trkpt lat="47.50071" lon="6.75644">
        <ele>353</ele>
        <time>2016-06-12T09:17:13.000Z</time>
      </trkpt>
      <trkpt lat="47.50072" lon="6.75647">
        <ele>353</ele>
        <time>2016-06-12T09:17:14.000Z</time>
      </trkpt>
      <trkpt lat="47.50075" lon="6.75651">
        <ele>353</ele>
        <time>2016-06-12T09:17:16.000Z</time>
      </trkpt>
      <trkpt lat="47.50076" lon="6.75653">
        <ele>353</ele>
        <time>2016-06-12T09:17:17.000Z</time>
      </trkpt>
      <trkpt lat="47.50078" lon="6.75657">
        <ele>353</ele>
        <time>2016-06-12T09:17:19.000Z</time>
      </trkpt>
      <trkpt lat="47.50079" lon="6.75659">
        <ele>353</ele>
        <time>2016-06-12T09:17:20.000Z</time>
      </trkpt>
      <trkpt lat="47.50082" lon="6.75663">
        <ele>353</ele>
        <time>2016-06-12T09:17:22.000Z</time>
      </trkpt>
      <trkpt lat="47.50083" lon="6.75665">
        <ele>353</ele>
        <time>2016-06-12T09:17:23.000Z</time>
      </trkpt>
      <trkpt lat="47.50085" lon="6.7567">
        <ele>354</ele>
        <time>2016-06-12T09:17:25.000Z</time>
      </trkpt>
      <trkpt lat="47.50087" lon="6.75672">
        <ele>354</ele>
        <time>2016-06-12T09:17:26.000Z</time>
      </trkpt>
      <trkpt lat="47.50089" lon="6.75675">
        <ele>355</ele>
        <time>2016-06-12T09:17:28.000Z</time>
      </trkpt>
      <trkpt lat="47.5009" lon="6.75677">
        <ele>356</ele>
        <time>2016-06-12T09:17:29.000Z</time>
      </trkpt>
      <trkpt lat="47.50093" lon="6.7568">
        <ele>356</ele>
        <time>2016-06-12T09:17:31.000Z</time>
      </trkpt>
      <trkpt lat="47.50095" lon="6.75681">
        <ele>357</ele>
        <time>2016-06-12T09:17:32.000Z</time>
      </trkpt>
      <trkpt lat="47.50098" lon="6.75685">
        <ele>357</ele>
        <time>2016-06-12T09:17:34.000Z</time>
      </trkpt>
      <trkpt lat="47.501" lon="6.75686">
        <ele>357</ele>
        <time>2016-06-12T09:17:35.000Z</time>
      </trkpt>
      <trkpt lat="47.50103" lon="6.7569">
        <ele>358</ele>
        <time>2016-06-12T09:17:37.000Z</time>
      </trkpt>
      <trkpt lat="47.50104" lon="6.75692">
        <ele>358</ele>
        <time>2016-06-12T09:17:38.000Z</time>
      </trkpt>
      <trkpt lat="47.50106" lon="6.75696">
        <ele>358</ele>
        <time>2016-06-12T09:17:40.000Z</time>
      </trkpt>
      <trkpt lat="47.50108" lon="6.75697">
        <ele>359</ele>
        <time>2016-06-12T09:17:41.000Z</time>
      </trkpt>
      <trkpt lat="47.50111" lon="6.75701">
        <ele>359</ele>
        <time>2016-06-12T09:17:43.000Z</time>
      </trkpt>
      <trkpt lat="47.50112" lon="6.75702">
        <ele>359</ele>
        <time>2016-06-12T09:17:44.000Z</time>
      </trkpt>
      <trkpt lat="47.50115" lon="6.75706">
        <ele>359</ele>
        <time>2016-06-12T09:17:46.000Z</time>
      </trkpt>
      <trkpt lat="47.50116" lon="6.75708">
        <ele>359</ele>
        <time>2016-06-12T09:17:47.000Z</time>
      </trkpt>
      <trkpt lat="47.50118" lon="6.75712">
        <ele>359</ele>
        <time>2016-06-12T09:17:49.000Z</time>
      </trkpt>
      <trkpt lat="47.5012" lon="6.75714">
        <ele>360</ele>
        <time>2016-06-12T09:17:50.000Z</time>
      </trkpt>
      <trkpt lat="47.50121" lon="6.75717">
        <ele>360</ele>
        <time>2016-06-12T09:17:51.000Z</time>
      </trkpt>
      <trkpt lat="47.50123" lon="6.7572">
        <ele>360</ele>
        <time>2016-06-12T09:17:52.000Z</time>
      </trkpt>
      <trkpt lat="47.50124" lon="6.75723">
        <ele>360</ele>
        <time>2016-06-12T09:17:53.000Z</time>
      </trkpt>
      <trkpt lat="47.50125" lon="6.75725">
        <ele>360</ele>
        <time>2016-06-12T09:17:54.000Z</time>
      </trkpt>
      <trkpt lat="47.50129" lon="6.7573">
        <ele>360</ele>
        <time>2016-06-12T09:17:56.000Z</time>
      </trkpt>
      <trkpt lat="47.5013" lon="6.75732">
        <ele>360</ele>
        <time>2016-06-12T09:17:57.000Z</time>
      </trkpt>
      <trkpt lat="47.50133" lon="6.75736">
        <ele>360</ele>
        <time>2016-06-12T09:17:59.000Z</time>
      </trkpt>
      <trkpt lat="47.50136" lon="6.75738">
        <ele>360</ele>
        <time>2016-06-12T09:18:00.000Z</time>
      </trkpt>
      <trkpt lat="47.50138" lon="6.7574">
        <ele>360</ele>
        <time>2016-06-12T09:18:01.000Z</time>
      </trkpt>
      <trkpt lat="47.5014" lon="6.75743">
        <ele>360</ele>
        <time>2016-06-12T09:18:02.000Z</time>
      </trkpt>
      <trkpt lat="47.50142" lon="6.75746">
        <ele>359</ele>
        <time>2016-06-12T09:18:04.000Z</time>
      </trkpt>
      <trkpt lat="47.50143" lon="6.75748">
        <ele>359</ele>
        <time>2016-06-12T09:18:05.000Z</time>
      </trkpt>
      <trkpt lat="47.50147" lon="6.75751">
        <ele>361</ele>
        <time>2016-06-12T09:18:07.000Z</time>
      </trkpt>
      <trkpt lat="47.50149" lon="6.75753">
        <ele>361</ele>
        <time>2016-06-12T09:18:08.000Z</time>
      </trkpt>
      <trkpt lat="47.5015" lon="6.75755">
        <ele>361</ele>
        <time>2016-06-12T09:18:09.000Z</time>
      </trkpt>
      <trkpt lat="47.50152" lon="6.75757">
        <ele>361</ele>
        <time>2016-06-12T09:18:10.000Z</time>
      </trkpt>
      <trkpt lat="47.50154" lon="6.75759">
        <ele>361</ele>
        <time>2016-06-12T09:18:11.000Z</time>
      </trkpt>
      <trkpt lat="47.50156" lon="6.75761">
        <ele>361</ele>
        <time>2016-06-12T09:18:12.000Z</time>
      </trkpt>
      <trkpt lat="47.50158" lon="6.75766">
        <ele>361</ele>
        <time>2016-06-12T09:18:14.000Z</time>
      </trkpt>
      <trkpt lat="47.5016" lon="6.75768">
        <ele>361</ele>
        <time>2016-06-12T09:18:15.000Z</time>
      </trkpt>
      <trkpt lat="47.50163" lon="6.75772">
        <ele>361</ele>
        <time>2016-06-12T09:18:17.000Z</time>
      </trkpt>
      <trkpt lat="47.50164" lon="6.75774">
        <ele>361</ele>
        <time>2016-06-12T09:18:18.000Z</time>
      </trkpt>
      <trkpt lat="47.50167" lon="6.75779">
        <ele>362</ele>
        <time>2016-06-12T09:18:20.000Z</time>
      </trkpt>
      <trkpt lat="47.50169" lon="6.75781">
        <ele>362</ele>
        <time>2016-06-12T09:18:21.000Z</time>
      </trkpt>
      <trkpt lat="47.50171" lon="6.75786">
        <ele>362</ele>
        <time>2016-06-12T09:18:23.000Z</time>
      </trkpt>
      <trkpt lat="47.50173" lon="6.75789">
        <ele>362</ele>
        <time>2016-06-12T09:18:24.000Z</time>
      </trkpt>
      <trkpt lat="47.50175" lon="6.75793">
        <ele>362</ele>
        <time>2016-06-12T09:18:26.000Z</time>
      </trkpt>
      <trkpt lat="47.50176" lon="6.75796">
        <ele>362</ele>
        <time>2016-06-12T09:18:27.000Z</time>
      </trkpt>
      <trkpt lat="47.50179" lon="6.758">
        <ele>362</ele>
        <time>2016-06-12T09:18:29.000Z</time>
      </trkpt>
      <trkpt lat="47.5018" lon="6.75803">
        <ele>362</ele>
        <time>2016-06-12T09:18:30.000Z</time>
      </trkpt>
      <trkpt lat="47.50183" lon="6.75808">
        <ele>362</ele>
        <time>2016-06-12T09:18:32.000Z</time>
      </trkpt>
      <trkpt lat="47.50184" lon="6.7581">
        <ele>362</ele>
        <time>2016-06-12T09:18:33.000Z</time>
      </trkpt>
      <trkpt lat="47.50187" lon="6.75815">
        <ele>363</ele>
        <time>2016-06-12T09:18:35.000Z</time>
      </trkpt>
      <trkpt lat="47.50188" lon="6.75817">
        <ele>363</ele>
        <time>2016-06-12T09:18:36.000Z</time>
      </trkpt>
      <trkpt lat="47.50191" lon="6.75822">
        <ele>363</ele>
        <time>2016-06-12T09:18:38.000Z</time>
      </trkpt>
      <trkpt lat="47.50192" lon="6.75824">
        <ele>363</ele>
        <time>2016-06-12T09:18:39.000Z</time>
      </trkpt>
      <trkpt lat="47.50195" lon="6.75827">
        <ele>363</ele>
        <time>2016-06-12T09:18:41.000Z</time>
      </trkpt>
      <trkpt lat="47.50196" lon="6.75829">
        <ele>363</ele>
        <time>2016-06-12T09:18:42.000Z</time>
      </trkpt>
      <trkpt lat="47.50198" lon="6.75833">
        <ele>363</ele>
        <time>2016-06-12T09:18:44.000Z</time>
      </trkpt>
      <trkpt lat="47.502" lon="6.75835">
        <ele>364</ele>
        <time>2016-06-12T09:18:45.000Z</time>
      </trkpt>
      <trkpt lat="47.50202" lon="6.7584">
        <ele>365</ele>
        <time>2016-06-12T09:18:47.000Z</time>
      </trkpt>
      <trkpt lat="47.50203" lon="6.75843">
        <ele>365</ele>
        <time>2016-06-12T09:18:48.000Z</time>
      </trkpt>
      <trkpt lat="47.50205" lon="6.75848">
        <ele>365</ele>
        <time>2016-06-12T09:18:50.000Z</time>
      </trkpt>
      <trkpt lat="47.50206" lon="6.7585">
        <ele>365</ele>
        <time>2016-06-12T09:18:51.000Z</time>
      </trkpt>
      <trkpt lat="47.50208" lon="6.75855">
        <ele>365</ele>
        <time>2016-06-12T09:18:53.000Z</time>
      </trkpt>
      <trkpt lat="47.50209" lon="6.75857">
        <ele>365</ele>
        <time>2016-06-12T09:18:54.000Z</time>
      </trkpt>
      <trkpt lat="47.50211" lon="6.75861">
        <ele>365</ele>
        <time>2016-06-12T09:18:56.000Z</time>
      </trkpt>
      <trkpt lat="47.50212" lon="6.75863">
        <ele>365</ele>
        <time>2016-06-12T09:18:57.000Z</time>
      </trkpt>
      <trkpt lat="47.50214" lon="6.75867">
        <ele>366</ele>
        <time>2016-06-12T09:18:59.000Z</time>
      </trkpt>
      <trkpt lat="47.50215" lon="6.75869">
        <ele>366</ele>
        <time>2016-06-12T09:19:00.000Z</time>
      </trkpt>
      <trkpt lat="47.50217" lon="6.75874">
        <ele>366</ele>
        <time>2016-06-12T09:19:03.000Z</time>
      </trkpt>
      <trkpt lat="47.50217" lon="6.75876">
        <ele>366</ele>
        <time>2016-06-12T09:19:04.000Z</time>
      </trkpt>
      <trkpt lat="47.50219" lon="6.75881">
        <ele>366</ele>
        <time>2016-06-12T09:19:06.000Z</time>
      </trkpt>
      <trkpt lat="47.5022" lon="6.75883">
        <ele>366</ele>
        <time>2016-06-12T09:19:07.000Z</time>
      </trkpt>
      <trkpt lat="47.50222" lon="6.75888">
        <ele>366</ele>
        <time>2016-06-12T09:19:09.000Z</time>
      </trkpt>
      <trkpt lat="47.50222" lon="6.75891">
        <ele>366</ele>
        <time>2016-06-12T09:19:10.000Z</time>
      </trkpt>
      <trkpt lat="47.50224" lon="6.75897">
        <ele>366</ele>
        <time>2016-06-12T09:19:12.000Z</time>
      </trkpt>
      <trkpt lat="47.50225" lon="6.75899">
        <ele>366</ele>
        <time>2016-06-12T09:19:13.000Z</time>
      </trkpt>
      <trkpt lat="47.50226" lon="6.75905">
        <ele>366</ele>
        <time>2016-06-12T09:19:15.000Z</time>
      </trkpt>
      <trkpt lat="47.50227" lon="6.75907">
        <ele>366</ele>
        <time>2016-06-12T09:19:16.000Z</time>
      </trkpt>
      <trkpt lat="47.50228" lon="6.75913">
        <ele>366</ele>
        <time>2016-06-12T09:19:18.000Z</time>
      </trkpt>
      <trkpt lat="47.50229" lon="6.75916">
        <ele>366</ele>
        <time>2016-06-12T09:19:19.000Z</time>
      </trkpt>
      <trkpt lat="47.5023" lon="6.75922">
        <ele>368</ele>
        <time>2016-06-12T09:19:21.000Z</time>
      </trkpt>
      <trkpt lat="47.50231" lon="6.75925">
        <ele>368</ele>
        <time>2016-06-12T09:19:22.000Z</time>
      </trkpt>
      <trkpt lat="47.50232" lon="6.7593">
        <ele>368</ele>
        <time>2016-06-12T09:19:24.000Z</time>
      </trkpt>
      <trkpt lat="47.50233" lon="6.75933">
        <ele>368</ele>
        <time>2016-06-12T09:19:25.000Z</time>
      </trkpt>
      <trkpt lat="47.50233" lon="6.75939">
        <ele>368</ele>
        <time>2016-06-12T09:19:27.000Z</time>
      </trkpt>
      <trkpt lat="47.50234" lon="6.75942">
        <ele>368</ele>
        <time>2016-06-12T09:19:28.000Z</time>
      </trkpt>
      <trkpt lat="47.50236" lon="6.75947">
        <ele>368</ele>
        <time>2016-06-12T09:19:30.001Z</time>
      </trkpt>
      <trkpt lat="47.50236" lon="6.75951">
        <ele>368</ele>
        <time>2016-06-12T09:19:31.000Z</time>
      </trkpt>
      <trkpt lat="47.50236" lon="6.75956">
        <ele>368</ele>
        <time>2016-06-12T09:19:33.000Z</time>
      </trkpt>
      <trkpt lat="47.50236" lon="6.75959">
        <ele>368</ele>
        <time>2016-06-12T09:19:34.000Z</time>
      </trkpt>
      <trkpt lat="47.50237" lon="6.75964">
        <ele>368</ele>
        <time>2016-06-12T09:19:36.000Z</time>
      </trkpt>
      <trkpt lat="47.50238" lon="6.75966">
        <ele>368</ele>
        <time>2016-06-12T09:19:37.000Z</time>
      </trkpt>
      <trkpt lat="47.50238" lon="6.75971">
        <ele>368</ele>
        <time>2016-06-12T09:19:39.000Z</time>
      </trkpt>
      <trkpt lat="47.50239" lon="6.75973">
        <ele>368</ele>
        <time>2016-06-12T09:19:40.001Z</time>
      </trkpt>
      <trkpt lat="47.50239" lon="6.7598">
        <ele>368</ele>
        <time>2016-06-12T09:19:43.000Z</time>
      </trkpt>
      <trkpt lat="47.5024" lon="6.75982">
        <ele>368</ele>
        <time>2016-06-12T09:19:43.999Z</time>
      </trkpt>
      <trkpt lat="47.50237" lon="6.75987">
        <ele>369</ele>
        <time>2016-06-12T09:19:47.000Z</time>
      </trkpt>
      <trkpt lat="47.50236" lon="6.75988">
        <ele>369</ele>
        <time>2016-06-12T09:19:48.000Z</time>
      </trkpt>
      <trkpt lat="47.50233" lon="6.7599">
        <ele>369</ele>
        <time>2016-06-12T09:19:52.000Z</time>
      </trkpt>
      <trkpt lat="47.50232" lon="6.75991">
        <ele>369</ele>
        <time>2016-06-12T09:19:53.000Z</time>
      </trkpt>
      <trkpt lat="47.50228" lon="6.75993">
        <ele>368</ele>
        <time>2016-06-12T09:19:55.000Z</time>
      </trkpt>
      <trkpt lat="47.50226" lon="6.75994">
        <ele>368</ele>
        <time>2016-06-12T09:19:56.000Z</time>
      </trkpt>
      <trkpt lat="47.50223" lon="6.75995">
        <ele>368</ele>
        <time>2016-06-12T09:19:58.000Z</time>
      </trkpt>
      <trkpt lat="47.50221" lon="6.75995">
        <ele>368</ele>
        <time>2016-06-12T09:19:59.000Z</time>
      </trkpt>
      <trkpt lat="47.50218" lon="6.75996">
        <ele>369</ele>
        <time>2016-06-12T09:20:01.000Z</time>
      </trkpt>
      <trkpt lat="47.50217" lon="6.75997">
        <ele>369</ele>
        <time>2016-06-12T09:20:02.000Z</time>
      </trkpt>
      <trkpt lat="47.50213" lon="6.75998">
        <ele>369</ele>
        <time>2016-06-12T09:20:05.000Z</time>
      </trkpt>
      <trkpt lat="47.50212" lon="6.75999">
        <ele>369</ele>
        <time>2016-06-12T09:20:06.000Z</time>
      </trkpt>
      <trkpt lat="47.50208" lon="6.76">
        <ele>372</ele>
        <time>2016-06-12T09:20:10.000Z</time>
      </trkpt>
      <trkpt lat="47.50208" lon="6.76001">
        <ele>372</ele>
        <time>2016-06-12T09:20:11.000Z</time>
      </trkpt>
      <trkpt lat="47.50204" lon="6.76004">
        <ele>372</ele>
        <time>2016-06-12T09:20:15.000Z</time>
      </trkpt>
      <trkpt lat="47.50203" lon="6.76005">
        <ele>372</ele>
        <time>2016-06-12T09:20:16.000Z</time>
      </trkpt>
      <trkpt lat="47.50199" lon="6.76007">
        <ele>372</ele>
        <time>2016-06-12T09:20:19.000Z</time>
      </trkpt>
      <trkpt lat="47.50198" lon="6.76008">
        <ele>372</ele>
        <time>2016-06-12T09:20:20.000Z</time>
      </trkpt>
      <trkpt lat="47.50195" lon="6.76009">
        <ele>372</ele>
        <time>2016-06-12T09:20:23.000Z</time>
      </trkpt>
      <trkpt lat="47.50194" lon="6.7601">
        <ele>372</ele>
        <time>2016-06-12T09:20:24.000Z</time>
      </trkpt>
      <trkpt lat="47.5019" lon="6.76011">
        <ele>372</ele>
        <time>2016-06-12T09:20:27.000Z</time>
      </trkpt>
      <trkpt lat="47.50189" lon="6.76012">
        <ele>372</ele>
        <time>2016-06-12T09:20:28.000Z</time>
      </trkpt>
      <trkpt lat="47.50186" lon="6.76014">
        <ele>372</ele>
        <time>2016-06-12T09:20:31.000Z</time>
      </trkpt>
      <trkpt lat="47.50185" lon="6.76015">
        <ele>372</ele>
        <time>2016-06-12T09:20:32.000Z</time>
      </trkpt>
      <trkpt lat="47.50182" lon="6.76016">
        <ele>372</ele>
        <time>2016-06-12T09:20:36.000Z</time>
      </trkpt>
      <trkpt lat="47.5018" lon="6.76016">
        <ele>372</ele>
        <time>2016-06-12T09:20:37.000Z</time>
      </trkpt>
      <trkpt lat="47.50176" lon="6.76016">
        <ele>372</ele>
        <time>2016-06-12T09:20:40.000Z</time>
      </trkpt>
      <trkpt lat="47.50175" lon="6.76016">
        <ele>372</ele>
        <time>2016-06-12T09:20:41.000Z</time>
      </trkpt>
      <trkpt lat="47.50171" lon="6.76017">
        <ele>372</ele>
        <time>2016-06-12T09:20:44.000Z</time>
      </trkpt>
      <trkpt lat="47.5017" lon="6.76018">
        <ele>372</ele>
        <time>2016-06-12T09:20:45.000Z</time>
      </trkpt>
      <trkpt lat="47.50166" lon="6.76018">
        <ele>375</ele>
        <time>2016-06-12T09:20:47.000Z</time>
      </trkpt>
      <trkpt lat="47.50164" lon="6.76019">
        <ele>375</ele>
        <time>2016-06-12T09:20:48.000Z</time>
      </trkpt>
      <trkpt lat="47.5016" lon="6.76019">
        <ele>375</ele>
        <time>2016-06-12T09:20:51.000Z</time>
      </trkpt>
      <trkpt lat="47.50159" lon="6.76019">
        <ele>375</ele>
        <time>2016-06-12T09:20:52.000Z</time>
      </trkpt>
      <trkpt lat="47.50156" lon="6.76021">
        <ele>375</ele>
        <time>2016-06-12T09:20:55.000Z</time>
      </trkpt>
      <trkpt lat="47.50155" lon="6.76021">
        <ele>375</ele>
        <time>2016-06-12T09:20:56.000Z</time>
      </trkpt>
      <trkpt lat="47.50152" lon="6.76025">
        <ele>376</ele>
        <time>2016-06-12T09:21:01.000Z</time>
      </trkpt>
      <trkpt lat="47.50151" lon="6.76026">
        <ele>376</ele>
        <time>2016-06-12T09:21:02.000Z</time>
      </trkpt>
      <trkpt lat="47.50148" lon="6.76027">
        <ele>376</ele>
        <time>2016-06-12T09:21:05.000Z</time>
      </trkpt>
      <trkpt lat="47.50147" lon="6.76028">
        <ele>376</ele>
        <time>2016-06-12T09:21:06.000Z</time>
      </trkpt>
      <trkpt lat="47.50143" lon="6.7603">
        <ele>377</ele>
        <time>2016-06-12T09:21:09.000Z</time>
      </trkpt>
      <trkpt lat="47.50142" lon="6.7603">
        <ele>377</ele>
        <time>2016-06-12T09:21:10.000Z</time>
      </trkpt>
      <trkpt lat="47.50137" lon="6.76033">
        <ele>377</ele>
        <time>2016-06-12T09:21:15.000Z</time>
      </trkpt>
      <trkpt lat="47.50136" lon="6.76033">
        <ele>377</ele>
        <time>2016-06-12T09:21:16.000Z</time>
      </trkpt>
      <trkpt lat="47.50133" lon="6.76034">
        <ele>378</ele>
        <time>2016-06-12T09:21:19.000Z</time>
      </trkpt>
      <trkpt lat="47.50132" lon="6.76034">
        <ele>378</ele>
        <time>2016-06-12T09:21:20.000Z</time>
      </trkpt>
      <trkpt lat="47.50128" lon="6.76033">
        <ele>378</ele>
        <time>2016-06-12T09:21:25.000Z</time>
      </trkpt>
      <trkpt lat="47.50127" lon="6.76033">
        <ele>378</ele>
        <time>2016-06-12T09:21:26.000Z</time>
      </trkpt>
      <trkpt lat="47.50123" lon="6.76035">
        <ele>378</ele>
        <time>2016-06-12T09:21:29.000Z</time>
      </trkpt>
      <trkpt lat="47.50122" lon="6.76035">
        <ele>379</ele>
        <time>2016-06-12T09:21:30.000Z</time>
      </trkpt>
      <trkpt lat="47.5012" lon="6.76041">
        <ele>379</ele>
        <time>2016-06-12T09:21:36.000Z</time>
      </trkpt>
      <trkpt lat="47.5012" lon="6.76043">
        <ele>379</ele>
        <time>2016-06-12T09:21:37.000Z</time>
      </trkpt>
      <trkpt lat="47.50121" lon="6.76049">
        <ele>379</ele>
        <time>2016-06-12T09:21:41.000Z</time>
      </trkpt>
      <trkpt lat="47.50122" lon="6.76051">
        <ele>379</ele>
        <time>2016-06-12T09:21:42.000Z</time>
      </trkpt>
      <trkpt lat="47.50122" lon="6.76056">
        <ele>379</ele>
        <time>2016-06-12T09:21:44.000Z</time>
      </trkpt>
      <trkpt lat="47.50123" lon="6.76058">
        <ele>379</ele>
        <time>2016-06-12T09:21:45.000Z</time>
      </trkpt>
      <trkpt lat="47.50123" lon="6.76063">
        <ele>379</ele>
        <time>2016-06-12T09:21:47.000Z</time>
      </trkpt>
      <trkpt lat="47.50124" lon="6.76065">
        <ele>379</ele>
        <time>2016-06-12T09:21:48.000Z</time>
      </trkpt>
      <trkpt lat="47.50124" lon="6.7607">
        <ele>380</ele>
        <time>2016-06-12T09:21:50.000Z</time>
      </trkpt>
      <trkpt lat="47.50124" lon="6.76072">
        <ele>380</ele>
        <time>2016-06-12T09:21:51.000Z</time>
      </trkpt>
      <trkpt lat="47.50124" lon="6.76078">
        <ele>380</ele>
        <time>2016-06-12T09:21:54.000Z</time>
      </trkpt>
      <trkpt lat="47.50125" lon="6.7608">
        <ele>380</ele>
        <time>2016-06-12T09:21:55.000Z</time>
      </trkpt>
      <trkpt lat="47.50125" lon="6.76084">
        <ele>383</ele>
        <time>2016-06-12T09:21:57.000Z</time>
      </trkpt>
      <trkpt lat="47.50126" lon="6.76086">
        <ele>383</ele>
        <time>2016-06-12T09:21:58.000Z</time>
      </trkpt>
      <trkpt lat="47.50128" lon="6.76089">
        <ele>383</ele>
        <time>2016-06-12T09:21:59.000Z</time>
      </trkpt>
      <trkpt lat="47.50129" lon="6.76092">
        <ele>383</ele>
        <time>2016-06-12T09:22:00.000Z</time>
      </trkpt>
      <trkpt lat="47.5013" lon="6.76095">
        <ele>383</ele>
        <time>2016-06-12T09:22:01.000Z</time>
      </trkpt>
      <trkpt lat="47.5013" lon="6.76098">
        <ele>383</ele>
        <time>2016-06-12T09:22:02.000Z</time>
      </trkpt>
      <trkpt lat="47.50131" lon="6.76105">
        <ele>383</ele>
        <time>2016-06-12T09:22:04.000Z</time>
      </trkpt>
      <trkpt lat="47.50132" lon="6.76108">
        <ele>383</ele>
        <time>2016-06-12T09:22:05.000Z</time>
      </trkpt>
      <trkpt lat="47.50133" lon="6.76114">
        <ele>383</ele>
        <time>2016-06-12T09:22:07.000Z</time>
      </trkpt>
      <trkpt lat="47.50134" lon="6.76117">
        <ele>383</ele>
        <time>2016-06-12T09:22:08.000Z</time>
      </trkpt>
      <trkpt lat="47.50135" lon="6.76122">
        <ele>383</ele>
        <time>2016-06-12T09:22:10.000Z</time>
      </trkpt>
      <trkpt lat="47.50135" lon="6.76124">
        <ele>383</ele>
        <time>2016-06-12T09:22:11.000Z</time>
      </trkpt>
      <trkpt lat="47.50135" lon="6.7613">
        <ele>383</ele>
        <time>2016-06-12T09:22:13.000Z</time>
      </trkpt>
      <trkpt lat="47.50136" lon="6.76132">
        <ele>383</ele>
        <time>2016-06-12T09:22:14.000Z</time>
      </trkpt>
      <trkpt lat="47.50136" lon="6.76138">
        <ele>383</ele>
        <time>2016-06-12T09:22:16.000Z</time>
      </trkpt>
      <trkpt lat="47.50137" lon="6.76142">
        <ele>383</ele>
        <time>2016-06-12T09:22:17.000Z</time>
      </trkpt>
      <trkpt lat="47.50137" lon="6.76145">
        <ele>383</ele>
        <time>2016-06-12T09:22:18.000Z</time>
      </trkpt>
      <trkpt lat="47.50138" lon="6.76148">
        <ele>383</ele>
        <time>2016-06-12T09:22:19.000Z</time>
      </trkpt>
      <trkpt lat="47.50138" lon="6.76152">
        <ele>383</ele>
        <time>2016-06-12T09:22:20.000Z</time>
      </trkpt>
      <trkpt lat="47.50139" lon="6.76156">
        <ele>383</ele>
        <time>2016-06-12T09:22:21.000Z</time>
      </trkpt>
      <trkpt lat="47.50139" lon="6.76159">
        <ele>383</ele>
        <time>2016-06-12T09:22:22.000Z</time>
      </trkpt>
      <trkpt lat="47.5014" lon="6.76163">
        <ele>383</ele>
        <time>2016-06-12T09:22:23.000Z</time>
      </trkpt>
      <trkpt lat="47.5014" lon="6.76166">
        <ele>382</ele>
        <time>2016-06-12T09:22:24.000Z</time>
      </trkpt>
      <trkpt lat="47.50141" lon="6.7617">
        <ele>386</ele>
        <time>2016-06-12T09:22:25.000Z</time>
      </trkpt>
      <trkpt lat="47.50141" lon="6.76173">
        <ele>386</ele>
        <time>2016-06-12T09:22:26.000Z</time>
      </trkpt>
      <trkpt lat="47.50142" lon="6.76177">
        <ele>386</ele>
        <time>2016-06-12T09:22:27.000Z</time>
      </trkpt>
      <trkpt lat="47.50143" lon="6.7618">
        <ele>386</ele>
        <time>2016-06-12T09:22:28.000Z</time>
      </trkpt>
      <trkpt lat="47.50144" lon="6.76183">
        <ele>386</ele>
        <time>2016-06-12T09:22:29.000Z</time>
      </trkpt>
      <trkpt lat="47.50145" lon="6.76189">
        <ele>387</ele>
        <time>2016-06-12T09:22:31.000Z</time>
      </trkpt>
      <trkpt lat="47.50146" lon="6.76192">
        <ele>387</ele>
        <time>2016-06-12T09:22:32.000Z</time>
      </trkpt>
      <trkpt lat="47.50147" lon="6.76197">
        <ele>387</ele>
        <time>2016-06-12T09:22:34.000Z</time>
      </trkpt>
      <trkpt lat="47.50147" lon="6.76199">
        <ele>388</ele>
        <time>2016-06-12T09:22:35.000Z</time>
      </trkpt>
      <trkpt lat="47.50148" lon="6.76205">
        <ele>388</ele>
        <time>2016-06-12T09:22:37.000Z</time>
      </trkpt>
      <trkpt lat="47.50148" lon="6.76207">
        <ele>388</ele>
        <time>2016-06-12T09:22:38.000Z</time>
      </trkpt>
      <trkpt lat="47.50149" lon="6.76214">
        <ele>388</ele>
        <time>2016-06-12T09:22:40.000Z</time>
      </trkpt>
      <trkpt lat="47.50149" lon="6.76217">
        <ele>389</ele>
        <time>2016-06-12T09:22:41.000Z</time>
      </trkpt>
      <trkpt lat="47.5015" lon="6.76221">
        <ele>389</ele>
        <time>2016-06-12T09:22:42.000Z</time>
      </trkpt>
      <trkpt lat="47.5015" lon="6.76225">
        <ele>389</ele>
        <time>2016-06-12T09:22:43.000Z</time>
      </trkpt>
      <trkpt lat="47.5015" lon="6.76229">
        <ele>389</ele>
        <time>2016-06-12T09:22:44.000Z</time>
      </trkpt>
      <trkpt lat="47.50151" lon="6.76233">
        <ele>389</ele>
        <time>2016-06-12T09:22:45.000Z</time>
      </trkpt>
      <trkpt lat="47.50152" lon="6.76237">
        <ele>389</ele>
        <time>2016-06-12T09:22:46.000Z</time>
      </trkpt>
      <trkpt lat="47.50153" lon="6.76241">
        <ele>388</ele>
        <time>2016-06-12T09:22:47.000Z</time>
      </trkpt>
      <trkpt lat="47.50154" lon="6.76245">
        <ele>388</ele>
        <time>2016-06-12T09:22:48.000Z</time>
      </trkpt>
      <trkpt lat="47.50155" lon="6.7625">
        <ele>388</ele>
        <time>2016-06-12T09:22:49.000Z</time>
      </trkpt>
      <trkpt lat="47.50156" lon="6.76254">
        <ele>390</ele>
        <time>2016-06-12T09:22:50.000Z</time>
      </trkpt>
      <trkpt lat="47.50157" lon="6.76259">
        <ele>390</ele>
        <time>2016-06-12T09:22:51.000Z</time>
      </trkpt>
      <trkpt lat="47.50159" lon="6.76264">
        <ele>391</ele>
        <time>2016-06-12T09:22:52.000Z</time>
      </trkpt>
      <trkpt lat="47.50161" lon="6.76268">
        <ele>392</ele>
        <time>2016-06-12T09:22:53.000Z</time>
      </trkpt>
      <trkpt lat="47.50163" lon="6.76272">
        <ele>392</ele>
        <time>2016-06-12T09:22:54.000Z</time>
      </trkpt>
      <trkpt lat="47.50165" lon="6.76275">
        <ele>393</ele>
        <time>2016-06-12T09:22:55.000Z</time>
      </trkpt>
      <trkpt lat="47.50166" lon="6.76279">
        <ele>393</ele>
        <time>2016-06-12T09:22:56.000Z</time>
      </trkpt>
      <trkpt lat="47.50167" lon="6.76282">
        <ele>386</ele>
        <time>2016-06-12T09:22:57.000Z</time>
      </trkpt>
      <trkpt lat="47.50168" lon="6.76288">
        <ele>386</ele>
        <time>2016-06-12T09:22:59.000Z</time>
      </trkpt>
      <trkpt lat="47.50168" lon="6.76291">
        <ele>386</ele>
        <time>2016-06-12T09:23:00.000Z</time>
      </trkpt>
      <trkpt lat="47.50168" lon="6.76295">
        <ele>386</ele>
        <time>2016-06-12T09:23:01.000Z</time>
      </trkpt>
      <trkpt lat="47.50168" lon="6.76299">
        <ele>387</ele>
        <time>2016-06-12T09:23:02.000Z</time>
      </trkpt>
      <trkpt lat="47.50169" lon="6.76302">
        <ele>387</ele>
        <time>2016-06-12T09:23:03.000Z</time>
      </trkpt>
      <trkpt lat="47.5017" lon="6.76306">
        <ele>387</ele>
        <time>2016-06-12T09:23:04.000Z</time>
      </trkpt>
      <trkpt lat="47.50171" lon="6.76309">
        <ele>387</ele>
        <time>2016-06-12T09:23:05.000Z</time>
      </trkpt>
      <trkpt lat="47.50172" lon="6.76312">
        <ele>387</ele>
        <time>2016-06-12T09:23:06.000Z</time>
      </trkpt>
      <trkpt lat="47.50173" lon="6.76316">
        <ele>388</ele>
        <time>2016-06-12T09:23:07.000Z</time>
      </trkpt>
      <trkpt lat="47.50174" lon="6.76319">
        <ele>388</ele>
        <time>2016-06-12T09:23:08.000Z</time>
      </trkpt>
      <trkpt lat="47.50175" lon="6.76322">
        <ele>388</ele>
        <time>2016-06-12T09:23:09.000Z</time>
      </trkpt>
      <trkpt lat="47.50176" lon="6.76325">
        <ele>389</ele>
        <time>2016-06-12T09:23:10.000Z</time>
      </trkpt>
      <trkpt lat="47.50177" lon="6.76329">
        <ele>389</ele>
        <time>2016-06-12T09:23:11.000Z</time>
      </trkpt>
      <trkpt lat="47.50178" lon="6.76332">
        <ele>389</ele>
        <time>2016-06-12T09:23:12.000Z</time>
      </trkpt>
      <trkpt lat="47.50178" lon="6.76339">
        <ele>390</ele>
        <time>2016-06-12T09:23:14.000Z</time>
      </trkpt>
      <trkpt lat="47.50179" lon="6.76341">
        <ele>390</ele>
        <time>2016-06-12T09:23:15.000Z</time>
      </trkpt>
      <trkpt lat="47.50179" lon="6.76344">
        <ele>390</ele>
        <time>2016-06-12T09:23:16.000Z</time>
      </trkpt>
      <trkpt lat="47.5018" lon="6.76348">
        <ele>390</ele>
        <time>2016-06-12T09:23:17.000Z</time>
      </trkpt>
      <trkpt lat="47.50181" lon="6.76352">
        <ele>390</ele>
        <time>2016-06-12T09:23:18.000Z</time>
      </trkpt>
      <trkpt lat="47.50182" lon="6.76355">
        <ele>390</ele>
        <time>2016-06-12T09:23:19.000Z</time>
      </trkpt>
      <trkpt lat="47.50184" lon="6.76359">
        <ele>390</ele>
        <time>2016-06-12T09:23:20.000Z</time>
      </trkpt>
      <trkpt lat="47.50186" lon="6.76364">
        <ele>390</ele>
        <time>2016-06-12T09:23:21.000Z</time>
      </trkpt>
      <trkpt lat="47.50188" lon="6.76368">
        <ele>390</ele>
        <time>2016-06-12T09:23:22.000Z</time>
      </trkpt>
      <trkpt lat="47.50189" lon="6.76371">
        <ele>390</ele>
        <time>2016-06-12T09:23:23.000Z</time>
      </trkpt>
      <trkpt lat="47.50191" lon="6.76375">
        <ele>390</ele>
        <time>2016-06-12T09:23:24.000Z</time>
      </trkpt>
      <trkpt lat="47.50192" lon="6.7638">
        <ele>390</ele>
        <time>2016-06-12T09:23:25.000Z</time>
      </trkpt>
      <trkpt lat="47.50193" lon="6.76384">
        <ele>390</ele>
        <time>2016-06-12T09:23:26.000Z</time>
      </trkpt>
      <trkpt lat="47.50195" lon="6.76388">
        <ele>391</ele>
        <time>2016-06-12T09:23:27.000Z</time>
      </trkpt>
      <trkpt lat="47.50196" lon="6.76392">
        <ele>391</ele>
        <time>2016-06-12T09:23:28.000Z</time>
      </trkpt>
      <trkpt lat="47.50196" lon="6.76396">
        <ele>391</ele>
        <time>2016-06-12T09:23:29.000Z</time>
      </trkpt>
      <trkpt lat="47.50198" lon="6.76399">
        <ele>391</ele>
        <time>2016-06-12T09:23:30.000Z</time>
      </trkpt>
      <trkpt lat="47.50199" lon="6.76403">
        <ele>391</ele>
        <time>2016-06-12T09:23:31.000Z</time>
      </trkpt>
      <trkpt lat="47.50201" lon="6.76407">
        <ele>391</ele>
        <time>2016-06-12T09:23:32.000Z</time>
      </trkpt>
      <trkpt lat="47.50202" lon="6.76411">
        <ele>391</ele>
        <time>2016-06-12T09:23:33.000Z</time>
      </trkpt>
      <trkpt lat="47.50204" lon="6.76415">
        <ele>391</ele>
        <time>2016-06-12T09:23:34.000Z</time>
      </trkpt>
      <trkpt lat="47.50205" lon="6.76418">
        <ele>394</ele>
        <time>2016-06-12T09:23:35.000Z</time>
      </trkpt>
      <trkpt lat="47.50207" lon="6.76424">
        <ele>394</ele>
        <time>2016-06-12T09:23:37.000Z</time>
      </trkpt>
      <trkpt lat="47.50207" lon="6.76427">
        <ele>394</ele>
        <time>2016-06-12T09:23:38.000Z</time>
      </trkpt>
      <trkpt lat="47.50207" lon="6.76432">
        <ele>394</ele>
        <time>2016-06-12T09:23:40.000Z</time>
      </trkpt>
      <trkpt lat="47.50208" lon="6.76435">
        <ele>394</ele>
        <time>2016-06-12T09:23:41.000Z</time>
      </trkpt>
      <trkpt lat="47.50209" lon="6.76439">
        <ele>394</ele>
        <time>2016-06-12T09:23:42.000Z</time>
      </trkpt>
      <trkpt lat="47.50209" lon="6.76443">
        <ele>395</ele>
        <time>2016-06-12T09:23:43.000Z</time>
      </trkpt>
      <trkpt lat="47.5021" lon="6.76448">
        <ele>395</ele>
        <time>2016-06-12T09:23:44.000Z</time>
      </trkpt>
      <trkpt lat="47.50211" lon="6.76452">
        <ele>395</ele>
        <time>2016-06-12T09:23:45.000Z</time>
      </trkpt>
      <trkpt lat="47.50212" lon="6.76456">
        <ele>395</ele>
        <time>2016-06-12T09:23:46.000Z</time>
      </trkpt>
      <trkpt lat="47.50214" lon="6.76459">
        <ele>395</ele>
        <time>2016-06-12T09:23:47.000Z</time>
      </trkpt>
      <trkpt lat="47.50215" lon="6.76462">
        <ele>395</ele>
        <time>2016-06-12T09:23:48.000Z</time>
      </trkpt>
      <trkpt lat="47.50216" lon="6.76466">
        <ele>395</ele>
        <time>2016-06-12T09:23:49.000Z</time>
      </trkpt>
      <trkpt lat="47.50217" lon="6.76469">
        <ele>395</ele>
        <time>2016-06-12T09:23:50.000Z</time>
      </trkpt>
      <trkpt lat="47.50219" lon="6.76472">
        <ele>395</ele>
        <time>2016-06-12T09:23:51.000Z</time>
      </trkpt>
      <trkpt lat="47.5022" lon="6.76475">
        <ele>395</ele>
        <time>2016-06-12T09:23:52.000Z</time>
      </trkpt>
      <trkpt lat="47.50221" lon="6.76478">
        <ele>395</ele>
        <time>2016-06-12T09:23:53.000Z</time>
      </trkpt>
      <trkpt lat="47.50222" lon="6.76481">
        <ele>395</ele>
        <time>2016-06-12T09:23:54.000Z</time>
      </trkpt>
      <trkpt lat="47.50224" lon="6.76484">
        <ele>395</ele>
        <time>2016-06-12T09:23:55.000Z</time>
      </trkpt>
      <trkpt lat="47.50225" lon="6.76488">
        <ele>395</ele>
        <time>2016-06-12T09:23:56.000Z</time>
      </trkpt>
      <trkpt lat="47.50226" lon="6.76492">
        <ele>395</ele>
        <time>2016-06-12T09:23:57.000Z</time>
      </trkpt>
      <trkpt lat="47.50228" lon="6.76495">
        <ele>394</ele>
        <time>2016-06-12T09:23:58.000Z</time>
      </trkpt>
      <trkpt lat="47.50229" lon="6.76499">
        <ele>394</ele>
        <time>2016-06-12T09:23:59.000Z</time>
      </trkpt>
      <trkpt lat="47.5023" lon="6.76503">
        <ele>397</ele>
        <time>2016-06-12T09:24:00.000Z</time>
      </trkpt>
      <trkpt lat="47.50232" lon="6.76506">
        <ele>397</ele>
        <time>2016-06-12T09:24:01.000Z</time>
      </trkpt>
      <trkpt lat="47.50233" lon="6.76509">
        <ele>397</ele>
        <time>2016-06-12T09:24:02.000Z</time>
      </trkpt>
      <trkpt lat="47.50234" lon="6.76512">
        <ele>397</ele>
        <time>2016-06-12T09:24:03.000Z</time>
      </trkpt>
      <trkpt lat="47.50234" lon="6.76516">
        <ele>397</ele>
        <time>2016-06-12T09:24:04.000Z</time>
      </trkpt>
      <trkpt lat="47.50235" lon="6.7652">
        <ele>398</ele>
        <time>2016-06-12T09:24:05.000Z</time>
      </trkpt>
      <trkpt lat="47.50236" lon="6.76524">
        <ele>398</ele>
        <time>2016-06-12T09:24:06.000Z</time>
      </trkpt>
      <trkpt lat="47.50235" lon="6.76529">
        <ele>398</ele>
        <time>2016-06-12T09:24:07.000Z</time>
      </trkpt>
      <trkpt lat="47.50234" lon="6.76534">
        <ele>399</ele>
        <time>2016-06-12T09:24:08.000Z</time>
      </trkpt>
      <trkpt lat="47.50232" lon="6.76538">
        <ele>399</ele>
        <time>2016-06-12T09:24:09.000Z</time>
      </trkpt>
      <trkpt lat="47.5023" lon="6.76542">
        <ele>399</ele>
        <time>2016-06-12T09:24:10.000Z</time>
      </trkpt>
      <trkpt lat="47.50228" lon="6.76544">
        <ele>400</ele>
        <time>2016-06-12T09:24:11.000Z</time>
      </trkpt>
      <trkpt lat="47.50226" lon="6.76547">
        <ele>400</ele>
        <time>2016-06-12T09:24:12.000Z</time>
      </trkpt>
      <trkpt lat="47.50224" lon="6.76549">
        <ele>400</ele>
        <time>2016-06-12T09:24:13.000Z</time>
      </trkpt>
      <trkpt lat="47.50222" lon="6.7655">
        <ele>400</ele>
        <time>2016-06-12T09:24:14.000Z</time>
      </trkpt>
      <trkpt lat="47.50219" lon="6.76552">
        <ele>400</ele>
        <time>2016-06-12T09:24:15.000Z</time>
      </trkpt>
      <trkpt lat="47.50217" lon="6.76554">
        <ele>400</ele>
        <time>2016-06-12T09:24:16.000Z</time>
      </trkpt>
      <trkpt lat="47.50214" lon="6.76555">
        <ele>401</ele>
        <time>2016-06-12T09:24:17.000Z</time>
      </trkpt>
      <trkpt lat="47.50211" lon="6.76559">
        <ele>401</ele>
        <time>2016-06-12T09:24:19.000Z</time>
      </trkpt>
      <trkpt lat="47.50209" lon="6.7656">
        <ele>401</ele>
        <time>2016-06-12T09:24:20.000Z</time>
      </trkpt>
      <trkpt lat="47.50205" lon="6.76563">
        <ele>401</ele>
        <time>2016-06-12T09:24:22.000Z</time>
      </trkpt>
      <trkpt lat="47.50203" lon="6.76564">
        <ele>402</ele>
        <time>2016-06-12T09:24:23.000Z</time>
      </trkpt>
      <trkpt lat="47.502" lon="6.76567">
        <ele>402</ele>
        <time>2016-06-12T09:24:25.000Z</time>
      </trkpt>
      <trkpt lat="47.50198" lon="6.76567">
        <ele>402</ele>
        <time>2016-06-12T09:24:26.000Z</time>
      </trkpt>
      <trkpt lat="47.50199" lon="6.76572">
        <ele>402</ele>
        <time>2016-06-12T09:24:54.000Z</time>
      </trkpt>
      <trkpt lat="47.50199" lon="6.76574">
        <ele>402</ele>
        <time>2016-06-12T09:24:55.000Z</time>
      </trkpt>
      <trkpt lat="47.502" lon="6.7658">
        <ele>402</ele>
        <time>2016-06-12T09:24:58.000Z</time>
      </trkpt>
      <trkpt lat="47.50199" lon="6.76583">
        <ele>402</ele>
        <time>2016-06-12T09:24:59.000Z</time>
      </trkpt>
      <trkpt lat="47.50199" lon="6.76588">
        <ele>403</ele>
        <time>2016-06-12T09:25:01.000Z</time>
      </trkpt>
      <trkpt lat="47.502" lon="6.76591">
        <ele>403</ele>
        <time>2016-06-12T09:25:02.000Z</time>
      </trkpt>
      <trkpt lat="47.50201" lon="6.76596">
        <ele>403</ele>
        <time>2016-06-12T09:25:04.000Z</time>
      </trkpt>
      <trkpt lat="47.50201" lon="6.76599">
        <ele>403</ele>
        <time>2016-06-12T09:25:05.000Z</time>
      </trkpt>
      <trkpt lat="47.50202" lon="6.76605">
        <ele>403</ele>
        <time>2016-06-12T09:25:07.000Z</time>
      </trkpt>
      <trkpt lat="47.50202" lon="6.76609">
        <ele>402</ele>
        <time>2016-06-12T09:25:08.000Z</time>
      </trkpt>
      <trkpt lat="47.50204" lon="6.76612">
        <ele>402</ele>
        <time>2016-06-12T09:25:09.000Z</time>
      </trkpt>
      <trkpt lat="47.50205" lon="6.76615">
        <ele>402</ele>
        <time>2016-06-12T09:25:10.000Z</time>
      </trkpt>
      <trkpt lat="47.50206" lon="6.76618">
        <ele>402</ele>
        <time>2016-06-12T09:25:11.000Z</time>
      </trkpt>
      <trkpt lat="47.50207" lon="6.7662">
        <ele>402</ele>
        <time>2016-06-12T09:25:12.000Z</time>
      </trkpt>
      <trkpt lat="47.50209" lon="6.76623">
        <ele>402</ele>
        <time>2016-06-12T09:25:13.000Z</time>
      </trkpt>
      <trkpt lat="47.5021" lon="6.76626">
        <ele>402</ele>
        <time>2016-06-12T09:25:14.000Z</time>
      </trkpt>
      <trkpt lat="47.50211" lon="6.76629">
        <ele>402</ele>
        <time>2016-06-12T09:25:15.000Z</time>
      </trkpt>
      <trkpt lat="47.50212" lon="6.76632">
        <ele>402</ele>
        <time>2016-06-12T09:25:16.000Z</time>
      </trkpt>
      <trkpt lat="47.50213" lon="6.76635">
        <ele>402</ele>
        <time>2016-06-12T09:25:17.000Z</time>
      </trkpt>
      <trkpt lat="47.50214" lon="6.76638">
        <ele>402</ele>
        <time>2016-06-12T09:25:18.000Z</time>
      </trkpt>
      <trkpt lat="47.50216" lon="6.76644">
        <ele>402</ele>
        <time>2016-06-12T09:25:20.000Z</time>
      </trkpt>
      <trkpt lat="47.50217" lon="6.76647">
        <ele>402</ele>
        <time>2016-06-12T09:25:21.000Z</time>
      </trkpt>
      <trkpt lat="47.50218" lon="6.7665">
        <ele>401</ele>
        <time>2016-06-12T09:25:22.000Z</time>
      </trkpt>
      <trkpt lat="47.50219" lon="6.76653">
        <ele>401</ele>
        <time>2016-06-12T09:25:23.000Z</time>
      </trkpt>
      <trkpt lat="47.5022" lon="6.76656">
        <ele>401</ele>
        <time>2016-06-12T09:25:24.000Z</time>
      </trkpt>
      <trkpt lat="47.50221" lon="6.76659">
        <ele>401</ele>
        <time>2016-06-12T09:25:25.001Z</time>
      </trkpt>
      <trkpt lat="47.50222" lon="6.76662">
        <ele>401</ele>
        <time>2016-06-12T09:25:26.000Z</time>
      </trkpt>
      <trkpt lat="47.50223" lon="6.76665">
        <ele>401</ele>
        <time>2016-06-12T09:25:27.000Z</time>
      </trkpt>
      <trkpt lat="47.50223" lon="6.76668">
        <ele>401</ele>
        <time>2016-06-12T09:25:28.000Z</time>
      </trkpt>
      <trkpt lat="47.50225" lon="6.76672">
        <ele>401</ele>
        <time>2016-06-12T09:25:29.000Z</time>
      </trkpt>
      <trkpt lat="47.50226" lon="6.76675">
        <ele>401</ele>
        <time>2016-06-12T09:25:30.000Z</time>
      </trkpt>
      <trkpt lat="47.50227" lon="6.76678">
        <ele>401</ele>
        <time>2016-06-12T09:25:31.000Z</time>
      </trkpt>
      <trkpt lat="47.50228" lon="6.76682">
        <ele>401</ele>
        <time>2016-06-12T09:25:32.000Z</time>
      </trkpt>
      <trkpt lat="47.50229" lon="6.76685">
        <ele>401</ele>
        <time>2016-06-12T09:25:33.000Z</time>
      </trkpt>
      <trkpt lat="47.5023" lon="6.76688">
        <ele>401</ele>
        <time>2016-06-12T09:25:34.000Z</time>
      </trkpt>
      <trkpt lat="47.50231" lon="6.76691">
        <ele>401</ele>
        <time>2016-06-12T09:25:35.000Z</time>
      </trkpt>
      <trkpt lat="47.50232" lon="6.76695">
        <ele>401</ele>
        <time>2016-06-12T09:25:36.000Z</time>
      </trkpt>
      <trkpt lat="47.50234" lon="6.76698">
        <ele>401</ele>
        <time>2016-06-12T09:25:37.000Z</time>
      </trkpt>
      <trkpt lat="47.50235" lon="6.76701">
        <ele>401</ele>
        <time>2016-06-12T09:25:38.000Z</time>
      </trkpt>
      <trkpt lat="47.50237" lon="6.76704">
        <ele>401</ele>
        <time>2016-06-12T09:25:39.000Z</time>
      </trkpt>
      <trkpt lat="47.50238" lon="6.76707">
        <ele>401</ele>
        <time>2016-06-12T09:25:40.000Z</time>
      </trkpt>
      <trkpt lat="47.5024" lon="6.7671">
        <ele>401</ele>
        <time>2016-06-12T09:25:41.000Z</time>
      </trkpt>
      <trkpt lat="47.50241" lon="6.76713">
        <ele>401</ele>
        <time>2016-06-12T09:25:42.000Z</time>
      </trkpt>
      <trkpt lat="47.50242" lon="6.76716">
        <ele>401</ele>
        <time>2016-06-12T09:25:43.000Z</time>
      </trkpt>
      <trkpt lat="47.50244" lon="6.7672">
        <ele>401</ele>
        <time>2016-06-12T09:25:44.000Z</time>
      </trkpt>
      <trkpt lat="47.50246" lon="6.76723">
        <ele>401</ele>
        <time>2016-06-12T09:25:45.000Z</time>
      </trkpt>
      <trkpt lat="47.50247" lon="6.76727">
        <ele>401</ele>
        <time>2016-06-12T09:25:46.000Z</time>
      </trkpt>
      <trkpt lat="47.50249" lon="6.7673">
        <ele>401</ele>
        <time>2016-06-12T09:25:47.000Z</time>
      </trkpt>
      <trkpt lat="47.5025" lon="6.76733">
        <ele>401</ele>
        <time>2016-06-12T09:25:48.000Z</time>
      </trkpt>
      <trkpt lat="47.50251" lon="6.76736">
        <ele>399</ele>
        <time>2016-06-12T09:25:49.000Z</time>
      </trkpt>
      <trkpt lat="47.50253" lon="6.76738">
        <ele>399</ele>
        <time>2016-06-12T09:25:50.000Z</time>
      </trkpt>
      <trkpt lat="47.50254" lon="6.76741">
        <ele>400</ele>
        <time>2016-06-12T09:25:51.000Z</time>
      </trkpt>
      <trkpt lat="47.50256" lon="6.76744">
        <ele>400</ele>
        <time>2016-06-12T09:25:52.000Z</time>
      </trkpt>
      <trkpt lat="47.50259" lon="6.76745">
        <ele>400</ele>
        <time>2016-06-12T09:25:53.000Z</time>
      </trkpt>
      <trkpt lat="47.50261" lon="6.76746">
        <ele>399</ele>
        <time>2016-06-12T09:25:54.000Z</time>
      </trkpt>
      <trkpt lat="47.50264" lon="6.76746">
        <ele>399</ele>
        <time>2016-06-12T09:25:55.000Z</time>
      </trkpt>
      <trkpt lat="47.50267" lon="6.76745">
        <ele>399</ele>
        <time>2016-06-12T09:25:56.000Z</time>
      </trkpt>
      <trkpt lat="47.5027" lon="6.76744">
        <ele>399</ele>
        <time>2016-06-12T09:25:57.000Z</time>
      </trkpt>
      <trkpt lat="47.50273" lon="6.76743">
        <ele>399</ele>
        <time>2016-06-12T09:25:58.000Z</time>
      </trkpt>
      <trkpt lat="47.50276" lon="6.76742">
        <ele>399</ele>
        <time>2016-06-12T09:25:59.000Z</time>
      </trkpt>
      <trkpt lat="47.50279" lon="6.76741">
        <ele>399</ele>
        <time>2016-06-12T09:26:00.000Z</time>
      </trkpt>
      <trkpt lat="47.50283" lon="6.7674">
        <ele>399</ele>
        <time>2016-06-12T09:26:01.000Z</time>
      </trkpt>
      <trkpt lat="47.50286" lon="6.7674">
        <ele>399</ele>
        <time>2016-06-12T09:26:02.000Z</time>
      </trkpt>
      <trkpt lat="47.50289" lon="6.76739">
        <ele>399</ele>
        <time>2016-06-12T09:26:03.000Z</time>
      </trkpt>
      <trkpt lat="47.50292" lon="6.76739">
        <ele>399</ele>
        <time>2016-06-12T09:26:04.000Z</time>
      </trkpt>
      <trkpt lat="47.50295" lon="6.76739">
        <ele>399</ele>
        <time>2016-06-12T09:26:05.000Z</time>
      </trkpt>
      <trkpt lat="47.50298" lon="6.76738">
        <ele>399</ele>
        <time>2016-06-12T09:26:06.000Z</time>
      </trkpt>
      <trkpt lat="47.50301" lon="6.76738">
        <ele>399</ele>
        <time>2016-06-12T09:26:07.001Z</time>
      </trkpt>
      <trkpt lat="47.50304" lon="6.76738">
        <ele>398</ele>
        <time>2016-06-12T09:26:08.000Z</time>
      </trkpt>
      <trkpt lat="47.50307" lon="6.76738">
        <ele>398</ele>
        <time>2016-06-12T09:26:09.000Z</time>
      </trkpt>
      <trkpt lat="47.5031" lon="6.76737">
        <ele>398</ele>
        <time>2016-06-12T09:26:10.000Z</time>
      </trkpt>
      <trkpt lat="47.50313" lon="6.76736">
        <ele>398</ele>
        <time>2016-06-12T09:26:11.000Z</time>
      </trkpt>
      <trkpt lat="47.50316" lon="6.76735">
        <ele>398</ele>
        <time>2016-06-12T09:26:12.000Z</time>
      </trkpt>
      <trkpt lat="47.50319" lon="6.76733">
        <ele>398</ele>
        <time>2016-06-12T09:26:13.000Z</time>
      </trkpt>
      <trkpt lat="47.50323" lon="6.76731">
        <ele>398</ele>
        <time>2016-06-12T09:26:14.000Z</time>
      </trkpt>
      <trkpt lat="47.50326" lon="6.76729">
        <ele>398</ele>
        <time>2016-06-12T09:26:15.000Z</time>
      </trkpt>
      <trkpt lat="47.50328" lon="6.76727">
        <ele>398</ele>
        <time>2016-06-12T09:26:16.000Z</time>
      </trkpt>
      <trkpt lat="47.50331" lon="6.76726">
        <ele>398</ele>
        <time>2016-06-12T09:26:17.000Z</time>
      </trkpt>
      <trkpt lat="47.50334" lon="6.76725">
        <ele>398</ele>
        <time>2016-06-12T09:26:18.000Z</time>
      </trkpt>
      <trkpt lat="47.50337" lon="6.76724">
        <ele>398</ele>
        <time>2016-06-12T09:26:19.000Z</time>
      </trkpt>
      <trkpt lat="47.5034" lon="6.76724">
        <ele>398</ele>
        <time>2016-06-12T09:26:20.000Z</time>
      </trkpt>
      <trkpt lat="47.50343" lon="6.76723">
        <ele>398</ele>
        <time>2016-06-12T09:26:21.000Z</time>
      </trkpt>
      <trkpt lat="47.50346" lon="6.76722">
        <ele>398</ele>
        <time>2016-06-12T09:26:22.000Z</time>
      </trkpt>
      <trkpt lat="47.50349" lon="6.76722">
        <ele>398</ele>
        <time>2016-06-12T09:26:23.000Z</time>
      </trkpt>
      <trkpt lat="47.50352" lon="6.76721">
        <ele>398</ele>
        <time>2016-06-12T09:26:24.000Z</time>
      </trkpt>
      <trkpt lat="47.50355" lon="6.7672">
        <ele>398</ele>
        <time>2016-06-12T09:26:25.000Z</time>
      </trkpt>
      <trkpt lat="47.50358" lon="6.76719">
        <ele>398</ele>
        <time>2016-06-12T09:26:26.000Z</time>
      </trkpt>
      <trkpt lat="47.50361" lon="6.76719">
        <ele>398</ele>
        <time>2016-06-12T09:26:27.000Z</time>
      </trkpt>
      <trkpt lat="47.50364" lon="6.76718">
        <ele>398</ele>
        <time>2016-06-12T09:26:28.000Z</time>
      </trkpt>
      <trkpt lat="47.50367" lon="6.76717">
        <ele>398</ele>
        <time>2016-06-12T09:26:29.000Z</time>
      </trkpt>
      <trkpt lat="47.5037" lon="6.76715">
        <ele>398</ele>
        <time>2016-06-12T09:26:30.000Z</time>
      </trkpt>
      <trkpt lat="47.50373" lon="6.76714">
        <ele>398</ele>
        <time>2016-06-12T09:26:31.000Z</time>
      </trkpt>
      <trkpt lat="47.50376" lon="6.76713">
        <ele>398</ele>
        <time>2016-06-12T09:26:32.000Z</time>
      </trkpt>
      <trkpt lat="47.50379" lon="6.76712">
        <ele>398</ele>
        <time>2016-06-12T09:26:33.000Z</time>
      </trkpt>
      <trkpt lat="47.50381" lon="6.7671">
        <ele>398</ele>
        <time>2016-06-12T09:26:34.000Z</time>
      </trkpt>
      <trkpt lat="47.50384" lon="6.76709">
        <ele>398</ele>
        <time>2016-06-12T09:26:35.000Z</time>
      </trkpt>
      <trkpt lat="47.50387" lon="6.76707">
        <ele>397</ele>
        <time>2016-06-12T09:26:36.000Z</time>
      </trkpt>
      <trkpt lat="47.5039" lon="6.76706">
        <ele>397</ele>
        <time>2016-06-12T09:26:37.000Z</time>
      </trkpt>
      <trkpt lat="47.50393" lon="6.76705">
        <ele>397</ele>
        <time>2016-06-12T09:26:38.000Z</time>
      </trkpt>
      <trkpt lat="47.50396" lon="6.76704">
        <ele>397</ele>
        <time>2016-06-12T09:26:39.000Z</time>
      </trkpt>
      <trkpt lat="47.50398" lon="6.76704">
        <ele>397</ele>
        <time>2016-06-12T09:26:40.000Z</time>
      </trkpt>
      <trkpt lat="47.50401" lon="6.76703">
        <ele>397</ele>
        <time>2016-06-12T09:26:41.000Z</time>
      </trkpt>
      <trkpt lat="47.50404" lon="6.76702">
        <ele>397</ele>
        <time>2016-06-12T09:26:42.000Z</time>
      </trkpt>
      <trkpt lat="47.50406" lon="6.76701">
        <ele>397</ele>
        <time>2016-06-12T09:26:43.000Z</time>
      </trkpt>
      <trkpt lat="47.50409" lon="6.76699">
        <ele>397</ele>
        <time>2016-06-12T09:26:44.000Z</time>
      </trkpt>
      <trkpt lat="47.50412" lon="6.76698">
        <ele>397</ele>
        <time>2016-06-12T09:26:45.000Z</time>
      </trkpt>
      <trkpt lat="47.50415" lon="6.76696">
        <ele>397</ele>
        <time>2016-06-12T09:26:46.000Z</time>
      </trkpt>
      <trkpt lat="47.50418" lon="6.76694">
        <ele>397</ele>
        <time>2016-06-12T09:26:47.000Z</time>
      </trkpt>
      <trkpt lat="47.5042" lon="6.76693">
        <ele>397</ele>
        <time>2016-06-12T09:26:48.000Z</time>
      </trkpt>
      <trkpt lat="47.50423" lon="6.76691">
        <ele>397</ele>
        <time>2016-06-12T09:26:48.999Z</time>
      </trkpt>
      <trkpt lat="47.50426" lon="6.7669">
        <ele>397</ele>
        <time>2016-06-12T09:26:50.000Z</time>
      </trkpt>
      <trkpt lat="47.50429" lon="6.76688">
        <ele>397</ele>
        <time>2016-06-12T09:26:51.000Z</time>
      </trkpt>
      <trkpt lat="47.50432" lon="6.76687">
        <ele>397</ele>
        <time>2016-06-12T09:26:52.000Z</time>
      </trkpt>
      <trkpt lat="47.50435" lon="6.76686">
        <ele>397</ele>
        <time>2016-06-12T09:26:53.000Z</time>
      </trkpt>
      <trkpt lat="47.50438" lon="6.76684">
        <ele>397</ele>
        <time>2016-06-12T09:26:54.000Z</time>
      </trkpt>
      <trkpt lat="47.50441" lon="6.76683">
        <ele>397</ele>
        <time>2016-06-12T09:26:55.000Z</time>
      </trkpt>
      <trkpt lat="47.50443" lon="6.76681">
        <ele>397</ele>
        <time>2016-06-12T09:26:56.000Z</time>
      </trkpt>
      <trkpt lat="47.50446" lon="6.7668">
        <ele>397</ele>
        <time>2016-06-12T09:26:57.000Z</time>
      </trkpt>
      <trkpt lat="47.50449" lon="6.76678">
        <ele>397</ele>
        <time>2016-06-12T09:26:58.000Z</time>
      </trkpt>
      <trkpt lat="47.50453" lon="6.76677">
        <ele>397</ele>
        <time>2016-06-12T09:26:59.000Z</time>
      </trkpt>
      <trkpt lat="47.50456" lon="6.76676">
        <ele>397</ele>
        <time>2016-06-12T09:27:00.000Z</time>
      </trkpt>
      <trkpt lat="47.50459" lon="6.76675">
        <ele>397</ele>
        <time>2016-06-12T09:27:01.000Z</time>
      </trkpt>
      <trkpt lat="47.50461" lon="6.76674">
        <ele>397</ele>
        <time>2016-06-12T09:27:02.000Z</time>
      </trkpt>
      <trkpt lat="47.50464" lon="6.76672">
        <ele>397</ele>
        <time>2016-06-12T09:27:03.000Z</time>
      </trkpt>
      <trkpt lat="47.50467" lon="6.76671">
        <ele>397</ele>
        <time>2016-06-12T09:27:04.000Z</time>
      </trkpt>
      <trkpt lat="47.5047" lon="6.7667">
        <ele>397</ele>
        <time>2016-06-12T09:27:05.000Z</time>
      </trkpt>
      <trkpt lat="47.50474" lon="6.76669">
        <ele>397</ele>
        <time>2016-06-12T09:27:06.000Z</time>
      </trkpt>
      <trkpt lat="47.50477" lon="6.76668">
        <ele>397</ele>
        <time>2016-06-12T09:27:07.000Z</time>
      </trkpt>
      <trkpt lat="47.5048" lon="6.76666">
        <ele>399</ele>
        <time>2016-06-12T09:27:08.000Z</time>
      </trkpt>
      <trkpt lat="47.50483" lon="6.76665">
        <ele>399</ele>
        <time>2016-06-12T09:27:09.000Z</time>
      </trkpt>
      <trkpt lat="47.50485" lon="6.76665">
        <ele>399</ele>
        <time>2016-06-12T09:27:10.000Z</time>
      </trkpt>
      <trkpt lat="47.50488" lon="6.76664">
        <ele>399</ele>
        <time>2016-06-12T09:27:11.000Z</time>
      </trkpt>
      <trkpt lat="47.50491" lon="6.76663">
        <ele>399</ele>
        <time>2016-06-12T09:27:12.000Z</time>
      </trkpt>
      <trkpt lat="47.50493" lon="6.76662">
        <ele>399</ele>
        <time>2016-06-12T09:27:13.000Z</time>
      </trkpt>
      <trkpt lat="47.50496" lon="6.76662">
        <ele>399</ele>
        <time>2016-06-12T09:27:14.000Z</time>
      </trkpt>
      <trkpt lat="47.50499" lon="6.76662">
        <ele>399</ele>
        <time>2016-06-12T09:27:15.000Z</time>
      </trkpt>
      <trkpt lat="47.50501" lon="6.76661">
        <ele>399</ele>
        <time>2016-06-12T09:27:16.000Z</time>
      </trkpt>
      <trkpt lat="47.50504" lon="6.76661">
        <ele>399</ele>
        <time>2016-06-12T09:27:17.000Z</time>
      </trkpt>
      <trkpt lat="47.50507" lon="6.7666">
        <ele>399</ele>
        <time>2016-06-12T09:27:18.000Z</time>
      </trkpt>
      <trkpt lat="47.50509" lon="6.76659">
        <ele>399</ele>
        <time>2016-06-12T09:27:19.000Z</time>
      </trkpt>
      <trkpt lat="47.50512" lon="6.76658">
        <ele>399</ele>
        <time>2016-06-12T09:27:20.000Z</time>
      </trkpt>
      <trkpt lat="47.50515" lon="6.76657">
        <ele>399</ele>
        <time>2016-06-12T09:27:21.000Z</time>
      </trkpt>
      <trkpt lat="47.50517" lon="6.76657">
        <ele>399</ele>
        <time>2016-06-12T09:27:22.000Z</time>
      </trkpt>
      <trkpt lat="47.5052" lon="6.76657">
        <ele>399</ele>
        <time>2016-06-12T09:27:23.000Z</time>
      </trkpt>
      <trkpt lat="47.50523" lon="6.76656">
        <ele>399</ele>
        <time>2016-06-12T09:27:24.000Z</time>
      </trkpt>
      <trkpt lat="47.50525" lon="6.76655">
        <ele>399</ele>
        <time>2016-06-12T09:27:25.000Z</time>
      </trkpt>
      <trkpt lat="47.50528" lon="6.76654">
        <ele>399</ele>
        <time>2016-06-12T09:27:26.000Z</time>
      </trkpt>
      <trkpt lat="47.5053" lon="6.76654">
        <ele>399</ele>
        <time>2016-06-12T09:27:27.000Z</time>
      </trkpt>
      <trkpt lat="47.50533" lon="6.76653">
        <ele>399</ele>
        <time>2016-06-12T09:27:28.000Z</time>
      </trkpt>
      <trkpt lat="47.50535" lon="6.76652">
        <ele>399</ele>
        <time>2016-06-12T09:27:29.000Z</time>
      </trkpt>
      <trkpt lat="47.50537" lon="6.76652">
        <ele>399</ele>
        <time>2016-06-12T09:27:30.000Z</time>
      </trkpt>
      <trkpt lat="47.5054" lon="6.76651">
        <ele>399</ele>
        <time>2016-06-12T09:27:31.000Z</time>
      </trkpt>
      <trkpt lat="47.50543" lon="6.7665">
        <ele>399</ele>
        <time>2016-06-12T09:27:32.000Z</time>
      </trkpt>
      <trkpt lat="47.50545" lon="6.7665">
        <ele>399</ele>
        <time>2016-06-12T09:27:33.000Z</time>
      </trkpt>
      <trkpt lat="47.50548" lon="6.7665">
        <ele>399</ele>
        <time>2016-06-12T09:27:34.000Z</time>
      </trkpt>
      <trkpt lat="47.50551" lon="6.76649">
        <ele>399</ele>
        <time>2016-06-12T09:27:35.000Z</time>
      </trkpt>
      <trkpt lat="47.50554" lon="6.76649">
        <ele>399</ele>
        <time>2016-06-12T09:27:36.000Z</time>
      </trkpt>
      <trkpt lat="47.50557" lon="6.76648">
        <ele>399</ele>
        <time>2016-06-12T09:27:37.000Z</time>
      </trkpt>
      <trkpt lat="47.50559" lon="6.76647">
        <ele>399</ele>
        <time>2016-06-12T09:27:38.000Z</time>
      </trkpt>
      <trkpt lat="47.50562" lon="6.76646">
        <ele>399</ele>
        <time>2016-06-12T09:27:39.000Z</time>
      </trkpt>
      <trkpt lat="47.50565" lon="6.76645">
        <ele>399</ele>
        <time>2016-06-12T09:27:40.000Z</time>
      </trkpt>
      <trkpt lat="47.50568" lon="6.76645">
        <ele>399</ele>
        <time>2016-06-12T09:27:41.000Z</time>
      </trkpt>
      <trkpt lat="47.5057" lon="6.76644">
        <ele>399</ele>
        <time>2016-06-12T09:27:42.000Z</time>
      </trkpt>
      <trkpt lat="47.50573" lon="6.76644">
        <ele>399</ele>
        <time>2016-06-12T09:27:43.000Z</time>
      </trkpt>
      <trkpt lat="47.50576" lon="6.76643">
        <ele>399</ele>
        <time>2016-06-12T09:27:44.000Z</time>
      </trkpt>
      <trkpt lat="47.50579" lon="6.76642">
        <ele>399</ele>
        <time>2016-06-12T09:27:45.000Z</time>
      </trkpt>
      <trkpt lat="47.50582" lon="6.76641">
        <ele>399</ele>
        <time>2016-06-12T09:27:46.000Z</time>
      </trkpt>
      <trkpt lat="47.50585" lon="6.76639">
        <ele>398</ele>
        <time>2016-06-12T09:27:47.000Z</time>
      </trkpt>
      <trkpt lat="47.50589" lon="6.76637">
        <ele>398</ele>
        <time>2016-06-12T09:27:48.000Z</time>
      </trkpt>
      <trkpt lat="47.50592" lon="6.76636">
        <ele>398</ele>
        <time>2016-06-12T09:27:49.000Z</time>
      </trkpt>
      <trkpt lat="47.50596" lon="6.76634">
        <ele>398</ele>
        <time>2016-06-12T09:27:50.000Z</time>
      </trkpt>
      <trkpt lat="47.50599" lon="6.76633">
        <ele>398</ele>
        <time>2016-06-12T09:27:51.000Z</time>
      </trkpt>
      <trkpt lat="47.50603" lon="6.76631">
        <ele>398</ele>
        <time>2016-06-12T09:27:52.000Z</time>
      </trkpt>
      <trkpt lat="47.50606" lon="6.7663">
        <ele>397</ele>
        <time>2016-06-12T09:27:53.000Z</time>
      </trkpt>
      <trkpt lat="47.5061" lon="6.76628">
        <ele>397</ele>
        <time>2016-06-12T09:27:54.000Z</time>
      </trkpt>
      <trkpt lat="47.50613" lon="6.76626">
        <ele>397</ele>
        <time>2016-06-12T09:27:55.000Z</time>
      </trkpt>
      <trkpt lat="47.50617" lon="6.76624">
        <ele>397</ele>
        <time>2016-06-12T09:27:56.000Z</time>
      </trkpt>
      <trkpt lat="47.5062" lon="6.76622">
        <ele>397</ele>
        <time>2016-06-12T09:27:57.000Z</time>
      </trkpt>
      <trkpt lat="47.50624" lon="6.7662">
        <ele>397</ele>
        <time>2016-06-12T09:27:58.000Z</time>
      </trkpt>
      <trkpt lat="47.50627" lon="6.76618">
        <ele>397</ele>
        <time>2016-06-12T09:27:59.000Z</time>
      </trkpt>
      <trkpt lat="47.50631" lon="6.76616">
        <ele>397</ele>
        <time>2016-06-12T09:28:00.000Z</time>
      </trkpt>
      <trkpt lat="47.50635" lon="6.76614">
        <ele>397</ele>
        <time>2016-06-12T09:28:01.000Z</time>
      </trkpt>
      <trkpt lat="47.50639" lon="6.76612">
        <ele>397</ele>
        <time>2016-06-12T09:28:02.000Z</time>
      </trkpt>
      <trkpt lat="47.50643" lon="6.7661">
        <ele>397</ele>
        <time>2016-06-12T09:28:03.000Z</time>
      </trkpt>
      <trkpt lat="47.50647" lon="6.76608">
        <ele>397</ele>
        <time>2016-06-12T09:28:04.000Z</time>
      </trkpt>
      <trkpt lat="47.50651" lon="6.76606">
        <ele>397</ele>
        <time>2016-06-12T09:28:05.000Z</time>
      </trkpt>
      <trkpt lat="47.50655" lon="6.76604">
        <ele>397</ele>
        <time>2016-06-12T09:28:06.000Z</time>
      </trkpt>
      <trkpt lat="47.5066" lon="6.76603">
        <ele>397</ele>
        <time>2016-06-12T09:28:07.000Z</time>
      </trkpt>
      <trkpt lat="47.50664" lon="6.76602">
        <ele>397</ele>
        <time>2016-06-12T09:28:08.000Z</time>
      </trkpt>
      <trkpt lat="47.50668" lon="6.76601">
        <ele>396</ele>
        <time>2016-06-12T09:28:09.000Z</time>
      </trkpt>
      <trkpt lat="47.50672" lon="6.76599">
        <ele>396</ele>
        <time>2016-06-12T09:28:10.000Z</time>
      </trkpt>
      <trkpt lat="47.50677" lon="6.76598">
        <ele>396</ele>
        <time>2016-06-12T09:28:11.000Z</time>
      </trkpt>
      <trkpt lat="47.50682" lon="6.76597">
        <ele>395</ele>
        <time>2016-06-12T09:28:12.000Z</time>
      </trkpt>
      <trkpt lat="47.50686" lon="6.76596">
        <ele>395</ele>
        <time>2016-06-12T09:28:13.000Z</time>
      </trkpt>
      <trkpt lat="47.50691" lon="6.76596">
        <ele>395</ele>
        <time>2016-06-12T09:28:14.000Z</time>
      </trkpt>
      <trkpt lat="47.50695" lon="6.76596">
        <ele>395</ele>
        <time>2016-06-12T09:28:15.000Z</time>
      </trkpt>
      <trkpt lat="47.507" lon="6.76596">
        <ele>395</ele>
        <time>2016-06-12T09:28:16.000Z</time>
      </trkpt>
      <trkpt lat="47.50705" lon="6.76596">
        <ele>395</ele>
        <time>2016-06-12T09:28:17.000Z</time>
      </trkpt>
      <trkpt lat="47.50709" lon="6.76596">
        <ele>395</ele>
        <time>2016-06-12T09:28:18.000Z</time>
      </trkpt>
      <trkpt lat="47.50714" lon="6.76596">
        <ele>395</ele>
        <time>2016-06-12T09:28:19.000Z</time>
      </trkpt>
      <trkpt lat="47.50719" lon="6.76597">
        <ele>394</ele>
        <time>2016-06-12T09:28:20.000Z</time>
      </trkpt>
      <trkpt lat="47.50723" lon="6.76598">
        <ele>394</ele>
        <time>2016-06-12T09:28:21.000Z</time>
      </trkpt>
      <trkpt lat="47.50727" lon="6.76599">
        <ele>394</ele>
        <time>2016-06-12T09:28:22.000Z</time>
      </trkpt>
      <trkpt lat="47.50731" lon="6.76599">
        <ele>394</ele>
        <time>2016-06-12T09:28:23.000Z</time>
      </trkpt>
      <trkpt lat="47.50734" lon="6.766">
        <ele>394</ele>
        <time>2016-06-12T09:28:24.000Z</time>
      </trkpt>
      <trkpt lat="47.50738" lon="6.766">
        <ele>394</ele>
        <time>2016-06-12T09:28:25.000Z</time>
      </trkpt>
      <trkpt lat="47.50741" lon="6.76602">
        <ele>394</ele>
        <time>2016-06-12T09:28:26.000Z</time>
      </trkpt>
      <trkpt lat="47.50746" lon="6.76602">
        <ele>394</ele>
        <time>2016-06-12T09:28:27.000Z</time>
      </trkpt>
      <trkpt lat="47.5075" lon="6.76602">
        <ele>392</ele>
        <time>2016-06-12T09:28:28.000Z</time>
      </trkpt>
      <trkpt lat="47.50759" lon="6.76602">
        <ele>392</ele>
        <time>2016-06-12T09:28:30.000Z</time>
      </trkpt>
      <trkpt lat="47.50763" lon="6.76602">
        <ele>392</ele>
        <time>2016-06-12T09:28:31.000Z</time>
      </trkpt>
      <trkpt lat="47.50767" lon="6.76602">
        <ele>392</ele>
        <time>2016-06-12T09:28:32.000Z</time>
      </trkpt>
      <trkpt lat="47.50771" lon="6.76602">
        <ele>392</ele>
        <time>2016-06-12T09:28:33.000Z</time>
      </trkpt>
      <trkpt lat="47.50775" lon="6.76601">
        <ele>392</ele>
        <time>2016-06-12T09:28:34.000Z</time>
      </trkpt>
      <trkpt lat="47.50779" lon="6.76599">
        <ele>391</ele>
        <time>2016-06-12T09:28:35.000Z</time>
      </trkpt>
      <trkpt lat="47.50783" lon="6.76598">
        <ele>391</ele>
        <time>2016-06-12T09:28:36.000Z</time>
      </trkpt>
      <trkpt lat="47.50787" lon="6.76597">
        <ele>391</ele>
        <time>2016-06-12T09:28:37.001Z</time>
      </trkpt>
      <trkpt lat="47.5079" lon="6.76596">
        <ele>391</ele>
        <time>2016-06-12T09:28:38.000Z</time>
      </trkpt>
      <trkpt lat="47.50794" lon="6.76595">
        <ele>391</ele>
        <time>2016-06-12T09:28:39.001Z</time>
      </trkpt>
      <trkpt lat="47.50796" lon="6.76596">
        <ele>391</ele>
        <time>2016-06-12T09:28:40.000Z</time>
      </trkpt>
      <trkpt lat="47.50792" lon="6.76594">
        <ele>391</ele>
        <time>2016-06-12T09:28:46.000Z</time>
      </trkpt>
      <trkpt lat="47.50792" lon="6.76594">
        <ele>391</ele>
        <time>2016-06-12T09:28:47.000Z</time>
      </trkpt>
      <trkpt lat="47.50794" lon="6.76592">
        <ele>391</ele>
        <time>2016-06-12T09:28:56.000Z</time>
      </trkpt>
      <trkpt lat="47.50797" lon="6.76591">
        <ele>391</ele>
        <time>2016-06-12T09:28:57.000Z</time>
      </trkpt>
      <trkpt lat="47.50799" lon="6.7659">
        <ele>391</ele>
        <time>2016-06-12T09:28:58.000Z</time>
      </trkpt>
      <trkpt lat="47.50802" lon="6.76589">
        <ele>391</ele>
        <time>2016-06-12T09:28:59.000Z</time>
      </trkpt>
      <trkpt lat="47.50805" lon="6.76589">
        <ele>390</ele>
        <time>2016-06-12T09:29:00.000Z</time>
      </trkpt>
      <trkpt lat="47.50808" lon="6.76588">
        <ele>390</ele>
        <time>2016-06-12T09:29:01.000Z</time>
      </trkpt>
      <trkpt lat="47.50811" lon="6.76591">
        <ele>390</ele>
        <time>2016-06-12T09:29:03.000Z</time>
      </trkpt>
      <trkpt lat="47.50812" lon="6.76595">
        <ele>390</ele>
        <time>2016-06-12T09:29:04.000Z</time>
      </trkpt>
      <trkpt lat="47.50814" lon="6.76599">
        <ele>390</ele>
        <time>2016-06-12T09:29:05.000Z</time>
      </trkpt>
      <trkpt lat="47.50819" lon="6.76607">
        <ele>390</ele>
        <time>2016-06-12T09:29:06.000Z</time>
      </trkpt>
      <trkpt lat="47.50822" lon="6.76613">
        <ele>390</ele>
        <time>2016-06-12T09:29:07.000Z</time>
      </trkpt>
      <trkpt lat="47.50824" lon="6.76621">
        <ele>390</ele>
        <time>2016-06-12T09:29:08.000Z</time>
      </trkpt>
      <trkpt lat="47.50827" lon="6.76628">
        <ele>390</ele>
        <time>2016-06-12T09:29:09.000Z</time>
      </trkpt>
      <trkpt lat="47.50831" lon="6.76635">
        <ele>390</ele>
        <time>2016-06-12T09:29:10.000Z</time>
      </trkpt>
      <trkpt lat="47.50834" lon="6.76644">
        <ele>387</ele>
        <time>2016-06-12T09:29:11.000Z</time>
      </trkpt>
      <trkpt lat="47.50838" lon="6.76653">
        <ele>388</ele>
        <time>2016-06-12T09:29:12.000Z</time>
      </trkpt>
      <trkpt lat="47.50842" lon="6.76663">
        <ele>388</ele>
        <time>2016-06-12T09:29:13.000Z</time>
      </trkpt>
      <trkpt lat="47.50846" lon="6.76673">
        <ele>387</ele>
        <time>2016-06-12T09:29:14.000Z</time>
      </trkpt>
      <trkpt lat="47.5085" lon="6.76683">
        <ele>386</ele>
        <time>2016-06-12T09:29:15.000Z</time>
      </trkpt>
      <trkpt lat="47.50854" lon="6.76692">
        <ele>385</ele>
        <time>2016-06-12T09:29:16.000Z</time>
      </trkpt>
      <trkpt lat="47.50858" lon="6.76703">
        <ele>384</ele>
        <time>2016-06-12T09:29:17.000Z</time>
      </trkpt>
      <trkpt lat="47.50862" lon="6.76714">
        <ele>384</ele>
        <time>2016-06-12T09:29:18.000Z</time>
      </trkpt>
      <trkpt lat="47.50866" lon="6.76726">
        <ele>383</ele>
        <time>2016-06-12T09:29:19.000Z</time>
      </trkpt>
      <trkpt lat="47.50871" lon="6.76737">
        <ele>383</ele>
        <time>2016-06-12T09:29:20.000Z</time>
      </trkpt>
      <trkpt lat="47.50876" lon="6.76748">
        <ele>383</ele>
        <time>2016-06-12T09:29:21.000Z</time>
      </trkpt>
      <trkpt lat="47.50881" lon="6.76759">
        <ele>381</ele>
        <time>2016-06-12T09:29:22.000Z</time>
      </trkpt>
      <trkpt lat="47.50886" lon="6.76772">
        <ele>381</ele>
        <time>2016-06-12T09:29:23.000Z</time>
      </trkpt>
      <trkpt lat="47.50891" lon="6.76784">
        <ele>381</ele>
        <time>2016-06-12T09:29:24.000Z</time>
      </trkpt>
      <trkpt lat="47.50896" lon="6.76796">
        <ele>381</ele>
        <time>2016-06-12T09:29:25.000Z</time>
      </trkpt>
      <trkpt lat="47.509" lon="6.76807">
        <ele>381</ele>
        <time>2016-06-12T09:29:26.000Z</time>
      </trkpt>
      <trkpt lat="47.50905" lon="6.76818">
        <ele>381</ele>
        <time>2016-06-12T09:29:27.000Z</time>
      </trkpt>
      <trkpt lat="47.5091" lon="6.76829">
        <ele>380</ele>
        <time>2016-06-12T09:29:28.000Z</time>
      </trkpt>
      <trkpt lat="47.50915" lon="6.7684">
        <ele>380</ele>
        <time>2016-06-12T09:29:29.000Z</time>
      </trkpt>
      <trkpt lat="47.5092" lon="6.76851">
        <ele>379</ele>
        <time>2016-06-12T09:29:30.000Z</time>
      </trkpt>
      <trkpt lat="47.50926" lon="6.76861">
        <ele>378</ele>
        <time>2016-06-12T09:29:31.000Z</time>
      </trkpt>
      <trkpt lat="47.50932" lon="6.76872">
        <ele>378</ele>
        <time>2016-06-12T09:29:32.000Z</time>
      </trkpt>
      <trkpt lat="47.50939" lon="6.76881">
        <ele>378</ele>
        <time>2016-06-12T09:29:33.000Z</time>
      </trkpt>
      <trkpt lat="47.50945" lon="6.7689">
        <ele>378</ele>
        <time>2016-06-12T09:29:34.000Z</time>
      </trkpt>
      <trkpt lat="47.50952" lon="6.76897">
        <ele>377</ele>
        <time>2016-06-12T09:29:35.000Z</time>
      </trkpt>
      <trkpt lat="47.50958" lon="6.76905">
        <ele>377</ele>
        <time>2016-06-12T09:29:36.000Z</time>
      </trkpt>
      <trkpt lat="47.50963" lon="6.76914">
        <ele>377</ele>
        <time>2016-06-12T09:29:37.000Z</time>
      </trkpt>
      <trkpt lat="47.50968" lon="6.76922">
        <ele>374</ele>
        <time>2016-06-12T09:29:38.000Z</time>
      </trkpt>
      <trkpt lat="47.50973" lon="6.76931">
        <ele>374</ele>
        <time>2016-06-12T09:29:39.000Z</time>
      </trkpt>
      <trkpt lat="47.50979" lon="6.76937">
        <ele>374</ele>
        <time>2016-06-12T09:29:40.000Z</time>
      </trkpt>
      <trkpt lat="47.50986" lon="6.7694">
        <ele>374</ele>
        <time>2016-06-12T09:29:41.000Z</time>
      </trkpt>
      <trkpt lat="47.50993" lon="6.7694">
        <ele>374</ele>
        <time>2016-06-12T09:29:42.000Z</time>
      </trkpt>
      <trkpt lat="47.51" lon="6.7694">
        <ele>375</ele>
        <time>2016-06-12T09:29:43.000Z</time>
      </trkpt>
      <trkpt lat="47.51008" lon="6.7694">
        <ele>375</ele>
        <time>2016-06-12T09:29:44.000Z</time>
      </trkpt>
      <trkpt lat="47.51015" lon="6.76942">
        <ele>375</ele>
        <time>2016-06-12T09:29:45.000Z</time>
      </trkpt>
      <trkpt lat="47.51022" lon="6.76944">
        <ele>375</ele>
        <time>2016-06-12T09:29:46.000Z</time>
      </trkpt>
      <trkpt lat="47.51028" lon="6.76949">
        <ele>375</ele>
        <time>2016-06-12T09:29:47.000Z</time>
      </trkpt>
      <trkpt lat="47.51035" lon="6.76954">
        <ele>375</ele>
        <time>2016-06-12T09:29:48.000Z</time>
      </trkpt>
      <trkpt lat="47.51041" lon="6.7696">
        <ele>375</ele>
        <time>2016-06-12T09:29:49.000Z</time>
      </trkpt>
      <trkpt lat="47.51048" lon="6.76965">
        <ele>375</ele>
        <time>2016-06-12T09:29:50.000Z</time>
      </trkpt>
      <trkpt lat="47.51054" lon="6.76971">
        <ele>375</ele>
        <time>2016-06-12T09:29:51.000Z</time>
      </trkpt>
      <trkpt lat="47.5106" lon="6.76977">
        <ele>375</ele>
        <time>2016-06-12T09:29:52.000Z</time>
      </trkpt>
      <trkpt lat="47.51066" lon="6.76983">
        <ele>375</ele>
        <time>2016-06-12T09:29:52.999Z</time>
      </trkpt>
      <trkpt lat="47.51074" lon="6.76987">
        <ele>375</ele>
        <time>2016-06-12T09:29:54.000Z</time>
      </trkpt>
      <trkpt lat="47.5108" lon="6.76993">
        <ele>375</ele>
        <time>2016-06-12T09:29:55.000Z</time>
      </trkpt>
      <trkpt lat="47.51086" lon="6.76998">
        <ele>375</ele>
        <time>2016-06-12T09:29:56.000Z</time>
      </trkpt>
      <trkpt lat="47.51092" lon="6.77004">
        <ele>375</ele>
        <time>2016-06-12T09:29:57.000Z</time>
      </trkpt>
      <trkpt lat="47.51098" lon="6.77009">
        <ele>375</ele>
        <time>2016-06-12T09:29:57.999Z</time>
      </trkpt>
      <trkpt lat="47.51103" lon="6.77015">
        <ele>375</ele>
        <time>2016-06-12T09:29:59.000Z</time>
      </trkpt>
      <trkpt lat="47.5111" lon="6.77019">
        <ele>375</ele>
        <time>2016-06-12T09:30:00.000Z</time>
      </trkpt>
      <trkpt lat="47.51116" lon="6.77024">
        <ele>375</ele>
        <time>2016-06-12T09:30:01.000Z</time>
      </trkpt>
      <trkpt lat="47.51121" lon="6.7703">
        <ele>375</ele>
        <time>2016-06-12T09:30:02.000Z</time>
      </trkpt>
      <trkpt lat="47.51127" lon="6.77035">
        <ele>375</ele>
        <time>2016-06-12T09:30:03.000Z</time>
      </trkpt>
      <trkpt lat="47.51133" lon="6.7704">
        <ele>375</ele>
        <time>2016-06-12T09:30:04.000Z</time>
      </trkpt>
      <trkpt lat="47.51138" lon="6.77045">
        <ele>375</ele>
        <time>2016-06-12T09:30:05.000Z</time>
      </trkpt>
      <trkpt lat="47.51143" lon="6.7705">
        <ele>376</ele>
        <time>2016-06-12T09:30:06.000Z</time>
      </trkpt>
      <trkpt lat="47.51148" lon="6.77054">
        <ele>376</ele>
        <time>2016-06-12T09:30:07.000Z</time>
      </trkpt>
      <trkpt lat="47.51154" lon="6.77059">
        <ele>376</ele>
        <time>2016-06-12T09:30:08.000Z</time>
      </trkpt>
      <trkpt lat="47.51158" lon="6.77064">
        <ele>376</ele>
        <time>2016-06-12T09:30:09.000Z</time>
      </trkpt>
      <trkpt lat="47.51163" lon="6.7707">
        <ele>377</ele>
        <time>2016-06-12T09:30:10.000Z</time>
      </trkpt>
      <trkpt lat="47.51167" lon="6.77075">
        <ele>377</ele>
        <time>2016-06-12T09:30:11.000Z</time>
      </trkpt>
      <trkpt lat="47.51171" lon="6.77081">
        <ele>377</ele>
        <time>2016-06-12T09:30:12.000Z</time>
      </trkpt>
      <trkpt lat="47.51174" lon="6.77087">
        <ele>378</ele>
        <time>2016-06-12T09:30:13.000Z</time>
      </trkpt>
      <trkpt lat="47.51177" lon="6.77093">
        <ele>378</ele>
        <time>2016-06-12T09:30:14.000Z</time>
      </trkpt>
      <trkpt lat="47.51181" lon="6.77098">
        <ele>378</ele>
        <time>2016-06-12T09:30:15.000Z</time>
      </trkpt>
      <trkpt lat="47.51184" lon="6.77103">
        <ele>378</ele>
        <time>2016-06-12T09:30:16.000Z</time>
      </trkpt>
      <trkpt lat="47.51187" lon="6.77108">
        <ele>378</ele>
        <time>2016-06-12T09:30:17.000Z</time>
      </trkpt>
      <trkpt lat="47.5119" lon="6.77116">
        <ele>378</ele>
        <time>2016-06-12T09:30:18.000Z</time>
      </trkpt>
      <trkpt lat="47.51193" lon="6.77121">
        <ele>378</ele>
        <time>2016-06-12T09:30:19.000Z</time>
      </trkpt>
      <trkpt lat="47.51196" lon="6.77127">
        <ele>378</ele>
        <time>2016-06-12T09:30:20.000Z</time>
      </trkpt>
      <trkpt lat="47.51199" lon="6.77133">
        <ele>378</ele>
        <time>2016-06-12T09:30:21.000Z</time>
      </trkpt>
      <trkpt lat="47.51202" lon="6.77138">
        <ele>378</ele>
        <time>2016-06-12T09:30:22.000Z</time>
      </trkpt>
      <trkpt lat="47.51204" lon="6.77143">
        <ele>378</ele>
        <time>2016-06-12T09:30:23.000Z</time>
      </trkpt>
      <trkpt lat="47.51207" lon="6.77147">
        <ele>378</ele>
        <time>2016-06-12T09:30:24.000Z</time>
      </trkpt>
      <trkpt lat="47.51209" lon="6.77153">
        <ele>378</ele>
        <time>2016-06-12T09:30:25.000Z</time>
      </trkpt>
      <trkpt lat="47.51212" lon="6.77157">
        <ele>378</ele>
        <time>2016-06-12T09:30:26.000Z</time>
      </trkpt>
      <trkpt lat="47.51215" lon="6.77163">
        <ele>378</ele>
        <time>2016-06-12T09:30:27.000Z</time>
      </trkpt>
      <trkpt lat="47.51217" lon="6.7717">
        <ele>376</ele>
        <time>2016-06-12T09:30:28.000Z</time>
      </trkpt>
      <trkpt lat="47.51219" lon="6.77175">
        <ele>376</ele>
        <time>2016-06-12T09:30:29.000Z</time>
      </trkpt>
      <trkpt lat="47.51222" lon="6.77179">
        <ele>376</ele>
        <time>2016-06-12T09:30:30.000Z</time>
      </trkpt>
      <trkpt lat="47.51223" lon="6.77184">
        <ele>376</ele>
        <time>2016-06-12T09:30:31.000Z</time>
      </trkpt>
      <trkpt lat="47.51226" lon="6.77189">
        <ele>376</ele>
        <time>2016-06-12T09:30:32.000Z</time>
      </trkpt>
      <trkpt lat="47.51227" lon="6.77193">
        <ele>376</ele>
        <time>2016-06-12T09:30:33.000Z</time>
      </trkpt>
      <trkpt lat="47.5123" lon="6.77198">
        <ele>376</ele>
        <time>2016-06-12T09:30:34.000Z</time>
      </trkpt>
      <trkpt lat="47.51233" lon="6.77204">
        <ele>376</ele>
        <time>2016-06-12T09:30:35.000Z</time>
      </trkpt>
      <trkpt lat="47.51235" lon="6.77209">
        <ele>376</ele>
        <time>2016-06-12T09:30:36.000Z</time>
      </trkpt>
      <trkpt lat="47.51238" lon="6.77214">
        <ele>376</ele>
        <time>2016-06-12T09:30:37.000Z</time>
      </trkpt>
      <trkpt lat="47.5124" lon="6.77219">
        <ele>376</ele>
        <time>2016-06-12T09:30:38.000Z</time>
      </trkpt>
      <trkpt lat="47.51242" lon="6.77224">
        <ele>376</ele>
        <time>2016-06-12T09:30:39.000Z</time>
      </trkpt>
      <trkpt lat="47.51244" lon="6.77228">
        <ele>376</ele>
        <time>2016-06-12T09:30:40.000Z</time>
      </trkpt>
      <trkpt lat="47.51246" lon="6.77233">
        <ele>377</ele>
        <time>2016-06-12T09:30:41.000Z</time>
      </trkpt>
      <trkpt lat="47.51249" lon="6.77238">
        <ele>377</ele>
        <time>2016-06-12T09:30:42.000Z</time>
      </trkpt>
      <trkpt lat="47.51252" lon="6.77242">
        <ele>379</ele>
        <time>2016-06-12T09:30:43.000Z</time>
      </trkpt>
      <trkpt lat="47.51255" lon="6.77245">
        <ele>379</ele>
        <time>2016-06-12T09:30:44.000Z</time>
      </trkpt>
      <trkpt lat="47.51259" lon="6.77248">
        <ele>379</ele>
        <time>2016-06-12T09:30:45.000Z</time>
      </trkpt>
      <trkpt lat="47.51262" lon="6.77252">
        <ele>378</ele>
        <time>2016-06-12T09:30:46.000Z</time>
      </trkpt>
      <trkpt lat="47.51266" lon="6.77256">
        <ele>378</ele>
        <time>2016-06-12T09:30:47.000Z</time>
      </trkpt>
      <trkpt lat="47.51269" lon="6.77259">
        <ele>377</ele>
        <time>2016-06-12T09:30:48.000Z</time>
      </trkpt>
      <trkpt lat="47.51273" lon="6.77261">
        <ele>377</ele>
        <time>2016-06-12T09:30:49.000Z</time>
      </trkpt>
      <trkpt lat="47.51278" lon="6.77264">
        <ele>377</ele>
        <time>2016-06-12T09:30:50.000Z</time>
      </trkpt>
      <trkpt lat="47.51283" lon="6.77266">
        <ele>377</ele>
        <time>2016-06-12T09:30:51.000Z</time>
      </trkpt>
      <trkpt lat="47.51288" lon="6.77269">
        <ele>377</ele>
        <time>2016-06-12T09:30:52.000Z</time>
      </trkpt>
      <trkpt lat="47.51294" lon="6.77271">
        <ele>377</ele>
        <time>2016-06-12T09:30:53.000Z</time>
      </trkpt>
      <trkpt lat="47.513" lon="6.77274">
        <ele>377</ele>
        <time>2016-06-12T09:30:54.000Z</time>
      </trkpt>
      <trkpt lat="47.51306" lon="6.77277">
        <ele>377</ele>
        <time>2016-06-12T09:30:55.000Z</time>
      </trkpt>
      <trkpt lat="47.51312" lon="6.7728">
        <ele>377</ele>
        <time>2016-06-12T09:30:56.000Z</time>
      </trkpt>
      <trkpt lat="47.51318" lon="6.77282">
        <ele>377</ele>
        <time>2016-06-12T09:30:57.000Z</time>
      </trkpt>
      <trkpt lat="47.51324" lon="6.77284">
        <ele>377</ele>
        <time>2016-06-12T09:30:57.999Z</time>
      </trkpt>
      <trkpt lat="47.51331" lon="6.77285">
        <ele>378</ele>
        <time>2016-06-12T09:30:59.000Z</time>
      </trkpt>
      <trkpt lat="47.51337" lon="6.77285">
        <ele>378</ele>
        <time>2016-06-12T09:31:00.000Z</time>
      </trkpt>
      <trkpt lat="47.51343" lon="6.77282">
        <ele>378</ele>
        <time>2016-06-12T09:31:01.000Z</time>
      </trkpt>
      <trkpt lat="47.51349" lon="6.77278">
        <ele>378</ele>
        <time>2016-06-12T09:31:02.000Z</time>
      </trkpt>
      <trkpt lat="47.51355" lon="6.77274">
        <ele>378</ele>
        <time>2016-06-12T09:31:03.000Z</time>
      </trkpt>
      <trkpt lat="47.51361" lon="6.77269">
        <ele>378</ele>
        <time>2016-06-12T09:31:04.000Z</time>
      </trkpt>
      <trkpt lat="47.51367" lon="6.77263">
        <ele>378</ele>
        <time>2016-06-12T09:31:05.000Z</time>
      </trkpt>
      <trkpt lat="47.51375" lon="6.77257">
        <ele>377</ele>
        <time>2016-06-12T09:31:06.000Z</time>
      </trkpt>
      <trkpt lat="47.51383" lon="6.77251">
        <ele>377</ele>
        <time>2016-06-12T09:31:07.000Z</time>
      </trkpt>
      <trkpt lat="47.51391" lon="6.77246">
        <ele>376</ele>
        <time>2016-06-12T09:31:08.000Z</time>
      </trkpt>
      <trkpt lat="47.514" lon="6.77241">
        <ele>376</ele>
        <time>2016-06-12T09:31:09.000Z</time>
      </trkpt>
      <trkpt lat="47.51407" lon="6.77237">
        <ele>376</ele>
        <time>2016-06-12T09:31:10.000Z</time>
      </trkpt>
      <trkpt lat="47.51415" lon="6.77233">
        <ele>376</ele>
        <time>2016-06-12T09:31:11.000Z</time>
      </trkpt>
      <trkpt lat="47.51424" lon="6.77228">
        <ele>375</ele>
        <time>2016-06-12T09:31:12.000Z</time>
      </trkpt>
      <trkpt lat="47.51432" lon="6.77223">
        <ele>375</ele>
        <time>2016-06-12T09:31:13.000Z</time>
      </trkpt>
      <trkpt lat="47.5144" lon="6.7722">
        <ele>375</ele>
        <time>2016-06-12T09:31:14.000Z</time>
      </trkpt>
      <trkpt lat="47.51447" lon="6.77216">
        <ele>375</ele>
        <time>2016-06-12T09:31:15.000Z</time>
      </trkpt>
      <trkpt lat="47.51454" lon="6.77212">
        <ele>375</ele>
        <time>2016-06-12T09:31:16.000Z</time>
      </trkpt>
      <trkpt lat="47.51461" lon="6.77209">
        <ele>375</ele>
        <time>2016-06-12T09:31:17.000Z</time>
      </trkpt>
      <trkpt lat="47.51468" lon="6.77206">
        <ele>375</ele>
        <time>2016-06-12T09:31:18.000Z</time>
      </trkpt>
      <trkpt lat="47.51474" lon="6.77204">
        <ele>375</ele>
        <time>2016-06-12T09:31:19.000Z</time>
      </trkpt>
      <trkpt lat="47.51478" lon="6.77204">
        <ele>375</ele>
        <time>2016-06-12T09:31:20.000Z</time>
      </trkpt>
      <trkpt lat="47.51482" lon="6.7721">
        <ele>375</ele>
        <time>2016-06-12T09:31:21.000Z</time>
      </trkpt>
      <trkpt lat="47.51484" lon="6.77216">
        <ele>375</ele>
        <time>2016-06-12T09:31:22.000Z</time>
      </trkpt>
      <trkpt lat="47.51485" lon="6.77224">
        <ele>375</ele>
        <time>2016-06-12T09:31:23.000Z</time>
      </trkpt>
      <trkpt lat="47.51486" lon="6.77233">
        <ele>375</ele>
        <time>2016-06-12T09:31:24.000Z</time>
      </trkpt>
      <trkpt lat="47.51487" lon="6.77241">
        <ele>376</ele>
        <time>2016-06-12T09:31:25.000Z</time>
      </trkpt>
      <trkpt lat="47.51487" lon="6.77249">
        <ele>376</ele>
        <time>2016-06-12T09:31:26.000Z</time>
      </trkpt>
      <trkpt lat="47.51488" lon="6.77258">
        <ele>376</ele>
        <time>2016-06-12T09:31:26.999Z</time>
      </trkpt>
      <trkpt lat="47.51489" lon="6.77266">
        <ele>376</ele>
        <time>2016-06-12T09:31:28.000Z</time>
      </trkpt>
      <trkpt lat="47.5149" lon="6.77272">
        <ele>377</ele>
        <time>2016-06-12T09:31:29.000Z</time>
      </trkpt>
      <trkpt lat="47.51491" lon="6.7728">
        <ele>377</ele>
        <time>2016-06-12T09:31:30.000Z</time>
      </trkpt>
      <trkpt lat="47.51492" lon="6.77289">
        <ele>377</ele>
        <time>2016-06-12T09:31:31.000Z</time>
      </trkpt>
      <trkpt lat="47.51492" lon="6.77297">
        <ele>377</ele>
        <time>2016-06-12T09:31:32.000Z</time>
      </trkpt>
      <trkpt lat="47.51494" lon="6.77304">
        <ele>377</ele>
        <time>2016-06-12T09:31:33.000Z</time>
      </trkpt>
      <trkpt lat="47.51498" lon="6.77311">
        <ele>377</ele>
        <time>2016-06-12T09:31:34.000Z</time>
      </trkpt>
      <trkpt lat="47.51502" lon="6.77316">
        <ele>378</ele>
        <time>2016-06-12T09:31:35.000Z</time>
      </trkpt>
      <trkpt lat="47.51507" lon="6.77321">
        <ele>378</ele>
        <time>2016-06-12T09:31:36.000Z</time>
      </trkpt>
      <trkpt lat="47.51511" lon="6.77326">
        <ele>378</ele>
        <time>2016-06-12T09:31:37.000Z</time>
      </trkpt>
      <trkpt lat="47.51516" lon="6.7733">
        <ele>378</ele>
        <time>2016-06-12T09:31:38.000Z</time>
      </trkpt>
      <trkpt lat="47.5152" lon="6.77334">
        <ele>379</ele>
        <time>2016-06-12T09:31:39.000Z</time>
      </trkpt>
      <trkpt lat="47.51524" lon="6.77339">
        <ele>380</ele>
        <time>2016-06-12T09:31:40.000Z</time>
      </trkpt>
      <trkpt lat="47.51528" lon="6.77344">
        <ele>380</ele>
        <time>2016-06-12T09:31:41.000Z</time>
      </trkpt>
      <trkpt lat="47.51531" lon="6.77348">
        <ele>380</ele>
        <time>2016-06-12T09:31:42.000Z</time>
      </trkpt>
      <trkpt lat="47.51534" lon="6.77352">
        <ele>380</ele>
        <time>2016-06-12T09:31:43.000Z</time>
      </trkpt>
      <trkpt lat="47.51537" lon="6.77355">
        <ele>380</ele>
        <time>2016-06-12T09:31:44.000Z</time>
      </trkpt>
      <trkpt lat="47.51541" lon="6.77358">
        <ele>380</ele>
        <time>2016-06-12T09:31:45.000Z</time>
      </trkpt>
      <trkpt lat="47.51544" lon="6.77361">
        <ele>380</ele>
        <time>2016-06-12T09:31:46.000Z</time>
      </trkpt>
      <trkpt lat="47.51546" lon="6.77364">
        <ele>380</ele>
        <time>2016-06-12T09:31:46.999Z</time>
      </trkpt>
      <trkpt lat="47.51549" lon="6.77369">
        <ele>381</ele>
        <time>2016-06-12T09:31:48.000Z</time>
      </trkpt>
      <trkpt lat="47.51552" lon="6.77372">
        <ele>381</ele>
        <time>2016-06-12T09:31:49.000Z</time>
      </trkpt>
      <trkpt lat="47.51555" lon="6.77376">
        <ele>381</ele>
        <time>2016-06-12T09:31:50.000Z</time>
      </trkpt>
      <trkpt lat="47.51557" lon="6.77379">
        <ele>381</ele>
        <time>2016-06-12T09:31:51.000Z</time>
      </trkpt>
      <trkpt lat="47.5156" lon="6.77383">
        <ele>381</ele>
        <time>2016-06-12T09:31:52.000Z</time>
      </trkpt>
      <trkpt lat="47.51563" lon="6.77386">
        <ele>381</ele>
        <time>2016-06-12T09:31:53.000Z</time>
      </trkpt>
      <trkpt lat="47.51565" lon="6.77389">
        <ele>381</ele>
        <time>2016-06-12T09:31:54.000Z</time>
      </trkpt>
      <trkpt lat="47.51568" lon="6.77391">
        <ele>381</ele>
        <time>2016-06-12T09:31:55.000Z</time>
      </trkpt>
      <trkpt lat="47.5157" lon="6.77394">
        <ele>381</ele>
        <time>2016-06-12T09:31:56.000Z</time>
      </trkpt>
      <trkpt lat="47.51573" lon="6.77396">
        <ele>382</ele>
        <time>2016-06-12T09:31:57.000Z</time>
      </trkpt>
      <trkpt lat="47.51575" lon="6.77399">
        <ele>382</ele>
        <time>2016-06-12T09:31:58.000Z</time>
      </trkpt>
      <trkpt lat="47.51578" lon="6.77402">
        <ele>382</ele>
        <time>2016-06-12T09:31:59.000Z</time>
      </trkpt>
      <trkpt lat="47.51581" lon="6.77405">
        <ele>382</ele>
        <time>2016-06-12T09:32:00.000Z</time>
      </trkpt>
      <trkpt lat="47.51583" lon="6.77409">
        <ele>382</ele>
        <time>2016-06-12T09:32:01.000Z</time>
      </trkpt>
      <trkpt lat="47.51586" lon="6.77412">
        <ele>383</ele>
        <time>2016-06-12T09:32:02.000Z</time>
      </trkpt>
      <trkpt lat="47.51589" lon="6.77415">
        <ele>383</ele>
        <time>2016-06-12T09:32:03.000Z</time>
      </trkpt>
      <trkpt lat="47.51592" lon="6.77419">
        <ele>384</ele>
        <time>2016-06-12T09:32:04.000Z</time>
      </trkpt>
      <trkpt lat="47.51595" lon="6.77422">
        <ele>384</ele>
        <time>2016-06-12T09:32:05.000Z</time>
      </trkpt>
      <trkpt lat="47.51598" lon="6.77426">
        <ele>384</ele>
        <time>2016-06-12T09:32:06.000Z</time>
      </trkpt>
      <trkpt lat="47.51601" lon="6.7743">
        <ele>385</ele>
        <time>2016-06-12T09:32:07.000Z</time>
      </trkpt>
      <trkpt lat="47.51604" lon="6.77433">
        <ele>385</ele>
        <time>2016-06-12T09:32:08.000Z</time>
      </trkpt>
      <trkpt lat="47.51607" lon="6.77436">
        <ele>385</ele>
        <time>2016-06-12T09:32:09.000Z</time>
      </trkpt>
      <trkpt lat="47.5161" lon="6.77439">
        <ele>385</ele>
        <time>2016-06-12T09:32:10.000Z</time>
      </trkpt>
      <trkpt lat="47.51612" lon="6.77443">
        <ele>385</ele>
        <time>2016-06-12T09:32:11.000Z</time>
      </trkpt>
      <trkpt lat="47.51615" lon="6.77447">
        <ele>385</ele>
        <time>2016-06-12T09:32:12.000Z</time>
      </trkpt>
      <trkpt lat="47.51617" lon="6.7745">
        <ele>385</ele>
        <time>2016-06-12T09:32:13.000Z</time>
      </trkpt>
      <trkpt lat="47.5162" lon="6.77454">
        <ele>386</ele>
        <time>2016-06-12T09:32:14.000Z</time>
      </trkpt>
      <trkpt lat="47.51623" lon="6.77457">
        <ele>386</ele>
        <time>2016-06-12T09:32:15.000Z</time>
      </trkpt>
      <trkpt lat="47.51625" lon="6.7746">
        <ele>386</ele>
        <time>2016-06-12T09:32:16.000Z</time>
      </trkpt>
      <trkpt lat="47.51628" lon="6.77463">
        <ele>386</ele>
        <time>2016-06-12T09:32:17.000Z</time>
      </trkpt>
      <trkpt lat="47.51631" lon="6.77467">
        <ele>386</ele>
        <time>2016-06-12T09:32:18.000Z</time>
      </trkpt>
      <trkpt lat="47.51633" lon="6.77469">
        <ele>386</ele>
        <time>2016-06-12T09:32:19.000Z</time>
      </trkpt>
      <trkpt lat="47.51636" lon="6.77472">
        <ele>386</ele>
        <time>2016-06-12T09:32:20.000Z</time>
      </trkpt>
      <trkpt lat="47.51638" lon="6.77476">
        <ele>386</ele>
        <time>2016-06-12T09:32:21.000Z</time>
      </trkpt>
      <trkpt lat="47.51641" lon="6.77479">
        <ele>387</ele>
        <time>2016-06-12T09:32:22.000Z</time>
      </trkpt>
      <trkpt lat="47.51644" lon="6.77482">
        <ele>387</ele>
        <time>2016-06-12T09:32:23.000Z</time>
      </trkpt>
      <trkpt lat="47.51646" lon="6.77486">
        <ele>387</ele>
        <time>2016-06-12T09:32:24.000Z</time>
      </trkpt>
      <trkpt lat="47.51649" lon="6.77489">
        <ele>387</ele>
        <time>2016-06-12T09:32:25.000Z</time>
      </trkpt>
      <trkpt lat="47.51651" lon="6.77492">
        <ele>387</ele>
        <time>2016-06-12T09:32:26.000Z</time>
      </trkpt>
      <trkpt lat="47.51654" lon="6.77495">
        <ele>388</ele>
        <time>2016-06-12T09:32:27.000Z</time>
      </trkpt>
      <trkpt lat="47.51657" lon="6.77498">
        <ele>388</ele>
        <time>2016-06-12T09:32:28.000Z</time>
      </trkpt>
      <trkpt lat="47.51659" lon="6.77501">
        <ele>388</ele>
        <time>2016-06-12T09:32:29.000Z</time>
      </trkpt>
      <trkpt lat="47.51662" lon="6.77504">
        <ele>389</ele>
        <time>2016-06-12T09:32:30.000Z</time>
      </trkpt>
      <trkpt lat="47.51665" lon="6.77507">
        <ele>388</ele>
        <time>2016-06-12T09:32:31.000Z</time>
      </trkpt>
      <trkpt lat="47.51668" lon="6.77511">
        <ele>389</ele>
        <time>2016-06-12T09:32:32.000Z</time>
      </trkpt>
      <trkpt lat="47.51671" lon="6.77514">
        <ele>389</ele>
        <time>2016-06-12T09:32:33.000Z</time>
      </trkpt>
      <trkpt lat="47.51674" lon="6.77517">
        <ele>389</ele>
        <time>2016-06-12T09:32:34.000Z</time>
      </trkpt>
      <trkpt lat="47.51677" lon="6.7752">
        <ele>390</ele>
        <time>2016-06-12T09:32:35.000Z</time>
      </trkpt>
      <trkpt lat="47.51681" lon="6.77523">
        <ele>390</ele>
        <time>2016-06-12T09:32:36.000Z</time>
      </trkpt>
      <trkpt lat="47.51684" lon="6.77525">
        <ele>390</ele>
        <time>2016-06-12T09:32:37.000Z</time>
      </trkpt>
      <trkpt lat="47.51687" lon="6.77528">
        <ele>390</ele>
        <time>2016-06-12T09:32:38.000Z</time>
      </trkpt>
      <trkpt lat="47.5169" lon="6.77532">
        <ele>390</ele>
        <time>2016-06-12T09:32:39.000Z</time>
      </trkpt>
      <trkpt lat="47.51693" lon="6.77535">
        <ele>390</ele>
        <time>2016-06-12T09:32:40.000Z</time>
      </trkpt>
      <trkpt lat="47.51696" lon="6.77538">
        <ele>390</ele>
        <time>2016-06-12T09:32:41.000Z</time>
      </trkpt>
      <trkpt lat="47.51699" lon="6.77542">
        <ele>390</ele>
        <time>2016-06-12T09:32:42.000Z</time>
      </trkpt>
      <trkpt lat="47.51703" lon="6.77545">
        <ele>390</ele>
        <time>2016-06-12T09:32:43.000Z</time>
      </trkpt>
      <trkpt lat="47.51706" lon="6.77548">
        <ele>390</ele>
        <time>2016-06-12T09:32:44.000Z</time>
      </trkpt>
      <trkpt lat="47.51709" lon="6.77551">
        <ele>390</ele>
        <time>2016-06-12T09:32:45.000Z</time>
      </trkpt>
      <trkpt lat="47.51712" lon="6.77554">
        <ele>390</ele>
        <time>2016-06-12T09:32:46.000Z</time>
      </trkpt>
      <trkpt lat="47.51714" lon="6.77555">
        <ele>390</ele>
        <time>2016-06-12T09:32:47.000Z</time>
      </trkpt>
      <trkpt lat="47.51717" lon="6.77554">
        <ele>390</ele>
        <time>2016-06-12T09:32:48.000Z</time>
      </trkpt>
      <trkpt lat="47.51719" lon="6.7755">
        <ele>390</ele>
        <time>2016-06-12T09:32:49.000Z</time>
      </trkpt>
      <trkpt lat="47.51721" lon="6.77545">
        <ele>390</ele>
        <time>2016-06-12T09:32:50.000Z</time>
      </trkpt>
      <trkpt lat="47.51722" lon="6.77539">
        <ele>390</ele>
        <time>2016-06-12T09:32:51.000Z</time>
      </trkpt>
      <trkpt lat="47.51723" lon="6.77533">
        <ele>390</ele>
        <time>2016-06-12T09:32:52.000Z</time>
      </trkpt>
      <trkpt lat="47.51724" lon="6.77527">
        <ele>390</ele>
        <time>2016-06-12T09:32:53.000Z</time>
      </trkpt>
      <trkpt lat="47.51726" lon="6.77521">
        <ele>390</ele>
        <time>2016-06-12T09:32:54.000Z</time>
      </trkpt>
      <trkpt lat="47.51727" lon="6.77515">
        <ele>390</ele>
        <time>2016-06-12T09:32:55.000Z</time>
      </trkpt>
      <trkpt lat="47.51728" lon="6.77509">
        <ele>390</ele>
        <time>2016-06-12T09:32:56.000Z</time>
      </trkpt>
      <trkpt lat="47.5173" lon="6.77503">
        <ele>390</ele>
        <time>2016-06-12T09:32:57.000Z</time>
      </trkpt>
      <trkpt lat="47.51731" lon="6.77497">
        <ele>389</ele>
        <time>2016-06-12T09:32:58.000Z</time>
      </trkpt>
      <trkpt lat="47.51732" lon="6.77491">
        <ele>389</ele>
        <time>2016-06-12T09:32:59.000Z</time>
      </trkpt>
      <trkpt lat="47.51733" lon="6.77486">
        <ele>389</ele>
        <time>2016-06-12T09:33:00.000Z</time>
      </trkpt>
      <trkpt lat="47.51735" lon="6.77481">
        <ele>389</ele>
        <time>2016-06-12T09:33:01.000Z</time>
      </trkpt>
      <trkpt lat="47.51737" lon="6.77478">
        <ele>389</ele>
        <time>2016-06-12T09:33:02.000Z</time>
      </trkpt>
      <trkpt lat="47.51739" lon="6.77476">
        <ele>389</ele>
        <time>2016-06-12T09:33:03.000Z</time>
      </trkpt>
      <trkpt lat="47.51743" lon="6.77476">
        <ele>389</ele>
        <time>2016-06-12T09:33:04.000Z</time>
      </trkpt>
      <trkpt lat="47.51747" lon="6.77476">
        <ele>389</ele>
        <time>2016-06-12T09:33:05.000Z</time>
      </trkpt>
      <trkpt lat="47.51751" lon="6.77478">
        <ele>389</ele>
        <time>2016-06-12T09:33:06.000Z</time>
      </trkpt>
      <trkpt lat="47.51755" lon="6.7748">
        <ele>389</ele>
        <time>2016-06-12T09:33:07.000Z</time>
      </trkpt>
      <trkpt lat="47.51759" lon="6.77481">
        <ele>389</ele>
        <time>2016-06-12T09:33:08.000Z</time>
      </trkpt>
      <trkpt lat="47.51763" lon="6.77482">
        <ele>389</ele>
        <time>2016-06-12T09:33:09.000Z</time>
      </trkpt>
      <trkpt lat="47.51767" lon="6.77483">
        <ele>389</ele>
        <time>2016-06-12T09:33:10.000Z</time>
      </trkpt>
      <trkpt lat="47.51772" lon="6.77484">
        <ele>388</ele>
        <time>2016-06-12T09:33:11.000Z</time>
      </trkpt>
      <trkpt lat="47.51776" lon="6.77485">
        <ele>388</ele>
        <time>2016-06-12T09:33:12.000Z</time>
      </trkpt>
      <trkpt lat="47.51781" lon="6.77487">
        <ele>388</ele>
        <time>2016-06-12T09:33:13.000Z</time>
      </trkpt>
      <trkpt lat="47.51785" lon="6.7749">
        <ele>388</ele>
        <time>2016-06-12T09:33:14.000Z</time>
      </trkpt>
      <trkpt lat="47.51789" lon="6.77492">
        <ele>388</ele>
        <time>2016-06-12T09:33:15.000Z</time>
      </trkpt>
      <trkpt lat="47.51793" lon="6.77493">
        <ele>388</ele>
        <time>2016-06-12T09:33:16.000Z</time>
      </trkpt>
      <trkpt lat="47.51797" lon="6.77494">
        <ele>388</ele>
        <time>2016-06-12T09:33:17.000Z</time>
      </trkpt>
      <trkpt lat="47.51801" lon="6.77496">
        <ele>388</ele>
        <time>2016-06-12T09:33:18.000Z</time>
      </trkpt>
      <trkpt lat="47.51803" lon="6.77496">
        <ele>388</ele>
        <time>2016-06-12T09:33:19.000Z</time>
      </trkpt>
      <trkpt lat="47.51806" lon="6.77497">
        <ele>388</ele>
        <time>2016-06-12T09:33:20.000Z</time>
      </trkpt>
      <trkpt lat="47.51809" lon="6.77494">
        <ele>388</ele>
        <time>2016-06-12T09:33:22.000Z</time>
      </trkpt>
      <trkpt lat="47.51809" lon="6.77491">
        <ele>388</ele>
        <time>2016-06-12T09:33:23.000Z</time>
      </trkpt>
      <trkpt lat="47.51809" lon="6.77487">
        <ele>388</ele>
        <time>2016-06-12T09:33:25.000Z</time>
      </trkpt>
      <trkpt lat="47.51809" lon="6.77484">
        <ele>388</ele>
        <time>2016-06-12T09:33:26.000Z</time>
      </trkpt>
      <trkpt lat="47.51808" lon="6.77478">
        <ele>388</ele>
        <time>2016-06-12T09:33:29.000Z</time>
      </trkpt>
      <trkpt lat="47.51807" lon="6.77477">
        <ele>388</ele>
        <time>2016-06-12T09:33:29.999Z</time>
      </trkpt>
      <trkpt lat="47.51805" lon="6.77473">
        <ele>388</ele>
        <time>2016-06-12T09:33:42.000Z</time>
      </trkpt>
      <trkpt lat="47.51805" lon="6.7747">
        <ele>388</ele>
        <time>2016-06-12T09:33:43.000Z</time>
      </trkpt>
      <trkpt lat="47.51804" lon="6.77467">
        <ele>388</ele>
        <time>2016-06-12T09:33:44.000Z</time>
      </trkpt>
      <trkpt lat="47.51803" lon="6.77464">
        <ele>388</ele>
        <time>2016-06-12T09:33:45.000Z</time>
      </trkpt>
      <trkpt lat="47.51801" lon="6.77459">
        <ele>388</ele>
        <time>2016-06-12T09:33:47.000Z</time>
      </trkpt>
      <trkpt lat="47.518" lon="6.77458">
        <ele>388</ele>
        <time>2016-06-12T09:33:48.000Z</time>
      </trkpt>
      <trkpt lat="47.51803" lon="6.77453">
        <ele>388</ele>
        <time>2016-06-12T09:33:56.000Z</time>
      </trkpt>
      <trkpt lat="47.51803" lon="6.77453">
        <ele>388</ele>
        <time>2016-06-12T09:33:57.000Z</time>
      </trkpt>
      <trkpt lat="47.51801" lon="6.77458">
        <ele>388</ele>
        <time>2016-06-12T09:38:51.000Z</time>
      </trkpt>
      <trkpt lat="47.518" lon="6.77458">
        <ele>388</ele>
        <time>2016-06-12T09:38:52.000Z</time>
      </trkpt>
      <trkpt lat="47.51796" lon="6.7746">
        <ele>388</ele>
        <time>2016-06-12T09:38:57.000Z</time>
      </trkpt>
      <trkpt lat="47.51795" lon="6.77461">
        <ele>388</ele>
        <time>2016-06-12T09:38:58.000Z</time>
      </trkpt>
      <trkpt lat="47.51799" lon="6.77458">
        <ele>388</ele>
        <time>2016-06-12T09:39:39.000Z</time>
      </trkpt>
      <trkpt lat="47.518" lon="6.77459">
        <ele>388</ele>
        <time>2016-06-12T09:39:40.000Z</time>
      </trkpt>
      <trkpt lat="47.51804" lon="6.77457">
        <ele>388</ele>
        <time>2016-06-12T09:39:54.000Z</time>
      </trkpt>
      <trkpt lat="47.51804" lon="6.77457">
        <ele>388</ele>
        <time>2016-06-12T09:39:55.000Z</time>
      </trkpt>
      <trkpt lat="47.51804" lon="6.77463">
        <ele>388</ele>
        <time>2016-06-12T09:40:35.000Z</time>
      </trkpt>
      <trkpt lat="47.51805" lon="6.77465">
        <ele>388</ele>
        <time>2016-06-12T09:40:36.000Z</time>
      </trkpt>
      <trkpt lat="47.51805" lon="6.7747">
        <ele>388</ele>
        <time>2016-06-12T09:40:39.000Z</time>
      </trkpt>
      <trkpt lat="47.51805" lon="6.77471">
        <ele>388</ele>
        <time>2016-06-12T09:40:40.000Z</time>
      </trkpt>
      <trkpt lat="47.51807" lon="6.77477">
        <ele>388</ele>
        <time>2016-06-12T09:40:44.000Z</time>
      </trkpt>
      <trkpt lat="47.51808" lon="6.77478">
        <ele>388</ele>
        <time>2016-06-12T09:40:45.001Z</time>
      </trkpt>
      <trkpt lat="47.51804" lon="6.77476">
        <ele>388</ele>
        <time>2016-06-12T09:41:04.000Z</time>
      </trkpt>
      <trkpt lat="47.51803" lon="6.77476">
        <ele>388</ele>
        <time>2016-06-12T09:41:05.000Z</time>
      </trkpt>
      <trkpt lat="47.51806" lon="6.77472">
        <ele>388</ele>
        <time>2016-06-12T09:47:34.000Z</time>
      </trkpt>
      <trkpt lat="47.51806" lon="6.7747">
        <ele>388</ele>
        <time>2016-06-12T09:47:35.000Z</time>
      </trkpt>
      <trkpt lat="47.51805" lon="6.77463">
        <ele>388</ele>
        <time>2016-06-12T09:47:39.000Z</time>
      </trkpt>
      <trkpt lat="47.51805" lon="6.77461">
        <ele>388</ele>
        <time>2016-06-12T09:47:40.000Z</time>
      </trkpt>
      <trkpt lat="47.51805" lon="6.77456">
        <ele>388</ele>
        <time>2016-06-12T09:47:44.000Z</time>
      </trkpt>
      <trkpt lat="47.51805" lon="6.77455">
        <ele>388</ele>
        <time>2016-06-12T09:47:45.000Z</time>
      </trkpt>
      <trkpt lat="47.51806" lon="6.77459">
        <ele>388</ele>
        <time>2016-06-12T09:50:20.000Z</time>
      </trkpt>
      <trkpt lat="47.51806" lon="6.77461">
        <ele>388</ele>
        <time>2016-06-12T09:50:21.000Z</time>
      </trkpt>
      <trkpt lat="47.51805" lon="6.77467">
        <ele>388</ele>
        <time>2016-06-12T09:50:31.000Z</time>
      </trkpt>
      <trkpt lat="47.51804" lon="6.77468">
        <ele>388</ele>
        <time>2016-06-12T09:50:32.000Z</time>
      </trkpt>
      <trkpt lat="47.51802" lon="6.77466">
        <ele>388</ele>
        <time>2016-06-12T09:54:31.000Z</time>
      </trkpt>
    </trkseg>
  </trk>
</gpx>